<?xml version='1.0' encoding='UTF-8'?><gpx version="1.1" creator="JPX - https://github.com/jenetics/jpx" xmlns="http://www.topografix.com/GPX/1/1"><trk><trkseg><trkpt lat="-29.25116150096625" lon="114.93511391803318"><ele>13.0</ele><time>2026-04-13T06:09:44.999Z</time></trkpt><trkpt lat="-29.25120750967499" lon="114.93519619659963"><ele>13.0</ele><time>2026-04-13T06:09:47.999Z</time></trkpt><trkpt lat="-29.251286001228518" lon="114.93520908325884"><ele>13.0</ele><time>2026-04-13T06:09:49.999Z</time></trkpt><trkpt lat="-29.25131693638239" lon="114.93509302573118"><ele>13.0</ele><time>2026-04-13T06:09:51.999Z</time></trkpt><trkpt lat="-29.251227055719887" lon="114.93502919882282"><ele>13.0</ele><time>2026-04-13T06:09:53.999Z</time></trkpt><trkpt lat="-29.25115201321114" lon="114.93500971745702"><ele>13.2</ele><time>2026-04-13T06:09:54.999Z</time></trkpt><trkpt lat="-29.25107745161882" lon="114.93498103021597"><ele>13.4</ele><time>2026-04-13T06:09:55.999Z</time></trkpt><trkpt lat="-29.250988638474585" lon="114.93496805015279"><ele>13.599999999999998</ele><time>2026-04-13T06:09:56.999Z</time></trkpt><trkpt lat="-29.250878220867307" lon="114.93496243964785"><ele>13.799999999999999</ele><time>2026-04-13T06:09:57.999Z</time></trkpt><trkpt lat="-29.250771209287848" lon="114.93496578983121"><ele>14.0</ele><time>2026-04-13T06:09:58.999Z</time></trkpt><trkpt lat="-29.250659697386048" lon="114.93497812657488"><ele>14.399999999999999</ele><time>2026-04-13T06:09:59.999Z</time></trkpt><trkpt lat="-29.25055257417754" lon="114.93498063989622"><ele>14.799999999999999</ele><time>2026-04-13T06:10:00.999Z</time></trkpt><trkpt lat="-29.250451398174228" lon="114.93498164015475"><ele>15.200000000000001</ele><time>2026-04-13T06:10:01.999Z</time></trkpt><trkpt lat="-29.250343349462746" lon="114.934980024188"><ele>15.600000000000001</ele><time>2026-04-13T06:10:02.999Z</time></trkpt><trkpt lat="-29.2502489967015" lon="114.9349718281511"><ele>16.0</ele><time>2026-04-13T06:10:03.999Z</time></trkpt><trkpt lat="-29.250168780858637" lon="114.93496639559878"><ele>15.999999999999998</ele><time>2026-04-13T06:10:04.999Z</time></trkpt><trkpt lat="-29.250095418940322" lon="114.93496644998235"><ele>16.0</ele><time>2026-04-13T06:10:05.999Z</time></trkpt><trkpt lat="-29.249973253068944" lon="114.93497455268252"><ele>16.0</ele><time>2026-04-13T06:10:08Z</time></trkpt><trkpt lat="-29.249910397837137" lon="114.9349819275418"><ele>16.0</ele><time>2026-04-13T06:10:09Z</time></trkpt><trkpt lat="-29.249845108782125" lon="114.93498093295203"><ele>15.999999999999998</ele><time>2026-04-13T06:10:10Z</time></trkpt><trkpt lat="-29.24978155356149" lon="114.93497896234126"><ele>16.0</ele><time>2026-04-13T06:10:11Z</time></trkpt><trkpt lat="-29.24971772401262" lon="114.93497056577506"><ele>15.833333333333332</ele><time>2026-04-13T06:10:12Z</time></trkpt><trkpt lat="-29.24965215570825" lon="114.9349691287714"><ele>15.666666666666666</ele><time>2026-04-13T06:10:13Z</time></trkpt><trkpt lat="-29.24956952763783" lon="114.93497059709243"><ele>15.5</ele><time>2026-04-13T06:10:14Z</time></trkpt><trkpt lat="-29.24948299640715" lon="114.93496988120786"><ele>15.333333333333332</ele><time>2026-04-13T06:10:15Z</time></trkpt><trkpt lat="-29.249401693471043" lon="114.93496841203542"><ele>15.166666666666666</ele><time>2026-04-13T06:10:16Z</time></trkpt><trkpt lat="-29.249331308968294" lon="114.93496046880203"><ele>15.0</ele><time>2026-04-13T06:10:17Z</time></trkpt><trkpt lat="-29.24926474213046" lon="114.93493588640217"><ele>15.0</ele><time>2026-04-13T06:10:18Z</time></trkpt><trkpt lat="-29.24922264132454" lon="114.93485196233402"><ele>15.0</ele><time>2026-04-13T06:10:19Z</time></trkpt><trkpt lat="-29.24919686506027" lon="114.93474924682714"><ele>15.0</ele><time>2026-04-13T06:10:20Z</time></trkpt><trkpt lat="-29.249139948280618" lon="114.93463168074412"><ele>15.0</ele><time>2026-04-13T06:10:21Z</time></trkpt><trkpt lat="-29.249076971553297" lon="114.93450433806065"><ele>15.0</ele><time>2026-04-13T06:10:22Z</time></trkpt><trkpt lat="-29.24900209392743" lon="114.93436827459743"><ele>15.2</ele><time>2026-04-13T06:10:23Z</time></trkpt><trkpt lat="-29.24892397130665" lon="114.93424720596964"><ele>15.4</ele><time>2026-04-13T06:10:24Z</time></trkpt><trkpt lat="-29.248852620551578" lon="114.93414519934656"><ele>15.600000000000001</ele><time>2026-04-13T06:10:25Z</time></trkpt><trkpt lat="-29.24878462513921" lon="114.93405177374804"><ele>15.8</ele><time>2026-04-13T06:10:26Z</time></trkpt><trkpt lat="-29.24872337634105" lon="114.93396735264177"><ele>16.0</ele><time>2026-04-13T06:10:27Z</time></trkpt><trkpt lat="-29.24867956349775" lon="114.93390329164455"><ele>15.999999999999998</ele><time>2026-04-13T06:10:28Z</time></trkpt><trkpt lat="-29.248636012595313" lon="114.93383909785898"><ele>16.0</ele><time>2026-04-13T06:10:30Z</time></trkpt><trkpt lat="-29.248707800455026" lon="114.93383660272089"><ele>16.0</ele><time>2026-04-13T06:10:35Z</time></trkpt><trkpt lat="-29.248831076514783" lon="114.93382938818401"><ele>16.0</ele><time>2026-04-13T06:10:37Z</time></trkpt><trkpt lat="-29.248912323153725" lon="114.9338288721972"><ele>15.999999999999998</ele><time>2026-04-13T06:10:38Z</time></trkpt><trkpt lat="-29.2489913843391" lon="114.93383414696936"><ele>16.0</ele><time>2026-04-13T06:10:39Z</time></trkpt><trkpt lat="-29.24905640844885" lon="114.9338368799255"><ele>15.25</ele><time>2026-04-13T06:10:40Z</time></trkpt><trkpt lat="-29.24915675057454" lon="114.9338343136184"><ele>14.5</ele><time>2026-04-13T06:10:42Z</time></trkpt><trkpt lat="-29.249218467844187" lon="114.93367394209477"><ele>13.75</ele><time>2026-04-13T06:10:44Z</time></trkpt><trkpt lat="-29.249220239259657" lon="114.93356435738984"><ele>13.0</ele><time>2026-04-13T06:10:45Z</time></trkpt><trkpt lat="-29.249210560058465" lon="114.93343037274974"><ele>13.5</ele><time>2026-04-13T06:10:46Z</time></trkpt><trkpt lat="-29.24920795006295" lon="114.93329838001311"><ele>14.0</ele><time>2026-04-13T06:10:47Z</time></trkpt><trkpt lat="-29.24920887670017" lon="114.93315126171822"><ele>14.5</ele><time>2026-04-13T06:10:48Z</time></trkpt><trkpt lat="-29.24920891481333" lon="114.93298432061123"><ele>15.0</ele><time>2026-04-13T06:10:49Z</time></trkpt><trkpt lat="-29.249207836545153" lon="114.93280978900067"><ele>15.0</ele><time>2026-04-13T06:10:50Z</time></trkpt><trkpt lat="-29.24920197377408" lon="114.93263149684307"><ele>15.0</ele><time>2026-04-13T06:10:51Z</time></trkpt><trkpt lat="-29.24919968882145" lon="114.93243880847035"><ele>15.0</ele><time>2026-04-13T06:10:52Z</time></trkpt><trkpt lat="-29.24919921258189" lon="114.93223003502627"><ele>15.0</ele><time>2026-04-13T06:10:53Z</time></trkpt><trkpt lat="-29.249201140229836" lon="114.93203722693323"><ele>15.0</ele><time>2026-04-13T06:10:54Z</time></trkpt><trkpt lat="-29.24920402292803" lon="114.93186781358155"><ele>15.0</ele><time>2026-04-13T06:10:55Z</time></trkpt><trkpt lat="-29.24920504124687" lon="114.93171161320946"><ele>15.0</ele><time>2026-04-13T06:10:56Z</time></trkpt><trkpt lat="-29.24920293385087" lon="114.93157667302987"><ele>15.0</ele><time>2026-04-13T06:10:57Z</time></trkpt><trkpt lat="-29.249201406809306" lon="114.93146408505835"><ele>15.0</ele><time>2026-04-13T06:10:58Z</time></trkpt><trkpt lat="-29.249199515424852" lon="114.93136815146421"><ele>15.0</ele><time>2026-04-13T06:11:00Z</time></trkpt><trkpt lat="-29.249071292812033" lon="114.93130002195339"><ele>15.0</ele><time>2026-04-13T06:11:04Z</time></trkpt><trkpt lat="-29.248989704158735" lon="114.93131829813845"><ele>15.25</ele><time>2026-04-13T06:11:05Z</time></trkpt><trkpt lat="-29.2488871054518" lon="114.93134356700438"><ele>15.5</ele><time>2026-04-13T06:11:06Z</time></trkpt><trkpt lat="-29.24877192107646" lon="114.93134240705567"><ele>15.75</ele><time>2026-04-13T06:11:07Z</time></trkpt><trkpt lat="-29.24864814635724" lon="114.93137466307414"><ele>16.0</ele><time>2026-04-13T06:11:08Z</time></trkpt><trkpt lat="-29.248494461625388" lon="114.93138676898648"><ele>16.0</ele><time>2026-04-13T06:11:09Z</time></trkpt><trkpt lat="-29.248323052030162" lon="114.93140884847837"><ele>16.0</ele><time>2026-04-13T06:11:10Z</time></trkpt><trkpt lat="-29.24814452931431" lon="114.93142980301363"><ele>16.0</ele><time>2026-04-13T06:11:11Z</time></trkpt><trkpt lat="-29.247947514593754" lon="114.93144683025504"><ele>16.333333333333332</ele><time>2026-04-13T06:11:12Z</time></trkpt><trkpt lat="-29.247748240876376" lon="114.93146642268198"><ele>16.666666666666668</ele><time>2026-04-13T06:11:13Z</time></trkpt><trkpt lat="-29.247555847564353" lon="114.93148856585275"><ele>17.0</ele><time>2026-04-13T06:11:14Z</time></trkpt><trkpt lat="-29.247367813677528" lon="114.93151299988138"><ele>17.0</ele><time>2026-04-13T06:11:15Z</time></trkpt><trkpt lat="-29.247187898173294" lon="114.93153640268865"><ele>17.0</ele><time>2026-04-13T06:11:16Z</time></trkpt><trkpt lat="-29.247010900434166" lon="114.93155786915975"><ele>17.0</ele><time>2026-04-13T06:11:17Z</time></trkpt><trkpt lat="-29.24682897638031" lon="114.93157645108104"><ele>17.0</ele><time>2026-04-13T06:11:18Z</time></trkpt><trkpt lat="-29.2466590182673" lon="114.93159929896052"><ele>17.0</ele><time>2026-04-13T06:11:19Z</time></trkpt><trkpt lat="-29.246500699453676" lon="114.93162157520764"><ele>17.0</ele><time>2026-04-13T06:11:20Z</time></trkpt><trkpt lat="-29.246354208095198" lon="114.93164316350767"><ele>17.25</ele><time>2026-04-13T06:11:21Z</time></trkpt><trkpt lat="-29.246215842526" lon="114.93166422285873"><ele>17.5</ele><time>2026-04-13T06:11:22Z</time></trkpt><trkpt lat="-29.246090975350192" lon="114.93168782530783"><ele>17.75</ele><time>2026-04-13T06:11:23Z</time></trkpt><trkpt lat="-29.245983398658975" lon="114.93172650670081"><ele>18.0</ele><time>2026-04-13T06:11:23.999Z</time></trkpt><trkpt lat="-29.24588903197587" lon="114.93177176472881"><ele>18.0</ele><time>2026-04-13T06:11:24.999Z</time></trkpt><trkpt lat="-29.2458084970155" lon="114.93181578981356"><ele>18.0</ele><time>2026-04-13T06:11:25.999Z</time></trkpt><trkpt lat="-29.245748174467597" lon="114.93185312978875"><ele>18.0</ele><time>2026-04-13T06:11:26.999Z</time></trkpt><trkpt lat="-29.24571412443801" lon="114.93172614097256"><ele>18.0</ele><time>2026-04-13T06:11:31.999Z</time></trkpt><trkpt lat="-29.245692687350783" lon="114.93162860668593"><ele>18.0</ele><time>2026-04-13T06:11:33.999Z</time></trkpt><trkpt lat="-29.245679567057596" lon="114.93155487502884"><ele>18.0</ele><time>2026-04-13T06:11:34.999Z</time></trkpt><trkpt lat="-29.245659164475413" lon="114.93145952491143"><ele>18.25</ele><time>2026-04-13T06:11:35.999Z</time></trkpt><trkpt lat="-29.245653266301897" lon="114.93134521734459"><ele>18.5</ele><time>2026-04-13T06:11:36.999Z</time></trkpt><trkpt lat="-29.245641433230652" lon="114.93121620906908"><ele>18.75</ele><time>2026-04-13T06:11:37.999Z</time></trkpt><trkpt lat="-29.245629214427407" lon="114.93106977938585"><ele>19.0</ele><time>2026-04-13T06:11:38.999Z</time></trkpt><trkpt lat="-29.245617895208962" lon="114.930925288097"><ele>18.8</ele><time>2026-04-13T06:11:39.999Z</time></trkpt><trkpt lat="-29.24561046604044" lon="114.9308007049959"><ele>18.599999999999998</ele><time>2026-04-13T06:11:40.999Z</time></trkpt><trkpt lat="-29.24560302780577" lon="114.93068725677416"><ele>18.4</ele><time>2026-04-13T06:11:41.999Z</time></trkpt><trkpt lat="-29.245589772520354" lon="114.93058575033083"><ele>18.2</ele><time>2026-04-13T06:11:42.999Z</time></trkpt><trkpt lat="-29.245592342884628" lon="114.93050450135797"><ele>18.0</ele><time>2026-04-13T06:11:43.999Z</time></trkpt><trkpt lat="-29.24558650322345" lon="114.9304105676995"><ele>18.0</ele><time>2026-04-13T06:11:45.999Z</time></trkpt><trkpt lat="-29.24536845504066" lon="114.93041348250911"><ele>18.0</ele><time>2026-04-13T06:11:46.999Z</time></trkpt><trkpt lat="-29.245247956796053" lon="114.93043540371787"><ele>18.0</ele><time>2026-04-13T06:11:47.999Z</time></trkpt><trkpt lat="-29.245105312947565" lon="114.93043948994685"><ele>18.0</ele><time>2026-04-13T06:11:48.999Z</time></trkpt><trkpt lat="-29.244947602890935" lon="114.93045137612431"><ele>18.0</ele><time>2026-04-13T06:11:49.999Z</time></trkpt><trkpt lat="-29.244777566284757" lon="114.93046397336721"><ele>18.0</ele><time>2026-04-13T06:11:50.999Z</time></trkpt><trkpt lat="-29.244602329024264" lon="114.9304772695059"><ele>18.666666666666668</ele><time>2026-04-13T06:11:51.999Z</time></trkpt><trkpt lat="-29.244415988554398" lon="114.93049270709716"><ele>19.333333333333336</ele><time>2026-04-13T06:11:52.999Z</time></trkpt><trkpt lat="-29.244211131551236" lon="114.93051241809826"><ele>20.0</ele><time>2026-04-13T06:11:53.999Z</time></trkpt><trkpt lat="-29.243992118793795" lon="114.93053347666354"><ele>19.0</ele><time>2026-04-13T06:11:54.999Z</time></trkpt><trkpt lat="-29.243768001656576" lon="114.93054989194516"><ele>18.0</ele><time>2026-04-13T06:11:55.999Z</time></trkpt><trkpt lat="-29.243535103452462" lon="114.93056580944723"><ele>18.0</ele><time>2026-04-13T06:11:56.999Z</time></trkpt><trkpt lat="-29.243299041726708" lon="114.9305691967793"><ele>18.0</ele><time>2026-04-13T06:11:57.999Z</time></trkpt><trkpt lat="-29.24305616599966" lon="114.93056849420093"><ele>17.5</ele><time>2026-04-13T06:11:58.999Z</time></trkpt><trkpt lat="-29.24282446642625" lon="114.93056881132605"><ele>17.0</ele><time>2026-04-13T06:11:59.999Z</time></trkpt><trkpt lat="-29.242590410600656" lon="114.93056979993997"><ele>17.0</ele><time>2026-04-13T06:12:00.999Z</time></trkpt><trkpt lat="-29.242341147194452" lon="114.93057169667256"><ele>17.0</ele><time>2026-04-13T06:12:01.999Z</time></trkpt><trkpt lat="-29.242073825267735" lon="114.93057509441716"><ele>18.0</ele><time>2026-04-13T06:12:02.999Z</time></trkpt><trkpt lat="-29.241817710855866" lon="114.9305768375703"><ele>19.0</ele><time>2026-04-13T06:12:03.999Z</time></trkpt><trkpt lat="-29.241572712888402" lon="114.93057714964048"><ele>17.5</ele><time>2026-04-13T06:12:04.999Z</time></trkpt><trkpt lat="-29.241335303284064" lon="114.93057614650105"><ele>16.0</ele><time>2026-04-13T06:12:05.999Z</time></trkpt><trkpt lat="-29.241107702272878" lon="114.93057518480678"><ele>16.0</ele><time>2026-04-13T06:12:06.999Z</time></trkpt><trkpt lat="-29.240892744631008" lon="114.93057527385318"><ele>16.0</ele><time>2026-04-13T06:12:07.999Z</time></trkpt><trkpt lat="-29.240687410799392" lon="114.93057565589714"><ele>16.0</ele><time>2026-04-13T06:12:08.999Z</time></trkpt><trkpt lat="-29.240489992449103" lon="114.9305760232128"><ele>15.666666666666666</ele><time>2026-04-13T06:12:09.999Z</time></trkpt><trkpt lat="-29.24030014843542" lon="114.93057670027126"><ele>15.333333333333332</ele><time>2026-04-13T06:12:10.999Z</time></trkpt><trkpt lat="-29.240108063660017" lon="114.93057766900581"><ele>15.0</ele><time>2026-04-13T06:12:11.999Z</time></trkpt><trkpt lat="-29.239910194399314" lon="114.93057766900488"><ele>16.333333333333332</ele><time>2026-04-13T06:12:12.999Z</time></trkpt><trkpt lat="-29.239712978332076" lon="114.93057766900499"><ele>17.666666666666664</ele><time>2026-04-13T06:12:13.999Z</time></trkpt><trkpt lat="-29.239520619119947" lon="114.9305777207659"><ele>19.0</ele><time>2026-04-13T06:12:14.999Z</time></trkpt><trkpt lat="-29.239331272481817" lon="114.9305780638358"><ele>19.0</ele><time>2026-04-13T06:12:15.999Z</time></trkpt><trkpt lat="-29.239142592575753" lon="114.93057840658983"><ele>19.0</ele><time>2026-04-13T06:12:16.999Z</time></trkpt><trkpt lat="-29.23895838910365" lon="114.93057874034204"><ele>19.0</ele><time>2026-04-13T06:12:17.999Z</time></trkpt><trkpt lat="-29.238775578216227" lon="114.93057896991061"><ele>17.666666666666664</ele><time>2026-04-13T06:12:18.999Z</time></trkpt><trkpt lat="-29.238590626373984" lon="114.93057896991098"><ele>16.333333333333332</ele><time>2026-04-13T06:12:19.999Z</time></trkpt><trkpt lat="-29.23840633277974" lon="114.93057896990886"><ele>15.0</ele><time>2026-04-13T06:12:20.999Z</time></trkpt><trkpt lat="-29.238211874488073" lon="114.93057896990587"><ele>15.0</ele><time>2026-04-13T06:12:21.999Z</time></trkpt><trkpt lat="-29.23801663867517" lon="114.93057896990375"><ele>15.0</ele><time>2026-04-13T06:12:22.999Z</time></trkpt><trkpt lat="-29.237834013603408" lon="114.93057896990159"><ele>15.0</ele><time>2026-04-13T06:12:23.999Z</time></trkpt><trkpt lat="-29.23766018065868" lon="114.93057958518375"><ele>15.0</ele><time>2026-04-13T06:12:24.999Z</time></trkpt><trkpt lat="-29.237501241678657" lon="114.93058081585332"><ele>15.0</ele><time>2026-04-13T06:12:25.999Z</time></trkpt><trkpt lat="-29.237371189454475" lon="114.93058177807072"><ele>15.0</ele><time>2026-04-13T06:12:26.999Z</time></trkpt><trkpt lat="-29.237268242934597" lon="114.93058234133082"><ele>15.0</ele><time>2026-04-13T06:12:27.999Z</time></trkpt><trkpt lat="-29.237196172249703" lon="114.93058273565555"><ele>15.0</ele><time>2026-04-13T06:12:28.999Z</time></trkpt><trkpt lat="-29.237143858602835" lon="114.93052187121683"><ele>15.0</ele><time>2026-04-13T06:12:31.999Z</time></trkpt><trkpt lat="-29.23716393483583" lon="114.93040010116376"><ele>15.0</ele><time>2026-04-13T06:12:33.999Z</time></trkpt><trkpt lat="-29.237166538166374" lon="114.93024791330282"><ele>15.0</ele><time>2026-04-13T06:12:36Z</time></trkpt><trkpt lat="-29.237173897929157" lon="114.93013188300692"><ele>15.0</ele><time>2026-04-13T06:12:37Z</time></trkpt><trkpt lat="-29.23717959757549" lon="114.92999575528009"><ele>15.25</ele><time>2026-04-13T06:12:38Z</time></trkpt><trkpt lat="-29.23718108857026" lon="114.92984099745618"><ele>15.5</ele><time>2026-04-13T06:12:39Z</time></trkpt><trkpt lat="-29.237176609117444" lon="114.92967125976242"><ele>15.75</ele><time>2026-04-13T06:12:40Z</time></trkpt><trkpt lat="-29.237171742599894" lon="114.92948722151752"><ele>16.0</ele><time>2026-04-13T06:12:41Z</time></trkpt><trkpt lat="-29.237168486489374" lon="114.92928443165043"><ele>17.0</ele><time>2026-04-13T06:12:42Z</time></trkpt><trkpt lat="-29.237167224708735" lon="114.92906195887818"><ele>18.0</ele><time>2026-04-13T06:12:43Z</time></trkpt><trkpt lat="-29.23716601601549" lon="114.92884270606082"><ele>19.0</ele><time>2026-04-13T06:12:44Z</time></trkpt><trkpt lat="-29.237166889709375" lon="114.9286157137063"><ele>19.0</ele><time>2026-04-13T06:12:45Z</time></trkpt><trkpt lat="-29.237171863480334" lon="114.92840116474456"><ele>19.0</ele><time>2026-04-13T06:12:46Z</time></trkpt><trkpt lat="-29.2371806618317" lon="114.92820060020948"><ele>19.0</ele><time>2026-04-13T06:12:47Z</time></trkpt><trkpt lat="-29.23718212265197" lon="114.92801199038368"><ele>18.666666666666664</ele><time>2026-04-13T06:12:48Z</time></trkpt><trkpt lat="-29.23717761062859" lon="114.92782581633342"><ele>18.333333333333332</ele><time>2026-04-13T06:12:49Z</time></trkpt><trkpt lat="-29.237169518436712" lon="114.92764793661884"><ele>18.0</ele><time>2026-04-13T06:12:50Z</time></trkpt><trkpt lat="-29.237165324254807" lon="114.92747565473658"><ele>18.0</ele><time>2026-04-13T06:12:51Z</time></trkpt><trkpt lat="-29.237166361906027" lon="114.92731003375586"><ele>18.0</ele><time>2026-04-13T06:12:52Z</time></trkpt><trkpt lat="-29.23716668045212" lon="114.92715300419285"><ele>18.0</ele><time>2026-04-13T06:12:53Z</time></trkpt><trkpt lat="-29.237164048924065" lon="114.92700327901198"><ele>18.0</ele><time>2026-04-13T06:12:54Z</time></trkpt><trkpt lat="-29.237161534168088" lon="114.92686573364853"><ele>18.0</ele><time>2026-04-13T06:12:55Z</time></trkpt><trkpt lat="-29.237158311919814" lon="114.92674189254518"><ele>18.0</ele><time>2026-04-13T06:12:56Z</time></trkpt><trkpt lat="-29.237144516625257" lon="114.92662993743247"><ele>18.0</ele><time>2026-04-13T06:12:57Z</time></trkpt><trkpt lat="-29.23712119440822" lon="114.92653743446384"><ele>18.0</ele><time>2026-04-13T06:12:58Z</time></trkpt><trkpt lat="-29.237090902222192" lon="114.92646112188874"><ele>18.0</ele><time>2026-04-13T06:12:59Z</time></trkpt><trkpt lat="-29.23706981857358" lon="114.92634373482443"><ele>17.0</ele><time>2026-04-13T06:13:01Z</time></trkpt><trkpt lat="-29.236899103336306" lon="114.92637778599592"><ele>16.0</ele><time>2026-04-13T06:13:02Z</time></trkpt><trkpt lat="-29.236803620486796" lon="114.92641871322309"><ele>15.0</ele><time>2026-04-13T06:13:03Z</time></trkpt><trkpt lat="-29.236702758412385" lon="114.92649096935057"><ele>14.0</ele><time>2026-04-13T06:13:04Z</time></trkpt><trkpt lat="-29.236597671386185" lon="114.92658446087408"><ele>14.0</ele><time>2026-04-13T06:13:05Z</time></trkpt><trkpt lat="-29.236497409236204" lon="114.92668092545999"><ele>14.0</ele><time>2026-04-13T06:13:06Z</time></trkpt><trkpt lat="-29.23638202382299" lon="114.92678408453132"><ele>14.0</ele><time>2026-04-13T06:13:07Z</time></trkpt><trkpt lat="-29.236242642354277" lon="114.9268892460263"><ele>14.0</ele><time>2026-04-13T06:13:08Z</time></trkpt><trkpt lat="-29.236084929210847" lon="114.92694004581371"><ele>15.333333333333334</ele><time>2026-04-13T06:13:09Z</time></trkpt><trkpt lat="-29.235926015891017" lon="114.9269891788741"><ele>16.666666666666668</ele><time>2026-04-13T06:13:10Z</time></trkpt><trkpt lat="-29.235763954772985" lon="114.92703761919513"><ele>18.0</ele><time>2026-04-13T06:13:11Z</time></trkpt><trkpt lat="-29.235599093201387" lon="114.92709127360935"><ele>18.0</ele><time>2026-04-13T06:13:11.999Z</time></trkpt><trkpt lat="-29.235428881508575" lon="114.92713527637135"><ele>18.0</ele><time>2026-04-13T06:13:12.999Z</time></trkpt><trkpt lat="-29.235260530745915" lon="114.92718608934055"><ele>18.0</ele><time>2026-04-13T06:13:13.999Z</time></trkpt><trkpt lat="-29.235082863367513" lon="114.92720587943954"><ele>18.0</ele><time>2026-04-13T06:13:14.999Z</time></trkpt><trkpt lat="-29.23490539990029" lon="114.92722441048542"><ele>18.0</ele><time>2026-04-13T06:13:15.999Z</time></trkpt><trkpt lat="-29.23473846664498" lon="114.92722789677832"><ele>18.0</ele><time>2026-04-13T06:13:16.999Z</time></trkpt><trkpt lat="-29.23456072673498" lon="114.92722846990334"><ele>16.666666666666668</ele><time>2026-04-13T06:13:17.999Z</time></trkpt><trkpt lat="-29.23436189723592" lon="114.927221806066"><ele>15.333333333333334</ele><time>2026-04-13T06:13:18.999Z</time></trkpt><trkpt lat="-29.234146492114938" lon="114.92721884340122"><ele>14.0</ele><time>2026-04-13T06:13:19.999Z</time></trkpt><trkpt lat="-29.233932314455462" lon="114.92723681143246"><ele>14.0</ele><time>2026-04-13T06:13:20.999Z</time></trkpt><trkpt lat="-29.233715181048282" lon="114.92723294025626"><ele>14.0</ele><time>2026-04-13T06:13:21.999Z</time></trkpt><trkpt lat="-29.233495947679344" lon="114.92723709981792"><ele>14.0</ele><time>2026-04-13T06:13:22.999Z</time></trkpt><trkpt lat="-29.23327932272825" lon="114.92722039539744"><ele>15.333333333333334</ele><time>2026-04-13T06:13:23.999Z</time></trkpt><trkpt lat="-29.233055192206503" lon="114.92721964020546"><ele>16.666666666666668</ele><time>2026-04-13T06:13:24.999Z</time></trkpt><trkpt lat="-29.23283304523293" lon="114.9272189739146"><ele>18.0</ele><time>2026-04-13T06:13:25.999Z</time></trkpt><trkpt lat="-29.232611183498467" lon="114.92721857146134"><ele>18.0</ele><time>2026-04-13T06:13:26.999Z</time></trkpt><trkpt lat="-29.232386495290342" lon="114.92721816299583"><ele>18.0</ele><time>2026-04-13T06:13:27.999Z</time></trkpt><trkpt lat="-29.2321667605688" lon="114.9272177635334"><ele>18.0</ele><time>2026-04-13T06:13:28.999Z</time></trkpt><trkpt lat="-29.23194686678974" lon="114.92721866931156"><ele>17.666666666666668</ele><time>2026-04-13T06:13:29.999Z</time></trkpt><trkpt lat="-29.231729952947003" lon="114.92722154396753"><ele>17.333333333333336</ele><time>2026-04-13T06:13:30.999Z</time></trkpt><trkpt lat="-29.231510246418974" lon="114.92722620388663"><ele>17.0</ele><time>2026-04-13T06:13:31.999Z</time></trkpt><trkpt lat="-29.231289276566407" lon="114.92724539077511"><ele>16.666666666666668</ele><time>2026-04-13T06:13:32.999Z</time></trkpt><trkpt lat="-29.231071319572553" lon="114.92724178707716"><ele>16.333333333333332</ele><time>2026-04-13T06:13:33.999Z</time></trkpt><trkpt lat="-29.2308628671127" lon="114.9272342440641"><ele>16.0</ele><time>2026-04-13T06:13:34.999Z</time></trkpt><trkpt lat="-29.230653690427783" lon="114.92722190355968"><ele>17.333333333333332</ele><time>2026-04-13T06:13:35.999Z</time></trkpt><trkpt lat="-29.230444669939864" lon="114.92717461219758"><ele>18.666666666666668</ele><time>2026-04-13T06:13:36.999Z</time></trkpt><trkpt lat="-29.230233922039513" lon="114.92715508607759"><ele>20.0</ele><time>2026-04-13T06:13:37.999Z</time></trkpt><trkpt lat="-29.230025821212333" lon="114.92711246936851"><ele>20.0</ele><time>2026-04-13T06:13:38.999Z</time></trkpt><trkpt lat="-29.2298312755735" lon="114.9270730971975"><ele>20.0</ele><time>2026-04-13T06:13:39.999Z</time></trkpt><trkpt lat="-29.2296459961723" lon="114.92699150409217"><ele>20.0</ele><time>2026-04-13T06:13:40.999Z</time></trkpt><trkpt lat="-29.22945390593421" lon="114.92690750630204"><ele>20.0</ele><time>2026-04-13T06:13:41.999Z</time></trkpt><trkpt lat="-29.22926603865907" lon="114.9268133540734"><ele>20.0</ele><time>2026-04-13T06:13:42.999Z</time></trkpt><trkpt lat="-29.229065447674667" lon="114.92670885331252"><ele>20.0</ele><time>2026-04-13T06:13:43.999Z</time></trkpt><trkpt lat="-29.228870814183658" lon="114.92660199813194"><ele>20.0</ele><time>2026-04-13T06:13:44.999Z</time></trkpt><trkpt lat="-29.228690778195816" lon="114.9265028718747"><ele>20.0</ele><time>2026-04-13T06:13:45.999Z</time></trkpt><trkpt lat="-29.228512613791445" lon="114.92640680828389"><ele>20.0</ele><time>2026-04-13T06:13:46.999Z</time></trkpt><trkpt lat="-29.228321892312998" lon="114.9263282286126"><ele>19.666666666666668</ele><time>2026-04-13T06:13:47.999Z</time></trkpt><trkpt lat="-29.228114262339492" lon="114.92627979134207"><ele>19.333333333333332</ele><time>2026-04-13T06:13:48.999Z</time></trkpt><trkpt lat="-29.227908082674155" lon="114.92628591716314"><ele>19.0</ele><time>2026-04-13T06:13:49.999Z</time></trkpt><trkpt lat="-29.227703559403054" lon="114.92630774014009"><ele>19.0</ele><time>2026-04-13T06:13:50.999Z</time></trkpt><trkpt lat="-29.22749743934839" lon="114.92634642444007"><ele>19.0</ele><time>2026-04-13T06:13:51.999Z</time></trkpt><trkpt lat="-29.227285166914914" lon="114.92637949890316"><ele>19.0</ele><time>2026-04-13T06:13:52.999Z</time></trkpt><trkpt lat="-29.22707266479796" lon="114.92635317142773"><ele>19.0</ele><time>2026-04-13T06:13:53.999Z</time></trkpt><trkpt lat="-29.226863316666027" lon="114.92631460320969"><ele>19.0</ele><time>2026-04-13T06:13:54.999Z</time></trkpt><trkpt lat="-29.226651239532703" lon="114.9262737601789"><ele>19.0</ele><time>2026-04-13T06:13:55.999Z</time></trkpt><trkpt lat="-29.226452071813185" lon="114.9262404838818"><ele>19.0</ele><time>2026-04-13T06:13:56.999Z</time></trkpt><trkpt lat="-29.22626627161651" lon="114.9262377220479"><ele>19.0</ele><time>2026-04-13T06:13:57.999Z</time></trkpt><trkpt lat="-29.226089961854708" lon="114.92622426391291"><ele>19.0</ele><time>2026-04-13T06:13:58.999Z</time></trkpt><trkpt lat="-29.225937819974533" lon="114.92622384529983"><ele>19.0</ele><time>2026-04-13T06:13:59.999Z</time></trkpt><trkpt lat="-29.22581849509603" lon="114.92622778518243"><ele>19.0</ele><time>2026-04-13T06:14:00.999Z</time></trkpt><trkpt lat="-29.225731537817722" lon="114.92623737503898"><ele>19.0</ele><time>2026-04-13T06:14:01.999Z</time></trkpt><trkpt lat="-29.225628983864762" lon="114.92621975830312"><ele>19.0</ele><time>2026-04-13T06:14:03.999Z</time></trkpt><trkpt lat="-29.225602534949378" lon="114.9264178287377"><ele>19.0</ele><time>2026-04-13T06:14:04.999Z</time></trkpt><trkpt lat="-29.225593704156918" lon="114.92653481182352"><ele>19.0</ele><time>2026-04-13T06:14:05.999Z</time></trkpt><trkpt lat="-29.22559828401897" lon="114.92666979552737"><ele>19.0</ele><time>2026-04-13T06:14:06.999Z</time></trkpt><trkpt lat="-29.225607322732827" lon="114.92681974856522"><ele>19.0</ele><time>2026-04-13T06:14:07.999Z</time></trkpt><trkpt lat="-29.225610284684976" lon="114.92697004521929"><ele>19.6</ele><time>2026-04-13T06:14:08.999Z</time></trkpt><trkpt lat="-29.225609926855768" lon="114.927108749389"><ele>20.2</ele><time>2026-04-13T06:14:09.999Z</time></trkpt><trkpt lat="-29.225609491014634" lon="114.92723666675678"><ele>20.8</ele><time>2026-04-13T06:14:10.999Z</time></trkpt><trkpt lat="-29.225609781506844" lon="114.92734476250922"><ele>21.400000000000002</ele><time>2026-04-13T06:14:11.999Z</time></trkpt><trkpt lat="-29.22560834205982" lon="114.92743692067984"><ele>22.0</ele><time>2026-04-13T06:14:12.999Z</time></trkpt><trkpt lat="-29.22560508564594" lon="114.92751172825523"><ele>22.0</ele><time>2026-04-13T06:14:13.999Z</time></trkpt><trkpt lat="-29.225604756920767" lon="114.9276259698786"><ele>22.0</ele><time>2026-04-13T06:14:15.999Z</time></trkpt><trkpt lat="-29.22559990102584" lon="114.92770400731541"><ele>22.0</ele><time>2026-04-13T06:14:18.999Z</time></trkpt><trkpt lat="-29.2256221315428" lon="114.92778690179416"><ele>22.0</ele><time>2026-04-13T06:14:28.999Z</time></trkpt><trkpt lat="-29.225609670487888" lon="114.92785953048076"><ele>22.0</ele><time>2026-04-13T06:14:29.999Z</time></trkpt><trkpt lat="-29.225625003284442" lon="114.9279493011443"><ele>22.0</ele><time>2026-04-13T06:14:30.999Z</time></trkpt><trkpt lat="-29.225621766033836" lon="114.92805275513267"><ele>22.0</ele><time>2026-04-13T06:14:31.999Z</time></trkpt><trkpt lat="-29.225608122154146" lon="114.92817977141698"><ele>22.0</ele><time>2026-04-13T06:14:32.999Z</time></trkpt><trkpt lat="-29.22559350840532" lon="114.92830908109819"><ele>22.0</ele><time>2026-04-13T06:14:33.999Z</time></trkpt><trkpt lat="-29.225585116758435" lon="114.92845347472633"><ele>22.0</ele><time>2026-04-13T06:14:34.999Z</time></trkpt><trkpt lat="-29.225589291313575" lon="114.92861660781118"><ele>21.25</ele><time>2026-04-13T06:14:35.999Z</time></trkpt><trkpt lat="-29.22558991000731" lon="114.92878365617489"><ele>20.5</ele><time>2026-04-13T06:14:37Z</time></trkpt><trkpt lat="-29.225587458243787" lon="114.92895473185987"><ele>19.75</ele><time>2026-04-13T06:14:38Z</time></trkpt><trkpt lat="-29.225587109215212" lon="114.9291265346423"><ele>19.0</ele><time>2026-04-13T06:14:39Z</time></trkpt><trkpt lat="-29.225587844076866" lon="114.92929419988798"><ele>18.25</ele><time>2026-04-13T06:14:40Z</time></trkpt><trkpt lat="-29.225587823933243" lon="114.9294527025315"><ele>17.5</ele><time>2026-04-13T06:14:41Z</time></trkpt><trkpt lat="-29.225585306510517" lon="114.92960658804165"><ele>16.75</ele><time>2026-04-13T06:14:42Z</time></trkpt><trkpt lat="-29.22558503384364" lon="114.9297548087141"><ele>16.0</ele><time>2026-04-13T06:14:43Z</time></trkpt><trkpt lat="-29.22558867040713" lon="114.92990139806608"><ele>16.0</ele><time>2026-04-13T06:14:44Z</time></trkpt><trkpt lat="-29.22558785113144" lon="114.93004252997673"><ele>16.0</ele><time>2026-04-13T06:14:45Z</time></trkpt><trkpt lat="-29.22558811278989" lon="114.93017029600752"><ele>16.0</ele><time>2026-04-13T06:14:46Z</time></trkpt><trkpt lat="-29.225589121662765" lon="114.93028697856712"><ele>16.0</ele><time>2026-04-13T06:14:47Z</time></trkpt><trkpt lat="-29.225592195763536" lon="114.93038825587755"><ele>16.0</ele><time>2026-04-13T06:14:48Z</time></trkpt><trkpt lat="-29.225594601196374" lon="114.93047610062389"><ele>15.4</ele><time>2026-04-13T06:14:49Z</time></trkpt><trkpt lat="-29.225594269421336" lon="114.93055120635074"><ele>14.8</ele><time>2026-04-13T06:14:50Z</time></trkpt><trkpt lat="-29.225589586362858" lon="114.93063733591222"><ele>14.200000000000001</ele><time>2026-04-13T06:14:52Z</time></trkpt><trkpt lat="-29.225589292161494" lon="114.93077329475528"><ele>13.600000000000001</ele><time>2026-04-13T06:14:54Z</time></trkpt><trkpt lat="-29.225594510078064" lon="114.93090023372133"><ele>13.0</ele><time>2026-04-13T06:14:55Z</time></trkpt><trkpt lat="-29.22559759188941" lon="114.93105495589171"><ele>12.666666666666666</ele><time>2026-04-13T06:14:56Z</time></trkpt><trkpt lat="-29.22559397528109" lon="114.93121446911576"><ele>12.333333333333332</ele><time>2026-04-13T06:14:57Z</time></trkpt><trkpt lat="-29.22558921593814" lon="114.93141008010393"><ele>12.0</ele><time>2026-04-13T06:14:58Z</time></trkpt><trkpt lat="-29.225583786158403" lon="114.9316156375588"><ele>12.666666666666668</ele><time>2026-04-13T06:14:59Z</time></trkpt><trkpt lat="-29.22557921807914" lon="114.9318267821782"><ele>13.333333333333334</ele><time>2026-04-13T06:15:00Z</time></trkpt><trkpt lat="-29.225577784506324" lon="114.93204620286255"><ele>14.0</ele><time>2026-04-13T06:15:01Z</time></trkpt><trkpt lat="-29.225577441263184" lon="114.93226257724523"><ele>14.0</ele><time>2026-04-13T06:15:02Z</time></trkpt><trkpt lat="-29.22557721852516" lon="114.93248353916997"><ele>14.0</ele><time>2026-04-13T06:15:03Z</time></trkpt><trkpt lat="-29.225578815676933" lon="114.93271190406911"><ele>14.0</ele><time>2026-04-13T06:15:04Z</time></trkpt><trkpt lat="-29.225575592771246" lon="114.93294094429297"><ele>14.333333333333334</ele><time>2026-04-13T06:15:05Z</time></trkpt><trkpt lat="-29.22557128064758" lon="114.93317698569228"><ele>14.666666666666668</ele><time>2026-04-13T06:15:06Z</time></trkpt><trkpt lat="-29.22556702009069" lon="114.93341270973801"><ele>15.0</ele><time>2026-04-13T06:15:07Z</time></trkpt><trkpt lat="-29.22556289908558" lon="114.9336417671839"><ele>15.0</ele><time>2026-04-13T06:15:08Z</time></trkpt><trkpt lat="-29.22556372360263" lon="114.9338711054645"><ele>15.0</ele><time>2026-04-13T06:15:09Z</time></trkpt><trkpt lat="-29.225565102670902" lon="114.93409358572801"><ele>15.0</ele><time>2026-04-13T06:15:10Z</time></trkpt><trkpt lat="-29.225562088052744" lon="114.93432846188192"><ele>14.0</ele><time>2026-04-13T06:15:11Z</time></trkpt><trkpt lat="-29.225559117913757" lon="114.9345599909389"><ele>13.0</ele><time>2026-04-13T06:15:12Z</time></trkpt><trkpt lat="-29.22556077936526" lon="114.93480394909064"><ele>12.0</ele><time>2026-04-13T06:15:13Z</time></trkpt><trkpt lat="-29.225564350922028" lon="114.93505865385812"><ele>12.0</ele><time>2026-04-13T06:15:14Z</time></trkpt><trkpt lat="-29.225566599264667" lon="114.93530906582303"><ele>12.0</ele><time>2026-04-13T06:15:15Z</time></trkpt><trkpt lat="-29.22556392990133" lon="114.93556419574904"><ele>12.0</ele><time>2026-04-13T06:15:16Z</time></trkpt><trkpt lat="-29.2255634825403" lon="114.93582442015605"><ele>11.0</ele><time>2026-04-13T06:15:17Z</time></trkpt><trkpt lat="-29.225562444514726" lon="114.93609271201741"><ele>10.0</ele><time>2026-04-13T06:15:18Z</time></trkpt><trkpt lat="-29.225560089278833" lon="114.93636431482481"><ele>10.0</ele><time>2026-04-13T06:15:19Z</time></trkpt><trkpt lat="-29.225559634319964" lon="114.93664410565023"><ele>10.0</ele><time>2026-04-13T06:15:20Z</time></trkpt><trkpt lat="-29.22556184541554" lon="114.93692304813067"><ele>10.0</ele><time>2026-04-13T06:15:21Z</time></trkpt><trkpt lat="-29.2255618008926" lon="114.93718960021067"><ele>10.0</ele><time>2026-04-13T06:15:22Z</time></trkpt><trkpt lat="-29.225564202908057" lon="114.93744959562771"><ele>11.0</ele><time>2026-04-13T06:15:23Z</time></trkpt><trkpt lat="-29.22556794846113" lon="114.9377141594355"><ele>12.0</ele><time>2026-04-13T06:15:24Z</time></trkpt><trkpt lat="-29.22556918136662" lon="114.93798124075161"><ele>12.0</ele><time>2026-04-13T06:15:25Z</time></trkpt><trkpt lat="-29.225568337834748" lon="114.93824849894573"><ele>12.0</ele><time>2026-04-13T06:15:26Z</time></trkpt><trkpt lat="-29.225565455223876" lon="114.93851606208754"><ele>13.0</ele><time>2026-04-13T06:15:27Z</time></trkpt><trkpt lat="-29.22556256903446" lon="114.93877752193261"><ele>14.0</ele><time>2026-04-13T06:15:28Z</time></trkpt><trkpt lat="-29.225559797262846" lon="114.9390424365077"><ele>11.5</ele><time>2026-04-13T06:15:29Z</time></trkpt><trkpt lat="-29.225557287172247" lon="114.93931316603712"><ele>9.0</ele><time>2026-04-13T06:15:30Z</time></trkpt><trkpt lat="-29.225555935376256" lon="114.93958307994063"><ele>9.0</ele><time>2026-04-13T06:15:31Z</time></trkpt><trkpt lat="-29.225558611633705" lon="114.93984567390277"><ele>9.0</ele><time>2026-04-13T06:15:32Z</time></trkpt><trkpt lat="-29.225563512228703" lon="114.94010732983982"><ele>10.5</ele><time>2026-04-13T06:15:33Z</time></trkpt><trkpt lat="-29.225564022485145" lon="114.94036842131689"><ele>12.0</ele><time>2026-04-13T06:15:34Z</time></trkpt><trkpt lat="-29.22556336234073" lon="114.94063024951345"><ele>12.666666666666668</ele><time>2026-04-13T06:15:35Z</time></trkpt><trkpt lat="-29.225561065720083" lon="114.94089138364826"><ele>13.333333333333334</ele><time>2026-04-13T06:15:36Z</time></trkpt><trkpt lat="-29.225558239831088" lon="114.941145255442"><ele>14.0</ele><time>2026-04-13T06:15:37Z</time></trkpt><trkpt lat="-29.225558502781727" lon="114.9413918479752"><ele>14.0</ele><time>2026-04-13T06:15:38Z</time></trkpt><trkpt lat="-29.22555932879064" lon="114.94163435967008"><ele>14.0</ele><time>2026-04-13T06:15:39Z</time></trkpt><trkpt lat="-29.225562472002093" lon="114.94187791345087"><ele>14.0</ele><time>2026-04-13T06:15:40Z</time></trkpt><trkpt lat="-29.225564967770747" lon="114.94213504209029"><ele>15.5</ele><time>2026-04-13T06:15:41Z</time></trkpt><trkpt lat="-29.225566080275044" lon="114.94240650681579"><ele>17.0</ele><time>2026-04-13T06:15:42Z</time></trkpt><trkpt lat="-29.225567326987655" lon="114.94268059855588"><ele>17.333333333333336</ele><time>2026-04-13T06:15:43Z</time></trkpt><trkpt lat="-29.225567328568548" lon="114.94293187258529"><ele>17.666666666666668</ele><time>2026-04-13T06:15:44Z</time></trkpt><trkpt lat="-29.22556610963928" lon="114.94315421257019"><ele>18.0</ele><time>2026-04-13T06:15:45Z</time></trkpt><trkpt lat="-29.225567682973576" lon="114.94334957725162"><ele>18.0</ele><time>2026-04-13T06:15:46Z</time></trkpt><trkpt lat="-29.22557056509316" lon="114.94352282696153"><ele>18.0</ele><time>2026-04-13T06:15:47Z</time></trkpt><trkpt lat="-29.225572918331036" lon="114.94366627723869"><ele>18.0</ele><time>2026-04-13T06:15:48Z</time></trkpt><trkpt lat="-29.225560100973397" lon="114.9437836512692"><ele>18.0</ele><time>2026-04-13T06:15:49Z</time></trkpt><trkpt lat="-29.225516930406826" lon="114.94388910499259"><ele>18.0</ele><time>2026-04-13T06:15:50Z</time></trkpt><trkpt lat="-29.22543880496458" lon="114.94396596291672"><ele>18.0</ele><time>2026-04-13T06:15:51Z</time></trkpt><trkpt lat="-29.22533108861438" lon="114.94394066429253"><ele>18.0</ele><time>2026-04-13T06:15:52Z</time></trkpt><trkpt lat="-29.225221030516163" lon="114.94393779369952"><ele>18.0</ele><time>2026-04-13T06:15:53Z</time></trkpt><trkpt lat="-29.2250834587144" lon="114.9439359212239"><ele>18.0</ele><time>2026-04-13T06:15:54Z</time></trkpt><trkpt lat="-29.22492053104416" lon="114.94394769358884"><ele>18.0</ele><time>2026-04-13T06:15:55Z</time></trkpt><trkpt lat="-29.224734809628387" lon="114.94393788048833"><ele>18.0</ele><time>2026-04-13T06:15:56Z</time></trkpt><trkpt lat="-29.224533029006995" lon="114.9439370497496"><ele>18.333333333333332</ele><time>2026-04-13T06:15:57Z</time></trkpt><trkpt lat="-29.224309835211436" lon="114.9439351331478"><ele>18.666666666666664</ele><time>2026-04-13T06:15:58Z</time></trkpt><trkpt lat="-29.22408625873894" lon="114.94393141514661"><ele>19.0</ele><time>2026-04-13T06:15:58.999Z</time></trkpt><trkpt lat="-29.223850844103975" lon="114.94392769181785"><ele>19.5</ele><time>2026-04-13T06:15:59.999Z</time></trkpt><trkpt lat="-29.223611731467546" lon="114.94392758490513"><ele>20.0</ele><time>2026-04-13T06:16:00.999Z</time></trkpt><trkpt lat="-29.223383966088484" lon="114.94392891156957"><ele>20.0</ele><time>2026-04-13T06:16:01.999Z</time></trkpt><trkpt lat="-29.223167783060298" lon="114.94393222515579"><ele>20.0</ele><time>2026-04-13T06:16:02.999Z</time></trkpt><trkpt lat="-29.22296354205419" lon="114.9439342691392"><ele>20.0</ele><time>2026-04-13T06:16:03.999Z</time></trkpt><trkpt lat="-29.22277364764136" lon="114.94393037176867"><ele>20.0</ele><time>2026-04-13T06:16:04.999Z</time></trkpt><trkpt lat="-29.222597331223064" lon="114.94392383949682"><ele>20.0</ele><time>2026-04-13T06:16:05.999Z</time></trkpt><trkpt lat="-29.22243234159296" lon="114.94391904813467"><ele>20.0</ele><time>2026-04-13T06:16:06.999Z</time></trkpt><trkpt lat="-29.222279712770185" lon="114.94391656741196"><ele>20.8</ele><time>2026-04-13T06:16:07.999Z</time></trkpt><trkpt lat="-29.222146183420517" lon="114.94391700614716"><ele>21.6</ele><time>2026-04-13T06:16:08.999Z</time></trkpt><trkpt lat="-29.222028317418356" lon="114.94393114566907"><ele>22.4</ele><time>2026-04-13T06:16:09.999Z</time></trkpt><trkpt lat="-29.221936942218164" lon="114.94397587025331"><ele>23.2</ele><time>2026-04-13T06:16:10.999Z</time></trkpt><trkpt lat="-29.221887269955154" lon="114.94404321340593"><ele>24.0</ele><time>2026-04-13T06:16:11.999Z</time></trkpt><trkpt lat="-29.221895227951467" lon="114.94417504852228"><ele>25.0</ele><time>2026-04-13T06:16:13.999Z</time></trkpt><trkpt lat="-29.221891541200748" lon="114.94432367241939"><ele>26.0</ele><time>2026-04-13T06:16:15.999Z</time></trkpt><trkpt lat="-29.22190625487487" lon="114.94443794264326"><ele>27.0</ele><time>2026-04-13T06:16:16.999Z</time></trkpt><trkpt lat="-29.221912826425697" lon="114.94457005138233"><ele>28.0</ele><time>2026-04-13T06:16:17.999Z</time></trkpt><trkpt lat="-29.22191413222387" lon="114.9447229598627"><ele>28.0</ele><time>2026-04-13T06:16:18.999Z</time></trkpt><trkpt lat="-29.22190867108003" lon="114.94489418513298"><ele>28.0</ele><time>2026-04-13T06:16:19.999Z</time></trkpt><trkpt lat="-29.22190611732677" lon="114.94508601026476"><ele>28.0</ele><time>2026-04-13T06:16:20.999Z</time></trkpt><trkpt lat="-29.221906967384637" lon="114.94529716475108"><ele>29.666666666666668</ele><time>2026-04-13T06:16:21.999Z</time></trkpt><trkpt lat="-29.221905446285607" lon="114.94552846675853"><ele>31.333333333333336</ele><time>2026-04-13T06:16:22.999Z</time></trkpt><trkpt lat="-29.221902928387205" lon="114.94576854050968"><ele>33.0</ele><time>2026-04-13T06:16:23.999Z</time></trkpt><trkpt lat="-29.22190319025115" lon="114.94601033189073"><ele>34.0</ele><time>2026-04-13T06:16:25Z</time></trkpt><trkpt lat="-29.221904852289292" lon="114.94626908685088"><ele>35.0</ele><time>2026-04-13T06:16:26Z</time></trkpt><trkpt lat="-29.221906058901038" lon="114.94653799348134"><ele>35.5</ele><time>2026-04-13T06:16:27Z</time></trkpt><trkpt lat="-29.221903608874225" lon="114.94681019702894"><ele>36.0</ele><time>2026-04-13T06:16:28Z</time></trkpt><trkpt lat="-29.22189785998759" lon="114.94707527737847"><ele>36.0</ele><time>2026-04-13T06:16:29Z</time></trkpt><trkpt lat="-29.221890407776442" lon="114.94734711313858"><ele>36.0</ele><time>2026-04-13T06:16:30Z</time></trkpt><trkpt lat="-29.221885201769446" lon="114.94762415749561"><ele>37.5</ele><time>2026-04-13T06:16:31Z</time></trkpt><trkpt lat="-29.22188592963503" lon="114.94790549787331"><ele>39.0</ele><time>2026-04-13T06:16:32Z</time></trkpt><trkpt lat="-29.221886339939438" lon="114.94819334558788"><ele>41.5</ele><time>2026-04-13T06:16:33Z</time></trkpt><trkpt lat="-29.221886505035872" lon="114.94848152306861"><ele>44.0</ele><time>2026-04-13T06:16:34Z</time></trkpt><trkpt lat="-29.221884112208755" lon="114.94876960866806"><ele>44.0</ele><time>2026-04-13T06:16:35Z</time></trkpt><trkpt lat="-29.221878709303322" lon="114.94905842214591"><ele>44.0</ele><time>2026-04-13T06:16:36Z</time></trkpt><trkpt lat="-29.22187266450121" lon="114.94934952007046"><ele>45.5</ele><time>2026-04-13T06:16:37Z</time></trkpt><trkpt lat="-29.22186774103285" lon="114.94964939011025"><ele>47.0</ele><time>2026-04-13T06:16:38Z</time></trkpt><trkpt lat="-29.221863299089588" lon="114.94995200860161"><ele>45.5</ele><time>2026-04-13T06:16:39Z</time></trkpt><trkpt lat="-29.22185993369007" lon="114.95023547076447"><ele>44.0</ele><time>2026-04-13T06:16:40Z</time></trkpt><trkpt lat="-29.22185867003471" lon="114.95051687369985"><ele>44.0</ele><time>2026-04-13T06:16:41Z</time></trkpt><trkpt lat="-29.22186186792046" lon="114.95079761987715"><ele>44.0</ele><time>2026-04-13T06:16:42Z</time></trkpt><trkpt lat="-29.221862562328504" lon="114.95108748246938"><ele>42.5</ele><time>2026-04-13T06:16:43Z</time></trkpt><trkpt lat="-29.221864404032424" lon="114.95137987594828"><ele>41.0</ele><time>2026-04-13T06:16:44Z</time></trkpt><trkpt lat="-29.2218669677722" lon="114.9516794634478"><ele>40.0</ele><time>2026-04-13T06:16:45Z</time></trkpt><trkpt lat="-29.221867561686572" lon="114.95198087104339"><ele>39.0</ele><time>2026-04-13T06:16:46Z</time></trkpt><trkpt lat="-29.221863729445026" lon="114.95227558340774"><ele>36.5</ele><time>2026-04-13T06:16:47Z</time></trkpt><trkpt lat="-29.221857381878745" lon="114.95256240242742"><ele>34.0</ele><time>2026-04-13T06:16:48Z</time></trkpt><trkpt lat="-29.221854153429337" lon="114.95284263466584"><ele>34.0</ele><time>2026-04-13T06:16:49Z</time></trkpt><trkpt lat="-29.221853102562754" lon="114.95312583286335"><ele>34.0</ele><time>2026-04-13T06:16:50Z</time></trkpt><trkpt lat="-29.22184919066738" lon="114.95341435845526"><ele>32.5</ele><time>2026-04-13T06:16:51Z</time></trkpt><trkpt lat="-29.221849136367005" lon="114.95371144616314"><ele>31.0</ele><time>2026-04-13T06:16:52Z</time></trkpt><trkpt lat="-29.221847740463303" lon="114.95400833894514"><ele>31.0</ele><time>2026-04-13T06:16:53Z</time></trkpt><trkpt lat="-29.221848646558726" lon="114.95430666427282"><ele>31.0</ele><time>2026-04-13T06:16:54Z</time></trkpt><trkpt lat="-29.221847941203897" lon="114.95460459340676"><ele>31.0</ele><time>2026-04-13T06:16:55Z</time></trkpt><trkpt lat="-29.22184766622674" lon="114.9548995006642"><ele>31.0</ele><time>2026-04-13T06:16:56Z</time></trkpt><trkpt lat="-29.221845800172325" lon="114.9551902500651"><ele>32.0</ele><time>2026-04-13T06:16:57Z</time></trkpt><trkpt lat="-29.22184771333184" lon="114.9554766432797"><ele>33.0</ele><time>2026-04-13T06:16:58Z</time></trkpt><trkpt lat="-29.221856861628527" lon="114.95576436671958"><ele>33.5</ele><time>2026-04-13T06:16:59Z</time></trkpt><trkpt lat="-29.2218637710941" lon="114.9560512292322"><ele>34.0</ele><time>2026-04-13T06:17:00Z</time></trkpt><trkpt lat="-29.22186161609579" lon="114.95633785984516"><ele>34.0</ele><time>2026-04-13T06:17:01Z</time></trkpt><trkpt lat="-29.221854916286446" lon="114.95662956593497"><ele>34.0</ele><time>2026-04-13T06:17:02Z</time></trkpt><trkpt lat="-29.221849546610034" lon="114.95692563619615"><ele>36.0</ele><time>2026-04-13T06:17:03Z</time></trkpt><trkpt lat="-29.22184782820599" lon="114.95722214662958"><ele>38.0</ele><time>2026-04-13T06:17:04Z</time></trkpt><trkpt lat="-29.22185154071399" lon="114.95752113302362"><ele>38.5</ele><time>2026-04-13T06:17:05Z</time></trkpt><trkpt lat="-29.221853059411917" lon="114.95782710237924"><ele>39.0</ele><time>2026-04-13T06:17:06Z</time></trkpt><trkpt lat="-29.221854239810423" lon="114.95813890162849"><ele>39.5</ele><time>2026-04-13T06:17:07Z</time></trkpt><trkpt lat="-29.221851935373312" lon="114.95845069080866"><ele>40.0</ele><time>2026-04-13T06:17:08Z</time></trkpt><trkpt lat="-29.22184739876041" lon="114.9587592181759"><ele>40.0</ele><time>2026-04-13T06:17:09Z</time></trkpt><trkpt lat="-29.221846123807268" lon="114.95906736791704"><ele>40.0</ele><time>2026-04-13T06:17:10Z</time></trkpt><trkpt lat="-29.221842890741826" lon="114.95937437742538"><ele>41.5</ele><time>2026-04-13T06:17:11Z</time></trkpt><trkpt lat="-29.221841047941165" lon="114.95967684265788"><ele>43.0</ele><time>2026-04-13T06:17:12Z</time></trkpt><trkpt lat="-29.221840957809814" lon="114.95997411842824"><ele>43.0</ele><time>2026-04-13T06:17:13Z</time></trkpt><trkpt lat="-29.22184368542144" lon="114.96026452967864"><ele>43.0</ele><time>2026-04-13T06:17:14Z</time></trkpt><trkpt lat="-29.22184444057071" lon="114.96056112883608"><ele>43.0</ele><time>2026-04-13T06:17:15Z</time></trkpt><trkpt lat="-29.221842575076927" lon="114.96085459872468"><ele>43.0</ele><time>2026-04-13T06:17:16Z</time></trkpt><trkpt lat="-29.22183916172283" lon="114.96113991044909"><ele>45.5</ele><time>2026-04-13T06:17:17Z</time></trkpt><trkpt lat="-29.22183609782952" lon="114.96141396077185"><ele>48.0</ele><time>2026-04-13T06:17:18Z</time></trkpt><trkpt lat="-29.221832419352744" lon="114.96168792833053"><ele>48.0</ele><time>2026-04-13T06:17:19Z</time></trkpt><trkpt lat="-29.22183192096306" lon="114.96195886725617"><ele>48.0</ele><time>2026-04-13T06:17:20Z</time></trkpt><trkpt lat="-29.221832945584893" lon="114.962246128637"><ele>48.5</ele><time>2026-04-13T06:17:21Z</time></trkpt><trkpt lat="-29.221831682036953" lon="114.962539314783"><ele>49.0</ele><time>2026-04-13T06:17:22Z</time></trkpt><trkpt lat="-29.221830716057376" lon="114.96283927168942"><ele>49.0</ele><time>2026-04-13T06:17:23Z</time></trkpt><trkpt lat="-29.221830590916927" lon="114.96315195764066"><ele>49.0</ele><time>2026-04-13T06:17:24Z</time></trkpt><trkpt lat="-29.221831162516544" lon="114.963468807869"><ele>50.0</ele><time>2026-04-13T06:17:25Z</time></trkpt><trkpt lat="-29.22183183998069" lon="114.96378987983414"><ele>51.0</ele><time>2026-04-13T06:17:26Z</time></trkpt><trkpt lat="-29.22183354591722" lon="114.96410538618817"><ele>53.5</ele><time>2026-04-13T06:17:27Z</time></trkpt><trkpt lat="-29.221835938650386" lon="114.96439944987289"><ele>56.0</ele><time>2026-04-13T06:17:28Z</time></trkpt><trkpt lat="-29.2218367544739" lon="114.9646756489083"><ele>56.0</ele><time>2026-04-13T06:17:29Z</time></trkpt><trkpt lat="-29.221835300440073" lon="114.96494446658157"><ele>56.0</ele><time>2026-04-13T06:17:30Z</time></trkpt><trkpt lat="-29.22183350747043" lon="114.96520989330011"><ele>57.5</ele><time>2026-04-13T06:17:31Z</time></trkpt><trkpt lat="-29.221832285312683" lon="114.96548030995449"><ele>59.0</ele><time>2026-04-13T06:17:32Z</time></trkpt><trkpt lat="-29.22183259904362" lon="114.9657469811488"><ele>59.0</ele><time>2026-04-13T06:17:33Z</time></trkpt><trkpt lat="-29.221835038271838" lon="114.96600144444261"><ele>59.0</ele><time>2026-04-13T06:17:34Z</time></trkpt><trkpt lat="-29.22183645236924" lon="114.9662318760482"><ele>59.0</ele><time>2026-04-13T06:17:35Z</time></trkpt><trkpt lat="-29.22183325057031" lon="114.96644852114268"><ele>59.0</ele><time>2026-04-13T06:17:36Z</time></trkpt><trkpt lat="-29.221833659682158" lon="114.96666315730882"><ele>59.0</ele><time>2026-04-13T06:17:37Z</time></trkpt><trkpt lat="-29.221835664410513" lon="114.9668607614238"><ele>59.0</ele><time>2026-04-13T06:17:38Z</time></trkpt><trkpt lat="-29.221838658631558" lon="114.96704624657639"><ele>59.5</ele><time>2026-04-13T06:17:39Z</time></trkpt><trkpt lat="-29.22184351357092" lon="114.96721471696934"><ele>60.0</ele><time>2026-04-13T06:17:40Z</time></trkpt><trkpt lat="-29.221843261885294" lon="114.96736730380762"><ele>60.5</ele><time>2026-04-13T06:17:41Z</time></trkpt><trkpt lat="-29.22183041957154" lon="114.96750328170037"><ele>61.0</ele><time>2026-04-13T06:17:42Z</time></trkpt><trkpt lat="-29.221796918772807" lon="114.96762224667887"><ele>61.25</ele><time>2026-04-13T06:17:43Z</time></trkpt><trkpt lat="-29.22173872621176" lon="114.96772329967189"><ele>61.5</ele><time>2026-04-13T06:17:44Z</time></trkpt><trkpt lat="-29.22165303250944" lon="114.96780108622889"><ele>61.75</ele><time>2026-04-13T06:17:45Z</time></trkpt><trkpt lat="-29.221544046095335" lon="114.9678575565165"><ele>62.0</ele><time>2026-04-13T06:17:46Z</time></trkpt><trkpt lat="-29.221415065159988" lon="114.96786112094705"><ele>62.0</ele><time>2026-04-13T06:17:47Z</time></trkpt><trkpt lat="-29.221293667336568" lon="114.96786407142577"><ele>62.0</ele><time>2026-04-13T06:17:48Z</time></trkpt><trkpt lat="-29.221137646668886" lon="114.96786055342965"><ele>62.0</ele><time>2026-04-13T06:17:49Z</time></trkpt><trkpt lat="-29.22096017861087" lon="114.96785375868116"><ele>62.0</ele><time>2026-04-13T06:17:50Z</time></trkpt><trkpt lat="-29.220761292041757" lon="114.96784819433202"><ele>62.0</ele><time>2026-04-13T06:17:51Z</time></trkpt><trkpt lat="-29.220547983737116" lon="114.96785672420985"><ele>62.0</ele><time>2026-04-13T06:17:52Z</time></trkpt><trkpt lat="-29.22031890226793" lon="114.96784153456281"><ele>62.0</ele><time>2026-04-13T06:17:53Z</time></trkpt><trkpt lat="-29.220068120217228" lon="114.96783461911635"><ele>62.0</ele><time>2026-04-13T06:17:54Z</time></trkpt><trkpt lat="-29.219828518560114" lon="114.96783278777073"><ele>60.5</ele><time>2026-04-13T06:17:55Z</time></trkpt><trkpt lat="-29.219572585371658" lon="114.96783777992857"><ele>59.0</ele><time>2026-04-13T06:17:56Z</time></trkpt><trkpt lat="-29.21930191067016" lon="114.96784526955092"><ele>59.0</ele><time>2026-04-13T06:17:57Z</time></trkpt><trkpt lat="-29.21903850543997" lon="114.96784954487435"><ele>59.0</ele><time>2026-04-13T06:17:58Z</time></trkpt><trkpt lat="-29.218764840963484" lon="114.96784993141472"><ele>58.5</ele><time>2026-04-13T06:17:59Z</time></trkpt><trkpt lat="-29.218478609065052" lon="114.96784656812277"><ele>58.0</ele><time>2026-04-13T06:18:00Z</time></trkpt><trkpt lat="-29.218180805694093" lon="114.96784634906909"><ele>58.5</ele><time>2026-04-13T06:18:01Z</time></trkpt><trkpt lat="-29.217904211917684" lon="114.96784817917339"><ele>59.0</ele><time>2026-04-13T06:18:02Z</time></trkpt><trkpt lat="-29.217647517187253" lon="114.96784981984618"><ele>59.0</ele><time>2026-04-13T06:18:03Z</time></trkpt><trkpt lat="-29.217390624909093" lon="114.967850037498"><ele>59.0</ele><time>2026-04-13T06:18:04Z</time></trkpt><trkpt lat="-29.21713033326812" lon="114.96782944900264"><ele>59.0</ele><time>2026-04-13T06:18:05Z</time></trkpt><trkpt lat="-29.216870614324502" lon="114.9678278307697"><ele>59.0</ele><time>2026-04-13T06:18:06Z</time></trkpt><trkpt lat="-29.216608159029406" lon="114.96784290037151"><ele>59.0</ele><time>2026-04-13T06:18:07Z</time></trkpt><trkpt lat="-29.216348343411152" lon="114.96782946500166"><ele>59.0</ele><time>2026-04-13T06:18:08Z</time></trkpt><trkpt lat="-29.21609011198876" lon="114.96781586937753"><ele>59.0</ele><time>2026-04-13T06:18:09Z</time></trkpt><trkpt lat="-29.21583434303385" lon="114.96781796899076"><ele>59.0</ele><time>2026-04-13T06:18:10Z</time></trkpt><trkpt lat="-29.21558370178397" lon="114.9678246591188"><ele>60.0</ele><time>2026-04-13T06:18:11Z</time></trkpt><trkpt lat="-29.215329551843812" lon="114.96782750028999"><ele>61.0</ele><time>2026-04-13T06:18:12Z</time></trkpt><trkpt lat="-29.215093883849807" lon="114.9678259552998"><ele>61.0</ele><time>2026-04-13T06:18:13Z</time></trkpt><trkpt lat="-29.214877151651738" lon="114.96779766749597"><ele>61.0</ele><time>2026-04-13T06:18:14Z</time></trkpt><trkpt lat="-29.21466786175347" lon="114.96781345324925"><ele>61.0</ele><time>2026-04-13T06:18:15Z</time></trkpt><trkpt lat="-29.214474201137115" lon="114.96782208494902"><ele>61.0</ele><time>2026-04-13T06:18:16Z</time></trkpt><trkpt lat="-29.214298536642936" lon="114.96784800727053"><ele>61.0</ele><time>2026-04-13T06:18:17Z</time></trkpt><trkpt lat="-29.214142330077564" lon="114.96789078834487"><ele>61.0</ele><time>2026-04-13T06:18:18Z</time></trkpt><trkpt lat="-29.21399592656591" lon="114.96794933944254"><ele>61.33333333333333</ele><time>2026-04-13T06:18:19Z</time></trkpt><trkpt lat="-29.21385915222024" lon="114.96804668950037"><ele>61.66666666666667</ele><time>2026-04-13T06:18:20Z</time></trkpt><trkpt lat="-29.213710420887104" lon="114.96815190452722"><ele>62.0</ele><time>2026-04-13T06:18:21Z</time></trkpt><trkpt lat="-29.213553038815792" lon="114.96826697198681"><ele>60.66666666666667</ele><time>2026-04-13T06:18:22Z</time></trkpt><trkpt lat="-29.21339820208846" lon="114.9683793123265"><ele>59.33333333333333</ele><time>2026-04-13T06:18:23Z</time></trkpt><trkpt lat="-29.213252747784605" lon="114.968487599181"><ele>58.0</ele><time>2026-04-13T06:18:24Z</time></trkpt><trkpt lat="-29.213111849761408" lon="114.9685666176674"><ele>58.0</ele><time>2026-04-13T06:18:25Z</time></trkpt><trkpt lat="-29.21299250130548" lon="114.96865021845598"><ele>58.0</ele><time>2026-04-13T06:18:26Z</time></trkpt><trkpt lat="-29.212879988262657" lon="114.96872774182428"><ele>58.0</ele><time>2026-04-13T06:18:27Z</time></trkpt><trkpt lat="-29.21276943005674" lon="114.96880974250855"><ele>58.0</ele><time>2026-04-13T06:18:28Z</time></trkpt><trkpt lat="-29.212624140616843" lon="114.96886433773527"><ele>58.0</ele><time>2026-04-13T06:18:29Z</time></trkpt><trkpt lat="-29.212485867137435" lon="114.96896745398413"><ele>58.0</ele><time>2026-04-13T06:18:30Z</time></trkpt><trkpt lat="-29.21226864674098" lon="114.96893860616596"><ele>58.0</ele><time>2026-04-13T06:18:31Z</time></trkpt><trkpt lat="-29.21206288999105" lon="114.96894815496864"><ele>58.33333333333333</ele><time>2026-04-13T06:18:32Z</time></trkpt><trkpt lat="-29.211845325122763" lon="114.9689474113052"><ele>58.66666666666667</ele><time>2026-04-13T06:18:33Z</time></trkpt><trkpt lat="-29.211614742663244" lon="114.96893744136773"><ele>59.0</ele><time>2026-04-13T06:18:34Z</time></trkpt><trkpt lat="-29.21136717591793" lon="114.96888742240176"><ele>59.0</ele><time>2026-04-13T06:18:35Z</time></trkpt><trkpt lat="-29.211105587005" lon="114.96888637296767"><ele>59.0</ele><time>2026-04-13T06:18:36Z</time></trkpt><trkpt lat="-29.210831296894114" lon="114.9688852716228"><ele>59.0</ele><time>2026-04-13T06:18:37Z</time></trkpt><trkpt lat="-29.21054311478006" lon="114.96888427516744"><ele>59.0</ele><time>2026-04-13T06:18:38Z</time></trkpt><trkpt lat="-29.21024677335169" lon="114.96888319989777"><ele>59.0</ele><time>2026-04-13T06:18:39Z</time></trkpt><trkpt lat="-29.20995266475248" lon="114.968881274789"><ele>59.0</ele><time>2026-04-13T06:18:40Z</time></trkpt><trkpt lat="-29.209649909250135" lon="114.96887785128132"><ele>61.0</ele><time>2026-04-13T06:18:41Z</time></trkpt><trkpt lat="-29.20933418763776" lon="114.96887275319351"><ele>63.0</ele><time>2026-04-13T06:18:42Z</time></trkpt><trkpt lat="-29.209012461400835" lon="114.96886907874334"><ele>63.5</ele><time>2026-04-13T06:18:43Z</time></trkpt><trkpt lat="-29.20869676030368" lon="114.96889661147767"><ele>64.0</ele><time>2026-04-13T06:18:44Z</time></trkpt><trkpt lat="-29.208406495326848" lon="114.96889566856487"><ele>63.5</ele><time>2026-04-13T06:18:45Z</time></trkpt><trkpt lat="-29.208119054040296" lon="114.96888973596431"><ele>63.0</ele><time>2026-04-13T06:18:46Z</time></trkpt><trkpt lat="-29.207819994087085" lon="114.96888353669627"><ele>63.0</ele><time>2026-04-13T06:18:47Z</time></trkpt><trkpt lat="-29.207517263496634" lon="114.96887946810054"><ele>63.0</ele><time>2026-04-13T06:18:48Z</time></trkpt><trkpt lat="-29.20720904438661" lon="114.96887784275728"><ele>63.0</ele><time>2026-04-13T06:18:49Z</time></trkpt><trkpt lat="-29.206899120381443" lon="114.96887698993238"><ele>63.0</ele><time>2026-04-13T06:18:50Z</time></trkpt><trkpt lat="-29.206584875087664" lon="114.96887582501463"><ele>62.5</ele><time>2026-04-13T06:18:51Z</time></trkpt><trkpt lat="-29.206270941347178" lon="114.96887202440276"><ele>62.0</ele><time>2026-04-13T06:18:52Z</time></trkpt><trkpt lat="-29.2059578591447" lon="114.9688695611482"><ele>62.5</ele><time>2026-04-13T06:18:53Z</time></trkpt><trkpt lat="-29.205642139882237" lon="114.96887231056986"><ele>63.0</ele><time>2026-04-13T06:18:54Z</time></trkpt><trkpt lat="-29.205333089209557" lon="114.96887581533375"><ele>63.0</ele><time>2026-04-13T06:18:55Z</time></trkpt><trkpt lat="-29.20502404149626" lon="114.96887825705122"><ele>63.0</ele><time>2026-04-13T06:18:56Z</time></trkpt><trkpt lat="-29.204714351718067" lon="114.9688769436201"><ele>64.0</ele><time>2026-04-13T06:18:57Z</time></trkpt><trkpt lat="-29.20441309673745" lon="114.96887482778541"><ele>65.0</ele><time>2026-04-13T06:18:58Z</time></trkpt><trkpt lat="-29.20412384463743" lon="114.9688730403188"><ele>67.5</ele><time>2026-04-13T06:18:59Z</time></trkpt><trkpt lat="-29.203832908979848" lon="114.96887044173256"><ele>70.0</ele><time>2026-04-13T06:19:00Z</time></trkpt><trkpt lat="-29.203537356197703" lon="114.96886501967585"><ele>70.0</ele><time>2026-04-13T06:19:01Z</time></trkpt><trkpt lat="-29.203242151960534" lon="114.9688581463145"><ele>70.0</ele><time>2026-04-13T06:19:02Z</time></trkpt><trkpt lat="-29.20294896906521" lon="114.96884912004073"><ele>69.5</ele><time>2026-04-13T06:19:03Z</time></trkpt><trkpt lat="-29.202652955454553" lon="114.96883967648878"><ele>69.0</ele><time>2026-04-13T06:19:04Z</time></trkpt><trkpt lat="-29.202353490716455" lon="114.9688362002251"><ele>69.0</ele><time>2026-04-13T06:19:05Z</time></trkpt><trkpt lat="-29.202045321236394" lon="114.96883646852031"><ele>69.0</ele><time>2026-04-13T06:19:06Z</time></trkpt><trkpt lat="-29.201735842450898" lon="114.96884262392437"><ele>68.0</ele><time>2026-04-13T06:19:07Z</time></trkpt><trkpt lat="-29.201426274670595" lon="114.96884375934367"><ele>67.0</ele><time>2026-04-13T06:19:08Z</time></trkpt><trkpt lat="-29.20112162474086" lon="114.96884401404735"><ele>67.0</ele><time>2026-04-13T06:19:09Z</time></trkpt><trkpt lat="-29.20081997096419" lon="114.96884531058802"><ele>67.0</ele><time>2026-04-13T06:19:10Z</time></trkpt><trkpt lat="-29.20052491627874" lon="114.96884713046454"><ele>67.0</ele><time>2026-04-13T06:19:11Z</time></trkpt><trkpt lat="-29.200230061830908" lon="114.96884929124515"><ele>67.0</ele><time>2026-04-13T06:19:12Z</time></trkpt><trkpt lat="-29.199937997751412" lon="114.96885124166843"><ele>67.0</ele><time>2026-04-13T06:19:13Z</time></trkpt><trkpt lat="-29.199648413937773" lon="114.96884791644878"><ele>67.0</ele><time>2026-04-13T06:19:14Z</time></trkpt><trkpt lat="-29.199362175776173" lon="114.96884764665514"><ele>67.0</ele><time>2026-04-13T06:19:15Z</time></trkpt><trkpt lat="-29.199077346341824" lon="114.96885434852992"><ele>67.0</ele><time>2026-04-13T06:19:16Z</time></trkpt><trkpt lat="-29.198795776164967" lon="114.96886201652869"><ele>67.0</ele><time>2026-04-13T06:19:17Z</time></trkpt><trkpt lat="-29.19851767368462" lon="114.96886473920898"><ele>67.0</ele><time>2026-04-13T06:19:18Z</time></trkpt><trkpt lat="-29.198244477442657" lon="114.96886482216111"><ele>67.0</ele><time>2026-04-13T06:19:19Z</time></trkpt><trkpt lat="-29.197962711840088" lon="114.968865692374"><ele>67.0</ele><time>2026-04-13T06:19:20Z</time></trkpt><trkpt lat="-29.19767280332086" lon="114.96886604208171"><ele>67.0</ele><time>2026-04-13T06:19:21Z</time></trkpt><trkpt lat="-29.19738194385282" lon="114.96886522654594"><ele>67.0</ele><time>2026-04-13T06:19:22Z</time></trkpt><trkpt lat="-29.197094445838648" lon="114.96886273968514"><ele>66.0</ele><time>2026-04-13T06:19:23Z</time></trkpt><trkpt lat="-29.196810344864648" lon="114.9688618022739"><ele>65.0</ele><time>2026-04-13T06:19:24Z</time></trkpt><trkpt lat="-29.19652913270173" lon="114.96886453685245"><ele>63.0</ele><time>2026-04-13T06:19:25Z</time></trkpt><trkpt lat="-29.196248541299212" lon="114.9688638590447"><ele>61.0</ele><time>2026-04-13T06:19:26Z</time></trkpt><trkpt lat="-29.19596894890765" lon="114.96886102701612"><ele>61.0</ele><time>2026-04-13T06:19:27Z</time></trkpt><trkpt lat="-29.195694249701994" lon="114.96885942302237"><ele>61.0</ele><time>2026-04-13T06:19:28Z</time></trkpt><trkpt lat="-29.19542117105406" lon="114.9688577490296"><ele>61.0</ele><time>2026-04-13T06:19:29Z</time></trkpt><trkpt lat="-29.195150231799047" lon="114.9688540026278"><ele>61.0</ele><time>2026-04-13T06:19:30Z</time></trkpt><trkpt lat="-29.19488984850102" lon="114.96884917227838"><ele>64.0</ele><time>2026-04-13T06:19:31Z</time></trkpt><trkpt lat="-29.1946310904958" lon="114.96884705215325"><ele>67.0</ele><time>2026-04-13T06:19:32Z</time></trkpt><trkpt lat="-29.194379922365098" lon="114.9688473211595"><ele>67.0</ele><time>2026-04-13T06:19:33Z</time></trkpt><trkpt lat="-29.194128929667333" lon="114.96884856062405"><ele>67.0</ele><time>2026-04-13T06:19:34Z</time></trkpt><trkpt lat="-29.193875219845953" lon="114.96885311661745"><ele>69.0</ele><time>2026-04-13T06:19:35Z</time></trkpt><trkpt lat="-29.193615821487107" lon="114.96885895877591"><ele>71.0</ele><time>2026-04-13T06:19:36Z</time></trkpt><trkpt lat="-29.19334962036512" lon="114.96886059118181"><ele>68.5</ele><time>2026-04-13T06:19:37Z</time></trkpt><trkpt lat="-29.19307663041953" lon="114.96885853982309"><ele>66.0</ele><time>2026-04-13T06:19:38Z</time></trkpt><trkpt lat="-29.192801028308544" lon="114.96885726067066"><ele>66.0</ele><time>2026-04-13T06:19:39Z</time></trkpt><trkpt lat="-29.192525060409924" lon="114.96885785591303"><ele>66.0</ele><time>2026-04-13T06:19:40Z</time></trkpt><trkpt lat="-29.192248146262614" lon="114.96885605157756"><ele>67.0</ele><time>2026-04-13T06:19:41Z</time></trkpt><trkpt lat="-29.191969704992264" lon="114.96885316822522"><ele>68.0</ele><time>2026-04-13T06:19:42Z</time></trkpt><trkpt lat="-29.19168856960988" lon="114.96885006219972"><ele>70.0</ele><time>2026-04-13T06:19:43Z</time></trkpt><trkpt lat="-29.191400960114212" lon="114.96884696115377"><ele>72.0</ele><time>2026-04-13T06:19:44Z</time></trkpt><trkpt lat="-29.191108228787567" lon="114.9688444270603"><ele>72.0</ele><time>2026-04-13T06:19:45Z</time></trkpt><trkpt lat="-29.190810409476022" lon="114.96884568860364"><ele>72.0</ele><time>2026-04-13T06:19:46Z</time></trkpt><trkpt lat="-29.190509621303303" lon="114.96884969646752"><ele>71.5</ele><time>2026-04-13T06:19:47Z</time></trkpt><trkpt lat="-29.19021050845014" lon="114.96885098089999"><ele>71.0</ele><time>2026-04-13T06:19:48Z</time></trkpt><trkpt lat="-29.189910732820994" lon="114.96882622666092"><ele>67.5</ele><time>2026-04-13T06:19:49Z</time></trkpt><trkpt lat="-29.18960649758165" lon="114.96882767310105"><ele>64.0</ele><time>2026-04-13T06:19:50Z</time></trkpt><trkpt lat="-29.189300546135364" lon="114.96883017970477"><ele>64.5</ele><time>2026-04-13T06:19:51Z</time></trkpt><trkpt lat="-29.1889890419641" lon="114.96883313438957"><ele>65.0</ele><time>2026-04-13T06:19:52Z</time></trkpt><trkpt lat="-29.188675495434435" lon="114.96883597895064"><ele>65.0</ele><time>2026-04-13T06:19:53Z</time></trkpt><trkpt lat="-29.1883635234116" lon="114.96883727895086"><ele>65.0</ele><time>2026-04-13T06:19:54Z</time></trkpt><trkpt lat="-29.188048586674704" lon="114.9688541698421"><ele>62.0</ele><time>2026-04-13T06:19:55Z</time></trkpt><trkpt lat="-29.187730963301554" lon="114.96884978405444"><ele>59.0</ele><time>2026-04-13T06:19:56Z</time></trkpt><trkpt lat="-29.187415690332827" lon="114.96882976100451"><ele>62.0</ele><time>2026-04-13T06:19:57Z</time></trkpt><trkpt lat="-29.187099242481334" lon="114.96882989436615"><ele>65.0</ele><time>2026-04-13T06:19:58Z</time></trkpt><trkpt lat="-29.186786814058785" lon="114.96884899711155"><ele>65.0</ele><time>2026-04-13T06:19:59Z</time></trkpt><trkpt lat="-29.18648039684371" lon="114.96884798577264"><ele>65.0</ele><time>2026-04-13T06:20:00Z</time></trkpt><trkpt lat="-29.186182396528398" lon="114.96884670559088"><ele>65.0</ele><time>2026-04-13T06:20:01Z</time></trkpt><trkpt lat="-29.18588800894263" lon="114.96884444379769"><ele>65.0</ele><time>2026-04-13T06:20:02Z</time></trkpt><trkpt lat="-29.185598535482285" lon="114.96884292703716"><ele>64.5</ele><time>2026-04-13T06:20:03Z</time></trkpt><trkpt lat="-29.18530838267862" lon="114.96884081011524"><ele>64.0</ele><time>2026-04-13T06:20:04Z</time></trkpt><trkpt lat="-29.185020342052265" lon="114.96883765903414"><ele>65.0</ele><time>2026-04-13T06:20:05Z</time></trkpt><trkpt lat="-29.184744518759157" lon="114.96883435359872"><ele>66.0</ele><time>2026-04-13T06:20:06Z</time></trkpt><trkpt lat="-29.184483228161227" lon="114.96883345974996"><ele>66.0</ele><time>2026-04-13T06:20:07Z</time></trkpt><trkpt lat="-29.184236631709084" lon="114.96883124130561"><ele>66.0</ele><time>2026-04-13T06:20:08Z</time></trkpt><trkpt lat="-29.184001518568543" lon="114.96883004139279"><ele>66.66666666666667</ele><time>2026-04-13T06:20:09Z</time></trkpt><trkpt lat="-29.18378067157678" lon="114.96882778042561"><ele>67.33333333333334</ele><time>2026-04-13T06:20:10Z</time></trkpt><trkpt lat="-29.183590371638978" lon="114.96880197387131"><ele>68.0</ele><time>2026-04-13T06:20:11Z</time></trkpt><trkpt lat="-29.183417620347097" lon="114.96880417162707"><ele>68.0</ele><time>2026-04-13T06:20:12Z</time></trkpt><trkpt lat="-29.183254081492507" lon="114.96881748677322"><ele>68.0</ele><time>2026-04-13T06:20:13Z</time></trkpt><trkpt lat="-29.183074428175154" lon="114.96886238092816"><ele>68.0</ele><time>2026-04-13T06:20:14Z</time></trkpt><trkpt lat="-29.182893080197903" lon="114.96898223069077"><ele>67.0</ele><time>2026-04-13T06:20:15Z</time></trkpt><trkpt lat="-29.182691095697816" lon="114.96909432561226"><ele>66.0</ele><time>2026-04-13T06:20:16Z</time></trkpt><trkpt lat="-29.182485669807612" lon="114.96923152360381"><ele>65.5</ele><time>2026-04-13T06:20:17Z</time></trkpt><trkpt lat="-29.18226579257925" lon="114.9693830371198"><ele>65.0</ele><time>2026-04-13T06:20:18Z</time></trkpt><trkpt lat="-29.182040593816847" lon="114.96952871692075"><ele>65.0</ele><time>2026-04-13T06:20:19Z</time></trkpt><trkpt lat="-29.181813481360848" lon="114.96966144918618"><ele>65.0</ele><time>2026-04-13T06:20:20Z</time></trkpt><trkpt lat="-29.181575440939664" lon="114.96979732961435"><ele>64.0</ele><time>2026-04-13T06:20:21Z</time></trkpt><trkpt lat="-29.18132816785709" lon="114.96994612715956"><ele>63.0</ele><time>2026-04-13T06:20:22Z</time></trkpt><trkpt lat="-29.1810717912745" lon="114.9701018333972"><ele>63.0</ele><time>2026-04-13T06:20:23Z</time></trkpt><trkpt lat="-29.180820091988323" lon="114.9702562962656"><ele>63.0</ele><time>2026-04-13T06:20:24Z</time></trkpt><trkpt lat="-29.180567964106167" lon="114.97041224530646"><ele>63.5</ele><time>2026-04-13T06:20:25Z</time></trkpt><trkpt lat="-29.180319257150607" lon="114.97056464632489"><ele>64.0</ele><time>2026-04-13T06:20:26Z</time></trkpt><trkpt lat="-29.18008157939278" lon="114.97071049683655"><ele>64.0</ele><time>2026-04-13T06:20:27Z</time></trkpt><trkpt lat="-29.179856098756524" lon="114.97085184975465"><ele>64.0</ele><time>2026-04-13T06:20:28Z</time></trkpt><trkpt lat="-29.17964300644857" lon="114.97098586148492"><ele>60.0</ele><time>2026-04-13T06:20:29Z</time></trkpt><trkpt lat="-29.179435503021278" lon="114.971112884721"><ele>56.0</ele><time>2026-04-13T06:20:30Z</time></trkpt><trkpt lat="-29.179232291522467" lon="114.97123906345826"><ele>56.0</ele><time>2026-04-13T06:20:31Z</time></trkpt><trkpt lat="-29.179034525812348" lon="114.97136144746968"><ele>56.0</ele><time>2026-04-13T06:20:32Z</time></trkpt><trkpt lat="-29.178843059026818" lon="114.9714766868161"><ele>56.0</ele><time>2026-04-13T06:20:33Z</time></trkpt><trkpt lat="-29.178658758249785" lon="114.9715863224137"><ele>56.66666666666667</ele><time>2026-04-13T06:20:34Z</time></trkpt><trkpt lat="-29.178479612930655" lon="114.97168714502803"><ele>57.33333333333333</ele><time>2026-04-13T06:20:35Z</time></trkpt><trkpt lat="-29.178305936812084" lon="114.97177707930507"><ele>58.0</ele><time>2026-04-13T06:20:36Z</time></trkpt><trkpt lat="-29.178136404336563" lon="114.97184188117706"><ele>55.0</ele><time>2026-04-13T06:20:37Z</time></trkpt><trkpt lat="-29.1779599988143" lon="114.97188297416635"><ele>52.0</ele><time>2026-04-13T06:20:38Z</time></trkpt><trkpt lat="-29.177773940649864" lon="114.97185220813434"><ele>49.0</ele><time>2026-04-13T06:20:39Z</time></trkpt><trkpt lat="-29.177572513928524" lon="114.97182286644488"><ele>51.0</ele><time>2026-04-13T06:20:40Z</time></trkpt><trkpt lat="-29.177351057368696" lon="114.97178961383815"><ele>53.0</ele><time>2026-04-13T06:20:41Z</time></trkpt><trkpt lat="-29.177111907033083" lon="114.97175087594732"><ele>53.0</ele><time>2026-04-13T06:20:42Z</time></trkpt><trkpt lat="-29.176857419541832" lon="114.97170937067955"><ele>53.0</ele><time>2026-04-13T06:20:43Z</time></trkpt><trkpt lat="-29.17659046275813" lon="114.97166958873126"><ele>54.5</ele><time>2026-04-13T06:20:44Z</time></trkpt><trkpt lat="-29.176314156526754" lon="114.97163044647704"><ele>56.0</ele><time>2026-04-13T06:20:45Z</time></trkpt><trkpt lat="-29.17602934480445" lon="114.97159011131703"><ele>56.0</ele><time>2026-04-13T06:20:46Z</time></trkpt><trkpt lat="-29.17573354962087" lon="114.97154760974482"><ele>56.0</ele><time>2026-04-13T06:20:47Z</time></trkpt><trkpt lat="-29.175449454430723" lon="114.97150676358788"><ele>55.5</ele><time>2026-04-13T06:20:48Z</time></trkpt><trkpt lat="-29.175173805310283" lon="114.97146623610678"><ele>55.0</ele><time>2026-04-13T06:20:49Z</time></trkpt><trkpt lat="-29.174892787044957" lon="114.971443044674"><ele>54.5</ele><time>2026-04-13T06:20:50Z</time></trkpt><trkpt lat="-29.174607237974765" lon="114.97140310871985"><ele>54.0</ele><time>2026-04-13T06:20:51Z</time></trkpt><trkpt lat="-29.17431485149137" lon="114.97134388442116"><ele>55.5</ele><time>2026-04-13T06:20:52Z</time></trkpt><trkpt lat="-29.17401491232278" lon="114.9713219590682"><ele>57.0</ele><time>2026-04-13T06:20:53Z</time></trkpt><trkpt lat="-29.173716663262127" lon="114.97128438096209"><ele>57.0</ele><time>2026-04-13T06:20:54Z</time></trkpt><trkpt lat="-29.17342076194215" lon="114.9712492812161"><ele>57.0</ele><time>2026-04-13T06:20:55Z</time></trkpt><trkpt lat="-29.173123312215786" lon="114.97121268454013"><ele>57.5</ele><time>2026-04-13T06:20:56Z</time></trkpt><trkpt lat="-29.17282772514008" lon="114.97117393193886"><ele>58.0</ele><time>2026-04-13T06:20:57Z</time></trkpt><trkpt lat="-29.172545793798804" lon="114.9711292432417"><ele>58.0</ele><time>2026-04-13T06:20:58Z</time></trkpt><trkpt lat="-29.17228077013897" lon="114.9710482116394"><ele>58.0</ele><time>2026-04-13T06:20:59Z</time></trkpt><trkpt lat="-29.172041664383876" lon="114.97093998716592"><ele>59.0</ele><time>2026-04-13T06:21:00Z</time></trkpt><trkpt lat="-29.171800535591025" lon="114.97082098809322"><ele>60.0</ele><time>2026-04-13T06:21:01Z</time></trkpt><trkpt lat="-29.171548731207476" lon="114.97069777477013"><ele>60.0</ele><time>2026-04-13T06:21:02Z</time></trkpt><trkpt lat="-29.17128906805859" lon="114.97057529418306"><ele>60.0</ele><time>2026-04-13T06:21:03Z</time></trkpt><trkpt lat="-29.171031647888025" lon="114.97045387090948"><ele>60.0</ele><time>2026-04-13T06:21:04Z</time></trkpt><trkpt lat="-29.170785504433127" lon="114.97033778082297"><ele>60.0</ele><time>2026-04-13T06:21:05Z</time></trkpt><trkpt lat="-29.170548058919803" lon="114.97025078971916"><ele>60.0</ele><time>2026-04-13T06:21:06Z</time></trkpt><trkpt lat="-29.17033439203493" lon="114.97015387638913"><ele>60.0</ele><time>2026-04-13T06:21:07Z</time></trkpt><trkpt lat="-29.170135205466508" lon="114.97006746288531"><ele>60.0</ele><time>2026-04-13T06:21:08Z</time></trkpt><trkpt lat="-29.169952095648096" lon="114.96998505227913"><ele>59.66666666666667</ele><time>2026-04-13T06:21:09Z</time></trkpt><trkpt lat="-29.16978573753726" lon="114.96991012731789"><ele>59.333333333333336</ele><time>2026-04-13T06:21:10Z</time></trkpt><trkpt lat="-29.169634765747855" lon="114.9698413326607"><ele>59.0</ele><time>2026-04-13T06:21:11Z</time></trkpt><trkpt lat="-29.169499407916724" lon="114.96978246985586"><ele>59.0</ele><time>2026-04-13T06:21:12Z</time></trkpt><trkpt lat="-29.169378901227308" lon="114.96972653424612"><ele>59.00000000000001</ele><time>2026-04-13T06:21:13Z</time></trkpt><trkpt lat="-29.169269193885807" lon="114.96966278016674"><ele>59.00000000000001</ele><time>2026-04-13T06:21:14Z</time></trkpt><trkpt lat="-29.16918609845008" lon="114.96959634969171"><ele>59.0</ele><time>2026-04-13T06:21:15Z</time></trkpt><trkpt lat="-29.16912548680259" lon="114.9695326532178"><ele>59.0</ele><time>2026-04-13T06:21:16Z</time></trkpt><trkpt lat="-29.16908415677021" lon="114.96945189234658"><ele>59.0</ele><time>2026-04-13T06:21:17Z</time></trkpt><trkpt lat="-29.16905325855981" lon="114.96934927914384"><ele>59.00000000000001</ele><time>2026-04-13T06:21:18Z</time></trkpt><trkpt lat="-29.169041352538784" lon="114.96923291144432"><ele>59.00000000000001</ele><time>2026-04-13T06:21:19Z</time></trkpt><trkpt lat="-29.169035847491376" lon="114.96910594619588"><ele>59.0</ele><time>2026-04-13T06:21:20Z</time></trkpt><trkpt lat="-29.169024932046575" lon="114.96899664760261"><ele>59.0</ele><time>2026-04-13T06:21:21Z</time></trkpt><trkpt lat="-29.168990369410206" lon="114.96890549111285"><ele>59.0</ele><time>2026-04-13T06:21:22Z</time></trkpt><trkpt lat="-29.16892203317912" lon="114.96883280695681"><ele>59.0</ele><time>2026-04-13T06:21:23Z</time></trkpt><trkpt lat="-29.168836255422683" lon="114.96877785761112"><ele>59.0</ele><time>2026-04-13T06:21:24Z</time></trkpt><trkpt lat="-29.168718453019093" lon="114.96875539801012"><ele>59.0</ele><time>2026-04-13T06:21:25Z</time></trkpt><trkpt lat="-29.168576453190415" lon="114.96876469524108"><ele>59.0</ele><time>2026-04-13T06:21:26Z</time></trkpt><trkpt lat="-29.168406867879522" lon="114.96877682880368"><ele>59.0</ele><time>2026-04-13T06:21:27Z</time></trkpt><trkpt lat="-29.168212294038558" lon="114.9687468918233"><ele>59.0</ele><time>2026-04-13T06:21:28Z</time></trkpt><trkpt lat="-29.167988703662836" lon="114.96875168961084"><ele>57.0</ele><time>2026-04-13T06:21:29Z</time></trkpt><trkpt lat="-29.167756988359407" lon="114.96875418252843"><ele>55.0</ele><time>2026-04-13T06:21:30Z</time></trkpt><trkpt lat="-29.167519009958742" lon="114.96876465616471"><ele>51.5</ele><time>2026-04-13T06:21:31Z</time></trkpt><trkpt lat="-29.167274414056727" lon="114.96873244059474"><ele>48.0</ele><time>2026-04-13T06:21:32Z</time></trkpt><trkpt lat="-29.167056767744263" lon="114.96862483741202"><ele>48.0</ele><time>2026-04-13T06:21:33Z</time></trkpt><trkpt lat="-29.16682637447968" lon="114.96854925704663"><ele>48.0</ele><time>2026-04-13T06:21:34Z</time></trkpt><trkpt lat="-29.16658135769118" lon="114.96852262473172"><ele>50.5</ele><time>2026-04-13T06:21:35Z</time></trkpt><trkpt lat="-29.16633465433834" lon="114.96853744610652"><ele>53.0</ele><time>2026-04-13T06:21:36Z</time></trkpt><trkpt lat="-29.166082794668302" lon="114.9685437221149"><ele>53.0</ele><time>2026-04-13T06:21:37Z</time></trkpt><trkpt lat="-29.165820463084675" lon="114.9685341834462"><ele>53.0</ele><time>2026-04-13T06:21:38Z</time></trkpt><trkpt lat="-29.165554816114206" lon="114.96853376512055"><ele>55.0</ele><time>2026-04-13T06:21:39Z</time></trkpt><trkpt lat="-29.16528043532034" lon="114.96853327312606"><ele>57.0</ele><time>2026-04-13T06:21:40Z</time></trkpt><trkpt lat="-29.16499791022533" lon="114.96853288344288"><ele>56.0</ele><time>2026-04-13T06:21:41Z</time></trkpt><trkpt lat="-29.16470875425518" lon="114.96853288344207"><ele>55.0</ele><time>2026-04-13T06:21:42Z</time></trkpt><trkpt lat="-29.16441856252636" lon="114.96853288344214"><ele>55.0</ele><time>2026-04-13T06:21:43Z</time></trkpt><trkpt lat="-29.164129105634448" lon="114.96853288344224"><ele>55.0</ele><time>2026-04-13T06:21:44Z</time></trkpt><trkpt lat="-29.16383879531352" lon="114.96853288344283"><ele>54.0</ele><time>2026-04-13T06:21:45Z</time></trkpt><trkpt lat="-29.163546340848978" lon="114.96855157830086"><ele>53.0</ele><time>2026-04-13T06:21:46Z</time></trkpt><trkpt lat="-29.163258032703457" lon="114.96854924104196"><ele>51.0</ele><time>2026-04-13T06:21:47Z</time></trkpt><trkpt lat="-29.16297930918628" lon="114.96854882622878"><ele>49.0</ele><time>2026-04-13T06:21:48Z</time></trkpt><trkpt lat="-29.16270441938065" lon="114.96854838957829"><ele>49.0</ele><time>2026-04-13T06:21:49Z</time></trkpt><trkpt lat="-29.162417208855654" lon="114.96854950031147"><ele>49.0</ele><time>2026-04-13T06:21:50Z</time></trkpt><trkpt lat="-29.16211113632846" lon="114.96855032305649"><ele>50.5</ele><time>2026-04-13T06:21:51Z</time></trkpt><trkpt lat="-29.16180369830191" lon="114.9685452660668"><ele>52.0</ele><time>2026-04-13T06:21:52Z</time></trkpt><trkpt lat="-29.161499790310586" lon="114.96853721156769"><ele>52.0</ele><time>2026-04-13T06:21:53Z</time></trkpt><trkpt lat="-29.161195429774683" lon="114.96852921534844"><ele>52.0</ele><time>2026-04-13T06:21:54Z</time></trkpt><trkpt lat="-29.160893279802327" lon="114.968526382548"><ele>54.5</ele><time>2026-04-13T06:21:55Z</time></trkpt><trkpt lat="-29.160602890445574" lon="114.96852571214716"><ele>57.0</ele><time>2026-04-13T06:21:56Z</time></trkpt><trkpt lat="-29.160325156308364" lon="114.96852421532795"><ele>57.0</ele><time>2026-04-13T06:21:57Z</time></trkpt><trkpt lat="-29.160055486725906" lon="114.9685208399148"><ele>57.0</ele><time>2026-04-13T06:21:58Z</time></trkpt><trkpt lat="-29.159798974866575" lon="114.96851783187488"><ele>59.0</ele><time>2026-04-13T06:21:59Z</time></trkpt><trkpt lat="-29.159548363759548" lon="114.96851733332568"><ele>61.0</ele><time>2026-04-13T06:22:00Z</time></trkpt><trkpt lat="-29.159293481531503" lon="114.96851716235626"><ele>60.5</ele><time>2026-04-13T06:22:01Z</time></trkpt><trkpt lat="-29.15903411758823" lon="114.9685195462652"><ele>60.0</ele><time>2026-04-13T06:22:02Z</time></trkpt><trkpt lat="-29.158765462982856" lon="114.96851722447832"><ele>60.0</ele><time>2026-04-13T06:22:03Z</time></trkpt><trkpt lat="-29.158487566539836" lon="114.96851326749113"><ele>60.0</ele><time>2026-04-13T06:22:04Z</time></trkpt><trkpt lat="-29.15820380308893" lon="114.96851124926289"><ele>59.0</ele><time>2026-04-13T06:22:05Z</time></trkpt><trkpt lat="-29.157910592886306" lon="114.96850773352219"><ele>58.0</ele><time>2026-04-13T06:22:06Z</time></trkpt><trkpt lat="-29.15760831599716" lon="114.96850383787996"><ele>55.0</ele><time>2026-04-13T06:22:07Z</time></trkpt><trkpt lat="-29.15730307170186" lon="114.96850180705161"><ele>52.0</ele><time>2026-04-13T06:22:08Z</time></trkpt><trkpt lat="-29.15699442948853" lon="114.96850477337776"><ele>52.0</ele><time>2026-04-13T06:22:09Z</time></trkpt><trkpt lat="-29.156683471157834" lon="114.96850741769784"><ele>52.0</ele><time>2026-04-13T06:22:10Z</time></trkpt><trkpt lat="-29.156376140091922" lon="114.96851200781194"><ele>50.5</ele><time>2026-04-13T06:22:11Z</time></trkpt><trkpt lat="-29.156068958598595" lon="114.96849169596042"><ele>49.0</ele><time>2026-04-13T06:22:12Z</time></trkpt><trkpt lat="-29.155758433644305" lon="114.96849128520985"><ele>49.0</ele><time>2026-04-13T06:22:13Z</time></trkpt><trkpt lat="-29.155444816321896" lon="114.96849128521134"><ele>49.0</ele><time>2026-04-13T06:22:14Z</time></trkpt><trkpt lat="-29.155135969001" lon="114.96849128521373"><ele>49.5</ele><time>2026-04-13T06:22:15Z</time></trkpt><trkpt lat="-29.154825065997173" lon="114.96849128521403"><ele>50.0</ele><time>2026-04-13T06:22:16Z</time></trkpt><trkpt lat="-29.154511945528863" lon="114.96849128521299"><ele>50.0</ele><time>2026-04-13T06:22:17Z</time></trkpt><trkpt lat="-29.154198043438708" lon="114.96849128521197"><ele>50.0</ele><time>2026-04-13T06:22:18Z</time></trkpt><trkpt lat="-29.153881778823852" lon="114.96849128521119"><ele>51.5</ele><time>2026-04-13T06:22:19Z</time></trkpt><trkpt lat="-29.153565903021278" lon="114.96849128521112"><ele>53.0</ele><time>2026-04-13T06:22:20Z</time></trkpt><trkpt lat="-29.15325598903072" lon="114.96849128521121"><ele>54.0</ele><time>2026-04-13T06:22:21Z</time></trkpt><trkpt lat="-29.152949520399094" lon="114.96849128521157"><ele>55.0</ele><time>2026-04-13T06:22:22Z</time></trkpt><trkpt lat="-29.152647884999634" lon="114.96849160662765"><ele>56.0</ele><time>2026-04-13T06:22:23Z</time></trkpt><trkpt lat="-29.15234793249398" lon="114.96849299341005"><ele>57.0</ele><time>2026-04-13T06:22:24Z</time></trkpt><trkpt lat="-29.15204980412744" lon="114.96849457740343"><ele>57.0</ele><time>2026-04-13T06:22:25Z</time></trkpt><trkpt lat="-29.151750663378106" lon="114.96849616678936"><ele>57.0</ele><time>2026-04-13T06:22:26Z</time></trkpt><trkpt lat="-29.151456596836884" lon="114.96849940192344"><ele>55.0</ele><time>2026-04-13T06:22:27Z</time></trkpt><trkpt lat="-29.151170479420035" lon="114.96852468220172"><ele>53.0</ele><time>2026-04-13T06:22:28Z</time></trkpt><trkpt lat="-29.15088910913007" lon="114.96851836103639"><ele>52.5</ele><time>2026-04-13T06:22:29Z</time></trkpt><trkpt lat="-29.15060964058297" lon="114.96851361752128"><ele>52.0</ele><time>2026-04-13T06:22:30Z</time></trkpt><trkpt lat="-29.15032522263168" lon="114.96850797980865"><ele>52.0</ele><time>2026-04-13T06:22:31Z</time></trkpt><trkpt lat="-29.15003467290848" lon="114.96850146437914"><ele>52.0</ele><time>2026-04-13T06:22:32Z</time></trkpt><trkpt lat="-29.149742595099486" lon="114.96849591336314"><ele>50.5</ele><time>2026-04-13T06:22:33Z</time></trkpt><trkpt lat="-29.149449657176884" lon="114.96849369580582"><ele>49.0</ele><time>2026-04-13T06:22:34Z</time></trkpt><trkpt lat="-29.149157182989416" lon="114.96849566923323"><ele>46.5</ele><time>2026-04-13T06:22:35Z</time></trkpt><trkpt lat="-29.148863803495953" lon="114.96849698196385"><ele>44.0</ele><time>2026-04-13T06:22:36Z</time></trkpt><trkpt lat="-29.148566773811872" lon="114.96849734797863"><ele>44.0</ele><time>2026-04-13T06:22:37Z</time></trkpt><trkpt lat="-29.148267553294463" lon="114.96849620278144"><ele>44.0</ele><time>2026-04-13T06:22:38Z</time></trkpt><trkpt lat="-29.147969133891248" lon="114.96849280265963"><ele>41.5</ele><time>2026-04-13T06:22:39Z</time></trkpt><trkpt lat="-29.147674186426183" lon="114.96848779163777"><ele>39.0</ele><time>2026-04-13T06:22:40Z</time></trkpt><trkpt lat="-29.14738151458973" lon="114.96848507352108"><ele>39.5</ele><time>2026-04-13T06:22:41Z</time></trkpt><trkpt lat="-29.147093180817084" lon="114.96848225194374"><ele>40.0</ele><time>2026-04-13T06:22:42Z</time></trkpt><trkpt lat="-29.14680568488996" lon="114.96848421281125"><ele>39.5</ele><time>2026-04-13T06:22:43Z</time></trkpt><trkpt lat="-29.146515542460552" lon="114.96848738352669"><ele>39.0</ele><time>2026-04-13T06:22:44Z</time></trkpt><trkpt lat="-29.146225761491877" lon="114.96849254828922"><ele>39.0</ele><time>2026-04-13T06:22:45Z</time></trkpt><trkpt lat="-29.145947301270844" lon="114.96849860871195"><ele>39.0</ele><time>2026-04-13T06:22:46Z</time></trkpt><trkpt lat="-29.14569501816359" lon="114.96850313794393"><ele>39.666666666666664</ele><time>2026-04-13T06:22:47Z</time></trkpt><trkpt lat="-29.145465916753782" lon="114.9685100019291"><ele>40.33333333333333</ele><time>2026-04-13T06:22:48Z</time></trkpt><trkpt lat="-29.14525272546075" lon="114.96851370926298"><ele>41.0</ele><time>2026-04-13T06:22:49Z</time></trkpt><trkpt lat="-29.145063117381188" lon="114.9685155174981"><ele>41.0</ele><time>2026-04-13T06:22:50Z</time></trkpt><trkpt lat="-29.144895837154966" lon="114.96851633065528"><ele>41.0</ele><time>2026-04-13T06:22:51Z</time></trkpt><trkpt lat="-29.14475433566018" lon="114.96851819308704"><ele>41.0</ele><time>2026-04-13T06:22:52Z</time></trkpt><trkpt lat="-29.144641798918745" lon="114.96851256845498"><ele>41.0</ele><time>2026-04-13T06:22:53Z</time></trkpt><trkpt lat="-29.144552965950528" lon="114.96849286828524"><ele>41.0</ele><time>2026-04-13T06:22:54Z</time></trkpt><trkpt lat="-29.144489581217556" lon="114.96845180378612"><ele>41.0</ele><time>2026-04-13T06:22:55Z</time></trkpt><trkpt lat="-29.144440511295176" lon="114.96838943535319"><ele>41.0</ele><time>2026-04-13T06:22:56Z</time></trkpt><trkpt lat="-29.144408482402877" lon="114.96830531809103"><ele>41.0</ele><time>2026-04-13T06:22:57Z</time></trkpt><trkpt lat="-29.144397536511924" lon="114.96819907187061"><ele>41.0</ele><time>2026-04-13T06:22:58Z</time></trkpt><trkpt lat="-29.144397720323585" lon="114.96808374073753"><ele>41.0</ele><time>2026-04-13T06:22:59Z</time></trkpt><trkpt lat="-29.144411212250105" lon="114.96795434925093"><ele>41.0</ele><time>2026-04-13T06:23:00Z</time></trkpt><trkpt lat="-29.144437377299134" lon="114.96781507571609"><ele>41.0</ele><time>2026-04-13T06:23:01Z</time></trkpt><trkpt lat="-29.144471610723933" lon="114.96768566852091"><ele>41.0</ele><time>2026-04-13T06:23:02Z</time></trkpt><trkpt lat="-29.14448617046448" lon="114.96756804663637"><ele>41.0</ele><time>2026-04-13T06:23:03Z</time></trkpt><trkpt lat="-29.144466927614427" lon="114.96746017949458"><ele>41.0</ele><time>2026-04-13T06:23:04Z</time></trkpt><trkpt lat="-29.144417604230576" lon="114.96737220079558"><ele>41.0</ele><time>2026-04-13T06:23:05Z</time></trkpt><trkpt lat="-29.14434482920013" lon="114.96730301968412"><ele>41.0</ele><time>2026-04-13T06:23:06Z</time></trkpt><trkpt lat="-29.144248526963196" lon="114.96725706420287"><ele>41.0</ele><time>2026-04-13T06:23:07Z</time></trkpt><trkpt lat="-29.14413360238948" lon="114.96723821663248"><ele>41.0</ele><time>2026-04-13T06:23:08Z</time></trkpt><trkpt lat="-29.14399167516304" lon="114.96723833920576"><ele>40.666666666666664</ele><time>2026-04-13T06:23:09Z</time></trkpt><trkpt lat="-29.143828651351036" lon="114.96724559401603"><ele>40.333333333333336</ele><time>2026-04-13T06:23:10Z</time></trkpt><trkpt lat="-29.14365034712162" lon="114.9672546248717"><ele>40.0</ele><time>2026-04-13T06:23:11Z</time></trkpt><trkpt lat="-29.143456167704173" lon="114.96726190521373"><ele>40.0</ele><time>2026-04-13T06:23:12Z</time></trkpt><trkpt lat="-29.14323983451467" lon="114.9672662047384"><ele>40.0</ele><time>2026-04-13T06:23:13Z</time></trkpt><trkpt lat="-29.143000947345207" lon="114.96726730289807"><ele>40.5</ele><time>2026-04-13T06:23:14Z</time></trkpt><trkpt lat="-29.142742213546178" lon="114.96726530463913"><ele>41.0</ele><time>2026-04-13T06:23:15Z</time></trkpt><trkpt lat="-29.142481585484536" lon="114.96726770457994"><ele>41.5</ele><time>2026-04-13T06:23:16Z</time></trkpt><trkpt lat="-29.142221626724385" lon="114.96727214655643"><ele>42.0</ele><time>2026-04-13T06:23:17Z</time></trkpt><trkpt lat="-29.14194569400984" lon="114.96727529824503"><ele>42.0</ele><time>2026-04-13T06:23:18Z</time></trkpt><trkpt lat="-29.14165459799889" lon="114.96727506678558"><ele>42.0</ele><time>2026-04-13T06:23:19Z</time></trkpt><trkpt lat="-29.14136306376323" lon="114.96727019519702"><ele>42.5</ele><time>2026-04-13T06:23:20Z</time></trkpt><trkpt lat="-29.14107728970645" lon="114.96726647484658"><ele>43.0</ele><time>2026-04-13T06:23:21Z</time></trkpt><trkpt lat="-29.140783196975395" lon="114.96726252778895"><ele>42.5</ele><time>2026-04-13T06:23:22Z</time></trkpt><trkpt lat="-29.140483169275807" lon="114.96726249393942"><ele>42.0</ele><time>2026-04-13T06:23:23Z</time></trkpt><trkpt lat="-29.14018011534246" lon="114.96726162955981"><ele>43.5</ele><time>2026-04-13T06:23:24Z</time></trkpt><trkpt lat="-29.139882392990856" lon="114.96726611595186"><ele>45.0</ele><time>2026-04-13T06:23:25Z</time></trkpt><trkpt lat="-29.139597304472733" lon="114.96726780374529"><ele>45.0</ele><time>2026-04-13T06:23:26Z</time></trkpt><trkpt lat="-29.13930986065529" lon="114.9672670786233"><ele>45.0</ele><time>2026-04-13T06:23:27Z</time></trkpt><trkpt lat="-29.139020038590534" lon="114.96726298362181"><ele>45.0</ele><time>2026-04-13T06:23:28Z</time></trkpt><trkpt lat="-29.138729461221217" lon="114.9672587996949"><ele>45.0</ele><time>2026-04-13T06:23:29Z</time></trkpt><trkpt lat="-29.13843734485118" lon="114.96725697538211"><ele>44.0</ele><time>2026-04-13T06:23:30Z</time></trkpt><trkpt lat="-29.138145889770694" lon="114.96725987247605"><ele>43.0</ele><time>2026-04-13T06:23:31Z</time></trkpt><trkpt lat="-29.137848912567065" lon="114.9672654008926"><ele>43.0</ele><time>2026-04-13T06:23:32Z</time></trkpt><trkpt lat="-29.137549567307985" lon="114.9672492885306"><ele>43.0</ele><time>2026-04-13T06:23:33Z</time></trkpt><trkpt lat="-29.13725647010643" lon="114.96724887873992"><ele>43.0</ele><time>2026-04-13T06:23:34Z</time></trkpt><trkpt lat="-29.136960792750905" lon="114.96724788852968"><ele>43.0</ele><time>2026-04-13T06:23:35Z</time></trkpt><trkpt lat="-29.136666163196722" lon="114.96724745553307"><ele>43.0</ele><time>2026-04-13T06:23:36Z</time></trkpt><trkpt lat="-29.136371567089803" lon="114.96724658853044"><ele>43.0</ele><time>2026-04-13T06:23:37Z</time></trkpt><trkpt lat="-29.136076041775205" lon="114.96726303260047"><ele>43.0</ele><time>2026-04-13T06:23:38Z</time></trkpt><trkpt lat="-29.135777185708815" lon="114.96726340665839"><ele>43.0</ele><time>2026-04-13T06:23:39Z</time></trkpt><trkpt lat="-29.13547887994708" lon="114.96724528853584"><ele>43.5</ele><time>2026-04-13T06:23:40Z</time></trkpt><trkpt lat="-29.135181032505166" lon="114.967245288539"><ele>44.0</ele><time>2026-04-13T06:23:41Z</time></trkpt><trkpt lat="-29.134884925990264" lon="114.96724528854344"><ele>47.0</ele><time>2026-04-13T06:23:42Z</time></trkpt><trkpt lat="-29.134589501258386" lon="114.96724528854821"><ele>50.0</ele><time>2026-04-13T06:23:43Z</time></trkpt><trkpt lat="-29.134293134783523" lon="114.96724528855296"><ele>52.0</ele><time>2026-04-13T06:23:44Z</time></trkpt><trkpt lat="-29.13399371643979" lon="114.96724528855829"><ele>54.0</ele><time>2026-04-13T06:23:45Z</time></trkpt><trkpt lat="-29.13369356635499" lon="114.9672452894393"><ele>54.0</ele><time>2026-04-13T06:23:46Z</time></trkpt><trkpt lat="-29.133395232163906" lon="114.96724528944509"><ele>54.0</ele><time>2026-04-13T06:23:47Z</time></trkpt><trkpt lat="-29.13310401673253" lon="114.9672452894511"><ele>54.5</ele><time>2026-04-13T06:23:48Z</time></trkpt><trkpt lat="-29.132805600670522" lon="114.96724567865112"><ele>55.0</ele><time>2026-04-13T06:23:49Z</time></trkpt><trkpt lat="-29.13249304738312" lon="114.96724641821346"><ele>53.0</ele><time>2026-04-13T06:23:50Z</time></trkpt><trkpt lat="-29.132177105916558" lon="114.96724658943965"><ele>51.0</ele><time>2026-04-13T06:23:51Z</time></trkpt><trkpt lat="-29.1318665682702" lon="114.96724658943681"><ele>51.0</ele><time>2026-04-13T06:23:52Z</time></trkpt><trkpt lat="-29.131556082023092" lon="114.96724658943478"><ele>51.0</ele><time>2026-04-13T06:23:53Z</time></trkpt><trkpt lat="-29.13124623248048" lon="114.96724658943437"><ele>51.0</ele><time>2026-04-13T06:23:54Z</time></trkpt><trkpt lat="-29.1309453557425" lon="114.96724658943627"><ele>51.0</ele><time>2026-04-13T06:23:55Z</time></trkpt><trkpt lat="-29.130647816004263" lon="114.96724658943793"><ele>51.0</ele><time>2026-04-13T06:23:56Z</time></trkpt><trkpt lat="-29.130351903722534" lon="114.96724658943937"><ele>51.0</ele><time>2026-04-13T06:23:57Z</time></trkpt><trkpt lat="-29.130055572626222" lon="114.96724658944007"><ele>52.0</ele><time>2026-04-13T06:23:58Z</time></trkpt><trkpt lat="-29.12975878447865" lon="114.96724570508687"><ele>53.0</ele><time>2026-04-13T06:23:59Z</time></trkpt><trkpt lat="-29.12946397510938" lon="114.96724463015707"><ele>53.0</ele><time>2026-04-13T06:24:00Z</time></trkpt><trkpt lat="-29.12918084783098" lon="114.9672438894399"><ele>53.0</ele><time>2026-04-13T06:24:01Z</time></trkpt><trkpt lat="-29.128912051746894" lon="114.96724285581735"><ele>54.5</ele><time>2026-04-13T06:24:02Z</time></trkpt><trkpt lat="-29.128647218326112" lon="114.96724194267007"><ele>56.0</ele><time>2026-04-13T06:24:03Z</time></trkpt><trkpt lat="-29.128378185152116" lon="114.96724117914692"><ele>56.0</ele><time>2026-04-13T06:24:04Z</time></trkpt><trkpt lat="-29.128114310991613" lon="114.96723989031616"><ele>56.0</ele><time>2026-04-13T06:24:05Z</time></trkpt><trkpt lat="-29.1278606115698" lon="114.96725657651926"><ele>56.0</ele><time>2026-04-13T06:24:06Z</time></trkpt><trkpt lat="-29.127624633032447" lon="114.96724984407581"><ele>56.0</ele><time>2026-04-13T06:24:07Z</time></trkpt><trkpt lat="-29.12739795015338" lon="114.96724169809278"><ele>55.333333333333336</ele><time>2026-04-13T06:24:08Z</time></trkpt><trkpt lat="-29.12717449331404" lon="114.9672354289836"><ele>54.66666666666667</ele><time>2026-04-13T06:24:09Z</time></trkpt><trkpt lat="-29.126960002714988" lon="114.9672356832356"><ele>54.0</ele><time>2026-04-13T06:24:10Z</time></trkpt><trkpt lat="-29.12675869179234" lon="114.96723952232225"><ele>54.0</ele><time>2026-04-13T06:24:11Z</time></trkpt><trkpt lat="-29.126581007298615" lon="114.96723240487316"><ele>54.0</ele><time>2026-04-13T06:24:12Z</time></trkpt><trkpt lat="-29.126421659154147" lon="114.96726509269766"><ele>54.0</ele><time>2026-04-13T06:24:13Z</time></trkpt><trkpt lat="-29.12628549912315" lon="114.96735135496559"><ele>55.66666666666667</ele><time>2026-04-13T06:24:14Z</time></trkpt><trkpt lat="-29.12616207411898" lon="114.96744887150176"><ele>57.333333333333336</ele><time>2026-04-13T06:24:15Z</time></trkpt><trkpt lat="-29.126056935098372" lon="114.96757312380647"><ele>59.0</ele><time>2026-04-13T06:24:16Z</time></trkpt><trkpt lat="-29.125953261103053" lon="114.9677036558411"><ele>59.0</ele><time>2026-04-13T06:24:17Z</time></trkpt><trkpt lat="-29.12585195667875" lon="114.96781595634033"><ele>59.0</ele><time>2026-04-13T06:24:18Z</time></trkpt><trkpt lat="-29.12574898917217" lon="114.967891237747"><ele>59.0</ele><time>2026-04-13T06:24:19Z</time></trkpt><trkpt lat="-29.125636672780242" lon="114.96788192114768"><ele>59.0</ele><time>2026-04-13T06:24:20Z</time></trkpt><trkpt lat="-29.12551368077051" lon="114.96788601580066"><ele>59.0</ele><time>2026-04-13T06:24:21Z</time></trkpt><trkpt lat="-29.125371155122608" lon="114.96788677027288"><ele>59.0</ele><time>2026-04-13T06:24:22Z</time></trkpt><trkpt lat="-29.12521107724451" lon="114.96788088684775"><ele>59.0</ele><time>2026-04-13T06:24:23Z</time></trkpt><trkpt lat="-29.12504473249019" lon="114.96788185099808"><ele>59.0</ele><time>2026-04-13T06:24:24Z</time></trkpt><trkpt lat="-29.124897132021204" lon="114.96785230580434"><ele>59.0</ele><time>2026-04-13T06:24:25Z</time></trkpt><trkpt lat="-29.12475883432683" lon="114.96783606573061"><ele>59.0</ele><time>2026-04-13T06:24:26Z</time></trkpt><trkpt lat="-29.12463991638566" lon="114.96774839249055"><ele>59.0</ele><time>2026-04-13T06:24:27Z</time></trkpt><trkpt lat="-29.12453254906263" lon="114.9676272882671"><ele>58.333333333333336</ele><time>2026-04-13T06:24:28Z</time></trkpt><trkpt lat="-29.12440845420175" lon="114.96750159418396"><ele>57.66666666666667</ele><time>2026-04-13T06:24:29Z</time></trkpt><trkpt lat="-29.124266804490997" lon="114.96740173177787"><ele>57.0</ele><time>2026-04-13T06:24:30Z</time></trkpt><trkpt lat="-29.124130804450456" lon="114.9672950408343"><ele>57.66666666666667</ele><time>2026-04-13T06:24:31Z</time></trkpt><trkpt lat="-29.123976545282527" lon="114.96721273453933"><ele>58.333333333333336</ele><time>2026-04-13T06:24:32Z</time></trkpt><trkpt lat="-29.12381802088299" lon="114.96712815247277"><ele>59.0</ele><time>2026-04-13T06:24:33Z</time></trkpt><trkpt lat="-29.123574912353966" lon="114.96723150715208"><ele>59.0</ele><time>2026-04-13T06:24:34Z</time></trkpt><trkpt lat="-29.12335927142625" lon="114.96724118526019"><ele>59.0</ele><time>2026-04-13T06:24:35Z</time></trkpt><trkpt lat="-29.123133860136832" lon="114.96725227063204"><ele>59.0</ele><time>2026-04-13T06:24:36Z</time></trkpt><trkpt lat="-29.122901694091205" lon="114.96725814685975"><ele>59.0</ele><time>2026-04-13T06:24:37Z</time></trkpt><trkpt lat="-29.1226622951427" lon="114.9672551407663"><ele>59.0</ele><time>2026-04-13T06:24:38Z</time></trkpt><trkpt lat="-29.122408815742563" lon="114.96724908236062"><ele>61.0</ele><time>2026-04-13T06:24:39Z</time></trkpt><trkpt lat="-29.122157161690076" lon="114.96724818820903"><ele>63.0</ele><time>2026-04-13T06:24:40Z</time></trkpt><trkpt lat="-29.121906771347568" lon="114.96724904481512"><ele>63.0</ele><time>2026-04-13T06:24:41Z</time></trkpt><trkpt lat="-29.12164505781971" lon="114.96725360462541"><ele>63.0</ele><time>2026-04-13T06:24:42Z</time></trkpt><trkpt lat="-29.121365970400678" lon="114.96725724319927"><ele>59.0</ele><time>2026-04-13T06:24:43Z</time></trkpt><trkpt lat="-29.121100366760313" lon="114.96725605219657"><ele>55.0</ele><time>2026-04-13T06:24:44Z</time></trkpt><trkpt lat="-29.120845997632312" lon="114.96725485268402"><ele>56.5</ele><time>2026-04-13T06:24:45Z</time></trkpt><trkpt lat="-29.12060663824975" lon="114.96725677997169"><ele>58.0</ele><time>2026-04-13T06:24:46Z</time></trkpt><trkpt lat="-29.12037902145005" lon="114.96725749234693"><ele>58.0</ele><time>2026-04-13T06:24:47Z</time></trkpt><trkpt lat="-29.12015336397927" lon="114.96725880491604"><ele>58.0</ele><time>2026-04-13T06:24:48Z</time></trkpt><trkpt lat="-29.11992815699233" lon="114.96725979403344"><ele>55.0</ele><time>2026-04-13T06:24:49Z</time></trkpt><trkpt lat="-29.119698224122644" lon="114.96726190797736"><ele>52.0</ele><time>2026-04-13T06:24:50Z</time></trkpt><trkpt lat="-29.119471385786667" lon="114.96725884510604"><ele>52.0</ele><time>2026-04-13T06:24:51Z</time></trkpt><trkpt lat="-29.11925406030145" lon="114.96725662967313"><ele>52.0</ele><time>2026-04-13T06:24:52Z</time></trkpt><trkpt lat="-29.119038439189044" lon="114.9672581564426"><ele>52.0</ele><time>2026-04-13T06:24:53Z</time></trkpt><trkpt lat="-29.118815179550147" lon="114.96726025492953"><ele>52.5</ele><time>2026-04-13T06:24:54Z</time></trkpt><trkpt lat="-29.11858932587816" lon="114.96725836689359"><ele>53.0</ele><time>2026-04-13T06:24:55Z</time></trkpt><trkpt lat="-29.118364744368165" lon="114.9672549190896"><ele>52.66666666666667</ele><time>2026-04-13T06:24:56Z</time></trkpt><trkpt lat="-29.11814969422785" lon="114.96725497672868"><ele>52.33333333333333</ele><time>2026-04-13T06:24:57Z</time></trkpt><trkpt lat="-29.11794386793166" lon="114.96725438714905"><ele>52.0</ele><time>2026-04-13T06:24:58Z</time></trkpt><trkpt lat="-29.117747675011124" lon="114.96725420707376"><ele>52.0</ele><time>2026-04-13T06:24:59Z</time></trkpt><trkpt lat="-29.117558860694725" lon="114.96725244202109"><ele>52.0</ele><time>2026-04-13T06:25:00Z</time></trkpt><trkpt lat="-29.117380874428466" lon="114.9672484350678"><ele>52.0</ele><time>2026-04-13T06:25:01Z</time></trkpt><trkpt lat="-29.117214413133123" lon="114.9672477150678"><ele>51.25</ele><time>2026-04-13T06:25:02Z</time></trkpt><trkpt lat="-29.117058065583564" lon="114.96724698435419"><ele>50.5</ele><time>2026-04-13T06:25:03Z</time></trkpt><trkpt lat="-29.116918831928906" lon="114.96724377998748"><ele>49.75</ele><time>2026-04-13T06:25:04Z</time></trkpt><trkpt lat="-29.11679325058251" lon="114.96724062096328"><ele>49.0</ele><time>2026-04-13T06:25:05Z</time></trkpt><trkpt lat="-29.116684966776013" lon="114.96724142457161"><ele>48.99999999999999</ele><time>2026-04-13T06:25:06Z</time></trkpt><trkpt lat="-29.116604833954874" lon="114.96724791095565"><ele>49.0</ele><time>2026-04-13T06:25:07Z</time></trkpt><trkpt lat="-29.116530230731687" lon="114.9672661808167"><ele>49.0</ele><time>2026-04-13T06:25:08Z</time></trkpt><trkpt lat="-29.116459471499773" lon="114.96730362398932"><ele>49.0</ele><time>2026-04-13T06:25:09Z</time></trkpt><trkpt lat="-29.116408063179286" lon="114.96737302967368"><ele>48.99999999999999</ele><time>2026-04-13T06:25:10Z</time></trkpt><trkpt lat="-29.116373662836512" lon="114.96746993295375"><ele>49.0</ele><time>2026-04-13T06:25:11Z</time></trkpt><trkpt lat="-29.116367546803275" lon="114.96760446650022"><ele>49.33333333333333</ele><time>2026-04-13T06:25:12Z</time></trkpt><trkpt lat="-29.116375932797652" lon="114.96778212525743"><ele>49.66666666666667</ele><time>2026-04-13T06:25:13Z</time></trkpt><trkpt lat="-29.11639292381591" lon="114.96798410186143"><ele>50.0</ele><time>2026-04-13T06:25:14Z</time></trkpt><trkpt lat="-29.116418008221217" lon="114.96820405957826"><ele>52.66666666666667</ele><time>2026-04-13T06:25:15Z</time></trkpt><trkpt lat="-29.116444458646995" lon="114.96843681293323"><ele>55.33333333333333</ele><time>2026-04-13T06:25:16Z</time></trkpt><trkpt lat="-29.116470596725403" lon="114.96869440665175"><ele>58.0</ele><time>2026-04-13T06:25:17Z</time></trkpt><trkpt lat="-29.11649346587914" lon="114.9689601648975"><ele>61.0</ele><time>2026-04-13T06:25:18Z</time></trkpt><trkpt lat="-29.116517406868432" lon="114.96922351071116"><ele>64.0</ele><time>2026-04-13T06:25:19Z</time></trkpt><trkpt lat="-29.11654492722124" lon="114.96948646141739"><ele>64.0</ele><time>2026-04-13T06:25:20Z</time></trkpt><trkpt lat="-29.116567024767345" lon="114.96975791738879"><ele>64.0</ele><time>2026-04-13T06:25:21Z</time></trkpt><trkpt lat="-29.116590975313205" lon="114.97003636665677"><ele>66.0</ele><time>2026-04-13T06:25:22Z</time></trkpt><trkpt lat="-29.1166155094543" lon="114.97031949581933"><ele>68.0</ele><time>2026-04-13T06:25:23Z</time></trkpt><trkpt lat="-29.11663972691211" lon="114.97061668798563"><ele>68.5</ele><time>2026-04-13T06:25:24Z</time></trkpt><trkpt lat="-29.116666654787828" lon="114.9709117250791"><ele>69.0</ele><time>2026-04-13T06:25:25Z</time></trkpt><trkpt lat="-29.1166973607192" lon="114.97121403898713"><ele>69.0</ele><time>2026-04-13T06:25:26Z</time></trkpt><trkpt lat="-29.116727685099697" lon="114.9715242016076"><ele>69.0</ele><time>2026-04-13T06:25:27Z</time></trkpt><trkpt lat="-29.116758360145237" lon="114.97183691424966"><ele>70.0</ele><time>2026-04-13T06:25:28Z</time></trkpt><trkpt lat="-29.116788931912772" lon="114.97215173774833"><ele>71.0</ele><time>2026-04-13T06:25:29Z</time></trkpt><trkpt lat="-29.116820163006135" lon="114.97246783180162"><ele>70.5</ele><time>2026-04-13T06:25:30Z</time></trkpt><trkpt lat="-29.116851179055452" lon="114.97278682728512"><ele>70.0</ele><time>2026-04-13T06:25:31Z</time></trkpt><trkpt lat="-29.116880911368757" lon="114.97309327353172"><ele>68.5</ele><time>2026-04-13T06:25:32Z</time></trkpt><trkpt lat="-29.116914522211133" lon="114.97339311299473"><ele>67.0</ele><time>2026-04-13T06:25:33Z</time></trkpt><trkpt lat="-29.116950137513083" lon="114.97370791470534"><ele>67.0</ele><time>2026-04-13T06:25:34Z</time></trkpt><trkpt lat="-29.116990150679175" lon="114.9740379708831"><ele>67.0</ele><time>2026-04-13T06:25:35Z</time></trkpt><trkpt lat="-29.117027766269796" lon="114.97436738417282"><ele>63.5</ele><time>2026-04-13T06:25:36Z</time></trkpt><trkpt lat="-29.117061934546932" lon="114.97468746551073"><ele>60.0</ele><time>2026-04-13T06:25:37Z</time></trkpt><trkpt lat="-29.117091273903302" lon="114.97500880507376"><ele>58.5</ele><time>2026-04-13T06:25:38Z</time></trkpt><trkpt lat="-29.11712032519562" lon="114.9753355685944"><ele>57.0</ele><time>2026-04-13T06:25:39Z</time></trkpt><trkpt lat="-29.117150496304774" lon="114.97565649532406"><ele>54.5</ele><time>2026-04-13T06:25:40Z</time></trkpt><trkpt lat="-29.11718474756992" lon="114.97597776489495"><ele>52.0</ele><time>2026-04-13T06:25:41Z</time></trkpt><trkpt lat="-29.11722096949194" lon="114.97629859625351"><ele>52.0</ele><time>2026-04-13T06:25:42Z</time></trkpt><trkpt lat="-29.117257119386785" lon="114.9766196521786"><ele>52.0</ele><time>2026-04-13T06:25:43Z</time></trkpt><trkpt lat="-29.117292569622673" lon="114.97694245664253"><ele>52.0</ele><time>2026-04-13T06:25:44Z</time></trkpt><trkpt lat="-29.11732736306814" lon="114.97726517108555"><ele>52.0</ele><time>2026-04-13T06:25:45Z</time></trkpt><trkpt lat="-29.117362020885384" lon="114.97758678929708"><ele>52.0</ele><time>2026-04-13T06:25:46Z</time></trkpt><trkpt lat="-29.117395929047586" lon="114.97790779079727"><ele>52.0</ele><time>2026-04-13T06:25:47Z</time></trkpt><trkpt lat="-29.11742684862145" lon="114.97822895633671"><ele>52.0</ele><time>2026-04-13T06:25:48Z</time></trkpt><trkpt lat="-29.117453764436" lon="114.97855190534048"><ele>52.0</ele><time>2026-04-13T06:25:49Z</time></trkpt><trkpt lat="-29.11748066542013" lon="114.97887915182964"><ele>52.0</ele><time>2026-04-13T06:25:50Z</time></trkpt><trkpt lat="-29.11750649680292" lon="114.97920771661713"><ele>52.0</ele><time>2026-04-13T06:25:51Z</time></trkpt><trkpt lat="-29.117531194749223" lon="114.97953541817192"><ele>52.0</ele><time>2026-04-13T06:25:52Z</time></trkpt><trkpt lat="-29.117555212691443" lon="114.97986741437015"><ele>52.0</ele><time>2026-04-13T06:25:53Z</time></trkpt><trkpt lat="-29.11757756622218" lon="114.98019877229757"><ele>53.0</ele><time>2026-04-13T06:25:54Z</time></trkpt><trkpt lat="-29.117590581296508" lon="114.98053081311988"><ele>54.0</ele><time>2026-04-13T06:25:55Z</time></trkpt><trkpt lat="-29.11759362413829" lon="114.98086761391697"><ele>55.5</ele><time>2026-04-13T06:25:56Z</time></trkpt><trkpt lat="-29.117593462406113" lon="114.98120625596489"><ele>57.0</ele><time>2026-04-13T06:25:57Z</time></trkpt><trkpt lat="-29.117591034802956" lon="114.98154669349563"><ele>56.0</ele><time>2026-04-13T06:25:58Z</time></trkpt><trkpt lat="-29.11758662405658" lon="114.9818861115162"><ele>55.0</ele><time>2026-04-13T06:25:59Z</time></trkpt><trkpt lat="-29.11758449243505" lon="114.98222608982782"><ele>55.5</ele><time>2026-04-13T06:26:00Z</time></trkpt><trkpt lat="-29.117582191584948" lon="114.98256519806132"><ele>56.0</ele><time>2026-04-13T06:26:01Z</time></trkpt><trkpt lat="-29.1175826723364" lon="114.9829040873205"><ele>56.0</ele><time>2026-04-13T06:26:02Z</time></trkpt><trkpt lat="-29.117584572540512" lon="114.98324393948062"><ele>56.0</ele><time>2026-04-13T06:26:03Z</time></trkpt><trkpt lat="-29.117583615237777" lon="114.9835858737045"><ele>57.0</ele><time>2026-04-13T06:26:04Z</time></trkpt><trkpt lat="-29.117579757502412" lon="114.98392812509209"><ele>58.0</ele><time>2026-04-13T06:26:05Z</time></trkpt><trkpt lat="-29.117576483573878" lon="114.98427256099308"><ele>58.0</ele><time>2026-04-13T06:26:06Z</time></trkpt><trkpt lat="-29.117571055337667" lon="114.98461973177636"><ele>58.0</ele><time>2026-04-13T06:26:07Z</time></trkpt><trkpt lat="-29.117567830251044" lon="114.98495981243026"><ele>59.0</ele><time>2026-04-13T06:26:08Z</time></trkpt><trkpt lat="-29.117583557281538" lon="114.98530157807545"><ele>60.0</ele><time>2026-04-13T06:26:09Z</time></trkpt><trkpt lat="-29.117569755164972" lon="114.98564835751716"><ele>57.5</ele><time>2026-04-13T06:26:10Z</time></trkpt><trkpt lat="-29.117573715966437" lon="114.98599212596086"><ele>55.0</ele><time>2026-04-13T06:26:11Z</time></trkpt><trkpt lat="-29.117576432614616" lon="114.98633471300245"><ele>56.0</ele><time>2026-04-13T06:26:12Z</time></trkpt><trkpt lat="-29.11757407536375" lon="114.98668172076509"><ele>57.0</ele><time>2026-04-13T06:26:13Z</time></trkpt><trkpt lat="-29.117572611082828" lon="114.98703071458861"><ele>57.0</ele><time>2026-04-13T06:26:14Z</time></trkpt><trkpt lat="-29.11757317425495" lon="114.98738182100067"><ele>57.0</ele><time>2026-04-13T06:26:15Z</time></trkpt><trkpt lat="-29.11757594499846" lon="114.98773339842406"><ele>57.0</ele><time>2026-04-13T06:26:16Z</time></trkpt><trkpt lat="-29.117575261625298" lon="114.98808568620343"><ele>57.0</ele><time>2026-04-13T06:26:17Z</time></trkpt><trkpt lat="-29.117569696538844" lon="114.98843859111976"><ele>57.0</ele><time>2026-04-13T06:26:18Z</time></trkpt><trkpt lat="-29.117565028428622" lon="114.9887932728426"><ele>57.0</ele><time>2026-04-13T06:26:19Z</time></trkpt><trkpt lat="-29.11756476790956" lon="114.98914362298694"><ele>57.5</ele><time>2026-04-13T06:26:20Z</time></trkpt><trkpt lat="-29.11756683723105" lon="114.98949946547991"><ele>58.0</ele><time>2026-04-13T06:26:21Z</time></trkpt><trkpt lat="-29.11756981996206" lon="114.98984239726317"><ele>59.5</ele><time>2026-04-13T06:26:22Z</time></trkpt><trkpt lat="-29.117572287761206" lon="114.99019465826849"><ele>61.0</ele><time>2026-04-13T06:26:23Z</time></trkpt><trkpt lat="-29.117570401999394" lon="114.99054328815498"><ele>59.5</ele><time>2026-04-13T06:26:24Z</time></trkpt><trkpt lat="-29.11756391164118" lon="114.99089389077906"><ele>58.0</ele><time>2026-04-13T06:26:25Z</time></trkpt><trkpt lat="-29.11756099664108" lon="114.99123991572829"><ele>58.0</ele><time>2026-04-13T06:26:26Z</time></trkpt><trkpt lat="-29.117559215651728" lon="114.99157819967347"><ele>58.0</ele><time>2026-04-13T06:26:27Z</time></trkpt><trkpt lat="-29.117563093716566" lon="114.99188866076561"><ele>59.5</ele><time>2026-04-13T06:26:28Z</time></trkpt><trkpt lat="-29.117565698423007" lon="114.99217722902449"><ele>61.0</ele><time>2026-04-13T06:26:29Z</time></trkpt><trkpt lat="-29.117569353233396" lon="114.99246709090748"><ele>61.0</ele><time>2026-04-13T06:26:30Z</time></trkpt><trkpt lat="-29.117570513957304" lon="114.992760805677"><ele>61.0</ele><time>2026-04-13T06:26:31Z</time></trkpt><trkpt lat="-29.117568719068952" lon="114.99305473394553"><ele>61.0</ele><time>2026-04-13T06:26:32Z</time></trkpt><trkpt lat="-29.11756867403287" lon="114.99335412752299"><ele>61.0</ele><time>2026-04-13T06:26:33Z</time></trkpt><trkpt lat="-29.117569173861536" lon="114.99365993908431"><ele>61.0</ele><time>2026-04-13T06:26:34Z</time></trkpt><trkpt lat="-29.11756719434318" lon="114.99397388254478"><ele>61.0</ele><time>2026-04-13T06:26:35Z</time></trkpt><trkpt lat="-29.117567650301876" lon="114.99429029429929"><ele>60.5</ele><time>2026-04-13T06:26:36Z</time></trkpt><trkpt lat="-29.11756916229429" lon="114.99460964792888"><ele>60.0</ele><time>2026-04-13T06:26:37Z</time></trkpt><trkpt lat="-29.11757095043911" lon="114.9949359770426"><ele>60.5</ele><time>2026-04-13T06:26:38Z</time></trkpt><trkpt lat="-29.117571419776862" lon="114.99526714627056"><ele>61.0</ele><time>2026-04-13T06:26:39Z</time></trkpt><trkpt lat="-29.117570311927214" lon="114.99560710436126"><ele>60.0</ele><time>2026-04-13T06:26:40Z</time></trkpt><trkpt lat="-29.117566457870428" lon="114.9959511295959"><ele>59.0</ele><time>2026-04-13T06:26:41Z</time></trkpt><trkpt lat="-29.11756337962872" lon="114.99629692677637"><ele>59.0</ele><time>2026-04-13T06:26:42Z</time></trkpt><trkpt lat="-29.1175630901366" lon="114.99664073822103"><ele>59.0</ele><time>2026-04-13T06:26:43Z</time></trkpt><trkpt lat="-29.117563001465392" lon="114.99698180984169"><ele>59.0</ele><time>2026-04-13T06:26:44Z</time></trkpt><trkpt lat="-29.11756115660187" lon="114.99732439176185"><ele>59.0</ele><time>2026-04-13T06:26:45Z</time></trkpt><trkpt lat="-29.117559334026687" lon="114.99766815100061"><ele>60.0</ele><time>2026-04-13T06:26:46Z</time></trkpt><trkpt lat="-29.11755746483878" lon="114.99801094791118"><ele>61.0</ele><time>2026-04-13T06:26:47Z</time></trkpt><trkpt lat="-29.11755837180271" lon="114.99834920006066"><ele>62.5</ele><time>2026-04-13T06:26:48Z</time></trkpt><trkpt lat="-29.11756193051502" lon="114.99868381659012"><ele>64.0</ele><time>2026-04-13T06:26:49Z</time></trkpt><trkpt lat="-29.117563484303943" lon="114.9990168350704"><ele>64.0</ele><time>2026-04-13T06:26:50Z</time></trkpt><trkpt lat="-29.117562892587532" lon="114.99934679907714"><ele>64.0</ele><time>2026-04-13T06:26:51Z</time></trkpt><trkpt lat="-29.117561534456524" lon="114.9996783774027"><ele>64.0</ele><time>2026-04-13T06:26:52Z</time></trkpt><trkpt lat="-29.117560557327298" lon="115.00000945931689"><ele>64.0</ele><time>2026-04-13T06:26:53Z</time></trkpt><trkpt lat="-29.117559484092787" lon="115.00034278141923"><ele>64.0</ele><time>2026-04-13T06:26:54Z</time></trkpt><trkpt lat="-29.117559494746203" lon="115.00067638469287"><ele>64.0</ele><time>2026-04-13T06:26:55Z</time></trkpt><trkpt lat="-29.117558311215916" lon="115.00100797089966"><ele>64.5</ele><time>2026-04-13T06:26:56Z</time></trkpt><trkpt lat="-29.117554977827776" lon="115.0013429906248"><ele>65.0</ele><time>2026-04-13T06:26:57Z</time></trkpt><trkpt lat="-29.117551788679258" lon="115.00167397532668"><ele>64.0</ele><time>2026-04-13T06:26:58Z</time></trkpt><trkpt lat="-29.117551681528965" lon="115.00200733613411"><ele>63.0</ele><time>2026-04-13T06:26:59Z</time></trkpt><trkpt lat="-29.117555437783338" lon="115.00234448959732"><ele>62.0</ele><time>2026-04-13T06:27:00Z</time></trkpt><trkpt lat="-29.117555573179086" lon="115.0026785740231"><ele>61.0</ele><time>2026-04-13T06:27:01Z</time></trkpt><trkpt lat="-29.117551639979496" lon="115.00301609789642"><ele>62.0</ele><time>2026-04-13T06:27:02Z</time></trkpt><trkpt lat="-29.1175462508419" lon="115.00335652731572"><ele>63.0</ele><time>2026-04-13T06:27:03Z</time></trkpt><trkpt lat="-29.11754435461817" lon="115.00370009895438"><ele>63.0</ele><time>2026-04-13T06:27:04Z</time></trkpt><trkpt lat="-29.117545030524827" lon="115.00404633862777"><ele>63.0</ele><time>2026-04-13T06:27:05Z</time></trkpt><trkpt lat="-29.117546181219375" lon="115.00439755226994"><ele>62.0</ele><time>2026-04-13T06:27:06Z</time></trkpt><trkpt lat="-29.117546783059876" lon="115.00474787321166"><ele>61.0</ele><time>2026-04-13T06:27:07Z</time></trkpt><trkpt lat="-29.117545696798054" lon="115.005101936077"><ele>61.0</ele><time>2026-04-13T06:27:08Z</time></trkpt><trkpt lat="-29.117546904078647" lon="115.00544652974655"><ele>61.0</ele><time>2026-04-13T06:27:09Z</time></trkpt><trkpt lat="-29.117545392210612" lon="115.00578923488527"><ele>61.5</ele><time>2026-04-13T06:27:10Z</time></trkpt><trkpt lat="-29.117545763759395" lon="115.00613321110725"><ele>62.0</ele><time>2026-04-13T06:27:11Z</time></trkpt><trkpt lat="-29.117547780174725" lon="115.00647518038005"><ele>63.0</ele><time>2026-04-13T06:27:12Z</time></trkpt><trkpt lat="-29.11754906017057" lon="115.00681148924855"><ele>64.0</ele><time>2026-04-13T06:27:13Z</time></trkpt><trkpt lat="-29.117550339836722" lon="115.00715267975605"><ele>64.0</ele><time>2026-04-13T06:27:14Z</time></trkpt><trkpt lat="-29.117548853544413" lon="115.00749409648905"><ele>64.0</ele><time>2026-04-13T06:27:15Z</time></trkpt><trkpt lat="-29.117548032457066" lon="115.0078341826572"><ele>64.0</ele><time>2026-04-13T06:27:16Z</time></trkpt><trkpt lat="-29.117548708983826" lon="115.00817468401205"><ele>64.0</ele><time>2026-04-13T06:27:17Z</time></trkpt><trkpt lat="-29.117550133860625" lon="115.00851159754102"><ele>64.0</ele><time>2026-04-13T06:27:18Z</time></trkpt><trkpt lat="-29.117551879196938" lon="115.00884779753075"><ele>64.0</ele><time>2026-04-13T06:27:19Z</time></trkpt><trkpt lat="-29.117554322338226" lon="115.0091830481041"><ele>62.5</ele><time>2026-04-13T06:27:20Z</time></trkpt><trkpt lat="-29.117553350738678" lon="115.00951815897025"><ele>61.0</ele><time>2026-04-13T06:27:21Z</time></trkpt><trkpt lat="-29.11754972876854" lon="115.00985739679398"><ele>61.5</ele><time>2026-04-13T06:27:22Z</time></trkpt><trkpt lat="-29.11754678177281" lon="115.01020230942632"><ele>62.0</ele><time>2026-04-13T06:27:23Z</time></trkpt><trkpt lat="-29.117544459807718" lon="115.01055278394115"><ele>63.5</ele><time>2026-04-13T06:27:24Z</time></trkpt><trkpt lat="-29.117542018299904" lon="115.01089783048313"><ele>65.0</ele><time>2026-04-13T06:27:25Z</time></trkpt><trkpt lat="-29.11753868070906" lon="115.01124596224803"><ele>65.0</ele><time>2026-04-13T06:27:26Z</time></trkpt><trkpt lat="-29.117535242784193" lon="115.01158961462394"><ele>65.0</ele><time>2026-04-13T06:27:27Z</time></trkpt><trkpt lat="-29.11753300055802" lon="115.0119367103083"><ele>65.5</ele><time>2026-04-13T06:27:28Z</time></trkpt><trkpt lat="-29.11753196521345" lon="115.01228407163588"><ele>66.0</ele><time>2026-04-13T06:27:29Z</time></trkpt><trkpt lat="-29.117531378839384" lon="115.01263019002427"><ele>67.0</ele><time>2026-04-13T06:27:30Z</time></trkpt><trkpt lat="-29.11752994988564" lon="115.01297923948077"><ele>68.0</ele><time>2026-04-13T06:27:31Z</time></trkpt><trkpt lat="-29.11752801054275" lon="115.01332371262198"><ele>68.0</ele><time>2026-04-13T06:27:32Z</time></trkpt><trkpt lat="-29.117526968393722" lon="115.0136727678551"><ele>68.0</ele><time>2026-04-13T06:27:33Z</time></trkpt><trkpt lat="-29.117527312565034" lon="115.01401651165801"><ele>67.5</ele><time>2026-04-13T06:27:34Z</time></trkpt><trkpt lat="-29.117526869421948" lon="115.01436422558344"><ele>67.0</ele><time>2026-04-13T06:27:35Z</time></trkpt><trkpt lat="-29.117526337939047" lon="115.01471692561456"><ele>68.0</ele><time>2026-04-13T06:27:36Z</time></trkpt><trkpt lat="-29.117525431781754" lon="115.01506529874433"><ele>69.0</ele><time>2026-04-13T06:27:37Z</time></trkpt><trkpt lat="-29.117521356835603" lon="115.01541697018834"><ele>69.0</ele><time>2026-04-13T06:27:38Z</time></trkpt><trkpt lat="-29.117515199573212" lon="115.01576262179171"><ele>69.0</ele><time>2026-04-13T06:27:39Z</time></trkpt><trkpt lat="-29.117510745600814" lon="115.01611584786583"><ele>68.0</ele><time>2026-04-13T06:27:40Z</time></trkpt><trkpt lat="-29.11751269117398" lon="115.01645723009894"><ele>67.0</ele><time>2026-04-13T06:27:41Z</time></trkpt><trkpt lat="-29.117515953775925" lon="115.01680552928087"><ele>69.5</ele><time>2026-04-13T06:27:42Z</time></trkpt><trkpt lat="-29.117518796767428" lon="115.0171481549658"><ele>72.0</ele><time>2026-04-13T06:27:43Z</time></trkpt><trkpt lat="-29.117519869774128" lon="115.01748739897158"><ele>73.0</ele><time>2026-04-13T06:27:44Z</time></trkpt><trkpt lat="-29.117520278191755" lon="115.0178338774499"><ele>74.0</ele><time>2026-04-13T06:27:45Z</time></trkpt><trkpt lat="-29.117515955200883" lon="115.01818378854422"><ele>75.5</ele><time>2026-04-13T06:27:46Z</time></trkpt><trkpt lat="-29.117510941804635" lon="115.01852801500897"><ele>77.0</ele><time>2026-04-13T06:27:47Z</time></trkpt><trkpt lat="-29.11750944080461" lon="115.01887533098483"><ele>77.5</ele><time>2026-04-13T06:27:48Z</time></trkpt><trkpt lat="-29.11751220375032" lon="115.01921260244958"><ele>78.0</ele><time>2026-04-13T06:27:49Z</time></trkpt><trkpt lat="-29.117513119214973" lon="115.01955408463982"><ele>78.0</ele><time>2026-04-13T06:27:50Z</time></trkpt><trkpt lat="-29.117508698875724" lon="115.0198974821513"><ele>78.0</ele><time>2026-04-13T06:27:51Z</time></trkpt><trkpt lat="-29.11750635663921" lon="115.02024090129167"><ele>79.0</ele><time>2026-04-13T06:27:52Z</time></trkpt><trkpt lat="-29.11750578173076" lon="115.02058241575588"><ele>80.0</ele><time>2026-04-13T06:27:53Z</time></trkpt><trkpt lat="-29.117507461786346" lon="115.02091920869937"><ele>82.5</ele><time>2026-04-13T06:27:54Z</time></trkpt><trkpt lat="-29.11750818392762" lon="115.02125824989179"><ele>85.0</ele><time>2026-04-13T06:27:55Z</time></trkpt><trkpt lat="-29.117509580504375" lon="115.0215938834876"><ele>84.5</ele><time>2026-04-13T06:27:56Z</time></trkpt><trkpt lat="-29.117509811677593" lon="115.02193217462161"><ele>84.0</ele><time>2026-04-13T06:27:57Z</time></trkpt><trkpt lat="-29.117510780709882" lon="115.02227399494913"><ele>83.5</ele><time>2026-04-13T06:27:58Z</time></trkpt><trkpt lat="-29.117509266856622" lon="115.02261001564158"><ele>83.0</ele><time>2026-04-13T06:27:59Z</time></trkpt><trkpt lat="-29.117506150046438" lon="115.02294495407222"><ele>83.0</ele><time>2026-04-13T06:28:00Z</time></trkpt><trkpt lat="-29.117499904095578" lon="115.02327637535998"><ele>83.0</ele><time>2026-04-13T06:28:01Z</time></trkpt><trkpt lat="-29.11750094029286" lon="115.02360872830286"><ele>85.0</ele><time>2026-04-13T06:28:02Z</time></trkpt><trkpt lat="-29.117503355245365" lon="115.02394242486623"><ele>87.0</ele><time>2026-04-13T06:28:03Z</time></trkpt><trkpt lat="-29.11750345713806" lon="115.02427746001867"><ele>87.5</ele><time>2026-04-13T06:28:04Z</time></trkpt><trkpt lat="-29.11750092484715" lon="115.02461021935935"><ele>88.0</ele><time>2026-04-13T06:28:05Z</time></trkpt><trkpt lat="-29.11750062644103" lon="115.02494144098276"><ele>87.5</ele><time>2026-04-13T06:28:06Z</time></trkpt><trkpt lat="-29.117499280753723" lon="115.02527585387416"><ele>87.0</ele><time>2026-04-13T06:28:07Z</time></trkpt><trkpt lat="-29.117499527800884" lon="115.02561268426415"><ele>87.5</ele><time>2026-04-13T06:28:08Z</time></trkpt><trkpt lat="-29.117502305824484" lon="115.0259457170107"><ele>88.0</ele><time>2026-04-13T06:28:09Z</time></trkpt><trkpt lat="-29.11750606742246" lon="115.02627618027732"><ele>88.0</ele><time>2026-04-13T06:28:10Z</time></trkpt><trkpt lat="-29.11750958581028" lon="115.02660939594043"><ele>88.0</ele><time>2026-04-13T06:28:11Z</time></trkpt><trkpt lat="-29.117510329399366" lon="115.0269467159478"><ele>88.0</ele><time>2026-04-13T06:28:12Z</time></trkpt><trkpt lat="-29.117510212278326" lon="115.02727802806808"><ele>88.0</ele><time>2026-04-13T06:28:13Z</time></trkpt><trkpt lat="-29.117508929457237" lon="115.02760498351607"><ele>87.0</ele><time>2026-04-13T06:28:14Z</time></trkpt><trkpt lat="-29.1175079022398" lon="115.02793201828639"><ele>86.0</ele><time>2026-04-13T06:28:15Z</time></trkpt><trkpt lat="-29.117504690647067" lon="115.02826244056811"><ele>85.0</ele><time>2026-04-13T06:28:16Z</time></trkpt><trkpt lat="-29.117502008657414" lon="115.02859154184728"><ele>84.0</ele><time>2026-04-13T06:28:17Z</time></trkpt><trkpt lat="-29.11749763959603" lon="115.0289166361517"><ele>84.5</ele><time>2026-04-13T06:28:18Z</time></trkpt><trkpt lat="-29.117497351478125" lon="115.02923400605452"><ele>85.0</ele><time>2026-04-13T06:28:19Z</time></trkpt><trkpt lat="-29.117499012869935" lon="115.02955333317067"><ele>85.0</ele><time>2026-04-13T06:28:20Z</time></trkpt><trkpt lat="-29.117499127828246" lon="115.02987702392542"><ele>85.0</ele><time>2026-04-13T06:28:21Z</time></trkpt><trkpt lat="-29.117495128482407" lon="115.03020347937769"><ele>84.5</ele><time>2026-04-13T06:28:22Z</time></trkpt><trkpt lat="-29.11749231395178" lon="115.03053026179637"><ele>84.0</ele><time>2026-04-13T06:28:23Z</time></trkpt><trkpt lat="-29.117492646060782" lon="115.03086032772656"><ele>83.5</ele><time>2026-04-13T06:28:24Z</time></trkpt><trkpt lat="-29.11749153774856" lon="115.0311967374524"><ele>83.0</ele><time>2026-04-13T06:28:25Z</time></trkpt><trkpt lat="-29.117489966847966" lon="115.0315302231408"><ele>81.5</ele><time>2026-04-13T06:28:26Z</time></trkpt><trkpt lat="-29.117489970472334" lon="115.03186473954464"><ele>80.0</ele><time>2026-04-13T06:28:27Z</time></trkpt><trkpt lat="-29.117488639681017" lon="115.0321973745007"><ele>81.0</ele><time>2026-04-13T06:28:28Z</time></trkpt><trkpt lat="-29.11748655884404" lon="115.0325320462057"><ele>82.0</ele><time>2026-04-13T06:28:29Z</time></trkpt><trkpt lat="-29.117482557359498" lon="115.03286358862792"><ele>82.0</ele><time>2026-04-13T06:28:30Z</time></trkpt><trkpt lat="-29.117479788074387" lon="115.03319651841974"><ele>82.0</ele><time>2026-04-13T06:28:31Z</time></trkpt><trkpt lat="-29.117478884761006" lon="115.0335206927794"><ele>84.0</ele><time>2026-04-13T06:28:32Z</time></trkpt><trkpt lat="-29.11747988801379" lon="115.0338221527654"><ele>86.0</ele><time>2026-04-13T06:28:33Z</time></trkpt><trkpt lat="-29.11748090156772" lon="115.03411840288719"><ele>86.0</ele><time>2026-04-13T06:28:34Z</time></trkpt><trkpt lat="-29.11748047122215" lon="115.03442058959129"><ele>86.0</ele><time>2026-04-13T06:28:35Z</time></trkpt><trkpt lat="-29.117479344124675" lon="115.03472507560133"><ele>86.5</ele><time>2026-04-13T06:28:36Z</time></trkpt><trkpt lat="-29.117477103104097" lon="115.03503126023953"><ele>87.0</ele><time>2026-04-13T06:28:37Z</time></trkpt><trkpt lat="-29.117473276971904" lon="115.03533786566786"><ele>87.0</ele><time>2026-04-13T06:28:38Z</time></trkpt><trkpt lat="-29.117471588731018" lon="115.03564960973833"><ele>87.0</ele><time>2026-04-13T06:28:39Z</time></trkpt><trkpt lat="-29.11747016441404" lon="115.03596191090611"><ele>88.5</ele><time>2026-04-13T06:28:40Z</time></trkpt><trkpt lat="-29.1174689250189" lon="115.03627792079524"><ele>90.0</ele><time>2026-04-13T06:28:41Z</time></trkpt><trkpt lat="-29.117471554956246" lon="115.03659104201742"><ele>91.0</ele><time>2026-04-13T06:28:42Z</time></trkpt><trkpt lat="-29.11747590869466" lon="115.03690601263173"><ele>92.0</ele><time>2026-04-13T06:28:43Z</time></trkpt><trkpt lat="-29.11747606624828" lon="115.0372188763861"><ele>93.0</ele><time>2026-04-13T06:28:44Z</time></trkpt><trkpt lat="-29.11747288732412" lon="115.0375377287576"><ele>94.0</ele><time>2026-04-13T06:28:45Z</time></trkpt><trkpt lat="-29.117468159892955" lon="115.03785850594936"><ele>94.0</ele><time>2026-04-13T06:28:46Z</time></trkpt><trkpt lat="-29.11746607705503" lon="115.03818286020412"><ele>94.0</ele><time>2026-04-13T06:28:47Z</time></trkpt><trkpt lat="-29.11746536346438" lon="115.0385079209728"><ele>93.5</ele><time>2026-04-13T06:28:48Z</time></trkpt><trkpt lat="-29.11746753893078" lon="115.03883546010998"><ele>93.0</ele><time>2026-04-13T06:28:49Z</time></trkpt><trkpt lat="-29.117470544950226" lon="115.03916365895994"><ele>92.5</ele><time>2026-04-13T06:28:50Z</time></trkpt><trkpt lat="-29.117471010769545" lon="115.03949317623876"><ele>92.0</ele><time>2026-04-13T06:28:51Z</time></trkpt><trkpt lat="-29.11747020471822" lon="115.03982802180059"><ele>93.0</ele><time>2026-04-13T06:28:52Z</time></trkpt><trkpt lat="-29.117469058682055" lon="115.04016368847849"><ele>94.0</ele><time>2026-04-13T06:28:53Z</time></trkpt><trkpt lat="-29.1174697008506" lon="115.0404951711824"><ele>94.5</ele><time>2026-04-13T06:28:54Z</time></trkpt><trkpt lat="-29.117467081043323" lon="115.0408298850882"><ele>95.0</ele><time>2026-04-13T06:28:55Z</time></trkpt><trkpt lat="-29.117464196281087" lon="115.04115979655656"><ele>95.0</ele><time>2026-04-13T06:28:56Z</time></trkpt><trkpt lat="-29.117458169059752" lon="115.04148945608158"><ele>95.0</ele><time>2026-04-13T06:28:57Z</time></trkpt><trkpt lat="-29.11745614105582" lon="115.04182013696767"><ele>95.5</ele><time>2026-04-13T06:28:58Z</time></trkpt><trkpt lat="-29.117453248759567" lon="115.04215182799622"><ele>96.0</ele><time>2026-04-13T06:28:59Z</time></trkpt><trkpt lat="-29.117451185202412" lon="115.04248442601639"><ele>97.0</ele><time>2026-04-13T06:29:00Z</time></trkpt><trkpt lat="-29.11745212136069" lon="115.04281918914306"><ele>98.0</ele><time>2026-04-13T06:29:01Z</time></trkpt><trkpt lat="-29.117457090661347" lon="115.04315435097291"><ele>96.5</ele><time>2026-04-13T06:29:02Z</time></trkpt><trkpt lat="-29.117460836269586" lon="115.043489913318"><ele>95.0</ele><time>2026-04-13T06:29:03Z</time></trkpt><trkpt lat="-29.11745791622868" lon="115.04382474407049"><ele>98.0</ele><time>2026-04-13T06:29:04Z</time></trkpt><trkpt lat="-29.117454908503" lon="115.04416245349437"><ele>101.0</ele><time>2026-04-13T06:29:05Z</time></trkpt><trkpt lat="-29.117453388558175" lon="115.04449770742085"><ele>101.0</ele><time>2026-04-13T06:29:06Z</time></trkpt><trkpt lat="-29.117452394899733" lon="115.0448318273651"><ele>101.0</ele><time>2026-04-13T06:29:07Z</time></trkpt><trkpt lat="-29.11745305296319" lon="115.04516740662264"><ele>101.5</ele><time>2026-04-13T06:29:08Z</time></trkpt><trkpt lat="-29.11745289509072" lon="115.04550640154972"><ele>102.0</ele><time>2026-04-13T06:29:09Z</time></trkpt><trkpt lat="-29.117449149876638" lon="115.04584983010089"><ele>102.5</ele><time>2026-04-13T06:29:10Z</time></trkpt><trkpt lat="-29.11744740192107" lon="115.04619728805429"><ele>103.0</ele><time>2026-04-13T06:29:11Z</time></trkpt><trkpt lat="-29.117447266544836" lon="115.04654653116802"><ele>102.5</ele><time>2026-04-13T06:29:12Z</time></trkpt><trkpt lat="-29.117447684479874" lon="115.04689680310976"><ele>102.0</ele><time>2026-04-13T06:29:13Z</time></trkpt><trkpt lat="-29.117445724976136" lon="115.04724800120343"><ele>102.5</ele><time>2026-04-13T06:29:14Z</time></trkpt><trkpt lat="-29.117441493900664" lon="115.04759552358321"><ele>103.0</ele><time>2026-04-13T06:29:15Z</time></trkpt><trkpt lat="-29.117435710718773" lon="115.04794469708713"><ele>104.5</ele><time>2026-04-13T06:29:16Z</time></trkpt><trkpt lat="-29.117434891203466" lon="115.04829394743898"><ele>106.0</ele><time>2026-04-13T06:29:17Z</time></trkpt><trkpt lat="-29.117437485041478" lon="115.04864486461766"><ele>106.0</ele><time>2026-04-13T06:29:18Z</time></trkpt><trkpt lat="-29.117441159687825" lon="115.04899368455978"><ele>106.0</ele><time>2026-04-13T06:29:19Z</time></trkpt><trkpt lat="-29.1174442178096" lon="115.04934462364726"><ele>106.0</ele><time>2026-04-13T06:29:20Z</time></trkpt><trkpt lat="-29.117444247445537" lon="115.04969844549996"><ele>106.0</ele><time>2026-04-13T06:29:21Z</time></trkpt><trkpt lat="-29.11744404045738" lon="115.05005210066466"><ele>107.0</ele><time>2026-04-13T06:29:22Z</time></trkpt><trkpt lat="-29.117445344272234" lon="115.05040749693795"><ele>108.0</ele><time>2026-04-13T06:29:23Z</time></trkpt><trkpt lat="-29.11744700742701" lon="115.05076884149959"><ele>109.0</ele><time>2026-04-13T06:29:24Z</time></trkpt><trkpt lat="-29.1174473488066" lon="115.05112996149882"><ele>110.0</ele><time>2026-04-13T06:29:25Z</time></trkpt><trkpt lat="-29.117445065273913" lon="115.05149041653911"><ele>111.0</ele><time>2026-04-13T06:29:26Z</time></trkpt><trkpt lat="-29.117441206857684" lon="115.05185856906763"><ele>112.0</ele><time>2026-04-13T06:29:27Z</time></trkpt><trkpt lat="-29.11744185054245" lon="115.05222430982953"><ele>115.0</ele><time>2026-04-13T06:29:28Z</time></trkpt><trkpt lat="-29.11744805669622" lon="115.05258647959161"><ele>118.0</ele><time>2026-04-13T06:29:29Z</time></trkpt><trkpt lat="-29.117450565311746" lon="115.05295093100047"><ele>117.0</ele><time>2026-04-13T06:29:30Z</time></trkpt><trkpt lat="-29.117451167043296" lon="115.0533163645168"><ele>116.0</ele><time>2026-04-13T06:29:31Z</time></trkpt><trkpt lat="-29.11744812653122" lon="115.05368123580917"><ele>116.0</ele><time>2026-04-13T06:29:32Z</time></trkpt><trkpt lat="-29.117445999062753" lon="115.05404523375189"><ele>116.0</ele><time>2026-04-13T06:29:33Z</time></trkpt><trkpt lat="-29.117443834742065" lon="115.0544115818506"><ele>116.5</ele><time>2026-04-13T06:29:34Z</time></trkpt><trkpt lat="-29.11744294665531" lon="115.05477698608475"><ele>117.0</ele><time>2026-04-13T06:29:35Z</time></trkpt><trkpt lat="-29.117444881579253" lon="115.05513383987015"><ele>117.5</ele><time>2026-04-13T06:29:36Z</time></trkpt><trkpt lat="-29.11744731795179" lon="115.05548482401599"><ele>118.0</ele><time>2026-04-13T06:29:37Z</time></trkpt><trkpt lat="-29.11744918467905" lon="115.05583376784476"><ele>118.5</ele><time>2026-04-13T06:29:38Z</time></trkpt><trkpt lat="-29.11744815918152" lon="115.05618535937538"><ele>119.0</ele><time>2026-04-13T06:29:39Z</time></trkpt><trkpt lat="-29.117444524702247" lon="115.05653624910543"><ele>120.0</ele><time>2026-04-13T06:29:40Z</time></trkpt><trkpt lat="-29.117443326752472" lon="115.05688733208227"><ele>121.0</ele><time>2026-04-13T06:29:41Z</time></trkpt><trkpt lat="-29.117443388867496" lon="115.0572291676674"><ele>123.0</ele><time>2026-04-13T06:29:42Z</time></trkpt><trkpt lat="-29.117443075634664" lon="115.05756781934116"><ele>125.0</ele><time>2026-04-13T06:29:43Z</time></trkpt><trkpt lat="-29.11744274741712" lon="115.05790408760049"><ele>125.0</ele><time>2026-04-13T06:29:44Z</time></trkpt><trkpt lat="-29.11744300217558" lon="115.05822159562526"><ele>125.0</ele><time>2026-04-13T06:29:45Z</time></trkpt><trkpt lat="-29.117443282141096" lon="115.05852211182285"><ele>125.5</ele><time>2026-04-13T06:29:46Z</time></trkpt><trkpt lat="-29.11744202528113" lon="115.05882886478273"><ele>126.0</ele><time>2026-04-13T06:29:47Z</time></trkpt><trkpt lat="-29.117443292023104" lon="115.05914106889917"><ele>126.5</ele><time>2026-04-13T06:29:48Z</time></trkpt><trkpt lat="-29.117444333325675" lon="115.05945921737015"><ele>127.0</ele><time>2026-04-13T06:29:49Z</time></trkpt><trkpt lat="-29.11744129204318" lon="115.05978482459982"><ele>127.5</ele><time>2026-04-13T06:29:50Z</time></trkpt><trkpt lat="-29.117436478645125" lon="115.06011215314126"><ele>128.0</ele><time>2026-04-13T06:29:51Z</time></trkpt><trkpt lat="-29.117433232110315" lon="115.0604330524648"><ele>128.0</ele><time>2026-04-13T06:29:52Z</time></trkpt><trkpt lat="-29.11743554254028" lon="115.06075474869112"><ele>128.0</ele><time>2026-04-13T06:29:53Z</time></trkpt><trkpt lat="-29.11743594586436" lon="115.06108057227387"><ele>129.0</ele><time>2026-04-13T06:29:54Z</time></trkpt><trkpt lat="-29.11743659758576" lon="115.06140065701307"><ele>130.0</ele><time>2026-04-13T06:29:55Z</time></trkpt><trkpt lat="-29.117437566946855" lon="115.06171444640543"><ele>132.0</ele><time>2026-04-13T06:29:56Z</time></trkpt><trkpt lat="-29.117436350005363" lon="115.062026922686"><ele>134.0</ele><time>2026-04-13T06:29:57Z</time></trkpt><trkpt lat="-29.117437668138532" lon="115.06233905547379"><ele>135.5</ele><time>2026-04-13T06:29:58Z</time></trkpt><trkpt lat="-29.117439187361118" lon="115.0626509151448"><ele>137.0</ele><time>2026-04-13T06:29:59Z</time></trkpt><trkpt lat="-29.117439450128074" lon="115.06295985004954"><ele>137.0</ele><time>2026-04-13T06:30:00Z</time></trkpt><trkpt lat="-29.117442628392986" lon="115.06326186346051"><ele>137.0</ele><time>2026-04-13T06:30:01Z</time></trkpt><trkpt lat="-29.117439769355368" lon="115.06356704341044"><ele>138.5</ele><time>2026-04-13T06:30:02Z</time></trkpt><trkpt lat="-29.11743704326368" lon="115.0638764917183"><ele>140.0</ele><time>2026-04-13T06:30:03Z</time></trkpt><trkpt lat="-29.117437536488147" lon="115.06418841616144"><ele>140.0</ele><time>2026-04-13T06:30:04Z</time></trkpt><trkpt lat="-29.117437796302188" lon="115.06450003940516"><ele>140.0</ele><time>2026-04-13T06:30:05Z</time></trkpt><trkpt lat="-29.11743823127192" lon="115.0648152418934"><ele>140.0</ele><time>2026-04-13T06:30:06Z</time></trkpt><trkpt lat="-29.117439400890675" lon="115.0651303552321"><ele>140.0</ele><time>2026-04-13T06:30:07Z</time></trkpt><trkpt lat="-29.11743817140864" lon="115.06544434188224"><ele>140.0</ele><time>2026-04-13T06:30:08Z</time></trkpt><trkpt lat="-29.11743630838511" lon="115.06575707591348"><ele>140.0</ele><time>2026-04-13T06:30:09Z</time></trkpt><trkpt lat="-29.117436031492062" lon="115.0660694345058"><ele>141.5</ele><time>2026-04-13T06:30:10Z</time></trkpt><trkpt lat="-29.11743743376612" lon="115.06638538025547"><ele>143.0</ele><time>2026-04-13T06:30:11Z</time></trkpt><trkpt lat="-29.117440880677105" lon="115.06670350288316"><ele>145.5</ele><time>2026-04-13T06:30:12Z</time></trkpt><trkpt lat="-29.11744321803262" lon="115.06702193212264"><ele>148.0</ele><time>2026-04-13T06:30:13Z</time></trkpt><trkpt lat="-29.117441590830776" lon="115.06734284811652"><ele>148.5</ele><time>2026-04-13T06:30:14Z</time></trkpt><trkpt lat="-29.117440291618138" lon="115.067666731052"><ele>149.0</ele><time>2026-04-13T06:30:15Z</time></trkpt><trkpt lat="-29.11743861539114" lon="115.06798957181451"><ele>150.5</ele><time>2026-04-13T06:30:16Z</time></trkpt><trkpt lat="-29.1174362528533" lon="115.06830730746198"><ele>152.0</ele><time>2026-04-13T06:30:17Z</time></trkpt><trkpt lat="-29.11743737455436" lon="115.06862685312703"><ele>152.0</ele><time>2026-04-13T06:30:18Z</time></trkpt><trkpt lat="-29.11743943076114" lon="115.0689462425999"><ele>152.0</ele><time>2026-04-13T06:30:19Z</time></trkpt><trkpt lat="-29.117439278987515" lon="115.06926712177814"><ele>153.0</ele><time>2026-04-13T06:30:20Z</time></trkpt><trkpt lat="-29.11743965624982" lon="115.0695916235091"><ele>154.0</ele><time>2026-04-13T06:30:21Z</time></trkpt><trkpt lat="-29.11744174743942" lon="115.06991762830725"><ele>153.5</ele><time>2026-04-13T06:30:22Z</time></trkpt><trkpt lat="-29.117443297432953" lon="115.07025162778162"><ele>153.0</ele><time>2026-04-13T06:30:23Z</time></trkpt><trkpt lat="-29.11744376618907" lon="115.0705837498325"><ele>154.5</ele><time>2026-04-13T06:30:24Z</time></trkpt><trkpt lat="-29.1174434745239" lon="115.07091670299714"><ele>156.0</ele><time>2026-04-13T06:30:25Z</time></trkpt><trkpt lat="-29.117439369846828" lon="115.07125398846547"><ele>156.0</ele><time>2026-04-13T06:30:26Z</time></trkpt><trkpt lat="-29.117437256691087" lon="115.0715904566745"><ele>156.0</ele><time>2026-04-13T06:30:27Z</time></trkpt><trkpt lat="-29.117435349808797" lon="115.07192579109544"><ele>158.5</ele><time>2026-04-13T06:30:28Z</time></trkpt><trkpt lat="-29.117438381462566" lon="115.07226361690418"><ele>161.0</ele><time>2026-04-13T06:30:29Z</time></trkpt><trkpt lat="-29.117441455147976" lon="115.07260039276761"><ele>161.0</ele><time>2026-04-13T06:30:30Z</time></trkpt><trkpt lat="-29.117441571557233" lon="115.07294290975189"><ele>161.0</ele><time>2026-04-13T06:30:31Z</time></trkpt><trkpt lat="-29.11743615805667" lon="115.0732838353232"><ele>161.5</ele><time>2026-04-13T06:30:32Z</time></trkpt><trkpt lat="-29.117431334564564" lon="115.07362400122344"><ele>162.0</ele><time>2026-04-13T06:30:33Z</time></trkpt><trkpt lat="-29.117428077643346" lon="115.0739686822944"><ele>163.0</ele><time>2026-04-13T06:30:34Z</time></trkpt><trkpt lat="-29.117428223796693" lon="115.07431819716295"><ele>164.0</ele><time>2026-04-13T06:30:35Z</time></trkpt><trkpt lat="-29.11742933074485" lon="115.07466852241596"><ele>163.5</ele><time>2026-04-13T06:30:36Z</time></trkpt><trkpt lat="-29.117427439090662" lon="115.0750252764154"><ele>163.0</ele><time>2026-04-13T06:30:37Z</time></trkpt><trkpt lat="-29.117423786061064" lon="115.07538222477922"><ele>163.0</ele><time>2026-04-13T06:30:38Z</time></trkpt><trkpt lat="-29.117417310573117" lon="115.07574044279299"><ele>163.0</ele><time>2026-04-13T06:30:39Z</time></trkpt><trkpt lat="-29.117409294511557" lon="115.07610119592489"><ele>162.5</ele><time>2026-04-13T06:30:40Z</time></trkpt><trkpt lat="-29.117407527319997" lon="115.076461312809"><ele>162.0</ele><time>2026-04-13T06:30:41Z</time></trkpt><trkpt lat="-29.117408525802915" lon="115.07682476724551"><ele>164.5</ele><time>2026-04-13T06:30:42Z</time></trkpt><trkpt lat="-29.117410614995592" lon="115.07718920221501"><ele>167.0</ele><time>2026-04-13T06:30:43Z</time></trkpt><trkpt lat="-29.1174122341538" lon="115.0775541041529"><ele>170.5</ele><time>2026-04-13T06:30:44Z</time></trkpt><trkpt lat="-29.117412064080604" lon="115.07792192431839"><ele>174.0</ele><time>2026-04-13T06:30:45Z</time></trkpt><trkpt lat="-29.117414892330746" lon="115.07827949641523"><ele>174.0</ele><time>2026-04-13T06:30:46Z</time></trkpt><trkpt lat="-29.11741784422691" lon="115.07864193959543"><ele>174.0</ele><time>2026-04-13T06:30:47Z</time></trkpt><trkpt lat="-29.117418541832986" lon="115.07900312552705"><ele>173.5</ele><time>2026-04-13T06:30:48Z</time></trkpt><trkpt lat="-29.11741856959944" lon="115.07936740240022"><ele>173.0</ele><time>2026-04-13T06:30:49Z</time></trkpt><trkpt lat="-29.117418948492887" lon="115.07973151722793"><ele>174.5</ele><time>2026-04-13T06:30:50Z</time></trkpt><trkpt lat="-29.117417405931693" lon="115.08009291973632"><ele>176.0</ele><time>2026-04-13T06:30:51Z</time></trkpt><trkpt lat="-29.11741689191199" lon="115.08045486958989"><ele>175.5</ele><time>2026-04-13T06:30:52Z</time></trkpt><trkpt lat="-29.11741459611888" lon="115.08081720563372"><ele>175.0</ele><time>2026-04-13T06:30:53Z</time></trkpt><trkpt lat="-29.11741124136416" lon="115.08117234764218"><ele>175.0</ele><time>2026-04-13T06:30:54Z</time></trkpt><trkpt lat="-29.117407604592582" lon="115.08152891567296"><ele>175.0</ele><time>2026-04-13T06:30:55Z</time></trkpt><trkpt lat="-29.117405451736637" lon="115.08188714042019"><ele>176.0</ele><time>2026-04-13T06:30:56Z</time></trkpt><trkpt lat="-29.11740407984961" lon="115.08224577204467"><ele>177.0</ele><time>2026-04-13T06:30:57Z</time></trkpt><trkpt lat="-29.117400776818588" lon="115.08260723291028"><ele>179.5</ele><time>2026-04-13T06:30:58Z</time></trkpt><trkpt lat="-29.117399309982716" lon="115.08296803623679"><ele>182.0</ele><time>2026-04-13T06:30:59Z</time></trkpt><trkpt lat="-29.117396492076285" lon="115.08332498498552"><ele>183.5</ele><time>2026-04-13T06:31:00Z</time></trkpt><trkpt lat="-29.117393857545988" lon="115.0836822653726"><ele>185.0</ele><time>2026-04-13T06:31:01Z</time></trkpt><trkpt lat="-29.11739504869024" lon="115.08403795224426"><ele>186.5</ele><time>2026-04-13T06:31:02Z</time></trkpt><trkpt lat="-29.117396931544846" lon="115.0843951484279"><ele>188.0</ele><time>2026-04-13T06:31:03Z</time></trkpt><trkpt lat="-29.11739521326563" lon="115.08475189303688"><ele>186.5</ele><time>2026-04-13T06:31:04Z</time></trkpt><trkpt lat="-29.117394513989254" lon="115.08510484846484"><ele>185.0</ele><time>2026-04-13T06:31:05Z</time></trkpt><trkpt lat="-29.117392322251696" lon="115.08545956492277"><ele>189.5</ele><time>2026-04-13T06:31:06Z</time></trkpt><trkpt lat="-29.117395300725235" lon="115.08581229103628"><ele>194.0</ele><time>2026-04-13T06:31:07Z</time></trkpt><trkpt lat="-29.117396126944783" lon="115.08616545079998"><ele>194.0</ele><time>2026-04-13T06:31:08Z</time></trkpt><trkpt lat="-29.117395103037474" lon="115.08651700239255"><ele>194.0</ele><time>2026-04-13T06:31:09Z</time></trkpt><trkpt lat="-29.117395455956636" lon="115.08687187694639"><ele>196.0</ele><time>2026-04-13T06:31:10Z</time></trkpt><trkpt lat="-29.11739583063058" lon="115.0872278315475"><ele>198.0</ele><time>2026-04-13T06:31:11Z</time></trkpt><trkpt lat="-29.117395701403616" lon="115.08758578539539"><ele>199.0</ele><time>2026-04-13T06:31:12Z</time></trkpt><trkpt lat="-29.117391669552514" lon="115.08794749459321"><ele>200.0</ele><time>2026-04-13T06:31:13Z</time></trkpt><trkpt lat="-29.117391766647266" lon="115.08830877979669"><ele>200.0</ele><time>2026-04-13T06:31:14Z</time></trkpt><trkpt lat="-29.11739330905143" lon="115.08867074997714"><ele>200.0</ele><time>2026-04-13T06:31:15Z</time></trkpt><trkpt lat="-29.117396475648228" lon="115.08903355099882"><ele>195.5</ele><time>2026-04-13T06:31:16Z</time></trkpt><trkpt lat="-29.117396918672895" lon="115.08939625560599"><ele>191.0</ele><time>2026-04-13T06:31:17Z</time></trkpt><trkpt lat="-29.117398483396183" lon="115.08975563657594"><ele>191.0</ele><time>2026-04-13T06:31:18Z</time></trkpt><trkpt lat="-29.11739794814867" lon="115.09011466096011"><ele>191.0</ele><time>2026-04-13T06:31:19Z</time></trkpt><trkpt lat="-29.117398030280242" lon="115.09047282903484"><ele>194.0</ele><time>2026-04-13T06:31:20Z</time></trkpt><trkpt lat="-29.117398602624764" lon="115.09083292334006"><ele>197.0</ele><time>2026-04-13T06:31:21Z</time></trkpt><trkpt lat="-29.11739859091846" lon="115.09119141790208"><ele>197.0</ele><time>2026-04-13T06:31:22Z</time></trkpt><trkpt lat="-29.11740027020686" lon="115.09154350738436"><ele>197.0</ele><time>2026-04-13T06:31:23Z</time></trkpt><trkpt lat="-29.117403081436244" lon="115.0918900334042"><ele>201.0</ele><time>2026-04-13T06:31:24Z</time></trkpt><trkpt lat="-29.11740571899628" lon="115.09222490532976"><ele>205.0</ele><time>2026-04-13T06:31:25Z</time></trkpt><trkpt lat="-29.117406813332458" lon="115.09255206306786"><ele>205.0</ele><time>2026-04-13T06:31:26Z</time></trkpt><trkpt lat="-29.11740631247201" lon="115.09285826413104"><ele>205.0</ele><time>2026-04-13T06:31:27Z</time></trkpt><trkpt lat="-29.117407664902387" lon="115.09314729553292"><ele>202.5</ele><time>2026-04-13T06:31:28Z</time></trkpt><trkpt lat="-29.117408631776737" lon="115.09341970628016"><ele>200.0</ele><time>2026-04-13T06:31:29Z</time></trkpt><trkpt lat="-29.11740991470706" lon="115.0936960461025"><ele>200.0</ele><time>2026-04-13T06:31:30Z</time></trkpt><trkpt lat="-29.11740855221141" lon="115.09397505612344"><ele>200.0</ele><time>2026-04-13T06:31:31Z</time></trkpt><trkpt lat="-29.117406442814595" lon="115.09425874585901"><ele>201.5</ele><time>2026-04-13T06:31:32Z</time></trkpt><trkpt lat="-29.117409053456" lon="115.09454463245866"><ele>203.0</ele><time>2026-04-13T06:31:33Z</time></trkpt><trkpt lat="-29.117411553378403" lon="115.09481844986318"><ele>204.66666666666669</ele><time>2026-04-13T06:31:34Z</time></trkpt><trkpt lat="-29.117412277695315" lon="115.09507717247602"><ele>206.33333333333331</ele><time>2026-04-13T06:31:35Z</time></trkpt><trkpt lat="-29.11741471590461" lon="115.09531650672884"><ele>208.0</ele><time>2026-04-13T06:31:36Z</time></trkpt><trkpt lat="-29.117418499396702" lon="115.09554071864306"><ele>208.0</ele><time>2026-04-13T06:31:37Z</time></trkpt><trkpt lat="-29.117422689676054" lon="115.09574817835056"><ele>208.0</ele><time>2026-04-13T06:31:38Z</time></trkpt><trkpt lat="-29.11742501103849" lon="115.0959384735177"><ele>208.0</ele><time>2026-04-13T06:31:39Z</time></trkpt><trkpt lat="-29.117430229748468" lon="115.09610372689569"><ele>207.60000000000002</ele><time>2026-04-13T06:31:40Z</time></trkpt><trkpt lat="-29.117433777545926" lon="115.09625113537815"><ele>207.20000000000002</ele><time>2026-04-13T06:31:41Z</time></trkpt><trkpt lat="-29.117436526502175" lon="115.09637160430212"><ele>206.8</ele><time>2026-04-13T06:31:42Z</time></trkpt><trkpt lat="-29.117441981838482" lon="115.09647599215312"><ele>206.4</ele><time>2026-04-13T06:31:43Z</time></trkpt><trkpt lat="-29.117443149565506" lon="115.09655886790304"><ele>206.0</ele><time>2026-04-13T06:31:44Z</time></trkpt><trkpt lat="-29.117390789059822" lon="115.0966681750276"><ele>205.0</ele><time>2026-04-13T06:31:46Z</time></trkpt><trkpt lat="-29.117331501987266" lon="115.09670259143664"><ele>204.0</ele><time>2026-04-13T06:31:47Z</time></trkpt><trkpt lat="-29.117243521583013" lon="115.09672031930296"><ele>203.0</ele><time>2026-04-13T06:31:48Z</time></trkpt><trkpt lat="-29.117133059168825" lon="115.09672289177169"><ele>202.0</ele><time>2026-04-13T06:31:49Z</time></trkpt><trkpt lat="-29.11700608808704" lon="115.09672041256397"><ele>201.0</ele><time>2026-04-13T06:31:50Z</time></trkpt><trkpt lat="-29.116857496182725" lon="115.09671627473286"><ele>201.0</ele><time>2026-04-13T06:31:51Z</time></trkpt><trkpt lat="-29.11669817211826" lon="115.09670677981559"><ele>201.0</ele><time>2026-04-13T06:31:52Z</time></trkpt><trkpt lat="-29.116524570239406" lon="115.09670888111113"><ele>201.0</ele><time>2026-04-13T06:31:53Z</time></trkpt><trkpt lat="-29.116332211050416" lon="115.09671434632409"><ele>200.33333333333331</ele><time>2026-04-13T06:31:54Z</time></trkpt><trkpt lat="-29.11611864672845" lon="115.09671767164883"><ele>199.66666666666666</ele><time>2026-04-13T06:31:55Z</time></trkpt><trkpt lat="-29.11588777413973" lon="115.09671987361666"><ele>199.0</ele><time>2026-04-13T06:31:56Z</time></trkpt><trkpt lat="-29.11563836850058" lon="115.09671865885535"><ele>196.5</ele><time>2026-04-13T06:31:57Z</time></trkpt><trkpt lat="-29.115388405690553" lon="115.09671848101438"><ele>194.0</ele><time>2026-04-13T06:31:58Z</time></trkpt><trkpt lat="-29.11513425533415" lon="115.09671815473814"><ele>195.5</ele><time>2026-04-13T06:31:59Z</time></trkpt><trkpt lat="-29.114859551372497" lon="115.09671604613172"><ele>197.0</ele><time>2026-04-13T06:32:00Z</time></trkpt><trkpt lat="-29.114579919436565" lon="115.0967124823006"><ele>197.0</ele><time>2026-04-13T06:32:01Z</time></trkpt><trkpt lat="-29.114310419318937" lon="115.09670891476722"><ele>197.0</ele><time>2026-04-13T06:32:02Z</time></trkpt><trkpt lat="-29.114053109514973" lon="115.09670822289002"><ele>195.0</ele><time>2026-04-13T06:32:03Z</time></trkpt><trkpt lat="-29.113806779414478" lon="115.09670967090665"><ele>193.0</ele><time>2026-04-13T06:32:04Z</time></trkpt><trkpt lat="-29.113565140722173" lon="115.0967107033036"><ele>193.0</ele><time>2026-04-13T06:32:05Z</time></trkpt><trkpt lat="-29.113323800185167" lon="115.09670926311043"><ele>193.0</ele><time>2026-04-13T06:32:06Z</time></trkpt><trkpt lat="-29.113085497273502" lon="115.09671119756088"><ele>192.5</ele><time>2026-04-13T06:32:07Z</time></trkpt><trkpt lat="-29.11284807540338" lon="115.09671254746446"><ele>192.0</ele><time>2026-04-13T06:32:08Z</time></trkpt><trkpt lat="-29.112614301589165" lon="115.09671068818867"><ele>191.0</ele><time>2026-04-13T06:32:09Z</time></trkpt><trkpt lat="-29.11238185255752" lon="115.0967069390623"><ele>190.0</ele><time>2026-04-13T06:32:10Z</time></trkpt><trkpt lat="-29.112144682315783" lon="115.09670774469433"><ele>190.0</ele><time>2026-04-13T06:32:11Z</time></trkpt><trkpt lat="-29.11189730978534" lon="115.09670925101574"><ele>190.0</ele><time>2026-04-13T06:32:12Z</time></trkpt><trkpt lat="-29.111651390334913" lon="115.096712662902"><ele>189.5</ele><time>2026-04-13T06:32:13Z</time></trkpt><trkpt lat="-29.111406391656452" lon="115.09671574786721"><ele>189.0</ele><time>2026-04-13T06:32:14Z</time></trkpt><trkpt lat="-29.111154421400936" lon="115.09671285203642"><ele>189.0</ele><time>2026-04-13T06:32:15Z</time></trkpt><trkpt lat="-29.110897930901192" lon="115.09670997411628"><ele>189.0</ele><time>2026-04-13T06:32:16Z</time></trkpt><trkpt lat="-29.11064169014499" lon="115.09670907396745"><ele>190.0</ele><time>2026-04-13T06:32:17Z</time></trkpt><trkpt lat="-29.110381330083673" lon="115.09671170281575"><ele>191.0</ele><time>2026-04-13T06:32:18Z</time></trkpt><trkpt lat="-29.11012022924813" lon="115.09671211441217"><ele>190.0</ele><time>2026-04-13T06:32:19Z</time></trkpt><trkpt lat="-29.10985617583793" lon="115.09671217122889"><ele>189.0</ele><time>2026-04-13T06:32:20Z</time></trkpt><trkpt lat="-29.10958928206917" lon="115.0967124630086"><ele>189.0</ele><time>2026-04-13T06:32:21Z</time></trkpt><trkpt lat="-29.109319986404266" lon="115.0967091780475"><ele>189.0</ele><time>2026-04-13T06:32:22Z</time></trkpt><trkpt lat="-29.10904992126947" lon="115.09670916253829"><ele>187.5</ele><time>2026-04-13T06:32:23Z</time></trkpt><trkpt lat="-29.108777506002728" lon="115.09671241174901"><ele>186.0</ele><time>2026-04-13T06:32:24Z</time></trkpt><trkpt lat="-29.10850263778364" lon="115.09671676627957"><ele>184.5</ele><time>2026-04-13T06:32:25Z</time></trkpt><trkpt lat="-29.108227917118104" lon="115.09671902455077"><ele>183.0</ele><time>2026-04-13T06:32:26Z</time></trkpt><trkpt lat="-29.107951204658978" lon="115.09671754380102"><ele>183.0</ele><time>2026-04-13T06:32:27Z</time></trkpt><trkpt lat="-29.107673731229024" lon="115.09671361265121"><ele>183.0</ele><time>2026-04-13T06:32:28Z</time></trkpt><trkpt lat="-29.107397123250117" lon="115.09671021466445"><ele>181.5</ele><time>2026-04-13T06:32:29Z</time></trkpt><trkpt lat="-29.107119337339256" lon="115.09670864238171"><ele>180.0</ele><time>2026-04-13T06:32:30Z</time></trkpt><trkpt lat="-29.10684053773575" lon="115.09670907286488"><ele>177.5</ele><time>2026-04-13T06:32:31Z</time></trkpt><trkpt lat="-29.10656125488032" lon="115.09671323560856"><ele>175.0</ele><time>2026-04-13T06:32:32Z</time></trkpt><trkpt lat="-29.106282372743905" lon="115.09671365479932"><ele>175.0</ele><time>2026-04-13T06:32:33Z</time></trkpt><trkpt lat="-29.10599998360352" lon="115.09671646093639"><ele>175.0</ele><time>2026-04-13T06:32:34Z</time></trkpt><trkpt lat="-29.10571831591503" lon="115.09671843077157"><ele>174.0</ele><time>2026-04-13T06:32:35Z</time></trkpt><trkpt lat="-29.105433138665013" lon="115.09672155230902"><ele>173.0</ele><time>2026-04-13T06:32:36Z</time></trkpt><trkpt lat="-29.105146580131056" lon="115.09671954216785"><ele>173.0</ele><time>2026-04-13T06:32:37Z</time></trkpt><trkpt lat="-29.10485796957369" lon="115.09671567917283"><ele>173.0</ele><time>2026-04-13T06:32:38Z</time></trkpt><trkpt lat="-29.104565828010358" lon="115.09671496057372"><ele>173.0</ele><time>2026-04-13T06:32:39Z</time></trkpt><trkpt lat="-29.104274735196196" lon="115.09671607728423"><ele>173.0</ele><time>2026-04-13T06:32:40Z</time></trkpt><trkpt lat="-29.10398097303922" lon="115.0967145992155"><ele>169.5</ele><time>2026-04-13T06:32:41Z</time></trkpt><trkpt lat="-29.103687283337234" lon="115.0967143162398"><ele>166.0</ele><time>2026-04-13T06:32:42Z</time></trkpt><trkpt lat="-29.103388434911015" lon="115.09671516163156"><ele>167.0</ele><time>2026-04-13T06:32:43Z</time></trkpt><trkpt lat="-29.103087087784385" lon="115.09671588735115"><ele>168.0</ele><time>2026-04-13T06:32:44Z</time></trkpt><trkpt lat="-29.102783491641716" lon="115.09671539582556"><ele>168.0</ele><time>2026-04-13T06:32:45Z</time></trkpt><trkpt lat="-29.102482045841636" lon="115.09671424696285"><ele>168.0</ele><time>2026-04-13T06:32:46Z</time></trkpt><trkpt lat="-29.102179950248164" lon="115.09671208784147"><ele>168.0</ele><time>2026-04-13T06:32:47Z</time></trkpt><trkpt lat="-29.101877439909867" lon="115.09671388048582"><ele>168.0</ele><time>2026-04-13T06:32:48Z</time></trkpt><trkpt lat="-29.101573251011107" lon="115.0967169583674"><ele>168.5</ele><time>2026-04-13T06:32:49Z</time></trkpt><trkpt lat="-29.101267102932795" lon="115.09671795336415"><ele>169.0</ele><time>2026-04-13T06:32:50Z</time></trkpt><trkpt lat="-29.100963336280156" lon="115.09671547345094"><ele>169.0</ele><time>2026-04-13T06:32:51Z</time></trkpt><trkpt lat="-29.10065775959649" lon="115.09671278962671"><ele>169.0</ele><time>2026-04-13T06:32:52Z</time></trkpt><trkpt lat="-29.10034942365512" lon="115.09670987635141"><ele>169.0</ele><time>2026-04-13T06:32:53Z</time></trkpt><trkpt lat="-29.100041902572478" lon="115.0967077031984"><ele>169.0</ele><time>2026-04-13T06:32:54Z</time></trkpt><trkpt lat="-29.099728699687102" lon="115.09670785605023"><ele>167.0</ele><time>2026-04-13T06:32:55Z</time></trkpt><trkpt lat="-29.09941370516848" lon="115.09671114069096"><ele>165.0</ele><time>2026-04-13T06:32:56Z</time></trkpt><trkpt lat="-29.099095681970496" lon="115.09671406801348"><ele>164.0</ele><time>2026-04-13T06:32:57Z</time></trkpt><trkpt lat="-29.09877566433567" lon="115.0967127380942"><ele>163.0</ele><time>2026-04-13T06:32:58Z</time></trkpt><trkpt lat="-29.098457950816666" lon="115.09671364232095"><ele>162.5</ele><time>2026-04-13T06:32:59Z</time></trkpt><trkpt lat="-29.09814181729226" lon="115.09671033635799"><ele>162.0</ele><time>2026-04-13T06:33:00Z</time></trkpt><trkpt lat="-29.0978276426126" lon="115.0967099429212"><ele>162.0</ele><time>2026-04-13T06:33:01Z</time></trkpt><trkpt lat="-29.09751526987608" lon="115.09671120839566"><ele>162.0</ele><time>2026-04-13T06:33:02Z</time></trkpt><trkpt lat="-29.097205609612793" lon="115.09671319544938"><ele>163.0</ele><time>2026-04-13T06:33:03Z</time></trkpt><trkpt lat="-29.09689822077077" lon="115.09671574697074"><ele>164.0</ele><time>2026-04-13T06:33:04Z</time></trkpt><trkpt lat="-29.096590227316632" lon="115.09671414252612"><ele>161.5</ele><time>2026-04-13T06:33:05Z</time></trkpt><trkpt lat="-29.09628499803922" lon="115.09671570797819"><ele>159.0</ele><time>2026-04-13T06:33:06Z</time></trkpt><trkpt lat="-29.095975845096703" lon="115.09671634163723"><ele>157.5</ele><time>2026-04-13T06:33:07Z</time></trkpt><trkpt lat="-29.09567200098243" lon="115.09671634001673"><ele>156.0</ele><time>2026-04-13T06:33:08Z</time></trkpt><trkpt lat="-29.095361597064436" lon="115.09671450817238"><ele>156.0</ele><time>2026-04-13T06:33:09Z</time></trkpt><trkpt lat="-29.095054762215" lon="115.0967123310123"><ele>156.0</ele><time>2026-04-13T06:33:10Z</time></trkpt><trkpt lat="-29.094745325063084" lon="115.09671478524801"><ele>156.0</ele><time>2026-04-13T06:33:11Z</time></trkpt><trkpt lat="-29.0944349927508" lon="115.09671543700982"><ele>156.0</ele><time>2026-04-13T06:33:12Z</time></trkpt><trkpt lat="-29.094125584358263" lon="115.09671516006271"><ele>155.5</ele><time>2026-04-13T06:33:13Z</time></trkpt><trkpt lat="-29.09381456821378" lon="115.09671222887135"><ele>155.0</ele><time>2026-04-13T06:33:14Z</time></trkpt><trkpt lat="-29.093504381791732" lon="115.09671028520867"><ele>153.5</ele><time>2026-04-13T06:33:15Z</time></trkpt><trkpt lat="-29.09319653326408" lon="115.09670923468097"><ele>152.0</ele><time>2026-04-13T06:33:16Z</time></trkpt><trkpt lat="-29.092884137590396" lon="115.09670914903072"><ele>152.0</ele><time>2026-04-13T06:33:17Z</time></trkpt><trkpt lat="-29.09257802849639" lon="115.09671273994837"><ele>152.0</ele><time>2026-04-13T06:33:18Z</time></trkpt><trkpt lat="-29.092269260658796" lon="115.09671386771045"><ele>152.5</ele><time>2026-04-13T06:33:19Z</time></trkpt><trkpt lat="-29.091960283683765" lon="115.09671493492189"><ele>153.0</ele><time>2026-04-13T06:33:20Z</time></trkpt><trkpt lat="-29.09165110250593" lon="115.09671803787647"><ele>151.5</ele><time>2026-04-13T06:33:21Z</time></trkpt><trkpt lat="-29.09134125028842" lon="115.09672140684302"><ele>150.0</ele><time>2026-04-13T06:33:22Z</time></trkpt><trkpt lat="-29.091028035224436" lon="115.09671881705556"><ele>150.5</ele><time>2026-04-13T06:33:23Z</time></trkpt><trkpt lat="-29.090713584514884" lon="115.09671834479911"><ele>151.0</ele><time>2026-04-13T06:33:24Z</time></trkpt><trkpt lat="-29.090400746477012" lon="115.09671542326645"><ele>151.0</ele><time>2026-04-13T06:33:25Z</time></trkpt><trkpt lat="-29.09009064931399" lon="115.09671652161963"><ele>151.0</ele><time>2026-04-13T06:33:26Z</time></trkpt><trkpt lat="-29.089776820038026" lon="115.09671626839837"><ele>152.0</ele><time>2026-04-13T06:33:27Z</time></trkpt><trkpt lat="-29.089466183457446" lon="115.09671997448686"><ele>153.0</ele><time>2026-04-13T06:33:28Z</time></trkpt><trkpt lat="-29.089157412757103" lon="115.09672462663572"><ele>151.5</ele><time>2026-04-13T06:33:29Z</time></trkpt><trkpt lat="-29.08884862101222" lon="115.09672817736967"><ele>150.0</ele><time>2026-04-13T06:33:30Z</time></trkpt><trkpt lat="-29.088543682883053" lon="115.09672859374038"><ele>152.0</ele><time>2026-04-13T06:33:31Z</time></trkpt><trkpt lat="-29.08823878411345" lon="115.09672676565279"><ele>154.0</ele><time>2026-04-13T06:33:32Z</time></trkpt><trkpt lat="-29.08793708231852" lon="115.0967236550526"><ele>154.0</ele><time>2026-04-13T06:33:33Z</time></trkpt><trkpt lat="-29.087636429882874" lon="115.0967219295968"><ele>154.0</ele><time>2026-04-13T06:33:34Z</time></trkpt><trkpt lat="-29.087336530212095" lon="115.09672205648396"><ele>156.5</ele><time>2026-04-13T06:33:35Z</time></trkpt><trkpt lat="-29.087036293463743" lon="115.0967214783278"><ele>159.0</ele><time>2026-04-13T06:33:36Z</time></trkpt><trkpt lat="-29.086733986591593" lon="115.09672206222949"><ele>161.0</ele><time>2026-04-13T06:33:37Z</time></trkpt><trkpt lat="-29.086430299316145" lon="115.09672252021726"><ele>163.0</ele><time>2026-04-13T06:33:38Z</time></trkpt><trkpt lat="-29.086128280627424" lon="115.09672331396915"><ele>163.0</ele><time>2026-04-13T06:33:39Z</time></trkpt><trkpt lat="-29.08582825220868" lon="115.09672183702449"><ele>163.0</ele><time>2026-04-13T06:33:40Z</time></trkpt><trkpt lat="-29.085526076537597" lon="115.09672196352535"><ele>163.0</ele><time>2026-04-13T06:33:41Z</time></trkpt><trkpt lat="-29.085222932362573" lon="115.09672217137305"><ele>163.0</ele><time>2026-04-13T06:33:42Z</time></trkpt><trkpt lat="-29.084920999272146" lon="115.09672261325223"><ele>163.5</ele><time>2026-04-13T06:33:43Z</time></trkpt><trkpt lat="-29.08461884731118" lon="115.09672457972256"><ele>164.0</ele><time>2026-04-13T06:33:44Z</time></trkpt><trkpt lat="-29.084313576379508" lon="115.09672483645441"><ele>167.5</ele><time>2026-04-13T06:33:45Z</time></trkpt><trkpt lat="-29.08400905005745" lon="115.09672489111159"><ele>171.0</ele><time>2026-04-13T06:33:46Z</time></trkpt><trkpt lat="-29.0837035942555" lon="115.09672486989213"><ele>171.0</ele><time>2026-04-13T06:33:47Z</time></trkpt><trkpt lat="-29.083397603224377" lon="115.09672507978253"><ele>171.0</ele><time>2026-04-13T06:33:48Z</time></trkpt><trkpt lat="-29.083089426807494" lon="115.09672678226116"><ele>171.5</ele><time>2026-04-13T06:33:49Z</time></trkpt><trkpt lat="-29.082786200684765" lon="115.09672724455837"><ele>172.0</ele><time>2026-04-13T06:33:50Z</time></trkpt><trkpt lat="-29.082478915981994" lon="115.09672455029096"><ele>174.0</ele><time>2026-04-13T06:33:51Z</time></trkpt><trkpt lat="-29.08217255822363" lon="115.09672222125356"><ele>176.0</ele><time>2026-04-13T06:33:52Z</time></trkpt><trkpt lat="-29.081865016715597" lon="115.09672015618142"><ele>178.0</ele><time>2026-04-13T06:33:53Z</time></trkpt><trkpt lat="-29.081558593501963" lon="115.09672252179907"><ele>180.0</ele><time>2026-04-13T06:33:54Z</time></trkpt><trkpt lat="-29.08125371316791" lon="115.0967260733865"><ele>180.0</ele><time>2026-04-13T06:33:55Z</time></trkpt><trkpt lat="-29.080948095951825" lon="115.09672666287098"><ele>180.0</ele><time>2026-04-13T06:33:56Z</time></trkpt><trkpt lat="-29.080642270997664" lon="115.09672708144129"><ele>180.0</ele><time>2026-04-13T06:33:57Z</time></trkpt><trkpt lat="-29.08033845028564" lon="115.0967234973807"><ele>180.0</ele><time>2026-04-13T06:33:58Z</time></trkpt><trkpt lat="-29.0800355513462" lon="115.09672234913545"><ele>183.0</ele><time>2026-04-13T06:33:59Z</time></trkpt><trkpt lat="-29.079733420787733" lon="115.09672105100394"><ele>186.0</ele><time>2026-04-13T06:34:00Z</time></trkpt><trkpt lat="-29.079427574200334" lon="115.09671931094708"><ele>186.0</ele><time>2026-04-13T06:34:01Z</time></trkpt><trkpt lat="-29.079119110199215" lon="115.09672116760393"><ele>186.0</ele><time>2026-04-13T06:34:02Z</time></trkpt><trkpt lat="-29.078811159828206" lon="115.09672257055648"><ele>190.0</ele><time>2026-04-13T06:34:03Z</time></trkpt><trkpt lat="-29.078504797765497" lon="115.09672627918201"><ele>194.0</ele><time>2026-04-13T06:34:04Z</time></trkpt><trkpt lat="-29.07820041342508" lon="115.0967290838273"><ele>195.5</ele><time>2026-04-13T06:34:05Z</time></trkpt><trkpt lat="-29.0778948244079" lon="115.0967284511841"><ele>197.0</ele><time>2026-04-13T06:34:06Z</time></trkpt><trkpt lat="-29.077590810484445" lon="115.0967232389533"><ele>199.5</ele><time>2026-04-13T06:34:07Z</time></trkpt><trkpt lat="-29.077285969371733" lon="115.09671857046521"><ele>202.0</ele><time>2026-04-13T06:34:08Z</time></trkpt><trkpt lat="-29.076978198808032" lon="115.09671372188431"><ele>202.0</ele><time>2026-04-13T06:34:09Z</time></trkpt><trkpt lat="-29.07666685507831" lon="115.09671097309277"><ele>202.0</ele><time>2026-04-13T06:34:10Z</time></trkpt><trkpt lat="-29.076350512564535" lon="115.09670683040557"><ele>201.5</ele><time>2026-04-13T06:34:11Z</time></trkpt><trkpt lat="-29.07603643981965" lon="115.09671012987617"><ele>201.0</ele><time>2026-04-13T06:34:12Z</time></trkpt><trkpt lat="-29.075717526431426" lon="115.09671689210532"><ele>201.0</ele><time>2026-04-13T06:34:13Z</time></trkpt><trkpt lat="-29.075400656570835" lon="115.09672551796335"><ele>201.0</ele><time>2026-04-13T06:34:14Z</time></trkpt><trkpt lat="-29.075085738532554" lon="115.09672592818829"><ele>202.5</ele><time>2026-04-13T06:34:15Z</time></trkpt><trkpt lat="-29.07477509192205" lon="115.0967207911342"><ele>204.0</ele><time>2026-04-13T06:34:16Z</time></trkpt><trkpt lat="-29.074468837956136" lon="115.09671793507611"><ele>204.0</ele><time>2026-04-13T06:34:17Z</time></trkpt><trkpt lat="-29.07417549377003" lon="115.09671501918427"><ele>204.0</ele><time>2026-04-13T06:34:18Z</time></trkpt><trkpt lat="-29.073895454268058" lon="115.09671838877193"><ele>206.0</ele><time>2026-04-13T06:34:19Z</time></trkpt><trkpt lat="-29.07362038263692" lon="115.09671823625551"><ele>208.0</ele><time>2026-04-13T06:34:20Z</time></trkpt><trkpt lat="-29.07334975106584" lon="115.0967164372235"><ele>209.5</ele><time>2026-04-13T06:34:21Z</time></trkpt><trkpt lat="-29.073092669174645" lon="115.09671511226756"><ele>211.0</ele><time>2026-04-13T06:34:22Z</time></trkpt><trkpt lat="-29.07286085144481" lon="115.09672045947005"><ele>211.0</ele><time>2026-04-13T06:34:23Z</time></trkpt><trkpt lat="-29.072647994097505" lon="115.09672282070565"><ele>211.0</ele><time>2026-04-13T06:34:24Z</time></trkpt><trkpt lat="-29.072449819356724" lon="115.09672364770842"><ele>211.0</ele><time>2026-04-13T06:34:25Z</time></trkpt><trkpt lat="-29.072262716146763" lon="115.09672277930495"><ele>212.0</ele><time>2026-04-13T06:34:26Z</time></trkpt><trkpt lat="-29.072093795086907" lon="115.09672388409413"><ele>213.0</ele><time>2026-04-13T06:34:27Z</time></trkpt><trkpt lat="-29.071930434676673" lon="115.09672007212065"><ele>214.0</ele><time>2026-04-13T06:34:28Z</time></trkpt><trkpt lat="-29.07178240563868" lon="115.0967175096521"><ele>214.0</ele><time>2026-04-13T06:34:29Z</time></trkpt><trkpt lat="-29.0716497417028" lon="115.09671439020948"><ele>213.99999999999997</ele><time>2026-04-13T06:34:30Z</time></trkpt><trkpt lat="-29.071531090700006" lon="115.09671685031161"><ele>213.99999999999997</ele><time>2026-04-13T06:34:31Z</time></trkpt><trkpt lat="-29.071430936608053" lon="115.09671922249346"><ele>214.0</ele><time>2026-04-13T06:34:32Z</time></trkpt><trkpt lat="-29.071347686159598" lon="115.0967179317021"><ele>214.0</ele><time>2026-04-13T06:34:33Z</time></trkpt><trkpt lat="-29.071277533104833" lon="115.09671082657198"><ele>214.79999999999998</ele><time>2026-04-13T06:34:34Z</time></trkpt><trkpt lat="-29.07118716671769" lon="115.09669789060008"><ele>215.59999999999997</ele><time>2026-04-13T06:34:36Z</time></trkpt><trkpt lat="-29.071068767213454" lon="115.09668706554125"><ele>216.4</ele><time>2026-04-13T06:34:38Z</time></trkpt><trkpt lat="-29.07097935183061" lon="115.0967052736322"><ele>217.2</ele><time>2026-04-13T06:34:39Z</time></trkpt><trkpt lat="-29.070873970934073" lon="115.09672992902965"><ele>218.0</ele><time>2026-04-13T06:34:40Z</time></trkpt><trkpt lat="-29.07074752986017" lon="115.0967445261191"><ele>220.0</ele><time>2026-04-13T06:34:41Z</time></trkpt><trkpt lat="-29.070618300665352" lon="115.09674680121411"><ele>222.0</ele><time>2026-04-13T06:34:42Z</time></trkpt><trkpt lat="-29.07047681409807" lon="115.096744944706"><ele>224.0</ele><time>2026-04-13T06:34:43Z</time></trkpt><trkpt lat="-29.07031844640601" lon="115.09674635635527"><ele>226.0</ele><time>2026-04-13T06:34:44Z</time></trkpt><trkpt lat="-29.070150396320585" lon="115.09675058416305"><ele>226.0</ele><time>2026-04-13T06:34:45Z</time></trkpt><trkpt lat="-29.06997748541037" lon="115.09675294872015"><ele>226.0</ele><time>2026-04-13T06:34:46Z</time></trkpt><trkpt lat="-29.069803711053204" lon="115.09675379533672"><ele>226.0</ele><time>2026-04-13T06:34:47Z</time></trkpt><trkpt lat="-29.069632432929108" lon="115.09675565658586"><ele>227.66666666666666</ele><time>2026-04-13T06:34:48Z</time></trkpt><trkpt lat="-29.069460737773024" lon="115.09675651392679"><ele>229.33333333333331</ele><time>2026-04-13T06:34:49Z</time></trkpt><trkpt lat="-29.069287116755774" lon="115.09676102871312"><ele>231.0</ele><time>2026-04-13T06:34:50Z</time></trkpt><trkpt lat="-29.069112422657746" lon="115.0967636040775"><ele>232.33333333333331</ele><time>2026-04-13T06:34:51Z</time></trkpt><trkpt lat="-29.068938711654408" lon="115.09676345488994"><ele>233.66666666666666</ele><time>2026-04-13T06:34:52Z</time></trkpt><trkpt lat="-29.06876855664786" lon="115.09676412273839"><ele>235.0</ele><time>2026-04-13T06:34:53Z</time></trkpt><trkpt lat="-29.06859917988883" lon="115.09676806505578"><ele>235.0</ele><time>2026-04-13T06:34:54Z</time></trkpt><trkpt lat="-29.0684283435269" lon="115.0967686731992"><ele>235.0</ele><time>2026-04-13T06:34:55Z</time></trkpt><trkpt lat="-29.06826107121154" lon="115.09677136579855"><ele>235.0</ele><time>2026-04-13T06:34:56Z</time></trkpt><trkpt lat="-29.068088804967758" lon="115.0967768726977"><ele>237.66666666666666</ele><time>2026-04-13T06:34:57Z</time></trkpt><trkpt lat="-29.06791999904426" lon="115.09679117204371"><ele>240.33333333333331</ele><time>2026-04-13T06:34:58Z</time></trkpt><trkpt lat="-29.067736379717793" lon="115.09680549302941"><ele>243.0</ele><time>2026-04-13T06:34:59Z</time></trkpt><trkpt lat="-29.067547477222455" lon="115.09682206044957"><ele>243.66666666666669</ele><time>2026-04-13T06:35:00Z</time></trkpt><trkpt lat="-29.06735147308683" lon="115.09683624134428"><ele>244.33333333333334</ele><time>2026-04-13T06:35:01Z</time></trkpt><trkpt lat="-29.067153655152847" lon="115.09684771785652"><ele>245.0</ele><time>2026-04-13T06:35:02Z</time></trkpt><trkpt lat="-29.066946513073184" lon="115.09685565938697"><ele>245.0</ele><time>2026-04-13T06:35:03Z</time></trkpt><trkpt lat="-29.066743847562865" lon="115.09685991355595"><ele>245.0</ele><time>2026-04-13T06:35:04Z</time></trkpt><trkpt lat="-29.066531189973237" lon="115.09686481505206"><ele>245.0</ele><time>2026-04-13T06:35:05Z</time></trkpt><trkpt lat="-29.066330059631124" lon="115.0968708521718"><ele>245.0</ele><time>2026-04-13T06:35:06Z</time></trkpt><trkpt lat="-29.066149526742976" lon="115.09687612267855"><ele>245.0</ele><time>2026-04-13T06:35:07Z</time></trkpt><trkpt lat="-29.065979367519596" lon="115.09688499906949"><ele>245.0</ele><time>2026-04-13T06:35:08Z</time></trkpt><trkpt lat="-29.06581982287039" lon="115.09688853918625"><ele>244.33333333333334</ele><time>2026-04-13T06:35:09Z</time></trkpt><trkpt lat="-29.065659742042886" lon="115.0968894075948"><ele>243.66666666666669</ele><time>2026-04-13T06:35:10Z</time></trkpt><trkpt lat="-29.065500305512288" lon="115.09688642278861"><ele>243.0</ele><time>2026-04-13T06:35:11Z</time></trkpt><trkpt lat="-29.06533416714852" lon="115.09688817048136"><ele>243.0</ele><time>2026-04-13T06:35:12Z</time></trkpt><trkpt lat="-29.06516683581804" lon="115.096888678793"><ele>243.0</ele><time>2026-04-13T06:35:13Z</time></trkpt><trkpt lat="-29.06498778611919" lon="115.09689020262012"><ele>243.0</ele><time>2026-04-13T06:35:14Z</time></trkpt><trkpt lat="-29.06479751401295" lon="115.09688644275587"><ele>241.66666666666669</ele><time>2026-04-13T06:35:15Z</time></trkpt><trkpt lat="-29.064600923129568" lon="115.09688945062871"><ele>240.33333333333334</ele><time>2026-04-13T06:35:16Z</time></trkpt><trkpt lat="-29.064393727085694" lon="115.09689331244856"><ele>239.0</ele><time>2026-04-13T06:35:17Z</time></trkpt><trkpt lat="-29.064169787827304" lon="115.09689442329511"><ele>237.5</ele><time>2026-04-13T06:35:18Z</time></trkpt><trkpt lat="-29.06394329404025" lon="115.09689529100297"><ele>236.0</ele><time>2026-04-13T06:35:19Z</time></trkpt><trkpt lat="-29.063709742116547" lon="115.09689517373101"><ele>236.0</ele><time>2026-04-13T06:35:20Z</time></trkpt><trkpt lat="-29.06347229226708" lon="115.09689970163356"><ele>236.0</ele><time>2026-04-13T06:35:21Z</time></trkpt><trkpt lat="-29.063217307064168" lon="115.09689959310535"><ele>235.5</ele><time>2026-04-13T06:35:22Z</time></trkpt><trkpt lat="-29.062959528386994" lon="115.09689720990092"><ele>235.0</ele><time>2026-04-13T06:35:23Z</time></trkpt><trkpt lat="-29.062709691168873" lon="115.09689138447773"><ele>235.0</ele><time>2026-04-13T06:35:24Z</time></trkpt><trkpt lat="-29.0624635855528" lon="115.09689009613152"><ele>235.0</ele><time>2026-04-13T06:35:25Z</time></trkpt><trkpt lat="-29.062214880097404" lon="115.09688955496289"><ele>235.0</ele><time>2026-04-13T06:35:26Z</time></trkpt><trkpt lat="-29.061965860086968" lon="115.09689270330674"><ele>235.0</ele><time>2026-04-13T06:35:27Z</time></trkpt><trkpt lat="-29.061713861883817" lon="115.09689373042237"><ele>233.5</ele><time>2026-04-13T06:35:28Z</time></trkpt><trkpt lat="-29.061460173828436" lon="115.09689169462766"><ele>232.0</ele><time>2026-04-13T06:35:29Z</time></trkpt><trkpt lat="-29.061203176267348" lon="115.09689110123512"><ele>232.0</ele><time>2026-04-13T06:35:30Z</time></trkpt><trkpt lat="-29.060940731609183" lon="115.09689125169614"><ele>232.0</ele><time>2026-04-13T06:35:31Z</time></trkpt><trkpt lat="-29.0606790295317" lon="115.09688944187296"><ele>231.0</ele><time>2026-04-13T06:35:32Z</time></trkpt><trkpt lat="-29.060411985624178" lon="115.09688755861619"><ele>230.0</ele><time>2026-04-13T06:35:33Z</time></trkpt><trkpt lat="-29.060140565635212" lon="115.0968874462981"><ele>230.5</ele><time>2026-04-13T06:35:34Z</time></trkpt><trkpt lat="-29.05986852466884" lon="115.0968894150425"><ele>231.0</ele><time>2026-04-13T06:35:35Z</time></trkpt><trkpt lat="-29.059592577164317" lon="115.09688846761897"><ele>231.0</ele><time>2026-04-13T06:35:36Z</time></trkpt><trkpt lat="-29.059313608802107" lon="115.09688792299124"><ele>231.0</ele><time>2026-04-13T06:35:37Z</time></trkpt><trkpt lat="-29.059034031631015" lon="115.09688956571924"><ele>231.5</ele><time>2026-04-13T06:35:38Z</time></trkpt><trkpt lat="-29.058749809552527" lon="115.09689314766801"><ele>232.0</ele><time>2026-04-13T06:35:39Z</time></trkpt><trkpt lat="-29.058459983527566" lon="115.09689678453782"><ele>232.5</ele><time>2026-04-13T06:35:40Z</time></trkpt><trkpt lat="-29.058171447545288" lon="115.09690168316216"><ele>233.0</ele><time>2026-04-13T06:35:41Z</time></trkpt><trkpt lat="-29.057886372840674" lon="115.09690507686179"><ele>233.0</ele><time>2026-04-13T06:35:42Z</time></trkpt><trkpt lat="-29.057604062945884" lon="115.09690848093229"><ele>233.0</ele><time>2026-04-13T06:35:43Z</time></trkpt><trkpt lat="-29.05732387015885" lon="115.09690910473837"><ele>232.0</ele><time>2026-04-13T06:35:44Z</time></trkpt><trkpt lat="-29.05704176843351" lon="115.09691042839678"><ele>231.0</ele><time>2026-04-13T06:35:45Z</time></trkpt><trkpt lat="-29.056756883820146" lon="115.09690815956439"><ele>228.5</ele><time>2026-04-13T06:35:46Z</time></trkpt><trkpt lat="-29.056472311775405" lon="115.09690721567168"><ele>226.0</ele><time>2026-04-13T06:35:47Z</time></trkpt><trkpt lat="-29.05618575702034" lon="115.09690896257264"><ele>226.0</ele><time>2026-04-13T06:35:48Z</time></trkpt><trkpt lat="-29.055895637937976" lon="115.09691290714666"><ele>226.0</ele><time>2026-04-13T06:35:49Z</time></trkpt><trkpt lat="-29.055600882497348" lon="115.09691432957074"><ele>224.0</ele><time>2026-04-13T06:35:50Z</time></trkpt><trkpt lat="-29.055306888049824" lon="115.09691260130879"><ele>222.0</ele><time>2026-04-13T06:35:51Z</time></trkpt><trkpt lat="-29.055012959496494" lon="115.09691071346464"><ele>223.5</ele><time>2026-04-13T06:35:52Z</time></trkpt><trkpt lat="-29.0547162327744" lon="115.09690690802256"><ele>225.0</ele><time>2026-04-13T06:35:53Z</time></trkpt><trkpt lat="-29.0544261984704" lon="115.09690718563887"><ele>225.0</ele><time>2026-04-13T06:35:54Z</time></trkpt><trkpt lat="-29.054145107712845" lon="115.09690421575444"><ele>225.0</ele><time>2026-04-13T06:35:55Z</time></trkpt><trkpt lat="-29.053877744772596" lon="115.0969053607838"><ele>227.5</ele><time>2026-04-13T06:35:56Z</time></trkpt><trkpt lat="-29.053620357781053" lon="115.09690497030147"><ele>230.0</ele><time>2026-04-13T06:35:57Z</time></trkpt><trkpt lat="-29.05336332217841" lon="115.09690207602574"><ele>232.5</ele><time>2026-04-13T06:35:58Z</time></trkpt><trkpt lat="-29.053103274671077" lon="115.09690023555086"><ele>235.0</ele><time>2026-04-13T06:35:59Z</time></trkpt><trkpt lat="-29.052835532348688" lon="115.09690161469858"><ele>235.0</ele><time>2026-04-13T06:36:00Z</time></trkpt><trkpt lat="-29.052562472350697" lon="115.0969065514976"><ele>235.0</ele><time>2026-04-13T06:36:01Z</time></trkpt><trkpt lat="-29.052285429733594" lon="115.09691293797793"><ele>234.0</ele><time>2026-04-13T06:36:02Z</time></trkpt><trkpt lat="-29.0520076110285" lon="115.09691663747537"><ele>233.0</ele><time>2026-04-13T06:36:03Z</time></trkpt><trkpt lat="-29.051722860218405" lon="115.0969155912374"><ele>232.5</ele><time>2026-04-13T06:36:04Z</time></trkpt><trkpt lat="-29.051432425977968" lon="115.09691056860457"><ele>232.0</ele><time>2026-04-13T06:36:05Z</time></trkpt><trkpt lat="-29.051139979621205" lon="115.09690561677637"><ele>232.0</ele><time>2026-04-13T06:36:06Z</time></trkpt><trkpt lat="-29.050842322481827" lon="115.09690223262723"><ele>232.0</ele><time>2026-04-13T06:36:07Z</time></trkpt><trkpt lat="-29.050541156128546" lon="115.09690049508664"><ele>231.5</ele><time>2026-04-13T06:36:08Z</time></trkpt><trkpt lat="-29.05023494469931" lon="115.0968987058095"><ele>231.0</ele><time>2026-04-13T06:36:09Z</time></trkpt><trkpt lat="-29.04993100289345" lon="115.09690063528225"><ele>229.0</ele><time>2026-04-13T06:36:10Z</time></trkpt><trkpt lat="-29.04962245167151" lon="115.09690233710822"><ele>227.0</ele><time>2026-04-13T06:36:11Z</time></trkpt><trkpt lat="-29.04931504248419" lon="115.09690284184975"><ele>225.0</ele><time>2026-04-13T06:36:12Z</time></trkpt><trkpt lat="-29.04900419811014" lon="115.09689987596796"><ele>223.0</ele><time>2026-04-13T06:36:13Z</time></trkpt><trkpt lat="-29.048700533660995" lon="115.09689992809025"><ele>223.0</ele><time>2026-04-13T06:36:14Z</time></trkpt><trkpt lat="-29.048392098083056" lon="115.09689735436113"><ele>223.0</ele><time>2026-04-13T06:36:15Z</time></trkpt><trkpt lat="-29.048087955702904" lon="115.09689489795649"><ele>220.5</ele><time>2026-04-13T06:36:16Z</time></trkpt><trkpt lat="-29.0477798260443" lon="115.09689145399058"><ele>218.0</ele><time>2026-04-13T06:36:17Z</time></trkpt><trkpt lat="-29.04746863308098" lon="115.09689070891196"><ele>217.0</ele><time>2026-04-13T06:36:18Z</time></trkpt><trkpt lat="-29.04715582495042" lon="115.09689210545929"><ele>216.0</ele><time>2026-04-13T06:36:19Z</time></trkpt><trkpt lat="-29.046842302254948" lon="115.0968927099086"><ele>216.5</ele><time>2026-04-13T06:36:20Z</time></trkpt><trkpt lat="-29.04652842817578" lon="115.09689085534279"><ele>217.0</ele><time>2026-04-13T06:36:21Z</time></trkpt><trkpt lat="-29.04621288224154" lon="115.09688663850673"><ele>217.0</ele><time>2026-04-13T06:36:22Z</time></trkpt><trkpt lat="-29.045897206091876" lon="115.09688622756761"><ele>217.0</ele><time>2026-04-13T06:36:23Z</time></trkpt><trkpt lat="-29.045578720483476" lon="115.09688820800078"><ele>217.0</ele><time>2026-04-13T06:36:24Z</time></trkpt><trkpt lat="-29.045257002896918" lon="115.09689116280505"><ele>217.0</ele><time>2026-04-13T06:36:25Z</time></trkpt><trkpt lat="-29.04493840027015" lon="115.09689201359541"><ele>217.0</ele><time>2026-04-13T06:36:26Z</time></trkpt><trkpt lat="-29.044628494175456" lon="115.09689048602762"><ele>217.0</ele><time>2026-04-13T06:36:27Z</time></trkpt><trkpt lat="-29.04431531300723" lon="115.09688280882999"><ele>216.5</ele><time>2026-04-13T06:36:28Z</time></trkpt><trkpt lat="-29.044012537952305" lon="115.09687424716817"><ele>216.0</ele><time>2026-04-13T06:36:29Z</time></trkpt><trkpt lat="-29.043715865623433" lon="115.0968703850942"><ele>216.0</ele><time>2026-04-13T06:36:30Z</time></trkpt><trkpt lat="-29.043421191109655" lon="115.09687403293074"><ele>216.0</ele><time>2026-04-13T06:36:31Z</time></trkpt><trkpt lat="-29.043127142884668" lon="115.09687628218279"><ele>217.5</ele><time>2026-04-13T06:36:32Z</time></trkpt><trkpt lat="-29.042831456200588" lon="115.09687816153074"><ele>219.0</ele><time>2026-04-13T06:36:33Z</time></trkpt><trkpt lat="-29.042537504506818" lon="115.0968790137591"><ele>220.0</ele><time>2026-04-13T06:36:34Z</time></trkpt><trkpt lat="-29.042239170886774" lon="115.09687777660024"><ele>221.0</ele><time>2026-04-13T06:36:35Z</time></trkpt><trkpt lat="-29.041940545275104" lon="115.09687758795984"><ele>221.0</ele><time>2026-04-13T06:36:36Z</time></trkpt><trkpt lat="-29.041645551250173" lon="115.09688020895305"><ele>221.0</ele><time>2026-04-13T06:36:37Z</time></trkpt><trkpt lat="-29.04134809919493" lon="115.09688082397584"><ele>222.0</ele><time>2026-04-13T06:36:38Z</time></trkpt><trkpt lat="-29.041044898769016" lon="115.09688199595217"><ele>223.0</ele><time>2026-04-13T06:36:39Z</time></trkpt><trkpt lat="-29.04074123923344" lon="115.09688453752189"><ele>224.0</ele><time>2026-04-13T06:36:40Z</time></trkpt><trkpt lat="-29.04043841856479" lon="115.09688768404062"><ele>225.0</ele><time>2026-04-13T06:36:41Z</time></trkpt><trkpt lat="-29.040135782178464" lon="115.09689170408554"><ele>224.5</ele><time>2026-04-13T06:36:42Z</time></trkpt><trkpt lat="-29.039834943209897" lon="115.0968935038657"><ele>224.0</ele><time>2026-04-13T06:36:43Z</time></trkpt><trkpt lat="-29.03953366768829" lon="115.0968911893705"><ele>224.0</ele><time>2026-04-13T06:36:44Z</time></trkpt><trkpt lat="-29.03923531154963" lon="115.09688705514844"><ele>224.0</ele><time>2026-04-13T06:36:45Z</time></trkpt><trkpt lat="-29.038942285449792" lon="115.09688163898427"><ele>227.0</ele><time>2026-04-13T06:36:46Z</time></trkpt><trkpt lat="-29.038658665334935" lon="115.09688178930439"><ele>230.0</ele><time>2026-04-13T06:36:47Z</time></trkpt><trkpt lat="-29.038374834805044" lon="115.09688341444159"><ele>231.0</ele><time>2026-04-13T06:36:48Z</time></trkpt><trkpt lat="-29.038097385433865" lon="115.09688596381777"><ele>232.0</ele><time>2026-04-13T06:36:49Z</time></trkpt><trkpt lat="-29.03781735256263" lon="115.09688378303824"><ele>232.0</ele><time>2026-04-13T06:36:50Z</time></trkpt><trkpt lat="-29.037538828210998" lon="115.09688387811728"><ele>232.0</ele><time>2026-04-13T06:36:51Z</time></trkpt><trkpt lat="-29.037258554324197" lon="115.09688734582491"><ele>234.0</ele><time>2026-04-13T06:36:52Z</time></trkpt><trkpt lat="-29.03698672709531" lon="115.0968911532835"><ele>236.0</ele><time>2026-04-13T06:36:53Z</time></trkpt><trkpt lat="-29.036710124010437" lon="115.09689239856631"><ele>237.5</ele><time>2026-04-13T06:36:54Z</time></trkpt><trkpt lat="-29.03644564043641" lon="115.09689445407896"><ele>239.0</ele><time>2026-04-13T06:36:55Z</time></trkpt><trkpt lat="-29.036178883224625" lon="115.09689363828333"><ele>239.0</ele><time>2026-04-13T06:36:56Z</time></trkpt><trkpt lat="-29.035913085438608" lon="115.09689227457616"><ele>239.0</ele><time>2026-04-13T06:36:57Z</time></trkpt><trkpt lat="-29.035641073981278" lon="115.0968918275277"><ele>239.0</ele><time>2026-04-13T06:36:58Z</time></trkpt><trkpt lat="-29.035359615409476" lon="115.09689526851835"><ele>239.0</ele><time>2026-04-13T06:36:59Z</time></trkpt><trkpt lat="-29.03507602757373" lon="115.09689941699679"><ele>239.0</ele><time>2026-04-13T06:37:00Z</time></trkpt><trkpt lat="-29.034784003795025" lon="115.09690330563414"><ele>239.0</ele><time>2026-04-13T06:37:01Z</time></trkpt><trkpt lat="-29.03449045792859" lon="115.09690368067831"><ele>239.0</ele><time>2026-04-13T06:37:02Z</time></trkpt><trkpt lat="-29.034189402970878" lon="115.09690309142874"><ele>239.0</ele><time>2026-04-13T06:37:03Z</time></trkpt><trkpt lat="-29.03388761159231" lon="115.09690061533473"><ele>239.0</ele><time>2026-04-13T06:37:04Z</time></trkpt><trkpt lat="-29.033584609534607" lon="115.09689698221746"><ele>239.0</ele><time>2026-04-13T06:37:05Z</time></trkpt><trkpt lat="-29.033280704578598" lon="115.09689659496856"><ele>239.0</ele><time>2026-04-13T06:37:06Z</time></trkpt><trkpt lat="-29.03297580147011" lon="115.09689733907607"><ele>239.0</ele><time>2026-04-13T06:37:07Z</time></trkpt><trkpt lat="-29.03266885854891" lon="115.09689974584462"><ele>238.5</ele><time>2026-04-13T06:37:08Z</time></trkpt><trkpt lat="-29.032358108036934" lon="115.09690242125092"><ele>238.0</ele><time>2026-04-13T06:37:09Z</time></trkpt><trkpt lat="-29.0320492764299" lon="115.0969067590957"><ele>238.0</ele><time>2026-04-13T06:37:10Z</time></trkpt><trkpt lat="-29.031739290594434" lon="115.09690920584048"><ele>238.0</ele><time>2026-04-13T06:37:11Z</time></trkpt><trkpt lat="-29.031433223748326" lon="115.09690725023266"><ele>237.0</ele><time>2026-04-13T06:37:12Z</time></trkpt><trkpt lat="-29.031126491604294" lon="115.09690247158133"><ele>236.0</ele><time>2026-04-13T06:37:13Z</time></trkpt><trkpt lat="-29.030822147559487" lon="115.09689952391525"><ele>234.0</ele><time>2026-04-13T06:37:14Z</time></trkpt><trkpt lat="-29.03051311336736" lon="115.09690117853917"><ele>232.0</ele><time>2026-04-13T06:37:15Z</time></trkpt><trkpt lat="-29.030200920073792" lon="115.09690562572257"><ele>230.5</ele><time>2026-04-13T06:37:16Z</time></trkpt><trkpt lat="-29.029890433012056" lon="115.09690970646781"><ele>229.0</ele><time>2026-04-13T06:37:17Z</time></trkpt><trkpt lat="-29.0295853556715" lon="115.0969120278956"><ele>229.0</ele><time>2026-04-13T06:37:18Z</time></trkpt><trkpt lat="-29.029279685900917" lon="115.09691312915986"><ele>229.0</ele><time>2026-04-13T06:37:19Z</time></trkpt><trkpt lat="-29.028969809934814" lon="115.0969076660125"><ele>228.5</ele><time>2026-04-13T06:37:20Z</time></trkpt><trkpt lat="-29.0286581681613" lon="115.09690271485564"><ele>228.0</ele><time>2026-04-13T06:37:21Z</time></trkpt><trkpt lat="-29.028346940082265" lon="115.09689725306454"><ele>225.5</ele><time>2026-04-13T06:37:22Z</time></trkpt><trkpt lat="-29.028033764871637" lon="115.09689386374124"><ele>223.0</ele><time>2026-04-13T06:37:23Z</time></trkpt><trkpt lat="-29.027717700712074" lon="115.09689633389169"><ele>221.5</ele><time>2026-04-13T06:37:24Z</time></trkpt><trkpt lat="-29.027398887622596" lon="115.09690452528885"><ele>220.0</ele><time>2026-04-13T06:37:25Z</time></trkpt><trkpt lat="-29.02708024347183" lon="115.09690991364917"><ele>220.0</ele><time>2026-04-13T06:37:26Z</time></trkpt><trkpt lat="-29.02676324191816" lon="115.09691323411253"><ele>220.0</ele><time>2026-04-13T06:37:27Z</time></trkpt><trkpt lat="-29.026444128604403" lon="115.09691237839596"><ele>219.5</ele><time>2026-04-13T06:37:28Z</time></trkpt><trkpt lat="-29.026127643592776" lon="115.09690646717458"><ele>219.0</ele><time>2026-04-13T06:37:29Z</time></trkpt><trkpt lat="-29.025817140347527" lon="115.09690181576816"><ele>218.0</ele><time>2026-04-13T06:37:30Z</time></trkpt><trkpt lat="-29.025508209343894" lon="115.09690051776985"><ele>217.0</ele><time>2026-04-13T06:37:31Z</time></trkpt><trkpt lat="-29.02520410932457" lon="115.09689825047948"><ele>216.0</ele><time>2026-04-13T06:37:32Z</time></trkpt><trkpt lat="-29.024904337896395" lon="115.09689485488748"><ele>215.0</ele><time>2026-04-13T06:37:33Z</time></trkpt><trkpt lat="-29.02460586459162" lon="115.09689316790015"><ele>215.0</ele><time>2026-04-13T06:37:34Z</time></trkpt><trkpt lat="-29.024304813941615" lon="115.09689584132549"><ele>215.0</ele><time>2026-04-13T06:37:35Z</time></trkpt><trkpt lat="-29.024002883631045" lon="115.09690202746631"><ele>216.0</ele><time>2026-04-13T06:37:36Z</time></trkpt><trkpt lat="-29.02370017362671" lon="115.09690506565292"><ele>217.0</ele><time>2026-04-13T06:37:37Z</time></trkpt><trkpt lat="-29.023396334716875" lon="115.09690715434822"><ele>219.5</ele><time>2026-04-13T06:37:38Z</time></trkpt><trkpt lat="-29.02308772477615" lon="115.09690821861963"><ele>222.0</ele><time>2026-04-13T06:37:39Z</time></trkpt><trkpt lat="-29.022783456938733" lon="115.09690950832602"><ele>223.0</ele><time>2026-04-13T06:37:40Z</time></trkpt><trkpt lat="-29.022472583739987" lon="115.09691248768806"><ele>224.0</ele><time>2026-04-13T06:37:41Z</time></trkpt><trkpt lat="-29.022163347956408" lon="115.0968949103339"><ele>224.0</ele><time>2026-04-13T06:37:42Z</time></trkpt><trkpt lat="-29.02185140609754" lon="115.0968949103365"><ele>224.0</ele><time>2026-04-13T06:37:43Z</time></trkpt><trkpt lat="-29.021540999649403" lon="115.09689491033912"><ele>224.5</ele><time>2026-04-13T06:37:44Z</time></trkpt><trkpt lat="-29.021225633677975" lon="115.09691086049554"><ele>225.0</ele><time>2026-04-13T06:37:45Z</time></trkpt><trkpt lat="-29.02090636401695" lon="115.09690614968807"><ele>226.0</ele><time>2026-04-13T06:37:46Z</time></trkpt><trkpt lat="-29.02058723941171" lon="115.09690485661201"><ele>227.0</ele><time>2026-04-13T06:37:47Z</time></trkpt><trkpt lat="-29.02027233429723" lon="115.09690475205942"><ele>227.5</ele><time>2026-04-13T06:37:48Z</time></trkpt><trkpt lat="-29.019960984951435" lon="115.09690564927969"><ele>228.0</ele><time>2026-04-13T06:37:49Z</time></trkpt><trkpt lat="-29.01965998121556" lon="115.09690744148412"><ele>228.0</ele><time>2026-04-13T06:37:50Z</time></trkpt><trkpt lat="-29.019360877404075" lon="115.09690631368169"><ele>228.0</ele><time>2026-04-13T06:37:51Z</time></trkpt><trkpt lat="-29.019085430302614" lon="115.09690564161713"><ele>228.0</ele><time>2026-04-13T06:37:52Z</time></trkpt><trkpt lat="-29.018840022751824" lon="115.09690442145056"><ele>228.0</ele><time>2026-04-13T06:37:53Z</time></trkpt><trkpt lat="-29.0186188593563" lon="115.09690385664537"><ele>228.0</ele><time>2026-04-13T06:37:54Z</time></trkpt><trkpt lat="-29.018429150857312" lon="115.09690275090134"><ele>228.0</ele><time>2026-04-13T06:37:55Z</time></trkpt><trkpt lat="-29.018278321090786" lon="115.09689887970356"><ele>228.0</ele><time>2026-04-13T06:37:56Z</time></trkpt><trkpt lat="-29.018151172670184" lon="115.09688454704359"><ele>229.0</ele><time>2026-04-13T06:37:57Z</time></trkpt><trkpt lat="-29.018044866830742" lon="115.09683447394188"><ele>230.0</ele><time>2026-04-13T06:37:58Z</time></trkpt><trkpt lat="-29.01794375494081" lon="115.09678902507368"><ele>231.0</ele><time>2026-04-13T06:37:59Z</time></trkpt><trkpt lat="-29.017825759945893" lon="115.09669104773985"><ele>232.0</ele><time>2026-04-13T06:38:00Z</time></trkpt><trkpt lat="-29.017678971062075" lon="115.09660317785497"><ele>231.66666666666666</ele><time>2026-04-13T06:38:01Z</time></trkpt><trkpt lat="-29.01751125204288" lon="115.09650723999884"><ele>231.33333333333331</ele><time>2026-04-13T06:38:02Z</time></trkpt><trkpt lat="-29.017401585915465" lon="115.09623826737644"><ele>231.0</ele><time>2026-04-13T06:38:03Z</time></trkpt><trkpt lat="-29.017245973677408" lon="115.0960545413011"><ele>231.0</ele><time>2026-04-13T06:38:04Z</time></trkpt><trkpt lat="-29.017072894095296" lon="115.09585572141134"><ele>231.0</ele><time>2026-04-13T06:38:05Z</time></trkpt><trkpt lat="-29.01689354308597" lon="115.09566098436389"><ele>230.0</ele><time>2026-04-13T06:38:06Z</time></trkpt><trkpt lat="-29.016710033863614" lon="115.09546405933118"><ele>229.0</ele><time>2026-04-13T06:38:07Z</time></trkpt><trkpt lat="-29.016520361782785" lon="115.0952640046797"><ele>228.0</ele><time>2026-04-13T06:38:08Z</time></trkpt><trkpt lat="-29.01632149660525" lon="115.09505250805091"><ele>227.0</ele><time>2026-04-13T06:38:09Z</time></trkpt><trkpt lat="-29.016115693627395" lon="115.09482530971441"><ele>227.0</ele><time>2026-04-13T06:38:10Z</time></trkpt><trkpt lat="-29.015911939982647" lon="115.09459664851502"><ele>227.0</ele><time>2026-04-13T06:38:11Z</time></trkpt><trkpt lat="-29.015712678302094" lon="115.09437907882186"><ele>227.5</ele><time>2026-04-13T06:38:12Z</time></trkpt><trkpt lat="-29.015513374291576" lon="115.09416133243384"><ele>228.0</ele><time>2026-04-13T06:38:13Z</time></trkpt><trkpt lat="-29.01531066589814" lon="115.09393590913005"><ele>227.0</ele><time>2026-04-13T06:38:14Z</time></trkpt><trkpt lat="-29.015108925438614" lon="115.093712621585"><ele>226.0</ele><time>2026-04-13T06:38:15Z</time></trkpt><trkpt lat="-29.014903127325262" lon="115.09348555611302"><ele>223.5</ele><time>2026-04-13T06:38:16Z</time></trkpt><trkpt lat="-29.014691908517698" lon="115.09325183502042"><ele>221.0</ele><time>2026-04-13T06:38:17Z</time></trkpt><trkpt lat="-29.014477607707388" lon="115.09301632094635"><ele>221.0</ele><time>2026-04-13T06:38:18Z</time></trkpt><trkpt lat="-29.014260453561647" lon="115.09277903006178"><ele>221.0</ele><time>2026-04-13T06:38:19Z</time></trkpt><trkpt lat="-29.014042100681444" lon="115.09253712516441"><ele>221.5</ele><time>2026-04-13T06:38:20Z</time></trkpt><trkpt lat="-29.013822805517666" lon="115.0922921319761"><ele>222.0</ele><time>2026-04-13T06:38:21Z</time></trkpt><trkpt lat="-29.013600939588173" lon="115.09204116181077"><ele>222.0</ele><time>2026-04-13T06:38:22Z</time></trkpt><trkpt lat="-29.013375504517395" lon="115.09178967145107"><ele>222.0</ele><time>2026-04-13T06:38:23Z</time></trkpt><trkpt lat="-29.01314646040845" lon="115.0915401033766"><ele>222.0</ele><time>2026-04-13T06:38:24Z</time></trkpt><trkpt lat="-29.012917215804098" lon="115.09129277456253"><ele>222.0</ele><time>2026-04-13T06:38:25Z</time></trkpt><trkpt lat="-29.012689051412895" lon="115.091046821796"><ele>222.0</ele><time>2026-04-13T06:38:26Z</time></trkpt><trkpt lat="-29.012464225746186" lon="115.09080802862218"><ele>222.0</ele><time>2026-04-13T06:38:27Z</time></trkpt><trkpt lat="-29.012246057560855" lon="115.0905741878827"><ele>222.0</ele><time>2026-04-13T06:38:28Z</time></trkpt><trkpt lat="-29.01203288240806" lon="115.09033993864472"><ele>222.0</ele><time>2026-04-13T06:38:29Z</time></trkpt><trkpt lat="-29.011823578984888" lon="115.09010671484597"><ele>222.0</ele><time>2026-04-13T06:38:30Z</time></trkpt><trkpt lat="-29.011619637098885" lon="115.08987075204377"><ele>222.0</ele><time>2026-04-13T06:38:31Z</time></trkpt><trkpt lat="-29.011411132255894" lon="115.08963608938097"><ele>222.0</ele><time>2026-04-13T06:38:32Z</time></trkpt><trkpt lat="-29.011204633106022" lon="115.0894080334825"><ele>222.0</ele><time>2026-04-13T06:38:33Z</time></trkpt><trkpt lat="-29.010995958209403" lon="115.08918059427398"><ele>222.5</ele><time>2026-04-13T06:38:34Z</time></trkpt><trkpt lat="-29.01078792843817" lon="115.08895072661637"><ele>223.0</ele><time>2026-04-13T06:38:35Z</time></trkpt><trkpt lat="-29.01058040222073" lon="115.08872230216366"><ele>223.0</ele><time>2026-04-13T06:38:36Z</time></trkpt><trkpt lat="-29.01037181630651" lon="115.08849315757617"><ele>223.0</ele><time>2026-04-13T06:38:37Z</time></trkpt><trkpt lat="-29.010162310717973" lon="115.08826406282076"><ele>223.5</ele><time>2026-04-13T06:38:38Z</time></trkpt><trkpt lat="-29.009954200643985" lon="115.08803356706501"><ele>224.0</ele><time>2026-04-13T06:38:39Z</time></trkpt><trkpt lat="-29.00974341018922" lon="115.08779745213657"><ele>224.0</ele><time>2026-04-13T06:38:40Z</time></trkpt><trkpt lat="-29.009535975547" lon="115.08756239635136"><ele>224.0</ele><time>2026-04-13T06:38:41Z</time></trkpt><trkpt lat="-29.009326517001124" lon="115.08732767119257"><ele>226.0</ele><time>2026-04-13T06:38:42Z</time></trkpt><trkpt lat="-29.00911756190613" lon="115.0870893494161"><ele>228.0</ele><time>2026-04-13T06:38:43Z</time></trkpt><trkpt lat="-29.008910590622712" lon="115.08685673075905"><ele>228.0</ele><time>2026-04-13T06:38:44Z</time></trkpt><trkpt lat="-29.008712316852137" lon="115.08661541032208"><ele>228.0</ele><time>2026-04-13T06:38:45Z</time></trkpt><trkpt lat="-29.00851846386933" lon="115.0863602810878"><ele>227.0</ele><time>2026-04-13T06:38:46Z</time></trkpt><trkpt lat="-29.008326569081127" lon="115.08610110945762"><ele>226.0</ele><time>2026-04-13T06:38:47Z</time></trkpt><trkpt lat="-29.008141473133087" lon="115.08583573115801"><ele>225.5</ele><time>2026-04-13T06:38:48Z</time></trkpt><trkpt lat="-29.007960094493264" lon="115.08556856637162"><ele>225.0</ele><time>2026-04-13T06:38:49Z</time></trkpt><trkpt lat="-29.007785467794886" lon="115.08529327990037"><ele>225.0</ele><time>2026-04-13T06:38:50Z</time></trkpt><trkpt lat="-29.007610882431116" lon="115.08502212869858"><ele>225.0</ele><time>2026-04-13T06:38:51Z</time></trkpt><trkpt lat="-29.00743046369481" lon="115.08475666316968"><ele>226.0</ele><time>2026-04-13T06:38:52Z</time></trkpt><trkpt lat="-29.0072476261803" lon="115.08449121640875"><ele>227.0</ele><time>2026-04-13T06:38:53Z</time></trkpt><trkpt lat="-29.00706602996952" lon="115.08422318038299"><ele>227.0</ele><time>2026-04-13T06:38:54Z</time></trkpt><trkpt lat="-29.00688142363212" lon="115.08395189360743"><ele>227.0</ele><time>2026-04-13T06:38:55Z</time></trkpt><trkpt lat="-29.00669891156421" lon="115.08368066619536"><ele>227.0</ele><time>2026-04-13T06:38:56Z</time></trkpt><trkpt lat="-29.00651916948424" lon="115.08340259123185"><ele>227.0</ele><time>2026-04-13T06:38:57Z</time></trkpt><trkpt lat="-29.00633889436108" lon="115.08312476730539"><ele>227.0</ele><time>2026-04-13T06:38:58Z</time></trkpt><trkpt lat="-29.00615291645355" lon="115.08284366766426"><ele>227.0</ele><time>2026-04-13T06:38:59Z</time></trkpt><trkpt lat="-29.005962558604917" lon="115.0825603426106"><ele>227.5</ele><time>2026-04-13T06:39:00Z</time></trkpt><trkpt lat="-29.005768183647408" lon="115.08227817601606"><ele>228.0</ele><time>2026-04-13T06:39:01Z</time></trkpt><trkpt lat="-29.005574324288318" lon="115.0819912330612"><ele>228.0</ele><time>2026-04-13T06:39:02Z</time></trkpt><trkpt lat="-29.005377944572455" lon="115.08170164575667"><ele>228.0</ele><time>2026-04-13T06:39:03Z</time></trkpt><trkpt lat="-29.005183318921297" lon="115.08141074108033"><ele>230.0</ele><time>2026-04-13T06:39:04Z</time></trkpt><trkpt lat="-29.004990238683018" lon="115.08111710902817"><ele>232.0</ele><time>2026-04-13T06:39:05Z</time></trkpt><trkpt lat="-29.004798819975715" lon="115.08082035310959"><ele>232.5</ele><time>2026-04-13T06:39:06Z</time></trkpt><trkpt lat="-29.004603961614357" lon="115.08052400049846"><ele>233.0</ele><time>2026-04-13T06:39:07Z</time></trkpt><trkpt lat="-29.00440913830804" lon="115.08022678941039"><ele>233.0</ele><time>2026-04-13T06:39:08Z</time></trkpt><trkpt lat="-29.004209799882645" lon="115.07993047674029"><ele>233.0</ele><time>2026-04-13T06:39:09Z</time></trkpt><trkpt lat="-29.004008355190955" lon="115.07963506257904"><ele>233.0</ele><time>2026-04-13T06:39:10Z</time></trkpt><trkpt lat="-29.00380954037262" lon="115.07934153206612"><ele>233.0</ele><time>2026-04-13T06:39:11Z</time></trkpt><trkpt lat="-29.003610272803073" lon="115.07904698989825"><ele>233.0</ele><time>2026-04-13T06:39:12Z</time></trkpt><trkpt lat="-29.003408460173745" lon="115.0787554859411"><ele>233.0</ele><time>2026-04-13T06:39:13Z</time></trkpt><trkpt lat="-29.00320761092691" lon="115.07846954537803"><ele>233.0</ele><time>2026-04-13T06:39:14Z</time></trkpt><trkpt lat="-29.00301094796982" lon="115.07817876860258"><ele>233.0</ele><time>2026-04-13T06:39:15Z</time></trkpt><trkpt lat="-29.002816524603652" lon="115.0778857816007"><ele>233.0</ele><time>2026-04-13T06:39:16Z</time></trkpt><trkpt lat="-29.002624835711902" lon="115.07759428516835"><ele>233.0</ele><time>2026-04-13T06:39:17Z</time></trkpt><trkpt lat="-29.002432437424662" lon="115.07730387965508"><ele>234.0</ele><time>2026-04-13T06:39:18Z</time></trkpt><trkpt lat="-29.002240066168838" lon="115.07701957056267"><ele>235.0</ele><time>2026-04-13T06:39:19Z</time></trkpt><trkpt lat="-29.00204783502885" lon="115.07673706270407"><ele>234.5</ele><time>2026-04-13T06:39:20Z</time></trkpt><trkpt lat="-29.00185773717528" lon="115.07645389191413"><ele>234.0</ele><time>2026-04-13T06:39:21Z</time></trkpt><trkpt lat="-29.001669473886313" lon="115.0761699882218"><ele>233.5</ele><time>2026-04-13T06:39:22Z</time></trkpt><trkpt lat="-29.001487746806983" lon="115.07589292910751"><ele>233.0</ele><time>2026-04-13T06:39:23Z</time></trkpt><trkpt lat="-29.001304418906773" lon="115.07561557754255"><ele>232.5</ele><time>2026-04-13T06:39:24Z</time></trkpt><trkpt lat="-29.00112188535826" lon="115.07533963414517"><ele>232.0</ele><time>2026-04-13T06:39:25Z</time></trkpt><trkpt lat="-29.00093944349883" lon="115.07506584215699"><ele>235.5</ele><time>2026-04-13T06:39:26Z</time></trkpt><trkpt lat="-29.000756560955438" lon="115.0747946863858"><ele>239.0</ele><time>2026-04-13T06:39:27Z</time></trkpt><trkpt lat="-29.000578406540782" lon="115.07453077197417"><ele>239.0</ele><time>2026-04-13T06:39:28Z</time></trkpt><trkpt lat="-29.00040108408111" lon="115.0742634242128"><ele>239.0</ele><time>2026-04-13T06:39:29Z</time></trkpt><trkpt lat="-29.000225956699673" lon="115.07400333704412"><ele>237.5</ele><time>2026-04-13T06:39:30Z</time></trkpt><trkpt lat="-29.000049890646718" lon="115.07374103661404"><ele>236.0</ele><time>2026-04-13T06:39:31Z</time></trkpt><trkpt lat="-28.999873938652083" lon="115.07347997711503"><ele>234.5</ele><time>2026-04-13T06:39:32Z</time></trkpt><trkpt lat="-28.99969919776941" lon="115.07321682496294"><ele>233.0</ele><time>2026-04-13T06:39:33Z</time></trkpt><trkpt lat="-28.999522188640213" lon="115.07295341342048"><ele>233.0</ele><time>2026-04-13T06:39:34Z</time></trkpt><trkpt lat="-28.99934192739453" lon="115.07268976117062"><ele>233.0</ele><time>2026-04-13T06:39:35Z</time></trkpt><trkpt lat="-28.99915923301639" lon="115.0724248202119"><ele>234.5</ele><time>2026-04-13T06:39:36Z</time></trkpt><trkpt lat="-28.99897892766574" lon="115.07216148187771"><ele>236.0</ele><time>2026-04-13T06:39:37Z</time></trkpt><trkpt lat="-28.998796648810345" lon="115.0718995247792"><ele>236.0</ele><time>2026-04-13T06:39:38Z</time></trkpt><trkpt lat="-28.99861653259921" lon="115.07164113478828"><ele>236.0</ele><time>2026-04-13T06:39:39Z</time></trkpt><trkpt lat="-28.99843784415002" lon="115.07137059870789"><ele>236.0</ele><time>2026-04-13T06:39:40Z</time></trkpt><trkpt lat="-28.998259124541903" lon="115.07110315657471"><ele>236.0</ele><time>2026-04-13T06:39:41Z</time></trkpt><trkpt lat="-28.998079239802063" lon="115.07083876231074"><ele>236.0</ele><time>2026-04-13T06:39:42Z</time></trkpt><trkpt lat="-28.997899498597302" lon="115.07056867143636"><ele>236.0</ele><time>2026-04-13T06:39:43Z</time></trkpt><trkpt lat="-28.99771715331241" lon="115.07029218782277"><ele>236.0</ele><time>2026-04-13T06:39:44Z</time></trkpt><trkpt lat="-28.997530559724428" lon="115.07001270742255"><ele>236.0</ele><time>2026-04-13T06:39:45Z</time></trkpt><trkpt lat="-28.99734320528423" lon="115.06973814811072"><ele>232.0</ele><time>2026-04-13T06:39:46Z</time></trkpt><trkpt lat="-28.997154853751958" lon="115.069461790513"><ele>228.0</ele><time>2026-04-13T06:39:47Z</time></trkpt><trkpt lat="-28.99696432188466" lon="115.06918140752066"><ele>228.0</ele><time>2026-04-13T06:39:48Z</time></trkpt><trkpt lat="-28.99677902700235" lon="115.06890816476329"><ele>228.0</ele><time>2026-04-13T06:39:49Z</time></trkpt><trkpt lat="-28.996594580886114" lon="115.0686313617702"><ele>226.0</ele><time>2026-04-13T06:39:50Z</time></trkpt><trkpt lat="-28.996409722935578" lon="115.06835860707582"><ele>224.0</ele><time>2026-04-13T06:39:51Z</time></trkpt><trkpt lat="-28.996221696440344" lon="115.06808596860063"><ele>223.5</ele><time>2026-04-13T06:39:52Z</time></trkpt><trkpt lat="-28.996036595080124" lon="115.06780814457936"><ele>223.0</ele><time>2026-04-13T06:39:53Z</time></trkpt><trkpt lat="-28.99585241943516" lon="115.06752834633973"><ele>223.0</ele><time>2026-04-13T06:39:54Z</time></trkpt><trkpt lat="-28.995672126936245" lon="115.06725885372587"><ele>223.0</ele><time>2026-04-13T06:39:55Z</time></trkpt><trkpt lat="-28.995489400336815" lon="115.06698673639421"><ele>223.0</ele><time>2026-04-13T06:39:56Z</time></trkpt><trkpt lat="-28.995305046340725" lon="115.06671395260499"><ele>223.0</ele><time>2026-04-13T06:39:57Z</time></trkpt><trkpt lat="-28.995122121582316" lon="115.0664469990932"><ele>221.5</ele><time>2026-04-13T06:39:58Z</time></trkpt><trkpt lat="-28.994939501130414" lon="115.06617651588265"><ele>220.0</ele><time>2026-04-13T06:39:59Z</time></trkpt><trkpt lat="-28.994760322066504" lon="115.06590831295652"><ele>220.5</ele><time>2026-04-13T06:40:00Z</time></trkpt><trkpt lat="-28.994584918813462" lon="115.06563922337796"><ele>221.0</ele><time>2026-04-13T06:40:01Z</time></trkpt><trkpt lat="-28.994407414073965" lon="115.06536792640377"><ele>221.0</ele><time>2026-04-13T06:40:02Z</time></trkpt><trkpt lat="-28.99422782839582" lon="115.06509641736677"><ele>221.0</ele><time>2026-04-13T06:40:03Z</time></trkpt><trkpt lat="-28.99404848581211" lon="115.06482575713676"><ele>219.0</ele><time>2026-04-13T06:40:04Z</time></trkpt><trkpt lat="-28.993867668419362" lon="115.06455313595686"><ele>217.0</ele><time>2026-04-13T06:40:05Z</time></trkpt><trkpt lat="-28.99368422191042" lon="115.06428067575936"><ele>215.0</ele><time>2026-04-13T06:40:06Z</time></trkpt><trkpt lat="-28.993499732301185" lon="115.06401015841654"><ele>213.0</ele><time>2026-04-13T06:40:07Z</time></trkpt><trkpt lat="-28.993316778702518" lon="115.06373594918159"><ele>212.0</ele><time>2026-04-13T06:40:08Z</time></trkpt><trkpt lat="-28.99313514023627" lon="115.06346188493588"><ele>211.0</ele><time>2026-04-13T06:40:09Z</time></trkpt><trkpt lat="-28.992953914183587" lon="115.0631876297173"><ele>209.5</ele><time>2026-04-13T06:40:10Z</time></trkpt><trkpt lat="-28.992771576647318" lon="115.06291612613809"><ele>208.0</ele><time>2026-04-13T06:40:11Z</time></trkpt><trkpt lat="-28.992593107653274" lon="115.06264695083756"><ele>205.5</ele><time>2026-04-13T06:40:12Z</time></trkpt><trkpt lat="-28.992412650677114" lon="115.06238149080319"><ele>203.0</ele><time>2026-04-13T06:40:13Z</time></trkpt><trkpt lat="-28.9922340107232" lon="115.06212269793551"><ele>203.0</ele><time>2026-04-13T06:40:14Z</time></trkpt><trkpt lat="-28.992058863787683" lon="115.06186398220069"><ele>203.0</ele><time>2026-04-13T06:40:15Z</time></trkpt><trkpt lat="-28.991881741898418" lon="115.06160757854502"><ele>200.0</ele><time>2026-04-13T06:40:16Z</time></trkpt><trkpt lat="-28.991705587862082" lon="115.06134573549288"><ele>197.0</ele><time>2026-04-13T06:40:17Z</time></trkpt><trkpt lat="-28.99153161956817" lon="115.0610851512456"><ele>197.0</ele><time>2026-04-13T06:40:18Z</time></trkpt><trkpt lat="-28.99135839771399" lon="115.06082214130839"><ele>197.0</ele><time>2026-04-13T06:40:19Z</time></trkpt><trkpt lat="-28.991186689759616" lon="115.06056222767248"><ele>194.0</ele><time>2026-04-13T06:40:20Z</time></trkpt><trkpt lat="-28.99101442634165" lon="115.0603005371941"><ele>191.0</ele><time>2026-04-13T06:40:21Z</time></trkpt><trkpt lat="-28.990838654063502" lon="115.06003674586509"><ele>190.5</ele><time>2026-04-13T06:40:22Z</time></trkpt><trkpt lat="-28.990658775173937" lon="115.05977483193516"><ele>190.0</ele><time>2026-04-13T06:40:23Z</time></trkpt><trkpt lat="-28.990479047229584" lon="115.05950930051978"><ele>190.0</ele><time>2026-04-13T06:40:24Z</time></trkpt><trkpt lat="-28.99030151415281" lon="115.05924432622561"><ele>190.0</ele><time>2026-04-13T06:40:25Z</time></trkpt><trkpt lat="-28.990126735440988" lon="115.05897489194201"><ele>190.5</ele><time>2026-04-13T06:40:26Z</time></trkpt><trkpt lat="-28.989951059918628" lon="115.05871160779105"><ele>191.0</ele><time>2026-04-13T06:40:27Z</time></trkpt><trkpt lat="-28.98977446976986" lon="115.05845389749392"><ele>193.5</ele><time>2026-04-13T06:40:28Z</time></trkpt><trkpt lat="-28.989596176597495" lon="115.05819767613026"><ele>196.0</ele><time>2026-04-13T06:40:29Z</time></trkpt><trkpt lat="-28.98942287038398" lon="115.05794658308423"><ele>196.0</ele><time>2026-04-13T06:40:30Z</time></trkpt><trkpt lat="-28.989250143531347" lon="115.05768945695695"><ele>196.0</ele><time>2026-04-13T06:40:31Z</time></trkpt><trkpt lat="-28.989082167052462" lon="115.05743014220602"><ele>197.5</ele><time>2026-04-13T06:40:32Z</time></trkpt><trkpt lat="-28.98891327501918" lon="115.05717248545962"><ele>199.0</ele><time>2026-04-13T06:40:33Z</time></trkpt><trkpt lat="-28.988744779878335" lon="115.05691381298118"><ele>199.0</ele><time>2026-04-13T06:40:34Z</time></trkpt><trkpt lat="-28.988574371303617" lon="115.05665481565701"><ele>199.0</ele><time>2026-04-13T06:40:35Z</time></trkpt><trkpt lat="-28.98840169413058" lon="115.05639682686171"><ele>203.5</ele><time>2026-04-13T06:40:36Z</time></trkpt><trkpt lat="-28.988225377291798" lon="115.05613972348733"><ele>208.0</ele><time>2026-04-13T06:40:37Z</time></trkpt><trkpt lat="-28.98804650626055" lon="115.0558815689243"><ele>209.5</ele><time>2026-04-13T06:40:38Z</time></trkpt><trkpt lat="-28.98786745201111" lon="115.05561743313413"><ele>211.0</ele><time>2026-04-13T06:40:39Z</time></trkpt><trkpt lat="-28.98769252420876" lon="115.05535747382825"><ele>211.0</ele><time>2026-04-13T06:40:40Z</time></trkpt><trkpt lat="-28.987514747925502" lon="115.05509396175275"><ele>211.0</ele><time>2026-04-13T06:40:41Z</time></trkpt><trkpt lat="-28.98733748906114" lon="115.05482877595148"><ele>214.0</ele><time>2026-04-13T06:40:42Z</time></trkpt><trkpt lat="-28.987158873175844" lon="115.05456170263429"><ele>217.0</ele><time>2026-04-13T06:40:43Z</time></trkpt><trkpt lat="-28.986980392158998" lon="115.05429678885275"><ele>217.5</ele><time>2026-04-13T06:40:44Z</time></trkpt><trkpt lat="-28.98679965916565" lon="115.05403181212881"><ele>218.0</ele><time>2026-04-13T06:40:45Z</time></trkpt><trkpt lat="-28.98661900195728" lon="115.05376609983611"><ele>221.0</ele><time>2026-04-13T06:40:46Z</time></trkpt><trkpt lat="-28.986441346385867" lon="115.05350676410886"><ele>224.0</ele><time>2026-04-13T06:40:47Z</time></trkpt><trkpt lat="-28.986267200363052" lon="115.05324713813899"><ele>226.5</ele><time>2026-04-13T06:40:48Z</time></trkpt><trkpt lat="-28.986097941349943" lon="115.05298740257295"><ele>229.0</ele><time>2026-04-13T06:40:49Z</time></trkpt><trkpt lat="-28.98593160218833" lon="115.05272690904663"><ele>231.0</ele><time>2026-04-13T06:40:50Z</time></trkpt><trkpt lat="-28.98576551277744" lon="115.0524683835646"><ele>233.0</ele><time>2026-04-13T06:40:51Z</time></trkpt><trkpt lat="-28.985596164516235" lon="115.05221026268107"><ele>236.5</ele><time>2026-04-13T06:40:52Z</time></trkpt><trkpt lat="-28.985423445565345" lon="115.05195324227654"><ele>240.0</ele><time>2026-04-13T06:40:53Z</time></trkpt><trkpt lat="-28.985250252886985" lon="115.05169603186908"><ele>240.5</ele><time>2026-04-13T06:40:54Z</time></trkpt><trkpt lat="-28.985077961070832" lon="115.05144014114471"><ele>241.0</ele><time>2026-04-13T06:40:55Z</time></trkpt><trkpt lat="-28.98490450367923" lon="115.0511817666878"><ele>242.0</ele><time>2026-04-13T06:40:56Z</time></trkpt><trkpt lat="-28.98473370949227" lon="115.05092454244127"><ele>243.0</ele><time>2026-04-13T06:40:57Z</time></trkpt><trkpt lat="-28.984558866416254" lon="115.05066074489866"><ele>244.0</ele><time>2026-04-13T06:40:58Z</time></trkpt><trkpt lat="-28.984380155796476" lon="115.05039516650841"><ele>245.0</ele><time>2026-04-13T06:40:59Z</time></trkpt><trkpt lat="-28.98420100302708" lon="115.05013054400388"><ele>246.5</ele><time>2026-04-13T06:41:00Z</time></trkpt><trkpt lat="-28.984019290187216" lon="115.04985923249068"><ele>248.0</ele><time>2026-04-13T06:41:01Z</time></trkpt><trkpt lat="-28.983836842461056" lon="115.04959159161287"><ele>248.0</ele><time>2026-04-13T06:41:02Z</time></trkpt><trkpt lat="-28.98365172593739" lon="115.04931789067517"><ele>248.0</ele><time>2026-04-13T06:41:03Z</time></trkpt><trkpt lat="-28.983466727794482" lon="115.04904101699496"><ele>247.0</ele><time>2026-04-13T06:41:04Z</time></trkpt><trkpt lat="-28.983278503429055" lon="115.04876059385732"><ele>246.0</ele><time>2026-04-13T06:41:05Z</time></trkpt><trkpt lat="-28.983090343304355" lon="115.0484785550076"><ele>244.5</ele><time>2026-04-13T06:41:06Z</time></trkpt><trkpt lat="-28.98290099728207" lon="115.04819506799431"><ele>243.0</ele><time>2026-04-13T06:41:07Z</time></trkpt><trkpt lat="-28.982709478590376" lon="115.04791028304855"><ele>243.0</ele><time>2026-04-13T06:41:08Z</time></trkpt><trkpt lat="-28.982517348519586" lon="115.04763061635937"><ele>243.0</ele><time>2026-04-13T06:41:09Z</time></trkpt><trkpt lat="-28.98235227556013" lon="115.0473296781614"><ele>244.5</ele><time>2026-04-13T06:41:10Z</time></trkpt><trkpt lat="-28.982163636235306" lon="115.04704811434274"><ele>246.0</ele><time>2026-04-13T06:41:11Z</time></trkpt><trkpt lat="-28.981973096501388" lon="115.04676371420715"><ele>246.5</ele><time>2026-04-13T06:41:12Z</time></trkpt><trkpt lat="-28.981783799313693" lon="115.04648190290573"><ele>247.0</ele><time>2026-04-13T06:41:13Z</time></trkpt><trkpt lat="-28.98159013997207" lon="115.04619395812205"><ele>247.0</ele><time>2026-04-13T06:41:14Z</time></trkpt><trkpt lat="-28.981396382918305" lon="115.04590600634734"><ele>247.0</ele><time>2026-04-13T06:41:15Z</time></trkpt><trkpt lat="-28.981203582592688" lon="115.04561947619422"><ele>247.0</ele><time>2026-04-13T06:41:16Z</time></trkpt><trkpt lat="-28.981008804305407" lon="115.04532995838107"><ele>247.0</ele><time>2026-04-13T06:41:17Z</time></trkpt><trkpt lat="-28.980814204037543" lon="115.04503930376137"><ele>248.0</ele><time>2026-04-13T06:41:18Z</time></trkpt><trkpt lat="-28.98062040276945" lon="115.04475114844199"><ele>249.0</ele><time>2026-04-13T06:41:19Z</time></trkpt><trkpt lat="-28.980424614619306" lon="115.04446115721984"><ele>249.0</ele><time>2026-04-13T06:41:20Z</time></trkpt><trkpt lat="-28.980227917061704" lon="115.04416943279304"><ele>249.0</ele><time>2026-04-13T06:41:21Z</time></trkpt><trkpt lat="-28.980031789102227" lon="115.04387865651788"><ele>248.5</ele><time>2026-04-13T06:41:22Z</time></trkpt><trkpt lat="-28.97983428366882" lon="115.04358526002129"><ele>248.0</ele><time>2026-04-13T06:41:23Z</time></trkpt><trkpt lat="-28.97963657541957" lon="115.04329218648495"><ele>248.0</ele><time>2026-04-13T06:41:24Z</time></trkpt><trkpt lat="-28.979443697021836" lon="115.04300715820312"><ele>248.0</ele><time>2026-04-13T06:41:25Z</time></trkpt><trkpt lat="-28.979252449996096" lon="115.04272263337882"><ele>249.0</ele><time>2026-04-13T06:41:26Z</time></trkpt><trkpt lat="-28.979065624268504" lon="115.04244615210297"><ele>250.0</ele><time>2026-04-13T06:41:27Z</time></trkpt><trkpt lat="-28.97888365390796" lon="115.04217730391962"><ele>250.0</ele><time>2026-04-13T06:41:28Z</time></trkpt><trkpt lat="-28.97870282226934" lon="115.04190947910266"><ele>250.0</ele><time>2026-04-13T06:41:29Z</time></trkpt><trkpt lat="-28.978520538214674" lon="115.04163984901838"><ele>249.5</ele><time>2026-04-13T06:41:30Z</time></trkpt><trkpt lat="-28.97832660808089" lon="115.0413814115318"><ele>249.0</ele><time>2026-04-13T06:41:31Z</time></trkpt><trkpt lat="-28.978145242885383" lon="115.04111245240234"><ele>249.0</ele><time>2026-04-13T06:41:32Z</time></trkpt><trkpt lat="-28.977959786847073" lon="115.04083784546249"><ele>249.0</ele><time>2026-04-13T06:41:33Z</time></trkpt><trkpt lat="-28.97777511442425" lon="115.04056320334375"><ele>250.5</ele><time>2026-04-13T06:41:34Z</time></trkpt><trkpt lat="-28.977589623712618" lon="115.04028594531528"><ele>252.0</ele><time>2026-04-13T06:41:35Z</time></trkpt><trkpt lat="-28.97740308571391" lon="115.04000559173775"><ele>252.5</ele><time>2026-04-13T06:41:36Z</time></trkpt><trkpt lat="-28.977214286523086" lon="115.03972183289561"><ele>253.0</ele><time>2026-04-13T06:41:37Z</time></trkpt><trkpt lat="-28.97702351931824" lon="115.03944231741093"><ele>253.0</ele><time>2026-04-13T06:41:38Z</time></trkpt><trkpt lat="-28.976836362413888" lon="115.03916598577662"><ele>253.0</ele><time>2026-04-13T06:41:39Z</time></trkpt><trkpt lat="-28.976650067118083" lon="115.03888727105297"><ele>251.0</ele><time>2026-04-13T06:41:40Z</time></trkpt><trkpt lat="-28.97646596997776" lon="115.03860750266207"><ele>249.0</ele><time>2026-04-13T06:41:41Z</time></trkpt><trkpt lat="-28.976281975864506" lon="115.03832680751773"><ele>249.5</ele><time>2026-04-13T06:41:42Z</time></trkpt><trkpt lat="-28.976092545677794" lon="115.03804445276455"><ele>250.0</ele><time>2026-04-13T06:41:43Z</time></trkpt><trkpt lat="-28.97590466515148" lon="115.03776374200488"><ele>249.5</ele><time>2026-04-13T06:41:44Z</time></trkpt><trkpt lat="-28.975716247388625" lon="115.03748744005853"><ele>249.0</ele><time>2026-04-13T06:41:45Z</time></trkpt><trkpt lat="-28.975525018636862" lon="115.03721296803519"><ele>249.0</ele><time>2026-04-13T06:41:46Z</time></trkpt><trkpt lat="-28.975335664025994" lon="115.03693976214556"><ele>249.0</ele><time>2026-04-13T06:41:47Z</time></trkpt><trkpt lat="-28.97514882259071" lon="115.03666452003849"><ele>250.5</ele><time>2026-04-13T06:41:48Z</time></trkpt><trkpt lat="-28.974963644336267" lon="115.03638795951082"><ele>252.0</ele><time>2026-04-13T06:41:49Z</time></trkpt><trkpt lat="-28.974778228657165" lon="115.03610893031555"><ele>252.0</ele><time>2026-04-13T06:41:50Z</time></trkpt><trkpt lat="-28.974595616532085" lon="115.03583129200354"><ele>252.0</ele><time>2026-04-13T06:41:51Z</time></trkpt><trkpt lat="-28.97441121363292" lon="115.03555816078334"><ele>252.5</ele><time>2026-04-13T06:41:52Z</time></trkpt><trkpt lat="-28.974225062025173" lon="115.03528328361156"><ele>253.0</ele><time>2026-04-13T06:41:53Z</time></trkpt><trkpt lat="-28.974037812585884" lon="115.03500529887002"><ele>251.5</ele><time>2026-04-13T06:41:54Z</time></trkpt><trkpt lat="-28.97385150465345" lon="115.03472839913196"><ele>250.0</ele><time>2026-04-13T06:41:55Z</time></trkpt><trkpt lat="-28.973664108758108" lon="115.0344478570146"><ele>250.0</ele><time>2026-04-13T06:41:56Z</time></trkpt><trkpt lat="-28.973474633517597" lon="115.03416688244904"><ele>250.0</ele><time>2026-04-13T06:41:57Z</time></trkpt><trkpt lat="-28.97329705464671" lon="115.03387801953592"><ele>251.5</ele><time>2026-04-13T06:41:58Z</time></trkpt><trkpt lat="-28.973111733246753" lon="115.03360134840885"><ele>253.0</ele><time>2026-04-13T06:41:59Z</time></trkpt><trkpt lat="-28.972924315700162" lon="115.03332125738618"><ele>252.0</ele><time>2026-04-13T06:42:00Z</time></trkpt><trkpt lat="-28.97273827099135" lon="115.03304347529014"><ele>251.0</ele><time>2026-04-13T06:42:01Z</time></trkpt><trkpt lat="-28.972541537516864" lon="115.03277987069212"><ele>251.0</ele><time>2026-04-13T06:42:02Z</time></trkpt><trkpt lat="-28.97235962562328" lon="115.03250380277927"><ele>251.0</ele><time>2026-04-13T06:42:03Z</time></trkpt><trkpt lat="-28.972177426138884" lon="115.03223080799893"><ele>251.0</ele><time>2026-04-13T06:42:04Z</time></trkpt><trkpt lat="-28.971991248224345" lon="115.03195343611031"><ele>251.0</ele><time>2026-04-13T06:42:05Z</time></trkpt><trkpt lat="-28.971802974848952" lon="115.03167377276418"><ele>252.0</ele><time>2026-04-13T06:42:06Z</time></trkpt><trkpt lat="-28.971612546030585" lon="115.03138902748009"><ele>253.0</ele><time>2026-04-13T06:42:07Z</time></trkpt><trkpt lat="-28.971419970428833" lon="115.03110462347249"><ele>253.0</ele><time>2026-04-13T06:42:08Z</time></trkpt><trkpt lat="-28.971228707720368" lon="115.03082033692492"><ele>253.0</ele><time>2026-04-13T06:42:09Z</time></trkpt><trkpt lat="-28.971040862301063" lon="115.03054209156278"><ele>251.0</ele><time>2026-04-13T06:42:10Z</time></trkpt><trkpt lat="-28.970853981430935" lon="115.03026274751204"><ele>249.0</ele><time>2026-04-13T06:42:11Z</time></trkpt><trkpt lat="-28.97066646763469" lon="115.02998524617536"><ele>250.0</ele><time>2026-04-13T06:42:12Z</time></trkpt><trkpt lat="-28.970477190734467" lon="115.02970523357507"><ele>251.0</ele><time>2026-04-13T06:42:13Z</time></trkpt><trkpt lat="-28.97028696275864" lon="115.02942199469743"><ele>251.5</ele><time>2026-04-13T06:42:14Z</time></trkpt><trkpt lat="-28.9700958236292" lon="115.02914031235215"><ele>252.0</ele><time>2026-04-13T06:42:15Z</time></trkpt><trkpt lat="-28.969906848587907" lon="115.02885635320287"><ele>250.5</ele><time>2026-04-13T06:42:16Z</time></trkpt><trkpt lat="-28.96971659195323" lon="115.02856990760012"><ele>249.0</ele><time>2026-04-13T06:42:17Z</time></trkpt><trkpt lat="-28.969529776960865" lon="115.02828641886214"><ele>249.0</ele><time>2026-04-13T06:42:18Z</time></trkpt><trkpt lat="-28.969338542947327" lon="115.02800111530969"><ele>249.0</ele><time>2026-04-13T06:42:19Z</time></trkpt><trkpt lat="-28.969146147140354" lon="115.02771644420086"><ele>249.0</ele><time>2026-04-13T06:42:20Z</time></trkpt><trkpt lat="-28.968953135155882" lon="115.02743001393746"><ele>249.0</ele><time>2026-04-13T06:42:21Z</time></trkpt><trkpt lat="-28.968763041062545" lon="115.02714409527225"><ele>249.0</ele><time>2026-04-13T06:42:22Z</time></trkpt><trkpt lat="-28.96857249562604" lon="115.02685652074278"><ele>249.0</ele><time>2026-04-13T06:42:23Z</time></trkpt><trkpt lat="-28.968379896885715" lon="115.02656848351702"><ele>248.5</ele><time>2026-04-13T06:42:24Z</time></trkpt><trkpt lat="-28.968186739748777" lon="115.02628185489111"><ele>248.0</ele><time>2026-04-13T06:42:25Z</time></trkpt><trkpt lat="-28.96799166976065" lon="115.0259976502579"><ele>248.0</ele><time>2026-04-13T06:42:26Z</time></trkpt><trkpt lat="-28.96779885664315" lon="115.02571693335739"><ele>248.0</ele><time>2026-04-13T06:42:27Z</time></trkpt><trkpt lat="-28.96760749646746" lon="115.02543602380825"><ele>248.0</ele><time>2026-04-13T06:42:28Z</time></trkpt><trkpt lat="-28.967414200549896" lon="115.02515387991082"><ele>248.0</ele><time>2026-04-13T06:42:29Z</time></trkpt><trkpt lat="-28.967223574843146" lon="115.02486905299932"><ele>247.0</ele><time>2026-04-13T06:42:30Z</time></trkpt><trkpt lat="-28.96703488595056" lon="115.02458057505147"><ele>246.0</ele><time>2026-04-13T06:42:31Z</time></trkpt><trkpt lat="-28.966848605678337" lon="115.02429150574525"><ele>245.5</ele><time>2026-04-13T06:42:32Z</time></trkpt><trkpt lat="-28.96665798406974" lon="115.02400876385688"><ele>245.0</ele><time>2026-04-13T06:42:33Z</time></trkpt><trkpt lat="-28.966469363715166" lon="115.02372849716238"><ele>245.0</ele><time>2026-04-13T06:42:34Z</time></trkpt><trkpt lat="-28.966280921393285" lon="115.02344789801799"><ele>245.0</ele><time>2026-04-13T06:42:35Z</time></trkpt><trkpt lat="-28.966091459871972" lon="115.02317291350026"><ele>244.5</ele><time>2026-04-13T06:42:36Z</time></trkpt><trkpt lat="-28.96590611918805" lon="115.02290066599669"><ele>244.0</ele><time>2026-04-13T06:42:37Z</time></trkpt><trkpt lat="-28.965720029478227" lon="115.02262735226252"><ele>242.5</ele><time>2026-04-13T06:42:38Z</time></trkpt><trkpt lat="-28.96553691911711" lon="115.02235477287574"><ele>241.0</ele><time>2026-04-13T06:42:39Z</time></trkpt><trkpt lat="-28.96535452086145" lon="115.02208530953969"><ele>241.0</ele><time>2026-04-13T06:42:40Z</time></trkpt><trkpt lat="-28.96517251606544" lon="115.0218109614836"><ele>241.0</ele><time>2026-04-13T06:42:41Z</time></trkpt><trkpt lat="-28.964991914264733" lon="115.02153274774342"><ele>242.0</ele><time>2026-04-13T06:42:42Z</time></trkpt><trkpt lat="-28.964809865102794" lon="115.02125317302038"><ele>243.0</ele><time>2026-04-13T06:42:43Z</time></trkpt><trkpt lat="-28.964625699264875" lon="115.02097917507197"><ele>242.0</ele><time>2026-04-13T06:42:44Z</time></trkpt><trkpt lat="-28.964436051740005" lon="115.02069978257639"><ele>241.0</ele><time>2026-04-13T06:42:45Z</time></trkpt><trkpt lat="-28.964248612452522" lon="115.02042194739465"><ele>242.0</ele><time>2026-04-13T06:42:46Z</time></trkpt><trkpt lat="-28.964060748163973" lon="115.02014650341343"><ele>243.0</ele><time>2026-04-13T06:42:47Z</time></trkpt><trkpt lat="-28.96387414581607" lon="115.01987302090062"><ele>243.0</ele><time>2026-04-13T06:42:48Z</time></trkpt><trkpt lat="-28.963690065230743" lon="115.0195977709088"><ele>243.0</ele><time>2026-04-13T06:42:49Z</time></trkpt><trkpt lat="-28.963507546311828" lon="115.01932280821642"><ele>242.5</ele><time>2026-04-13T06:42:50Z</time></trkpt><trkpt lat="-28.96332498104713" lon="115.01904523394667"><ele>242.0</ele><time>2026-04-13T06:42:51Z</time></trkpt><trkpt lat="-28.96314147929282" lon="115.01877505757874"><ele>242.0</ele><time>2026-04-13T06:42:52Z</time></trkpt><trkpt lat="-28.962957235883987" lon="115.01850563484759"><ele>242.0</ele><time>2026-04-13T06:42:53Z</time></trkpt><trkpt lat="-28.96277784073848" lon="115.01824106488668"><ele>243.0</ele><time>2026-04-13T06:42:54Z</time></trkpt><trkpt lat="-28.96260113865582" lon="115.01797954162139"><ele>244.0</ele><time>2026-04-13T06:42:55Z</time></trkpt><trkpt lat="-28.962424882814965" lon="115.01771932017816"><ele>245.0</ele><time>2026-04-13T06:42:56Z</time></trkpt><trkpt lat="-28.96225382234534" lon="115.01746294472628"><ele>246.0</ele><time>2026-04-13T06:42:57Z</time></trkpt><trkpt lat="-28.962083215583693" lon="115.01720394439658"><ele>246.0</ele><time>2026-04-13T06:42:58Z</time></trkpt><trkpt lat="-28.96191683091823" lon="115.01694917519355"><ele>246.0</ele><time>2026-04-13T06:42:59Z</time></trkpt><trkpt lat="-28.96174804339344" lon="115.01669468836822"><ele>244.0</ele><time>2026-04-13T06:43:00Z</time></trkpt><trkpt lat="-28.96157750957909" lon="115.01643912166827"><ele>242.0</ele><time>2026-04-13T06:43:01Z</time></trkpt><trkpt lat="-28.961403305473752" lon="115.01618057976044"><ele>242.0</ele><time>2026-04-13T06:43:02Z</time></trkpt><trkpt lat="-28.961226269433833" lon="115.0159195416933"><ele>242.0</ele><time>2026-04-13T06:43:03Z</time></trkpt><trkpt lat="-28.96104793826008" lon="115.01565998939572"><ele>240.5</ele><time>2026-04-13T06:43:04Z</time></trkpt><trkpt lat="-28.960870362462288" lon="115.01539853392286"><ele>239.0</ele><time>2026-04-13T06:43:05Z</time></trkpt><trkpt lat="-28.960697140375085" lon="115.01514229308198"><ele>238.5</ele><time>2026-04-13T06:43:06Z</time></trkpt><trkpt lat="-28.96052013920424" lon="115.01488344087538"><ele>238.0</ele><time>2026-04-13T06:43:07Z</time></trkpt><trkpt lat="-28.960342606325685" lon="115.01462437671233"><ele>238.0</ele><time>2026-04-13T06:43:08Z</time></trkpt><trkpt lat="-28.96016442618182" lon="115.01436109677651"><ele>238.0</ele><time>2026-04-13T06:43:09Z</time></trkpt><trkpt lat="-28.959989847908876" lon="115.0140999722705"><ele>236.0</ele><time>2026-04-13T06:43:10Z</time></trkpt><trkpt lat="-28.959814334013064" lon="115.0138405290703"><ele>234.0</ele><time>2026-04-13T06:43:11Z</time></trkpt><trkpt lat="-28.95963980773292" lon="115.01358247516714"><ele>230.5</ele><time>2026-04-13T06:43:12Z</time></trkpt><trkpt lat="-28.959464147723473" lon="115.01332199659245"><ele>227.0</ele><time>2026-04-13T06:43:13Z</time></trkpt><trkpt lat="-28.959289046120396" lon="115.01306558502988"><ele>229.5</ele><time>2026-04-13T06:43:14Z</time></trkpt><trkpt lat="-28.95911459572676" lon="115.01280388596382"><ele>232.0</ele><time>2026-04-13T06:43:15Z</time></trkpt><trkpt lat="-28.958939892718295" lon="115.01254063227015"><ele>229.0</ele><time>2026-04-13T06:43:16Z</time></trkpt><trkpt lat="-28.95876584505398" lon="115.01227735302596"><ele>226.0</ele><time>2026-04-13T06:43:17Z</time></trkpt><trkpt lat="-28.958589802643708" lon="115.01201309997305"><ele>226.0</ele><time>2026-04-13T06:43:18Z</time></trkpt><trkpt lat="-28.958414155641513" lon="115.01175051369205"><ele>226.0</ele><time>2026-04-13T06:43:19Z</time></trkpt><trkpt lat="-28.958237110167875" lon="115.01148382574152"><ele>224.0</ele><time>2026-04-13T06:43:20Z</time></trkpt><trkpt lat="-28.958061465659526" lon="115.01122475389013"><ele>222.0</ele><time>2026-04-13T06:43:21Z</time></trkpt><trkpt lat="-28.957882773850436" lon="115.01096082379821"><ele>221.5</ele><time>2026-04-13T06:43:22Z</time></trkpt><trkpt lat="-28.957706767041007" lon="115.01069875905472"><ele>221.0</ele><time>2026-04-13T06:43:23Z</time></trkpt><trkpt lat="-28.957531417246148" lon="115.01043533732516"><ele>224.5</ele><time>2026-04-13T06:43:24Z</time></trkpt><trkpt lat="-28.957354054135166" lon="115.01017476756628"><ele>228.0</ele><time>2026-04-13T06:43:25Z</time></trkpt><trkpt lat="-28.95717587432609" lon="115.00991438380557"><ele>230.0</ele><time>2026-04-13T06:43:26Z</time></trkpt><trkpt lat="-28.956996492578767" lon="115.00965606417493"><ele>232.0</ele><time>2026-04-13T06:43:27Z</time></trkpt><trkpt lat="-28.956818971029076" lon="115.0093955837663"><ele>232.0</ele><time>2026-04-13T06:43:28Z</time></trkpt><trkpt lat="-28.956644833964038" lon="115.00913477239618"><ele>232.0</ele><time>2026-04-13T06:43:29Z</time></trkpt><trkpt lat="-28.95647194154436" lon="115.00887292828017"><ele>232.0</ele><time>2026-04-13T06:43:30Z</time></trkpt><trkpt lat="-28.95629991498186" lon="115.00861922581733"><ele>232.0</ele><time>2026-04-13T06:43:31Z</time></trkpt><trkpt lat="-28.956129541557495" lon="115.00836816311704"><ele>233.5</ele><time>2026-04-13T06:43:32Z</time></trkpt><trkpt lat="-28.95595798553342" lon="115.00811595332912"><ele>235.0</ele><time>2026-04-13T06:43:33Z</time></trkpt><trkpt lat="-28.955787362845612" lon="115.00786814806595"><ele>235.0</ele><time>2026-04-13T06:43:34Z</time></trkpt><trkpt lat="-28.955616807096778" lon="115.00761482279843"><ele>235.0</ele><time>2026-04-13T06:43:35Z</time></trkpt><trkpt lat="-28.955445106097056" lon="115.00735896723907"><ele>235.5</ele><time>2026-04-13T06:43:36Z</time></trkpt><trkpt lat="-28.95527293057336" lon="115.00709878140893"><ele>236.0</ele><time>2026-04-13T06:43:37Z</time></trkpt><trkpt lat="-28.955098981406955" lon="115.00684071328519"><ele>236.5</ele><time>2026-04-13T06:43:38Z</time></trkpt><trkpt lat="-28.954919673615645" lon="115.00658065473745"><ele>237.0</ele><time>2026-04-13T06:43:39Z</time></trkpt><trkpt lat="-28.954737869198723" lon="115.00631096621606"><ele>237.0</ele><time>2026-04-13T06:43:40Z</time></trkpt><trkpt lat="-28.95455481915617" lon="115.00603534119163"><ele>237.0</ele><time>2026-04-13T06:43:41Z</time></trkpt><trkpt lat="-28.954373488669702" lon="115.00575742217717"><ele>239.5</ele><time>2026-04-13T06:43:42Z</time></trkpt><trkpt lat="-28.95419316498286" lon="115.00548081245314"><ele>242.0</ele><time>2026-04-13T06:43:43Z</time></trkpt><trkpt lat="-28.954016052573312" lon="115.00521497156018"><ele>240.5</ele><time>2026-04-13T06:43:44Z</time></trkpt><trkpt lat="-28.953841133398452" lon="115.00495195320423"><ele>239.0</ele><time>2026-04-13T06:43:45Z</time></trkpt><trkpt lat="-28.953668340897377" lon="115.00469173472136"><ele>239.0</ele><time>2026-04-13T06:43:46Z</time></trkpt><trkpt lat="-28.95349480095754" lon="115.00443206261446"><ele>239.0</ele><time>2026-04-13T06:43:47Z</time></trkpt><trkpt lat="-28.953320154277357" lon="115.00417523434537"><ele>242.0</ele><time>2026-04-13T06:43:48Z</time></trkpt><trkpt lat="-28.953146986520586" lon="115.00391819105245"><ele>245.0</ele><time>2026-04-13T06:43:49Z</time></trkpt><trkpt lat="-28.952972369593336" lon="115.00366032038718"><ele>245.0</ele><time>2026-04-13T06:43:50Z</time></trkpt><trkpt lat="-28.952796028559455" lon="115.00339893469214"><ele>245.0</ele><time>2026-04-13T06:43:51Z</time></trkpt><trkpt lat="-28.95261948010354" lon="115.00313448077885"><ele>246.0</ele><time>2026-04-13T06:43:52Z</time></trkpt><trkpt lat="-28.952441865861772" lon="115.0028675934535"><ele>247.0</ele><time>2026-04-13T06:43:53Z</time></trkpt><trkpt lat="-28.952262816462532" lon="115.00260211253449"><ele>248.5</ele><time>2026-04-13T06:43:54Z</time></trkpt><trkpt lat="-28.952080983688056" lon="115.00233412600603"><ele>250.0</ele><time>2026-04-13T06:43:55Z</time></trkpt><trkpt lat="-28.951897571985555" lon="115.00207018612878"><ele>250.0</ele><time>2026-04-13T06:43:56Z</time></trkpt><trkpt lat="-28.95171339275989" lon="115.00180194865793"><ele>250.0</ele><time>2026-04-13T06:43:57Z</time></trkpt><trkpt lat="-28.951527003371492" lon="115.00152897143792"><ele>248.5</ele><time>2026-04-13T06:43:58Z</time></trkpt><trkpt lat="-28.9513425774027" lon="115.0012503528682"><ele>247.0</ele><time>2026-04-13T06:43:59Z</time></trkpt><trkpt lat="-28.9511585697258" lon="115.0009688206966"><ele>247.0</ele><time>2026-04-13T06:44:00Z</time></trkpt><trkpt lat="-28.950973596316434" lon="115.00068708043787"><ele>247.0</ele><time>2026-04-13T06:44:01Z</time></trkpt><trkpt lat="-28.950787240561358" lon="115.00040229567487"><ele>247.0</ele><time>2026-04-13T06:44:02Z</time></trkpt><trkpt lat="-28.950600949175826" lon="115.00011814394469"><ele>247.0</ele><time>2026-04-13T06:44:03Z</time></trkpt><trkpt lat="-28.9504118547029" lon="114.99983561109352"><ele>247.0</ele><time>2026-04-13T06:44:04Z</time></trkpt><trkpt lat="-28.950222601235726" lon="114.99955370325706"><ele>247.0</ele><time>2026-04-13T06:44:05Z</time></trkpt><trkpt lat="-28.950030042614035" lon="114.99926897912081"><ele>247.0</ele><time>2026-04-13T06:44:06Z</time></trkpt><trkpt lat="-28.949839546234383" lon="114.99898680598183"><ele>247.0</ele><time>2026-04-13T06:44:07Z</time></trkpt><trkpt lat="-28.949647486897845" lon="114.99870232526175"><ele>247.0</ele><time>2026-04-13T06:44:08Z</time></trkpt><trkpt lat="-28.94945409390042" lon="114.99841829549088"><ele>247.0</ele><time>2026-04-13T06:44:09Z</time></trkpt><trkpt lat="-28.9492603232167" lon="114.99813508032834"><ele>248.0</ele><time>2026-04-13T06:44:10Z</time></trkpt><trkpt lat="-28.94906533397154" lon="114.9978514482083"><ele>249.0</ele><time>2026-04-13T06:44:11Z</time></trkpt><trkpt lat="-28.948878288400234" lon="114.99756929724963"><ele>249.0</ele><time>2026-04-13T06:44:12Z</time></trkpt><trkpt lat="-28.948692202743715" lon="114.99728558641647"><ele>249.0</ele><time>2026-04-13T06:44:13Z</time></trkpt><trkpt lat="-28.948506529332995" lon="114.99700323090494"><ele>249.5</ele><time>2026-04-13T06:44:14Z</time></trkpt><trkpt lat="-28.948321467269164" lon="114.99672305135218"><ele>250.0</ele><time>2026-04-13T06:44:15Z</time></trkpt><trkpt lat="-28.948136160457203" lon="114.99644146533744"><ele>250.0</ele><time>2026-04-13T06:44:16Z</time></trkpt><trkpt lat="-28.94794812976051" lon="114.99615969937494"><ele>250.0</ele><time>2026-04-13T06:44:17Z</time></trkpt><trkpt lat="-28.947758434563603" lon="114.99588384126058"><ele>250.0</ele><time>2026-04-13T06:44:18Z</time></trkpt><trkpt lat="-28.947567825197538" lon="114.99561381346447"><ele>250.0</ele><time>2026-04-13T06:44:19Z</time></trkpt><trkpt lat="-28.947382229510197" lon="114.99534178465518"><ele>250.0</ele><time>2026-04-13T06:44:20Z</time></trkpt><trkpt lat="-28.947198446368922" lon="114.99506548975191"><ele>250.0</ele><time>2026-04-13T06:44:21Z</time></trkpt><trkpt lat="-28.947014940238734" lon="114.99478896744199"><ele>250.5</ele><time>2026-04-13T06:44:22Z</time></trkpt><trkpt lat="-28.94682985366638" lon="114.99451520203424"><ele>251.0</ele><time>2026-04-13T06:44:23Z</time></trkpt><trkpt lat="-28.946644465757753" lon="114.99423879586331"><ele>251.0</ele><time>2026-04-13T06:44:24Z</time></trkpt><trkpt lat="-28.946458650228504" lon="114.99396142213465"><ele>251.0</ele><time>2026-04-13T06:44:25Z</time></trkpt><trkpt lat="-28.94627609458505" lon="114.99368455138219"><ele>251.0</ele><time>2026-04-13T06:44:26Z</time></trkpt><trkpt lat="-28.946090996773545" lon="114.99340700805847"><ele>251.0</ele><time>2026-04-13T06:44:27Z</time></trkpt><trkpt lat="-28.94590663631855" lon="114.99313559316485"><ele>252.0</ele><time>2026-04-13T06:44:28Z</time></trkpt><trkpt lat="-28.945721887550526" lon="114.99286370258699"><ele>253.0</ele><time>2026-04-13T06:44:29Z</time></trkpt><trkpt lat="-28.945536754507078" lon="114.99258976630469"><ele>255.5</ele><time>2026-04-13T06:44:30Z</time></trkpt><trkpt lat="-28.945351405174176" lon="114.99231276489571"><ele>258.0</ele><time>2026-04-13T06:44:31Z</time></trkpt><trkpt lat="-28.94516851377239" lon="114.9920353030101"><ele>255.0</ele><time>2026-04-13T06:44:32Z</time></trkpt><trkpt lat="-28.944983603418596" lon="114.99175863318737"><ele>252.0</ele><time>2026-04-13T06:44:33Z</time></trkpt><trkpt lat="-28.94479781056297" lon="114.99148264211888"><ele>251.5</ele><time>2026-04-13T06:44:34Z</time></trkpt><trkpt lat="-28.944614883677414" lon="114.99120985248962"><ele>251.0</ele><time>2026-04-13T06:44:35Z</time></trkpt><trkpt lat="-28.94443190007701" lon="114.99094209350811"><ele>252.0</ele><time>2026-04-13T06:44:36Z</time></trkpt><trkpt lat="-28.944251767062987" lon="114.99067875127504"><ele>253.0</ele><time>2026-04-13T06:44:37Z</time></trkpt><trkpt lat="-28.944073752154686" lon="114.99041669721966"><ele>253.0</ele><time>2026-04-13T06:44:38Z</time></trkpt><trkpt lat="-28.94389799116224" lon="114.99015436184875"><ele>253.0</ele><time>2026-04-13T06:44:39Z</time></trkpt><trkpt lat="-28.943723922302382" lon="114.98989495612702"><ele>253.0</ele><time>2026-04-13T06:44:40Z</time></trkpt><trkpt lat="-28.94354975716898" lon="114.98963561600736"><ele>253.0</ele><time>2026-04-13T06:44:41Z</time></trkpt><trkpt lat="-28.94337475053954" lon="114.98937765000441"><ele>252.0</ele><time>2026-04-13T06:44:42Z</time></trkpt><trkpt lat="-28.9431979569693" lon="114.98911722990235"><ele>251.0</ele><time>2026-04-13T06:44:43Z</time></trkpt><trkpt lat="-28.94302154169938" lon="114.98885590098126"><ele>251.0</ele><time>2026-04-13T06:44:44Z</time></trkpt><trkpt lat="-28.942845846225957" lon="114.98859539083804"><ele>251.0</ele><time>2026-04-13T06:44:45Z</time></trkpt><trkpt lat="-28.942666975347183" lon="114.98833285999225"><ele>251.5</ele><time>2026-04-13T06:44:46Z</time></trkpt><trkpt lat="-28.942489997412228" lon="114.98807324708163"><ele>252.0</ele><time>2026-04-13T06:44:47Z</time></trkpt><trkpt lat="-28.942313523546066" lon="114.98781142033073"><ele>252.0</ele><time>2026-04-13T06:44:48Z</time></trkpt><trkpt lat="-28.9421329274919" lon="114.98754344829328"><ele>252.0</ele><time>2026-04-13T06:44:49Z</time></trkpt><trkpt lat="-28.94195195691325" lon="114.98727603556922"><ele>252.5</ele><time>2026-04-13T06:44:50Z</time></trkpt><trkpt lat="-28.94177139068841" lon="114.98700535985313"><ele>253.0</ele><time>2026-04-13T06:44:51Z</time></trkpt><trkpt lat="-28.941594453833154" lon="114.98673732520004"><ele>253.0</ele><time>2026-04-13T06:44:52Z</time></trkpt><trkpt lat="-28.941425146367013" lon="114.98647372803227"><ele>253.0</ele><time>2026-04-13T06:44:53Z</time></trkpt><trkpt lat="-28.9412613964592" lon="114.98622067561118"><ele>253.0</ele><time>2026-04-13T06:44:54Z</time></trkpt><trkpt lat="-28.941096274821778" lon="114.98597692108945"><ele>253.0</ele><time>2026-04-13T06:44:55Z</time></trkpt><trkpt lat="-28.940932108159267" lon="114.98573720172081"><ele>253.0</ele><time>2026-04-13T06:44:56Z</time></trkpt><trkpt lat="-28.94076861969498" lon="114.98549413882209"><ele>253.0</ele><time>2026-04-13T06:44:57Z</time></trkpt><trkpt lat="-28.94060754055001" lon="114.98524777500997"><ele>255.5</ele><time>2026-04-13T06:44:58Z</time></trkpt><trkpt lat="-28.94044766308176" lon="114.9850043185058"><ele>258.0</ele><time>2026-04-13T06:44:59Z</time></trkpt><trkpt lat="-28.94028742122276" lon="114.98476047950433"><ele>258.0</ele><time>2026-04-13T06:45:00Z</time></trkpt><trkpt lat="-28.94012427495231" lon="114.98451776971459"><ele>258.0</ele><time>2026-04-13T06:45:01Z</time></trkpt><trkpt lat="-28.939960655604494" lon="114.98427866677056"><ele>256.5</ele><time>2026-04-13T06:45:02Z</time></trkpt><trkpt lat="-28.939794015933874" lon="114.98402942819688"><ele>255.0</ele><time>2026-04-13T06:45:03Z</time></trkpt><trkpt lat="-28.93963170694625" lon="114.98378111573625"><ele>255.0</ele><time>2026-04-13T06:45:04Z</time></trkpt><trkpt lat="-28.93946804835732" lon="114.98353037906017"><ele>255.0</ele><time>2026-04-13T06:45:05Z</time></trkpt><trkpt lat="-28.939300567069942" lon="114.98328033642925"><ele>256.0</ele><time>2026-04-13T06:45:06Z</time></trkpt><trkpt lat="-28.939131417812387" lon="114.98303215057295"><ele>257.0</ele><time>2026-04-13T06:45:07Z</time></trkpt><trkpt lat="-28.938956806429417" lon="114.98278057693074"><ele>257.0</ele><time>2026-04-13T06:45:08Z</time></trkpt><trkpt lat="-28.938780658433352" lon="114.98252756864419"><ele>257.0</ele><time>2026-04-13T06:45:09Z</time></trkpt><trkpt lat="-28.938602780415362" lon="114.98227138382137"><ele>255.5</ele><time>2026-04-13T06:45:10Z</time></trkpt><trkpt lat="-28.938430837411797" lon="114.9820183052786"><ele>254.0</ele><time>2026-04-13T06:45:11Z</time></trkpt><trkpt lat="-28.93825674371792" lon="114.98176197803843"><ele>251.5</ele><time>2026-04-13T06:45:12Z</time></trkpt><trkpt lat="-28.938083348093794" lon="114.98150331068774"><ele>249.0</ele><time>2026-04-13T06:45:13Z</time></trkpt><trkpt lat="-28.937909907715742" lon="114.98123856540778"><ele>249.0</ele><time>2026-04-13T06:45:14Z</time></trkpt><trkpt lat="-28.93773587790148" lon="114.98097483873315"><ele>249.0</ele><time>2026-04-13T06:45:15Z</time></trkpt><trkpt lat="-28.937557056814658" lon="114.98070586371571"><ele>246.5</ele><time>2026-04-13T06:45:16Z</time></trkpt><trkpt lat="-28.9373792279348" lon="114.98043621004507"><ele>244.0</ele><time>2026-04-13T06:45:17Z</time></trkpt><trkpt lat="-28.937199659175047" lon="114.98016800810976"><ele>242.5</ele><time>2026-04-13T06:45:18Z</time></trkpt><trkpt lat="-28.937014954915604" lon="114.97989481712945"><ele>241.0</ele><time>2026-04-13T06:45:19Z</time></trkpt><trkpt lat="-28.93682894843943" lon="114.97962152384143"><ele>241.0</ele><time>2026-04-13T06:45:20Z</time></trkpt><trkpt lat="-28.93664261757716" lon="114.97934838711156"><ele>241.0</ele><time>2026-04-13T06:45:21Z</time></trkpt><trkpt lat="-28.936459128638475" lon="114.97907470912301"><ele>239.0</ele><time>2026-04-13T06:45:22Z</time></trkpt><trkpt lat="-28.936273472028024" lon="114.97879916095236"><ele>237.0</ele><time>2026-04-13T06:45:23Z</time></trkpt><trkpt lat="-28.936088543500833" lon="114.97852242066277"><ele>236.0</ele><time>2026-04-13T06:45:24Z</time></trkpt><trkpt lat="-28.935923369458234" lon="114.97823445974126"><ele>235.0</ele><time>2026-04-13T06:45:25Z</time></trkpt><trkpt lat="-28.935738346391354" lon="114.97796290690391"><ele>235.0</ele><time>2026-04-13T06:45:26Z</time></trkpt><trkpt lat="-28.935542227826808" lon="114.97770244565825"><ele>235.0</ele><time>2026-04-13T06:45:27Z</time></trkpt><trkpt lat="-28.935359917759587" lon="114.97742803649862"><ele>235.0</ele><time>2026-04-13T06:45:28Z</time></trkpt><trkpt lat="-28.935177946226997" lon="114.97715486393123"><ele>235.0</ele><time>2026-04-13T06:45:29Z</time></trkpt><trkpt lat="-28.93499634944443" lon="114.97688553905448"><ele>232.5</ele><time>2026-04-13T06:45:30Z</time></trkpt><trkpt lat="-28.934813451020254" lon="114.97661492183043"><ele>230.0</ele><time>2026-04-13T06:45:31Z</time></trkpt><trkpt lat="-28.934631758824622" lon="114.97634730026493"><ele>230.0</ele><time>2026-04-13T06:45:32Z</time></trkpt><trkpt lat="-28.93445170008322" lon="114.9760839672791"><ele>230.0</ele><time>2026-04-13T06:45:33Z</time></trkpt><trkpt lat="-28.934284064287173" lon="114.97580833571152"><ele>229.0</ele><time>2026-04-13T06:45:34Z</time></trkpt><trkpt lat="-28.93409281766267" lon="114.97555504022318"><ele>228.0</ele><time>2026-04-13T06:45:35Z</time></trkpt><trkpt lat="-28.933915177365492" lon="114.97528862079521"><ele>228.0</ele><time>2026-04-13T06:45:36Z</time></trkpt><trkpt lat="-28.93373877054459" lon="114.97502503557821"><ele>228.0</ele><time>2026-04-13T06:45:37Z</time></trkpt><trkpt lat="-28.933562768218007" lon="114.974758620728"><ele>228.0</ele><time>2026-04-13T06:45:38Z</time></trkpt><trkpt lat="-28.933387451323544" lon="114.97449720194302"><ele>228.0</ele><time>2026-04-13T06:45:39Z</time></trkpt><trkpt lat="-28.933211902886494" lon="114.97423595920202"><ele>229.0</ele><time>2026-04-13T06:45:40Z</time></trkpt><trkpt lat="-28.933040621304066" lon="114.97398021454939"><ele>230.0</ele><time>2026-04-13T06:45:41Z</time></trkpt><trkpt lat="-28.932869922720357" lon="114.97372305115677"><ele>230.0</ele><time>2026-04-13T06:45:42Z</time></trkpt><trkpt lat="-28.932699119372614" lon="114.97346541928562"><ele>230.0</ele><time>2026-04-13T06:45:43Z</time></trkpt><trkpt lat="-28.932526321726293" lon="114.9732085170493"><ele>227.5</ele><time>2026-04-13T06:45:44Z</time></trkpt><trkpt lat="-28.932350282493505" lon="114.97295264480789"><ele>225.0</ele><time>2026-04-13T06:45:45Z</time></trkpt><trkpt lat="-28.93217355391988" lon="114.972698979518"><ele>225.0</ele><time>2026-04-13T06:45:46Z</time></trkpt><trkpt lat="-28.932009765863647" lon="114.97242742249102"><ele>225.0</ele><time>2026-04-13T06:45:47Z</time></trkpt><trkpt lat="-28.93183259476813" lon="114.9721661237581"><ele>225.0</ele><time>2026-04-13T06:45:48Z</time></trkpt><trkpt lat="-28.931638404572645" lon="114.97190666330486"><ele>225.0</ele><time>2026-04-13T06:45:49Z</time></trkpt><trkpt lat="-28.931455798804198" lon="114.97163612692772"><ele>224.5</ele><time>2026-04-13T06:45:50Z</time></trkpt><trkpt lat="-28.931275995582485" lon="114.97137014337203"><ele>224.0</ele><time>2026-04-13T06:45:51Z</time></trkpt><trkpt lat="-28.93109320348669" lon="114.97110452168103"><ele>221.5</ele><time>2026-04-13T06:45:52Z</time></trkpt><trkpt lat="-28.930921107402778" lon="114.970826102773"><ele>219.0</ele><time>2026-04-13T06:45:53Z</time></trkpt><trkpt lat="-28.93074047723066" lon="114.97055730314835"><ele>218.5</ele><time>2026-04-13T06:45:54Z</time></trkpt><trkpt lat="-28.930558079368044" lon="114.97028579826922"><ele>218.0</ele><time>2026-04-13T06:45:55Z</time></trkpt><trkpt lat="-28.930375999633938" lon="114.97001476689722"><ele>217.5</ele><time>2026-04-13T06:45:56Z</time></trkpt><trkpt lat="-28.930193673396058" lon="114.96974338377223"><ele>217.0</ele><time>2026-04-13T06:45:57Z</time></trkpt><trkpt lat="-28.930011299661995" lon="114.96947279896979"><ele>216.0</ele><time>2026-04-13T06:45:58Z</time></trkpt><trkpt lat="-28.929829362932246" lon="114.96920216173567"><ele>215.0</ele><time>2026-04-13T06:45:59Z</time></trkpt><trkpt lat="-28.929650284939378" lon="114.96893634230628"><ele>214.5</ele><time>2026-04-13T06:46:00Z</time></trkpt><trkpt lat="-28.92947308393975" lon="114.96867522577213"><ele>214.0</ele><time>2026-04-13T06:46:01Z</time></trkpt><trkpt lat="-28.92929895350771" lon="114.96841748577636"><ele>213.0</ele><time>2026-04-13T06:46:02Z</time></trkpt><trkpt lat="-28.929122821438405" lon="114.96816629016347"><ele>212.0</ele><time>2026-04-13T06:46:03Z</time></trkpt><trkpt lat="-28.928938715363856" lon="114.9679199969223"><ele>212.0</ele><time>2026-04-13T06:46:04Z</time></trkpt><trkpt lat="-28.928745718646503" lon="114.96768067728367"><ele>212.0</ele><time>2026-04-13T06:46:05Z</time></trkpt><trkpt lat="-28.928540501225044" lon="114.96744860893895"><ele>211.0</ele><time>2026-04-13T06:46:06Z</time></trkpt><trkpt lat="-28.928333685324" lon="114.96722375548066"><ele>210.0</ele><time>2026-04-13T06:46:07Z</time></trkpt><trkpt lat="-28.928125568956016" lon="114.96699759299337"><ele>210.0</ele><time>2026-04-13T06:46:08Z</time></trkpt><trkpt lat="-28.927917041208236" lon="114.96677013897396"><ele>210.0</ele><time>2026-04-13T06:46:09Z</time></trkpt><trkpt lat="-28.927708102221242" lon="114.96654135775523"><ele>207.0</ele><time>2026-04-13T06:46:10Z</time></trkpt><trkpt lat="-28.927496812331707" lon="114.96631312618042"><ele>204.0</ele><time>2026-04-13T06:46:11Z</time></trkpt><trkpt lat="-28.92728441289431" lon="114.9660887173044"><ele>204.0</ele><time>2026-04-13T06:46:12Z</time></trkpt><trkpt lat="-28.927069879285447" lon="114.96586642749054"><ele>204.0</ele><time>2026-04-13T06:46:13Z</time></trkpt><trkpt lat="-28.92684527144208" lon="114.9656542565575"><ele>202.0</ele><time>2026-04-13T06:46:14Z</time></trkpt><trkpt lat="-28.92664350372953" lon="114.96541653893439"><ele>200.0</ele><time>2026-04-13T06:46:15Z</time></trkpt><trkpt lat="-28.92643215440075" lon="114.96518917680616"><ele>199.5</ele><time>2026-04-13T06:46:16Z</time></trkpt><trkpt lat="-28.926223284725666" lon="114.96496330497881"><ele>199.0</ele><time>2026-04-13T06:46:17Z</time></trkpt><trkpt lat="-28.926015921123938" lon="114.96474075378258"><ele>197.5</ele><time>2026-04-13T06:46:18Z</time></trkpt><trkpt lat="-28.92580875684968" lon="114.96452163533951"><ele>196.0</ele><time>2026-04-13T06:46:19Z</time></trkpt><trkpt lat="-28.92560153769426" lon="114.96430546880838"><ele>197.0</ele><time>2026-04-13T06:46:20Z</time></trkpt><trkpt lat="-28.925395938518104" lon="114.96409193537431"><ele>198.0</ele><time>2026-04-13T06:46:21Z</time></trkpt><trkpt lat="-28.925191529587963" lon="114.96387902295085"><ele>198.0</ele><time>2026-04-13T06:46:22Z</time></trkpt><trkpt lat="-28.924977244452062" lon="114.9636807975148"><ele>198.0</ele><time>2026-04-13T06:46:23Z</time></trkpt><trkpt lat="-28.924780693085314" lon="114.96346278974147"><ele>199.0</ele><time>2026-04-13T06:46:24Z</time></trkpt><trkpt lat="-28.924573841279827" lon="114.96325112822309"><ele>200.0</ele><time>2026-04-13T06:46:25Z</time></trkpt><trkpt lat="-28.924368906659684" lon="114.96304029245181"><ele>199.5</ele><time>2026-04-13T06:46:26Z</time></trkpt><trkpt lat="-28.924179170722976" lon="114.96281287633319"><ele>199.0</ele><time>2026-04-13T06:46:27Z</time></trkpt><trkpt lat="-28.923968696693663" lon="114.96260381763422"><ele>199.5</ele><time>2026-04-13T06:46:28Z</time></trkpt><trkpt lat="-28.92376726183109" lon="114.96237751072992"><ele>200.0</ele><time>2026-04-13T06:46:29Z</time></trkpt><trkpt lat="-28.923560275959478" lon="114.96215600696425"><ele>197.0</ele><time>2026-04-13T06:46:30Z</time></trkpt><trkpt lat="-28.923351501653674" lon="114.96193837696838"><ele>194.0</ele><time>2026-04-13T06:46:31Z</time></trkpt><trkpt lat="-28.923155080757144" lon="114.96170954351504"><ele>197.5</ele><time>2026-04-13T06:46:32Z</time></trkpt><trkpt lat="-28.92294894452285" lon="114.96148991007357"><ele>201.0</ele><time>2026-04-13T06:46:33Z</time></trkpt><trkpt lat="-28.922751762505982" lon="114.96128058824623"><ele>198.0</ele><time>2026-04-13T06:46:34Z</time></trkpt><trkpt lat="-28.9225550445609" lon="114.96107031787433"><ele>195.0</ele><time>2026-04-13T06:46:35Z</time></trkpt><trkpt lat="-28.922349957461943" lon="114.96087621333052"><ele>197.5</ele><time>2026-04-13T06:46:36Z</time></trkpt><trkpt lat="-28.9221557836505" lon="114.9606628617376"><ele>200.0</ele><time>2026-04-13T06:46:37Z</time></trkpt><trkpt lat="-28.921962284263365" lon="114.96045030965333"><ele>200.0</ele><time>2026-04-13T06:46:38Z</time></trkpt><trkpt lat="-28.921769026905295" lon="114.96024335018957"><ele>200.0</ele><time>2026-04-13T06:46:39Z</time></trkpt><trkpt lat="-28.92157868562564" lon="114.96003909941483"><ele>199.5</ele><time>2026-04-13T06:46:40Z</time></trkpt><trkpt lat="-28.92139592550155" lon="114.95984518784931"><ele>199.0</ele><time>2026-04-13T06:46:41Z</time></trkpt><trkpt lat="-28.921225382530583" lon="114.95966663835071"><ele>199.0</ele><time>2026-04-13T06:46:42Z</time></trkpt><trkpt lat="-28.921051307080756" lon="114.95948169234941"><ele>199.0</ele><time>2026-04-13T06:46:43Z</time></trkpt><trkpt lat="-28.920873903246125" lon="114.95928915649498"><ele>199.0</ele><time>2026-04-13T06:46:44Z</time></trkpt><trkpt lat="-28.920693923437277" lon="114.95909401362316"><ele>199.0</ele><time>2026-04-13T06:46:45Z</time></trkpt><trkpt lat="-28.920508428225283" lon="114.95889465590383"><ele>199.0</ele><time>2026-04-13T06:46:46Z</time></trkpt><trkpt lat="-28.92032181474121" lon="114.95869640347063"><ele>199.0</ele><time>2026-04-13T06:46:47Z</time></trkpt><trkpt lat="-28.920137556485738" lon="114.95850245812375"><ele>199.0</ele><time>2026-04-13T06:46:48Z</time></trkpt><trkpt lat="-28.91995394824248" lon="114.9583050688405"><ele>199.0</ele><time>2026-04-13T06:46:49Z</time></trkpt><trkpt lat="-28.919772159871915" lon="114.95811351586647"><ele>199.0</ele><time>2026-04-13T06:46:50Z</time></trkpt><trkpt lat="-28.919594782644403" lon="114.95792593106752"><ele>199.0</ele><time>2026-04-13T06:46:51Z</time></trkpt><trkpt lat="-28.91941732292073" lon="114.95773213871354"><ele>199.0</ele><time>2026-04-13T06:46:52Z</time></trkpt><trkpt lat="-28.91923765219167" lon="114.95753861606012"><ele>199.0</ele><time>2026-04-13T06:46:53Z</time></trkpt><trkpt lat="-28.919054962229435" lon="114.95734594409184"><ele>199.5</ele><time>2026-04-13T06:46:54Z</time></trkpt><trkpt lat="-28.918870641373257" lon="114.9571538387062"><ele>200.0</ele><time>2026-04-13T06:46:55Z</time></trkpt><trkpt lat="-28.918687158992977" lon="114.95696900262662"><ele>200.0</ele><time>2026-04-13T06:46:56Z</time></trkpt><trkpt lat="-28.918495072879253" lon="114.95679840681852"><ele>200.0</ele><time>2026-04-13T06:46:57Z</time></trkpt><trkpt lat="-28.9182932788278" lon="114.95664103561977"><ele>200.5</ele><time>2026-04-13T06:46:58Z</time></trkpt><trkpt lat="-28.91807698223138" lon="114.95650210690921"><ele>201.0</ele><time>2026-04-13T06:46:59Z</time></trkpt><trkpt lat="-28.917847958274816" lon="114.9563818055314"><ele>201.0</ele><time>2026-04-13T06:47:00Z</time></trkpt><trkpt lat="-28.91760679263674" lon="114.9562775424186"><ele>201.0</ele><time>2026-04-13T06:47:01Z</time></trkpt><trkpt lat="-28.917357099688555" lon="114.9561835580149"><ele>199.0</ele><time>2026-04-13T06:47:02Z</time></trkpt><trkpt lat="-28.91710323286009" lon="114.95610007044316"><ele>197.0</ele><time>2026-04-13T06:47:03Z</time></trkpt><trkpt lat="-28.916845810084197" lon="114.956024455986"><ele>195.5</ele><time>2026-04-13T06:47:04Z</time></trkpt><trkpt lat="-28.916586849488226" lon="114.95595418466041"><ele>194.0</ele><time>2026-04-13T06:47:05Z</time></trkpt><trkpt lat="-28.91632669805658" lon="114.95588109726853"><ele>194.0</ele><time>2026-04-13T06:47:06Z</time></trkpt><trkpt lat="-28.916065531511343" lon="114.95580792455665"><ele>194.0</ele><time>2026-04-13T06:47:07Z</time></trkpt><trkpt lat="-28.915800596200125" lon="114.95573307615285"><ele>191.5</ele><time>2026-04-13T06:47:08Z</time></trkpt><trkpt lat="-28.91553254217216" lon="114.95565896612231"><ele>189.0</ele><time>2026-04-13T06:47:09Z</time></trkpt><trkpt lat="-28.91526528607702" lon="114.95558399050431"><ele>188.5</ele><time>2026-04-13T06:47:10Z</time></trkpt><trkpt lat="-28.914997288076414" lon="114.95550701624767"><ele>188.0</ele><time>2026-04-13T06:47:11Z</time></trkpt><trkpt lat="-28.914726632904312" lon="114.95542589034946"><ele>188.0</ele><time>2026-04-13T06:47:12Z</time></trkpt><trkpt lat="-28.914455591446163" lon="114.95534852317743"><ele>188.0</ele><time>2026-04-13T06:47:13Z</time></trkpt><trkpt lat="-28.914181971155497" lon="114.95526982781172"><ele>187.5</ele><time>2026-04-13T06:47:14Z</time></trkpt><trkpt lat="-28.913907481011687" lon="114.95519293383026"><ele>187.0</ele><time>2026-04-13T06:47:15Z</time></trkpt><trkpt lat="-28.913633161485805" lon="114.95511258206119"><ele>187.5</ele><time>2026-04-13T06:47:16Z</time></trkpt><trkpt lat="-28.91335939232546" lon="114.95503621285317"><ele>188.0</ele><time>2026-04-13T06:47:17Z</time></trkpt><trkpt lat="-28.913084993069894" lon="114.95496079515894"><ele>188.0</ele><time>2026-04-13T06:47:18Z</time></trkpt><trkpt lat="-28.91280717125929" lon="114.95488664250895"><ele>188.0</ele><time>2026-04-13T06:47:19Z</time></trkpt><trkpt lat="-28.912527715726004" lon="114.95481289399433"><ele>187.0</ele><time>2026-04-13T06:47:20Z</time></trkpt><trkpt lat="-28.912246027008063" lon="114.95473752954345"><ele>186.0</ele><time>2026-04-13T06:47:21Z</time></trkpt><trkpt lat="-28.911962874276277" lon="114.95466123878168"><ele>185.0</ele><time>2026-04-13T06:47:22Z</time></trkpt><trkpt lat="-28.911680882383504" lon="114.95458117343412"><ele>184.0</ele><time>2026-04-13T06:47:23Z</time></trkpt><trkpt lat="-28.911395862583575" lon="114.9544982914036"><ele>184.0</ele><time>2026-04-13T06:47:24Z</time></trkpt><trkpt lat="-28.911114265067457" lon="114.95441624650263"><ele>184.0</ele><time>2026-04-13T06:47:25Z</time></trkpt><trkpt lat="-28.91083489690473" lon="114.95433618823515"><ele>183.5</ele><time>2026-04-13T06:47:26Z</time></trkpt><trkpt lat="-28.910557488138178" lon="114.9542559269746"><ele>183.0</ele><time>2026-04-13T06:47:27Z</time></trkpt><trkpt lat="-28.910282222830535" lon="114.95417893022628"><ele>184.0</ele><time>2026-04-13T06:47:28Z</time></trkpt><trkpt lat="-28.910009469466022" lon="114.9541053242291"><ele>185.0</ele><time>2026-04-13T06:47:29Z</time></trkpt><trkpt lat="-28.909737360616532" lon="114.95403061694464"><ele>185.0</ele><time>2026-04-13T06:47:30Z</time></trkpt><trkpt lat="-28.90946899988748" lon="114.95395649847052"><ele>185.0</ele><time>2026-04-13T06:47:31Z</time></trkpt><trkpt lat="-28.909198316962367" lon="114.95387968761604"><ele>183.5</ele><time>2026-04-13T06:47:32Z</time></trkpt><trkpt lat="-28.908925552051308" lon="114.95380322337023"><ele>182.0</ele><time>2026-04-13T06:47:33Z</time></trkpt><trkpt lat="-28.908652200503074" lon="114.95372688821081"><ele>182.5</ele><time>2026-04-13T06:47:34Z</time></trkpt><trkpt lat="-28.908376482031972" lon="114.95364981050108"><ele>183.0</ele><time>2026-04-13T06:47:35Z</time></trkpt><trkpt lat="-28.908099773571767" lon="114.95356933801196"><ele>183.0</ele><time>2026-04-13T06:47:36Z</time></trkpt><trkpt lat="-28.907822986375425" lon="114.95348485442689"><ele>183.0</ele><time>2026-04-13T06:47:37Z</time></trkpt><trkpt lat="-28.907544614479054" lon="114.9533952488528"><ele>182.0</ele><time>2026-04-13T06:47:38Z</time></trkpt><trkpt lat="-28.90726599297223" lon="114.95330237060755"><ele>181.0</ele><time>2026-04-13T06:47:39Z</time></trkpt><trkpt lat="-28.90698789511976" lon="114.95320499667905"><ele>179.0</ele><time>2026-04-13T06:47:40Z</time></trkpt><trkpt lat="-28.906708412871215" lon="114.95310283767638"><ele>177.0</ele><time>2026-04-13T06:47:41Z</time></trkpt><trkpt lat="-28.90642996242931" lon="114.95299921995694"><ele>177.0</ele><time>2026-04-13T06:47:42Z</time></trkpt><trkpt lat="-28.906150216714277" lon="114.95289816284782"><ele>177.0</ele><time>2026-04-13T06:47:43Z</time></trkpt><trkpt lat="-28.905870280013097" lon="114.95279907432791"><ele>176.0</ele><time>2026-04-13T06:47:44Z</time></trkpt><trkpt lat="-28.90558851821902" lon="114.95270285673173"><ele>175.0</ele><time>2026-04-13T06:47:45Z</time></trkpt><trkpt lat="-28.90530645941871" lon="114.95260743932288"><ele>173.5</ele><time>2026-04-13T06:47:46Z</time></trkpt><trkpt lat="-28.9050241449717" lon="114.95250978513302"><ele>172.0</ele><time>2026-04-13T06:47:47Z</time></trkpt><trkpt lat="-28.90474439625442" lon="114.95241351772036"><ele>172.0</ele><time>2026-04-13T06:47:48Z</time></trkpt><trkpt lat="-28.904461344652915" lon="114.95231465050955"><ele>172.0</ele><time>2026-04-13T06:47:49Z</time></trkpt><trkpt lat="-28.904179936090003" lon="114.9522154769865"><ele>170.5</ele><time>2026-04-13T06:47:50Z</time></trkpt><trkpt lat="-28.903897088105168" lon="114.95211322474353"><ele>169.0</ele><time>2026-04-13T06:47:51Z</time></trkpt><trkpt lat="-28.903616365337587" lon="114.9520117627438"><ele>168.5</ele><time>2026-04-13T06:47:52Z</time></trkpt><trkpt lat="-28.903345711693813" lon="114.95191510954623"><ele>168.0</ele><time>2026-04-13T06:47:53Z</time></trkpt><trkpt lat="-28.903091333474922" lon="114.95182415282602"><ele>168.0</ele><time>2026-04-13T06:47:54Z</time></trkpt><trkpt lat="-28.902856276483778" lon="114.95174048303187"><ele>168.0</ele><time>2026-04-13T06:47:55Z</time></trkpt><trkpt lat="-28.902647639453043" lon="114.95166660093975"><ele>167.66666666666666</ele><time>2026-04-13T06:47:56Z</time></trkpt><trkpt lat="-28.902458134607603" lon="114.95159772160135"><ele>167.33333333333331</ele><time>2026-04-13T06:47:57Z</time></trkpt><trkpt lat="-28.902288041983866" lon="114.95154078966897"><ele>167.0</ele><time>2026-04-13T06:47:58Z</time></trkpt><trkpt lat="-28.90214069405118" lon="114.95148940958535"><ele>167.0</ele><time>2026-04-13T06:47:59Z</time></trkpt><trkpt lat="-28.90202055818171" lon="114.95144419101115"><ele>167.0</ele><time>2026-04-13T06:48:00Z</time></trkpt><trkpt lat="-28.901920941612982" lon="114.95140577592741"><ele>167.0</ele><time>2026-04-13T06:48:01Z</time></trkpt><trkpt lat="-28.901851600934076" lon="114.95136489504564"><ele>167.0</ele><time>2026-04-13T06:48:02Z</time></trkpt><trkpt lat="-28.90180065056899" lon="114.95131226158321"><ele>167.0</ele><time>2026-04-13T06:48:03Z</time></trkpt><trkpt lat="-28.901773497887138" lon="114.9512299234511"><ele>167.0</ele><time>2026-04-13T06:48:04Z</time></trkpt><trkpt lat="-28.901771936176107" lon="114.95112539834821"><ele>167.0</ele><time>2026-04-13T06:48:05Z</time></trkpt><trkpt lat="-28.901797363843276" lon="114.95100217718709"><ele>167.0</ele><time>2026-04-13T06:48:06Z</time></trkpt><trkpt lat="-28.901827130502262" lon="114.95086325604514"><ele>167.0</ele><time>2026-04-13T06:48:07Z</time></trkpt><trkpt lat="-28.901859983250883" lon="114.95069896086504"><ele>167.33333333333331</ele><time>2026-04-13T06:48:08Z</time></trkpt><trkpt lat="-28.901890422623616" lon="114.95051472108858"><ele>167.66666666666666</ele><time>2026-04-13T06:48:09Z</time></trkpt><trkpt lat="-28.901914908222288" lon="114.95031550813442"><ele>168.0</ele><time>2026-04-13T06:48:10Z</time></trkpt><trkpt lat="-28.901937640995108" lon="114.95009571734876"><ele>169.33333333333334</ele><time>2026-04-13T06:48:11Z</time></trkpt><trkpt lat="-28.901957506920226" lon="114.94988158834701"><ele>170.66666666666669</ele><time>2026-04-13T06:48:12Z</time></trkpt><trkpt lat="-28.901964177109583" lon="114.94965599784983"><ele>172.0</ele><time>2026-04-13T06:48:13Z</time></trkpt><trkpt lat="-28.90196030101242" lon="114.94941962758116"><ele>173.33333333333334</ele><time>2026-04-13T06:48:14Z</time></trkpt><trkpt lat="-28.901951125039297" lon="114.94917209822408"><ele>174.66666666666666</ele><time>2026-04-13T06:48:15Z</time></trkpt><trkpt lat="-28.901938994254625" lon="114.94891413504914"><ele>176.0</ele><time>2026-04-13T06:48:16Z</time></trkpt><trkpt lat="-28.90191919879862" lon="114.94867035748021"><ele>176.0</ele><time>2026-04-13T06:48:17Z</time></trkpt><trkpt lat="-28.9018932872891" lon="114.9484217943194"><ele>176.0</ele><time>2026-04-13T06:48:18Z</time></trkpt><trkpt lat="-28.901855604377896" lon="114.94816781913273"><ele>176.0</ele><time>2026-04-13T06:48:19Z</time></trkpt><trkpt lat="-28.90180676807729" lon="114.9479116765903"><ele>176.5</ele><time>2026-04-13T06:48:20Z</time></trkpt><trkpt lat="-28.901748890123816" lon="114.94765594478709"><ele>177.0</ele><time>2026-04-13T06:48:21Z</time></trkpt><trkpt lat="-28.9016795553954" lon="114.947396959954"><ele>179.0</ele><time>2026-04-13T06:48:22Z</time></trkpt><trkpt lat="-28.90159965414419" lon="114.94713809119928"><ele>181.0</ele><time>2026-04-13T06:48:23Z</time></trkpt><trkpt lat="-28.901508062169825" lon="114.94687967513367"><ele>183.0</ele><time>2026-04-13T06:48:24Z</time></trkpt><trkpt lat="-28.901402871996506" lon="114.94661587698981"><ele>185.0</ele><time>2026-04-13T06:48:25Z</time></trkpt><trkpt lat="-28.901291946008765" lon="114.94634769053869"><ele>185.0</ele><time>2026-04-13T06:48:26Z</time></trkpt><trkpt lat="-28.901168569615884" lon="114.94607961015694"><ele>185.0</ele><time>2026-04-13T06:48:27Z</time></trkpt><trkpt lat="-28.901042875912637" lon="114.94582920860505"><ele>183.5</ele><time>2026-04-13T06:48:28Z</time></trkpt><trkpt lat="-28.900910658283365" lon="114.94559573574696"><ele>182.0</ele><time>2026-04-13T06:48:29Z</time></trkpt><trkpt lat="-28.900767346032016" lon="114.94536041743908"><ele>182.0</ele><time>2026-04-13T06:48:30Z</time></trkpt><trkpt lat="-28.900621233049765" lon="114.94513197485477"><ele>182.0</ele><time>2026-04-13T06:48:31Z</time></trkpt><trkpt lat="-28.900472373956337" lon="114.94489934464146"><ele>181.5</ele><time>2026-04-13T06:48:32Z</time></trkpt><trkpt lat="-28.90032619045484" lon="114.94466719073144"><ele>181.0</ele><time>2026-04-13T06:48:33Z</time></trkpt><trkpt lat="-28.900186385529274" lon="114.94442931857205"><ele>179.0</ele><time>2026-04-13T06:48:34Z</time></trkpt><trkpt lat="-28.900052148057288" lon="114.94418663725087"><ele>177.0</ele><time>2026-04-13T06:48:35Z</time></trkpt><trkpt lat="-28.899920534129144" lon="114.943940217707"><ele>177.0</ele><time>2026-04-13T06:48:36Z</time></trkpt><trkpt lat="-28.899794111803725" lon="114.94368729518071"><ele>177.0</ele><time>2026-04-13T06:48:37Z</time></trkpt><trkpt lat="-28.899674757930416" lon="114.9434319689884"><ele>176.0</ele><time>2026-04-13T06:48:38Z</time></trkpt><trkpt lat="-28.899563326686945" lon="114.94316283426164"><ele>175.0</ele><time>2026-04-13T06:48:39Z</time></trkpt><trkpt lat="-28.89946809920744" lon="114.9428876357587"><ele>175.0</ele><time>2026-04-13T06:48:40Z</time></trkpt><trkpt lat="-28.89938649948031" lon="114.94261399405416"><ele>175.0</ele><time>2026-04-13T06:48:41Z</time></trkpt><trkpt lat="-28.8993175146293" lon="114.94233158143513"><ele>175.5</ele><time>2026-04-13T06:48:42Z</time></trkpt><trkpt lat="-28.89926344679168" lon="114.9420497884328"><ele>176.0</ele><time>2026-04-13T06:48:43Z</time></trkpt><trkpt lat="-28.899216265769006" lon="114.94176327346229"><ele>179.5</ele><time>2026-04-13T06:48:44Z</time></trkpt><trkpt lat="-28.899177688422547" lon="114.94147756089745"><ele>183.0</ele><time>2026-04-13T06:48:45Z</time></trkpt><trkpt lat="-28.899150009535298" lon="114.94118902490872"><ele>183.0</ele><time>2026-04-13T06:48:46Z</time></trkpt><trkpt lat="-28.899122554244556" lon="114.94090301669156"><ele>183.0</ele><time>2026-04-13T06:48:47Z</time></trkpt><trkpt lat="-28.899091542946937" lon="114.94061933012675"><ele>186.0</ele><time>2026-04-13T06:48:48Z</time></trkpt><trkpt lat="-28.899057062310966" lon="114.94033655500957"><ele>189.0</ele><time>2026-04-13T06:48:49Z</time></trkpt><trkpt lat="-28.899029777410995" lon="114.9400495775052"><ele>191.0</ele><time>2026-04-13T06:48:50Z</time></trkpt><trkpt lat="-28.899005838762115" lon="114.93975776816836"><ele>193.0</ele><time>2026-04-13T06:48:51Z</time></trkpt><trkpt lat="-28.8989786372073" lon="114.93946255243826"><ele>195.0</ele><time>2026-04-13T06:48:52Z</time></trkpt><trkpt lat="-28.89894165806298" lon="114.93917214277877"><ele>197.0</ele><time>2026-04-13T06:48:53Z</time></trkpt><trkpt lat="-28.898927912034758" lon="114.93887613330547"><ele>197.0</ele><time>2026-04-13T06:48:54Z</time></trkpt><trkpt lat="-28.89889833592471" lon="114.93859091874332"><ele>197.0</ele><time>2026-04-13T06:48:55Z</time></trkpt><trkpt lat="-28.89886840100454" lon="114.93830765366747"><ele>199.0</ele><time>2026-04-13T06:48:56Z</time></trkpt><trkpt lat="-28.898829237908075" lon="114.93802974522261"><ele>201.0</ele><time>2026-04-13T06:48:57Z</time></trkpt><trkpt lat="-28.898806925701713" lon="114.93774755072852"><ele>202.0</ele><time>2026-04-13T06:48:58Z</time></trkpt><trkpt lat="-28.898778585286834" lon="114.93746632831882"><ele>203.0</ele><time>2026-04-13T06:48:59Z</time></trkpt><trkpt lat="-28.898749268372473" lon="114.93718303746826"><ele>203.0</ele><time>2026-04-13T06:49:00Z</time></trkpt><trkpt lat="-28.898719425315893" lon="114.93690068149627"><ele>203.0</ele><time>2026-04-13T06:49:01Z</time></trkpt><trkpt lat="-28.89868933961961" lon="114.93661951069063"><ele>202.0</ele><time>2026-04-13T06:49:02Z</time></trkpt><trkpt lat="-28.898657425106933" lon="114.93633922670622"><ele>201.0</ele><time>2026-04-13T06:49:03Z</time></trkpt><trkpt lat="-28.898625006631512" lon="114.93606098234596"><ele>201.0</ele><time>2026-04-13T06:49:04Z</time></trkpt><trkpt lat="-28.89859086205748" lon="114.93577879634928"><ele>201.0</ele><time>2026-04-13T06:49:05Z</time></trkpt><trkpt lat="-28.898556943184488" lon="114.9354962161439"><ele>201.0</ele><time>2026-04-13T06:49:06Z</time></trkpt><trkpt lat="-28.898519846891098" lon="114.93521988887781"><ele>201.0</ele><time>2026-04-13T06:49:07Z</time></trkpt><trkpt lat="-28.898481264114924" lon="114.93494708969003"><ele>200.0</ele><time>2026-04-13T06:49:08Z</time></trkpt><trkpt lat="-28.898430499517037" lon="114.93467818240069"><ele>199.0</ele><time>2026-04-13T06:49:09Z</time></trkpt><trkpt lat="-28.898368330562523" lon="114.9344192628674"><ele>199.5</ele><time>2026-04-13T06:49:10Z</time></trkpt><trkpt lat="-28.898294112990477" lon="114.93416365607332"><ele>200.0</ele><time>2026-04-13T06:49:11Z</time></trkpt><trkpt lat="-28.89821233909511" lon="114.93391094025178"><ele>200.0</ele><time>2026-04-13T06:49:12Z</time></trkpt><trkpt lat="-28.898130243390177" lon="114.93365730153545"><ele>200.0</ele><time>2026-04-13T06:49:13Z</time></trkpt><trkpt lat="-28.89804650605969" lon="114.93340678245275"><ele>199.5</ele><time>2026-04-13T06:49:14Z</time></trkpt><trkpt lat="-28.897949498732842" lon="114.93316199279896"><ele>199.0</ele><time>2026-04-13T06:49:15Z</time></trkpt><trkpt lat="-28.897841817964483" lon="114.93291492875925"><ele>199.0</ele><time>2026-04-13T06:49:16Z</time></trkpt><trkpt lat="-28.897734939903163" lon="114.93267734845669"><ele>199.0</ele><time>2026-04-13T06:49:17Z</time></trkpt><trkpt lat="-28.89763529846483" lon="114.93245878227376"><ele>199.66666666666666</ele><time>2026-04-13T06:49:18Z</time></trkpt><trkpt lat="-28.897547936183496" lon="114.93225430918797"><ele>200.33333333333331</ele><time>2026-04-13T06:49:19Z</time></trkpt><trkpt lat="-28.897468694616936" lon="114.93205235358191"><ele>201.0</ele><time>2026-04-13T06:49:20Z</time></trkpt><trkpt lat="-28.89738630382899" lon="114.93184344000802"><ele>202.0</ele><time>2026-04-13T06:49:21Z</time></trkpt><trkpt lat="-28.89729846982022" lon="114.9316254537097"><ele>203.0</ele><time>2026-04-13T06:49:22Z</time></trkpt><trkpt lat="-28.897208229232206" lon="114.93141622910156"><ele>204.0</ele><time>2026-04-13T06:49:23Z</time></trkpt><trkpt lat="-28.89712893045001" lon="114.93122931335866"><ele>204.0</ele><time>2026-04-13T06:49:24Z</time></trkpt><trkpt lat="-28.897071920291143" lon="114.93107914153845"><ele>204.0</ele><time>2026-04-13T06:49:25Z</time></trkpt><trkpt lat="-28.89703217430812" lon="114.93096078547742"><ele>204.0</ele><time>2026-04-13T06:49:26Z</time></trkpt><trkpt lat="-28.897000125183048" lon="114.93087404111897"><ele>204.0</ele><time>2026-04-13T06:49:27Z</time></trkpt><trkpt lat="-28.896975904492486" lon="114.93079489439138"><ele>204.0</ele><time>2026-04-13T06:49:29Z</time></trkpt><trkpt lat="-28.896872331899214" lon="114.93092749583629"><ele>204.0</ele><time>2026-04-13T06:49:31Z</time></trkpt><trkpt lat="-28.896818448410034" lon="114.93097597975967"><ele>204.0</ele><time>2026-04-13T06:49:32Z</time></trkpt><trkpt lat="-28.89676775905446" lon="114.93103240234288"><ele>204.0</ele><time>2026-04-13T06:49:33Z</time></trkpt><trkpt lat="-28.89670070405103" lon="114.9311193413784"><ele>204.0</ele><time>2026-04-13T06:49:34Z</time></trkpt><trkpt lat="-28.896613890326602" lon="114.93123586272732"><ele>204.0</ele><time>2026-04-13T06:49:35Z</time></trkpt><trkpt lat="-28.89652277872383" lon="114.93136243327726"><ele>204.25</ele><time>2026-04-13T06:49:36Z</time></trkpt><trkpt lat="-28.896434321053196" lon="114.93148722491803"><ele>204.5</ele><time>2026-04-13T06:49:37Z</time></trkpt><trkpt lat="-28.896360971602814" lon="114.9316064793696"><ele>204.75</ele><time>2026-04-13T06:49:38Z</time></trkpt><trkpt lat="-28.89628656721526" lon="114.93174891295885"><ele>205.0</ele><time>2026-04-13T06:49:39Z</time></trkpt><trkpt lat="-28.896186524369767" lon="114.93192470421926"><ele>203.0</ele><time>2026-04-13T06:49:40Z</time></trkpt><trkpt lat="-28.896075974472353" lon="114.93210433367756"><ele>201.0</ele><time>2026-04-13T06:49:41Z</time></trkpt><trkpt lat="-28.89595563969808" lon="114.9322869404246"><ele>199.0</ele><time>2026-04-13T06:49:42Z</time></trkpt><trkpt lat="-28.895826999808026" lon="114.93248122639396"><ele>196.5</ele><time>2026-04-13T06:49:43Z</time></trkpt><trkpt lat="-28.895699378966462" lon="114.93268542477479"><ele>194.0</ele><time>2026-04-13T06:49:44Z</time></trkpt><trkpt lat="-28.895565891729678" lon="114.93290165216165"><ele>194.0</ele><time>2026-04-13T06:49:45Z</time></trkpt><trkpt lat="-28.895422864851447" lon="114.93312989752694"><ele>194.0</ele><time>2026-04-13T06:49:46Z</time></trkpt><trkpt lat="-28.89528426062967" lon="114.93335315957711"><ele>193.5</ele><time>2026-04-13T06:49:47Z</time></trkpt><trkpt lat="-28.89514620690219" lon="114.93357911471813"><ele>193.0</ele><time>2026-04-13T06:49:48Z</time></trkpt><trkpt lat="-28.895005136740547" lon="114.93380318607542"><ele>192.0</ele><time>2026-04-13T06:49:49Z</time></trkpt><trkpt lat="-28.89486316247196" lon="114.93402968179656"><ele>191.0</ele><time>2026-04-13T06:49:50Z</time></trkpt><trkpt lat="-28.894717636537344" lon="114.93425593957932"><ele>191.0</ele><time>2026-04-13T06:49:51Z</time></trkpt><trkpt lat="-28.894571083420757" lon="114.93448408114098"><ele>191.0</ele><time>2026-04-13T06:49:52Z</time></trkpt><trkpt lat="-28.894426646736978" lon="114.93471839481691"><ele>191.0</ele><time>2026-04-13T06:49:53Z</time></trkpt><trkpt lat="-28.894281153164137" lon="114.93495921445219"><ele>191.0</ele><time>2026-04-13T06:49:54Z</time></trkpt><trkpt lat="-28.89413242110898" lon="114.93520290099497"><ele>189.0</ele><time>2026-04-13T06:49:55Z</time></trkpt><trkpt lat="-28.893986380088275" lon="114.93543878039306"><ele>187.0</ele><time>2026-04-13T06:49:56Z</time></trkpt><trkpt lat="-28.893844251575157" lon="114.93566872664479"><ele>185.0</ele><time>2026-04-13T06:49:57Z</time></trkpt><trkpt lat="-28.89370328810658" lon="114.93589389973164"><ele>183.0</ele><time>2026-04-13T06:49:58Z</time></trkpt><trkpt lat="-28.8935646432764" lon="114.93611693511497"><ele>183.0</ele><time>2026-04-13T06:49:59Z</time></trkpt><trkpt lat="-28.893430753402978" lon="114.93633491764916"><ele>183.0</ele><time>2026-04-13T06:50:00Z</time></trkpt><trkpt lat="-28.89329810758792" lon="114.93655286934114"><ele>183.0</ele><time>2026-04-13T06:50:01Z</time></trkpt><trkpt lat="-28.8931707934721" lon="114.93676582785322"><ele>183.0</ele><time>2026-04-13T06:50:02Z</time></trkpt><trkpt lat="-28.893041834383986" lon="114.9369755988582"><ele>183.0</ele><time>2026-04-13T06:50:03Z</time></trkpt><trkpt lat="-28.892912027970958" lon="114.937179882086"><ele>183.0</ele><time>2026-04-13T06:50:04Z</time></trkpt><trkpt lat="-28.892783731081487" lon="114.93738152238743"><ele>183.0</ele><time>2026-04-13T06:50:05Z</time></trkpt><trkpt lat="-28.892652990853065" lon="114.93757893877677"><ele>181.66666666666666</ele><time>2026-04-13T06:50:06Z</time></trkpt><trkpt lat="-28.892522001946507" lon="114.93777208152476"><ele>180.33333333333331</ele><time>2026-04-13T06:50:07Z</time></trkpt><trkpt lat="-28.892381711746705" lon="114.93795512363674"><ele>179.0</ele><time>2026-04-13T06:50:08Z</time></trkpt><trkpt lat="-28.892231211404848" lon="114.93812907473523"><ele>179.0</ele><time>2026-04-13T06:50:09Z</time></trkpt><trkpt lat="-28.892062078641462" lon="114.93829564858754"><ele>179.0</ele><time>2026-04-13T06:50:10Z</time></trkpt><trkpt lat="-28.891880632746997" lon="114.93846235254428"><ele>177.0</ele><time>2026-04-13T06:50:11Z</time></trkpt><trkpt lat="-28.891692245189166" lon="114.93862244376396"><ele>175.0</ele><time>2026-04-13T06:50:12Z</time></trkpt><trkpt lat="-28.891492942686305" lon="114.93876617657885"><ele>175.0</ele><time>2026-04-13T06:50:13Z</time></trkpt><trkpt lat="-28.891279808151644" lon="114.93889682416093"><ele>175.0</ele><time>2026-04-13T06:50:14Z</time></trkpt><trkpt lat="-28.89106258486143" lon="114.9390138599905"><ele>174.0</ele><time>2026-04-13T06:50:15Z</time></trkpt><trkpt lat="-28.8908357669512" lon="114.93911520816994"><ele>173.0</ele><time>2026-04-13T06:50:16Z</time></trkpt><trkpt lat="-28.89060778953379" lon="114.93919807191163"><ele>170.5</ele><time>2026-04-13T06:50:17Z</time></trkpt><trkpt lat="-28.890366252589207" lon="114.93926074449902"><ele>168.0</ele><time>2026-04-13T06:50:18Z</time></trkpt><trkpt lat="-28.89011285751584" lon="114.93930806778974"><ele>166.5</ele><time>2026-04-13T06:50:19Z</time></trkpt><trkpt lat="-28.889860283531466" lon="114.9393408172472"><ele>165.0</ele><time>2026-04-13T06:50:20Z</time></trkpt><trkpt lat="-28.889603302607874" lon="114.93935573144276"><ele>165.0</ele><time>2026-04-13T06:50:21Z</time></trkpt><trkpt lat="-28.889346037223774" lon="114.9393484135081"><ele>165.0</ele><time>2026-04-13T06:50:22Z</time></trkpt><trkpt lat="-28.889090156600588" lon="114.9393282764907"><ele>164.0</ele><time>2026-04-13T06:50:23Z</time></trkpt><trkpt lat="-28.88884862961943" lon="114.93931298768037"><ele>163.0</ele><time>2026-04-13T06:50:24Z</time></trkpt><trkpt lat="-28.888617357448233" lon="114.93929829821201"><ele>163.0</ele><time>2026-04-13T06:50:25Z</time></trkpt><trkpt lat="-28.88838713757916" lon="114.9392888799742"><ele>163.0</ele><time>2026-04-13T06:50:26Z</time></trkpt><trkpt lat="-28.888149948303756" lon="114.93929692703531"><ele>163.0</ele><time>2026-04-13T06:50:27Z</time></trkpt><trkpt lat="-28.887907267144385" lon="114.93932592938685"><ele>163.0</ele><time>2026-04-13T06:50:28Z</time></trkpt><trkpt lat="-28.887663556713065" lon="114.93936864110445"><ele>161.5</ele><time>2026-04-13T06:50:29Z</time></trkpt><trkpt lat="-28.88742087294669" lon="114.93943058422859"><ele>160.0</ele><time>2026-04-13T06:50:30Z</time></trkpt><trkpt lat="-28.887176309728808" lon="114.9395142568602"><ele>160.0</ele><time>2026-04-13T06:50:31Z</time></trkpt><trkpt lat="-28.886928501748326" lon="114.93960351809746"><ele>160.0</ele><time>2026-04-13T06:50:32Z</time></trkpt><trkpt lat="-28.88668277420333" lon="114.93969582910472"><ele>159.0</ele><time>2026-04-13T06:50:33Z</time></trkpt><trkpt lat="-28.88644989875146" lon="114.93978423601918"><ele>158.0</ele><time>2026-04-13T06:50:34Z</time></trkpt><trkpt lat="-28.8862247000007" lon="114.93986825981733"><ele>158.0</ele><time>2026-04-13T06:50:35Z</time></trkpt><trkpt lat="-28.88600624367751" lon="114.9399490993653"><ele>158.0</ele><time>2026-04-13T06:50:36Z</time></trkpt><trkpt lat="-28.885798813763927" lon="114.94002310099464"><ele>158.0</ele><time>2026-04-13T06:50:37Z</time></trkpt><trkpt lat="-28.885601010655915" lon="114.94009627014451"><ele>155.33333333333331</ele><time>2026-04-13T06:50:38Z</time></trkpt><trkpt lat="-28.885408392555853" lon="114.94017515495828"><ele>152.66666666666666</ele><time>2026-04-13T06:50:39Z</time></trkpt><trkpt lat="-28.88522423656857" lon="114.94026366470673"><ele>150.0</ele><time>2026-04-13T06:50:40Z</time></trkpt><trkpt lat="-28.88503308928955" lon="114.94036926025892"><ele>150.0</ele><time>2026-04-13T06:50:41Z</time></trkpt><trkpt lat="-28.884840194243683" lon="114.94048919421141"><ele>150.0</ele><time>2026-04-13T06:50:42Z</time></trkpt><trkpt lat="-28.88465022861675" lon="114.94061317042578"><ele>150.0</ele><time>2026-04-13T06:50:43Z</time></trkpt><trkpt lat="-28.88446728916261" lon="114.94074017045997"><ele>150.0</ele><time>2026-04-13T06:50:44Z</time></trkpt><trkpt lat="-28.884283826656553" lon="114.94086366672451"><ele>150.0</ele><time>2026-04-13T06:50:45Z</time></trkpt><trkpt lat="-28.884099115497126" lon="114.9409804739428"><ele>150.0</ele><time>2026-04-13T06:50:46Z</time></trkpt><trkpt lat="-28.883917546545547" lon="114.94109623677257"><ele>146.66666666666666</ele><time>2026-04-13T06:50:47Z</time></trkpt><trkpt lat="-28.883739468568812" lon="114.94121334900834"><ele>143.33333333333331</ele><time>2026-04-13T06:50:48Z</time></trkpt><trkpt lat="-28.883571584461823" lon="114.94132305295523"><ele>140.0</ele><time>2026-04-13T06:50:49Z</time></trkpt><trkpt lat="-28.883413500966764" lon="114.94142373372514"><ele>138.33333333333331</ele><time>2026-04-13T06:50:50Z</time></trkpt><trkpt lat="-28.883259191632547" lon="114.94148194971619"><ele>136.66666666666666</ele><time>2026-04-13T06:50:51Z</time></trkpt><trkpt lat="-28.88311464921999" lon="114.94151554827363"><ele>135.0</ele><time>2026-04-13T06:50:52Z</time></trkpt><trkpt lat="-28.88295477205882" lon="114.94151973479127"><ele>135.0</ele><time>2026-04-13T06:50:53Z</time></trkpt><trkpt lat="-28.88277165094342" lon="114.94151146295462"><ele>135.0</ele><time>2026-04-13T06:50:54Z</time></trkpt><trkpt lat="-28.88257438683034" lon="114.94149194871305"><ele>135.0</ele><time>2026-04-13T06:50:55Z</time></trkpt><trkpt lat="-28.882359471141047" lon="114.94148129218547"><ele>133.33333333333334</ele><time>2026-04-13T06:50:56Z</time></trkpt><trkpt lat="-28.88213722671119" lon="114.94145580734987"><ele>131.66666666666669</ele><time>2026-04-13T06:50:57Z</time></trkpt><trkpt lat="-28.88192084340585" lon="114.94143602854518"><ele>130.0</ele><time>2026-04-13T06:50:58Z</time></trkpt><trkpt lat="-28.881702463300158" lon="114.94141855689531"><ele>128.66666666666669</ele><time>2026-04-13T06:50:59Z</time></trkpt><trkpt lat="-28.881487584806266" lon="114.9414035969907"><ele>127.33333333333334</ele><time>2026-04-13T06:51:00Z</time></trkpt><trkpt lat="-28.881279014290325" lon="114.9413996780177"><ele>126.0</ele><time>2026-04-13T06:51:01Z</time></trkpt><trkpt lat="-28.88106796439268" lon="114.94142725624592"><ele>126.0</ele><time>2026-04-13T06:51:02Z</time></trkpt><trkpt lat="-28.88084933961951" lon="114.94150259562795"><ele>126.0</ele><time>2026-04-13T06:51:03Z</time></trkpt><trkpt lat="-28.880625876346457" lon="114.94160842762267"><ele>124.0</ele><time>2026-04-13T06:51:04Z</time></trkpt><trkpt lat="-28.88039155229615" lon="114.94172483493794"><ele>122.0</ele><time>2026-04-13T06:51:05Z</time></trkpt><trkpt lat="-28.88016221140158" lon="114.94182985595602"><ele>122.5</ele><time>2026-04-13T06:51:06Z</time></trkpt><trkpt lat="-28.879925723499493" lon="114.94192112428006"><ele>123.0</ele><time>2026-04-13T06:51:07Z</time></trkpt><trkpt lat="-28.879695544360946" lon="114.94196188127293"><ele>123.0</ele><time>2026-04-13T06:51:08Z</time></trkpt><trkpt lat="-28.879479835474125" lon="114.94197658609897"><ele>123.0</ele><time>2026-04-13T06:51:09Z</time></trkpt><trkpt lat="-28.879255209184905" lon="114.94198084090253"><ele>123.0</ele><time>2026-04-13T06:51:10Z</time></trkpt><trkpt lat="-28.87905032151408" lon="114.94202239385723"><ele>122.66666666666666</ele><time>2026-04-13T06:51:11Z</time></trkpt><trkpt lat="-28.878844923420225" lon="114.94206657720241"><ele>122.33333333333333</ele><time>2026-04-13T06:51:12Z</time></trkpt><trkpt lat="-28.878628618896215" lon="114.94213731230855"><ele>122.0</ele><time>2026-04-13T06:51:13Z</time></trkpt><trkpt lat="-28.878403708054535" lon="114.94221786600144"><ele>121.5</ele><time>2026-04-13T06:51:14Z</time></trkpt><trkpt lat="-28.878164499922406" lon="114.94229921044372"><ele>121.0</ele><time>2026-04-13T06:51:15Z</time></trkpt><trkpt lat="-28.87792378005082" lon="114.94237584303434"><ele>121.0</ele><time>2026-04-13T06:51:16Z</time></trkpt><trkpt lat="-28.877698231072106" lon="114.9424446248778"><ele>121.0</ele><time>2026-04-13T06:51:17Z</time></trkpt><trkpt lat="-28.877481060389687" lon="114.94250522453231"><ele>119.5</ele><time>2026-04-13T06:51:18Z</time></trkpt><trkpt lat="-28.877249821737294" lon="114.94252825137"><ele>118.0</ele><time>2026-04-13T06:51:19Z</time></trkpt><trkpt lat="-28.877007080151664" lon="114.94253113596564"><ele>116.5</ele><time>2026-04-13T06:51:20Z</time></trkpt><trkpt lat="-28.876762269036956" lon="114.94253113596469"><ele>115.0</ele><time>2026-04-13T06:51:21Z</time></trkpt><trkpt lat="-28.876510319435397" lon="114.94254659800501"><ele>115.0</ele><time>2026-04-13T06:51:22Z</time></trkpt><trkpt lat="-28.876258772368878" lon="114.94254549465127"><ele>115.0</ele><time>2026-04-13T06:51:23Z</time></trkpt><trkpt lat="-28.87599836853084" lon="114.94254388042675"><ele>114.0</ele><time>2026-04-13T06:51:24Z</time></trkpt><trkpt lat="-28.87573805442311" lon="114.9425395351712"><ele>113.0</ele><time>2026-04-13T06:51:25Z</time></trkpt><trkpt lat="-28.87548785873213" lon="114.94252023790375"><ele>113.0</ele><time>2026-04-13T06:51:26Z</time></trkpt><trkpt lat="-28.87523671047849" lon="114.94248202471235"><ele>113.0</ele><time>2026-04-13T06:51:27Z</time></trkpt><trkpt lat="-28.874981468962215" lon="114.94242500836523"><ele>112.0</ele><time>2026-04-13T06:51:28Z</time></trkpt><trkpt lat="-28.87473770277919" lon="114.94233259162735"><ele>111.0</ele><time>2026-04-13T06:51:29Z</time></trkpt><trkpt lat="-28.87452654170445" lon="114.94222832385842"><ele>111.0</ele><time>2026-04-13T06:51:30Z</time></trkpt><trkpt lat="-28.874321763851057" lon="114.9421190875922"><ele>111.0</ele><time>2026-04-13T06:51:31Z</time></trkpt><trkpt lat="-28.87411708964233" lon="114.94203435282863"><ele>111.0</ele><time>2026-04-13T06:51:32Z</time></trkpt><trkpt lat="-28.87392135197226" lon="114.9419406203386"><ele>111.66666666666666</ele><time>2026-04-13T06:51:33Z</time></trkpt><trkpt lat="-28.873711196216348" lon="114.94188227875034"><ele>112.33333333333333</ele><time>2026-04-13T06:51:34Z</time></trkpt><trkpt lat="-28.87350683982515" lon="114.94185072071754"><ele>113.0</ele><time>2026-04-13T06:51:35Z</time></trkpt><trkpt lat="-28.873328456548435" lon="114.94181173844"><ele>114.0</ele><time>2026-04-13T06:51:36Z</time></trkpt><trkpt lat="-28.873159190125417" lon="114.94178041968853"><ele>115.0</ele><time>2026-04-13T06:51:37Z</time></trkpt><trkpt lat="-28.87298803958575" lon="114.94186293532493"><ele>116.0</ele><time>2026-04-13T06:51:38Z</time></trkpt><trkpt lat="-28.87281191568312" lon="114.94191020042781"><ele>116.0</ele><time>2026-04-13T06:51:39Z</time></trkpt><trkpt lat="-28.87261899723518" lon="114.94198199934264"><ele>116.0</ele><time>2026-04-13T06:51:40Z</time></trkpt><trkpt lat="-28.872412067582562" lon="114.94206115485855"><ele>116.0</ele><time>2026-04-13T06:51:41Z</time></trkpt><trkpt lat="-28.87219125365841" lon="114.94213575714615"><ele>114.0</ele><time>2026-04-13T06:51:42Z</time></trkpt><trkpt lat="-28.871958910516433" lon="114.94221031600067"><ele>112.0</ele><time>2026-04-13T06:51:43Z</time></trkpt><trkpt lat="-28.871728215509147" lon="114.94228461510619"><ele>111.5</ele><time>2026-04-13T06:51:44Z</time></trkpt><trkpt lat="-28.871494858772763" lon="114.94235808313591"><ele>111.0</ele><time>2026-04-13T06:51:45Z</time></trkpt><trkpt lat="-28.871254085179167" lon="114.94242085271651"><ele>111.0</ele><time>2026-04-13T06:51:46Z</time></trkpt><trkpt lat="-28.871005737194615" lon="114.94245394152635"><ele>111.0</ele><time>2026-04-13T06:51:47Z</time></trkpt><trkpt lat="-28.87074912030328" lon="114.9424467417679"><ele>109.0</ele><time>2026-04-13T06:51:48Z</time></trkpt><trkpt lat="-28.870487857619345" lon="114.94243107852094"><ele>107.0</ele><time>2026-04-13T06:51:49Z</time></trkpt><trkpt lat="-28.870221006070445" lon="114.94241947548491"><ele>107.5</ele><time>2026-04-13T06:51:50Z</time></trkpt><trkpt lat="-28.869945991526773" lon="114.94241343100195"><ele>108.0</ele><time>2026-04-13T06:51:51Z</time></trkpt><trkpt lat="-28.869674873650943" lon="114.9424052728456"><ele>108.0</ele><time>2026-04-13T06:51:52Z</time></trkpt><trkpt lat="-28.86941721366798" lon="114.94239975139426"><ele>108.0</ele><time>2026-04-13T06:51:53Z</time></trkpt><trkpt lat="-28.869162433411674" lon="114.94239294485948"><ele>107.0</ele><time>2026-04-13T06:51:54Z</time></trkpt><trkpt lat="-28.86891377778415" lon="114.94238362859784"><ele>106.0</ele><time>2026-04-13T06:51:55Z</time></trkpt><trkpt lat="-28.868668896764135" lon="114.94237169257256"><ele>105.0</ele><time>2026-04-13T06:51:56Z</time></trkpt><trkpt lat="-28.8684335385922" lon="114.94236274583626"><ele>104.0</ele><time>2026-04-13T06:51:57Z</time></trkpt><trkpt lat="-28.86819250813687" lon="114.94235498638282"><ele>104.0</ele><time>2026-04-13T06:51:58Z</time></trkpt><trkpt lat="-28.86795426185368" lon="114.94234960018105"><ele>104.0</ele><time>2026-04-13T06:51:59Z</time></trkpt><trkpt lat="-28.86771250314525" lon="114.9423480567158"><ele>102.0</ele><time>2026-04-13T06:52:00Z</time></trkpt><trkpt lat="-28.867467871537922" lon="114.94235058933616"><ele>100.0</ele><time>2026-04-13T06:52:01Z</time></trkpt><trkpt lat="-28.86722646210745" lon="114.94235982876255"><ele>100.0</ele><time>2026-04-13T06:52:02Z</time></trkpt><trkpt lat="-28.86698218685685" lon="114.94237396563294"><ele>100.0</ele><time>2026-04-13T06:52:03Z</time></trkpt><trkpt lat="-28.866743449378856" lon="114.94238991723803"><ele>99.33333333333334</ele><time>2026-04-13T06:52:04Z</time></trkpt><trkpt lat="-28.866513201412786" lon="114.94240645604643"><ele>98.66666666666666</ele><time>2026-04-13T06:52:05Z</time></trkpt><trkpt lat="-28.866301299720064" lon="114.94242387386673"><ele>98.0</ele><time>2026-04-13T06:52:06Z</time></trkpt><trkpt lat="-28.86609282901023" lon="114.94243899865577"><ele>98.0</ele><time>2026-04-13T06:52:07Z</time></trkpt><trkpt lat="-28.865890728983146" lon="114.94245770911303"><ele>98.0</ele><time>2026-04-13T06:52:08Z</time></trkpt><trkpt lat="-28.865690736746483" lon="114.94248006417996"><ele>98.0</ele><time>2026-04-13T06:52:09Z</time></trkpt><trkpt lat="-28.865505891347993" lon="114.94251886523166"><ele>98.33333333333333</ele><time>2026-04-13T06:52:10Z</time></trkpt><trkpt lat="-28.865322977106008" lon="114.94258986462312"><ele>98.66666666666666</ele><time>2026-04-13T06:52:11Z</time></trkpt><trkpt lat="-28.865151065732523" lon="114.94269075070142"><ele>99.0</ele><time>2026-04-13T06:52:12Z</time></trkpt><trkpt lat="-28.86497669772088" lon="114.94281574444194"><ele>99.0</ele><time>2026-04-13T06:52:13Z</time></trkpt><trkpt lat="-28.864801588676475" lon="114.94297302397494"><ele>99.0</ele><time>2026-04-13T06:52:14Z</time></trkpt><trkpt lat="-28.864626865599924" lon="114.94314209035768"><ele>99.0</ele><time>2026-04-13T06:52:15Z</time></trkpt><trkpt lat="-28.864463891515207" lon="114.94333163228592"><ele>99.0</ele><time>2026-04-13T06:52:16Z</time></trkpt><trkpt lat="-28.864304548227267" lon="114.9435313274358"><ele>98.0</ele><time>2026-04-13T06:52:17Z</time></trkpt><trkpt lat="-28.86414048228725" lon="114.94373162574621"><ele>97.0</ele><time>2026-04-13T06:52:18Z</time></trkpt><trkpt lat="-28.863967466902917" lon="114.94391877479704"><ele>97.0</ele><time>2026-04-13T06:52:19Z</time></trkpt><trkpt lat="-28.8637840105794" lon="114.94408382939119"><ele>97.0</ele><time>2026-04-13T06:52:20Z</time></trkpt><trkpt lat="-28.863589859381463" lon="114.94423056570855"><ele>98.0</ele><time>2026-04-13T06:52:21Z</time></trkpt><trkpt lat="-28.86338210159265" lon="114.94436173574555"><ele>99.0</ele><time>2026-04-13T06:52:22Z</time></trkpt><trkpt lat="-28.86316916038579" lon="114.94448404137808"><ele>99.0</ele><time>2026-04-13T06:52:23Z</time></trkpt><trkpt lat="-28.86296457376519" lon="114.94461618211717"><ele>99.0</ele><time>2026-04-13T06:52:24Z</time></trkpt><trkpt lat="-28.86276812892446" lon="114.94478633112125"><ele>99.5</ele><time>2026-04-13T06:52:25Z</time></trkpt><trkpt lat="-28.862580472289835" lon="114.94498758059369"><ele>100.0</ele><time>2026-04-13T06:52:26Z</time></trkpt><trkpt lat="-28.86239826823913" lon="114.94520969982415"><ele>100.0</ele><time>2026-04-13T06:52:27Z</time></trkpt><trkpt lat="-28.862214319275097" lon="114.94543705474004"><ele>100.0</ele><time>2026-04-13T06:52:28Z</time></trkpt><trkpt lat="-28.86202470199675" lon="114.94566409889714"><ele>101.0</ele><time>2026-04-13T06:52:29Z</time></trkpt><trkpt lat="-28.861829814591964" lon="114.945890639809"><ele>102.0</ele><time>2026-04-13T06:52:30Z</time></trkpt><trkpt lat="-28.86163225918954" lon="114.9461163520062"><ele>102.0</ele><time>2026-04-13T06:52:31Z</time></trkpt><trkpt lat="-28.861432337912028" lon="114.94634718633205"><ele>102.0</ele><time>2026-04-13T06:52:32Z</time></trkpt><trkpt lat="-28.86123090263631" lon="114.94657846306633"><ele>102.0</ele><time>2026-04-13T06:52:33Z</time></trkpt><trkpt lat="-28.86102919118095" lon="114.9468153732411"><ele>102.0</ele><time>2026-04-13T06:52:34Z</time></trkpt><trkpt lat="-28.860830699371327" lon="114.94705936092252"><ele>102.0</ele><time>2026-04-13T06:52:35Z</time></trkpt><trkpt lat="-28.860632422152655" lon="114.94730883603061"><ele>102.0</ele><time>2026-04-13T06:52:36Z</time></trkpt><trkpt lat="-28.86043101928963" lon="114.94756250035219"><ele>102.5</ele><time>2026-04-13T06:52:37Z</time></trkpt><trkpt lat="-28.860235586909173" lon="114.94781259402303"><ele>103.0</ele><time>2026-04-13T06:52:38Z</time></trkpt><trkpt lat="-28.860040342206847" lon="114.94805679748006"><ele>101.5</ele><time>2026-04-13T06:52:39Z</time></trkpt><trkpt lat="-28.859853730031823" lon="114.94830177131598"><ele>100.0</ele><time>2026-04-13T06:52:40Z</time></trkpt><trkpt lat="-28.859681995412803" lon="114.948560830544"><ele>98.5</ele><time>2026-04-13T06:52:41Z</time></trkpt><trkpt lat="-28.859522295529136" lon="114.94883192679352"><ele>97.0</ele><time>2026-04-13T06:52:42Z</time></trkpt><trkpt lat="-28.859372362935027" lon="114.94911225006824"><ele>97.5</ele><time>2026-04-13T06:52:43Z</time></trkpt><trkpt lat="-28.85924036149705" lon="114.9494031078093"><ele>98.0</ele><time>2026-04-13T06:52:44Z</time></trkpt><trkpt lat="-28.85912779959671" lon="114.94970249806312"><ele>98.0</ele><time>2026-04-13T06:52:45Z</time></trkpt><trkpt lat="-28.85902538788439" lon="114.95000735432056"><ele>98.0</ele><time>2026-04-13T06:52:46Z</time></trkpt><trkpt lat="-28.858923268639707" lon="114.95031301826322"><ele>98.0</ele><time>2026-04-13T06:52:47Z</time></trkpt><trkpt lat="-28.858821237993368" lon="114.95061753078176"><ele>98.0</ele><time>2026-04-13T06:52:48Z</time></trkpt><trkpt lat="-28.8587151735972" lon="114.95092212232063"><ele>98.0</ele><time>2026-04-13T06:52:49Z</time></trkpt><trkpt lat="-28.858606437292504" lon="114.95122824092813"><ele>98.0</ele><time>2026-04-13T06:52:50Z</time></trkpt><trkpt lat="-28.858490273509982" lon="114.95153537504855"><ele>99.0</ele><time>2026-04-13T06:52:51Z</time></trkpt><trkpt lat="-28.85836307202266" lon="114.95183242887362"><ele>100.0</ele><time>2026-04-13T06:52:52Z</time></trkpt><trkpt lat="-28.858231529339132" lon="114.9521167509827"><ele>100.0</ele><time>2026-04-13T06:52:53Z</time></trkpt><trkpt lat="-28.85810240542364" lon="114.95237966672899"><ele>100.0</ele><time>2026-04-13T06:52:54Z</time></trkpt><trkpt lat="-28.857977708140027" lon="114.95264404316836"><ele>99.5</ele><time>2026-04-13T06:52:55Z</time></trkpt><trkpt lat="-28.85786822760832" lon="114.95290608618717"><ele>99.0</ele><time>2026-04-13T06:52:56Z</time></trkpt><trkpt lat="-28.85778069898746" lon="114.9531722799732"><ele>99.5</ele><time>2026-04-13T06:52:57Z</time></trkpt><trkpt lat="-28.857715693975443" lon="114.95345030977165"><ele>100.0</ele><time>2026-04-13T06:52:58Z</time></trkpt><trkpt lat="-28.85767628739412" lon="114.95374533142405"><ele>100.0</ele><time>2026-04-13T06:52:59Z</time></trkpt><trkpt lat="-28.857656791387903" lon="114.95404725591766"><ele>100.0</ele><time>2026-04-13T06:53:00Z</time></trkpt><trkpt lat="-28.857649653807837" lon="114.95435159749593"><ele>99.5</ele><time>2026-04-13T06:53:01Z</time></trkpt><trkpt lat="-28.857650518416204" lon="114.95465640894491"><ele>99.0</ele><time>2026-04-13T06:53:02Z</time></trkpt><trkpt lat="-28.857649310627693" lon="114.9549475860051"><ele>101.5</ele><time>2026-04-13T06:53:03Z</time></trkpt><trkpt lat="-28.857645564701052" lon="114.95523473725113"><ele>104.0</ele><time>2026-04-13T06:53:04Z</time></trkpt><trkpt lat="-28.857634142549575" lon="114.95551654544701"><ele>103.5</ele><time>2026-04-13T06:53:05Z</time></trkpt><trkpt lat="-28.85760575694185" lon="114.9557986022297"><ele>103.0</ele><time>2026-04-13T06:53:06Z</time></trkpt><trkpt lat="-28.857551498725062" lon="114.95606494171699"><ele>103.0</ele><time>2026-04-13T06:53:07Z</time></trkpt><trkpt lat="-28.857469803945783" lon="114.95632502526665"><ele>103.0</ele><time>2026-04-13T06:53:08Z</time></trkpt><trkpt lat="-28.857367229657182" lon="114.95658381168923"><ele>103.5</ele><time>2026-04-13T06:53:09Z</time></trkpt><trkpt lat="-28.857239355533302" lon="114.9568349439928"><ele>104.0</ele><time>2026-04-13T06:53:10Z</time></trkpt><trkpt lat="-28.857102117446722" lon="114.95707692235331"><ele>104.0</ele><time>2026-04-13T06:53:11Z</time></trkpt><trkpt lat="-28.856965325343666" lon="114.95731779856318"><ele>104.0</ele><time>2026-04-13T06:53:12Z</time></trkpt><trkpt lat="-28.85683330398235" lon="114.95756322519406"><ele>103.5</ele><time>2026-04-13T06:53:13Z</time></trkpt><trkpt lat="-28.85671672185512" lon="114.95782031900117"><ele>103.0</ele><time>2026-04-13T06:53:14Z</time></trkpt><trkpt lat="-28.856613707289508" lon="114.95809804532831"><ele>101.0</ele><time>2026-04-13T06:53:15Z</time></trkpt><trkpt lat="-28.856533478672898" lon="114.95839806356766"><ele>99.0</ele><time>2026-04-13T06:53:16Z</time></trkpt><trkpt lat="-28.856474604041278" lon="114.95870562784779"><ele>99.0</ele><time>2026-04-13T06:53:17Z</time></trkpt><trkpt lat="-28.85642957142562" lon="114.95902180159807"><ele>99.0</ele><time>2026-04-13T06:53:18Z</time></trkpt><trkpt lat="-28.856385328411186" lon="114.95934170468242"><ele>101.5</ele><time>2026-04-13T06:53:19Z</time></trkpt><trkpt lat="-28.856344486375438" lon="114.95966232726867"><ele>104.0</ele><time>2026-04-13T06:53:20Z</time></trkpt><trkpt lat="-28.85630060107188" lon="114.95997764765417"><ele>102.5</ele><time>2026-04-13T06:53:21Z</time></trkpt><trkpt lat="-28.856258775697242" lon="114.96029719185411"><ele>101.0</ele><time>2026-04-13T06:53:22Z</time></trkpt><trkpt lat="-28.856219393803684" lon="114.96061802069235"><ele>101.5</ele><time>2026-04-13T06:53:23Z</time></trkpt><trkpt lat="-28.856190304468473" lon="114.96093550879978"><ele>102.0</ele><time>2026-04-13T06:53:24Z</time></trkpt><trkpt lat="-28.856178760382754" lon="114.96125004945756"><ele>102.0</ele><time>2026-04-13T06:53:25Z</time></trkpt><trkpt lat="-28.85618083714642" lon="114.9615496206843"><ele>102.0</ele><time>2026-04-13T06:53:26Z</time></trkpt><trkpt lat="-28.85619089152218" lon="114.96182733543532"><ele>101.66666666666666</ele><time>2026-04-13T06:53:27Z</time></trkpt><trkpt lat="-28.856203453418722" lon="114.96208836131368"><ele>101.33333333333333</ele><time>2026-04-13T06:53:28Z</time></trkpt><trkpt lat="-28.85621428598247" lon="114.96233454561438"><ele>101.0</ele><time>2026-04-13T06:53:29Z</time></trkpt><trkpt lat="-28.856222474279082" lon="114.96257021419844"><ele>101.0</ele><time>2026-04-13T06:53:30Z</time></trkpt><trkpt lat="-28.85622866053988" lon="114.96278813594574"><ele>101.0</ele><time>2026-04-13T06:53:31Z</time></trkpt><trkpt lat="-28.856229424754076" lon="114.96298118258333"><ele>101.0</ele><time>2026-04-13T06:53:32Z</time></trkpt><trkpt lat="-28.856218411264294" lon="114.96311884208204"><ele>100.99999999999999</ele><time>2026-04-13T06:53:33Z</time></trkpt><trkpt lat="-28.856190977354007" lon="114.96320374527313"><ele>101.0</ele><time>2026-04-13T06:53:34Z</time></trkpt><trkpt lat="-28.856145363345565" lon="114.9632646038295"><ele>101.0</ele><time>2026-04-13T06:53:35Z</time></trkpt><trkpt lat="-28.856074576834693" lon="114.9632921275896"><ele>101.0</ele><time>2026-04-13T06:53:36Z</time></trkpt><trkpt lat="-28.85599033821496" lon="114.96330788353993"><ele>100.99999999999999</ele><time>2026-04-13T06:53:37Z</time></trkpt><trkpt lat="-28.855892188388996" lon="114.96331516343523"><ele>101.0</ele><time>2026-04-13T06:53:38Z</time></trkpt><trkpt lat="-28.855788906155794" lon="114.96332751766477"><ele>101.0</ele><time>2026-04-13T06:53:39Z</time></trkpt><trkpt lat="-28.855689433701844" lon="114.96335029610192"><ele>101.0</ele><time>2026-04-13T06:53:40Z</time></trkpt><trkpt lat="-28.85558237046257" lon="114.96337558288586"><ele>101.0</ele><time>2026-04-13T06:53:41Z</time></trkpt><trkpt lat="-28.85546439214864" lon="114.96340076721037"><ele>101.0</ele><time>2026-04-13T06:53:42Z</time></trkpt><trkpt lat="-28.855339367258576" lon="114.96342242805612"><ele>101.0</ele><time>2026-04-13T06:53:43Z</time></trkpt><trkpt lat="-28.855221645021235" lon="114.96344620637475"><ele>101.0</ele><time>2026-04-13T06:53:44Z</time></trkpt><trkpt lat="-28.855112900645775" lon="114.96347088226295"><ele>101.0</ele><time>2026-04-13T06:53:45Z</time></trkpt><trkpt lat="-28.855005970621054" lon="114.96349405756852"><ele>101.0</ele><time>2026-04-13T06:53:46Z</time></trkpt><trkpt lat="-28.85490904058847" lon="114.96351987163874"><ele>101.0</ele><time>2026-04-13T06:53:47Z</time></trkpt><trkpt lat="-28.85482648597233" lon="114.9635652612225"><ele>101.6</ele><time>2026-04-13T06:53:48Z</time></trkpt><trkpt lat="-28.854762630132868" lon="114.96364185198874"><ele>102.19999999999999</ele><time>2026-04-13T06:53:49Z</time></trkpt><trkpt lat="-28.854732987378515" lon="114.96375358651431"><ele>102.80000000000001</ele><time>2026-04-13T06:53:50Z</time></trkpt><trkpt lat="-28.854731263759906" lon="114.96388094111178"><ele>103.4</ele><time>2026-04-13T06:53:51Z</time></trkpt><trkpt lat="-28.854765387951794" lon="114.96402129681317"><ele>104.0</ele><time>2026-04-13T06:53:52Z</time></trkpt><trkpt lat="-28.85483539638375" lon="114.96416668681336"><ele>103.33333333333333</ele><time>2026-04-13T06:53:53Z</time></trkpt><trkpt lat="-28.854925364657117" lon="114.96432053414506"><ele>102.66666666666666</ele><time>2026-04-13T06:53:54Z</time></trkpt><trkpt lat="-28.855028897124328" lon="114.96448249867404"><ele>102.0</ele><time>2026-04-13T06:53:55Z</time></trkpt><trkpt lat="-28.85513446112938" lon="114.96465205998365"><ele>102.0</ele><time>2026-04-13T06:53:56Z</time></trkpt><trkpt lat="-28.855240611318557" lon="114.96483158205736"><ele>102.0</ele><time>2026-04-13T06:53:57Z</time></trkpt><trkpt lat="-28.85534793940782" lon="114.96500725848902"><ele>102.0</ele><time>2026-04-13T06:53:58Z</time></trkpt><trkpt lat="-28.85545106079152" lon="114.96517175641497"><ele>103.33333333333334</ele><time>2026-04-13T06:53:59Z</time></trkpt><trkpt lat="-28.855555490440036" lon="114.96533571017827"><ele>104.66666666666667</ele><time>2026-04-13T06:54:00Z</time></trkpt><trkpt lat="-28.855647401645275" lon="114.96549296373935"><ele>106.0</ele><time>2026-04-13T06:54:01Z</time></trkpt><trkpt lat="-28.855718849456796" lon="114.96563736082977"><ele>106.0</ele><time>2026-04-13T06:54:02Z</time></trkpt><trkpt lat="-28.855764890328942" lon="114.96578124603631"><ele>106.0</ele><time>2026-04-13T06:54:03Z</time></trkpt><trkpt lat="-28.85578446545755" lon="114.96594350039136"><ele>106.0</ele><time>2026-04-13T06:54:04Z</time></trkpt><trkpt lat="-28.855778777437024" lon="114.96611057265046"><ele>106.0</ele><time>2026-04-13T06:54:05Z</time></trkpt><trkpt lat="-28.85574228742679" lon="114.96626326575873"><ele>106.66666666666667</ele><time>2026-04-13T06:54:06Z</time></trkpt><trkpt lat="-28.855665669211962" lon="114.96639732778154"><ele>107.33333333333334</ele><time>2026-04-13T06:54:07Z</time></trkpt><trkpt lat="-28.85556442761138" lon="114.96652978209136"><ele>108.0</ele><time>2026-04-13T06:54:08Z</time></trkpt><trkpt lat="-28.85544164668624" lon="114.96665600651933"><ele>109.0</ele><time>2026-04-13T06:54:09Z</time></trkpt><trkpt lat="-28.855304225124094" lon="114.9667891828108"><ele>110.0</ele><time>2026-04-13T06:54:10Z</time></trkpt><trkpt lat="-28.855153450236305" lon="114.96692838649025"><ele>111.0</ele><time>2026-04-13T06:54:11Z</time></trkpt><trkpt lat="-28.85499011961673" lon="114.96707005198908"><ele>111.0</ele><time>2026-04-13T06:54:12Z</time></trkpt><trkpt lat="-28.854814040855956" lon="114.96720854421034"><ele>111.0</ele><time>2026-04-13T06:54:13Z</time></trkpt><trkpt lat="-28.854630672941294" lon="114.96735142169395"><ele>111.0</ele><time>2026-04-13T06:54:14Z</time></trkpt><trkpt lat="-28.854442857365758" lon="114.96749991645518"><ele>113.0</ele><time>2026-04-13T06:54:15Z</time></trkpt><trkpt lat="-28.85425207901884" lon="114.967657062593"><ele>115.0</ele><time>2026-04-13T06:54:16Z</time></trkpt><trkpt lat="-28.85406438940552" lon="114.9678114304217"><ele>115.0</ele><time>2026-04-13T06:54:17Z</time></trkpt><trkpt lat="-28.853880241316702" lon="114.96796047085756"><ele>115.0</ele><time>2026-04-13T06:54:18Z</time></trkpt><trkpt lat="-28.853691511741445" lon="114.96810568610476"><ele>115.0</ele><time>2026-04-13T06:54:19Z</time></trkpt><trkpt lat="-28.853505722856333" lon="114.96825561676448"><ele>115.0</ele><time>2026-04-13T06:54:20Z</time></trkpt><trkpt lat="-28.853329306382943" lon="114.96842349958824"><ele>118.0</ele><time>2026-04-13T06:54:21Z</time></trkpt><trkpt lat="-28.853171578901726" lon="114.9686215244461"><ele>121.0</ele><time>2026-04-13T06:54:22Z</time></trkpt><trkpt lat="-28.853023764943355" lon="114.96884454238229"><ele>121.0</ele><time>2026-04-13T06:54:23Z</time></trkpt><trkpt lat="-28.852881074975308" lon="114.96908745287911"><ele>121.0</ele><time>2026-04-13T06:54:24Z</time></trkpt><trkpt lat="-28.852734464605373" lon="114.96933346380663"><ele>122.0</ele><time>2026-04-13T06:54:25Z</time></trkpt><trkpt lat="-28.852585572594037" lon="114.96958168995141"><ele>123.0</ele><time>2026-04-13T06:54:26Z</time></trkpt><trkpt lat="-28.852431899330455" lon="114.96983267357334"><ele>124.0</ele><time>2026-04-13T06:54:27Z</time></trkpt><trkpt lat="-28.852278657076393" lon="114.97008452186546"><ele>125.0</ele><time>2026-04-13T06:54:28Z</time></trkpt><trkpt lat="-28.852119904636815" lon="114.9703421368501"><ele>125.0</ele><time>2026-04-13T06:54:29Z</time></trkpt><trkpt lat="-28.85195564568112" lon="114.97060910077128"><ele>125.0</ele><time>2026-04-13T06:54:30Z</time></trkpt><trkpt lat="-28.851791221209755" lon="114.9708778888048"><ele>126.5</ele><time>2026-04-13T06:54:31Z</time></trkpt><trkpt lat="-28.85162325471591" lon="114.97114438057402"><ele>128.0</ele><time>2026-04-13T06:54:32Z</time></trkpt><trkpt lat="-28.851447742189556" lon="114.97139200891637"><ele>128.0</ele><time>2026-04-13T06:54:33Z</time></trkpt><trkpt lat="-28.851264837480745" lon="114.9716150875181"><ele>128.0</ele><time>2026-04-13T06:54:34Z</time></trkpt><trkpt lat="-28.851059770462314" lon="114.97182429882439"><ele>128.0</ele><time>2026-04-13T06:54:35Z</time></trkpt><trkpt lat="-28.850847197790102" lon="114.97203042711092"><ele>128.0</ele><time>2026-04-13T06:54:36Z</time></trkpt><trkpt lat="-28.850638880618167" lon="114.9722227496324"><ele>128.0</ele><time>2026-04-13T06:54:37Z</time></trkpt><trkpt lat="-28.85044600903297" lon="114.97239737878061"><ele>128.0</ele><time>2026-04-13T06:54:38Z</time></trkpt><trkpt lat="-28.850265921249367" lon="114.9725500355837"><ele>130.66666666666666</ele><time>2026-04-13T06:54:39Z</time></trkpt><trkpt lat="-28.850083197927912" lon="114.97268075229361"><ele>133.33333333333334</ele><time>2026-04-13T06:54:40Z</time></trkpt><trkpt lat="-28.849883920232966" lon="114.97280453436946"><ele>136.0</ele><time>2026-04-13T06:54:41Z</time></trkpt><trkpt lat="-28.84966290881189" lon="114.97292338793598"><ele>136.0</ele><time>2026-04-13T06:54:42Z</time></trkpt><trkpt lat="-28.84943344899244" lon="114.97304392015286"><ele>136.0</ele><time>2026-04-13T06:54:43Z</time></trkpt><trkpt lat="-28.849214443021403" lon="114.97315728680809"><ele>138.0</ele><time>2026-04-13T06:54:44Z</time></trkpt><trkpt lat="-28.848998091976146" lon="114.97327141489922"><ele>140.0</ele><time>2026-04-13T06:54:45Z</time></trkpt><trkpt lat="-28.8487857414453" lon="114.97339897300628"><ele>140.0</ele><time>2026-04-13T06:54:46Z</time></trkpt><trkpt lat="-28.848575992470817" lon="114.97355769984713"><ele>140.0</ele><time>2026-04-13T06:54:47Z</time></trkpt><trkpt lat="-28.84836859402258" lon="114.97374661310434"><ele>141.0</ele><time>2026-04-13T06:54:48Z</time></trkpt><trkpt lat="-28.848156401561837" lon="114.97395585168539"><ele>142.0</ele><time>2026-04-13T06:54:49Z</time></trkpt><trkpt lat="-28.847932689313865" lon="114.97415581819467"><ele>141.5</ele><time>2026-04-13T06:54:50Z</time></trkpt><trkpt lat="-28.847703166421823" lon="114.9743376345313"><ele>141.0</ele><time>2026-04-13T06:54:51Z</time></trkpt><trkpt lat="-28.84746502955982" lon="114.97451088577944"><ele>141.0</ele><time>2026-04-13T06:54:52Z</time></trkpt><trkpt lat="-28.847220147850074" lon="114.97467305314846"><ele>141.0</ele><time>2026-04-13T06:54:53Z</time></trkpt><trkpt lat="-28.84697005950072" lon="114.97482080252537"><ele>142.5</ele><time>2026-04-13T06:54:54Z</time></trkpt><trkpt lat="-28.846717083166894" lon="114.97494589452918"><ele>144.0</ele><time>2026-04-13T06:54:55Z</time></trkpt><trkpt lat="-28.846480475732935" lon="114.97504975781236"><ele>144.0</ele><time>2026-04-13T06:54:56Z</time></trkpt><trkpt lat="-28.84625677758803" lon="114.97511582130926"><ele>144.0</ele><time>2026-04-13T06:54:57Z</time></trkpt><trkpt lat="-28.846018704352062" lon="114.97514563473334"><ele>147.0</ele><time>2026-04-13T06:54:58Z</time></trkpt><trkpt lat="-28.84577089823981" lon="114.97515467051387"><ele>150.0</ele><time>2026-04-13T06:54:59Z</time></trkpt><trkpt lat="-28.84551949494545" lon="114.97515666342086"><ele>150.0</ele><time>2026-04-13T06:55:00Z</time></trkpt><trkpt lat="-28.84527740433073" lon="114.97516288838126"><ele>150.0</ele><time>2026-04-13T06:55:01Z</time></trkpt><trkpt lat="-28.84505472255926" lon="114.9751700481674"><ele>152.0</ele><time>2026-04-13T06:55:02Z</time></trkpt><trkpt lat="-28.84483098394125" lon="114.97518723872236"><ele>154.0</ele><time>2026-04-13T06:55:03Z</time></trkpt><trkpt lat="-28.844596076109255" lon="114.97522532884577"><ele>154.0</ele><time>2026-04-13T06:55:04Z</time></trkpt><trkpt lat="-28.84435473679814" lon="114.97528532244633"><ele>154.0</ele><time>2026-04-13T06:55:05Z</time></trkpt><trkpt lat="-28.8441088211407" lon="114.97536512766823"><ele>156.0</ele><time>2026-04-13T06:55:06Z</time></trkpt><trkpt lat="-28.84385565364243" lon="114.9754544233651"><ele>158.0</ele><time>2026-04-13T06:55:07Z</time></trkpt><trkpt lat="-28.843595569063396" lon="114.97554081085241"><ele>158.0</ele><time>2026-04-13T06:55:08Z</time></trkpt><trkpt lat="-28.843329312149166" lon="114.97562475268323"><ele>158.0</ele><time>2026-04-13T06:55:09Z</time></trkpt><trkpt lat="-28.843053034975902" lon="114.97570697182023"><ele>158.0</ele><time>2026-04-13T06:55:10Z</time></trkpt><trkpt lat="-28.84277427170151" lon="114.97578783959221"><ele>158.0</ele><time>2026-04-13T06:55:11Z</time></trkpt><trkpt lat="-28.84249681782528" lon="114.9758695896136"><ele>158.0</ele><time>2026-04-13T06:55:12Z</time></trkpt><trkpt lat="-28.842233159344275" lon="114.97594968975719"><ele>158.0</ele><time>2026-04-13T06:55:13Z</time></trkpt><trkpt lat="-28.841983535575647" lon="114.97602638345496"><ele>158.0</ele><time>2026-04-13T06:55:14Z</time></trkpt><trkpt lat="-28.841751242755183" lon="114.97610072797029"><ele>158.0</ele><time>2026-04-13T06:55:15Z</time></trkpt><trkpt lat="-28.841523653651205" lon="114.97617764185384"><ele>158.0</ele><time>2026-04-13T06:55:16Z</time></trkpt><trkpt lat="-28.84129987473904" lon="114.9762568508032"><ele>158.0</ele><time>2026-04-13T06:55:17Z</time></trkpt><trkpt lat="-28.841086094528393" lon="114.97634799807702"><ele>158.5</ele><time>2026-04-13T06:55:18Z</time></trkpt><trkpt lat="-28.840888801005935" lon="114.97646824943726"><ele>159.0</ele><time>2026-04-13T06:55:19Z</time></trkpt><trkpt lat="-28.84069507631278" lon="114.97661482601636"><ele>156.0</ele><time>2026-04-13T06:55:20Z</time></trkpt><trkpt lat="-28.84050535136147" lon="114.97679026098324"><ele>153.0</ele><time>2026-04-13T06:55:21Z</time></trkpt><trkpt lat="-28.840318677839488" lon="114.97698537257405"><ele>156.5</ele><time>2026-04-13T06:55:22Z</time></trkpt><trkpt lat="-28.840128545416512" lon="114.97718156852142"><ele>160.0</ele><time>2026-04-13T06:55:23Z</time></trkpt><trkpt lat="-28.839942208560814" lon="114.97736834481765"><ele>160.5</ele><time>2026-04-13T06:55:24Z</time></trkpt><trkpt lat="-28.83976044299836" lon="114.97754705695648"><ele>161.0</ele><time>2026-04-13T06:55:25Z</time></trkpt><trkpt lat="-28.83958491455631" lon="114.97771580366215"><ele>161.0</ele><time>2026-04-13T06:55:26Z</time></trkpt><trkpt lat="-28.83941235597427" lon="114.97787885516689"><ele>161.0</ele><time>2026-04-13T06:55:27Z</time></trkpt><trkpt lat="-28.839243767354652" lon="114.9780362085585"><ele>161.0</ele><time>2026-04-13T06:55:28Z</time></trkpt><trkpt lat="-28.839089380064166" lon="114.97818077513713"><ele>162.0</ele><time>2026-04-13T06:55:29Z</time></trkpt><trkpt lat="-28.83893237974599" lon="114.9783048231983"><ele>163.0</ele><time>2026-04-13T06:55:30Z</time></trkpt><trkpt lat="-28.83875616858904" lon="114.9783955270666"><ele>164.0</ele><time>2026-04-13T06:55:31Z</time></trkpt><trkpt lat="-28.83855965349085" lon="114.97844863003881"><ele>165.0</ele><time>2026-04-13T06:55:32Z</time></trkpt><trkpt lat="-28.838340250213953" lon="114.97846928425996"><ele>166.0</ele><time>2026-04-13T06:55:33Z</time></trkpt><trkpt lat="-28.838112800430707" lon="114.9784762622951"><ele>167.0</ele><time>2026-04-13T06:55:34Z</time></trkpt><trkpt lat="-28.83787988618518" lon="114.9784914319672"><ele>167.0</ele><time>2026-04-13T06:55:35Z</time></trkpt><trkpt lat="-28.837646010390234" lon="114.97851818093791"><ele>167.0</ele><time>2026-04-13T06:55:36Z</time></trkpt><trkpt lat="-28.837407490698745" lon="114.97854878254022"><ele>167.5</ele><time>2026-04-13T06:55:37Z</time></trkpt><trkpt lat="-28.837160195281182" lon="114.97858235200498"><ele>168.0</ele><time>2026-04-13T06:55:38Z</time></trkpt><trkpt lat="-28.836905942627517" lon="114.97861545131111"><ele>167.0</ele><time>2026-04-13T06:55:39Z</time></trkpt><trkpt lat="-28.83665177868584" lon="114.97865367399699"><ele>166.0</ele><time>2026-04-13T06:55:40Z</time></trkpt><trkpt lat="-28.83639232290329" lon="114.97869074703858"><ele>166.0</ele><time>2026-04-13T06:55:41Z</time></trkpt><trkpt lat="-28.836128315579465" lon="114.978720649874"><ele>166.0</ele><time>2026-04-13T06:55:42Z</time></trkpt><trkpt lat="-28.835857455837402" lon="114.97874232837897"><ele>167.5</ele><time>2026-04-13T06:55:43Z</time></trkpt><trkpt lat="-28.835582907844913" lon="114.97875511226341"><ele>169.0</ele><time>2026-04-13T06:55:44Z</time></trkpt><trkpt lat="-28.835305242846232" lon="114.97875795638409"><ele>169.0</ele><time>2026-04-13T06:55:45Z</time></trkpt><trkpt lat="-28.835026550264352" lon="114.97874659947341"><ele>169.0</ele><time>2026-04-13T06:55:46Z</time></trkpt><trkpt lat="-28.834759543629918" lon="114.97870936851895"><ele>169.0</ele><time>2026-04-13T06:55:47Z</time></trkpt><trkpt lat="-28.83449983304211" lon="114.97864218860308"><ele>169.0</ele><time>2026-04-13T06:55:48Z</time></trkpt><trkpt lat="-28.83425304088508" lon="114.97854011625978"><ele>168.5</ele><time>2026-04-13T06:55:49Z</time></trkpt><trkpt lat="-28.834005823825052" lon="114.97843843302115"><ele>168.0</ele><time>2026-04-13T06:55:50Z</time></trkpt><trkpt lat="-28.83375830069637" lon="114.97834441918307"><ele>168.0</ele><time>2026-04-13T06:55:51Z</time></trkpt><trkpt lat="-28.83350983819307" lon="114.97825685876813"><ele>168.0</ele><time>2026-04-13T06:55:52Z</time></trkpt><trkpt lat="-28.83326415697516" lon="114.97817460146867"><ele>169.0</ele><time>2026-04-13T06:55:53Z</time></trkpt><trkpt lat="-28.83302047732738" lon="114.97811248469031"><ele>170.0</ele><time>2026-04-13T06:55:54Z</time></trkpt><trkpt lat="-28.832770577593003" lon="114.97806999282325"><ele>171.0</ele><time>2026-04-13T06:55:55Z</time></trkpt><trkpt lat="-28.832520006603733" lon="114.97805410038133"><ele>172.0</ele><time>2026-04-13T06:55:56Z</time></trkpt><trkpt lat="-28.832268049101586" lon="114.97806117878953"><ele>172.0</ele><time>2026-04-13T06:55:57Z</time></trkpt><trkpt lat="-28.832018974857107" lon="114.97808119172326"><ele>172.0</ele><time>2026-04-13T06:55:58Z</time></trkpt><trkpt lat="-28.831767933777524" lon="114.97809298824207"><ele>173.0</ele><time>2026-04-13T06:55:59Z</time></trkpt><trkpt lat="-28.831513154006206" lon="114.97809688165273"><ele>174.0</ele><time>2026-04-13T06:56:00Z</time></trkpt><trkpt lat="-28.831251580873058" lon="114.97809964317457"><ele>174.0</ele><time>2026-04-13T06:56:01Z</time></trkpt><trkpt lat="-28.830987206296683" lon="114.97810004520208"><ele>174.0</ele><time>2026-04-13T06:56:02Z</time></trkpt><trkpt lat="-28.8307204670621" lon="114.97810269528082"><ele>175.0</ele><time>2026-04-13T06:56:03Z</time></trkpt><trkpt lat="-28.830470474477973" lon="114.97811405461562"><ele>176.0</ele><time>2026-04-13T06:56:04Z</time></trkpt><trkpt lat="-28.830239983218913" lon="114.97814921160249"><ele>178.0</ele><time>2026-04-13T06:56:05Z</time></trkpt><trkpt lat="-28.830008720560944" lon="114.97822251794867"><ele>180.0</ele><time>2026-04-13T06:56:06Z</time></trkpt><trkpt lat="-28.829779428825752" lon="114.97832981616357"><ele>177.5</ele><time>2026-04-13T06:56:07Z</time></trkpt><trkpt lat="-28.829549126457835" lon="114.97843858576647"><ele>175.0</ele><time>2026-04-13T06:56:08Z</time></trkpt><trkpt lat="-28.82931575808741" lon="114.97854521294418"><ele>177.0</ele><time>2026-04-13T06:56:09Z</time></trkpt><trkpt lat="-28.829075191721586" lon="114.97865197857213"><ele>179.0</ele><time>2026-04-13T06:56:10Z</time></trkpt><trkpt lat="-28.828840153671717" lon="114.97875759553733"><ele>179.0</ele><time>2026-04-13T06:56:11Z</time></trkpt><trkpt lat="-28.828640588201036" lon="114.97884621499004"><ele>179.0</ele><time>2026-04-13T06:56:12Z</time></trkpt><trkpt lat="-28.828466872751765" lon="114.97891976269027"><ele>179.0</ele><time>2026-04-13T06:56:13Z</time></trkpt><trkpt lat="-28.828306413945256" lon="114.97899038801462"><ele>178.33333333333331</ele><time>2026-04-13T06:56:14Z</time></trkpt><trkpt lat="-28.828137966979916" lon="114.97905873007382"><ele>177.66666666666666</ele><time>2026-04-13T06:56:15Z</time></trkpt><trkpt lat="-28.827959225375388" lon="114.97913820265032"><ele>177.0</ele><time>2026-04-13T06:56:16Z</time></trkpt><trkpt lat="-28.827765979144456" lon="114.97921586124568"><ele>177.33333333333334</ele><time>2026-04-13T06:56:17Z</time></trkpt><trkpt lat="-28.827565633151668" lon="114.97930070759651"><ele>177.66666666666669</ele><time>2026-04-13T06:56:18Z</time></trkpt><trkpt lat="-28.82735574026421" lon="114.97938921005353"><ele>178.0</ele><time>2026-04-13T06:56:19Z</time></trkpt><trkpt lat="-28.82713541701624" lon="114.97948307667558"><ele>178.0</ele><time>2026-04-13T06:56:20Z</time></trkpt><trkpt lat="-28.82690944697575" lon="114.97957900443586"><ele>178.0</ele><time>2026-04-13T06:56:21Z</time></trkpt><trkpt lat="-28.8266780667989" lon="114.97967545891098"><ele>179.0</ele><time>2026-04-13T06:56:22Z</time></trkpt><trkpt lat="-28.8264425312848" lon="114.97977251280234"><ele>180.0</ele><time>2026-04-13T06:56:23Z</time></trkpt><trkpt lat="-28.826206595153636" lon="114.97986946675947"><ele>180.5</ele><time>2026-04-13T06:56:24Z</time></trkpt><trkpt lat="-28.825964650731777" lon="114.97996977612188"><ele>181.0</ele><time>2026-04-13T06:56:25Z</time></trkpt><trkpt lat="-28.82572231281121" lon="114.9800724845885"><ele>181.0</ele><time>2026-04-13T06:56:26Z</time></trkpt><trkpt lat="-28.825475989152363" lon="114.98017635687751"><ele>181.0</ele><time>2026-04-13T06:56:27Z</time></trkpt><trkpt lat="-28.82522623213249" lon="114.98028207269155"><ele>180.5</ele><time>2026-04-13T06:56:28Z</time></trkpt><trkpt lat="-28.824975867340324" lon="114.98039218271228"><ele>180.0</ele><time>2026-04-13T06:56:29Z</time></trkpt><trkpt lat="-28.824723510191063" lon="114.98050142916577"><ele>180.0</ele><time>2026-04-13T06:56:30Z</time></trkpt><trkpt lat="-28.824469611698735" lon="114.9806105932268"><ele>180.0</ele><time>2026-04-13T06:56:31Z</time></trkpt><trkpt lat="-28.82422765842325" lon="114.98071657447082"><ele>180.0</ele><time>2026-04-13T06:56:32Z</time></trkpt><trkpt lat="-28.823992558581523" lon="114.98082622397378"><ele>180.0</ele><time>2026-04-13T06:56:33Z</time></trkpt><trkpt lat="-28.823759266657017" lon="114.98095234719871"><ele>180.0</ele><time>2026-04-13T06:56:34Z</time></trkpt><trkpt lat="-28.823521475529635" lon="114.98109728986296"><ele>180.0</ele><time>2026-04-13T06:56:35Z</time></trkpt><trkpt lat="-28.823285866497685" lon="114.9812568260191"><ele>179.5</ele><time>2026-04-13T06:56:36Z</time></trkpt><trkpt lat="-28.823050835978435" lon="114.98142517730237"><ele>179.0</ele><time>2026-04-13T06:56:37Z</time></trkpt><trkpt lat="-28.82282029117148" lon="114.98159229724706"><ele>180.5</ele><time>2026-04-13T06:56:38Z</time></trkpt><trkpt lat="-28.82259621728554" lon="114.98174808911455"><ele>182.0</ele><time>2026-04-13T06:56:39Z</time></trkpt><trkpt lat="-28.82237502952102" lon="114.98189345926849"><ele>182.0</ele><time>2026-04-13T06:56:40Z</time></trkpt><trkpt lat="-28.82214700815753" lon="114.98203791820282"><ele>182.0</ele><time>2026-04-13T06:56:41Z</time></trkpt><trkpt lat="-28.82191510515138" lon="114.98218972058832"><ele>181.5</ele><time>2026-04-13T06:56:42Z</time></trkpt><trkpt lat="-28.821678940733264" lon="114.98234930441276"><ele>181.0</ele><time>2026-04-13T06:56:43Z</time></trkpt><trkpt lat="-28.82143898443007" lon="114.98251027314262"><ele>180.5</ele><time>2026-04-13T06:56:44Z</time></trkpt><trkpt lat="-28.82119570524549" lon="114.98266798021734"><ele>180.0</ele><time>2026-04-13T06:56:45Z</time></trkpt><trkpt lat="-28.820949291130738" lon="114.98282147442478"><ele>179.5</ele><time>2026-04-13T06:56:46Z</time></trkpt><trkpt lat="-28.82070425128805" lon="114.98296818471354"><ele>179.0</ele><time>2026-04-13T06:56:47Z</time></trkpt><trkpt lat="-28.82045240167535" lon="114.9831005336975"><ele>179.0</ele><time>2026-04-13T06:56:48Z</time></trkpt><trkpt lat="-28.820193172299078" lon="114.98320944989652"><ele>179.0</ele><time>2026-04-13T06:56:49Z</time></trkpt><trkpt lat="-28.819933534118242" lon="114.98329931375127"><ele>180.0</ele><time>2026-04-13T06:56:50Z</time></trkpt><trkpt lat="-28.819673359565073" lon="114.98337932265588"><ele>181.0</ele><time>2026-04-13T06:56:51Z</time></trkpt><trkpt lat="-28.819420965003648" lon="114.98345650202587"><ele>181.5</ele><time>2026-04-13T06:56:52Z</time></trkpt><trkpt lat="-28.81917578125115" lon="114.98353560830995"><ele>182.0</ele><time>2026-04-13T06:56:53Z</time></trkpt><trkpt lat="-28.818943186394282" lon="114.98361315720653"><ele>182.0</ele><time>2026-04-13T06:56:54Z</time></trkpt><trkpt lat="-28.818723112515833" lon="114.98368763386368"><ele>182.0</ele><time>2026-04-13T06:56:55Z</time></trkpt><trkpt lat="-28.818516928180482" lon="114.98375814500787"><ele>182.0</ele><time>2026-04-13T06:56:56Z</time></trkpt><trkpt lat="-28.8183336813479" lon="114.98381753549111"><ele>181.33333333333331</ele><time>2026-04-13T06:56:57Z</time></trkpt><trkpt lat="-28.818147504746072" lon="114.98385872320067"><ele>180.66666666666666</ele><time>2026-04-13T06:56:58Z</time></trkpt><trkpt lat="-28.8179447568932" lon="114.98386841662796"><ele>180.0</ele><time>2026-04-13T06:56:59Z</time></trkpt><trkpt lat="-28.817725990439524" lon="114.98385061123972"><ele>178.33333333333334</ele><time>2026-04-13T06:57:00Z</time></trkpt><trkpt lat="-28.817514684345007" lon="114.98381150847045"><ele>176.66666666666669</ele><time>2026-04-13T06:57:01Z</time></trkpt><trkpt lat="-28.81731702941844" lon="114.98375201106413"><ele>175.0</ele><time>2026-04-13T06:57:02Z</time></trkpt><trkpt lat="-28.81714694305812" lon="114.98364309138402"><ele>175.0</ele><time>2026-04-13T06:57:03Z</time></trkpt><trkpt lat="-28.816986178511794" lon="114.98351470288819"><ele>175.0</ele><time>2026-04-13T06:57:04Z</time></trkpt><trkpt lat="-28.816811342060767" lon="114.98335018494564"><ele>175.0</ele><time>2026-04-13T06:57:05Z</time></trkpt><trkpt lat="-28.816642107719954" lon="114.98317026306256"><ele>174.66666666666669</ele><time>2026-04-13T06:57:06Z</time></trkpt><trkpt lat="-28.816486957186015" lon="114.9829826439322"><ele>174.33333333333334</ele><time>2026-04-13T06:57:07Z</time></trkpt><trkpt lat="-28.816338610599637" lon="114.98279675546344"><ele>174.0</ele><time>2026-04-13T06:57:08Z</time></trkpt><trkpt lat="-28.816188844194496" lon="114.98260833982651"><ele>173.5</ele><time>2026-04-13T06:57:09Z</time></trkpt><trkpt lat="-28.816039320242556" lon="114.98242022921127"><ele>173.0</ele><time>2026-04-13T06:57:10Z</time></trkpt><trkpt lat="-28.815804316608812" lon="114.98230782970283"><ele>173.0</ele><time>2026-04-13T06:57:11Z</time></trkpt><trkpt lat="-28.81559447359562" lon="114.9821722079249"><ele>173.0</ele><time>2026-04-13T06:57:12Z</time></trkpt><trkpt lat="-28.815370124443128" lon="114.98204610042359"><ele>172.0</ele><time>2026-04-13T06:57:13Z</time></trkpt><trkpt lat="-28.815140041787256" lon="114.98192137752923"><ele>171.0</ele><time>2026-04-13T06:57:14Z</time></trkpt><trkpt lat="-28.814908063623797" lon="114.98179281632201"><ele>170.0</ele><time>2026-04-13T06:57:15Z</time></trkpt><trkpt lat="-28.81469055665915" lon="114.98166264423067"><ele>169.0</ele><time>2026-04-13T06:57:16Z</time></trkpt><trkpt lat="-28.814495189984115" lon="114.98153165784562"><ele>168.66666666666669</ele><time>2026-04-13T06:57:17Z</time></trkpt><trkpt lat="-28.81431902425136" lon="114.98140659573836"><ele>168.33333333333334</ele><time>2026-04-13T06:57:18Z</time></trkpt><trkpt lat="-28.814157259670313" lon="114.98126292666802"><ele>168.0</ele><time>2026-04-13T06:57:19Z</time></trkpt><trkpt lat="-28.814015425547744" lon="114.98108617433795"><ele>168.0</ele><time>2026-04-13T06:57:20Z</time></trkpt><trkpt lat="-28.81389133176374" lon="114.98089047242289"><ele>168.0</ele><time>2026-04-13T06:57:21Z</time></trkpt><trkpt lat="-28.813792087728483" lon="114.98067028666298"><ele>168.0</ele><time>2026-04-13T06:57:22Z</time></trkpt><trkpt lat="-28.813691233153467" lon="114.98044084426982"><ele>168.66666666666666</ele><time>2026-04-13T06:57:23Z</time></trkpt><trkpt lat="-28.813585504251975" lon="114.9802228054879"><ele>169.33333333333331</ele><time>2026-04-13T06:57:24Z</time></trkpt><trkpt lat="-28.813476881722394" lon="114.98003034004823"><ele>170.0</ele><time>2026-04-13T06:57:25Z</time></trkpt><trkpt lat="-28.81336564622635" lon="114.97986339081268"><ele>172.66666666666666</ele><time>2026-04-13T06:57:26Z</time></trkpt><trkpt lat="-28.813238383979634" lon="114.97971591869275"><ele>175.33333333333334</ele><time>2026-04-13T06:57:27Z</time></trkpt><trkpt lat="-28.813072039690987" lon="114.97957669073254"><ele>178.0</ele><time>2026-04-13T06:57:28Z</time></trkpt><trkpt lat="-28.812879992945398" lon="114.9794421800824"><ele>178.0</ele><time>2026-04-13T06:57:29Z</time></trkpt><trkpt lat="-28.81267692262649" lon="114.97929768585361"><ele>178.0</ele><time>2026-04-13T06:57:30Z</time></trkpt><trkpt lat="-28.812471248389134" lon="114.97913912057763"><ele>179.0</ele><time>2026-04-13T06:57:31Z</time></trkpt><trkpt lat="-28.812265979697507" lon="114.97897326895509"><ele>180.0</ele><time>2026-04-13T06:57:32Z</time></trkpt><trkpt lat="-28.81206783317" lon="114.97881158068351"><ele>180.0</ele><time>2026-04-13T06:57:33Z</time></trkpt><trkpt lat="-28.811870158641913" lon="114.97865447118991"><ele>180.0</ele><time>2026-04-13T06:57:34Z</time></trkpt><trkpt lat="-28.81167517689622" lon="114.97849907552107"><ele>182.5</ele><time>2026-04-13T06:57:35Z</time></trkpt><trkpt lat="-28.81147840595567" lon="114.97834140305025"><ele>185.0</ele><time>2026-04-13T06:57:36Z</time></trkpt><trkpt lat="-28.811282442778072" lon="114.97817921662906"><ele>185.0</ele><time>2026-04-13T06:57:37Z</time></trkpt><trkpt lat="-28.811082997871072" lon="114.97801667828561"><ele>185.0</ele><time>2026-04-13T06:57:38Z</time></trkpt><trkpt lat="-28.810880928277818" lon="114.97785666303086"><ele>186.5</ele><time>2026-04-13T06:57:39Z</time></trkpt><trkpt lat="-28.810673643537758" lon="114.97769050932352"><ele>188.0</ele><time>2026-04-13T06:57:40Z</time></trkpt><trkpt lat="-28.810461120197544" lon="114.97752077645323"><ele>190.0</ele><time>2026-04-13T06:57:41Z</time></trkpt><trkpt lat="-28.810242729239604" lon="114.97734620670866"><ele>192.0</ele><time>2026-04-13T06:57:42Z</time></trkpt><trkpt lat="-28.81002194234445" lon="114.9771709577243"><ele>192.0</ele><time>2026-04-13T06:57:43Z</time></trkpt><trkpt lat="-28.809801080412466" lon="114.97699741592534"><ele>192.0</ele><time>2026-04-13T06:57:44Z</time></trkpt><trkpt lat="-28.809581621856015" lon="114.97682416505943"><ele>194.0</ele><time>2026-04-13T06:57:45Z</time></trkpt><trkpt lat="-28.809361540994942" lon="114.97664670786875"><ele>196.0</ele><time>2026-04-13T06:57:46Z</time></trkpt><trkpt lat="-28.80915919471655" lon="114.97648346069221"><ele>196.0</ele><time>2026-04-13T06:57:47Z</time></trkpt><trkpt lat="-28.808972929453343" lon="114.97633246592815"><ele>196.0</ele><time>2026-04-13T06:57:48Z</time></trkpt><trkpt lat="-28.80880440721765" lon="114.97620391077498"><ele>196.0</ele><time>2026-04-13T06:57:49Z</time></trkpt><trkpt lat="-28.80865195493709" lon="114.97609403562447"><ele>196.0</ele><time>2026-04-13T06:57:50Z</time></trkpt><trkpt lat="-28.808513766814528" lon="114.97600873066092"><ele>196.0</ele><time>2026-04-13T06:57:51Z</time></trkpt><trkpt lat="-28.808362603033682" lon="114.97595393063"><ele>196.0</ele><time>2026-04-13T06:57:52Z</time></trkpt><trkpt lat="-28.80817640510392" lon="114.97593221479384"><ele>196.33333333333331</ele><time>2026-04-13T06:57:53Z</time></trkpt><trkpt lat="-28.80796879423808" lon="114.97593035587522"><ele>196.66666666666669</ele><time>2026-04-13T06:57:54Z</time></trkpt><trkpt lat="-28.807744083261344" lon="114.97594431788063"><ele>197.0</ele><time>2026-04-13T06:57:55Z</time></trkpt><trkpt lat="-28.807508906060388" lon="114.97594826905524"><ele>195.5</ele><time>2026-04-13T06:57:56Z</time></trkpt><trkpt lat="-28.80726949870694" lon="114.97595245692258"><ele>194.0</ele><time>2026-04-13T06:57:57Z</time></trkpt><trkpt lat="-28.807031885377526" lon="114.97595439708905"><ele>193.0</ele><time>2026-04-13T06:57:58Z</time></trkpt><trkpt lat="-28.806807250826804" lon="114.97595639151317"><ele>192.0</ele><time>2026-04-13T06:57:59Z</time></trkpt><trkpt lat="-28.806590988831985" lon="114.9759558373255"><ele>191.0</ele><time>2026-04-13T06:58:00Z</time></trkpt><trkpt lat="-28.806384343007323" lon="114.97595585329728"><ele>191.0</ele><time>2026-04-13T06:58:01Z</time></trkpt><trkpt lat="-28.806180479253623" lon="114.97595746497352"><ele>191.0</ele><time>2026-04-13T06:58:02Z</time></trkpt><trkpt lat="-28.80598695682136" lon="114.97595954777134"><ele>191.0</ele><time>2026-04-13T06:58:03Z</time></trkpt><trkpt lat="-28.8057940541157" lon="114.975965354446"><ele>190.0</ele><time>2026-04-13T06:58:04Z</time></trkpt><trkpt lat="-28.805610280687308" lon="114.97597191603896"><ele>189.0</ele><time>2026-04-13T06:58:05Z</time></trkpt><trkpt lat="-28.805431811335062" lon="114.97597459606445"><ele>188.0</ele><time>2026-04-13T06:58:06Z</time></trkpt><trkpt lat="-28.8052528451663" lon="114.97597339964706"><ele>187.33333333333331</ele><time>2026-04-13T06:58:07Z</time></trkpt><trkpt lat="-28.8050636484299" lon="114.97597469136642"><ele>186.66666666666666</ele><time>2026-04-13T06:58:08Z</time></trkpt><trkpt lat="-28.804865544487015" lon="114.97597627164315"><ele>186.0</ele><time>2026-04-13T06:58:09Z</time></trkpt><trkpt lat="-28.804658673066506" lon="114.9759764060542"><ele>186.0</ele><time>2026-04-13T06:58:10Z</time></trkpt><trkpt lat="-28.80445258328292" lon="114.97597559225802"><ele>186.0</ele><time>2026-04-13T06:58:11Z</time></trkpt><trkpt lat="-28.804249403650978" lon="114.97597894758619"><ele>186.0</ele><time>2026-04-13T06:58:12Z</time></trkpt><trkpt lat="-28.80403981026472" lon="114.97597708748296"><ele>185.66666666666666</ele><time>2026-04-13T06:58:13Z</time></trkpt><trkpt lat="-28.80383802641284" lon="114.97597481017148"><ele>185.33333333333331</ele><time>2026-04-13T06:58:14Z</time></trkpt><trkpt lat="-28.803632635273992" lon="114.9759754531944"><ele>185.0</ele><time>2026-04-13T06:58:15Z</time></trkpt><trkpt lat="-28.803420526747782" lon="114.97598025966397"><ele>185.0</ele><time>2026-04-13T06:58:16Z</time></trkpt><trkpt lat="-28.803201327700773" lon="114.97598876372476"><ele>185.0</ele><time>2026-04-13T06:58:17Z</time></trkpt><trkpt lat="-28.802990265863297" lon="114.97599469462746"><ele>185.0</ele><time>2026-04-13T06:58:18Z</time></trkpt><trkpt lat="-28.8027879678233" lon="114.97599891254256"><ele>184.66666666666666</ele><time>2026-04-13T06:58:19Z</time></trkpt><trkpt lat="-28.80259017316681" lon="114.9760026353751"><ele>184.33333333333334</ele><time>2026-04-13T06:58:20Z</time></trkpt><trkpt lat="-28.80239604182636" lon="114.97600585336387"><ele>184.0</ele><time>2026-04-13T06:58:20.999Z</time></trkpt><trkpt lat="-28.802200642005598" lon="114.97600985004296"><ele>184.0</ele><time>2026-04-13T06:58:21.999Z</time></trkpt><trkpt lat="-28.802005439733293" lon="114.97601029414976"><ele>184.0</ele><time>2026-04-13T06:58:22.999Z</time></trkpt><trkpt lat="-28.80181944333101" lon="114.97600096017524"><ele>184.0</ele><time>2026-04-13T06:58:23.999Z</time></trkpt><trkpt lat="-28.801640728265056" lon="114.97598003147516"><ele>186.0</ele><time>2026-04-13T06:58:24.999Z</time></trkpt><trkpt lat="-28.80147186448539" lon="114.97593854201175"><ele>188.0</ele><time>2026-04-13T06:58:25.999Z</time></trkpt><trkpt lat="-28.801297340559856" lon="114.97587594118032"><ele>190.0</ele><time>2026-04-13T06:58:26.999Z</time></trkpt><trkpt lat="-28.80112267358444" lon="114.97579685912505"><ele>191.66666666666669</ele><time>2026-04-13T06:58:27.999Z</time></trkpt><trkpt lat="-28.80095229922923" lon="114.97572128689443"><ele>193.33333333333334</ele><time>2026-04-13T06:58:28.999Z</time></trkpt><trkpt lat="-28.800781736920765" lon="114.97566546040949"><ele>195.0</ele><time>2026-04-13T06:58:29.999Z</time></trkpt><trkpt lat="-28.800603092400845" lon="114.97562951712699"><ele>195.0</ele><time>2026-04-13T06:58:30.999Z</time></trkpt><trkpt lat="-28.800409699675036" lon="114.97561770136576"><ele>195.0</ele><time>2026-04-13T06:58:31.999Z</time></trkpt><trkpt lat="-28.80019936619263" lon="114.9756168741472"><ele>195.0</ele><time>2026-04-13T06:58:32.999Z</time></trkpt><trkpt lat="-28.799976452636926" lon="114.97562680980514"><ele>197.0</ele><time>2026-04-13T06:58:33.999Z</time></trkpt><trkpt lat="-28.79975410941994" lon="114.97563667487086"><ele>199.0</ele><time>2026-04-13T06:58:34.999Z</time></trkpt><trkpt lat="-28.799544107003783" lon="114.9756409450742"><ele>201.0</ele><time>2026-04-13T06:58:35.999Z</time></trkpt><trkpt lat="-28.79934761903463" lon="114.97564283961398"><ele>202.66666666666669</ele><time>2026-04-13T06:58:36.999Z</time></trkpt><trkpt lat="-28.799156430898066" lon="114.97564814672987"><ele>204.33333333333334</ele><time>2026-04-13T06:58:37.999Z</time></trkpt><trkpt lat="-28.79897037256351" lon="114.97565618995122"><ele>206.0</ele><time>2026-04-13T06:58:38.999Z</time></trkpt><trkpt lat="-28.798785168940988" lon="114.9756524467728"><ele>206.0</ele><time>2026-04-13T06:58:39.999Z</time></trkpt><trkpt lat="-28.79860292560034" lon="114.9756375845434"><ele>206.0</ele><time>2026-04-13T06:58:40.999Z</time></trkpt><trkpt lat="-28.79842272951614" lon="114.97561249953723"><ele>206.0</ele><time>2026-04-13T06:58:41.999Z</time></trkpt><trkpt lat="-28.798245904635902" lon="114.97557007517617"><ele>206.66666666666669</ele><time>2026-04-13T06:58:42.999Z</time></trkpt><trkpt lat="-28.798064236722247" lon="114.97551243411046"><ele>207.33333333333331</ele><time>2026-04-13T06:58:43.999Z</time></trkpt><trkpt lat="-28.797888686638117" lon="114.97543143715058"><ele>208.0</ele><time>2026-04-13T06:58:44.999Z</time></trkpt><trkpt lat="-28.797709074718597" lon="114.97532257067039"><ele>208.33333333333331</ele><time>2026-04-13T06:58:45.999Z</time></trkpt><trkpt lat="-28.797532324652806" lon="114.97519736850468"><ele>208.66666666666669</ele><time>2026-04-13T06:58:46.999Z</time></trkpt><trkpt lat="-28.79737178806057" lon="114.97505585409637"><ele>209.0</ele><time>2026-04-13T06:58:47.999Z</time></trkpt><trkpt lat="-28.79722762643675" lon="114.97489918305564"><ele>209.0</ele><time>2026-04-13T06:58:48.999Z</time></trkpt><trkpt lat="-28.797096276536198" lon="114.97471826212661"><ele>209.0</ele><time>2026-04-13T06:58:49.999Z</time></trkpt><trkpt lat="-28.796980367442863" lon="114.97451970549136"><ele>209.0</ele><time>2026-04-13T06:58:50.999Z</time></trkpt><trkpt lat="-28.79687537533198" lon="114.97429967885182"><ele>208.0</ele><time>2026-04-13T06:58:51.999Z</time></trkpt><trkpt lat="-28.796802463482685" lon="114.97406728775185"><ele>207.0</ele><time>2026-04-13T06:58:52.999Z</time></trkpt><trkpt lat="-28.796744881639093" lon="114.97381811498398"><ele>206.0</ele><time>2026-04-13T06:58:53.999Z</time></trkpt><trkpt lat="-28.796709369598982" lon="114.97354145897313"><ele>203.5</ele><time>2026-04-13T06:58:54.999Z</time></trkpt><trkpt lat="-28.79668538695146" lon="114.97324755228519"><ele>201.0</ele><time>2026-04-13T06:58:55.999Z</time></trkpt><trkpt lat="-28.796674196542867" lon="114.97294244359145"><ele>201.0</ele><time>2026-04-13T06:58:56.999Z</time></trkpt><trkpt lat="-28.79667799112488" lon="114.97262956768677"><ele>201.0</ele><time>2026-04-13T06:58:57.999Z</time></trkpt><trkpt lat="-28.79668807385084" lon="114.97230570895191"><ele>200.0</ele><time>2026-04-13T06:58:58.999Z</time></trkpt><trkpt lat="-28.796689401933453" lon="114.9719809268108"><ele>199.0</ele><time>2026-04-13T06:58:59.999Z</time></trkpt><trkpt lat="-28.796686112212026" lon="114.97166040857122"><ele>197.0</ele><time>2026-04-13T06:59:00.999Z</time></trkpt><trkpt lat="-28.79668302532381" lon="114.97134489820179"><ele>195.0</ele><time>2026-04-13T06:59:01.999Z</time></trkpt><trkpt lat="-28.79668112854973" lon="114.97103283700251"><ele>196.0</ele><time>2026-04-13T06:59:02.999Z</time></trkpt><trkpt lat="-28.79668030003968" lon="114.97072527822056"><ele>197.0</ele><time>2026-04-13T06:59:03.999Z</time></trkpt><trkpt lat="-28.796680882350802" lon="114.97041980845873"><ele>197.0</ele><time>2026-04-13T06:59:04.999Z</time></trkpt><trkpt lat="-28.79668063855697" lon="114.97011346828333"><ele>197.0</ele><time>2026-04-13T06:59:05.999Z</time></trkpt><trkpt lat="-28.796682256343427" lon="114.9698069545197"><ele>197.0</ele><time>2026-04-13T06:59:06.999Z</time></trkpt><trkpt lat="-28.796678447796676" lon="114.96950093760941"><ele>197.0</ele><time>2026-04-13T06:59:07.999Z</time></trkpt><trkpt lat="-28.79667351622405" lon="114.96919852690098"><ele>196.0</ele><time>2026-04-13T06:59:08.999Z</time></trkpt><trkpt lat="-28.796673014158273" lon="114.9689003660708"><ele>195.0</ele><time>2026-04-13T06:59:09.999Z</time></trkpt><trkpt lat="-28.7966749751977" lon="114.96860815866624"><ele>194.5</ele><time>2026-04-13T06:59:10.999Z</time></trkpt><trkpt lat="-28.796670049778903" lon="114.96832125434791"><ele>194.0</ele><time>2026-04-13T06:59:11.999Z</time></trkpt><trkpt lat="-28.79665480799276" lon="114.96803769984655"><ele>194.0</ele><time>2026-04-13T06:59:12.999Z</time></trkpt><trkpt lat="-28.796627757535493" lon="114.96775318784312"><ele>194.0</ele><time>2026-04-13T06:59:13.999Z</time></trkpt><trkpt lat="-28.796586570769374" lon="114.96747083455439"><ele>193.5</ele><time>2026-04-13T06:59:14.999Z</time></trkpt><trkpt lat="-28.79652959558469" lon="114.96718674238033"><ele>193.0</ele><time>2026-04-13T06:59:15.999Z</time></trkpt><trkpt lat="-28.796461719370726" lon="114.96689879147576"><ele>194.0</ele><time>2026-04-13T06:59:16.999Z</time></trkpt><trkpt lat="-28.796394829269012" lon="114.96661226157619"><ele>195.0</ele><time>2026-04-13T06:59:17.999Z</time></trkpt><trkpt lat="-28.796336071848696" lon="114.96632906658192"><ele>195.0</ele><time>2026-04-13T06:59:18.999Z</time></trkpt><trkpt lat="-28.796277683839982" lon="114.96605056069473"><ele>195.0</ele><time>2026-04-13T06:59:19.999Z</time></trkpt><trkpt lat="-28.796213948772262" lon="114.96578002008582"><ele>196.0</ele><time>2026-04-13T06:59:20.999Z</time></trkpt><trkpt lat="-28.796147788581226" lon="114.96552441198202"><ele>197.0</ele><time>2026-04-13T06:59:21.999Z</time></trkpt><trkpt lat="-28.79607688899835" lon="114.9652891148941"><ele>196.66666666666669</ele><time>2026-04-13T06:59:22.999Z</time></trkpt><trkpt lat="-28.795991096834726" lon="114.96505631550414"><ele>196.33333333333331</ele><time>2026-04-13T06:59:23.999Z</time></trkpt><trkpt lat="-28.795886618876537" lon="114.9648371269756"><ele>196.0</ele><time>2026-04-13T06:59:24.999Z</time></trkpt><trkpt lat="-28.79576153213921" lon="114.96462438169253"><ele>196.0</ele><time>2026-04-13T06:59:25.999Z</time></trkpt><trkpt lat="-28.795620423478343" lon="114.96441985274406"><ele>196.0</ele><time>2026-04-13T06:59:26.999Z</time></trkpt><trkpt lat="-28.79546302246127" lon="114.9642120157648"><ele>198.5</ele><time>2026-04-13T06:59:27.999Z</time></trkpt><trkpt lat="-28.79528813731106" lon="114.96400935480935"><ele>201.0</ele><time>2026-04-13T06:59:28.999Z</time></trkpt><trkpt lat="-28.795106797385817" lon="114.96381139972598"><ele>201.0</ele><time>2026-04-13T06:59:29.999Z</time></trkpt><trkpt lat="-28.794916771459373" lon="114.96361082906185"><ele>201.0</ele><time>2026-04-13T06:59:30.999Z</time></trkpt><trkpt lat="-28.794721857554485" lon="114.96340366714819"><ele>202.5</ele><time>2026-04-13T06:59:31.999Z</time></trkpt><trkpt lat="-28.794524859292256" lon="114.96319247897515"><ele>204.0</ele><time>2026-04-13T06:59:32.999Z</time></trkpt><trkpt lat="-28.794323443182762" lon="114.96297709856054"><ele>205.5</ele><time>2026-04-13T06:59:33.999Z</time></trkpt><trkpt lat="-28.794121434767348" lon="114.96275982105958"><ele>207.0</ele><time>2026-04-13T06:59:34.999Z</time></trkpt><trkpt lat="-28.793917669353128" lon="114.96254142359054"><ele>208.5</ele><time>2026-04-13T06:59:35.999Z</time></trkpt><trkpt lat="-28.79371675051648" lon="114.96232441812478"><ele>210.0</ele><time>2026-04-13T06:59:36.999Z</time></trkpt><trkpt lat="-28.793515471451684" lon="114.96210810560305"><ele>211.0</ele><time>2026-04-13T06:59:37.999Z</time></trkpt><trkpt lat="-28.793309298644164" lon="114.96188885358796"><ele>212.0</ele><time>2026-04-13T06:59:38.999Z</time></trkpt><trkpt lat="-28.79310105452376" lon="114.96166883527387"><ele>214.5</ele><time>2026-04-13T06:59:39.999Z</time></trkpt><trkpt lat="-28.79289011211551" lon="114.96144670872849"><ele>217.0</ele><time>2026-04-13T06:59:40.999Z</time></trkpt><trkpt lat="-28.792681505249124" lon="114.9612211544259"><ele>217.5</ele><time>2026-04-13T06:59:41.999Z</time></trkpt><trkpt lat="-28.792477014111206" lon="114.96099779928082"><ele>218.0</ele><time>2026-04-13T06:59:42.999Z</time></trkpt><trkpt lat="-28.792271698700823" lon="114.96077555732431"><ele>219.5</ele><time>2026-04-13T06:59:43.999Z</time></trkpt><trkpt lat="-28.792066230339312" lon="114.96055119660333"><ele>221.0</ele><time>2026-04-13T06:59:44.999Z</time></trkpt><trkpt lat="-28.791860637676077" lon="114.96032449709261"><ele>221.5</ele><time>2026-04-13T06:59:45.999Z</time></trkpt><trkpt lat="-28.791659092209304" lon="114.96010149186509"><ele>222.0</ele><time>2026-04-13T06:59:46.999Z</time></trkpt><trkpt lat="-28.791458504102966" lon="114.95988093633068"><ele>222.0</ele><time>2026-04-13T06:59:47.999Z</time></trkpt><trkpt lat="-28.79125993671862" lon="114.95966931928248"><ele>222.0</ele><time>2026-04-13T06:59:48.999Z</time></trkpt><trkpt lat="-28.791068560521737" lon="114.95946776837187"><ele>222.5</ele><time>2026-04-13T06:59:49.999Z</time></trkpt><trkpt lat="-28.79087902112081" lon="114.95926882888833"><ele>223.0</ele><time>2026-04-13T06:59:50.999Z</time></trkpt><trkpt lat="-28.79068936149205" lon="114.95906287619069"><ele>222.0</ele><time>2026-04-13T06:59:51.999Z</time></trkpt><trkpt lat="-28.790494493288016" lon="114.95885081399301"><ele>221.0</ele><time>2026-04-13T06:59:52.999Z</time></trkpt><trkpt lat="-28.790296009227472" lon="114.95863803986389"><ele>222.0</ele><time>2026-04-13T06:59:53.999Z</time></trkpt><trkpt lat="-28.790099871790012" lon="114.9584305745182"><ele>223.0</ele><time>2026-04-13T06:59:54.999Z</time></trkpt><trkpt lat="-28.789910787980137" lon="114.95823304244827"><ele>220.0</ele><time>2026-04-13T06:59:55.999Z</time></trkpt><trkpt lat="-28.789724378623845" lon="114.95804611574266"><ele>217.0</ele><time>2026-04-13T06:59:56.999Z</time></trkpt><trkpt lat="-28.7895399178398" lon="114.9578578785703"><ele>217.0</ele><time>2026-04-13T06:59:57.999Z</time></trkpt><trkpt lat="-28.789360746457117" lon="114.9576655585181"><ele>217.0</ele><time>2026-04-13T06:59:58.999Z</time></trkpt><trkpt lat="-28.789186017365253" lon="114.95746963833435"><ele>216.0</ele><time>2026-04-13T06:59:59.999Z</time></trkpt><trkpt lat="-28.78901510313621" lon="114.95727911034446"><ele>215.0</ele><time>2026-04-13T07:00:00.999Z</time></trkpt><trkpt lat="-28.788855915584207" lon="114.95709634641968"><ele>215.0</ele><time>2026-04-13T07:00:01.999Z</time></trkpt><trkpt lat="-28.78871121094307" lon="114.95690791443037"><ele>215.0</ele><time>2026-04-13T07:00:02.999Z</time></trkpt><trkpt lat="-28.78858316649865" lon="114.95670902094145"><ele>215.0</ele><time>2026-04-13T07:00:03.999Z</time></trkpt><trkpt lat="-28.7884868044595" lon="114.95649835693848"><ele>216.0</ele><time>2026-04-13T07:00:04.999Z</time></trkpt><trkpt lat="-28.788412623272432" lon="114.95628195077583"><ele>217.0</ele><time>2026-04-13T07:00:05.999Z</time></trkpt><trkpt lat="-28.788368520397288" lon="114.95605343839541"><ele>218.0</ele><time>2026-04-13T07:00:06.999Z</time></trkpt><trkpt lat="-28.788348609247436" lon="114.95581315727317"><ele>218.0</ele><time>2026-04-13T07:00:07.999Z</time></trkpt><trkpt lat="-28.78835118069751" lon="114.95555591091288"><ele>218.0</ele><time>2026-04-13T07:00:08.999Z</time></trkpt><trkpt lat="-28.788369338382786" lon="114.95528779310519"><ele>218.5</ele><time>2026-04-13T07:00:09.999Z</time></trkpt><trkpt lat="-28.78839789296343" lon="114.95501445478881"><ele>219.0</ele><time>2026-04-13T07:00:10.999Z</time></trkpt><trkpt lat="-28.788436610856824" lon="114.9547372730262"><ele>219.0</ele><time>2026-04-13T07:00:11.999Z</time></trkpt><trkpt lat="-28.788480382620445" lon="114.95445690640011"><ele>219.0</ele><time>2026-04-13T07:00:12.999Z</time></trkpt><trkpt lat="-28.788522916112434" lon="114.95416694324774"><ele>222.0</ele><time>2026-04-13T07:00:13.999Z</time></trkpt><trkpt lat="-28.788566286967125" lon="114.95387270313816"><ele>225.0</ele><time>2026-04-13T07:00:14.999Z</time></trkpt><trkpt lat="-28.78860805936588" lon="114.95357984545558"><ele>227.0</ele><time>2026-04-13T07:00:15.999Z</time></trkpt><trkpt lat="-28.788648161696532" lon="114.95328102105702"><ele>229.0</ele><time>2026-04-13T07:00:16.999Z</time></trkpt><trkpt lat="-28.788686018683066" lon="114.95298074626297"><ele>229.0</ele><time>2026-04-13T07:00:17.999Z</time></trkpt><trkpt lat="-28.788720384265385" lon="114.95267917510898"><ele>229.0</ele><time>2026-04-13T07:00:18.999Z</time></trkpt><trkpt lat="-28.788757956539587" lon="114.95237456224922"><ele>230.5</ele><time>2026-04-13T07:00:19.999Z</time></trkpt><trkpt lat="-28.788795278191568" lon="114.95206342455661"><ele>232.0</ele><time>2026-04-13T07:00:20.999Z</time></trkpt><trkpt lat="-28.7888288697488" lon="114.95174991126082"><ele>230.0</ele><time>2026-04-13T07:00:21.999Z</time></trkpt><trkpt lat="-28.788860004849944" lon="114.95143333644141"><ele>228.0</ele><time>2026-04-13T07:00:22.999Z</time></trkpt><trkpt lat="-28.78889366291542" lon="114.9511139506634"><ele>227.0</ele><time>2026-04-13T07:00:23.999Z</time></trkpt><trkpt lat="-28.788928796917347" lon="114.9507977505693"><ele>226.0</ele><time>2026-04-13T07:00:24.999Z</time></trkpt><trkpt lat="-28.78896486653857" lon="114.95047840490777"><ele>226.0</ele><time>2026-04-13T07:00:25.999Z</time></trkpt><trkpt lat="-28.78900333056514" lon="114.95015712871766"><ele>226.0</ele><time>2026-04-13T07:00:26.999Z</time></trkpt><trkpt lat="-28.789044402974334" lon="114.94983516680647"><ele>225.0</ele><time>2026-04-13T07:00:28Z</time></trkpt><trkpt lat="-28.789085651637354" lon="114.9495193714658"><ele>224.0</ele><time>2026-04-13T07:00:29Z</time></trkpt><trkpt lat="-28.789130643543743" lon="114.94921891348"><ele>224.0</ele><time>2026-04-13T07:00:30Z</time></trkpt><trkpt lat="-28.789182289397473" lon="114.94892965442257"><ele>224.0</ele><time>2026-04-13T07:00:31Z</time></trkpt><trkpt lat="-28.789244463678276" lon="114.948645103412"><ele>224.5</ele><time>2026-04-13T07:00:32Z</time></trkpt><trkpt lat="-28.789319748721173" lon="114.94836281911942"><ele>225.0</ele><time>2026-04-13T07:00:33Z</time></trkpt><trkpt lat="-28.789407536304367" lon="114.94809047169744"><ele>224.0</ele><time>2026-04-13T07:00:34Z</time></trkpt><trkpt lat="-28.789508474988835" lon="114.94781382354682"><ele>223.0</ele><time>2026-04-13T07:00:35Z</time></trkpt><trkpt lat="-28.78961394880761" lon="114.9475381657106"><ele>223.0</ele><time>2026-04-13T07:00:36Z</time></trkpt><trkpt lat="-28.789726116553286" lon="114.94726182017202"><ele>223.0</ele><time>2026-04-13T07:00:37Z</time></trkpt><trkpt lat="-28.789841790293767" lon="114.94698433455713"><ele>222.0</ele><time>2026-04-13T07:00:38Z</time></trkpt><trkpt lat="-28.78995964232747" lon="114.94670879389129"><ele>221.0</ele><time>2026-04-13T07:00:39Z</time></trkpt><trkpt lat="-28.790081374567823" lon="114.94643195659084"><ele>221.0</ele><time>2026-04-13T07:00:40Z</time></trkpt><trkpt lat="-28.790204706181886" lon="114.94615290147479"><ele>221.0</ele><time>2026-04-13T07:00:41Z</time></trkpt><trkpt lat="-28.790327677880658" lon="114.94586963115235"><ele>220.0</ele><time>2026-04-13T07:00:42Z</time></trkpt><trkpt lat="-28.790447686973028" lon="114.9455869009876"><ele>219.0</ele><time>2026-04-13T07:00:43Z</time></trkpt><trkpt lat="-28.79056714083479" lon="114.94530052061475"><ele>218.0</ele><time>2026-04-13T07:00:44Z</time></trkpt><trkpt lat="-28.790689242507753" lon="114.94501253018086"><ele>217.0</ele><time>2026-04-13T07:00:45Z</time></trkpt><trkpt lat="-28.79081331928516" lon="114.94472908192664"><ele>217.0</ele><time>2026-04-13T07:00:46Z</time></trkpt><trkpt lat="-28.79093837925855" lon="114.94446281683413"><ele>217.0</ele><time>2026-04-13T07:00:47Z</time></trkpt><trkpt lat="-28.791061598764234" lon="114.94420147411694"><ele>216.0</ele><time>2026-04-13T07:00:48Z</time></trkpt><trkpt lat="-28.79117918168836" lon="114.94394443576341"><ele>215.0</ele><time>2026-04-13T07:00:49Z</time></trkpt><trkpt lat="-28.79128962174741" lon="114.94368765456673"><ele>215.0</ele><time>2026-04-13T07:00:50Z</time></trkpt><trkpt lat="-28.7914020002734" lon="114.94343850338917"><ele>215.0</ele><time>2026-04-13T07:00:51Z</time></trkpt><trkpt lat="-28.791516293292432" lon="114.9431903214559"><ele>213.0</ele><time>2026-04-13T07:00:52Z</time></trkpt><trkpt lat="-28.791634823645207" lon="114.94294360986785"><ele>211.0</ele><time>2026-04-13T07:00:53Z</time></trkpt><trkpt lat="-28.791749069315987" lon="114.9426988572928"><ele>211.0</ele><time>2026-04-13T07:00:54Z</time></trkpt><trkpt lat="-28.79185110604168" lon="114.94245039081899"><ele>211.0</ele><time>2026-04-13T07:00:55Z</time></trkpt><trkpt lat="-28.791951543360994" lon="114.94220027244741"><ele>211.0</ele><time>2026-04-13T07:00:56Z</time></trkpt><trkpt lat="-28.79202957209179" lon="114.9419577368043"><ele>211.0</ele><time>2026-04-13T07:00:57Z</time></trkpt><trkpt lat="-28.79209120277138" lon="114.94171374258973"><ele>211.0</ele><time>2026-04-13T07:00:58Z</time></trkpt><trkpt lat="-28.79212375294524" lon="114.94147385889009"><ele>209.66666666666666</ele><time>2026-04-13T07:00:59Z</time></trkpt><trkpt lat="-28.79214165291187" lon="114.94122771062196"><ele>208.33333333333331</ele><time>2026-04-13T07:01:00Z</time></trkpt><trkpt lat="-28.792142556810198" lon="114.94097079089416"><ele>207.0</ele><time>2026-04-13T07:01:01Z</time></trkpt><trkpt lat="-28.792123285763417" lon="114.94070729604883"><ele>207.0</ele><time>2026-04-13T07:01:02Z</time></trkpt><trkpt lat="-28.792089239627053" lon="114.94043365349069"><ele>207.0</ele><time>2026-04-13T07:01:03Z</time></trkpt><trkpt lat="-28.792037113121456" lon="114.94014625699693"><ele>207.0</ele><time>2026-04-13T07:01:04Z</time></trkpt><trkpt lat="-28.791968713866936" lon="114.93984971539017"><ele>207.0</ele><time>2026-04-13T07:01:05Z</time></trkpt><trkpt lat="-28.7918852102302" lon="114.93955651112545"><ele>210.5</ele><time>2026-04-13T07:01:06Z</time></trkpt><trkpt lat="-28.791796184509675" lon="114.93927228081493"><ele>214.0</ele><time>2026-04-13T07:01:07Z</time></trkpt><trkpt lat="-28.791711884659808" lon="114.9390027346233"><ele>215.0</ele><time>2026-04-13T07:01:08Z</time></trkpt><trkpt lat="-28.791635131021494" lon="114.9387419978498"><ele>216.0</ele><time>2026-04-13T07:01:09Z</time></trkpt><trkpt lat="-28.79155842250438" lon="114.93848203618744"><ele>215.0</ele><time>2026-04-13T07:01:10Z</time></trkpt><trkpt lat="-28.791487187317514" lon="114.93821990410372"><ele>214.0</ele><time>2026-04-13T07:01:11Z</time></trkpt><trkpt lat="-28.79142117828902" lon="114.93794693115936"><ele>214.0</ele><time>2026-04-13T07:01:12Z</time></trkpt><trkpt lat="-28.791366200922017" lon="114.93767093569043"><ele>214.0</ele><time>2026-04-13T07:01:13Z</time></trkpt><trkpt lat="-28.791321884189173" lon="114.93740284219"><ele>216.0</ele><time>2026-04-13T07:01:14Z</time></trkpt><trkpt lat="-28.791285982845984" lon="114.93712592616993"><ele>218.0</ele><time>2026-04-13T07:01:15Z</time></trkpt><trkpt lat="-28.79125492294279" lon="114.93683962560999"><ele>219.0</ele><time>2026-04-13T07:01:16Z</time></trkpt><trkpt lat="-28.791223421333903" lon="114.9365502269298"><ele>220.0</ele><time>2026-04-13T07:01:17Z</time></trkpt><trkpt lat="-28.791193296724785" lon="114.9362572483827"><ele>220.0</ele><time>2026-04-13T07:01:18Z</time></trkpt><trkpt lat="-28.79115531640492" lon="114.93596245869485"><ele>220.0</ele><time>2026-04-13T07:01:19Z</time></trkpt><trkpt lat="-28.791113890048365" lon="114.93565759917496"><ele>219.5</ele><time>2026-04-13T07:01:20Z</time></trkpt><trkpt lat="-28.791068100307374" lon="114.93534656896723"><ele>219.0</ele><time>2026-04-13T07:01:21Z</time></trkpt><trkpt lat="-28.791023301342037" lon="114.93504632109975"><ele>220.5</ele><time>2026-04-13T07:01:22Z</time></trkpt><trkpt lat="-28.790984850381527" lon="114.93475466271897"><ele>222.0</ele><time>2026-04-13T07:01:23Z</time></trkpt><trkpt lat="-28.79094722102268" lon="114.93447422721651"><ele>223.0</ele><time>2026-04-13T07:01:24Z</time></trkpt><trkpt lat="-28.790905909707117" lon="114.93418855577846"><ele>224.0</ele><time>2026-04-13T07:01:25Z</time></trkpt><trkpt lat="-28.790865778045468" lon="114.93389411920442"><ele>224.0</ele><time>2026-04-13T07:01:26Z</time></trkpt><trkpt lat="-28.790823854411258" lon="114.93359341328424"><ele>224.0</ele><time>2026-04-13T07:01:27Z</time></trkpt><trkpt lat="-28.790782385279115" lon="114.93329189556704"><ele>223.5</ele><time>2026-04-13T07:01:28Z</time></trkpt><trkpt lat="-28.79074450452879" lon="114.93299021870345"><ele>223.0</ele><time>2026-04-13T07:01:29Z</time></trkpt><trkpt lat="-28.79071972815013" lon="114.93269984077857"><ele>222.0</ele><time>2026-04-13T07:01:30Z</time></trkpt><trkpt lat="-28.790713275360083" lon="114.93241289255364"><ele>221.0</ele><time>2026-04-13T07:01:31Z</time></trkpt><trkpt lat="-28.79072631018303" lon="114.93212559752129"><ele>221.0</ele><time>2026-04-13T07:01:32Z</time></trkpt><trkpt lat="-28.790757862410807" lon="114.93183990609307"><ele>221.0</ele><time>2026-04-13T07:01:33Z</time></trkpt><trkpt lat="-28.790800490441974" lon="114.93155664386869"><ele>223.0</ele><time>2026-04-13T07:01:34Z</time></trkpt><trkpt lat="-28.790841460325098" lon="114.93128143173284"><ele>225.0</ele><time>2026-04-13T07:01:35Z</time></trkpt><trkpt lat="-28.790873032218347" lon="114.93102891081183"><ele>227.33333333333331</ele><time>2026-04-13T07:01:36Z</time></trkpt><trkpt lat="-28.790902292486518" lon="114.93078749780811"><ele>229.66666666666666</ele><time>2026-04-13T07:01:37Z</time></trkpt><trkpt lat="-28.790928286588098" lon="114.93054549861627"><ele>232.0</ele><time>2026-04-13T07:01:38Z</time></trkpt><trkpt lat="-28.790937199682002" lon="114.93030550959037"><ele>232.0</ele><time>2026-04-13T07:01:39Z</time></trkpt><trkpt lat="-28.790922739770902" lon="114.93006255703934"><ele>232.0</ele><time>2026-04-13T07:01:40Z</time></trkpt><trkpt lat="-28.79088788791829" lon="114.92981351984031"><ele>232.0</ele><time>2026-04-13T07:01:41Z</time></trkpt><trkpt lat="-28.79084137249967" lon="114.92955515772411"><ele>232.5</ele><time>2026-04-13T07:01:42Z</time></trkpt><trkpt lat="-28.790788246913365" lon="114.92928564157614"><ele>233.0</ele><time>2026-04-13T07:01:43Z</time></trkpt><trkpt lat="-28.790733314853217" lon="114.92901215505813"><ele>233.0</ele><time>2026-04-13T07:01:44Z</time></trkpt><trkpt lat="-28.790679835605566" lon="114.92873932632794"><ele>233.0</ele><time>2026-04-13T07:01:45Z</time></trkpt><trkpt lat="-28.79063373100288" lon="114.9284778182361"><ele>231.66666666666669</ele><time>2026-04-13T07:01:46Z</time></trkpt><trkpt lat="-28.79059679521426" lon="114.92823087044216"><ele>230.33333333333331</ele><time>2026-04-13T07:01:47Z</time></trkpt><trkpt lat="-28.790560259686714" lon="114.92798370595092"><ele>229.0</ele><time>2026-04-13T07:01:48Z</time></trkpt><trkpt lat="-28.790525086096245" lon="114.92775393506952"><ele>228.66666666666666</ele><time>2026-04-13T07:01:49Z</time></trkpt><trkpt lat="-28.790493228514652" lon="114.92753002093222"><ele>228.33333333333331</ele><time>2026-04-13T07:01:50Z</time></trkpt><trkpt lat="-28.790474714237327" lon="114.92729940117434"><ele>228.0</ele><time>2026-04-13T07:01:51Z</time></trkpt><trkpt lat="-28.79047574264323" lon="114.92705789081016"><ele>228.0</ele><time>2026-04-13T07:01:52Z</time></trkpt><trkpt lat="-28.790499562014716" lon="114.92680626839189"><ele>228.0</ele><time>2026-04-13T07:01:53Z</time></trkpt><trkpt lat="-28.79054273081732" lon="114.9265366246157"><ele>225.5</ele><time>2026-04-13T07:01:54Z</time></trkpt><trkpt lat="-28.79059401647561" lon="114.92625009413293"><ele>223.0</ele><time>2026-04-13T07:01:55Z</time></trkpt><trkpt lat="-28.790643725120795" lon="114.92595323851077"><ele>224.5</ele><time>2026-04-13T07:01:56Z</time></trkpt><trkpt lat="-28.79068941081827" lon="114.92565023008967"><ele>226.0</ele><time>2026-04-13T07:01:57Z</time></trkpt><trkpt lat="-28.79073600318939" lon="114.92535282265595"><ele>226.0</ele><time>2026-04-13T07:01:58Z</time></trkpt><trkpt lat="-28.79078395782657" lon="114.92506722895921"><ele>226.0</ele><time>2026-04-13T07:01:59Z</time></trkpt><trkpt lat="-28.79082726219016" lon="114.92479313383731"><ele>226.5</ele><time>2026-04-13T07:02:00Z</time></trkpt><trkpt lat="-28.790861118142654" lon="114.92452201182238"><ele>227.0</ele><time>2026-04-13T07:02:01Z</time></trkpt><trkpt lat="-28.79088362414236" lon="114.92425250062925"><ele>226.0</ele><time>2026-04-13T07:02:02Z</time></trkpt><trkpt lat="-28.790896220756863" lon="114.92398226402418"><ele>225.0</ele><time>2026-04-13T07:02:03Z</time></trkpt><trkpt lat="-28.79089122665935" lon="114.92372947154658"><ele>225.0</ele><time>2026-04-13T07:02:04Z</time></trkpt><trkpt lat="-28.790869799930874" lon="114.92347411313362"><ele>225.0</ele><time>2026-04-13T07:02:05Z</time></trkpt><trkpt lat="-28.790829440036337" lon="114.92322051447911"><ele>224.0</ele><time>2026-04-13T07:02:06Z</time></trkpt><trkpt lat="-28.790774562846998" lon="114.92296404030922"><ele>223.0</ele><time>2026-04-13T07:02:07Z</time></trkpt><trkpt lat="-28.790688541743428" lon="114.92270924340302"><ele>221.5</ele><time>2026-04-13T07:02:08Z</time></trkpt><trkpt lat="-28.790582897397602" lon="114.92244972037128"><ele>220.0</ele><time>2026-04-13T07:02:09Z</time></trkpt><trkpt lat="-28.790465656697048" lon="114.92218216668186"><ele>220.0</ele><time>2026-04-13T07:02:10Z</time></trkpt><trkpt lat="-28.790345790009077" lon="114.92189910064586"><ele>220.0</ele><time>2026-04-13T07:02:11Z</time></trkpt><trkpt lat="-28.79023277219977" lon="114.92161042249207"><ele>217.5</ele><time>2026-04-13T07:02:12Z</time></trkpt><trkpt lat="-28.790122463552233" lon="114.92131928341658"><ele>215.0</ele><time>2026-04-13T07:02:13Z</time></trkpt><trkpt lat="-28.790030687788118" lon="114.92103435676256"><ele>212.5</ele><time>2026-04-13T07:02:14Z</time></trkpt><trkpt lat="-28.789923802463328" lon="114.92077200476261"><ele>210.0</ele><time>2026-04-13T07:02:15Z</time></trkpt><trkpt lat="-28.78981831565101" lon="114.92051002850664"><ele>210.0</ele><time>2026-04-13T07:02:16Z</time></trkpt><trkpt lat="-28.789718021556787" lon="114.92025554158309"><ele>210.0</ele><time>2026-04-13T07:02:17Z</time></trkpt><trkpt lat="-28.78962009575846" lon="114.92000696209375"><ele>209.0</ele><time>2026-04-13T07:02:18Z</time></trkpt><trkpt lat="-28.789525469983122" lon="114.91977180642877"><ele>208.0</ele><time>2026-04-13T07:02:19Z</time></trkpt><trkpt lat="-28.78941540663426" lon="114.91955310191908"><ele>207.0</ele><time>2026-04-13T07:02:20Z</time></trkpt><trkpt lat="-28.78932420376602" lon="114.91934411129593"><ele>207.33333333333331</ele><time>2026-04-13T07:02:21Z</time></trkpt><trkpt lat="-28.78922977290073" lon="114.91914935459077"><ele>207.66666666666666</ele><time>2026-04-13T07:02:22Z</time></trkpt><trkpt lat="-28.789126155896124" lon="114.91896090292849"><ele>208.0</ele><time>2026-04-13T07:02:23Z</time></trkpt><trkpt lat="-28.789004031509428" lon="114.91878184714147"><ele>208.0</ele><time>2026-04-13T07:02:24Z</time></trkpt><trkpt lat="-28.788856535546742" lon="114.91861587519804"><ele>208.0</ele><time>2026-04-13T07:02:25Z</time></trkpt><trkpt lat="-28.788699930065242" lon="114.91846171866523"><ele>208.0</ele><time>2026-04-13T07:02:26Z</time></trkpt><trkpt lat="-28.788540426494787" lon="114.91833442594398"><ele>206.0</ele><time>2026-04-13T07:02:27Z</time></trkpt><trkpt lat="-28.788391968891464" lon="114.91818599638013"><ele>204.0</ele><time>2026-04-13T07:02:28Z</time></trkpt><trkpt lat="-28.78824454099984" lon="114.91804236234704"><ele>202.0</ele><time>2026-04-13T07:02:29Z</time></trkpt><trkpt lat="-28.788105579114394" lon="114.91788883294507"><ele>202.0</ele><time>2026-04-13T07:02:30Z</time></trkpt><trkpt lat="-28.787981053040635" lon="114.91773341097495"><ele>202.0</ele><time>2026-04-13T07:02:31Z</time></trkpt><trkpt lat="-28.787863276030944" lon="114.91756236619437"><ele>202.0</ele><time>2026-04-13T07:02:32Z</time></trkpt><trkpt lat="-28.787752929697476" lon="114.91736940416432"><ele>201.5</ele><time>2026-04-13T07:02:33Z</time></trkpt><trkpt lat="-28.787631269546214" lon="114.9171522813387"><ele>201.0</ele><time>2026-04-13T07:02:34Z</time></trkpt><trkpt lat="-28.787510641243994" lon="114.91693598037465"><ele>199.66666666666669</ele><time>2026-04-13T07:02:35Z</time></trkpt><trkpt lat="-28.787395980376218" lon="114.9167281537405"><ele>198.33333333333334</ele><time>2026-04-13T07:02:36Z</time></trkpt><trkpt lat="-28.787287294829678" lon="114.91653656613593"><ele>197.0</ele><time>2026-04-13T07:02:37Z</time></trkpt><trkpt lat="-28.787177008193535" lon="114.91635831208174"><ele>197.0</ele><time>2026-04-13T07:02:38Z</time></trkpt><trkpt lat="-28.787053528755433" lon="114.91620189470702"><ele>197.0</ele><time>2026-04-13T07:02:39Z</time></trkpt><trkpt lat="-28.786938255388137" lon="114.91603204955209"><ele>197.0</ele><time>2026-04-13T07:02:40Z</time></trkpt><trkpt lat="-28.786791639082367" lon="114.91586966598342"><ele>195.5</ele><time>2026-04-13T07:02:41Z</time></trkpt><trkpt lat="-28.786609439977042" lon="114.9157182574314"><ele>194.0</ele><time>2026-04-13T07:02:42Z</time></trkpt><trkpt lat="-28.786396678235043" lon="114.91558912976802"><ele>194.0</ele><time>2026-04-13T07:02:43Z</time></trkpt><trkpt lat="-28.786182133029477" lon="114.9154490580815"><ele>194.0</ele><time>2026-04-13T07:02:44Z</time></trkpt><trkpt lat="-28.785955872558393" lon="114.91531680144563"><ele>195.5</ele><time>2026-04-13T07:02:45Z</time></trkpt><trkpt lat="-28.7857233212414" lon="114.91518313626388"><ele>197.0</ele><time>2026-04-13T07:02:46Z</time></trkpt><trkpt lat="-28.785483449708472" lon="114.91504527493949"><ele>191.5</ele><time>2026-04-13T07:02:47Z</time></trkpt><trkpt lat="-28.78523749905811" lon="114.91490393449172"><ele>186.0</ele><time>2026-04-13T07:02:48Z</time></trkpt><trkpt lat="-28.784979231238015" lon="114.91477236028695"><ele>186.0</ele><time>2026-04-13T07:02:49Z</time></trkpt><trkpt lat="-28.78472874962331" lon="114.91462227690221"><ele>186.0</ele><time>2026-04-13T07:02:50Z</time></trkpt><trkpt lat="-28.784477200138944" lon="114.91447753703335"><ele>185.5</ele><time>2026-04-13T07:02:51Z</time></trkpt><trkpt lat="-28.784222391784038" lon="114.91433314068597"><ele>185.0</ele><time>2026-04-13T07:02:52Z</time></trkpt><trkpt lat="-28.783976826540883" lon="114.91417124857838"><ele>182.5</ele><time>2026-04-13T07:02:53Z</time></trkpt><trkpt lat="-28.78372478205369" lon="114.91402031388563"><ele>180.0</ele><time>2026-04-13T07:02:54Z</time></trkpt><trkpt lat="-28.783470969838685" lon="114.91386886868783"><ele>180.0</ele><time>2026-04-13T07:02:55Z</time></trkpt><trkpt lat="-28.783212751157205" lon="114.9137172677304"><ele>180.0</ele><time>2026-04-13T07:02:56Z</time></trkpt><trkpt lat="-28.78295091067257" lon="114.91356530763622"><ele>180.0</ele><time>2026-04-13T07:02:57Z</time></trkpt><trkpt lat="-28.78269469824238" lon="114.91341785806789"><ele>180.0</ele><time>2026-04-13T07:02:58Z</time></trkpt><trkpt lat="-28.78244282695981" lon="114.91327262214097"><ele>177.0</ele><time>2026-04-13T07:02:59Z</time></trkpt><trkpt lat="-28.782193141828902" lon="114.91312875344288"><ele>174.0</ele><time>2026-04-13T07:03:00Z</time></trkpt><trkpt lat="-28.781945075908688" lon="114.91298518935163"><ele>175.0</ele><time>2026-04-13T07:03:01Z</time></trkpt><trkpt lat="-28.781696436538827" lon="114.91284141905928"><ele>176.0</ele><time>2026-04-13T07:03:02Z</time></trkpt><trkpt lat="-28.78144831232699" lon="114.91269677665237"><ele>173.5</ele><time>2026-04-13T07:03:03Z</time></trkpt><trkpt lat="-28.781189061640898" lon="114.91256693472036"><ele>171.0</ele><time>2026-04-13T07:03:04Z</time></trkpt><trkpt lat="-28.780937221968138" lon="114.91241927190775"><ele>170.5</ele><time>2026-04-13T07:03:05Z</time></trkpt><trkpt lat="-28.78068593365298" lon="114.91227520424376"><ele>170.0</ele><time>2026-04-13T07:03:06Z</time></trkpt><trkpt lat="-28.78043837401924" lon="114.91213367540566"><ele>170.0</ele><time>2026-04-13T07:03:07Z</time></trkpt><trkpt lat="-28.78020331088301" lon="114.9120001468597"><ele>170.0</ele><time>2026-04-13T07:03:08Z</time></trkpt><trkpt lat="-28.77998033389567" lon="114.91187465302617"><ele>170.5</ele><time>2026-04-13T07:03:09Z</time></trkpt><trkpt lat="-28.77975958595964" lon="114.91176303561997"><ele>171.0</ele><time>2026-04-13T07:03:10Z</time></trkpt><trkpt lat="-28.77952983132852" lon="114.91166164248638"><ele>168.5</ele><time>2026-04-13T07:03:11Z</time></trkpt><trkpt lat="-28.779295190675306" lon="114.91157731976342"><ele>166.0</ele><time>2026-04-13T07:03:12Z</time></trkpt><trkpt lat="-28.779056247636444" lon="114.91148863068928"><ele>166.0</ele><time>2026-04-13T07:03:13Z</time></trkpt><trkpt lat="-28.77880352675854" lon="114.91142552416828"><ele>166.0</ele><time>2026-04-13T07:03:14Z</time></trkpt><trkpt lat="-28.7785415101615" lon="114.91136649507533"><ele>166.0</ele><time>2026-04-13T07:03:15Z</time></trkpt><trkpt lat="-28.778272032066738" lon="114.91133347315034"><ele>166.0</ele><time>2026-04-13T07:03:16Z</time></trkpt><trkpt lat="-28.77800193609979" lon="114.91128455117851"><ele>166.0</ele><time>2026-04-13T07:03:17Z</time></trkpt><trkpt lat="-28.77772716490975" lon="114.91125100592454"><ele>166.0</ele><time>2026-04-13T07:03:18Z</time></trkpt><trkpt lat="-28.77744607351756" lon="114.9112253190578"><ele>167.5</ele><time>2026-04-13T07:03:19Z</time></trkpt><trkpt lat="-28.7771650710521" lon="114.91118874271416"><ele>169.0</ele><time>2026-04-13T07:03:20Z</time></trkpt><trkpt lat="-28.77688673967463" lon="114.91115366152414"><ele>169.5</ele><time>2026-04-13T07:03:21Z</time></trkpt><trkpt lat="-28.776615287570955" lon="114.91111418668126"><ele>170.0</ele><time>2026-04-13T07:03:22Z</time></trkpt><trkpt lat="-28.776345978600073" lon="114.91107578106843"><ele>170.0</ele><time>2026-04-13T07:03:23Z</time></trkpt><trkpt lat="-28.776077202939145" lon="114.91103995014286"><ele>170.0</ele><time>2026-04-13T07:03:24Z</time></trkpt><trkpt lat="-28.775805315721527" lon="114.91100307032863"><ele>172.0</ele><time>2026-04-13T07:03:25Z</time></trkpt><trkpt lat="-28.775528535949995" lon="114.91096640745783"><ele>174.0</ele><time>2026-04-13T07:03:26Z</time></trkpt><trkpt lat="-28.77524756233383" lon="114.91092931551913"><ele>172.0</ele><time>2026-04-13T07:03:27Z</time></trkpt><trkpt lat="-28.774961637842864" lon="114.9108921017465"><ele>170.0</ele><time>2026-04-13T07:03:28Z</time></trkpt><trkpt lat="-28.77467128528471" lon="114.91085492558594"><ele>170.0</ele><time>2026-04-13T07:03:29Z</time></trkpt><trkpt lat="-28.7743785561344" lon="114.91081603742337"><ele>170.0</ele><time>2026-04-13T07:03:30Z</time></trkpt><trkpt lat="-28.774083063450327" lon="114.91077461400563"><ele>169.0</ele><time>2026-04-13T07:03:31Z</time></trkpt><trkpt lat="-28.773788073154183" lon="114.91073362774875"><ele>168.0</ele><time>2026-04-13T07:03:32Z</time></trkpt><trkpt lat="-28.773492387739655" lon="114.91069325965549"><ele>168.0</ele><time>2026-04-13T07:03:33Z</time></trkpt><trkpt lat="-28.77319820499359" lon="114.91065374008028"><ele>168.0</ele><time>2026-04-13T07:03:34Z</time></trkpt><trkpt lat="-28.77290500645177" lon="114.91061598808409"><ele>167.5</ele><time>2026-04-13T07:03:35Z</time></trkpt><trkpt lat="-28.772616570568896" lon="114.91057820657468"><ele>167.0</ele><time>2026-04-13T07:03:36Z</time></trkpt><trkpt lat="-28.772341753606224" lon="114.91054085826077"><ele>167.0</ele><time>2026-04-13T07:03:37Z</time></trkpt><trkpt lat="-28.772088107223645" lon="114.91050921317935"><ele>167.0</ele><time>2026-04-13T07:03:38Z</time></trkpt><trkpt lat="-28.771845428329996" lon="114.91048055574144"><ele>166.5</ele><time>2026-04-13T07:03:39Z</time></trkpt><trkpt lat="-28.771615721731084" lon="114.91044930729018"><ele>166.0</ele><time>2026-04-13T07:03:40Z</time></trkpt><trkpt lat="-28.77138789047156" lon="114.91039890080393"><ele>166.0</ele><time>2026-04-13T07:03:41Z</time></trkpt><trkpt lat="-28.77115367055041" lon="114.91031259666717"><ele>166.0</ele><time>2026-04-13T07:03:42Z</time></trkpt><trkpt lat="-28.77091378882821" lon="114.91020142139467"><ele>165.5</ele><time>2026-04-13T07:03:43Z</time></trkpt><trkpt lat="-28.77066637292441" lon="114.91008121550006"><ele>165.0</ele><time>2026-04-13T07:03:44Z</time></trkpt><trkpt lat="-28.770403973434913" lon="114.909956225671"><ele>162.0</ele><time>2026-04-13T07:03:45Z</time></trkpt><trkpt lat="-28.770136122771294" lon="114.90983647264133"><ele>159.0</ele><time>2026-04-13T07:03:46Z</time></trkpt><trkpt lat="-28.7698772476586" lon="114.9097265457721"><ele>159.0</ele><time>2026-04-13T07:03:47Z</time></trkpt><trkpt lat="-28.769626153656485" lon="114.90962100802918"><ele>159.0</ele><time>2026-04-13T07:03:48Z</time></trkpt><trkpt lat="-28.769389980467288" lon="114.90953216671124"><ele>158.5</ele><time>2026-04-13T07:03:49Z</time></trkpt><trkpt lat="-28.76915229356092" lon="114.90947579051871"><ele>158.0</ele><time>2026-04-13T07:03:50Z</time></trkpt><trkpt lat="-28.768915782549726" lon="114.90946409924976"><ele>158.0</ele><time>2026-04-13T07:03:51Z</time></trkpt><trkpt lat="-28.76867136390245" lon="114.90947571741356"><ele>158.0</ele><time>2026-04-13T07:03:52Z</time></trkpt><trkpt lat="-28.76842279996829" lon="114.90952467597596"><ele>160.0</ele><time>2026-04-13T07:03:53Z</time></trkpt><trkpt lat="-28.76817804886142" lon="114.90958822505732"><ele>162.0</ele><time>2026-04-13T07:03:54Z</time></trkpt><trkpt lat="-28.767941469642572" lon="114.90967922538528"><ele>162.0</ele><time>2026-04-13T07:03:55Z</time></trkpt><trkpt lat="-28.767710277174743" lon="114.90980760027209"><ele>162.0</ele><time>2026-04-13T07:03:56Z</time></trkpt><trkpt lat="-28.767476766923362" lon="114.90995737601754"><ele>167.0</ele><time>2026-04-13T07:03:57Z</time></trkpt><trkpt lat="-28.76724127532112" lon="114.91011536276115"><ele>172.0</ele><time>2026-04-13T07:03:58Z</time></trkpt><trkpt lat="-28.76700576519226" lon="114.91024591020852"><ele>172.0</ele><time>2026-04-13T07:03:59Z</time></trkpt><trkpt lat="-28.766762586778103" lon="114.91033835890869"><ele>172.0</ele><time>2026-04-13T07:04:00Z</time></trkpt><trkpt lat="-28.76652407396559" lon="114.91040257538093"><ele>172.0</ele><time>2026-04-13T07:04:01Z</time></trkpt><trkpt lat="-28.766291607296765" lon="114.91044120014183"><ele>172.0</ele><time>2026-04-13T07:04:02Z</time></trkpt><trkpt lat="-28.76606006084445" lon="114.91043370581932"><ele>171.5</ele><time>2026-04-13T07:04:03Z</time></trkpt><trkpt lat="-28.765815876846734" lon="114.91040051188997"><ele>171.0</ele><time>2026-04-13T07:04:04Z</time></trkpt><trkpt lat="-28.76557180041741" lon="114.91033443319014"><ele>171.0</ele><time>2026-04-13T07:04:05Z</time></trkpt><trkpt lat="-28.765331600311875" lon="114.9102451836431"><ele>171.0</ele><time>2026-04-13T07:04:06Z</time></trkpt><trkpt lat="-28.76509310677242" lon="114.91011738126853"><ele>168.0</ele><time>2026-04-13T07:04:07Z</time></trkpt><trkpt lat="-28.764864300168323" lon="114.90996657246582"><ele>165.0</ele><time>2026-04-13T07:04:08Z</time></trkpt><trkpt lat="-28.76466731656563" lon="114.9097818780872"><ele>165.0</ele><time>2026-04-13T07:04:09Z</time></trkpt><trkpt lat="-28.764487076210855" lon="114.90955805374236"><ele>165.0</ele><time>2026-04-13T07:04:10Z</time></trkpt><trkpt lat="-28.764322995211256" lon="114.90933740191451"><ele>164.0</ele><time>2026-04-13T07:04:11Z</time></trkpt><trkpt lat="-28.76417368683542" lon="114.90913301791879"><ele>163.0</ele><time>2026-04-13T07:04:12Z</time></trkpt><trkpt lat="-28.764007364209167" lon="114.90895632389204"><ele>163.0</ele><time>2026-04-13T07:04:13Z</time></trkpt><trkpt lat="-28.763815876076073" lon="114.90879869807968"><ele>163.0</ele><time>2026-04-13T07:04:14Z</time></trkpt><trkpt lat="-28.76361437265855" lon="114.90867625174168"><ele>163.0</ele><time>2026-04-13T07:04:15Z</time></trkpt><trkpt lat="-28.763415093718347" lon="114.908592647443"><ele>163.0</ele><time>2026-04-13T07:04:16Z</time></trkpt><trkpt lat="-28.7632092158969" lon="114.90854234427462"><ele>163.0</ele><time>2026-04-13T07:04:17Z</time></trkpt><trkpt lat="-28.76298985764709" lon="114.90852490479358"><ele>163.0</ele><time>2026-04-13T07:04:18Z</time></trkpt><trkpt lat="-28.762764559962687" lon="114.90852959316496"><ele>163.0</ele><time>2026-04-13T07:04:19Z</time></trkpt><trkpt lat="-28.762546775744866" lon="114.90855694660357"><ele>163.0</ele><time>2026-04-13T07:04:20Z</time></trkpt><trkpt lat="-28.762334045517044" lon="114.90860387791858"><ele>163.33333333333334</ele><time>2026-04-13T07:04:21Z</time></trkpt><trkpt lat="-28.76213538967588" lon="114.90863874810132"><ele>163.66666666666666</ele><time>2026-04-13T07:04:22Z</time></trkpt><trkpt lat="-28.76194320386352" lon="114.90864148146021"><ele>164.0</ele><time>2026-04-13T07:04:23Z</time></trkpt><trkpt lat="-28.761746242077248" lon="114.9085974356151"><ele>164.33333333333331</ele><time>2026-04-13T07:04:24Z</time></trkpt><trkpt lat="-28.761545602898217" lon="114.90850743189554"><ele>164.66666666666666</ele><time>2026-04-13T07:04:25Z</time></trkpt><trkpt lat="-28.761357150511273" lon="114.90839326369998"><ele>165.0</ele><time>2026-04-13T07:04:26Z</time></trkpt><trkpt lat="-28.761185424582973" lon="114.90824976857661"><ele>164.0</ele><time>2026-04-13T07:04:27Z</time></trkpt><trkpt lat="-28.761026841795076" lon="114.90807107687014"><ele>163.0</ele><time>2026-04-13T07:04:28Z</time></trkpt><trkpt lat="-28.760878091449214" lon="114.90786026170315"><ele>163.0</ele><time>2026-04-13T07:04:29Z</time></trkpt><trkpt lat="-28.760744014330754" lon="114.90763702644473"><ele>163.0</ele><time>2026-04-13T07:04:30Z</time></trkpt><trkpt lat="-28.760607076044405" lon="114.90741486227876"><ele>166.5</ele><time>2026-04-13T07:04:31Z</time></trkpt><trkpt lat="-28.76046690372524" lon="114.90720120750665"><ele>170.0</ele><time>2026-04-13T07:04:32Z</time></trkpt><trkpt lat="-28.760325331815164" lon="114.90698880857374"><ele>170.0</ele><time>2026-04-13T07:04:33Z</time></trkpt><trkpt lat="-28.760176427008677" lon="114.90678277916048"><ele>170.0</ele><time>2026-04-13T07:04:34Z</time></trkpt><trkpt lat="-28.760005005224265" lon="114.90658621355688"><ele>170.0</ele><time>2026-04-13T07:04:35Z</time></trkpt><trkpt lat="-28.75980834050242" lon="114.90640833674483"><ele>170.0</ele><time>2026-04-13T07:04:36Z</time></trkpt><trkpt lat="-28.759595247883038" lon="114.90625549610111"><ele>169.5</ele><time>2026-04-13T07:04:37Z</time></trkpt><trkpt lat="-28.759361374336862" lon="114.9061236027469"><ele>169.0</ele><time>2026-04-13T07:04:38Z</time></trkpt><trkpt lat="-28.75911746240701" lon="114.90600858703469"><ele>172.5</ele><time>2026-04-13T07:04:39Z</time></trkpt><trkpt lat="-28.758866918533688" lon="114.90590184494502"><ele>176.0</ele><time>2026-04-13T07:04:40Z</time></trkpt><trkpt lat="-28.75862148777924" lon="114.90579943170667"><ele>175.5</ele><time>2026-04-13T07:04:41Z</time></trkpt><trkpt lat="-28.758381979498246" lon="114.90568267292078"><ele>175.0</ele><time>2026-04-13T07:04:42Z</time></trkpt><trkpt lat="-28.758144726356466" lon="114.9055443924207"><ele>175.0</ele><time>2026-04-13T07:04:43Z</time></trkpt><trkpt lat="-28.757910455779157" lon="114.90538329860489"><ele>175.0</ele><time>2026-04-13T07:04:44Z</time></trkpt><trkpt lat="-28.757683746772063" lon="114.90520811603024"><ele>175.5</ele><time>2026-04-13T07:04:45Z</time></trkpt><trkpt lat="-28.757456080173007" lon="114.90503246162599"><ele>176.0</ele><time>2026-04-13T07:04:46Z</time></trkpt><trkpt lat="-28.757228103992205" lon="114.90485791923065"><ele>176.0</ele><time>2026-04-13T07:04:47Z</time></trkpt><trkpt lat="-28.75699620959738" lon="114.90468026116497"><ele>176.0</ele><time>2026-04-13T07:04:48Z</time></trkpt><trkpt lat="-28.756764029347025" lon="114.90450028643478"><ele>175.5</ele><time>2026-04-13T07:04:49Z</time></trkpt><trkpt lat="-28.756535336265873" lon="114.90432092363255"><ele>175.0</ele><time>2026-04-13T07:04:50Z</time></trkpt><trkpt lat="-28.756301634601613" lon="114.9041393016946"><ele>174.5</ele><time>2026-04-13T07:04:51Z</time></trkpt><trkpt lat="-28.7560721498707" lon="114.90395984866213"><ele>174.0</ele><time>2026-04-13T07:04:52Z</time></trkpt><trkpt lat="-28.75584601959604" lon="114.9037832272364"><ele>175.0</ele><time>2026-04-13T07:04:53Z</time></trkpt><trkpt lat="-28.7556241265822" lon="114.90360912594245"><ele>176.0</ele><time>2026-04-13T07:04:54Z</time></trkpt><trkpt lat="-28.75541039451219" lon="114.9034406394946"><ele>175.0</ele><time>2026-04-13T07:04:55Z</time></trkpt><trkpt lat="-28.755204241659968" lon="114.90328245447488"><ele>174.0</ele><time>2026-04-13T07:04:56Z</time></trkpt><trkpt lat="-28.755011316286996" lon="114.90314105397876"><ele>173.66666666666666</ele><time>2026-04-13T07:04:57Z</time></trkpt><trkpt lat="-28.754826602176724" lon="114.9030028753147"><ele>173.33333333333331</ele><time>2026-04-13T07:04:58Z</time></trkpt><trkpt lat="-28.754657784645953" lon="114.90287473446294"><ele>173.0</ele><time>2026-04-13T07:04:59Z</time></trkpt><trkpt lat="-28.754504682712962" lon="114.90276207280763"><ele>174.66666666666666</ele><time>2026-04-13T07:05:00Z</time></trkpt><trkpt lat="-28.754356268600414" lon="114.90266785678743"><ele>176.33333333333334</ele><time>2026-04-13T07:05:01Z</time></trkpt><trkpt lat="-28.754201300197195" lon="114.90261140098319"><ele>178.0</ele><time>2026-04-13T07:05:02Z</time></trkpt><trkpt lat="-28.754014628449315" lon="114.9025876795988"><ele>178.0</ele><time>2026-04-13T07:05:03Z</time></trkpt><trkpt lat="-28.75380301494026" lon="114.90258674410738"><ele>178.0</ele><time>2026-04-13T07:05:04Z</time></trkpt><trkpt lat="-28.75357773240653" lon="114.90258290430414"><ele>178.0</ele><time>2026-04-13T07:05:05Z</time></trkpt><trkpt lat="-28.75334045145624" lon="114.90257207976164"><ele>181.0</ele><time>2026-04-13T07:05:06Z</time></trkpt><trkpt lat="-28.75309035815305" lon="114.90255193395897"><ele>184.0</ele><time>2026-04-13T07:05:07Z</time></trkpt><trkpt lat="-28.7528459459394" lon="114.90253098447641"><ele>183.5</ele><time>2026-04-13T07:05:08Z</time></trkpt><trkpt lat="-28.75259471398686" lon="114.90251390246353"><ele>183.0</ele><time>2026-04-13T07:05:09Z</time></trkpt><trkpt lat="-28.752335032452017" lon="114.9024980533372"><ele>183.0</ele><time>2026-04-13T07:05:10Z</time></trkpt><trkpt lat="-28.752072044269326" lon="114.90248434473754"><ele>183.0</ele><time>2026-04-13T07:05:11Z</time></trkpt><trkpt lat="-28.751804473063014" lon="114.90246931042259"><ele>183.0</ele><time>2026-04-13T07:05:12Z</time></trkpt><trkpt lat="-28.751553842253525" lon="114.90245362502098"><ele>183.0</ele><time>2026-04-13T07:05:13Z</time></trkpt><trkpt lat="-28.751300169815124" lon="114.90243670002819"><ele>182.0</ele><time>2026-04-13T07:05:14Z</time></trkpt><trkpt lat="-28.75103502363896" lon="114.90241744044626"><ele>181.0</ele><time>2026-04-13T07:05:15Z</time></trkpt><trkpt lat="-28.750771306623804" lon="114.90239890682504"><ele>181.0</ele><time>2026-04-13T07:05:16Z</time></trkpt><trkpt lat="-28.750506781104118" lon="114.90238142916772"><ele>181.0</ele><time>2026-04-13T07:05:17Z</time></trkpt><trkpt lat="-28.750252120618327" lon="114.90236627028756"><ele>182.0</ele><time>2026-04-13T07:05:18Z</time></trkpt><trkpt lat="-28.750009682750868" lon="114.90235487570224"><ele>183.0</ele><time>2026-04-13T07:05:19Z</time></trkpt><trkpt lat="-28.749782673801537" lon="114.90234576271617"><ele>183.0</ele><time>2026-04-13T07:05:20Z</time></trkpt><trkpt lat="-28.749570373664156" lon="114.90233593104189"><ele>183.0</ele><time>2026-04-13T07:05:21Z</time></trkpt><trkpt lat="-28.749368609174194" lon="114.90232295625755"><ele>183.0</ele><time>2026-04-13T07:05:22Z</time></trkpt><trkpt lat="-28.74918522642087" lon="114.90230796538975"><ele>182.66666666666666</ele><time>2026-04-13T07:05:23Z</time></trkpt><trkpt lat="-28.74901630829166" lon="114.90229476670119"><ele>182.33333333333331</ele><time>2026-04-13T07:05:24Z</time></trkpt><trkpt lat="-28.74886511786989" lon="114.90228458155758"><ele>182.0</ele><time>2026-04-13T07:05:25Z</time></trkpt><trkpt lat="-28.748733675059515" lon="114.90227503399966"><ele>182.0</ele><time>2026-04-13T07:05:26Z</time></trkpt><trkpt lat="-28.748626428654614" lon="114.9022675724653"><ele>182.0</ele><time>2026-04-13T07:05:27Z</time></trkpt><trkpt lat="-28.748543546401333" lon="114.90225048721005"><ele>182.0</ele><time>2026-04-13T07:05:28Z</time></trkpt><trkpt lat="-28.748484508173235" lon="114.90221082218378"><ele>182.0</ele><time>2026-04-13T07:05:29Z</time></trkpt><trkpt lat="-28.748428841450224" lon="114.90214392059886"><ele>182.0</ele><time>2026-04-13T07:05:30Z</time></trkpt><trkpt lat="-28.748397185476637" lon="114.9020454117824"><ele>182.0</ele><time>2026-04-13T07:05:31Z</time></trkpt><trkpt lat="-28.748393765958582" lon="114.90192570987665"><ele>182.0</ele><time>2026-04-13T07:05:32Z</time></trkpt><trkpt lat="-28.748402517432385" lon="114.90179376939703"><ele>182.0</ele><time>2026-04-13T07:05:33Z</time></trkpt><trkpt lat="-28.74841693090613" lon="114.901644573626"><ele>182.0</ele><time>2026-04-13T07:05:34Z</time></trkpt><trkpt lat="-28.748425425410783" lon="114.90148358143752"><ele>182.0</ele><time>2026-04-13T07:05:35Z</time></trkpt><trkpt lat="-28.748427766435604" lon="114.90133012413305"><ele>182.0</ele><time>2026-04-13T07:05:36Z</time></trkpt><trkpt lat="-28.748427591239544" lon="114.9011568728389"><ele>182.0</ele><time>2026-04-13T07:05:37Z</time></trkpt><trkpt lat="-28.748430718319025" lon="114.90097346162787"><ele>182.0</ele><time>2026-04-13T07:05:38Z</time></trkpt><trkpt lat="-28.748436885519205" lon="114.90077000120492"><ele>184.33333333333331</ele><time>2026-04-13T07:05:39Z</time></trkpt><trkpt lat="-28.748441161232627" lon="114.9005540779969"><ele>186.66666666666666</ele><time>2026-04-13T07:05:40Z</time></trkpt><trkpt lat="-28.748446823409303" lon="114.900341445366"><ele>189.0</ele><time>2026-04-13T07:05:41Z</time></trkpt><trkpt lat="-28.74844947239099" lon="114.90013619649379"><ele>189.66666666666666</ele><time>2026-04-13T07:05:42Z</time></trkpt><trkpt lat="-28.748453763772016" lon="114.89991565119539"><ele>190.33333333333331</ele><time>2026-04-13T07:05:43Z</time></trkpt><trkpt lat="-28.748457229763137" lon="114.89968736003415"><ele>191.0</ele><time>2026-04-13T07:05:44Z</time></trkpt><trkpt lat="-28.74845913957618" lon="114.89945272186083"><ele>192.0</ele><time>2026-04-13T07:05:45Z</time></trkpt><trkpt lat="-28.748463033562484" lon="114.89921373554594"><ele>193.0</ele><time>2026-04-13T07:05:46Z</time></trkpt><trkpt lat="-28.748466207426638" lon="114.89896606481837"><ele>194.0</ele><time>2026-04-13T07:05:47Z</time></trkpt><trkpt lat="-28.74846887346304" lon="114.89871402499952"><ele>194.0</ele><time>2026-04-13T07:05:48Z</time></trkpt><trkpt lat="-28.748472953603454" lon="114.89846004737652"><ele>194.0</ele><time>2026-04-13T07:05:49Z</time></trkpt><trkpt lat="-28.748479670022885" lon="114.8982050869479"><ele>194.0</ele><time>2026-04-13T07:05:50Z</time></trkpt><trkpt lat="-28.7484861282659" lon="114.89794971729742"><ele>197.0</ele><time>2026-04-13T07:05:51Z</time></trkpt><trkpt lat="-28.748492612876657" lon="114.8976914141527"><ele>200.0</ele><time>2026-04-13T07:05:52Z</time></trkpt><trkpt lat="-28.748493889129296" lon="114.8974332447776"><ele>201.66666666666669</ele><time>2026-04-13T07:05:53Z</time></trkpt><trkpt lat="-28.74849423620706" lon="114.89717937898533"><ele>203.33333333333331</ele><time>2026-04-13T07:05:54Z</time></trkpt><trkpt lat="-28.748495093620022" lon="114.8969301131589"><ele>205.0</ele><time>2026-04-13T07:05:55Z</time></trkpt><trkpt lat="-28.74850286065129" lon="114.89668503953885"><ele>207.0</ele><time>2026-04-13T07:05:56Z</time></trkpt><trkpt lat="-28.748523964951243" lon="114.89643311672444"><ele>209.0</ele><time>2026-04-13T07:05:57Z</time></trkpt><trkpt lat="-28.7485570078259" lon="114.89617326371338"><ele>212.5</ele><time>2026-04-13T07:05:58Z</time></trkpt><trkpt lat="-28.748606456840143" lon="114.89591689046179"><ele>216.0</ele><time>2026-04-13T07:05:59Z</time></trkpt><trkpt lat="-28.748682668138393" lon="114.89566923369136"><ele>216.0</ele><time>2026-04-13T07:06:00Z</time></trkpt><trkpt lat="-28.748777469944425" lon="114.89543032859665"><ele>216.0</ele><time>2026-04-13T07:06:01Z</time></trkpt><trkpt lat="-28.748898952642694" lon="114.89519245700853"><ele>216.0</ele><time>2026-04-13T07:06:02Z</time></trkpt><trkpt lat="-28.74902672384098" lon="114.894957215177"><ele>216.0</ele><time>2026-04-13T07:06:03Z</time></trkpt><trkpt lat="-28.749152645558276" lon="114.89471497410437"><ele>216.0</ele><time>2026-04-13T07:06:04Z</time></trkpt><trkpt lat="-28.7492751767572" lon="114.89446789281038"><ele>216.0</ele><time>2026-04-13T07:06:05Z</time></trkpt><trkpt lat="-28.749400378567582" lon="114.89421781534018"><ele>218.0</ele><time>2026-04-13T07:06:06Z</time></trkpt><trkpt lat="-28.7495284444145" lon="114.89396401762407"><ele>220.0</ele><time>2026-04-13T07:06:07Z</time></trkpt><trkpt lat="-28.74965798147525" lon="114.89370826068097"><ele>220.0</ele><time>2026-04-13T07:06:08Z</time></trkpt><trkpt lat="-28.74979200800621" lon="114.89344806770268"><ele>220.0</ele><time>2026-04-13T07:06:09.001Z</time></trkpt><trkpt lat="-28.749931177431932" lon="114.89318351980104"><ele>221.0</ele><time>2026-04-13T07:06:10.001Z</time></trkpt><trkpt lat="-28.75007021118701" lon="114.89291525440527"><ele>222.0</ele><time>2026-04-13T07:06:11.001Z</time></trkpt><trkpt lat="-28.750204972828687" lon="114.89264732657585"><ele>221.0</ele><time>2026-04-13T07:06:12.001Z</time></trkpt><trkpt lat="-28.75033429473058" lon="114.89239319320994"><ele>220.0</ele><time>2026-04-13T07:06:13.001Z</time></trkpt><trkpt lat="-28.75046392885118" lon="114.8921359630405"><ele>220.0</ele><time>2026-04-13T07:06:14.001Z</time></trkpt><trkpt lat="-28.750595618397114" lon="114.89187403854615"><ele>220.0</ele><time>2026-04-13T07:06:15.001Z</time></trkpt><trkpt lat="-28.750728849965984" lon="114.89160867991562"><ele>221.0</ele><time>2026-04-13T07:06:16.001Z</time></trkpt><trkpt lat="-28.750862786052874" lon="114.89135135353193"><ele>222.0</ele><time>2026-04-13T07:06:17.001Z</time></trkpt><trkpt lat="-28.75099197449674" lon="114.89111538127783"><ele>219.0</ele><time>2026-04-13T07:06:18.001Z</time></trkpt><trkpt lat="-28.751109741960384" lon="114.89089147589117"><ele>216.0</ele><time>2026-04-13T07:06:19.001Z</time></trkpt><trkpt lat="-28.751219326582362" lon="114.89067056837345"><ele>216.0</ele><time>2026-04-13T07:06:20.001Z</time></trkpt><trkpt lat="-28.75132111286533" lon="114.89043851449162"><ele>216.0</ele><time>2026-04-13T07:06:21.001Z</time></trkpt><trkpt lat="-28.75140990039304" lon="114.89018836507496"><ele>218.5</ele><time>2026-04-13T07:06:22.001Z</time></trkpt><trkpt lat="-28.75148338039937" lon="114.88992002465626"><ele>221.0</ele><time>2026-04-13T07:06:23.001Z</time></trkpt><trkpt lat="-28.75154073744538" lon="114.88963698108424"><ele>221.0</ele><time>2026-04-13T07:06:24.001Z</time></trkpt><trkpt lat="-28.751592428479185" lon="114.88934710963203"><ele>221.0</ele><time>2026-04-13T07:06:25.001Z</time></trkpt><trkpt lat="-28.751645824818922" lon="114.88905196184191"><ele>222.0</ele><time>2026-04-13T07:06:26.001Z</time></trkpt><trkpt lat="-28.75170413984943" lon="114.88875642243005"><ele>223.0</ele><time>2026-04-13T07:06:27.001Z</time></trkpt><trkpt lat="-28.751764971881325" lon="114.88845955712088"><ele>222.5</ele><time>2026-04-13T07:06:28.001Z</time></trkpt><trkpt lat="-28.751828324161032" lon="114.88816048387753"><ele>222.0</ele><time>2026-04-13T07:06:29.001Z</time></trkpt><trkpt lat="-28.751890912923603" lon="114.88786084071445"><ele>218.5</ele><time>2026-04-13T07:06:30.001Z</time></trkpt><trkpt lat="-28.751952224729852" lon="114.88756220145201"><ele>215.0</ele><time>2026-04-13T07:06:31.001Z</time></trkpt><trkpt lat="-28.752014610032163" lon="114.8872651209772"><ele>215.0</ele><time>2026-04-13T07:06:32.001Z</time></trkpt><trkpt lat="-28.752077398149275" lon="114.88696389098149"><ele>215.0</ele><time>2026-04-13T07:06:33.001Z</time></trkpt><trkpt lat="-28.752139911254314" lon="114.88666148333863"><ele>215.5</ele><time>2026-04-13T07:06:34.001Z</time></trkpt><trkpt lat="-28.75220011015014" lon="114.88635984422832"><ele>216.0</ele><time>2026-04-13T07:06:35.001Z</time></trkpt><trkpt lat="-28.75226228100514" lon="114.88605669938727"><ele>216.5</ele><time>2026-04-13T07:06:36.001Z</time></trkpt><trkpt lat="-28.752325529125557" lon="114.88575484382017"><ele>217.0</ele><time>2026-04-13T07:06:37.001Z</time></trkpt><trkpt lat="-28.752387572439105" lon="114.8854531656091"><ele>217.0</ele><time>2026-04-13T07:06:38.001Z</time></trkpt><trkpt lat="-28.752447759023575" lon="114.8851552370122"><ele>217.0</ele><time>2026-04-13T07:06:39.001Z</time></trkpt><trkpt lat="-28.752509440736947" lon="114.88485987323246"><ele>217.5</ele><time>2026-04-13T07:06:40.001Z</time></trkpt><trkpt lat="-28.752569533339972" lon="114.88456377340088"><ele>218.0</ele><time>2026-04-13T07:06:41.001Z</time></trkpt><trkpt lat="-28.752621149916916" lon="114.88426967644048"><ele>215.5</ele><time>2026-04-13T07:06:42.001Z</time></trkpt><trkpt lat="-28.75265526066823" lon="114.88397886400723"><ele>213.0</ele><time>2026-04-13T07:06:43.001Z</time></trkpt><trkpt lat="-28.752671982966735" lon="114.88369306084076"><ele>210.5</ele><time>2026-04-13T07:06:44.001Z</time></trkpt><trkpt lat="-28.752659464910497" lon="114.88341834590744"><ele>208.0</ele><time>2026-04-13T07:06:45Z</time></trkpt><trkpt lat="-28.75261700525194" lon="114.88315551497514"><ele>208.0</ele><time>2026-04-13T07:06:46Z</time></trkpt><trkpt lat="-28.752546201539992" lon="114.88289814975965"><ele>208.0</ele><time>2026-04-13T07:06:47Z</time></trkpt><trkpt lat="-28.75244689487277" lon="114.88265071151997"><ele>207.0</ele><time>2026-04-13T07:06:48Z</time></trkpt><trkpt lat="-28.75233053553301" lon="114.88240649778011"><ele>206.0</ele><time>2026-04-13T07:06:49Z</time></trkpt><trkpt lat="-28.752189522996193" lon="114.88216351809018"><ele>206.0</ele><time>2026-04-13T07:06:50Z</time></trkpt><trkpt lat="-28.752031535712977" lon="114.88192490268257"><ele>206.0</ele><time>2026-04-13T07:06:51Z</time></trkpt><trkpt lat="-28.751862387903447" lon="114.88168789925815"><ele>206.0</ele><time>2026-04-13T07:06:52Z</time></trkpt><trkpt lat="-28.751705496740094" lon="114.8814347708027"><ele>206.0</ele><time>2026-04-13T07:06:53Z</time></trkpt><trkpt lat="-28.75153865342351" lon="114.88118761144426"><ele>206.0</ele><time>2026-04-13T07:06:54Z</time></trkpt><trkpt lat="-28.75137104676043" lon="114.88093827472186"><ele>206.0</ele><time>2026-04-13T07:06:55Z</time></trkpt><trkpt lat="-28.75120672130229" lon="114.88069277158921"><ele>205.0</ele><time>2026-04-13T07:06:56Z</time></trkpt><trkpt lat="-28.75103179387315" lon="114.8804566507048"><ele>204.0</ele><time>2026-04-13T07:06:57Z</time></trkpt><trkpt lat="-28.750881558895493" lon="114.88020582291058"><ele>204.0</ele><time>2026-04-13T07:06:58Z</time></trkpt><trkpt lat="-28.750768022488415" lon="114.87994383508241"><ele>204.0</ele><time>2026-04-13T07:06:59Z</time></trkpt><trkpt lat="-28.750663148021957" lon="114.87967880362436"><ele>204.0</ele><time>2026-04-13T07:07:00Z</time></trkpt><trkpt lat="-28.750573902582133" lon="114.8794043475861"><ele>204.0</ele><time>2026-04-13T07:07:01Z</time></trkpt><trkpt lat="-28.750469632202794" lon="114.87912824574916"><ele>204.5</ele><time>2026-04-13T07:07:02Z</time></trkpt><trkpt lat="-28.75039234262632" lon="114.87884040419117"><ele>205.0</ele><time>2026-04-13T07:07:03Z</time></trkpt><trkpt lat="-28.750308975279292" lon="114.87855450425207"><ele>205.5</ele><time>2026-04-13T07:07:04Z</time></trkpt><trkpt lat="-28.75021815872984" lon="114.878269755301"><ele>206.0</ele><time>2026-04-13T07:07:05Z</time></trkpt><trkpt lat="-28.7501239693811" lon="114.87798031897117"><ele>208.0</ele><time>2026-04-13T07:07:06Z</time></trkpt><trkpt lat="-28.750028254994554" lon="114.87768850465294"><ele>210.0</ele><time>2026-04-13T07:07:07Z</time></trkpt><trkpt lat="-28.749934648969592" lon="114.87739460513946"><ele>210.0</ele><time>2026-04-13T07:07:08Z</time></trkpt><trkpt lat="-28.74984289213915" lon="114.8771001413773"><ele>210.0</ele><time>2026-04-13T07:07:09Z</time></trkpt><trkpt lat="-28.749749387180312" lon="114.87680397321394"><ele>209.5</ele><time>2026-04-13T07:07:10Z</time></trkpt><trkpt lat="-28.749652442692078" lon="114.8765052958811"><ele>209.0</ele><time>2026-04-13T07:07:11Z</time></trkpt><trkpt lat="-28.74955345223487" lon="114.87620692312072"><ele>208.5</ele><time>2026-04-13T07:07:12Z</time></trkpt><trkpt lat="-28.74946985286213" lon="114.87589520883725"><ele>208.0</ele><time>2026-04-13T07:07:13Z</time></trkpt><trkpt lat="-28.749372494775855" lon="114.87559162211454"><ele>209.5</ele><time>2026-04-13T07:07:14Z</time></trkpt><trkpt lat="-28.749274986007833" lon="114.87529473850141"><ele>211.0</ele><time>2026-04-13T07:07:15Z</time></trkpt><trkpt lat="-28.749179156399048" lon="114.87500123291782"><ele>211.0</ele><time>2026-04-13T07:07:16Z</time></trkpt><trkpt lat="-28.749091501447676" lon="114.87471888598692"><ele>211.0</ele><time>2026-04-13T07:07:17Z</time></trkpt><trkpt lat="-28.748995812766996" lon="114.87444261955774"><ele>209.0</ele><time>2026-04-13T07:07:18Z</time></trkpt><trkpt lat="-28.748929285494775" lon="114.87415650205625"><ele>207.0</ele><time>2026-04-13T07:07:19Z</time></trkpt><trkpt lat="-28.748887256082735" lon="114.87387233911703"><ele>207.0</ele><time>2026-04-13T07:07:20Z</time></trkpt><trkpt lat="-28.748885100733997" lon="114.87358960741538"><ele>207.0</ele><time>2026-04-13T07:07:21Z</time></trkpt><trkpt lat="-28.748873580448272" lon="114.87331587214011"><ele>207.0</ele><time>2026-04-13T07:07:22Z</time></trkpt><trkpt lat="-28.748906088566184" lon="114.87306407854011"><ele>207.0</ele><time>2026-04-13T07:07:23Z</time></trkpt><trkpt lat="-28.748944745275463" lon="114.87282683650416"><ele>207.0</ele><time>2026-04-13T07:07:24Z</time></trkpt><trkpt lat="-28.748988136024206" lon="114.87259812619202"><ele>207.0</ele><time>2026-04-13T07:07:25Z</time></trkpt><trkpt lat="-28.749027844378823" lon="114.87239394410726"><ele>207.0</ele><time>2026-04-13T07:07:26Z</time></trkpt><trkpt lat="-28.749046872565025" lon="114.87220545733915"><ele>207.0</ele><time>2026-04-13T07:07:27Z</time></trkpt><trkpt lat="-28.74903550308993" lon="114.87201273205105"><ele>207.0</ele><time>2026-04-13T07:07:28Z</time></trkpt><trkpt lat="-28.7489910095439" lon="114.8718213698532"><ele>207.0</ele><time>2026-04-13T07:07:29Z</time></trkpt><trkpt lat="-28.748913779992424" lon="114.87163813925132"><ele>207.0</ele><time>2026-04-13T07:07:30Z</time></trkpt><trkpt lat="-28.74880099354098" lon="114.87147480476948"><ele>206.33333333333331</ele><time>2026-04-13T07:07:31Z</time></trkpt><trkpt lat="-28.74864993052605" lon="114.87133530192801"><ele>205.66666666666666</ele><time>2026-04-13T07:07:32Z</time></trkpt><trkpt lat="-28.74847494363953" lon="114.87124608932943"><ele>205.0</ele><time>2026-04-13T07:07:33.001Z</time></trkpt><trkpt lat="-28.748281170322866" lon="114.87118838163398"><ele>206.66666666666666</ele><time>2026-04-13T07:07:34.001Z</time></trkpt><trkpt lat="-28.748067566079985" lon="114.87116826299912"><ele>208.33333333333331</ele><time>2026-04-13T07:07:35.001Z</time></trkpt><trkpt lat="-28.74785661737352" lon="114.87117960119168"><ele>210.0</ele><time>2026-04-13T07:07:36.001Z</time></trkpt><trkpt lat="-28.74763167325181" lon="114.87119543354719"><ele>210.5</ele><time>2026-04-13T07:07:37.001Z</time></trkpt><trkpt lat="-28.74739168080411" lon="114.87119894321485"><ele>211.0</ele><time>2026-04-13T07:07:38.001Z</time></trkpt><trkpt lat="-28.747145652735792" lon="114.87119290142519"><ele>211.0</ele><time>2026-04-13T07:07:39.001Z</time></trkpt><trkpt lat="-28.746896246727545" lon="114.8711861594543"><ele>211.0</ele><time>2026-04-13T07:07:40.001Z</time></trkpt><trkpt lat="-28.746644320782558" lon="114.87118175709976"><ele>215.0</ele><time>2026-04-13T07:07:41.001Z</time></trkpt><trkpt lat="-28.74638757340315" lon="114.8711787483139"><ele>219.0</ele><time>2026-04-13T07:07:42.001Z</time></trkpt><trkpt lat="-28.7461262690348" lon="114.87117742234403"><ele>222.0</ele><time>2026-04-13T07:07:43.001Z</time></trkpt><trkpt lat="-28.745863320153585" lon="114.87117728378418"><ele>225.0</ele><time>2026-04-13T07:07:44.001Z</time></trkpt><trkpt lat="-28.745601261600022" lon="114.8711754492806"><ele>225.0</ele><time>2026-04-13T07:07:45.001Z</time></trkpt><trkpt lat="-28.745342045377217" lon="114.87116852327564"><ele>225.0</ele><time>2026-04-13T07:07:46.001Z</time></trkpt><trkpt lat="-28.745083560127824" lon="114.87116153880943"><ele>227.5</ele><time>2026-04-13T07:07:47.001Z</time></trkpt><trkpt lat="-28.74482263871842" lon="114.87115726099248"><ele>230.0</ele><time>2026-04-13T07:07:48.001Z</time></trkpt><trkpt lat="-28.744560589723466" lon="114.87115326470717"><ele>228.5</ele><time>2026-04-13T07:07:49.001Z</time></trkpt><trkpt lat="-28.744293655494875" lon="114.87115185322718"><ele>227.0</ele><time>2026-04-13T07:07:50.001Z</time></trkpt><trkpt lat="-28.74402567073808" lon="114.87115313281178"><ele>227.0</ele><time>2026-04-13T07:07:51.001Z</time></trkpt><trkpt lat="-28.743755395414077" lon="114.87114968085747"><ele>227.0</ele><time>2026-04-13T07:07:52.001Z</time></trkpt><trkpt lat="-28.743481955086875" lon="114.87114036304415"><ele>226.5</ele><time>2026-04-13T07:07:53.001Z</time></trkpt><trkpt lat="-28.74321430872215" lon="114.87113631657395"><ele>226.0</ele><time>2026-04-13T07:07:54.001Z</time></trkpt><trkpt lat="-28.74295781648598" lon="114.8711352942648"><ele>227.5</ele><time>2026-04-13T07:07:55.001Z</time></trkpt><trkpt lat="-28.74271420978196" lon="114.87113543185993"><ele>229.0</ele><time>2026-04-13T07:07:56.001Z</time></trkpt><trkpt lat="-28.742477682081773" lon="114.87113824859793"><ele>229.0</ele><time>2026-04-13T07:07:57.001Z</time></trkpt><trkpt lat="-28.742248187985343" lon="114.87114256569676"><ele>229.0</ele><time>2026-04-13T07:07:58.001Z</time></trkpt><trkpt lat="-28.742017393180213" lon="114.87114481933989"><ele>230.5</ele><time>2026-04-13T07:07:59.001Z</time></trkpt><trkpt lat="-28.74179038684912" lon="114.87114190772724"><ele>232.0</ele><time>2026-04-13T07:08:00.001Z</time></trkpt><trkpt lat="-28.74156669449474" lon="114.87112972756991"><ele>232.0</ele><time>2026-04-13T07:08:01.001Z</time></trkpt><trkpt lat="-28.741346924319785" lon="114.87110528754489"><ele>232.0</ele><time>2026-04-13T07:08:02.001Z</time></trkpt><trkpt lat="-28.741116032557994" lon="114.87105858599043"><ele>234.0</ele><time>2026-04-13T07:08:03.001Z</time></trkpt><trkpt lat="-28.740891862127818" lon="114.87098685266137"><ele>236.0</ele><time>2026-04-13T07:08:04.001Z</time></trkpt><trkpt lat="-28.740675953321308" lon="114.87088764585893"><ele>236.0</ele><time>2026-04-13T07:08:05.001Z</time></trkpt><trkpt lat="-28.740461671698274" lon="114.87075113557472"><ele>236.0</ele><time>2026-04-13T07:08:06.001Z</time></trkpt><trkpt lat="-28.740254181315095" lon="114.87058966206077"><ele>240.0</ele><time>2026-04-13T07:08:07.001Z</time></trkpt><trkpt lat="-28.74006570635479" lon="114.8704106474709"><ele>244.0</ele><time>2026-04-13T07:08:08.001Z</time></trkpt><trkpt lat="-28.739903465178276" lon="114.87022423567775"><ele>242.33333333333331</ele><time>2026-04-13T07:08:09.001Z</time></trkpt><trkpt lat="-28.739767007744227" lon="114.87003587910904"><ele>240.66666666666669</ele><time>2026-04-13T07:08:10.001Z</time></trkpt><trkpt lat="-28.739638514882728" lon="114.86985556240073"><ele>239.0</ele><time>2026-04-13T07:08:11.001Z</time></trkpt><trkpt lat="-28.739490317342923" lon="114.86968259044323"><ele>243.33333333333334</ele><time>2026-04-13T07:08:12.001Z</time></trkpt><trkpt lat="-28.739316700817927" lon="114.86952932447531"><ele>247.66666666666669</ele><time>2026-04-13T07:08:13.001Z</time></trkpt><trkpt lat="-28.739128741173207" lon="114.86939597277433"><ele>252.0</ele><time>2026-04-13T07:08:14.001Z</time></trkpt><trkpt lat="-28.73894332528623" lon="114.86929780758624"><ele>251.66666666666669</ele><time>2026-04-13T07:08:15.001Z</time></trkpt><trkpt lat="-28.738747131774108" lon="114.86921581563557"><ele>251.33333333333334</ele><time>2026-04-13T07:08:16.001Z</time></trkpt><trkpt lat="-28.738540036554614" lon="114.86915796158857"><ele>251.0</ele><time>2026-04-13T07:08:17.001Z</time></trkpt><trkpt lat="-28.738320250515383" lon="114.86912783617827"><ele>251.0</ele><time>2026-04-13T07:08:18.001Z</time></trkpt><trkpt lat="-28.73808792177879" lon="114.86912370649618"><ele>251.0</ele><time>2026-04-13T07:08:19.001Z</time></trkpt><trkpt lat="-28.73784382215611" lon="114.86912221574028"><ele>254.0</ele><time>2026-04-13T07:08:20.001Z</time></trkpt><trkpt lat="-28.73758970856296" lon="114.86913166936468"><ele>257.0</ele><time>2026-04-13T07:08:21.001Z</time></trkpt><trkpt lat="-28.737336341535087" lon="114.86914319565035"><ele>257.0</ele><time>2026-04-13T07:08:22.001Z</time></trkpt><trkpt lat="-28.737076737711092" lon="114.86916156674596"><ele>257.0</ele><time>2026-04-13T07:08:23.001Z</time></trkpt><trkpt lat="-28.73681767549947" lon="114.8691804307288"><ele>257.0</ele><time>2026-04-13T07:08:24.001Z</time></trkpt><trkpt lat="-28.73655716553887" lon="114.86919796304629"><ele>257.0</ele><time>2026-04-13T07:08:25.001Z</time></trkpt><trkpt lat="-28.736292445819615" lon="114.86921263245235"><ele>257.5</ele><time>2026-04-13T07:08:26.001Z</time></trkpt><trkpt lat="-28.73603208362133" lon="114.86922412601281"><ele>258.0</ele><time>2026-04-13T07:08:27.001Z</time></trkpt><trkpt lat="-28.735766259667482" lon="114.86923304397199"><ele>258.0</ele><time>2026-04-13T07:08:28.001Z</time></trkpt><trkpt lat="-28.73550067123208" lon="114.8692382824007"><ele>258.0</ele><time>2026-04-13T07:08:29.001Z</time></trkpt><trkpt lat="-28.7352373931156" lon="114.86924863916781"><ele>257.5</ele><time>2026-04-13T07:08:30.001Z</time></trkpt><trkpt lat="-28.73496933260581" lon="114.86926060090049"><ele>257.0</ele><time>2026-04-13T07:08:31.001Z</time></trkpt><trkpt lat="-28.734703439268902" lon="114.86927684442874"><ele>257.0</ele><time>2026-04-13T07:08:32.001Z</time></trkpt><trkpt lat="-28.734437130537266" lon="114.86927134441069"><ele>257.0</ele><time>2026-04-13T07:08:33.001Z</time></trkpt><trkpt lat="-28.734169611870144" lon="114.86928228257557"><ele>258.5</ele><time>2026-04-13T07:08:34.001Z</time></trkpt><trkpt lat="-28.733902955310402" lon="114.86931135157981"><ele>260.0</ele><time>2026-04-13T07:08:35.001Z</time></trkpt><trkpt lat="-28.73362826665048" lon="114.86931230419523"><ele>260.0</ele><time>2026-04-13T07:08:36.001Z</time></trkpt><trkpt lat="-28.73335545298847" lon="114.8693090657772"><ele>260.0</ele><time>2026-04-13T07:08:37.001Z</time></trkpt><trkpt lat="-28.73309116767647" lon="114.86926767028119"><ele>260.0</ele><time>2026-04-13T07:08:38.001Z</time></trkpt><trkpt lat="-28.732830289889947" lon="114.86922188123576"><ele>260.0</ele><time>2026-04-13T07:08:39.001Z</time></trkpt><trkpt lat="-28.73256909901569" lon="114.86915094983299"><ele>259.0</ele><time>2026-04-13T07:08:40.001Z</time></trkpt><trkpt lat="-28.73230535265663" lon="114.8690779453916"><ele>258.0</ele><time>2026-04-13T07:08:41.001Z</time></trkpt><trkpt lat="-28.73204388783518" lon="114.86898956793486"><ele>256.0</ele><time>2026-04-13T07:08:42.001Z</time></trkpt><trkpt lat="-28.73180094757788" lon="114.86885242884738"><ele>254.0</ele><time>2026-04-13T07:08:43.001Z</time></trkpt><trkpt lat="-28.73155725855483" lon="114.86871799595724"><ele>254.0</ele><time>2026-04-13T07:08:44.001Z</time></trkpt><trkpt lat="-28.731325256181254" lon="114.86857056447049"><ele>254.0</ele><time>2026-04-13T07:08:45.001Z</time></trkpt><trkpt lat="-28.731092733669986" lon="114.86842276547843"><ele>256.0</ele><time>2026-04-13T07:08:46.001Z</time></trkpt><trkpt lat="-28.730851540473758" lon="114.86828790479608"><ele>258.0</ele><time>2026-04-13T07:08:47.001Z</time></trkpt><trkpt lat="-28.730613986568407" lon="114.86813778491494"><ele>258.0</ele><time>2026-04-13T07:08:48.001Z</time></trkpt><trkpt lat="-28.730378644978487" lon="114.86798971271118"><ele>258.0</ele><time>2026-04-13T07:08:49.001Z</time></trkpt><trkpt lat="-28.730139139847218" lon="114.86784062786496"><ele>258.0</ele><time>2026-04-13T07:08:50.001Z</time></trkpt><trkpt lat="-28.729898916075754" lon="114.86769234711295"><ele>258.0</ele><time>2026-04-13T07:08:51.001Z</time></trkpt><trkpt lat="-28.72966970944115" lon="114.86752491222563"><ele>258.0</ele><time>2026-04-13T07:08:52.001Z</time></trkpt><trkpt lat="-28.72943237167722" lon="114.86737107942537"><ele>258.0</ele><time>2026-04-13T07:08:53.001Z</time></trkpt><trkpt lat="-28.729189102025213" lon="114.86721826901292"><ele>258.5</ele><time>2026-04-13T07:08:54.001Z</time></trkpt><trkpt lat="-28.728940299351958" lon="114.86707981985339"><ele>259.0</ele><time>2026-04-13T07:08:55.001Z</time></trkpt><trkpt lat="-28.72869828791033" lon="114.86692394596167"><ele>258.5</ele><time>2026-04-13T07:08:56.001Z</time></trkpt><trkpt lat="-28.728454447028163" lon="114.86677146793352"><ele>258.0</ele><time>2026-04-13T07:08:57.001Z</time></trkpt><trkpt lat="-28.728210309388295" lon="114.8666198946622"><ele>258.0</ele><time>2026-04-13T07:08:58.001Z</time></trkpt><trkpt lat="-28.727976604625624" lon="114.86645108445336"><ele>258.0</ele><time>2026-04-13T07:08:59.001Z</time></trkpt><trkpt lat="-28.727733463380325" lon="114.86629653164088"><ele>258.0</ele><time>2026-04-13T07:09:00.001Z</time></trkpt><trkpt lat="-28.72749166364456" lon="114.8661425544179"><ele>258.0</ele><time>2026-04-13T07:09:01.001Z</time></trkpt><trkpt lat="-28.727242005170112" lon="114.86600514882589"><ele>258.0</ele><time>2026-04-13T07:09:02.001Z</time></trkpt><trkpt lat="-28.726996469723087" lon="114.86585758047872"><ele>258.0</ele><time>2026-04-13T07:09:03.001Z</time></trkpt><trkpt lat="-28.726750542066394" lon="114.86572125447351"><ele>258.5</ele><time>2026-04-13T07:09:04.001Z</time></trkpt><trkpt lat="-28.726497624947434" lon="114.86559257748215"><ele>259.0</ele><time>2026-04-13T07:09:05.001Z</time></trkpt><trkpt lat="-28.726246716103073" lon="114.86546963422609"><ele>259.0</ele><time>2026-04-13T07:09:06.001Z</time></trkpt><trkpt lat="-28.726008347028483" lon="114.86532974124405"><ele>259.0</ele><time>2026-04-13T07:09:07.001Z</time></trkpt><trkpt lat="-28.725777962263464" lon="114.86520977650514"><ele>259.0</ele><time>2026-04-13T07:09:08.001Z</time></trkpt><trkpt lat="-28.725554636440215" lon="114.86510978073125"><ele>259.0</ele><time>2026-04-13T07:09:09.001Z</time></trkpt><trkpt lat="-28.725353393964312" lon="114.86499900637253"><ele>258.66666666666663</ele><time>2026-04-13T07:09:10.001Z</time></trkpt><trkpt lat="-28.725162386008407" lon="114.86489261408808"><ele>258.3333333333333</ele><time>2026-04-13T07:09:11.001Z</time></trkpt><trkpt lat="-28.72498116072814" lon="114.86479671750438"><ele>258.0</ele><time>2026-04-13T07:09:12.001Z</time></trkpt><trkpt lat="-28.72480799168573" lon="114.86470795272513"><ele>258.0</ele><time>2026-04-13T07:09:13.001Z</time></trkpt><trkpt lat="-28.724644078839066" lon="114.86462395928271"><ele>258.0</ele><time>2026-04-13T07:09:14.001Z</time></trkpt><trkpt lat="-28.724486405202587" lon="114.86454294415272"><ele>258.0</ele><time>2026-04-13T07:09:15.001Z</time></trkpt><trkpt lat="-28.724338463926316" lon="114.86446826464774"><ele>258.0</ele><time>2026-04-13T07:09:16.001Z</time></trkpt><trkpt lat="-28.724203249036897" lon="114.86439828696277"><ele>258.0</ele><time>2026-04-13T07:09:17.001Z</time></trkpt><trkpt lat="-28.72408374938523" lon="114.86433605986703"><ele>258.0</ele><time>2026-04-13T07:09:18.001Z</time></trkpt><trkpt lat="-28.723978389300356" lon="114.86427901307644"><ele>258.0</ele><time>2026-04-13T07:09:19.001Z</time></trkpt><trkpt lat="-28.72389217461313" lon="114.86422678962018"><ele>258.4</ele><time>2026-04-13T07:09:20.001Z</time></trkpt><trkpt lat="-28.723829399578868" lon="114.86418526504704"><ele>258.8</ele><time>2026-04-13T07:09:21.001Z</time></trkpt><trkpt lat="-28.723735349876858" lon="114.86412161040731"><ele>259.2</ele><time>2026-04-13T07:09:23.001Z</time></trkpt><trkpt lat="-28.723645015159985" lon="114.86404445816666"><ele>259.6</ele><time>2026-04-13T07:09:25.001Z</time></trkpt><trkpt lat="-28.723605642419383" lon="114.86397528718388"><ele>260.0</ele><time>2026-04-13T07:09:27.001Z</time></trkpt><trkpt lat="-28.723626721054423" lon="114.86388133917515"><ele>260.0</ele><time>2026-04-13T07:09:29.001Z</time></trkpt><trkpt lat="-28.723659433764777" lon="114.86381421653918"><ele>260.0</ele><time>2026-04-13T07:09:30.001Z</time></trkpt><trkpt lat="-28.72367749645361" lon="114.86373426506705"><ele>260.0</ele><time>2026-04-13T07:09:31.001Z</time></trkpt><trkpt lat="-28.72366208062167" lon="114.86364605975547"><ele>260.0</ele><time>2026-04-13T07:09:32.001Z</time></trkpt><trkpt lat="-28.723620446981684" lon="114.86355335719388"><ele>260.0</ele><time>2026-04-13T07:09:33.001Z</time></trkpt><trkpt lat="-28.72355828509228" lon="114.86347515800739"><ele>260.0</ele><time>2026-04-13T07:09:34.001Z</time></trkpt><trkpt lat="-28.72347205864516" lon="114.86343561888684"><ele>260.0</ele><time>2026-04-13T07:09:35.001Z</time></trkpt><trkpt lat="-28.723359360868745" lon="114.8634154755332"><ele>260.0</ele><time>2026-04-13T07:09:36.001Z</time></trkpt><trkpt lat="-28.723234261206763" lon="114.86339846927764"><ele>260.0</ele><time>2026-04-13T07:09:37.001Z</time></trkpt><trkpt lat="-28.723101313370407" lon="114.86337777645348"><ele>260.0</ele><time>2026-04-13T07:09:38.001Z</time></trkpt><trkpt lat="-28.722964657111582" lon="114.86335882300193"><ele>260.0</ele><time>2026-04-13T07:09:39.001Z</time></trkpt><trkpt lat="-28.72281631686882" lon="114.86334629635655"><ele>260.0</ele><time>2026-04-13T07:09:40.001Z</time></trkpt><trkpt lat="-28.72265651351391" lon="114.86334549898145"><ele>260.0</ele><time>2026-04-13T07:09:41.001Z</time></trkpt><trkpt lat="-28.722481037174973" lon="114.86334945786952"><ele>259.0</ele><time>2026-04-13T07:09:42.001Z</time></trkpt><trkpt lat="-28.722298188231488" lon="114.86335179237614"><ele>258.0</ele><time>2026-04-13T07:09:43.001Z</time></trkpt><trkpt lat="-28.722106838915895" lon="114.86334942851009"><ele>257.0</ele><time>2026-04-13T07:09:44.001Z</time></trkpt><trkpt lat="-28.721901018683436" lon="114.86335046996167"><ele>257.6666666666667</ele><time>2026-04-13T07:09:45.001Z</time></trkpt><trkpt lat="-28.72168844505451" lon="114.8633533059827"><ele>258.3333333333333</ele><time>2026-04-13T07:09:46.001Z</time></trkpt><trkpt lat="-28.721475263741535" lon="114.86335285567539"><ele>259.0</ele><time>2026-04-13T07:09:47.001Z</time></trkpt><trkpt lat="-28.721250992228537" lon="114.86335321173419"><ele>258.5</ele><time>2026-04-13T07:09:48.001Z</time></trkpt><trkpt lat="-28.721013055388386" lon="114.8633535292622"><ele>258.0</ele><time>2026-04-13T07:09:49.001Z</time></trkpt><trkpt lat="-28.72076275513591" lon="114.86335476339372"><ele>258.0</ele><time>2026-04-13T07:09:50.001Z</time></trkpt><trkpt lat="-28.720514321965425" lon="114.86335765830296"><ele>258.0</ele><time>2026-04-13T07:09:51.001Z</time></trkpt><trkpt lat="-28.720273889256887" lon="114.86335753264726"><ele>258.0</ele><time>2026-04-13T07:09:52.001Z</time></trkpt><trkpt lat="-28.72003104452722" lon="114.86335545605242"><ele>258.0</ele><time>2026-04-13T07:09:53.001Z</time></trkpt><trkpt lat="-28.719780167801265" lon="114.86335384134718"><ele>258.0</ele><time>2026-04-13T07:09:54.001Z</time></trkpt><trkpt lat="-28.71952933425786" lon="114.86335096024722"><ele>258.0</ele><time>2026-04-13T07:09:55.001Z</time></trkpt><trkpt lat="-28.719276008106387" lon="114.86334828107361"><ele>256.5</ele><time>2026-04-13T07:09:56.001Z</time></trkpt><trkpt lat="-28.719016231258575" lon="114.86334572124574"><ele>255.0</ele><time>2026-04-13T07:09:57.001Z</time></trkpt><trkpt lat="-28.71875528396094" lon="114.86334437363904"><ele>254.5</ele><time>2026-04-13T07:09:58.001Z</time></trkpt><trkpt lat="-28.71849396880322" lon="114.86334505610351"><ele>254.0</ele><time>2026-04-13T07:09:59.001Z</time></trkpt><trkpt lat="-28.718232498120027" lon="114.8633477724161"><ele>254.0</ele><time>2026-04-13T07:10:00.001Z</time></trkpt><trkpt lat="-28.7179697647156" lon="114.86334639680842"><ele>254.0</ele><time>2026-04-13T07:10:01.001Z</time></trkpt><trkpt lat="-28.717707684569337" lon="114.86334343496463"><ele>255.0</ele><time>2026-04-13T07:10:02.001Z</time></trkpt><trkpt lat="-28.717449274664112" lon="114.86334315057101"><ele>256.0</ele><time>2026-04-13T07:10:03.001Z</time></trkpt><trkpt lat="-28.717193539713364" lon="114.86334007613546"><ele>256.0</ele><time>2026-04-13T07:10:04.001Z</time></trkpt><trkpt lat="-28.716936857599507" lon="114.8633361942939"><ele>256.0</ele><time>2026-04-13T07:10:05.001Z</time></trkpt><trkpt lat="-28.716681377097917" lon="114.86333358422765"><ele>256.0</ele><time>2026-04-13T07:10:06.001Z</time></trkpt><trkpt lat="-28.716426086564518" lon="114.86333086573285"><ele>256.0</ele><time>2026-04-13T07:10:07.001Z</time></trkpt><trkpt lat="-28.716170163377164" lon="114.86332994408096"><ele>255.5</ele><time>2026-04-13T07:10:08.001Z</time></trkpt><trkpt lat="-28.715913542986165" lon="114.86333021677548"><ele>255.0</ele><time>2026-04-13T07:10:09.001Z</time></trkpt><trkpt lat="-28.715654809521908" lon="114.86332807186383"><ele>255.0</ele><time>2026-04-13T07:10:10.001Z</time></trkpt><trkpt lat="-28.715399506582777" lon="114.86332624751583"><ele>255.0</ele><time>2026-04-13T07:10:11.001Z</time></trkpt><trkpt lat="-28.715145862892847" lon="114.86332582045945"><ele>255.0</ele><time>2026-04-13T07:10:12.001Z</time></trkpt><trkpt lat="-28.714890355328222" lon="114.86332646863848"><ele>255.0</ele><time>2026-04-13T07:10:13.001Z</time></trkpt><trkpt lat="-28.714632907711092" lon="114.86333004708256"><ele>254.5</ele><time>2026-04-13T07:10:14.001Z</time></trkpt><trkpt lat="-28.714375281408397" lon="114.86333211254158"><ele>254.0</ele><time>2026-04-13T07:10:15.001Z</time></trkpt><trkpt lat="-28.714117129018085" lon="114.8633318607049"><ele>254.0</ele><time>2026-04-13T07:10:16.001Z</time></trkpt><trkpt lat="-28.71385792943603" lon="114.86333071032607"><ele>254.0</ele><time>2026-04-13T07:10:17.001Z</time></trkpt><trkpt lat="-28.71359383413985" lon="114.86332958032521"><ele>255.0</ele><time>2026-04-13T07:10:18.001Z</time></trkpt><trkpt lat="-28.713330116217264" lon="114.86332750267164"><ele>256.0</ele><time>2026-04-13T07:10:19.001Z</time></trkpt><trkpt lat="-28.713069174683035" lon="114.8633245782786"><ele>256.0</ele><time>2026-04-13T07:10:20.001Z</time></trkpt><trkpt lat="-28.712809749575484" lon="114.86331984265698"><ele>256.0</ele><time>2026-04-13T07:10:21.001Z</time></trkpt><trkpt lat="-28.712548933153712" lon="114.86331958136043"><ele>256.0</ele><time>2026-04-13T07:10:22.001Z</time></trkpt><trkpt lat="-28.71228924106335" lon="114.86332123957793"><ele>256.0</ele><time>2026-04-13T07:10:23.001Z</time></trkpt><trkpt lat="-28.712027914815895" lon="114.86332287369835"><ele>257.0</ele><time>2026-04-13T07:10:24.001Z</time></trkpt><trkpt lat="-28.711768709421857" lon="114.86332343617327"><ele>258.0</ele><time>2026-04-13T07:10:25.001Z</time></trkpt><trkpt lat="-28.71151022420433" lon="114.86332403151847"><ele>258.0</ele><time>2026-04-13T07:10:26.001Z</time></trkpt><trkpt lat="-28.71125019348351" lon="114.8633227008636"><ele>258.0</ele><time>2026-04-13T07:10:27.001Z</time></trkpt><trkpt lat="-28.710991584578064" lon="114.86332024496139"><ele>258.0</ele><time>2026-04-13T07:10:28.001Z</time></trkpt><trkpt lat="-28.7107307494159" lon="114.86331628891406"><ele>258.0</ele><time>2026-04-13T07:10:29.001Z</time></trkpt><trkpt lat="-28.71047500683046" lon="114.86331459076918"><ele>257.5</ele><time>2026-04-13T07:10:30.001Z</time></trkpt><trkpt lat="-28.710217198781493" lon="114.86331291779376"><ele>257.0</ele><time>2026-04-13T07:10:31.001Z</time></trkpt><trkpt lat="-28.709958777066397" lon="114.8633134680799"><ele>257.0</ele><time>2026-04-13T07:10:32.001Z</time></trkpt><trkpt lat="-28.70969608883096" lon="114.86331223943372"><ele>257.0</ele><time>2026-04-13T07:10:33.001Z</time></trkpt><trkpt lat="-28.70943603411469" lon="114.86331180447907"><ele>256.5</ele><time>2026-04-13T07:10:34.001Z</time></trkpt><trkpt lat="-28.709170126536183" lon="114.86331388613803"><ele>256.0</ele><time>2026-04-13T07:10:35.001Z</time></trkpt><trkpt lat="-28.708901265034612" lon="114.86331468613074"><ele>256.0</ele><time>2026-04-13T07:10:36.001Z</time></trkpt><trkpt lat="-28.708631895342837" lon="114.86331498287272"><ele>256.0</ele><time>2026-04-13T07:10:37.001Z</time></trkpt><trkpt lat="-28.70836942254328" lon="114.86331230334014"><ele>256.5</ele><time>2026-04-13T07:10:38.001Z</time></trkpt><trkpt lat="-28.7081211273916" lon="114.86331055979413"><ele>257.0</ele><time>2026-04-13T07:10:39.001Z</time></trkpt><trkpt lat="-28.707877637453414" lon="114.86330755276687"><ele>255.5</ele><time>2026-04-13T07:10:40.001Z</time></trkpt><trkpt lat="-28.707634601431565" lon="114.86330823032476"><ele>254.0</ele><time>2026-04-13T07:10:41.001Z</time></trkpt><trkpt lat="-28.707385840004093" lon="114.86330920267297"><ele>254.0</ele><time>2026-04-13T07:10:42.001Z</time></trkpt><trkpt lat="-28.707141450233724" lon="114.86330939256061"><ele>254.0</ele><time>2026-04-13T07:10:43.001Z</time></trkpt><trkpt lat="-28.706907511664724" lon="114.86330994909763"><ele>251.5</ele><time>2026-04-13T07:10:44.001Z</time></trkpt><trkpt lat="-28.70668282486602" lon="114.86330897116551"><ele>249.0</ele><time>2026-04-13T07:10:45.001Z</time></trkpt><trkpt lat="-28.706456668685608" lon="114.86330586336327"><ele>249.0</ele><time>2026-04-13T07:10:46.001Z</time></trkpt><trkpt lat="-28.706231973278385" lon="114.86330512016475"><ele>249.0</ele><time>2026-04-13T07:10:47.001Z</time></trkpt><trkpt lat="-28.706001032375543" lon="114.86330355283471"><ele>246.0</ele><time>2026-04-13T07:10:48.001Z</time></trkpt><trkpt lat="-28.70577140611638" lon="114.86329910357942"><ele>243.0</ele><time>2026-04-13T07:10:49.001Z</time></trkpt><trkpt lat="-28.70554812157073" lon="114.8632946772783"><ele>243.0</ele><time>2026-04-13T07:10:50.001Z</time></trkpt><trkpt lat="-28.705323911244776" lon="114.86329364613769"><ele>243.0</ele><time>2026-04-13T07:10:51.001Z</time></trkpt><trkpt lat="-28.705111485891788" lon="114.86329680380238"><ele>243.0</ele><time>2026-04-13T07:10:52.001Z</time></trkpt><trkpt lat="-28.704899192686625" lon="114.86330080563633"><ele>240.66666666666669</ele><time>2026-04-13T07:10:53.001Z</time></trkpt><trkpt lat="-28.70469034522539" lon="114.8633024133057"><ele>238.33333333333334</ele><time>2026-04-13T07:10:54.001Z</time></trkpt><trkpt lat="-28.70448876178402" lon="114.86330435041107"><ele>236.0</ele><time>2026-04-13T07:10:55.001Z</time></trkpt><trkpt lat="-28.70429107949828" lon="114.86331081836768"><ele>233.66666666666669</ele><time>2026-04-13T07:10:56.001Z</time></trkpt><trkpt lat="-28.704096102153535" lon="114.86332906582058"><ele>231.33333333333331</ele><time>2026-04-13T07:10:57.001Z</time></trkpt><trkpt lat="-28.70390629848897" lon="114.86336521783812"><ele>229.0</ele><time>2026-04-13T07:10:58.001Z</time></trkpt><trkpt lat="-28.703705814318837" lon="114.86342583449746"><ele>227.0</ele><time>2026-04-13T07:10:59.001Z</time></trkpt><trkpt lat="-28.703497879851913" lon="114.86351446260622"><ele>225.0</ele><time>2026-04-13T07:11:00.001Z</time></trkpt><trkpt lat="-28.70327917027228" lon="114.86361535343201"><ele>225.0</ele><time>2026-04-13T07:11:01.001Z</time></trkpt><trkpt lat="-28.703059558259653" lon="114.8637183758934"><ele>225.0</ele><time>2026-04-13T07:11:02.001Z</time></trkpt><trkpt lat="-28.702838866550078" lon="114.86380935829203"><ele>224.0</ele><time>2026-04-13T07:11:03.001Z</time></trkpt><trkpt lat="-28.7026209317561" lon="114.86389287863129"><ele>223.0</ele><time>2026-04-13T07:11:04.001Z</time></trkpt><trkpt lat="-28.702411001355113" lon="114.86396328720566"><ele>222.0</ele><time>2026-04-13T07:11:05.001Z</time></trkpt><trkpt lat="-28.702208914644608" lon="114.86401339841997"><ele>222.0</ele><time>2026-04-13T07:11:06.001Z</time></trkpt><trkpt lat="-28.702010474170752" lon="114.8640153739753"><ele>222.0</ele><time>2026-04-13T07:11:07.001Z</time></trkpt><trkpt lat="-28.70182142918337" lon="114.86402025257512"><ele>222.0</ele><time>2026-04-13T07:11:08.001Z</time></trkpt><trkpt lat="-28.701636484355703" lon="114.86397491523506"><ele>220.33333333333331</ele><time>2026-04-13T07:11:09.001Z</time></trkpt><trkpt lat="-28.70146142562743" lon="114.86392390760417"><ele>218.66666666666666</ele><time>2026-04-13T07:11:10.001Z</time></trkpt><trkpt lat="-28.701278577468013" lon="114.86388793492375"><ele>217.0</ele><time>2026-04-13T07:11:11.001Z</time></trkpt><trkpt lat="-28.70107999961609" lon="114.86387927213482"><ele>215.0</ele><time>2026-04-13T07:11:12.001Z</time></trkpt><trkpt lat="-28.700860745542798" lon="114.86390026877501"><ele>213.0</ele><time>2026-04-13T07:11:13.001Z</time></trkpt><trkpt lat="-28.700620637834263" lon="114.8639385540249"><ele>213.0</ele><time>2026-04-13T07:11:14.001Z</time></trkpt><trkpt lat="-28.700377854669117" lon="114.86398365813154"><ele>213.0</ele><time>2026-04-13T07:11:15.001Z</time></trkpt><trkpt lat="-28.700133158991694" lon="114.86402235204513"><ele>210.5</ele><time>2026-04-13T07:11:16.001Z</time></trkpt><trkpt lat="-28.69989746776882" lon="114.86405564194294"><ele>208.0</ele><time>2026-04-13T07:11:17.001Z</time></trkpt><trkpt lat="-28.699671296212728" lon="114.8640884219098"><ele>208.0</ele><time>2026-04-13T07:11:18.001Z</time></trkpt><trkpt lat="-28.699457750085895" lon="114.86411896056728"><ele>208.0</ele><time>2026-04-13T07:11:19.001Z</time></trkpt><trkpt lat="-28.699250969765863" lon="114.86414881916363"><ele>208.0</ele><time>2026-04-13T07:11:20.001Z</time></trkpt><trkpt lat="-28.699049942898526" lon="114.86417540532506"><ele>207.0</ele><time>2026-04-13T07:11:21.001Z</time></trkpt><trkpt lat="-28.698857537287328" lon="114.86419597511963"><ele>206.0</ele><time>2026-04-13T07:11:22.001Z</time></trkpt><trkpt lat="-28.69866957314163" lon="114.86420665606857"><ele>205.0</ele><time>2026-04-13T07:11:23.001Z</time></trkpt><trkpt lat="-28.69847603387838" lon="114.86419611379812"><ele>204.0</ele><time>2026-04-13T07:11:24.001Z</time></trkpt><trkpt lat="-28.698278846118587" lon="114.8641623718221"><ele>203.0</ele><time>2026-04-13T07:11:25.001Z</time></trkpt><trkpt lat="-28.698079329784388" lon="114.86410599659551"><ele>202.0</ele><time>2026-04-13T07:11:26.001Z</time></trkpt><trkpt lat="-28.69787991132362" lon="114.86403055297245"><ele>201.0</ele><time>2026-04-13T07:11:27.001Z</time></trkpt><trkpt lat="-28.69766697794718" lon="114.86394449504071"><ele>200.0</ele><time>2026-04-13T07:11:28.001Z</time></trkpt><trkpt lat="-28.697447218848843" lon="114.86385698093724"><ele>200.0</ele><time>2026-04-13T07:11:29.001Z</time></trkpt><trkpt lat="-28.697228051735046" lon="114.86376556494334"><ele>200.0</ele><time>2026-04-13T07:11:30.001Z</time></trkpt><trkpt lat="-28.69701220930516" lon="114.86366775307688"><ele>199.33333333333334</ele><time>2026-04-13T07:11:31.001Z</time></trkpt><trkpt lat="-28.696811886406984" lon="114.86356194692281"><ele>198.66666666666669</ele><time>2026-04-13T07:11:32.001Z</time></trkpt><trkpt lat="-28.69662760750628" lon="114.86344783887536"><ele>198.0</ele><time>2026-04-13T07:11:33.001Z</time></trkpt><trkpt lat="-28.696458811634304" lon="114.8633482264114"><ele>198.33333333333331</ele><time>2026-04-13T07:11:34.001Z</time></trkpt><trkpt lat="-28.696283412886874" lon="114.86327532982735"><ele>198.66666666666666</ele><time>2026-04-13T07:11:35.001Z</time></trkpt><trkpt lat="-28.69609242557426" lon="114.86323417293889"><ele>199.0</ele><time>2026-04-13T07:11:36.001Z</time></trkpt><trkpt lat="-28.69588753159525" lon="114.86321879156674"><ele>199.0</ele><time>2026-04-13T07:11:37.001Z</time></trkpt><trkpt lat="-28.69567515226922" lon="114.86322192493888"><ele>199.0</ele><time>2026-04-13T07:11:38.001Z</time></trkpt><trkpt lat="-28.695452023303595" lon="114.86323184725464"><ele>199.0</ele><time>2026-04-13T07:11:39.001Z</time></trkpt><trkpt lat="-28.695216913486572" lon="114.86323803051259"><ele>201.0</ele><time>2026-04-13T07:11:40.001Z</time></trkpt><trkpt lat="-28.6949702427221" lon="114.86323948162685"><ele>203.0</ele><time>2026-04-13T07:11:41.001Z</time></trkpt><trkpt lat="-28.69471664249196" lon="114.86323606247332"><ele>203.0</ele><time>2026-04-13T07:11:42.001Z</time></trkpt><trkpt lat="-28.694458461464" lon="114.86322996451203"><ele>203.0</ele><time>2026-04-13T07:11:43.001Z</time></trkpt><trkpt lat="-28.694201583269162" lon="114.86322714089141"><ele>207.0</ele><time>2026-04-13T07:11:44.001Z</time></trkpt><trkpt lat="-28.693946665684777" lon="114.86322795742973"><ele>211.0</ele><time>2026-04-13T07:11:45.001Z</time></trkpt><trkpt lat="-28.69368350831032" lon="114.86322969927248"><ele>209.0</ele><time>2026-04-13T07:11:46.001Z</time></trkpt><trkpt lat="-28.693423112935964" lon="114.86323127324827"><ele>207.0</ele><time>2026-04-13T07:11:47.001Z</time></trkpt><trkpt lat="-28.69316323404111" lon="114.86323390551664"><ele>207.0</ele><time>2026-04-13T07:11:48.001Z</time></trkpt><trkpt lat="-28.69290592484719" lon="114.86323686850875"><ele>207.0</ele><time>2026-04-13T07:11:49.001Z</time></trkpt><trkpt lat="-28.692648801246726" lon="114.86323982084313"><ele>204.0</ele><time>2026-04-13T07:11:50.001Z</time></trkpt><trkpt lat="-28.69239145151542" lon="114.86323829580317"><ele>201.0</ele><time>2026-04-13T07:11:51.001Z</time></trkpt><trkpt lat="-28.692136184633835" lon="114.86323369342198"><ele>199.5</ele><time>2026-04-13T07:11:52.001Z</time></trkpt><trkpt lat="-28.691878665543463" lon="114.86323106854027"><ele>198.0</ele><time>2026-04-13T07:11:53.001Z</time></trkpt><trkpt lat="-28.69162255198644" lon="114.86323088230995"><ele>198.0</ele><time>2026-04-13T07:11:54.001Z</time></trkpt><trkpt lat="-28.691365973870354" lon="114.86322973643787"><ele>198.0</ele><time>2026-04-13T07:11:55.001Z</time></trkpt><trkpt lat="-28.691109827201885" lon="114.86322995750352"><ele>197.0</ele><time>2026-04-13T07:11:56.001Z</time></trkpt><trkpt lat="-28.690852169799363" lon="114.86323096513014"><ele>196.0</ele><time>2026-04-13T07:11:57.001Z</time></trkpt><trkpt lat="-28.690594012861105" lon="114.86322906634535"><ele>196.0</ele><time>2026-04-13T07:11:58.001Z</time></trkpt><trkpt lat="-28.690334718935926" lon="114.86322628814247"><ele>196.0</ele><time>2026-04-13T07:11:59.001Z</time></trkpt><trkpt lat="-28.690071974562976" lon="114.86322604445381"><ele>193.0</ele><time>2026-04-13T07:12:00.001Z</time></trkpt><trkpt lat="-28.689808286030026" lon="114.86322752101366"><ele>190.0</ele><time>2026-04-13T07:12:01.001Z</time></trkpt><trkpt lat="-28.689542928655996" lon="114.86322559249969"><ele>190.0</ele><time>2026-04-13T07:12:02.001Z</time></trkpt><trkpt lat="-28.68928162017281" lon="114.86322274925833"><ele>190.0</ele><time>2026-04-13T07:12:03.001Z</time></trkpt><trkpt lat="-28.689022623441563" lon="114.8632209854948"><ele>190.0</ele><time>2026-04-13T07:12:04.001Z</time></trkpt><trkpt lat="-28.688762601410062" lon="114.8632183022679"><ele>190.0</ele><time>2026-04-13T07:12:05.001Z</time></trkpt><trkpt lat="-28.688502543886027" lon="114.86321351576957"><ele>187.5</ele><time>2026-04-13T07:12:06.001Z</time></trkpt><trkpt lat="-28.68825455939982" lon="114.86320750273254"><ele>185.0</ele><time>2026-04-13T07:12:07.001Z</time></trkpt><trkpt lat="-28.688020460145932" lon="114.86320212060747"><ele>185.0</ele><time>2026-04-13T07:12:08.001Z</time></trkpt><trkpt lat="-28.687791909995678" lon="114.86320158664996"><ele>185.0</ele><time>2026-04-13T07:12:09.001Z</time></trkpt><trkpt lat="-28.687573788893033" lon="114.86320056072216"><ele>185.0</ele><time>2026-04-13T07:12:10.001Z</time></trkpt><trkpt lat="-28.68736484548735" lon="114.86319642714022"><ele>185.0</ele><time>2026-04-13T07:12:11.001Z</time></trkpt><trkpt lat="-28.68717184919885" lon="114.86318985860437"><ele>185.0</ele><time>2026-04-13T07:12:12.001Z</time></trkpt><trkpt lat="-28.686996473596132" lon="114.86318238036405"><ele>185.0</ele><time>2026-04-13T07:12:13.001Z</time></trkpt><trkpt lat="-28.68683548751792" lon="114.86316749098921"><ele>185.0</ele><time>2026-04-13T07:12:14.001Z</time></trkpt><trkpt lat="-28.68669102556153" lon="114.86313802564003"><ele>185.0</ele><time>2026-04-13T07:12:15.001Z</time></trkpt><trkpt lat="-28.68655803315182" lon="114.8630856423649"><ele>185.0</ele><time>2026-04-13T07:12:16.001Z</time></trkpt><trkpt lat="-28.686441084291626" lon="114.86300509345534"><ele>185.0</ele><time>2026-04-13T07:12:17.001Z</time></trkpt><trkpt lat="-28.686319091864007" lon="114.86290329802065"><ele>185.0</ele><time>2026-04-13T07:12:18.001Z</time></trkpt><trkpt lat="-28.68618727989777" lon="114.8627702135117"><ele>185.0</ele><time>2026-04-13T07:12:19.001Z</time></trkpt><trkpt lat="-28.686045971474652" lon="114.8626303282694"><ele>185.0</ele><time>2026-04-13T07:12:20.001Z</time></trkpt><trkpt lat="-28.685887575895084" lon="114.86249165102116"><ele>184.33333333333331</ele><time>2026-04-13T07:12:21.001Z</time></trkpt><trkpt lat="-28.68572543014373" lon="114.86235246565977"><ele>183.66666666666666</ele><time>2026-04-13T07:12:22.001Z</time></trkpt><trkpt lat="-28.68556042175399" lon="114.86220851433224"><ele>183.0</ele><time>2026-04-13T07:12:23.001Z</time></trkpt><trkpt lat="-28.68539169628136" lon="114.8620683502188"><ele>182.66666666666666</ele><time>2026-04-13T07:12:24.001Z</time></trkpt><trkpt lat="-28.6852210292887" lon="114.8619335948446"><ele>182.33333333333331</ele><time>2026-04-13T07:12:25.001Z</time></trkpt><trkpt lat="-28.685056451086112" lon="114.86177152878427"><ele>182.0</ele><time>2026-04-13T07:12:26.001Z</time></trkpt><trkpt lat="-28.68487345730723" lon="114.86162319451634"><ele>182.0</ele><time>2026-04-13T07:12:27.001Z</time></trkpt><trkpt lat="-28.684688071700577" lon="114.86148025199239"><ele>182.0</ele><time>2026-04-13T07:12:28.001Z</time></trkpt><trkpt lat="-28.6845063026697" lon="114.86134935385601"><ele>182.0</ele><time>2026-04-13T07:12:29.001Z</time></trkpt><trkpt lat="-28.684312717070988" lon="114.86123434174277"><ele>180.0</ele><time>2026-04-13T07:12:30.001Z</time></trkpt><trkpt lat="-28.684102010215966" lon="114.86114149520455"><ele>178.0</ele><time>2026-04-13T07:12:31.001Z</time></trkpt><trkpt lat="-28.683871682233445" lon="114.86107784374452"><ele>178.0</ele><time>2026-04-13T07:12:32.001Z</time></trkpt><trkpt lat="-28.68363305097944" lon="114.86103261885647"><ele>178.0</ele><time>2026-04-13T07:12:33.001Z</time></trkpt><trkpt lat="-28.683388680011664" lon="114.86098239306205"><ele>181.5</ele><time>2026-04-13T07:12:34.001Z</time></trkpt><trkpt lat="-28.6831441612164" lon="114.86093477524925"><ele>185.0</ele><time>2026-04-13T07:12:35.001Z</time></trkpt><trkpt lat="-28.682914518563813" lon="114.86089055862239"><ele>183.66666666666666</ele><time>2026-04-13T07:12:36.001Z</time></trkpt><trkpt lat="-28.68269498940613" lon="114.86084879776945"><ele>182.33333333333334</ele><time>2026-04-13T07:12:37.001Z</time></trkpt><trkpt lat="-28.682489693591144" lon="114.86078982445389"><ele>181.0</ele><time>2026-04-13T07:12:38.001Z</time></trkpt><trkpt lat="-28.682278394447888" lon="114.8607454368379"><ele>181.0</ele><time>2026-04-13T07:12:39.001Z</time></trkpt><trkpt lat="-28.682063064270945" lon="114.86071788237962"><ele>181.0</ele><time>2026-04-13T07:12:40.001Z</time></trkpt><trkpt lat="-28.681856461796688" lon="114.86067548841407"><ele>181.0</ele><time>2026-04-13T07:12:41.001Z</time></trkpt><trkpt lat="-28.68165972210345" lon="114.86063758971163"><ele>179.33333333333334</ele><time>2026-04-13T07:12:42.001Z</time></trkpt><trkpt lat="-28.681465718953206" lon="114.86059862852636"><ele>177.66666666666666</ele><time>2026-04-13T07:12:43.001Z</time></trkpt><trkpt lat="-28.681268157221044" lon="114.86054739312493"><ele>176.0</ele><time>2026-04-13T07:12:44.001Z</time></trkpt><trkpt lat="-28.681063118327717" lon="114.86048622873312"><ele>174.33333333333331</ele><time>2026-04-13T07:12:45.001Z</time></trkpt><trkpt lat="-28.680856020069513" lon="114.8604148027225"><ele>172.66666666666666</ele><time>2026-04-13T07:12:46.001Z</time></trkpt><trkpt lat="-28.680653375956478" lon="114.86032516793509"><ele>171.0</ele><time>2026-04-13T07:12:47.001Z</time></trkpt><trkpt lat="-28.68043690939624" lon="114.86021974684107"><ele>169.5</ele><time>2026-04-13T07:12:48.001Z</time></trkpt><trkpt lat="-28.68021938917289" lon="114.86010010816615"><ele>168.0</ele><time>2026-04-13T07:12:49.001Z</time></trkpt><trkpt lat="-28.680008396987674" lon="114.8599827960845"><ele>168.0</ele><time>2026-04-13T07:12:50.001Z</time></trkpt><trkpt lat="-28.679803688172484" lon="114.85987181093503"><ele>168.0</ele><time>2026-04-13T07:12:51.001Z</time></trkpt><trkpt lat="-28.679599590098743" lon="114.85976078791126"><ele>168.33333333333334</ele><time>2026-04-13T07:12:52.001Z</time></trkpt><trkpt lat="-28.67940223412489" lon="114.85964974800689"><ele>168.66666666666669</ele><time>2026-04-13T07:12:53.001Z</time></trkpt><trkpt lat="-28.67921207936743" lon="114.85952227870084"><ele>169.0</ele><time>2026-04-13T07:12:54.001Z</time></trkpt><trkpt lat="-28.67901435119289" lon="114.85941408866994"><ele>169.0</ele><time>2026-04-13T07:12:55.001Z</time></trkpt><trkpt lat="-28.678798103411967" lon="114.8593141032214"><ele>169.0</ele><time>2026-04-13T07:12:56.001Z</time></trkpt><trkpt lat="-28.678571136461745" lon="114.85922300149434"><ele>164.0</ele><time>2026-04-13T07:12:57.001Z</time></trkpt><trkpt lat="-28.678333672063356" lon="114.85914195564519"><ele>159.0</ele><time>2026-04-13T07:12:58.001Z</time></trkpt><trkpt lat="-28.67809022280259" lon="114.85907228491541"><ele>159.0</ele><time>2026-04-13T07:12:59.001Z</time></trkpt><trkpt lat="-28.677849114888254" lon="114.85902064137757"><ele>159.0</ele><time>2026-04-13T07:13:00.001Z</time></trkpt><trkpt lat="-28.677598833042133" lon="114.85900144494741"><ele>160.0</ele><time>2026-04-13T07:13:01.001Z</time></trkpt><trkpt lat="-28.677351583982816" lon="114.8589727183487"><ele>161.0</ele><time>2026-04-13T07:13:02.001Z</time></trkpt><trkpt lat="-28.677111007216368" lon="114.85893047740656"><ele>161.0</ele><time>2026-04-13T07:13:03.001Z</time></trkpt><trkpt lat="-28.67687244775391" lon="114.85890863513852"><ele>161.0</ele><time>2026-04-13T07:13:04.001Z</time></trkpt><trkpt lat="-28.676652195768558" lon="114.85889864017857"><ele>161.0</ele><time>2026-04-13T07:13:05.001Z</time></trkpt><trkpt lat="-28.676455067646472" lon="114.85885085010416"><ele>161.0</ele><time>2026-04-13T07:13:06.001Z</time></trkpt><trkpt lat="-28.67627259857676" lon="114.85878811612143"><ele>161.0</ele><time>2026-04-13T07:13:07.001Z</time></trkpt><trkpt lat="-28.676112337360507" lon="114.85868912584222"><ele>161.33333333333331</ele><time>2026-04-13T07:13:08.001Z</time></trkpt><trkpt lat="-28.675958130234047" lon="114.85859449206475"><ele>161.66666666666666</ele><time>2026-04-13T07:13:09.001Z</time></trkpt><trkpt lat="-28.675788956142707" lon="114.8584703470812"><ele>162.0</ele><time>2026-04-13T07:13:10.001Z</time></trkpt><trkpt lat="-28.6755940865012" lon="114.85833171493282"><ele>162.0</ele><time>2026-04-13T07:13:11.001Z</time></trkpt><trkpt lat="-28.675407911232217" lon="114.85814289965248"><ele>162.0</ele><time>2026-04-13T07:13:12.001Z</time></trkpt><trkpt lat="-28.67519264637462" lon="114.85796369406644"><ele>160.5</ele><time>2026-04-13T07:13:13.001Z</time></trkpt><trkpt lat="-28.674990049421197" lon="114.85775791822127"><ele>159.0</ele><time>2026-04-13T07:13:14.001Z</time></trkpt><trkpt lat="-28.674799291688743" lon="114.85756487686442"><ele>156.5</ele><time>2026-04-13T07:13:15.001Z</time></trkpt><trkpt lat="-28.67461717162404" lon="114.85739328118682"><ele>154.0</ele><time>2026-04-13T07:13:16.001Z</time></trkpt><trkpt lat="-28.67445210490513" lon="114.85720732596045"><ele>153.5</ele><time>2026-04-13T07:13:17.001Z</time></trkpt><trkpt lat="-28.674271683266806" lon="114.85703693260868"><ele>153.0</ele><time>2026-04-13T07:13:18.001Z</time></trkpt><trkpt lat="-28.67408759945665" lon="114.85686424671371"><ele>152.0</ele><time>2026-04-13T07:13:19.001Z</time></trkpt><trkpt lat="-28.673899741925034" lon="114.85668873558546"><ele>151.0</ele><time>2026-04-13T07:13:20.001Z</time></trkpt><trkpt lat="-28.673696187490997" lon="114.8565176314417"><ele>150.0</ele><time>2026-04-13T07:13:21.001Z</time></trkpt><trkpt lat="-28.67349603200945" lon="114.85633047604749"><ele>149.0</ele><time>2026-04-13T07:13:22.001Z</time></trkpt><trkpt lat="-28.673302731125712" lon="114.85612313514987"><ele>148.0</ele><time>2026-04-13T07:13:23.001Z</time></trkpt><trkpt lat="-28.673099857564956" lon="114.85592779007409"><ele>147.0</ele><time>2026-04-13T07:13:24.001Z</time></trkpt><trkpt lat="-28.67289516295758" lon="114.85573024164896"><ele>146.0</ele><time>2026-04-13T07:13:25.001Z</time></trkpt><trkpt lat="-28.672689807617733" lon="114.8555337965124"><ele>145.0</ele><time>2026-04-13T07:13:26.001Z</time></trkpt><trkpt lat="-28.67249340722597" lon="114.85534544389526"><ele>145.0</ele><time>2026-04-13T07:13:27.001Z</time></trkpt><trkpt lat="-28.672307389597663" lon="114.85516772625625"><ele>145.0</ele><time>2026-04-13T07:13:28.001Z</time></trkpt><trkpt lat="-28.672133650933123" lon="114.85500097649343"><ele>144.66666666666669</ele><time>2026-04-13T07:13:29.001Z</time></trkpt><trkpt lat="-28.671964126475945" lon="114.85483835639357"><ele>144.33333333333334</ele><time>2026-04-13T07:13:30.001Z</time></trkpt><trkpt lat="-28.671792346825598" lon="114.85467357289747"><ele>144.0</ele><time>2026-04-13T07:13:31.001Z</time></trkpt><trkpt lat="-28.671616714797597" lon="114.85450490022409"><ele>142.5</ele><time>2026-04-13T07:13:32.001Z</time></trkpt><trkpt lat="-28.671438089468122" lon="114.85433185882984"><ele>141.0</ele><time>2026-04-13T07:13:33.001Z</time></trkpt><trkpt lat="-28.67126044608717" lon="114.85416077722212"><ele>138.5</ele><time>2026-04-13T07:13:34.001Z</time></trkpt><trkpt lat="-28.67107861554552" lon="114.8539856626244"><ele>136.0</ele><time>2026-04-13T07:13:35.001Z</time></trkpt><trkpt lat="-28.670893615645404" lon="114.85380749572748"><ele>136.0</ele><time>2026-04-13T07:13:36.001Z</time></trkpt><trkpt lat="-28.670684516523842" lon="114.85364851326207"><ele>136.0</ele><time>2026-04-13T07:13:37.001Z</time></trkpt><trkpt lat="-28.670484113286903" lon="114.85346712777815"><ele>135.5</ele><time>2026-04-13T07:13:38.001Z</time></trkpt><trkpt lat="-28.670278954231648" lon="114.8532907024471"><ele>135.0</ele><time>2026-04-13T07:13:39.001Z</time></trkpt><trkpt lat="-28.67006369123087" lon="114.85312067239371"><ele>135.0</ele><time>2026-04-13T07:13:40.001Z</time></trkpt><trkpt lat="-28.669838356583696" lon="114.85296110807256"><ele>135.0</ele><time>2026-04-13T07:13:41.001Z</time></trkpt><trkpt lat="-28.669607114537744" lon="114.852803750183"><ele>133.5</ele><time>2026-04-13T07:13:42.001Z</time></trkpt><trkpt lat="-28.66937901615857" lon="114.85264480948747"><ele>132.0</ele><time>2026-04-13T07:13:43.001Z</time></trkpt><trkpt lat="-28.66914969211358" lon="114.85248188960368"><ele>132.0</ele><time>2026-04-13T07:13:44.001Z</time></trkpt><trkpt lat="-28.668919598085967" lon="114.85231639101936"><ele>132.0</ele><time>2026-04-13T07:13:45.001Z</time></trkpt><trkpt lat="-28.6686894290071" lon="114.85215294655927"><ele>131.0</ele><time>2026-04-13T07:13:46.001Z</time></trkpt><trkpt lat="-28.66845982680408" lon="114.85199030341002"><ele>130.0</ele><time>2026-04-13T07:13:47.001Z</time></trkpt><trkpt lat="-28.668230243964597" lon="114.85183050068565"><ele>130.0</ele><time>2026-04-13T07:13:48.001Z</time></trkpt><trkpt lat="-28.667998489782967" lon="114.85167129357065"><ele>130.0</ele><time>2026-04-13T07:13:49.001Z</time></trkpt><trkpt lat="-28.667766000164306" lon="114.85150895197782"><ele>130.0</ele><time>2026-04-13T07:13:50.001Z</time></trkpt><trkpt lat="-28.66753736648494" lon="114.85134695191212"><ele>130.0</ele><time>2026-04-13T07:13:51.001Z</time></trkpt><trkpt lat="-28.667308754255245" lon="114.85118648794662"><ele>130.0</ele><time>2026-04-13T07:13:52.001Z</time></trkpt><trkpt lat="-28.667079746456075" lon="114.85102713006567"><ele>130.0</ele><time>2026-04-13T07:13:53.001Z</time></trkpt><trkpt lat="-28.666848023947537" lon="114.8508661075964"><ele>129.5</ele><time>2026-04-13T07:13:54.001Z</time></trkpt><trkpt lat="-28.66661447296507" lon="114.85070340224524"><ele>129.0</ele><time>2026-04-13T07:13:55.001Z</time></trkpt><trkpt lat="-28.66638121550085" lon="114.85054119741062"><ele>129.0</ele><time>2026-04-13T07:13:56.001Z</time></trkpt><trkpt lat="-28.666147074545716" lon="114.85037999653234"><ele>129.0</ele><time>2026-04-13T07:13:57.001Z</time></trkpt><trkpt lat="-28.66591123790673" lon="114.85021843904654"><ele>126.5</ele><time>2026-04-13T07:13:58.001Z</time></trkpt><trkpt lat="-28.665677761605156" lon="114.8500594301597"><ele>124.0</ele><time>2026-04-13T07:13:59.001Z</time></trkpt><trkpt lat="-28.665451114815557" lon="114.84990320211288"><ele>123.5</ele><time>2026-04-13T07:14:00.001Z</time></trkpt><trkpt lat="-28.66523069351405" lon="114.84975185633475"><ele>123.0</ele><time>2026-04-13T07:14:01.001Z</time></trkpt><trkpt lat="-28.665012580364763" lon="114.84960445058124"><ele>123.0</ele><time>2026-04-13T07:14:02.001Z</time></trkpt><trkpt lat="-28.66479170927276" lon="114.8494683326372"><ele>123.0</ele><time>2026-04-13T07:14:03.001Z</time></trkpt><trkpt lat="-28.66455862752996" lon="114.84934422994083"><ele>122.5</ele><time>2026-04-13T07:14:04.001Z</time></trkpt><trkpt lat="-28.664315531492225" lon="114.84923042099294"><ele>122.0</ele><time>2026-04-13T07:14:05.001Z</time></trkpt><trkpt lat="-28.66406514560747" lon="114.84912579557866"><ele>122.0</ele><time>2026-04-13T07:14:06.001Z</time></trkpt><trkpt lat="-28.663809275288326" lon="114.84902670066678"><ele>122.0</ele><time>2026-04-13T07:14:07.001Z</time></trkpt><trkpt lat="-28.663552874857686" lon="114.848927293069"><ele>120.0</ele><time>2026-04-13T07:14:08.001Z</time></trkpt><trkpt lat="-28.663296442949537" lon="114.8488248446564"><ele>118.0</ele><time>2026-04-13T07:14:09.001Z</time></trkpt><trkpt lat="-28.663042688405245" lon="114.84871782288712"><ele>118.0</ele><time>2026-04-13T07:14:10.001Z</time></trkpt><trkpt lat="-28.66279297981727" lon="114.84861375685183"><ele>118.0</ele><time>2026-04-13T07:14:11.001Z</time></trkpt><trkpt lat="-28.662550582584917" lon="114.8485155625483"><ele>120.0</ele><time>2026-04-13T07:14:12.001Z</time></trkpt><trkpt lat="-28.66231448242956" lon="114.84842237012103"><ele>122.0</ele><time>2026-04-13T07:14:13.001Z</time></trkpt><trkpt lat="-28.66208066724606" lon="114.84832738661483"><ele>121.0</ele><time>2026-04-13T07:14:14.001Z</time></trkpt><trkpt lat="-28.661851977084943" lon="114.84823257417774"><ele>120.0</ele><time>2026-04-13T07:14:15.001Z</time></trkpt><trkpt lat="-28.661635644696698" lon="114.84814656921"><ele>120.0</ele><time>2026-04-13T07:14:16.001Z</time></trkpt><trkpt lat="-28.66143213748664" lon="114.84806704609662"><ele>120.0</ele><time>2026-04-13T07:14:17.001Z</time></trkpt><trkpt lat="-28.661234070254615" lon="114.84798863265065"><ele>120.0</ele><time>2026-04-13T07:14:18.001Z</time></trkpt><trkpt lat="-28.661037559793343" lon="114.84790615834004"><ele>119.66666666666666</ele><time>2026-04-13T07:14:19.001Z</time></trkpt><trkpt lat="-28.660843299666105" lon="114.84781982131133"><ele>119.33333333333333</ele><time>2026-04-13T07:14:20.001Z</time></trkpt><trkpt lat="-28.660666597336125" lon="114.8477333071812"><ele>119.0</ele><time>2026-04-13T07:14:21.001Z</time></trkpt><trkpt lat="-28.66050369180604" lon="114.84764310713506"><ele>119.0</ele><time>2026-04-13T07:14:22.001Z</time></trkpt><trkpt lat="-28.660350420108827" lon="114.84754896810334"><ele>119.0</ele><time>2026-04-13T07:14:23.001Z</time></trkpt><trkpt lat="-28.660206207491537" lon="114.8474571969403"><ele>119.0</ele><time>2026-04-13T07:14:24.001Z</time></trkpt><trkpt lat="-28.660067355763516" lon="114.84736028140415"><ele>119.0</ele><time>2026-04-13T07:14:25.001Z</time></trkpt><trkpt lat="-28.659942063758695" lon="114.84726882816798"><ele>119.0</ele><time>2026-04-13T07:14:26.001Z</time></trkpt><trkpt lat="-28.659818252540735" lon="114.84718010214335"><ele>119.0</ele><time>2026-04-13T07:14:27.001Z</time></trkpt><trkpt lat="-28.65969862207397" lon="114.84709750756753"><ele>119.0</ele><time>2026-04-13T07:14:28.001Z</time></trkpt><trkpt lat="-28.659586263761266" lon="114.84701942795704"><ele>118.99999999999999</ele><time>2026-04-13T07:14:29.001Z</time></trkpt><trkpt lat="-28.659489088227264" lon="114.846949215303"><ele>119.0</ele><time>2026-04-13T07:14:30.001Z</time></trkpt><trkpt lat="-28.659414445650008" lon="114.846893328296"><ele>119.0</ele><time>2026-04-13T07:14:31.001Z</time></trkpt><trkpt lat="-28.659358504950095" lon="114.84684872476937"><ele>119.0</ele><time>2026-04-13T07:14:32.001Z</time></trkpt><trkpt lat="-28.659285796981077" lon="114.84681454126216"><ele>118.99999999999999</ele><time>2026-04-13T07:14:34.001Z</time></trkpt><trkpt lat="-28.65918966764402" lon="114.84683394386569"><ele>119.0</ele><time>2026-04-13T07:14:36.001Z</time></trkpt><trkpt lat="-28.659131896013918" lon="114.84688255336954"><ele>118.4</ele><time>2026-04-13T07:14:37.001Z</time></trkpt><trkpt lat="-28.659087879713876" lon="114.84696627507357"><ele>117.80000000000001</ele><time>2026-04-13T07:14:38.001Z</time></trkpt><trkpt lat="-28.659042996516643" lon="114.84708030357616"><ele>117.19999999999999</ele><time>2026-04-13T07:14:39.001Z</time></trkpt><trkpt lat="-28.658991624789" lon="114.84720215874063"><ele>116.6</ele><time>2026-04-13T07:14:40.001Z</time></trkpt><trkpt lat="-28.658933228567786" lon="114.84732981202981"><ele>116.0</ele><time>2026-04-13T07:14:41.001Z</time></trkpt><trkpt lat="-28.658860581874922" lon="114.84747731134242"><ele>116.0</ele><time>2026-04-13T07:14:42.001Z</time></trkpt><trkpt lat="-28.658786036358226" lon="114.8476255248296"><ele>116.0</ele><time>2026-04-13T07:14:43.001Z</time></trkpt><trkpt lat="-28.65871539721553" lon="114.84777234261803"><ele>116.0</ele><time>2026-04-13T07:14:44.001Z</time></trkpt><trkpt lat="-28.658643407217735" lon="114.84791688904751"><ele>116.0</ele><time>2026-04-13T07:14:45.001Z</time></trkpt><trkpt lat="-28.658559769138666" lon="114.8480500336987"><ele>116.0</ele><time>2026-04-13T07:14:46.001Z</time></trkpt><trkpt lat="-28.658466378211916" lon="114.84815444964363"><ele>116.0</ele><time>2026-04-13T07:14:47.001Z</time></trkpt><trkpt lat="-28.658365384454175" lon="114.84822573262564"><ele>116.0</ele><time>2026-04-13T07:14:48.001Z</time></trkpt><trkpt lat="-28.658259951127558" lon="114.84825798677414"><ele>116.0</ele><time>2026-04-13T07:14:49.001Z</time></trkpt><trkpt lat="-28.658149416705157" lon="114.84824452017584"><ele>116.0</ele><time>2026-04-13T07:14:50.001Z</time></trkpt><trkpt lat="-28.65803708916344" lon="114.84819834985524"><ele>116.0</ele><time>2026-04-13T07:14:51.001Z</time></trkpt><trkpt lat="-28.657931895469634" lon="114.84811602302572"><ele>116.0</ele><time>2026-04-13T07:14:52.001Z</time></trkpt><trkpt lat="-28.657831576760884" lon="114.84802666561347"><ele>116.0</ele><time>2026-04-13T07:14:53.001Z</time></trkpt><trkpt lat="-28.657725843900725" lon="114.84791353423921"><ele>116.66666666666666</ele><time>2026-04-13T07:14:54.001Z</time></trkpt><trkpt lat="-28.657608273595493" lon="114.84777693976848"><ele>117.33333333333334</ele><time>2026-04-13T07:14:55.001Z</time></trkpt><trkpt lat="-28.657478147379194" lon="114.84761676050064"><ele>118.0</ele><time>2026-04-13T07:14:56.001Z</time></trkpt><trkpt lat="-28.657338736164274" lon="114.8474563124023"><ele>118.0</ele><time>2026-04-13T07:14:57.001Z</time></trkpt><trkpt lat="-28.657197687130854" lon="114.84730501729763"><ele>118.0</ele><time>2026-04-13T07:14:58.001Z</time></trkpt><trkpt lat="-28.657055914336656" lon="114.84715647754594"><ele>118.0</ele><time>2026-04-13T07:14:59.001Z</time></trkpt><trkpt lat="-28.656916864191412" lon="114.84700799846621"><ele>117.66666666666667</ele><time>2026-04-13T07:15:00.001Z</time></trkpt><trkpt lat="-28.6567769209143" lon="114.84686049974057"><ele>117.33333333333334</ele><time>2026-04-13T07:15:01.001Z</time></trkpt><trkpt lat="-28.656642215739296" lon="114.84671554346967"><ele>117.0</ele><time>2026-04-13T07:15:02.001Z</time></trkpt><trkpt lat="-28.65651086797623" lon="114.84658425617005"><ele>117.0</ele><time>2026-04-13T07:15:03.001Z</time></trkpt><trkpt lat="-28.656365981129863" lon="114.84646864714755"><ele>117.0</ele><time>2026-04-13T07:15:04.001Z</time></trkpt><trkpt lat="-28.656198609559738" lon="114.84637015772819"><ele>117.0</ele><time>2026-04-13T07:15:05.001Z</time></trkpt><trkpt lat="-28.65600914878589" lon="114.84629739970605"><ele>118.33333333333334</ele><time>2026-04-13T07:15:06.001Z</time></trkpt><trkpt lat="-28.655794281325033" lon="114.84625175153107"><ele>119.66666666666667</ele><time>2026-04-13T07:15:07.001Z</time></trkpt><trkpt lat="-28.655566150179595" lon="114.84622394889463"><ele>121.0</ele><time>2026-04-13T07:15:08.001Z</time></trkpt><trkpt lat="-28.655322571272542" lon="114.84621209123287"><ele>121.0</ele><time>2026-04-13T07:15:09.001Z</time></trkpt><trkpt lat="-28.655074800080925" lon="114.84621313546813"><ele>121.0</ele><time>2026-04-13T07:15:10.001Z</time></trkpt><trkpt lat="-28.65482839130889" lon="114.84621603691801"><ele>121.0</ele><time>2026-04-13T07:15:11.001Z</time></trkpt><trkpt lat="-28.654577505831046" lon="114.8462144025813"><ele>121.0</ele><time>2026-04-13T07:15:12.001Z</time></trkpt><trkpt lat="-28.654323024060425" lon="114.84621137254675"><ele>122.0</ele><time>2026-04-13T07:15:13.001Z</time></trkpt><trkpt lat="-28.65406601882907" lon="114.84620584785468"><ele>123.0</ele><time>2026-04-13T07:15:14.001Z</time></trkpt><trkpt lat="-28.653800932645453" lon="114.84619783669173"><ele>124.5</ele><time>2026-04-13T07:15:15.001Z</time></trkpt><trkpt lat="-28.653538553640992" lon="114.84618817250072"><ele>126.0</ele><time>2026-04-13T07:15:16.001Z</time></trkpt><trkpt lat="-28.653273116941186" lon="114.84618032602211"><ele>126.0</ele><time>2026-04-13T07:15:17Z</time></trkpt><trkpt lat="-28.653017101872532" lon="114.84617559090154"><ele>126.0</ele><time>2026-04-13T07:15:18Z</time></trkpt><trkpt lat="-28.65277391602563" lon="114.84617298007643"><ele>127.33333333333334</ele><time>2026-04-13T07:15:19Z</time></trkpt><trkpt lat="-28.652546427003845" lon="114.84617020590817"><ele>128.66666666666669</ele><time>2026-04-13T07:15:20Z</time></trkpt><trkpt lat="-28.652331821619274" lon="114.84616823082499"><ele>130.0</ele><time>2026-04-13T07:15:21Z</time></trkpt><trkpt lat="-28.652128356907753" lon="114.84617153780287"><ele>131.0</ele><time>2026-04-13T07:15:22Z</time></trkpt><trkpt lat="-28.651936676981105" lon="114.846187083896"><ele>132.0</ele><time>2026-04-13T07:15:23Z</time></trkpt><trkpt lat="-28.65175499431001" lon="114.84621977718962"><ele>133.0</ele><time>2026-04-13T07:15:24Z</time></trkpt><trkpt lat="-28.651582654029724" lon="114.84626964067955"><ele>133.0</ele><time>2026-04-13T07:15:25Z</time></trkpt><trkpt lat="-28.651415448470694" lon="114.8463434758591"><ele>133.0</ele><time>2026-04-13T07:15:26Z</time></trkpt><trkpt lat="-28.65125440463812" lon="114.84644943654364"><ele>133.0</ele><time>2026-04-13T07:15:27Z</time></trkpt><trkpt lat="-28.651106970553236" lon="114.84658390330316"><ele>133.0</ele><time>2026-04-13T07:15:28Z</time></trkpt><trkpt lat="-28.65097522007834" lon="114.84673784512768"><ele>133.0</ele><time>2026-04-13T07:15:29Z</time></trkpt><trkpt lat="-28.65086462033487" lon="114.84691436230871"><ele>133.0</ele><time>2026-04-13T07:15:30Z</time></trkpt><trkpt lat="-28.650775248486156" lon="114.84711201839059"><ele>133.0</ele><time>2026-04-13T07:15:31Z</time></trkpt><trkpt lat="-28.65070859185088" lon="114.84732099036198"><ele>133.0</ele><time>2026-04-13T07:15:32Z</time></trkpt><trkpt lat="-28.650665134725052" lon="114.84753876343642"><ele>133.0</ele><time>2026-04-13T07:15:33Z</time></trkpt><trkpt lat="-28.650650605157765" lon="114.84776985539844"><ele>133.0</ele><time>2026-04-13T07:15:34Z</time></trkpt><trkpt lat="-28.65065453547914" lon="114.84801216543926"><ele>133.0</ele><time>2026-04-13T07:15:35Z</time></trkpt><trkpt lat="-28.650673385110963" lon="114.84827004574043"><ele>133.0</ele><time>2026-04-13T07:15:36Z</time></trkpt><trkpt lat="-28.650710420748098" lon="114.84854078874483"><ele>132.5</ele><time>2026-04-13T07:15:37Z</time></trkpt><trkpt lat="-28.65075167468608" lon="114.84881166222493"><ele>132.0</ele><time>2026-04-13T07:15:38Z</time></trkpt><trkpt lat="-28.650793646197187" lon="114.84908730726134"><ele>132.5</ele><time>2026-04-13T07:15:39Z</time></trkpt><trkpt lat="-28.650831838433916" lon="114.84936100119731"><ele>133.0</ele><time>2026-04-13T07:15:40Z</time></trkpt><trkpt lat="-28.650868430778445" lon="114.84962988760306"><ele>133.0</ele><time>2026-04-13T07:15:41Z</time></trkpt><trkpt lat="-28.650903628826608" lon="114.84990209547244"><ele>133.0</ele><time>2026-04-13T07:15:42Z</time></trkpt><trkpt lat="-28.650939160468184" lon="114.85017709957548"><ele>134.0</ele><time>2026-04-13T07:15:43Z</time></trkpt><trkpt lat="-28.650975393854313" lon="114.85045031174596"><ele>135.0</ele><time>2026-04-13T07:15:44Z</time></trkpt><trkpt lat="-28.65101364530754" lon="114.85072129815612"><ele>134.5</ele><time>2026-04-13T07:15:45Z</time></trkpt><trkpt lat="-28.65105204796324" lon="114.85099144438782"><ele>134.0</ele><time>2026-04-13T07:15:46Z</time></trkpt><trkpt lat="-28.651089825785483" lon="114.8512603311821"><ele>134.5</ele><time>2026-04-13T07:15:47Z</time></trkpt><trkpt lat="-28.651124253566575" lon="114.85152751398373"><ele>135.0</ele><time>2026-04-13T07:15:48Z</time></trkpt><trkpt lat="-28.651158344605943" lon="114.85178970201788"><ele>133.5</ele><time>2026-04-13T07:15:49Z</time></trkpt><trkpt lat="-28.651194964113067" lon="114.85204950142823"><ele>132.0</ele><time>2026-04-13T07:15:50Z</time></trkpt><trkpt lat="-28.65123359089172" lon="114.8523145972559"><ele>132.0</ele><time>2026-04-13T07:15:51Z</time></trkpt><trkpt lat="-28.651268706156426" lon="114.85257008579654"><ele>132.0</ele><time>2026-04-13T07:15:52Z</time></trkpt><trkpt lat="-28.651297185884204" lon="114.85280902281025"><ele>132.0</ele><time>2026-04-13T07:15:53Z</time></trkpt><trkpt lat="-28.651326508220425" lon="114.85304077673365"><ele>131.66666666666666</ele><time>2026-04-13T07:15:54Z</time></trkpt><trkpt lat="-28.65135433414188" lon="114.85327601977751"><ele>131.33333333333331</ele><time>2026-04-13T07:15:55Z</time></trkpt><trkpt lat="-28.651372628662795" lon="114.8535175504964"><ele>131.0</ele><time>2026-04-13T07:15:56Z</time></trkpt><trkpt lat="-28.651373505294316" lon="114.85375833282453"><ele>128.0</ele><time>2026-04-13T07:15:57Z</time></trkpt><trkpt lat="-28.65135628463374" lon="114.85401367989436"><ele>125.0</ele><time>2026-04-13T07:15:58Z</time></trkpt><trkpt lat="-28.651313137947177" lon="114.85427287808184"><ele>124.5</ele><time>2026-04-13T07:15:59Z</time></trkpt><trkpt lat="-28.65124888409931" lon="114.85454090457412"><ele>124.0</ele><time>2026-04-13T07:16:00Z</time></trkpt><trkpt lat="-28.6511684772656" lon="114.85481391103968"><ele>122.5</ele><time>2026-04-13T07:16:01Z</time></trkpt><trkpt lat="-28.651079700192973" lon="114.85509030061483"><ele>121.0</ele><time>2026-04-13T07:16:02Z</time></trkpt><trkpt lat="-28.650994027033008" lon="114.8553654912818"><ele>120.5</ele><time>2026-04-13T07:16:03Z</time></trkpt><trkpt lat="-28.65090959868877" lon="114.85564796036846"><ele>120.0</ele><time>2026-04-13T07:16:04Z</time></trkpt><trkpt lat="-28.650827704733402" lon="114.8559328629197"><ele>120.0</ele><time>2026-04-13T07:16:05Z</time></trkpt><trkpt lat="-28.650744854580104" lon="114.85621720666136"><ele>120.0</ele><time>2026-04-13T07:16:06Z</time></trkpt><trkpt lat="-28.65066042165022" lon="114.85650080319138"><ele>120.0</ele><time>2026-04-13T07:16:07Z</time></trkpt><trkpt lat="-28.65057256654325" lon="114.856783351231"><ele>120.0</ele><time>2026-04-13T07:16:08Z</time></trkpt><trkpt lat="-28.650485350091614" lon="114.85706848619698"><ele>120.5</ele><time>2026-04-13T07:16:09Z</time></trkpt><trkpt lat="-28.65039953131195" lon="114.8573550569004"><ele>121.0</ele><time>2026-04-13T07:16:10Z</time></trkpt><trkpt lat="-28.65031355123778" lon="114.85764501822196"><ele>121.0</ele><time>2026-04-13T07:16:11Z</time></trkpt><trkpt lat="-28.650225816470712" lon="114.85793534072349"><ele>121.0</ele><time>2026-04-13T07:16:12Z</time></trkpt><trkpt lat="-28.650135091635292" lon="114.85822351204409"><ele>121.0</ele><time>2026-04-13T07:16:13.001Z</time></trkpt><trkpt lat="-28.65004270574983" lon="114.85851180344007"><ele>121.0</ele><time>2026-04-13T07:16:14.001Z</time></trkpt><trkpt lat="-28.64994924537597" lon="114.85879936127742"><ele>121.0</ele><time>2026-04-13T07:16:15.001Z</time></trkpt><trkpt lat="-28.649863021455893" lon="114.85907385937723"><ele>121.0</ele><time>2026-04-13T07:16:16.001Z</time></trkpt><trkpt lat="-28.649780369086233" lon="114.85932747567398"><ele>120.33333333333334</ele><time>2026-04-13T07:16:17.001Z</time></trkpt><trkpt lat="-28.64969445604542" lon="114.85955999585927"><ele>119.66666666666666</ele><time>2026-04-13T07:16:18.001Z</time></trkpt><trkpt lat="-28.649591675010416" lon="114.8597849456631"><ele>119.0</ele><time>2026-04-13T07:16:19.001Z</time></trkpt><trkpt lat="-28.649472949199335" lon="114.86000048271246"><ele>120.33333333333333</ele><time>2026-04-13T07:16:20.001Z</time></trkpt><trkpt lat="-28.649338819486886" lon="114.8602012945336"><ele>121.66666666666666</ele><time>2026-04-13T07:16:21.001Z</time></trkpt><trkpt lat="-28.649187840498072" lon="114.86038951967915"><ele>123.0</ele><time>2026-04-13T07:16:22.001Z</time></trkpt><trkpt lat="-28.649012127372707" lon="114.86057569823944"><ele>123.0</ele><time>2026-04-13T07:16:23.001Z</time></trkpt><trkpt lat="-28.64882626885888" lon="114.86076705823007"><ele>123.0</ele><time>2026-04-13T07:16:24.001Z</time></trkpt><trkpt lat="-28.64864568057819" lon="114.86096424286127"><ele>123.5</ele><time>2026-04-13T07:16:25.001Z</time></trkpt><trkpt lat="-28.648464378525922" lon="114.86117103384022"><ele>124.0</ele><time>2026-04-13T07:16:26.001Z</time></trkpt><trkpt lat="-28.648274040822972" lon="114.86138276390203"><ele>124.0</ele><time>2026-04-13T07:16:27.001Z</time></trkpt><trkpt lat="-28.648084584850565" lon="114.86159452127023"><ele>124.0</ele><time>2026-04-13T07:16:28.001Z</time></trkpt><trkpt lat="-28.6478919304337" lon="114.86181261072947"><ele>124.0</ele><time>2026-04-13T07:16:29.001Z</time></trkpt><trkpt lat="-28.647697169374645" lon="114.8620366173994"><ele>124.0</ele><time>2026-04-13T07:16:30.001Z</time></trkpt><trkpt lat="-28.64750167118074" lon="114.86226108125962"><ele>124.0</ele><time>2026-04-13T07:16:31.001Z</time></trkpt><trkpt lat="-28.647303834666417" lon="114.86248610534044"><ele>124.0</ele><time>2026-04-13T07:16:32.001Z</time></trkpt><trkpt lat="-28.647105842118055" lon="114.86271056167355"><ele>126.0</ele><time>2026-04-13T07:16:33.001Z</time></trkpt><trkpt lat="-28.64690434769356" lon="114.8629348538381"><ele>128.0</ele><time>2026-04-13T07:16:34.001Z</time></trkpt><trkpt lat="-28.64669953854298" lon="114.8631574152799"><ele>128.0</ele><time>2026-04-13T07:16:35.001Z</time></trkpt><trkpt lat="-28.64649275423785" lon="114.86337841542556"><ele>128.0</ele><time>2026-04-13T07:16:36.001Z</time></trkpt><trkpt lat="-28.646285767972348" lon="114.86360090156182"><ele>130.5</ele><time>2026-04-13T07:16:37.001Z</time></trkpt><trkpt lat="-28.64608118103576" lon="114.86381609435831"><ele>133.0</ele><time>2026-04-13T07:16:38.001Z</time></trkpt><trkpt lat="-28.645879440684013" lon="114.86400453472713"><ele>133.0</ele><time>2026-04-13T07:16:39.001Z</time></trkpt><trkpt lat="-28.64566723023337" lon="114.86415870244767"><ele>133.0</ele><time>2026-04-13T07:16:40.001Z</time></trkpt><trkpt lat="-28.645441137782655" lon="114.86429256114285"><ele>132.5</ele><time>2026-04-13T07:16:41.001Z</time></trkpt><trkpt lat="-28.645197975275483" lon="114.864408734906"><ele>132.0</ele><time>2026-04-13T07:16:42.001Z</time></trkpt><trkpt lat="-28.64493877102414" lon="114.86451460440372"><ele>132.0</ele><time>2026-04-13T07:16:43.001Z</time></trkpt><trkpt lat="-28.644672394682143" lon="114.86461248007404"><ele>132.0</ele><time>2026-04-13T07:16:44.001Z</time></trkpt><trkpt lat="-28.644398976262185" lon="114.86470663436357"><ele>134.5</ele><time>2026-04-13T07:16:45.001Z</time></trkpt><trkpt lat="-28.64412746195921" lon="114.86480798224277"><ele>137.0</ele><time>2026-04-13T07:16:46.001Z</time></trkpt><trkpt lat="-28.643855729512865" lon="114.86491531329173"><ele>138.0</ele><time>2026-04-13T07:16:47.001Z</time></trkpt><trkpt lat="-28.64358152626098" lon="114.86502413754805"><ele>139.0</ele><time>2026-04-13T07:16:48.001Z</time></trkpt><trkpt lat="-28.643302900047335" lon="114.86513437891783"><ele>139.0</ele><time>2026-04-13T07:16:49.001Z</time></trkpt><trkpt lat="-28.643024220165998" lon="114.86524595677447"><ele>139.0</ele><time>2026-04-13T07:16:50.001Z</time></trkpt><trkpt lat="-28.642752487737148" lon="114.86535684875754"><ele>139.5</ele><time>2026-04-13T07:16:51.001Z</time></trkpt><trkpt lat="-28.642483407439638" lon="114.86546768987974"><ele>140.0</ele><time>2026-04-13T07:16:52.001Z</time></trkpt><trkpt lat="-28.642215381440113" lon="114.86557563374268"><ele>140.5</ele><time>2026-04-13T07:16:53.001Z</time></trkpt><trkpt lat="-28.64194415910117" lon="114.86568164452656"><ele>141.0</ele><time>2026-04-13T07:16:54.001Z</time></trkpt><trkpt lat="-28.641672391516586" lon="114.86578623850512"><ele>141.0</ele><time>2026-04-13T07:16:55.001Z</time></trkpt><trkpt lat="-28.641399836945727" lon="114.86589089658938"><ele>141.0</ele><time>2026-04-13T07:16:56.001Z</time></trkpt><trkpt lat="-28.641127749197455" lon="114.8659986246371"><ele>139.5</ele><time>2026-04-13T07:16:57.001Z</time></trkpt><trkpt lat="-28.640853954728172" lon="114.86611057102782"><ele>138.0</ele><time>2026-04-13T07:16:58.001Z</time></trkpt><trkpt lat="-28.640573255519122" lon="114.86622287680666"><ele>141.0</ele><time>2026-04-13T07:16:59.001Z</time></trkpt><trkpt lat="-28.640288543396643" lon="114.86633112830978"><ele>144.0</ele><time>2026-04-13T07:17:00.001Z</time></trkpt><trkpt lat="-28.640010035515512" lon="114.86643909926916"><ele>144.0</ele><time>2026-04-13T07:17:01.001Z</time></trkpt><trkpt lat="-28.6397370071286" lon="114.86654879564757"><ele>144.0</ele><time>2026-04-13T07:17:02.001Z</time></trkpt><trkpt lat="-28.63946474483821" lon="114.86666163615853"><ele>145.0</ele><time>2026-04-13T07:17:03.001Z</time></trkpt><trkpt lat="-28.6391967535287" lon="114.86677159565019"><ele>146.0</ele><time>2026-04-13T07:17:04.001Z</time></trkpt><trkpt lat="-28.63892532404028" lon="114.86687750728981"><ele>146.0</ele><time>2026-04-13T07:17:05.001Z</time></trkpt><trkpt lat="-28.638654409812425" lon="114.86698335631776"><ele>146.0</ele><time>2026-04-13T07:17:06.001Z</time></trkpt><trkpt lat="-28.63838210661857" lon="114.86708854259865"><ele>148.0</ele><time>2026-04-13T07:17:07.001Z</time></trkpt><trkpt lat="-28.6381079916232" lon="114.86719250982426"><ele>150.0</ele><time>2026-04-13T07:17:08.001Z</time></trkpt><trkpt lat="-28.637830939836217" lon="114.867297258583"><ele>152.0</ele><time>2026-04-13T07:17:09.001Z</time></trkpt><trkpt lat="-28.63755217423206" lon="114.8674041969517"><ele>154.0</ele><time>2026-04-13T07:17:10.001Z</time></trkpt><trkpt lat="-28.637274755613827" lon="114.86751507398836"><ele>152.0</ele><time>2026-04-13T07:17:11.001Z</time></trkpt><trkpt lat="-28.636995398489702" lon="114.86762796780242"><ele>150.0</ele><time>2026-04-13T07:17:12.001Z</time></trkpt><trkpt lat="-28.636710116762185" lon="114.86773897688812"><ele>150.0</ele><time>2026-04-13T07:17:13.001Z</time></trkpt><trkpt lat="-28.636421771367505" lon="114.86784944171312"><ele>150.0</ele><time>2026-04-13T07:17:14Z</time></trkpt><trkpt lat="-28.636135902287343" lon="114.86795974118374"><ele>150.0</ele><time>2026-04-13T07:17:15Z</time></trkpt><trkpt lat="-28.63585539373479" lon="114.86807114470346"><ele>150.0</ele><time>2026-04-13T07:17:16Z</time></trkpt><trkpt lat="-28.63558199226822" lon="114.86817947630885"><ele>150.0</ele><time>2026-04-13T07:17:17Z</time></trkpt><trkpt lat="-28.63530949149275" lon="114.86828253566568"><ele>150.0</ele><time>2026-04-13T07:17:18Z</time></trkpt><trkpt lat="-28.63503147148072" lon="114.86838337719509"><ele>151.0</ele><time>2026-04-13T07:17:19Z</time></trkpt><trkpt lat="-28.63475015061908" lon="114.86848580950759"><ele>152.0</ele><time>2026-04-13T07:17:20Z</time></trkpt><trkpt lat="-28.63446941474289" lon="114.86859041958758"><ele>152.0</ele><time>2026-04-13T07:17:21Z</time></trkpt><trkpt lat="-28.634192055687233" lon="114.86869771455031"><ele>152.0</ele><time>2026-04-13T07:17:22Z</time></trkpt><trkpt lat="-28.633909843681984" lon="114.86881041826493"><ele>154.5</ele><time>2026-04-13T07:17:23Z</time></trkpt><trkpt lat="-28.63363244607266" lon="114.86891918544652"><ele>157.0</ele><time>2026-04-13T07:17:24Z</time></trkpt><trkpt lat="-28.633352399256335" lon="114.86902080433912"><ele>157.0</ele><time>2026-04-13T07:17:25Z</time></trkpt><trkpt lat="-28.63307801673103" lon="114.86912117585688"><ele>157.0</ele><time>2026-04-13T07:17:26Z</time></trkpt><trkpt lat="-28.632809748658442" lon="114.8692239818763"><ele>161.0</ele><time>2026-04-13T07:17:27Z</time></trkpt><trkpt lat="-28.63256261537502" lon="114.86932084816083"><ele>165.0</ele><time>2026-04-13T07:17:28Z</time></trkpt><trkpt lat="-28.63233726152906" lon="114.86940921600588"><ele>165.0</ele><time>2026-04-13T07:17:29Z</time></trkpt><trkpt lat="-28.63213363865526" lon="114.86949920602295"><ele>165.0</ele><time>2026-04-13T07:17:30Z</time></trkpt><trkpt lat="-28.63193858240531" lon="114.86960523182938"><ele>165.0</ele><time>2026-04-13T07:17:31Z</time></trkpt><trkpt lat="-28.631744913252543" lon="114.86973882600675"><ele>166.0</ele><time>2026-04-13T07:17:32Z</time></trkpt><trkpt lat="-28.631546787097005" lon="114.86989863616164"><ele>167.0</ele><time>2026-04-13T07:17:33Z</time></trkpt><trkpt lat="-28.631351116768023" lon="114.87007324957199"><ele>167.5</ele><time>2026-04-13T07:17:34Z</time></trkpt><trkpt lat="-28.631143802996636" lon="114.8702572882923"><ele>168.0</ele><time>2026-04-13T07:17:35Z</time></trkpt><trkpt lat="-28.630933578278633" lon="114.87044238722062"><ele>168.0</ele><time>2026-04-13T07:17:36Z</time></trkpt><trkpt lat="-28.630714142642933" lon="114.87062749231731"><ele>168.0</ele><time>2026-04-13T07:17:37Z</time></trkpt><trkpt lat="-28.630489727071975" lon="114.87080898403997"><ele>169.5</ele><time>2026-04-13T07:17:38Z</time></trkpt><trkpt lat="-28.630252342005598" lon="114.87099686593825"><ele>171.0</ele><time>2026-04-13T07:17:39Z</time></trkpt><trkpt lat="-28.63001649824379" lon="114.8711889071834"><ele>171.0</ele><time>2026-04-13T07:17:40Z</time></trkpt><trkpt lat="-28.6297805900099" lon="114.8713886992223"><ele>171.0</ele><time>2026-04-13T07:17:41Z</time></trkpt><trkpt lat="-28.629545231530155" lon="114.8715890108702"><ele>170.0</ele><time>2026-04-13T07:17:42Z</time></trkpt><trkpt lat="-28.629309686739717" lon="114.87179036638787"><ele>169.0</ele><time>2026-04-13T07:17:43Z</time></trkpt><trkpt lat="-28.629068977925776" lon="114.87199357648387"><ele>169.0</ele><time>2026-04-13T07:17:44Z</time></trkpt><trkpt lat="-28.6288231366668" lon="114.87219967409986"><ele>169.0</ele><time>2026-04-13T07:17:45Z</time></trkpt><trkpt lat="-28.628569509671735" lon="114.87241241477645"><ele>171.0</ele><time>2026-04-13T07:17:46Z</time></trkpt><trkpt lat="-28.62832051095302" lon="114.87261696367976"><ele>173.0</ele><time>2026-04-13T07:17:47Z</time></trkpt><trkpt lat="-28.62806909299187" lon="114.87282323118572"><ele>173.0</ele><time>2026-04-13T07:17:48Z</time></trkpt><trkpt lat="-28.627823827543306" lon="114.87302163856502"><ele>173.0</ele><time>2026-04-13T07:17:49Z</time></trkpt><trkpt lat="-28.62757775751677" lon="114.87321996355207"><ele>173.0</ele><time>2026-04-13T07:17:50Z</time></trkpt><trkpt lat="-28.627339952454296" lon="114.87341651742426"><ele>173.0</ele><time>2026-04-13T07:17:51Z</time></trkpt><trkpt lat="-28.62709796792467" lon="114.87361647432043"><ele>171.5</ele><time>2026-04-13T07:17:52Z</time></trkpt><trkpt lat="-28.626856312179015" lon="114.87381695360422"><ele>170.0</ele><time>2026-04-13T07:17:53Z</time></trkpt><trkpt lat="-28.626615427084047" lon="114.87401838596732"><ele>170.0</ele><time>2026-04-13T07:17:54Z</time></trkpt><trkpt lat="-28.626370903148302" lon="114.87421987783408"><ele>170.0</ele><time>2026-04-13T07:17:55Z</time></trkpt><trkpt lat="-28.626127205180044" lon="114.87441873012429"><ele>171.0</ele><time>2026-04-13T07:17:56Z</time></trkpt><trkpt lat="-28.625886488066385" lon="114.87462024983306"><ele>172.0</ele><time>2026-04-13T07:17:57Z</time></trkpt><trkpt lat="-28.62564556361655" lon="114.87482257825233"><ele>172.0</ele><time>2026-04-13T07:17:58Z</time></trkpt><trkpt lat="-28.62540713986786" lon="114.87502282529199"><ele>172.0</ele><time>2026-04-13T07:17:59Z</time></trkpt><trkpt lat="-28.62516709799976" lon="114.87522213881797"><ele>171.5</ele><time>2026-04-13T07:18:00Z</time></trkpt><trkpt lat="-28.624923626445856" lon="114.87542436772856"><ele>171.0</ele><time>2026-04-13T07:18:01Z</time></trkpt><trkpt lat="-28.624677423790594" lon="114.87562870409687"><ele>173.5</ele><time>2026-04-13T07:18:02Z</time></trkpt><trkpt lat="-28.624431583551853" lon="114.87583361314285"><ele>176.0</ele><time>2026-04-13T07:18:03Z</time></trkpt><trkpt lat="-28.624187623501914" lon="114.87603573728734"><ele>176.0</ele><time>2026-04-13T07:18:04Z</time></trkpt><trkpt lat="-28.623943013315436" lon="114.87623404747448"><ele>176.0</ele><time>2026-04-13T07:18:05Z</time></trkpt><trkpt lat="-28.6237014604802" lon="114.87642452178027"><ele>177.0</ele><time>2026-04-13T07:18:06Z</time></trkpt><trkpt lat="-28.623469423952585" lon="114.87655823182492"><ele>178.0</ele><time>2026-04-13T07:18:07Z</time></trkpt><trkpt lat="-28.6232686345924" lon="114.87662311412276"><ele>178.0</ele><time>2026-04-13T07:18:08Z</time></trkpt><trkpt lat="-28.623094449128473" lon="114.87666427890504"><ele>178.0</ele><time>2026-04-13T07:18:09Z</time></trkpt><trkpt lat="-28.6229479268567" lon="114.87668320713986"><ele>178.0</ele><time>2026-04-13T07:18:10Z</time></trkpt><trkpt lat="-28.62282712573555" lon="114.876694485058"><ele>178.0</ele><time>2026-04-13T07:18:11Z</time></trkpt><trkpt lat="-28.62273336455586" lon="114.8767035856314"><ele>176.5</ele><time>2026-04-13T07:18:12Z</time></trkpt><trkpt lat="-28.622742388923836" lon="114.87687003586187"><ele>175.0</ele><time>2026-04-13T07:18:17Z</time></trkpt><trkpt lat="-28.622422271802023" lon="114.87677843268425"><ele>175.0</ele><time>2026-04-13T07:24:09.062Z</time></trkpt><trkpt lat="-28.62232467927339" lon="114.87678428887757"><ele>175.0</ele><time>2026-04-13T07:24:12.999Z</time></trkpt><trkpt lat="-28.622220407100915" lon="114.87680987535079"><ele>175.0</ele><time>2026-04-13T07:24:14.999Z</time></trkpt><trkpt lat="-28.622148621042413" lon="114.87683343846811"><ele>175.0</ele><time>2026-04-13T07:24:15.999Z</time></trkpt><trkpt lat="-28.622062308146862" lon="114.87687062094851"><ele>175.0</ele><time>2026-04-13T07:24:16.999Z</time></trkpt><trkpt lat="-28.62197166365541" lon="114.87690423488091"><ele>175.0</ele><time>2026-04-13T07:24:17.999Z</time></trkpt><trkpt lat="-28.6218594821409" lon="114.87694142502986"><ele>175.0</ele><time>2026-04-13T07:24:18.999Z</time></trkpt><trkpt lat="-28.621759842635758" lon="114.87697412309336"><ele>175.0</ele><time>2026-04-13T07:24:19.999Z</time></trkpt><trkpt lat="-28.621654923886652" lon="114.87700794089298"><ele>175.0</ele><time>2026-04-13T07:24:20.999Z</time></trkpt><trkpt lat="-28.62153638694929" lon="114.87705016462247"><ele>175.0</ele><time>2026-04-13T07:24:21.999Z</time></trkpt><trkpt lat="-28.62139960424651" lon="114.87710281972085"><ele>175.0</ele><time>2026-04-13T07:24:22.999Z</time></trkpt><trkpt lat="-28.621261550949622" lon="114.8771509115639"><ele>175.0</ele><time>2026-04-13T07:24:23.999Z</time></trkpt><trkpt lat="-28.621131534058613" lon="114.87718968216492"><ele>175.0</ele><time>2026-04-13T07:24:24.999Z</time></trkpt><trkpt lat="-28.62100098658167" lon="114.87722744445186"><ele>175.75</ele><time>2026-04-13T07:24:25.999Z</time></trkpt><trkpt lat="-28.62087619110137" lon="114.87725757707055"><ele>176.5</ele><time>2026-04-13T07:24:26.999Z</time></trkpt><trkpt lat="-28.620744892758676" lon="114.87728398524014"><ele>177.25</ele><time>2026-04-13T07:24:27.999Z</time></trkpt><trkpt lat="-28.62060828443626" lon="114.87730497031525"><ele>178.0</ele><time>2026-04-13T07:24:28.999Z</time></trkpt><trkpt lat="-28.620455922409832" lon="114.8773219896709"><ele>177.66666666666669</ele><time>2026-04-13T07:24:29.999Z</time></trkpt><trkpt lat="-28.6202818835663" lon="114.87733101352669"><ele>177.33333333333334</ele><time>2026-04-13T07:24:30.999Z</time></trkpt><trkpt lat="-28.620107167807905" lon="114.8773359924212"><ele>177.0</ele><time>2026-04-13T07:24:31.999Z</time></trkpt><trkpt lat="-28.619933026038797" lon="114.87734045820558"><ele>177.0</ele><time>2026-04-13T07:24:32.999Z</time></trkpt><trkpt lat="-28.61974225444364" lon="114.87734400877713"><ele>177.0</ele><time>2026-04-13T07:24:33.999Z</time></trkpt><trkpt lat="-28.619560343862112" lon="114.87734521998406"><ele>177.0</ele><time>2026-04-13T07:24:34.999Z</time></trkpt><trkpt lat="-28.619374960940117" lon="114.87734651201399"><ele>174.66666666666666</ele><time>2026-04-13T07:24:36Z</time></trkpt><trkpt lat="-28.619189734097304" lon="114.8773477020944"><ele>172.33333333333331</ele><time>2026-04-13T07:24:37Z</time></trkpt><trkpt lat="-28.619000101921888" lon="114.87734877145277"><ele>170.0</ele><time>2026-04-13T07:24:38Z</time></trkpt><trkpt lat="-28.618815363440145" lon="114.8773506884151"><ele>170.66666666666666</ele><time>2026-04-13T07:24:39Z</time></trkpt><trkpt lat="-28.618635915182114" lon="114.87735227909518"><ele>171.33333333333334</ele><time>2026-04-13T07:24:40Z</time></trkpt><trkpt lat="-28.61846301952458" lon="114.87735378108525"><ele>172.0</ele><time>2026-04-13T07:24:41Z</time></trkpt><trkpt lat="-28.618304332760886" lon="114.87735563800558"><ele>172.0</ele><time>2026-04-13T07:24:42Z</time></trkpt><trkpt lat="-28.61814471559258" lon="114.87735900109473"><ele>172.0</ele><time>2026-04-13T07:24:43Z</time></trkpt><trkpt lat="-28.617989664058197" lon="114.87736397069642"><ele>172.0</ele><time>2026-04-13T07:24:44Z</time></trkpt><trkpt lat="-28.617838939856412" lon="114.87737991995488"><ele>172.25</ele><time>2026-04-13T07:24:45Z</time></trkpt><trkpt lat="-28.617682961574587" lon="114.87736740207993"><ele>172.5</ele><time>2026-04-13T07:24:46Z</time></trkpt><trkpt lat="-28.61752704496829" lon="114.87736723823538"><ele>172.75</ele><time>2026-04-13T07:24:47Z</time></trkpt><trkpt lat="-28.61739529849406" lon="114.8773955212895"><ele>173.0</ele><time>2026-04-13T07:24:48Z</time></trkpt><trkpt lat="-28.61723284058832" lon="114.8772374479754"><ele>173.0</ele><time>2026-04-13T07:24:49Z</time></trkpt><trkpt lat="-28.61710569639527" lon="114.87712305559202"><ele>173.0</ele><time>2026-04-13T07:24:50Z</time></trkpt><trkpt lat="-28.61696503472174" lon="114.87701554766032"><ele>173.0</ele><time>2026-04-13T07:24:51Z</time></trkpt><trkpt lat="-28.616809093906205" lon="114.87689636185407"><ele>174.33333333333331</ele><time>2026-04-13T07:24:52Z</time></trkpt><trkpt lat="-28.616642877558775" lon="114.87676939000343"><ele>175.66666666666666</ele><time>2026-04-13T07:24:53Z</time></trkpt><trkpt lat="-28.61646388909038" lon="114.8766328442325"><ele>177.0</ele><time>2026-04-13T07:24:54Z</time></trkpt><trkpt lat="-28.61627809068317" lon="114.87649110334814"><ele>177.0</ele><time>2026-04-13T07:24:55Z</time></trkpt><trkpt lat="-28.61608641207493" lon="114.87634491258244"><ele>177.0</ele><time>2026-04-13T07:24:56Z</time></trkpt><trkpt lat="-28.615892235233073" lon="114.87619623585692"><ele>177.0</ele><time>2026-04-13T07:24:57Z</time></trkpt><trkpt lat="-28.615691917767347" lon="114.87604266648626"><ele>177.0</ele><time>2026-04-13T07:24:58Z</time></trkpt><trkpt lat="-28.61548929411153" lon="114.87588783054595"><ele>179.5</ele><time>2026-04-13T07:24:59Z</time></trkpt><trkpt lat="-28.615284079090138" lon="114.87573101440312"><ele>182.0</ele><time>2026-04-13T07:25:00Z</time></trkpt><trkpt lat="-28.615080180394813" lon="114.87557520414028"><ele>182.0</ele><time>2026-04-13T07:25:01Z</time></trkpt><trkpt lat="-28.614875431841316" lon="114.87541876917813"><ele>182.0</ele><time>2026-04-13T07:25:02Z</time></trkpt><trkpt lat="-28.61467320256182" lon="114.87526481685812"><ele>183.5</ele><time>2026-04-13T07:25:03Z</time></trkpt><trkpt lat="-28.61447281090542" lon="114.87511226347827"><ele>185.0</ele><time>2026-04-13T07:25:04Z</time></trkpt><trkpt lat="-28.614276128317552" lon="114.87496143370477"><ele>186.5</ele><time>2026-04-13T07:25:05Z</time></trkpt><trkpt lat="-28.614079936551374" lon="114.8748119705891"><ele>188.0</ele><time>2026-04-13T07:25:06Z</time></trkpt><trkpt lat="-28.613880147825412" lon="114.87468174395995"><ele>188.0</ele><time>2026-04-13T07:25:07Z</time></trkpt><trkpt lat="-28.613702879315888" lon="114.87452382028133"><ele>188.0</ele><time>2026-04-13T07:25:08Z</time></trkpt><trkpt lat="-28.613514988176558" lon="114.87438078840749"><ele>186.0</ele><time>2026-04-13T07:25:09Z</time></trkpt><trkpt lat="-28.613321484332523" lon="114.87423365261313"><ele>184.0</ele><time>2026-04-13T07:25:10Z</time></trkpt><trkpt lat="-28.613123505551705" lon="114.87408311423543"><ele>184.0</ele><time>2026-04-13T07:25:11Z</time></trkpt><trkpt lat="-28.612928465414793" lon="114.87393747681719"><ele>184.0</ele><time>2026-04-13T07:25:12Z</time></trkpt><trkpt lat="-28.61273025493399" lon="114.87378971687937"><ele>182.5</ele><time>2026-04-13T07:25:13Z</time></trkpt><trkpt lat="-28.612503770101693" lon="114.87368323982196"><ele>181.0</ele><time>2026-04-13T07:25:14Z</time></trkpt><trkpt lat="-28.61228822245553" lon="114.87354960505101"><ele>181.0</ele><time>2026-04-13T07:25:15Z</time></trkpt><trkpt lat="-28.612062599987063" lon="114.87341860630583"><ele>181.0</ele><time>2026-04-13T07:25:16Z</time></trkpt><trkpt lat="-28.61183134538561" lon="114.8732944649699"><ele>179.0</ele><time>2026-04-13T07:25:17Z</time></trkpt><trkpt lat="-28.611591889676895" lon="114.873177147086"><ele>177.0</ele><time>2026-04-13T07:25:18Z</time></trkpt><trkpt lat="-28.611348856971468" lon="114.87305888921107"><ele>177.0</ele><time>2026-04-13T07:25:19Z</time></trkpt><trkpt lat="-28.611108225549394" lon="114.87293943308964"><ele>177.0</ele><time>2026-04-13T07:25:20Z</time></trkpt><trkpt lat="-28.61087140728467" lon="114.87281892103672"><ele>177.0</ele><time>2026-04-13T07:25:21Z</time></trkpt><trkpt lat="-28.610643550403175" lon="114.87270246699407"><ele>177.0</ele><time>2026-04-13T07:25:22Z</time></trkpt><trkpt lat="-28.610415456799185" lon="114.87258467812825"><ele>175.0</ele><time>2026-04-13T07:25:23Z</time></trkpt><trkpt lat="-28.610187307704475" lon="114.87246856279879"><ele>173.0</ele><time>2026-04-13T07:25:24Z</time></trkpt><trkpt lat="-28.609962895302345" lon="114.87235541523968"><ele>173.0</ele><time>2026-04-13T07:25:25Z</time></trkpt><trkpt lat="-28.609749187021773" lon="114.8722485629129"><ele>173.0</ele><time>2026-04-13T07:25:26Z</time></trkpt><trkpt lat="-28.6095504024349" lon="114.87214496790537"><ele>172.66666666666666</ele><time>2026-04-13T07:25:27Z</time></trkpt><trkpt lat="-28.609360707291792" lon="114.87203236899892"><ele>172.33333333333334</ele><time>2026-04-13T07:25:28Z</time></trkpt><trkpt lat="-28.609176410197556" lon="114.87190739463517"><ele>172.0</ele><time>2026-04-13T07:25:29Z</time></trkpt><trkpt lat="-28.60899710655975" lon="114.87176632262113"><ele>171.33333333333334</ele><time>2026-04-13T07:25:30Z</time></trkpt><trkpt lat="-28.608818602549796" lon="114.87161257321323"><ele>170.66666666666666</ele><time>2026-04-13T07:25:31Z</time></trkpt><trkpt lat="-28.60864118038654" lon="114.8714537944104"><ele>170.0</ele><time>2026-04-13T07:25:32Z</time></trkpt><trkpt lat="-28.608457742968472" lon="114.87128681916535"><ele>169.5</ele><time>2026-04-13T07:25:33Z</time></trkpt><trkpt lat="-28.60826957583593" lon="114.87112215232459"><ele>169.0</ele><time>2026-04-13T07:25:34Z</time></trkpt><trkpt lat="-28.608085752141818" lon="114.87096346709389"><ele>167.5</ele><time>2026-04-13T07:25:35Z</time></trkpt><trkpt lat="-28.607899756269894" lon="114.87080014983582"><ele>166.0</ele><time>2026-04-13T07:25:36Z</time></trkpt><trkpt lat="-28.6077064305381" lon="114.87063214988571"><ele>165.5</ele><time>2026-04-13T07:25:37Z</time></trkpt><trkpt lat="-28.60751137684505" lon="114.87047123724763"><ele>165.0</ele><time>2026-04-13T07:25:38Z</time></trkpt><trkpt lat="-28.607310645180362" lon="114.87030237968503"><ele>165.0</ele><time>2026-04-13T07:25:39Z</time></trkpt><trkpt lat="-28.607111468716393" lon="114.87013216950756"><ele>165.0</ele><time>2026-04-13T07:25:40Z</time></trkpt><trkpt lat="-28.6069183592778" lon="114.8699672862839"><ele>167.5</ele><time>2026-04-13T07:25:41Z</time></trkpt><trkpt lat="-28.60672406698998" lon="114.8698004795319"><ele>170.0</ele><time>2026-04-13T07:25:42Z</time></trkpt><trkpt lat="-28.606529113516558" lon="114.86963351959224"><ele>170.0</ele><time>2026-04-13T07:25:43Z</time></trkpt><trkpt lat="-28.606331685864728" lon="114.86946541795155"><ele>170.0</ele><time>2026-04-13T07:25:44Z</time></trkpt><trkpt lat="-28.60613958152731" lon="114.86930175229534"><ele>173.0</ele><time>2026-04-13T07:25:45Z</time></trkpt><trkpt lat="-28.605949965209838" lon="114.86913652956103"><ele>176.0</ele><time>2026-04-13T07:25:46Z</time></trkpt><trkpt lat="-28.60576387614712" lon="114.86896951519856"><ele>176.0</ele><time>2026-04-13T07:25:47Z</time></trkpt><trkpt lat="-28.6055827643807" lon="114.86880286901633"><ele>176.0</ele><time>2026-04-13T07:25:48Z</time></trkpt><trkpt lat="-28.605398159921673" lon="114.86863450517113"><ele>176.5</ele><time>2026-04-13T07:25:49Z</time></trkpt><trkpt lat="-28.605208991509528" lon="114.86845967563858"><ele>177.0</ele><time>2026-04-13T07:25:50Z</time></trkpt><trkpt lat="-28.60501612101666" lon="114.86828192520717"><ele>177.0</ele><time>2026-04-13T07:25:51Z</time></trkpt><trkpt lat="-28.604816616350274" lon="114.86809725971018"><ele>177.0</ele><time>2026-04-13T07:25:52Z</time></trkpt><trkpt lat="-28.604621352248042" lon="114.86791565200404"><ele>176.5</ele><time>2026-04-13T07:25:53Z</time></trkpt><trkpt lat="-28.604423240778583" lon="114.86773445213771"><ele>176.0</ele><time>2026-04-13T07:25:54Z</time></trkpt><trkpt lat="-28.60422490035846" lon="114.86755293124361"><ele>174.5</ele><time>2026-04-13T07:25:55Z</time></trkpt><trkpt lat="-28.604029630132377" lon="114.86736566323529"><ele>173.0</ele><time>2026-04-13T07:25:56Z</time></trkpt><trkpt lat="-28.603834001305774" lon="114.86717649917479"><ele>175.0</ele><time>2026-04-13T07:25:57Z</time></trkpt><trkpt lat="-28.603637357126267" lon="114.86698873334777"><ele>177.0</ele><time>2026-04-13T07:25:58Z</time></trkpt><trkpt lat="-28.603441661705943" lon="114.8668026708362"><ele>175.5</ele><time>2026-04-13T07:25:59Z</time></trkpt><trkpt lat="-28.60324520127051" lon="114.86661718302554"><ele>174.0</ele><time>2026-04-13T07:26:00Z</time></trkpt><trkpt lat="-28.603046808719075" lon="114.86643158923046"><ele>174.0</ele><time>2026-04-13T07:26:01Z</time></trkpt><trkpt lat="-28.60285317705924" lon="114.86624988814667"><ele>174.0</ele><time>2026-04-13T07:26:02Z</time></trkpt><trkpt lat="-28.60267834808849" lon="114.8660519212448"><ele>173.0</ele><time>2026-04-13T07:26:03Z</time></trkpt><trkpt lat="-28.602493077200744" lon="114.86587921059647"><ele>172.0</ele><time>2026-04-13T07:26:04Z</time></trkpt><trkpt lat="-28.60230869042168" lon="114.86570651536489"><ele>172.0</ele><time>2026-04-13T07:26:05Z</time></trkpt><trkpt lat="-28.60212035823451" lon="114.86553001575751"><ele>172.0</ele><time>2026-04-13T07:26:06Z</time></trkpt><trkpt lat="-28.601933276192977" lon="114.86535442390472"><ele>171.0</ele><time>2026-04-13T07:26:07Z</time></trkpt><trkpt lat="-28.601747207760624" lon="114.86517978332343"><ele>170.0</ele><time>2026-04-13T07:26:08Z</time></trkpt><trkpt lat="-28.601559589933153" lon="114.86500244363283"><ele>169.5</ele><time>2026-04-13T07:26:09Z</time></trkpt><trkpt lat="-28.601377375339677" lon="114.86483037129942"><ele>169.0</ele><time>2026-04-13T07:26:10Z</time></trkpt><trkpt lat="-28.60119853863626" lon="114.86465980514079"><ele>165.0</ele><time>2026-04-13T07:26:11Z</time></trkpt><trkpt lat="-28.601020322832763" lon="114.86448873402492"><ele>161.0</ele><time>2026-04-13T07:26:12Z</time></trkpt><trkpt lat="-28.600841383541734" lon="114.86431426309922"><ele>160.5</ele><time>2026-04-13T07:26:12.999Z</time></trkpt><trkpt lat="-28.600659222044637" lon="114.8641366506431"><ele>160.0</ele><time>2026-04-13T07:26:13.999Z</time></trkpt><trkpt lat="-28.600475660888815" lon="114.86395804117215"><ele>159.0</ele><time>2026-04-13T07:26:14.999Z</time></trkpt><trkpt lat="-28.600290722899356" lon="114.86378227556341"><ele>158.0</ele><time>2026-04-13T07:26:15.999Z</time></trkpt><trkpt lat="-28.600108088640393" lon="114.86361402642056"><ele>158.0</ele><time>2026-04-13T07:26:16.999Z</time></trkpt><trkpt lat="-28.59993587544767" lon="114.86345712496879"><ele>158.0</ele><time>2026-04-13T07:26:17.999Z</time></trkpt><trkpt lat="-28.5997692250843" lon="114.86331078134317"><ele>158.0</ele><time>2026-04-13T07:26:18.999Z</time></trkpt><trkpt lat="-28.599604236331285" lon="114.86317904558719"><ele>158.33333333333331</ele><time>2026-04-13T07:26:19.999Z</time></trkpt><trkpt lat="-28.599435354728307" lon="114.8630568008291"><ele>158.66666666666666</ele><time>2026-04-13T07:26:20.999Z</time></trkpt><trkpt lat="-28.599259043070337" lon="114.86294203057015"><ele>159.0</ele><time>2026-04-13T07:26:21.999Z</time></trkpt><trkpt lat="-28.599072199452966" lon="114.86284392273934"><ele>159.0</ele><time>2026-04-13T07:26:22.999Z</time></trkpt><trkpt lat="-28.598870124494393" lon="114.86276798140055"><ele>159.0</ele><time>2026-04-13T07:26:23.999Z</time></trkpt><trkpt lat="-28.598655876469792" lon="114.86270985561525"><ele>159.0</ele><time>2026-04-13T07:26:24.999Z</time></trkpt><trkpt lat="-28.598429293312932" lon="114.86266846914549"><ele>158.5</ele><time>2026-04-13T07:26:25.999Z</time></trkpt><trkpt lat="-28.59818534467323" lon="114.86263714748385"><ele>158.0</ele><time>2026-04-13T07:26:26.999Z</time></trkpt><trkpt lat="-28.597928303601005" lon="114.86262070084172"><ele>159.5</ele><time>2026-04-13T07:26:27.999Z</time></trkpt><trkpt lat="-28.597668491269427" lon="114.86264078460557"><ele>161.0</ele><time>2026-04-13T07:26:28.999Z</time></trkpt><trkpt lat="-28.59739685146925" lon="114.8626423302989"><ele>161.0</ele><time>2026-04-13T07:26:29.999Z</time></trkpt><trkpt lat="-28.597125431402365" lon="114.862644875364"><ele>161.0</ele><time>2026-04-13T07:26:30.999Z</time></trkpt><trkpt lat="-28.59685651444266" lon="114.86264731752321"><ele>158.5</ele><time>2026-04-13T07:26:31.999Z</time></trkpt><trkpt lat="-28.596590007866478" lon="114.862650949495"><ele>156.0</ele><time>2026-04-13T07:26:32.999Z</time></trkpt><trkpt lat="-28.596326360925563" lon="114.86265489263066"><ele>155.0</ele><time>2026-04-13T07:26:33.999Z</time></trkpt><trkpt lat="-28.596063277005918" lon="114.86265736287064"><ele>154.0</ele><time>2026-04-13T07:26:34.999Z</time></trkpt><trkpt lat="-28.59580024573064" lon="114.86265883499833"><ele>154.0</ele><time>2026-04-13T07:26:35.999Z</time></trkpt><trkpt lat="-28.59553774571817" lon="114.86265785517429"><ele>154.0</ele><time>2026-04-13T07:26:36.999Z</time></trkpt><trkpt lat="-28.59528184926879" lon="114.86265928583504"><ele>154.5</ele><time>2026-04-13T07:26:37.999Z</time></trkpt><trkpt lat="-28.595033937847518" lon="114.86266335195869"><ele>155.0</ele><time>2026-04-13T07:26:38.999Z</time></trkpt><trkpt lat="-28.59478543249016" lon="114.86266735187763"><ele>155.0</ele><time>2026-04-13T07:26:39.999Z</time></trkpt><trkpt lat="-28.59453254807047" lon="114.86266916167844"><ele>155.0</ele><time>2026-04-13T07:26:40.999Z</time></trkpt><trkpt lat="-28.594277329538496" lon="114.8626692319518"><ele>154.0</ele><time>2026-04-13T07:26:41.999Z</time></trkpt><trkpt lat="-28.594015613567773" lon="114.86266968785144"><ele>153.0</ele><time>2026-04-13T07:26:42.999Z</time></trkpt><trkpt lat="-28.593756013330214" lon="114.86267268310519"><ele>152.0</ele><time>2026-04-13T07:26:43.999Z</time></trkpt><trkpt lat="-28.59349334633565" lon="114.86267274380535"><ele>151.0</ele><time>2026-04-13T07:26:45Z</time></trkpt><trkpt lat="-28.59322617084408" lon="114.86267307861712"><ele>151.0</ele><time>2026-04-13T07:26:46Z</time></trkpt><trkpt lat="-28.5929539943003" lon="114.86267663725405"><ele>151.0</ele><time>2026-04-13T07:26:47Z</time></trkpt><trkpt lat="-28.592678043183913" lon="114.86268122648076"><ele>150.5</ele><time>2026-04-13T07:26:48Z</time></trkpt><trkpt lat="-28.592404068565365" lon="114.86268583823474"><ele>150.0</ele><time>2026-04-13T07:26:49Z</time></trkpt><trkpt lat="-28.59213301134004" lon="114.86268953955067"><ele>151.0</ele><time>2026-04-13T07:26:50Z</time></trkpt><trkpt lat="-28.591859243190214" lon="114.86269292262905"><ele>152.0</ele><time>2026-04-13T07:26:51Z</time></trkpt><trkpt lat="-28.59159101744675" lon="114.86269313342154"><ele>152.0</ele><time>2026-04-13T07:26:52Z</time></trkpt><trkpt lat="-28.59132362235339" lon="114.86269478319909"><ele>152.0</ele><time>2026-04-13T07:26:53Z</time></trkpt><trkpt lat="-28.591060872145405" lon="114.86269632886953"><ele>152.0</ele><time>2026-04-13T07:26:54Z</time></trkpt><trkpt lat="-28.59080161284182" lon="114.86269784205845"><ele>152.0</ele><time>2026-04-13T07:26:55Z</time></trkpt><trkpt lat="-28.59054554928121" lon="114.8627004405803"><ele>153.0</ele><time>2026-04-13T07:26:56Z</time></trkpt><trkpt lat="-28.590305403512435" lon="114.86270498092809"><ele>154.0</ele><time>2026-04-13T07:26:57Z</time></trkpt><trkpt lat="-28.590083494110356" lon="114.86270743868418"><ele>154.0</ele><time>2026-04-13T07:26:58Z</time></trkpt><trkpt lat="-28.58988883909322" lon="114.86271039872638"><ele>154.0</ele><time>2026-04-13T07:26:59Z</time></trkpt><trkpt lat="-28.589712688762248" lon="114.86271008460152"><ele>154.0</ele><time>2026-04-13T07:27:00Z</time></trkpt><trkpt lat="-28.58954493595009" lon="114.86270452681416"><ele>154.33333333333334</ele><time>2026-04-13T07:27:01Z</time></trkpt><trkpt lat="-28.589387622674227" lon="114.86268447800524"><ele>154.66666666666666</ele><time>2026-04-13T07:27:02Z</time></trkpt><trkpt lat="-28.58923769917444" lon="114.86263861891767"><ele>155.0</ele><time>2026-04-13T07:27:03Z</time></trkpt><trkpt lat="-28.5890841320161" lon="114.86255700539787"><ele>155.0</ele><time>2026-04-13T07:27:04Z</time></trkpt><trkpt lat="-28.588930911808706" lon="114.8624534024373"><ele>155.0</ele><time>2026-04-13T07:27:05Z</time></trkpt><trkpt lat="-28.58878053790416" lon="114.86232961824291"><ele>155.0</ele><time>2026-04-13T07:27:06Z</time></trkpt><trkpt lat="-28.58863882179236" lon="114.86218648245156"><ele>155.0</ele><time>2026-04-13T07:27:07Z</time></trkpt><trkpt lat="-28.588516604109692" lon="114.86202978359431"><ele>155.0</ele><time>2026-04-13T07:27:08Z</time></trkpt><trkpt lat="-28.588413636419816" lon="114.86186268682248"><ele>155.0</ele><time>2026-04-13T07:27:09Z</time></trkpt><trkpt lat="-28.58832433157056" lon="114.8616916133074"><ele>154.66666666666666</ele><time>2026-04-13T07:27:10Z</time></trkpt><trkpt lat="-28.588241641775777" lon="114.86152504491386"><ele>154.33333333333334</ele><time>2026-04-13T07:27:11Z</time></trkpt><trkpt lat="-28.58815839464336" lon="114.86136004317918"><ele>154.0</ele><time>2026-04-13T07:27:12Z</time></trkpt><trkpt lat="-28.58806977922715" lon="114.86118986770175"><ele>154.0</ele><time>2026-04-13T07:27:13Z</time></trkpt><trkpt lat="-28.58797878176331" lon="114.86102311326248"><ele>154.0</ele><time>2026-04-13T07:27:14Z</time></trkpt><trkpt lat="-28.587888646632894" lon="114.86086105649184"><ele>154.0</ele><time>2026-04-13T07:27:15Z</time></trkpt><trkpt lat="-28.58779839064374" lon="114.8606931336337"><ele>152.66666666666669</ele><time>2026-04-13T07:27:16Z</time></trkpt><trkpt lat="-28.587709244360358" lon="114.86051941376462"><ele>151.33333333333334</ele><time>2026-04-13T07:27:17Z</time></trkpt><trkpt lat="-28.587609603101306" lon="114.86034761077843"><ele>150.0</ele><time>2026-04-13T07:27:18Z</time></trkpt><trkpt lat="-28.58750428153955" lon="114.86017492240748"><ele>150.66666666666666</ele><time>2026-04-13T07:27:19Z</time></trkpt><trkpt lat="-28.587390020252315" lon="114.86000177704499"><ele>151.33333333333331</ele><time>2026-04-13T07:27:20Z</time></trkpt><trkpt lat="-28.587262957215735" lon="114.8598335859666"><ele>152.0</ele><time>2026-04-13T07:27:21Z</time></trkpt><trkpt lat="-28.587124876032874" lon="114.85967420812374"><ele>152.66666666666666</ele><time>2026-04-13T07:27:22Z</time></trkpt><trkpt lat="-28.58698261028704" lon="114.85954197206516"><ele>153.33333333333334</ele><time>2026-04-13T07:27:23Z</time></trkpt><trkpt lat="-28.58682742610056" lon="114.85943667357735"><ele>154.0</ele><time>2026-04-13T07:27:24Z</time></trkpt><trkpt lat="-28.5866524937389" lon="114.85935088563853"><ele>154.0</ele><time>2026-04-13T07:27:25Z</time></trkpt><trkpt lat="-28.586452348734664" lon="114.85928574722631"><ele>154.0</ele><time>2026-04-13T07:27:26Z</time></trkpt><trkpt lat="-28.586235166818" lon="114.85923936749406"><ele>154.0</ele><time>2026-04-13T07:27:27Z</time></trkpt><trkpt lat="-28.586008895446746" lon="114.8591981881569"><ele>156.0</ele><time>2026-04-13T07:27:28Z</time></trkpt><trkpt lat="-28.585776159140856" lon="114.8591554989747"><ele>158.0</ele><time>2026-04-13T07:27:29Z</time></trkpt><trkpt lat="-28.58553433826938" lon="114.85910957732376"><ele>156.5</ele><time>2026-04-13T07:27:30Z</time></trkpt><trkpt lat="-28.585285989377784" lon="114.85906015585667"><ele>155.0</ele><time>2026-04-13T07:27:31Z</time></trkpt><trkpt lat="-28.58503160698304" lon="114.85900711493893"><ele>155.0</ele><time>2026-04-13T07:27:32Z</time></trkpt><trkpt lat="-28.584772629028002" lon="114.85895603301525"><ele>155.0</ele><time>2026-04-13T07:27:33Z</time></trkpt><trkpt lat="-28.58451178763683" lon="114.85890642925996"><ele>158.0</ele><time>2026-04-13T07:27:34Z</time></trkpt><trkpt lat="-28.584251676935647" lon="114.85885769650658"><ele>161.0</ele><time>2026-04-13T07:27:35Z</time></trkpt><trkpt lat="-28.58400401146093" lon="114.85881360533364"><ele>161.0</ele><time>2026-04-13T07:27:36Z</time></trkpt><trkpt lat="-28.583773504583885" lon="114.85877451142835"><ele>161.0</ele><time>2026-04-13T07:27:37Z</time></trkpt><trkpt lat="-28.5835512969541" lon="114.85873553660615"><ele>160.0</ele><time>2026-04-13T07:27:38Z</time></trkpt><trkpt lat="-28.583326691530896" lon="114.85869407230508"><ele>159.0</ele><time>2026-04-13T07:27:39Z</time></trkpt><trkpt lat="-28.583104583242555" lon="114.85864962107466"><ele>159.0</ele><time>2026-04-13T07:27:40Z</time></trkpt><trkpt lat="-28.582878314108886" lon="114.85859974041516"><ele>159.0</ele><time>2026-04-13T07:27:41Z</time></trkpt><trkpt lat="-28.582659131913584" lon="114.85854769699002"><ele>160.0</ele><time>2026-04-13T07:27:42Z</time></trkpt><trkpt lat="-28.582456415418342" lon="114.8584907950096"><ele>161.0</ele><time>2026-04-13T07:27:43Z</time></trkpt><trkpt lat="-28.58228590475272" lon="114.85843721743944"><ele>162.0</ele><time>2026-04-13T07:27:44Z</time></trkpt><trkpt lat="-28.582151789130343" lon="114.85837947579834"><ele>162.5</ele><time>2026-04-13T07:27:45Z</time></trkpt><trkpt lat="-28.582045254985857" lon="114.85830338684231"><ele>163.0</ele><time>2026-04-13T07:27:46Z</time></trkpt><trkpt lat="-28.581957911372978" lon="114.85819801113539"><ele>163.5</ele><time>2026-04-13T07:27:47Z</time></trkpt><trkpt lat="-28.58188581246608" lon="114.85805595345678"><ele>164.0</ele><time>2026-04-13T07:27:48Z</time></trkpt><trkpt lat="-28.581819021924847" lon="114.85789162338435"><ele>166.33333333333331</ele><time>2026-04-13T07:27:49Z</time></trkpt><trkpt lat="-28.58175961371853" lon="114.85771161186372"><ele>168.66666666666666</ele><time>2026-04-13T07:27:50Z</time></trkpt><trkpt lat="-28.581691598667003" lon="114.85752030531842"><ele>171.0</ele><time>2026-04-13T07:27:51Z</time></trkpt><trkpt lat="-28.581606201957136" lon="114.85732936155787"><ele>171.0</ele><time>2026-04-13T07:27:52Z</time></trkpt><trkpt lat="-28.581512835623425" lon="114.85714394232879"><ele>171.0</ele><time>2026-04-13T07:27:53Z</time></trkpt><trkpt lat="-28.581409575877906" lon="114.8569600095529"><ele>171.0</ele><time>2026-04-13T07:27:54Z</time></trkpt><trkpt lat="-28.58128423066715" lon="114.85677336212507"><ele>174.0</ele><time>2026-04-13T07:27:55Z</time></trkpt><trkpt lat="-28.58113612425622" lon="114.85658925892321"><ele>177.0</ele><time>2026-04-13T07:27:56Z</time></trkpt><trkpt lat="-28.58097554426377" lon="114.8563975767549"><ele>177.0</ele><time>2026-04-13T07:27:57Z</time></trkpt><trkpt lat="-28.580806801549056" lon="114.8562008621015"><ele>177.0</ele><time>2026-04-13T07:27:58Z</time></trkpt><trkpt lat="-28.58064608567718" lon="114.85600962881233"><ele>176.0</ele><time>2026-04-13T07:27:59Z</time></trkpt><trkpt lat="-28.58050437455369" lon="114.85582811698141"><ele>175.0</ele><time>2026-04-13T07:28:00Z</time></trkpt><trkpt lat="-28.58038081868822" lon="114.85566591961134"><ele>174.0</ele><time>2026-04-13T07:28:01Z</time></trkpt><trkpt lat="-28.580264186705957" lon="114.8555181530496"><ele>177.0</ele><time>2026-04-13T07:28:02Z</time></trkpt><trkpt lat="-28.58014830409148" lon="114.85539392612097"><ele>180.0</ele><time>2026-04-13T07:28:03Z</time></trkpt><trkpt lat="-28.58001165670927" lon="114.85528239178798"><ele>183.0</ele><time>2026-04-13T07:28:04Z</time></trkpt><trkpt lat="-28.579850204634848" lon="114.85518252305948"><ele>182.33333333333334</ele><time>2026-04-13T07:28:05Z</time></trkpt><trkpt lat="-28.579662059768797" lon="114.8550870736796"><ele>181.66666666666669</ele><time>2026-04-13T07:28:06Z</time></trkpt><trkpt lat="-28.57945442382014" lon="114.85498958949982"><ele>181.0</ele><time>2026-04-13T07:28:07Z</time></trkpt><trkpt lat="-28.579238281930728" lon="114.85488402188578"><ele>181.0</ele><time>2026-04-13T07:28:08Z</time></trkpt><trkpt lat="-28.579015501615917" lon="114.85476846117008"><ele>181.0</ele><time>2026-04-13T07:28:09Z</time></trkpt><trkpt lat="-28.57879392454788" lon="114.85464936518026"><ele>181.0</ele><time>2026-04-13T07:28:10Z</time></trkpt><trkpt lat="-28.578582768490723" lon="114.85453362876143"><ele>181.0</ele><time>2026-04-13T07:28:11Z</time></trkpt><trkpt lat="-28.578372493126498" lon="114.85442099123387"><ele>181.0</ele><time>2026-04-13T07:28:12Z</time></trkpt><trkpt lat="-28.578155234984482" lon="114.85430704856395"><ele>181.0</ele><time>2026-04-13T07:28:13Z</time></trkpt><trkpt lat="-28.577926992166592" lon="114.85418941165426"><ele>179.5</ele><time>2026-04-13T07:28:14Z</time></trkpt><trkpt lat="-28.577688415665257" lon="114.85406506147837"><ele>178.0</ele><time>2026-04-13T07:28:15Z</time></trkpt><trkpt lat="-28.577452728058237" lon="114.85394552701379"><ele>178.0</ele><time>2026-04-13T07:28:16Z</time></trkpt><trkpt lat="-28.577216675518354" lon="114.85382760161129"><ele>178.0</ele><time>2026-04-13T07:28:17Z</time></trkpt><trkpt lat="-28.57699111106681" lon="114.85371820650553"><ele>178.33333333333334</ele><time>2026-04-13T07:28:18Z</time></trkpt><trkpt lat="-28.57678019642853" lon="114.85361634856656"><ele>178.66666666666666</ele><time>2026-04-13T07:28:19Z</time></trkpt><trkpt lat="-28.57658250603895" lon="114.85351858154387"><ele>179.0</ele><time>2026-04-13T07:28:20Z</time></trkpt><trkpt lat="-28.576403437319623" lon="114.85342492723679"><ele>179.0</ele><time>2026-04-13T07:28:21Z</time></trkpt><trkpt lat="-28.57624710374897" lon="114.85333278189617"><ele>179.0</ele><time>2026-04-13T07:28:22Z</time></trkpt><trkpt lat="-28.5761182759676" lon="114.85323824899818"><ele>179.0</ele><time>2026-04-13T07:28:23Z</time></trkpt><trkpt lat="-28.5760187538095" lon="114.85314489432545"><ele>179.25</ele><time>2026-04-13T07:28:24Z</time></trkpt><trkpt lat="-28.575945551975785" lon="114.85304050151754"><ele>179.5</ele><time>2026-04-13T07:28:25Z</time></trkpt><trkpt lat="-28.575879166309942" lon="114.85290375838608"><ele>179.75</ele><time>2026-04-13T07:28:26Z</time></trkpt><trkpt lat="-28.57581155133122" lon="114.85273327909756"><ele>180.0</ele><time>2026-04-13T07:28:27Z</time></trkpt><trkpt lat="-28.575739535037194" lon="114.85254036206912"><ele>180.0</ele><time>2026-04-13T07:28:28Z</time></trkpt><trkpt lat="-28.575658859121617" lon="114.85232482236258"><ele>180.0</ele><time>2026-04-13T07:28:29Z</time></trkpt><trkpt lat="-28.57557011356544" lon="114.8521014348984"><ele>180.0</ele><time>2026-04-13T07:28:30Z</time></trkpt><trkpt lat="-28.575489709212228" lon="114.85189200949203"><ele>180.33333333333334</ele><time>2026-04-13T07:28:31Z</time></trkpt><trkpt lat="-28.575422878977434" lon="114.85169951066811"><ele>180.66666666666669</ele><time>2026-04-13T07:28:32Z</time></trkpt><trkpt lat="-28.57537028430114" lon="114.8514947314269"><ele>181.0</ele><time>2026-04-13T07:28:33Z</time></trkpt><trkpt lat="-28.575334278939625" lon="114.85127595334403"><ele>181.0</ele><time>2026-04-13T07:28:34Z</time></trkpt><trkpt lat="-28.57530694188732" lon="114.8510372906122"><ele>181.0</ele><time>2026-04-13T07:28:35Z</time></trkpt><trkpt lat="-28.575285230616178" lon="114.85079060781347"><ele>181.0</ele><time>2026-04-13T07:28:36Z</time></trkpt><trkpt lat="-28.575264230492465" lon="114.85053375171186"><ele>181.0</ele><time>2026-04-13T07:28:37Z</time></trkpt><trkpt lat="-28.575239989604995" lon="114.85026866277157"><ele>181.0</ele><time>2026-04-13T07:28:38Z</time></trkpt><trkpt lat="-28.575207552439718" lon="114.84999639900694"><ele>180.5</ele><time>2026-04-13T07:28:39Z</time></trkpt><trkpt lat="-28.575170553396216" lon="114.84972002128309"><ele>180.0</ele><time>2026-04-13T07:28:40Z</time></trkpt><trkpt lat="-28.575134987884162" lon="114.84942786336629"><ele>181.0</ele><time>2026-04-13T07:28:41Z</time></trkpt><trkpt lat="-28.575099527100452" lon="114.8491328177527"><ele>182.0</ele><time>2026-04-13T07:28:42Z</time></trkpt><trkpt lat="-28.575066192644154" lon="114.84883069691254"><ele>182.0</ele><time>2026-04-13T07:28:43Z</time></trkpt><trkpt lat="-28.575034493690826" lon="114.84852888821733"><ele>182.0</ele><time>2026-04-13T07:28:44Z</time></trkpt><trkpt lat="-28.575003280962505" lon="114.84822770736152"><ele>184.5</ele><time>2026-04-13T07:28:45Z</time></trkpt><trkpt lat="-28.57497094023562" lon="114.8479302470341"><ele>187.0</ele><time>2026-04-13T07:28:46Z</time></trkpt><trkpt lat="-28.574937098402533" lon="114.84764522437575"><ele>187.5</ele><time>2026-04-13T07:28:47Z</time></trkpt><trkpt lat="-28.574901923830037" lon="114.84736061631585"><ele>188.0</ele><time>2026-04-13T07:28:48Z</time></trkpt><trkpt lat="-28.57486676697958" lon="114.84706924887486"><ele>190.0</ele><time>2026-04-13T07:28:49Z</time></trkpt><trkpt lat="-28.57483132456899" lon="114.84677674341054"><ele>192.0</ele><time>2026-04-13T07:28:50Z</time></trkpt><trkpt lat="-28.57479816767306" lon="114.84647751232417"><ele>192.0</ele><time>2026-04-13T07:28:51Z</time></trkpt><trkpt lat="-28.57476677199129" lon="114.8461796817763"><ele>192.0</ele><time>2026-04-13T07:28:52Z</time></trkpt><trkpt lat="-28.5747346045705" lon="114.84586793539343"><ele>193.0</ele><time>2026-04-13T07:28:53Z</time></trkpt><trkpt lat="-28.57469774531656" lon="114.8455688492963"><ele>194.0</ele><time>2026-04-13T07:28:54Z</time></trkpt><trkpt lat="-28.5746606698675" lon="114.84526051941475"><ele>194.0</ele><time>2026-04-13T07:28:55Z</time></trkpt><trkpt lat="-28.574625952106754" lon="114.84496154396895"><ele>194.0</ele><time>2026-04-13T07:28:56Z</time></trkpt><trkpt lat="-28.57459196692973" lon="114.84467060271994"><ele>194.0</ele><time>2026-04-13T07:28:57Z</time></trkpt><trkpt lat="-28.57456035453342" lon="114.84437777411539"><ele>194.0</ele><time>2026-04-13T07:28:58Z</time></trkpt><trkpt lat="-28.574533731549103" lon="114.84409498293348"><ele>195.0</ele><time>2026-04-13T07:28:59Z</time></trkpt><trkpt lat="-28.574515191045045" lon="114.84384106137469"><ele>196.0</ele><time>2026-04-13T07:29:00Z</time></trkpt><trkpt lat="-28.574508381902653" lon="114.8436013786116"><ele>197.0</ele><time>2026-04-13T07:29:01Z</time></trkpt><trkpt lat="-28.574520668551393" lon="114.84336209321913"><ele>198.0</ele><time>2026-04-13T07:29:02Z</time></trkpt><trkpt lat="-28.574553949935638" lon="114.84311529280856"><ele>199.0</ele><time>2026-04-13T07:29:03Z</time></trkpt><trkpt lat="-28.574603150231788" lon="114.84285958679477"><ele>200.0</ele><time>2026-04-13T07:29:04Z</time></trkpt><trkpt lat="-28.574665890035494" lon="114.84259573909466"><ele>200.0</ele><time>2026-04-13T07:29:05Z</time></trkpt><trkpt lat="-28.574744600483985" lon="114.84232583438263"><ele>200.0</ele><time>2026-04-13T07:29:06Z</time></trkpt><trkpt lat="-28.57483687652563" lon="114.84205243501907"><ele>199.5</ele><time>2026-04-13T07:29:07Z</time></trkpt><trkpt lat="-28.574940480908545" lon="114.84178105122406"><ele>199.0</ele><time>2026-04-13T07:29:08Z</time></trkpt><trkpt lat="-28.575050285181575" lon="114.84150873421625"><ele>199.0</ele><time>2026-04-13T07:29:09Z</time></trkpt><trkpt lat="-28.575159022362204" lon="114.84123733815198"><ele>199.0</ele><time>2026-04-13T07:29:10Z</time></trkpt><trkpt lat="-28.575267747536937" lon="114.84096503527134"><ele>199.5</ele><time>2026-04-13T07:29:11Z</time></trkpt><trkpt lat="-28.57537715098381" lon="114.84069356308967"><ele>200.0</ele><time>2026-04-13T07:29:12Z</time></trkpt><trkpt lat="-28.575480559873398" lon="114.84043041252494"><ele>200.0</ele><time>2026-04-13T07:29:13Z</time></trkpt><trkpt lat="-28.575577990214672" lon="114.84017491642302"><ele>200.0</ele><time>2026-04-13T07:29:14Z</time></trkpt><trkpt lat="-28.575669323187874" lon="114.83992320012163"><ele>199.5</ele><time>2026-04-13T07:29:15Z</time></trkpt><trkpt lat="-28.57574968426563" lon="114.83966140159745"><ele>199.0</ele><time>2026-04-13T07:29:16Z</time></trkpt><trkpt lat="-28.57582203352015" lon="114.83939025961251"><ele>198.5</ele><time>2026-04-13T07:29:17Z</time></trkpt><trkpt lat="-28.57587421271105" lon="114.83911241420637"><ele>198.0</ele><time>2026-04-13T07:29:18Z</time></trkpt><trkpt lat="-28.575908298003526" lon="114.83882656971281"><ele>198.0</ele><time>2026-04-13T07:29:19Z</time></trkpt><trkpt lat="-28.57592535691504" lon="114.83853889758485"><ele>198.0</ele><time>2026-04-13T07:29:20Z</time></trkpt><trkpt lat="-28.575935229055688" lon="114.8382457411064"><ele>199.0</ele><time>2026-04-13T07:29:21Z</time></trkpt><trkpt lat="-28.575942402872464" lon="114.83795571364429"><ele>200.0</ele><time>2026-04-13T07:29:22Z</time></trkpt><trkpt lat="-28.57594882418863" lon="114.83767113581212"><ele>203.5</ele><time>2026-04-13T07:29:23Z</time></trkpt><trkpt lat="-28.57595980988524" lon="114.83739003135545"><ele>207.0</ele><time>2026-04-13T07:29:24Z</time></trkpt><trkpt lat="-28.575975171587903" lon="114.83711557700214"><ele>207.0</ele><time>2026-04-13T07:29:25Z</time></trkpt><trkpt lat="-28.575990579021227" lon="114.83684439890857"><ele>207.0</ele><time>2026-04-13T07:29:26Z</time></trkpt><trkpt lat="-28.576003753844727" lon="114.83657757782372"><ele>205.5</ele><time>2026-04-13T07:29:27Z</time></trkpt><trkpt lat="-28.57601771833742" lon="114.83631311639759"><ele>204.0</ele><time>2026-04-13T07:29:28Z</time></trkpt><trkpt lat="-28.576032149693162" lon="114.83605146235885"><ele>203.5</ele><time>2026-04-13T07:29:29Z</time></trkpt><trkpt lat="-28.576045392007124" lon="114.83578087978727"><ele>203.0</ele><time>2026-04-13T07:29:30Z</time></trkpt><trkpt lat="-28.576056159030404" lon="114.83550458938339"><ele>203.0</ele><time>2026-04-13T07:29:31Z</time></trkpt><trkpt lat="-28.576067418261133" lon="114.8352225733221"><ele>203.0</ele><time>2026-04-13T07:29:32Z</time></trkpt><trkpt lat="-28.57607979510407" lon="114.83493168806865"><ele>204.5</ele><time>2026-04-13T07:29:33Z</time></trkpt><trkpt lat="-28.57608863273998" lon="114.83463378358022"><ele>206.0</ele><time>2026-04-13T07:29:34Z</time></trkpt><trkpt lat="-28.576098779379812" lon="114.83433758302326"><ele>206.0</ele><time>2026-04-13T07:29:35Z</time></trkpt><trkpt lat="-28.576109016299856" lon="114.8340448850355"><ele>206.0</ele><time>2026-04-13T07:29:36Z</time></trkpt><trkpt lat="-28.576120112218984" lon="114.83375150120862"><ele>206.0</ele><time>2026-04-13T07:29:37Z</time></trkpt><trkpt lat="-28.57613108441724" lon="114.83345529415767"><ele>206.0</ele><time>2026-04-13T07:29:38Z</time></trkpt><trkpt lat="-28.576143561846" lon="114.83315549018721"><ele>206.0</ele><time>2026-04-13T07:29:39Z</time></trkpt><trkpt lat="-28.57615702107175" lon="114.83285490516225"><ele>206.0</ele><time>2026-04-13T07:29:40Z</time></trkpt><trkpt lat="-28.576170806713623" lon="114.83255692113178"><ele>207.5</ele><time>2026-04-13T07:29:41Z</time></trkpt><trkpt lat="-28.576184202178382" lon="114.8322567035447"><ele>209.0</ele><time>2026-04-13T07:29:42Z</time></trkpt><trkpt lat="-28.576191176078993" lon="114.83195762550159"><ele>210.5</ele><time>2026-04-13T07:29:43Z</time></trkpt><trkpt lat="-28.576188738430762" lon="114.83165908074528"><ele>212.0</ele><time>2026-04-13T07:29:44Z</time></trkpt><trkpt lat="-28.57617408744853" lon="114.8313582404648"><ele>212.0</ele><time>2026-04-13T07:29:45.001Z</time></trkpt><trkpt lat="-28.576145220883237" lon="114.83106077841117"><ele>212.0</ele><time>2026-04-13T07:29:46.001Z</time></trkpt><trkpt lat="-28.576102937108203" lon="114.8307670518041"><ele>213.5</ele><time>2026-04-13T07:29:47.001Z</time></trkpt><trkpt lat="-28.57605522913353" lon="114.83048168126913"><ele>215.0</ele><time>2026-04-13T07:29:48.001Z</time></trkpt><trkpt lat="-28.576003829951386" lon="114.83020635218107"><ele>217.5</ele><time>2026-04-13T07:29:49.001Z</time></trkpt><trkpt lat="-28.57595010518665" lon="114.82993496673876"><ele>220.0</ele><time>2026-04-13T07:29:50.001Z</time></trkpt><trkpt lat="-28.575941631161538" lon="114.82965410223518"><ele>220.0</ele><time>2026-04-13T07:29:51.001Z</time></trkpt><trkpt lat="-28.575875100277273" lon="114.82939873028447"><ele>220.0</ele><time>2026-04-13T07:29:52.001Z</time></trkpt><trkpt lat="-28.57579759069461" lon="114.82916693945499"><ele>220.0</ele><time>2026-04-13T07:29:53.001Z</time></trkpt><trkpt lat="-28.57569603589343" lon="114.82891957520103"><ele>220.0</ele><time>2026-04-13T07:29:54.001Z</time></trkpt><trkpt lat="-28.575571555137465" lon="114.82865693432451"><ele>219.0</ele><time>2026-04-13T07:29:55.001Z</time></trkpt><trkpt lat="-28.575438691908463" lon="114.82839228732914"><ele>218.0</ele><time>2026-04-13T07:29:56.001Z</time></trkpt><trkpt lat="-28.575305164395743" lon="114.82812398952302"><ele>218.0</ele><time>2026-04-13T07:29:57.001Z</time></trkpt><trkpt lat="-28.575169115191738" lon="114.82785217468115"><ele>218.0</ele><time>2026-04-13T07:29:58.001Z</time></trkpt><trkpt lat="-28.575031899729364" lon="114.82758089946412"><ele>216.5</ele><time>2026-04-13T07:29:59.001Z</time></trkpt><trkpt lat="-28.574891676307097" lon="114.82730500881527"><ele>215.0</ele><time>2026-04-13T07:30:00.001Z</time></trkpt><trkpt lat="-28.574755796480897" lon="114.82702766907633"><ele>214.0</ele><time>2026-04-13T07:30:01.001Z</time></trkpt><trkpt lat="-28.57461921787212" lon="114.82674612806416"><ele>213.0</ele><time>2026-04-13T07:30:02.001Z</time></trkpt><trkpt lat="-28.574480191572942" lon="114.82646224814937"><ele>213.0</ele><time>2026-04-13T07:30:03.001Z</time></trkpt><trkpt lat="-28.57434072735429" lon="114.82617854827134"><ele>213.0</ele><time>2026-04-13T07:30:04.001Z</time></trkpt><trkpt lat="-28.574197337971313" lon="114.8258894258574"><ele>211.0</ele><time>2026-04-13T07:30:05.001Z</time></trkpt><trkpt lat="-28.57405479932857" lon="114.82559875600694"><ele>209.0</ele><time>2026-04-13T07:30:06.001Z</time></trkpt><trkpt lat="-28.573912739175718" lon="114.82531140645982"><ele>208.5</ele><time>2026-04-13T07:30:07.001Z</time></trkpt><trkpt lat="-28.57376971773838" lon="114.82502036016396"><ele>208.0</ele><time>2026-04-13T07:30:08.001Z</time></trkpt><trkpt lat="-28.573624955749775" lon="114.82471844590815"><ele>207.5</ele><time>2026-04-13T07:30:09.001Z</time></trkpt><trkpt lat="-28.573481722821196" lon="114.82441632150022"><ele>207.0</ele><time>2026-04-13T07:30:10.001Z</time></trkpt><trkpt lat="-28.573343603555145" lon="114.8241223737182"><ele>207.0</ele><time>2026-04-13T07:30:11.001Z</time></trkpt><trkpt lat="-28.573209303442635" lon="114.82383994265108"><ele>207.0</ele><time>2026-04-13T07:30:12.001Z</time></trkpt><trkpt lat="-28.573079726743366" lon="114.82356758873901"><ele>207.5</ele><time>2026-04-13T07:30:13.001Z</time></trkpt><trkpt lat="-28.572955122781558" lon="114.82330742339856"><ele>208.0</ele><time>2026-04-13T07:30:14.001Z</time></trkpt><trkpt lat="-28.572833368619108" lon="114.82305320826653"><ele>208.0</ele><time>2026-04-13T07:30:15.001Z</time></trkpt><trkpt lat="-28.57271156961082" lon="114.82280130754842"><ele>208.0</ele><time>2026-04-13T07:30:16.001Z</time></trkpt><trkpt lat="-28.572585620448333" lon="114.82254265808663"><ele>206.0</ele><time>2026-04-13T07:30:17.001Z</time></trkpt><trkpt lat="-28.572458054334298" lon="114.82227930667597"><ele>204.0</ele><time>2026-04-13T07:30:18.001Z</time></trkpt><trkpt lat="-28.57233138325104" lon="114.82201707354493"><ele>201.0</ele><time>2026-04-13T07:30:19.001Z</time></trkpt><trkpt lat="-28.572202847288818" lon="114.82175117529651"><ele>198.0</ele><time>2026-04-13T07:30:20.001Z</time></trkpt><trkpt lat="-28.572073915554178" lon="114.82149008572117"><ele>199.5</ele><time>2026-04-13T07:30:21.001Z</time></trkpt><trkpt lat="-28.5719512105403" lon="114.82123540533591"><ele>201.0</ele><time>2026-04-13T07:30:22.001Z</time></trkpt><trkpt lat="-28.571841632295808" lon="114.82099829388734"><ele>200.33333333333331</ele><time>2026-04-13T07:30:23.001Z</time></trkpt><trkpt lat="-28.57174101525191" lon="114.82077294272936"><ele>199.66666666666666</ele><time>2026-04-13T07:30:24Z</time></trkpt><trkpt lat="-28.571642344046747" lon="114.82055886995241"><ele>199.0</ele><time>2026-04-13T07:30:25Z</time></trkpt><trkpt lat="-28.571546841056044" lon="114.82036425634799"><ele>199.0</ele><time>2026-04-13T07:30:26Z</time></trkpt><trkpt lat="-28.571455107317743" lon="114.82018172942797"><ele>199.0</ele><time>2026-04-13T07:30:27Z</time></trkpt><trkpt lat="-28.5713666556147" lon="114.82000728757761"><ele>199.0</ele><time>2026-04-13T07:30:28Z</time></trkpt><trkpt lat="-28.57128238925213" lon="114.8198410999375"><ele>199.25</ele><time>2026-04-13T07:30:29Z</time></trkpt><trkpt lat="-28.571205178341092" lon="114.8196830430758"><ele>199.5</ele><time>2026-04-13T07:30:30Z</time></trkpt><trkpt lat="-28.57113829839798" lon="114.8195405243404"><ele>199.75</ele><time>2026-04-13T07:30:31Z</time></trkpt><trkpt lat="-28.571074353465296" lon="114.8194078308878"><ele>200.0</ele><time>2026-04-13T07:30:32Z</time></trkpt><trkpt lat="-28.571010047310853" lon="114.81928572655711"><ele>200.6</ele><time>2026-04-13T07:30:33Z</time></trkpt><trkpt lat="-28.570943704975928" lon="114.81918871507523"><ele>201.2</ele><time>2026-04-13T07:30:34Z</time></trkpt><trkpt lat="-28.570899439178383" lon="114.81909558457933"><ele>201.8</ele><time>2026-04-13T07:30:35Z</time></trkpt><trkpt lat="-28.570856186033097" lon="114.81902050754536"><ele>202.4</ele><time>2026-04-13T07:30:36Z</time></trkpt><trkpt lat="-28.57081913431953" lon="114.8189569725046"><ele>203.0</ele><time>2026-04-13T07:30:37Z</time></trkpt><trkpt lat="-28.570758877285613" lon="114.81885831570429"><ele>203.0</ele><time>2026-04-13T07:30:39Z</time></trkpt><trkpt lat="-28.570701472769546" lon="114.81878972044264"><ele>203.0</ele><time>2026-04-13T07:38:47.001Z</time></trkpt><trkpt lat="-28.57059383541481" lon="114.81869220189306"><ele>203.0</ele><time>2026-04-13T07:38:49.001Z</time></trkpt><trkpt lat="-28.57052995948604" lon="114.81864310386082"><ele>203.0</ele><time>2026-04-13T07:38:50.001Z</time></trkpt><trkpt lat="-28.57047014743161" lon="114.8185565950177"><ele>203.0</ele><time>2026-04-13T07:38:51.001Z</time></trkpt><trkpt lat="-28.570389170848788" lon="114.81847811448647"><ele>201.66666666666669</ele><time>2026-04-13T07:38:52.001Z</time></trkpt><trkpt lat="-28.570288308105308" lon="114.81838216576631"><ele>200.33333333333331</ele><time>2026-04-13T07:38:53.001Z</time></trkpt><trkpt lat="-28.570163766769717" lon="114.81826522942842"><ele>199.0</ele><time>2026-04-13T07:38:54.001Z</time></trkpt><trkpt lat="-28.57003230180325" lon="114.81814359814679"><ele>199.0</ele><time>2026-04-13T07:38:55.001Z</time></trkpt><trkpt lat="-28.569888171747838" lon="114.81801006323094"><ele>199.0</ele><time>2026-04-13T07:38:56.001Z</time></trkpt><trkpt lat="-28.56972967357073" lon="114.8178619534121"><ele>199.0</ele><time>2026-04-13T07:38:57.001Z</time></trkpt><trkpt lat="-28.5695674608954" lon="114.81771171043776"><ele>197.0</ele><time>2026-04-13T07:38:58.001Z</time></trkpt><trkpt lat="-28.569407224956745" lon="114.81756377950012"><ele>195.0</ele><time>2026-04-13T07:38:59.001Z</time></trkpt><trkpt lat="-28.569235108292744" lon="114.81740502263592"><ele>193.0</ele><time>2026-04-13T07:39:00.001Z</time></trkpt><trkpt lat="-28.569061130735502" lon="114.81724473812562"><ele>193.0</ele><time>2026-04-13T07:39:01.001Z</time></trkpt><trkpt lat="-28.568886037178366" lon="114.81708254268332"><ele>193.0</ele><time>2026-04-13T07:39:02.001Z</time></trkpt><trkpt lat="-28.568702560530046" lon="114.81691306151441"><ele>190.0</ele><time>2026-04-13T07:39:03.001Z</time></trkpt><trkpt lat="-28.568508475015346" lon="114.81673371727956"><ele>187.0</ele><time>2026-04-13T07:39:04.001Z</time></trkpt><trkpt lat="-28.568314169687994" lon="114.81655270883893"><ele>187.0</ele><time>2026-04-13T07:39:05.001Z</time></trkpt><trkpt lat="-28.56812028376424" lon="114.8163720996183"><ele>187.0</ele><time>2026-04-13T07:39:06.001Z</time></trkpt><trkpt lat="-28.567928938195102" lon="114.81619613003197"><ele>187.0</ele><time>2026-04-13T07:39:07.001Z</time></trkpt><trkpt lat="-28.56772997569457" lon="114.81603666646207"><ele>187.0</ele><time>2026-04-13T07:39:08.001Z</time></trkpt><trkpt lat="-28.56754738894902" lon="114.81586502627555"><ele>186.0</ele><time>2026-04-13T07:39:09.001Z</time></trkpt><trkpt lat="-28.56736989906284" lon="114.81569938441064"><ele>185.0</ele><time>2026-04-13T07:39:10.001Z</time></trkpt><trkpt lat="-28.567204942624613" lon="114.81554312011745"><ele>184.0</ele><time>2026-04-13T07:39:11.001Z</time></trkpt><trkpt lat="-28.567046255666508" lon="114.81539636235141"><ele>184.0</ele><time>2026-04-13T07:39:12.001Z</time></trkpt><trkpt lat="-28.566892895157412" lon="114.81525771294078"><ele>184.0</ele><time>2026-04-13T07:39:13.001Z</time></trkpt><trkpt lat="-28.56676163303881" lon="114.81511160967807"><ele>184.0</ele><time>2026-04-13T07:39:14.001Z</time></trkpt><trkpt lat="-28.56662087830271" lon="114.81498189127896"><ele>183.0</ele><time>2026-04-13T07:39:15.001Z</time></trkpt><trkpt lat="-28.56647938716251" lon="114.81484792636854"><ele>182.0</ele><time>2026-04-13T07:39:16.001Z</time></trkpt><trkpt lat="-28.566347539797164" lon="114.81469429677861"><ele>181.0</ele><time>2026-04-13T07:39:17.001Z</time></trkpt><trkpt lat="-28.566226012519053" lon="114.8145317933152"><ele>180.66666666666669</ele><time>2026-04-13T07:39:18.001Z</time></trkpt><trkpt lat="-28.566111646426997" lon="114.81435316547817"><ele>180.33333333333334</ele><time>2026-04-13T07:39:19.001Z</time></trkpt><trkpt lat="-28.5660113526756" lon="114.81415928331718"><ele>180.0</ele><time>2026-04-13T07:39:20.001Z</time></trkpt><trkpt lat="-28.565924237684015" lon="114.81394362500471"><ele>179.33333333333334</ele><time>2026-04-13T07:39:21.001Z</time></trkpt><trkpt lat="-28.565841396440053" lon="114.8137146874157"><ele>178.66666666666669</ele><time>2026-04-13T07:39:22.001Z</time></trkpt><trkpt lat="-28.56575387180411" lon="114.81347612045579"><ele>178.0</ele><time>2026-04-13T07:39:23.001Z</time></trkpt><trkpt lat="-28.5656658359981" lon="114.81323443010318"><ele>177.5</ele><time>2026-04-13T07:39:24.001Z</time></trkpt><trkpt lat="-28.5655766810102" lon="114.81298845445632"><ele>177.0</ele><time>2026-04-13T07:39:25.001Z</time></trkpt><trkpt lat="-28.565489532302077" lon="114.81274498794342"><ele>175.5</ele><time>2026-04-13T07:39:26.001Z</time></trkpt><trkpt lat="-28.565404052201597" lon="114.81250240850937"><ele>174.0</ele><time>2026-04-13T07:39:27.001Z</time></trkpt><trkpt lat="-28.565320553015788" lon="114.81226867339194"><ele>174.0</ele><time>2026-04-13T07:39:28.001Z</time></trkpt><trkpt lat="-28.565241277565274" lon="114.81206119068837"><ele>174.0</ele><time>2026-04-13T07:39:29.001Z</time></trkpt><trkpt lat="-28.56515758230854" lon="114.81185111594938"><ele>174.0</ele><time>2026-04-13T07:39:30.001Z</time></trkpt><trkpt lat="-28.565058381205496" lon="114.81164162415305"><ele>174.0</ele><time>2026-04-13T07:39:31.001Z</time></trkpt><trkpt lat="-28.56494050276795" lon="114.81143640377992"><ele>174.0</ele><time>2026-04-13T07:39:32.001Z</time></trkpt><trkpt lat="-28.564800280647997" lon="114.81124025537267"><ele>174.0</ele><time>2026-04-13T07:39:33.001Z</time></trkpt><trkpt lat="-28.564651669948677" lon="114.81107624597439"><ele>173.66666666666666</ele><time>2026-04-13T07:39:34.001Z</time></trkpt><trkpt lat="-28.56448320775997" lon="114.8109659607738"><ele>173.33333333333331</ele><time>2026-04-13T07:39:35.001Z</time></trkpt><trkpt lat="-28.564318792483043" lon="114.81083388967379"><ele>173.0</ele><time>2026-04-13T07:39:36.001Z</time></trkpt><trkpt lat="-28.564127777620733" lon="114.8107153476873"><ele>173.0</ele><time>2026-04-13T07:39:37.001Z</time></trkpt><trkpt lat="-28.5639292198422" lon="114.81059315126969"><ele>173.0</ele><time>2026-04-13T07:39:38.001Z</time></trkpt><trkpt lat="-28.563731072947387" lon="114.81046676528582"><ele>172.5</ele><time>2026-04-13T07:39:39.001Z</time></trkpt><trkpt lat="-28.563527519055846" lon="114.81033467248629"><ele>172.0</ele><time>2026-04-13T07:39:40.001Z</time></trkpt><trkpt lat="-28.563321586774595" lon="114.81020103629756"><ele>172.0</ele><time>2026-04-13T07:39:41.001Z</time></trkpt><trkpt lat="-28.563110195754735" lon="114.81006678543073"><ele>172.0</ele><time>2026-04-13T07:39:42.001Z</time></trkpt><trkpt lat="-28.562890797271468" lon="114.80993388429013"><ele>171.0</ele><time>2026-04-13T07:39:43.001Z</time></trkpt><trkpt lat="-28.562668808408223" lon="114.80979969500372"><ele>170.0</ele><time>2026-04-13T07:39:44.001Z</time></trkpt><trkpt lat="-28.562447415734603" lon="114.80966439593183"><ele>170.0</ele><time>2026-04-13T07:39:45.001Z</time></trkpt><trkpt lat="-28.56221795756066" lon="114.80954218778267"><ele>170.0</ele><time>2026-04-13T07:39:46.001Z</time></trkpt><trkpt lat="-28.562006008997898" lon="114.80938874567155"><ele>169.0</ele><time>2026-04-13T07:39:47.001Z</time></trkpt><trkpt lat="-28.561794725053936" lon="114.80925397651576"><ele>168.0</ele><time>2026-04-13T07:39:48.001Z</time></trkpt><trkpt lat="-28.561597280744184" lon="114.80912719516066"><ele>168.0</ele><time>2026-04-13T07:39:49.001Z</time></trkpt><trkpt lat="-28.561406993769165" lon="114.80900483961511"><ele>168.0</ele><time>2026-04-13T07:39:50.001Z</time></trkpt><trkpt lat="-28.561214154213598" lon="114.80888218384592"><ele>168.0</ele><time>2026-04-13T07:39:51.001Z</time></trkpt><trkpt lat="-28.56101866329217" lon="114.80876097631524"><ele>167.33333333333334</ele><time>2026-04-13T07:39:52.001Z</time></trkpt><trkpt lat="-28.560826655624137" lon="114.80864482417505"><ele>166.66666666666669</ele><time>2026-04-13T07:39:53.001Z</time></trkpt><trkpt lat="-28.560630482838427" lon="114.80854067240632"><ele>166.0</ele><time>2026-04-13T07:39:54.001Z</time></trkpt><trkpt lat="-28.560444614323355" lon="114.80842482227408"><ele>165.0</ele><time>2026-04-13T07:39:55.001Z</time></trkpt><trkpt lat="-28.560260383771915" lon="114.80828506253796"><ele>164.0</ele><time>2026-04-13T07:39:56.001Z</time></trkpt><trkpt lat="-28.560058788631295" lon="114.80815257001873"><ele>164.0</ele><time>2026-04-13T07:39:57.001Z</time></trkpt><trkpt lat="-28.55984546224207" lon="114.80801313215213"><ele>164.0</ele><time>2026-04-13T07:39:58.001Z</time></trkpt><trkpt lat="-28.55963285399334" lon="114.80788185835543"><ele>163.33333333333331</ele><time>2026-04-13T07:39:59.001Z</time></trkpt><trkpt lat="-28.55943521647597" lon="114.80776263845219"><ele>162.66666666666666</ele><time>2026-04-13T07:40:00.001Z</time></trkpt><trkpt lat="-28.559245862911105" lon="114.8076505015868"><ele>162.0</ele><time>2026-04-13T07:40:01.001Z</time></trkpt><trkpt lat="-28.559071865922906" lon="114.80754441702634"><ele>161.0</ele><time>2026-04-13T07:40:02.001Z</time></trkpt><trkpt lat="-28.55892118498151" lon="114.80745280589733"><ele>160.0</ele><time>2026-04-13T07:40:03.001Z</time></trkpt><trkpt lat="-28.55879315601124" lon="114.80737571578038"><ele>159.0</ele><time>2026-04-13T07:40:04.001Z</time></trkpt><trkpt lat="-28.55868445838158" lon="114.80731298691042"><ele>158.0</ele><time>2026-04-13T07:40:05.001Z</time></trkpt><trkpt lat="-28.558598837791287" lon="114.8072646711967"><ele>157.4</ele><time>2026-04-13T07:40:06.001Z</time></trkpt><trkpt lat="-28.558531502261104" lon="114.80722809160498"><ele>156.8</ele><time>2026-04-13T07:40:07.001Z</time></trkpt><trkpt lat="-28.55846476690531" lon="114.80719095317164"><ele>156.2</ele><time>2026-04-13T07:40:08.001Z</time></trkpt><trkpt lat="-28.55840998926344" lon="114.80714111251166"><ele>155.6</ele><time>2026-04-13T07:40:09.001Z</time></trkpt><trkpt lat="-28.558331745341064" lon="114.8070929110743"><ele>155.0</ele><time>2026-04-13T07:40:11.001Z</time></trkpt><trkpt lat="-28.558410432165466" lon="114.80679742820985"><ele>154.5</ele><time>2026-04-13T07:40:12.001Z</time></trkpt><trkpt lat="-28.558395288342766" lon="114.80666445634802"><ele>154.0</ele><time>2026-04-13T07:40:13.001Z</time></trkpt><trkpt lat="-28.558369095850864" lon="114.80650609009452"><ele>153.5</ele><time>2026-04-13T07:40:14.001Z</time></trkpt><trkpt lat="-28.558340467923184" lon="114.8063221215225"><ele>153.0</ele><time>2026-04-13T07:40:15.001Z</time></trkpt><trkpt lat="-28.558310732111803" lon="114.80611375249286"><ele>152.33333333333334</ele><time>2026-04-13T07:40:16.001Z</time></trkpt><trkpt lat="-28.558278844538332" lon="114.8058883606513"><ele>151.66666666666669</ele><time>2026-04-13T07:40:17.001Z</time></trkpt><trkpt lat="-28.55824886823048" lon="114.80565812888027"><ele>151.0</ele><time>2026-04-13T07:40:18.001Z</time></trkpt><trkpt lat="-28.55821864614216" lon="114.80542460030588"><ele>151.0</ele><time>2026-04-13T07:40:19.001Z</time></trkpt><trkpt lat="-28.558183976894913" lon="114.80518291162564"><ele>151.0</ele><time>2026-04-13T07:40:20.001Z</time></trkpt><trkpt lat="-28.55814915112734" lon="114.80493541397597"><ele>151.0</ele><time>2026-04-13T07:40:21.001Z</time></trkpt><trkpt lat="-28.558116392628296" lon="114.80467985393958"><ele>151.0</ele><time>2026-04-13T07:40:22.001Z</time></trkpt><trkpt lat="-28.558079965016855" lon="114.80442170868673"><ele>151.0</ele><time>2026-04-13T07:40:23.001Z</time></trkpt><trkpt lat="-28.558049558310582" lon="114.80416857216436"><ele>151.66666666666669</ele><time>2026-04-13T07:40:24.001Z</time></trkpt><trkpt lat="-28.558026769024686" lon="114.80393131674175"><ele>152.33333333333334</ele><time>2026-04-13T07:40:25.001Z</time></trkpt><trkpt lat="-28.558005079213775" lon="114.80371118213485"><ele>153.0</ele><time>2026-04-13T07:40:26.001Z</time></trkpt><trkpt lat="-28.557982120206823" lon="114.8035058421748"><ele>152.33333333333334</ele><time>2026-04-13T07:40:27.001Z</time></trkpt><trkpt lat="-28.557962390498783" lon="114.80329697235598"><ele>151.66666666666669</ele><time>2026-04-13T07:40:28.001Z</time></trkpt><trkpt lat="-28.557946332207248" lon="114.80307930779446"><ele>151.0</ele><time>2026-04-13T07:40:29.001Z</time></trkpt><trkpt lat="-28.557931411658462" lon="114.80285193280248"><ele>150.33333333333334</ele><time>2026-04-13T07:40:30.001Z</time></trkpt><trkpt lat="-28.557925077431005" lon="114.8026130609028"><ele>149.66666666666666</ele><time>2026-04-13T07:40:31.001Z</time></trkpt><trkpt lat="-28.55792381745308" lon="114.80236704460016"><ele>149.0</ele><time>2026-04-13T07:40:32.001Z</time></trkpt><trkpt lat="-28.557925976936573" lon="114.80211280899027"><ele>149.0</ele><time>2026-04-13T07:40:33.001Z</time></trkpt><trkpt lat="-28.55792906576957" lon="114.80185078637537"><ele>149.0</ele><time>2026-04-13T07:40:34.001Z</time></trkpt><trkpt lat="-28.557930169403427" lon="114.80158589627625"><ele>149.5</ele><time>2026-04-13T07:40:35.001Z</time></trkpt><trkpt lat="-28.5579295651698" lon="114.80131792492736"><ele>150.0</ele><time>2026-04-13T07:40:36.001Z</time></trkpt><trkpt lat="-28.557927088629505" lon="114.80105115719789"><ele>150.0</ele><time>2026-04-13T07:40:37.001Z</time></trkpt><trkpt lat="-28.557925206839695" lon="114.80078274156199"><ele>150.0</ele><time>2026-04-13T07:40:38.001Z</time></trkpt><trkpt lat="-28.557922759685354" lon="114.80051505136215"><ele>150.0</ele><time>2026-04-13T07:40:39.001Z</time></trkpt><trkpt lat="-28.557921089405404" lon="114.80024595568311"><ele>150.0</ele><time>2026-04-13T07:40:40.001Z</time></trkpt><trkpt lat="-28.557919141826474" lon="114.79997594535816"><ele>150.0</ele><time>2026-04-13T07:40:41.001Z</time></trkpt><trkpt lat="-28.557921322234876" lon="114.79972131331624"><ele>150.0</ele><time>2026-04-13T07:40:42.001Z</time></trkpt><trkpt lat="-28.557922587939714" lon="114.7994981393626"><ele>150.0</ele><time>2026-04-13T07:40:43.001Z</time></trkpt><trkpt lat="-28.557921261596185" lon="114.79932001605785"><ele>150.0</ele><time>2026-04-13T07:40:44.001Z</time></trkpt><trkpt lat="-28.557916704270635" lon="114.79918797233236"><ele>150.0</ele><time>2026-04-13T07:40:45.001Z</time></trkpt><trkpt lat="-28.557902278251436" lon="114.79909374605268"><ele>150.0</ele><time>2026-04-13T07:40:46.001Z</time></trkpt><trkpt lat="-28.55786880101008" lon="114.79902823328601"><ele>150.0</ele><time>2026-04-13T07:40:47.001Z</time></trkpt><trkpt lat="-28.55781000857236" lon="114.79898692738023"><ele>150.0</ele><time>2026-04-13T07:40:48.001Z</time></trkpt><trkpt lat="-28.55770391361063" lon="114.7989208114489"><ele>150.5</ele><time>2026-04-13T07:40:50.001Z</time></trkpt><trkpt lat="-28.557603860129177" lon="114.79887536491778"><ele>151.0</ele><time>2026-04-13T07:40:52.001Z</time></trkpt><trkpt lat="-28.557516036797864" lon="114.79883920825473"><ele>151.5</ele><time>2026-04-13T07:40:54Z</time></trkpt><trkpt lat="-28.557453463422544" lon="114.79881599053768"><ele>152.0</ele><time>2026-04-13T07:40:56Z</time></trkpt><trkpt lat="-28.557356328369114" lon="114.79876998651278"><ele>152.5</ele><time>2026-04-13T07:41:14Z</time></trkpt><trkpt lat="-28.557290341674026" lon="114.7987442342577"><ele>153.0</ele><time>2026-04-13T07:41:15Z</time></trkpt><trkpt lat="-28.557199189685296" lon="114.79871265488329"><ele>153.0</ele><time>2026-04-13T07:41:16Z</time></trkpt><trkpt lat="-28.557087422963697" lon="114.79867336314287"><ele>153.0</ele><time>2026-04-13T07:41:17Z</time></trkpt><trkpt lat="-28.55696826115066" lon="114.79863715513991"><ele>153.0</ele><time>2026-04-13T07:41:18Z</time></trkpt><trkpt lat="-28.556831749758313" lon="114.79856942783053"><ele>153.0</ele><time>2026-04-13T07:41:19Z</time></trkpt><trkpt lat="-28.556675127885644" lon="114.79850843032449"><ele>154.0</ele><time>2026-04-13T07:41:20Z</time></trkpt><trkpt lat="-28.55650531810327" lon="114.7984461297916"><ele>155.0</ele><time>2026-04-13T07:41:21Z</time></trkpt><trkpt lat="-28.556316203620185" lon="114.79837310679666"><ele>156.0</ele><time>2026-04-13T07:41:22Z</time></trkpt><trkpt lat="-28.55611544764454" lon="114.79828776289368"><ele>157.33333333333334</ele><time>2026-04-13T07:41:23Z</time></trkpt><trkpt lat="-28.555911370200565" lon="114.79820333668825"><ele>158.66666666666669</ele><time>2026-04-13T07:41:24Z</time></trkpt><trkpt lat="-28.555692913387123" lon="114.79811387436706"><ele>160.0</ele><time>2026-04-13T07:41:25Z</time></trkpt><trkpt lat="-28.55545895786674" lon="114.7980177119931"><ele>160.0</ele><time>2026-04-13T07:41:26Z</time></trkpt><trkpt lat="-28.55520570523017" lon="114.79791620505421"><ele>160.0</ele><time>2026-04-13T07:41:27Z</time></trkpt><trkpt lat="-28.554949465460325" lon="114.7978159572677"><ele>160.0</ele><time>2026-04-13T07:41:28Z</time></trkpt><trkpt lat="-28.55468380110575" lon="114.79771084584343"><ele>160.0</ele><time>2026-04-13T07:41:29Z</time></trkpt><trkpt lat="-28.554409811021532" lon="114.7976011570068"><ele>160.5</ele><time>2026-04-13T07:41:30Z</time></trkpt><trkpt lat="-28.554135133344516" lon="114.79748769119195"><ele>161.0</ele><time>2026-04-13T07:41:31Z</time></trkpt><trkpt lat="-28.553877399474413" lon="114.79738473850973"><ele>163.5</ele><time>2026-04-13T07:41:32Z</time></trkpt><trkpt lat="-28.553644862206895" lon="114.79729620569492"><ele>166.0</ele><time>2026-04-13T07:41:33Z</time></trkpt><trkpt lat="-28.553415145772288" lon="114.79719974152242"><ele>166.0</ele><time>2026-04-13T07:41:34Z</time></trkpt><trkpt lat="-28.55318318760228" lon="114.79710501013213"><ele>166.0</ele><time>2026-04-13T07:41:35Z</time></trkpt><trkpt lat="-28.552963173900316" lon="114.79701599487674"><ele>166.0</ele><time>2026-04-13T07:41:36Z</time></trkpt><trkpt lat="-28.552745129284958" lon="114.79692114145845"><ele>166.0</ele><time>2026-04-13T07:41:37Z</time></trkpt><trkpt lat="-28.55253941962832" lon="114.79681461475722"><ele>166.0</ele><time>2026-04-13T07:41:38Z</time></trkpt><trkpt lat="-28.552331817111707" lon="114.79669369814884"><ele>166.0</ele><time>2026-04-13T07:41:39Z</time></trkpt><trkpt lat="-28.55213434676145" lon="114.79655041975715"><ele>167.0</ele><time>2026-04-13T07:41:40Z</time></trkpt><trkpt lat="-28.551939778322343" lon="114.79639775642035"><ele>168.0</ele><time>2026-04-13T07:41:41Z</time></trkpt><trkpt lat="-28.551739084328158" lon="114.79624309244497"><ele>168.0</ele><time>2026-04-13T07:41:42Z</time></trkpt><trkpt lat="-28.55153219902015" lon="114.79609071101646"><ele>168.0</ele><time>2026-04-13T07:41:43Z</time></trkpt><trkpt lat="-28.551322221202724" lon="114.79594453002072"><ele>169.0</ele><time>2026-04-13T07:41:44Z</time></trkpt><trkpt lat="-28.551119938272734" lon="114.79578908678442"><ele>170.0</ele><time>2026-04-13T07:41:45Z</time></trkpt><trkpt lat="-28.5509252558908" lon="114.7956368597967"><ele>170.0</ele><time>2026-04-13T07:41:46Z</time></trkpt><trkpt lat="-28.55073683430823" lon="114.79549404713154"><ele>170.0</ele><time>2026-04-13T07:41:47Z</time></trkpt><trkpt lat="-28.55055571298029" lon="114.79535628680823"><ele>170.0</ele><time>2026-04-13T07:41:48Z</time></trkpt><trkpt lat="-28.55037842129324" lon="114.79522069064777"><ele>169.66666666666666</ele><time>2026-04-13T07:41:49Z</time></trkpt><trkpt lat="-28.550200260801386" lon="114.7950804465849"><ele>169.33333333333334</ele><time>2026-04-13T07:41:50Z</time></trkpt><trkpt lat="-28.550016876381378" lon="114.79493707872784"><ele>169.0</ele><time>2026-04-13T07:41:51Z</time></trkpt><trkpt lat="-28.54981980029169" lon="114.79479831036667"><ele>169.0</ele><time>2026-04-13T07:41:52Z</time></trkpt><trkpt lat="-28.54962298902607" lon="114.79465745065504"><ele>169.0</ele><time>2026-04-13T07:41:53Z</time></trkpt><trkpt lat="-28.54942530182103" lon="114.79450395545557"><ele>168.0</ele><time>2026-04-13T07:41:54Z</time></trkpt><trkpt lat="-28.54921794081601" lon="114.79434465912438"><ele>167.0</ele><time>2026-04-13T07:41:55Z</time></trkpt><trkpt lat="-28.54900891825466" lon="114.79418933221656"><ele>166.5</ele><time>2026-04-13T07:41:56Z</time></trkpt><trkpt lat="-28.54878704733694" lon="114.7940439430787"><ele>166.0</ele><time>2026-04-13T07:41:57Z</time></trkpt><trkpt lat="-28.548556954331392" lon="114.79390298996688"><ele>165.5</ele><time>2026-04-13T07:41:58Z</time></trkpt><trkpt lat="-28.548321596166968" lon="114.7937708973617"><ele>165.0</ele><time>2026-04-13T07:41:59Z</time></trkpt><trkpt lat="-28.548085340431108" lon="114.79364366349863"><ele>165.0</ele><time>2026-04-13T07:42:00Z</time></trkpt><trkpt lat="-28.547843100452354" lon="114.79352308411575"><ele>165.0</ele><time>2026-04-13T07:42:01Z</time></trkpt><trkpt lat="-28.54759897685579" lon="114.79340441847052"><ele>165.5</ele><time>2026-04-13T07:42:02Z</time></trkpt><trkpt lat="-28.54735144144501" lon="114.7932824953718"><ele>166.0</ele><time>2026-04-13T07:42:03Z</time></trkpt><trkpt lat="-28.547107954760932" lon="114.79315976688339"><ele>166.5</ele><time>2026-04-13T07:42:04Z</time></trkpt><trkpt lat="-28.546856740853535" lon="114.79303319969783"><ele>167.0</ele><time>2026-04-13T07:42:05Z</time></trkpt><trkpt lat="-28.546605115190587" lon="114.79290656335057"><ele>167.0</ele><time>2026-04-13T07:42:06Z</time></trkpt><trkpt lat="-28.54635187607526" lon="114.79277581428379"><ele>167.0</ele><time>2026-04-13T07:42:07Z</time></trkpt><trkpt lat="-28.546093706175576" lon="114.79264062866949"><ele>168.5</ele><time>2026-04-13T07:42:08Z</time></trkpt><trkpt lat="-28.54583528658324" lon="114.79250534873239"><ele>170.0</ele><time>2026-04-13T07:42:09Z</time></trkpt><trkpt lat="-28.545576823585193" lon="114.79237006037579"><ele>171.5</ele><time>2026-04-13T07:42:10Z</time></trkpt><trkpt lat="-28.54531912005379" lon="114.79223818592855"><ele>173.0</ele><time>2026-04-13T07:42:11Z</time></trkpt><trkpt lat="-28.545045752791157" lon="114.79215697126526"><ele>173.0</ele><time>2026-04-13T07:42:12Z</time></trkpt><trkpt lat="-28.544790778339816" lon="114.79202803928071"><ele>173.0</ele><time>2026-04-13T07:42:13Z</time></trkpt><trkpt lat="-28.54453436151943" lon="114.79189730449387"><ele>175.5</ele><time>2026-04-13T07:42:14Z</time></trkpt><trkpt lat="-28.544291560240158" lon="114.79177530677316"><ele>178.0</ele><time>2026-04-13T07:42:15Z</time></trkpt><trkpt lat="-28.544064900987472" lon="114.79166199385892"><ele>178.0</ele><time>2026-04-13T07:42:16Z</time></trkpt><trkpt lat="-28.543857197179637" lon="114.79155771654003"><ele>178.0</ele><time>2026-04-13T07:42:17Z</time></trkpt><trkpt lat="-28.543657813300904" lon="114.79145988353945"><ele>178.0</ele><time>2026-04-13T07:42:18Z</time></trkpt><trkpt lat="-28.54344962213309" lon="114.79136204102849"><ele>180.0</ele><time>2026-04-13T07:42:19Z</time></trkpt><trkpt lat="-28.54322960515568" lon="114.79126356314758"><ele>182.0</ele><time>2026-04-13T07:42:20.001Z</time></trkpt><trkpt lat="-28.54300099898419" lon="114.7911751566226"><ele>182.0</ele><time>2026-04-13T07:42:21.001Z</time></trkpt><trkpt lat="-28.542758304003883" lon="114.79109087220034"><ele>182.0</ele><time>2026-04-13T07:42:22.001Z</time></trkpt><trkpt lat="-28.54250898340694" lon="114.79100789197872"><ele>182.0</ele><time>2026-04-13T07:42:23.001Z</time></trkpt><trkpt lat="-28.542259594774418" lon="114.79092793156066"><ele>182.0</ele><time>2026-04-13T07:42:24.001Z</time></trkpt><trkpt lat="-28.54201071002481" lon="114.79084754076827"><ele>182.0</ele><time>2026-04-13T07:42:25.001Z</time></trkpt><trkpt lat="-28.541763695724374" lon="114.79076517044848"><ele>182.0</ele><time>2026-04-13T07:42:26.001Z</time></trkpt><trkpt lat="-28.541519090255555" lon="114.79067814415225"><ele>182.0</ele><time>2026-04-13T07:42:27.001Z</time></trkpt><trkpt lat="-28.541280979190567" lon="114.79059111620262"><ele>182.0</ele><time>2026-04-13T07:42:28.001Z</time></trkpt><trkpt lat="-28.541049399915615" lon="114.79049867002995"><ele>182.5</ele><time>2026-04-13T07:42:29.001Z</time></trkpt><trkpt lat="-28.540828496033" lon="114.7904007696314"><ele>183.0</ele><time>2026-04-13T07:42:30.001Z</time></trkpt><trkpt lat="-28.54060242192746" lon="114.79029444632324"><ele>182.5</ele><time>2026-04-13T07:42:31.001Z</time></trkpt><trkpt lat="-28.540369404666496" lon="114.79018282306569"><ele>182.0</ele><time>2026-04-13T07:42:32.001Z</time></trkpt><trkpt lat="-28.540131177603236" lon="114.79006721958363"><ele>180.5</ele><time>2026-04-13T07:42:33.001Z</time></trkpt><trkpt lat="-28.53988895244844" lon="114.78994903967889"><ele>179.0</ele><time>2026-04-13T07:42:34.001Z</time></trkpt><trkpt lat="-28.539643259614202" lon="114.78982680702686"><ele>177.5</ele><time>2026-04-13T07:42:35.001Z</time></trkpt><trkpt lat="-28.53939964743689" lon="114.78970552108304"><ele>176.0</ele><time>2026-04-13T07:42:36.001Z</time></trkpt><trkpt lat="-28.539165241128323" lon="114.7895859597364"><ele>176.0</ele><time>2026-04-13T07:42:37.001Z</time></trkpt><trkpt lat="-28.538945328115457" lon="114.78947156474356"><ele>176.0</ele><time>2026-04-13T07:42:38.001Z</time></trkpt><trkpt lat="-28.538732423740612" lon="114.78936440034452"><ele>175.33333333333331</ele><time>2026-04-13T07:42:39.001Z</time></trkpt><trkpt lat="-28.538525693185814" lon="114.7892648415491"><ele>174.66666666666666</ele><time>2026-04-13T07:42:40.001Z</time></trkpt><trkpt lat="-28.53831733455547" lon="114.78917155411752"><ele>174.0</ele><time>2026-04-13T07:42:41.001Z</time></trkpt><trkpt lat="-28.53810734121688" lon="114.78908525017597"><ele>174.0</ele><time>2026-04-13T07:42:42.001Z</time></trkpt><trkpt lat="-28.537905947286312" lon="114.78901213926173"><ele>174.0</ele><time>2026-04-13T07:42:43.001Z</time></trkpt><trkpt lat="-28.53771046256142" lon="114.7889495003507"><ele>174.0</ele><time>2026-04-13T07:42:44.001Z</time></trkpt><trkpt lat="-28.537512912820887" lon="114.78888480147337"><ele>173.33333333333334</ele><time>2026-04-13T07:42:45.001Z</time></trkpt><trkpt lat="-28.537317510931732" lon="114.78882179478724"><ele>172.66666666666669</ele><time>2026-04-13T07:42:46.001Z</time></trkpt><trkpt lat="-28.537121743069655" lon="114.78874417375636"><ele>172.0</ele><time>2026-04-13T07:42:47.001Z</time></trkpt><trkpt lat="-28.536916343972894" lon="114.7886441343024"><ele>170.5</ele><time>2026-04-13T07:42:48.001Z</time></trkpt><trkpt lat="-28.53670199642054" lon="114.78852084002911"><ele>169.0</ele><time>2026-04-13T07:42:49.001Z</time></trkpt><trkpt lat="-28.536490957176824" lon="114.78838169069843"><ele>167.0</ele><time>2026-04-13T07:42:50.001Z</time></trkpt><trkpt lat="-28.53627923948792" lon="114.78823480821248"><ele>165.0</ele><time>2026-04-13T07:42:51.001Z</time></trkpt><trkpt lat="-28.53606827242553" lon="114.78808025818927"><ele>165.0</ele><time>2026-04-13T07:42:52.001Z</time></trkpt><trkpt lat="-28.535852409036025" lon="114.78792116916013"><ele>165.0</ele><time>2026-04-13T07:42:53.001Z</time></trkpt><trkpt lat="-28.535633099662228" lon="114.78776328398747"><ele>164.5</ele><time>2026-04-13T07:42:54.001Z</time></trkpt><trkpt lat="-28.535412357975527" lon="114.78760562487508"><ele>164.0</ele><time>2026-04-13T07:42:55.001Z</time></trkpt><trkpt lat="-28.535187064312048" lon="114.7874481590897"><ele>163.0</ele><time>2026-04-13T07:42:56.001Z</time></trkpt><trkpt lat="-28.534959593023153" lon="114.7872893135071"><ele>162.0</ele><time>2026-04-13T07:42:57.001Z</time></trkpt><trkpt lat="-28.5347330955255" lon="114.78712836065388"><ele>161.0</ele><time>2026-04-13T07:42:58.001Z</time></trkpt><trkpt lat="-28.534502078828964" lon="114.78696570155843"><ele>160.0</ele><time>2026-04-13T07:42:59.001Z</time></trkpt><trkpt lat="-28.534272105206746" lon="114.78680454642809"><ele>160.0</ele><time>2026-04-13T07:43:00Z</time></trkpt><trkpt lat="-28.534042723669472" lon="114.78664419195965"><ele>160.0</ele><time>2026-04-13T07:43:01Z</time></trkpt><trkpt lat="-28.533810689187817" lon="114.78648370381795"><ele>160.0</ele><time>2026-04-13T07:43:02Z</time></trkpt><trkpt lat="-28.533578364316767" lon="114.78632196596995"><ele>160.0</ele><time>2026-04-13T07:43:03Z</time></trkpt><trkpt lat="-28.5333466683812" lon="114.78615897670143"><ele>160.5</ele><time>2026-04-13T07:43:04Z</time></trkpt><trkpt lat="-28.53311110710849" lon="114.78599450330339"><ele>161.0</ele><time>2026-04-13T07:43:05Z</time></trkpt><trkpt lat="-28.53287523106082" lon="114.78582949717118"><ele>163.5</ele><time>2026-04-13T07:43:06Z</time></trkpt><trkpt lat="-28.532640311196392" lon="114.78566378174818"><ele>166.0</ele><time>2026-04-13T07:43:07Z</time></trkpt><trkpt lat="-28.53240416394829" lon="114.78549628971295"><ele>166.0</ele><time>2026-04-13T07:43:08Z</time></trkpt><trkpt lat="-28.53216878371338" lon="114.78533039422044"><ele>166.0</ele><time>2026-04-13T07:43:09Z</time></trkpt><trkpt lat="-28.53193227706684" lon="114.78516260845082"><ele>165.0</ele><time>2026-04-13T07:43:10Z</time></trkpt><trkpt lat="-28.531700138662234" lon="114.78499511730664"><ele>164.0</ele><time>2026-04-13T07:43:11Z</time></trkpt><trkpt lat="-28.531465539825884" lon="114.78482696909917"><ele>164.0</ele><time>2026-04-13T07:43:12Z</time></trkpt><trkpt lat="-28.531237425415487" lon="114.78466457418763"><ele>164.0</ele><time>2026-04-13T07:43:13Z</time></trkpt><trkpt lat="-28.531007569457845" lon="114.78450230528851"><ele>163.0</ele><time>2026-04-13T07:43:14Z</time></trkpt><trkpt lat="-28.530779762957767" lon="114.78434376014232"><ele>162.0</ele><time>2026-04-13T07:43:15Z</time></trkpt><trkpt lat="-28.530550616058875" lon="114.78418481815481"><ele>164.5</ele><time>2026-04-13T07:43:16Z</time></trkpt><trkpt lat="-28.530329094807097" lon="114.78403418803259"><ele>167.0</ele><time>2026-04-13T07:43:17Z</time></trkpt><trkpt lat="-28.5301420536769" lon="114.78386218925816"><ele>167.0</ele><time>2026-04-13T07:43:18Z</time></trkpt><trkpt lat="-28.529942350216597" lon="114.78373995932333"><ele>167.0</ele><time>2026-04-13T07:43:19Z</time></trkpt><trkpt lat="-28.52974518548889" lon="114.78362807961544"><ele>167.0</ele><time>2026-04-13T07:43:20Z</time></trkpt><trkpt lat="-28.529532251678216" lon="114.78354586252792"><ele>166.5</ele><time>2026-04-13T07:43:21Z</time></trkpt><trkpt lat="-28.529308616174802" lon="114.78344648198492"><ele>166.0</ele><time>2026-04-13T07:43:22Z</time></trkpt><trkpt lat="-28.5290692819537" lon="114.7833531779519"><ele>166.0</ele><time>2026-04-13T07:43:23Z</time></trkpt><trkpt lat="-28.528826652208068" lon="114.78324616613041"><ele>166.0</ele><time>2026-04-13T07:43:24Z</time></trkpt><trkpt lat="-28.528578345523297" lon="114.78315248060463"><ele>165.0</ele><time>2026-04-13T07:43:25Z</time></trkpt><trkpt lat="-28.52833190367765" lon="114.78305732562706"><ele>164.0</ele><time>2026-04-13T07:43:26Z</time></trkpt><trkpt lat="-28.52809743523676" lon="114.78296791675648"><ele>164.5</ele><time>2026-04-13T07:43:27Z</time></trkpt><trkpt lat="-28.527868227531958" lon="114.78287799605822"><ele>165.0</ele><time>2026-04-13T07:43:28Z</time></trkpt><trkpt lat="-28.527645106918623" lon="114.7827902249384"><ele>165.0</ele><time>2026-04-13T07:43:29Z</time></trkpt><trkpt lat="-28.527436886110575" lon="114.78271439157217"><ele>165.0</ele><time>2026-04-13T07:43:30Z</time></trkpt><trkpt lat="-28.527228202386574" lon="114.7826664006805"><ele>165.0</ele><time>2026-04-13T07:43:31Z</time></trkpt><trkpt lat="-28.527015802877663" lon="114.78261494665537"><ele>163.5</ele><time>2026-04-13T07:43:32Z</time></trkpt><trkpt lat="-28.526774863236312" lon="114.78258157892536"><ele>162.0</ele><time>2026-04-13T07:43:33Z</time></trkpt><trkpt lat="-28.526511512164085" lon="114.78256373015772"><ele>162.0</ele><time>2026-04-13T07:43:34Z</time></trkpt><trkpt lat="-28.526234047278784" lon="114.78256100153878"><ele>162.0</ele><time>2026-04-13T07:43:35Z</time></trkpt><trkpt lat="-28.525954310075104" lon="114.7825670583516"><ele>161.0</ele><time>2026-04-13T07:43:36Z</time></trkpt><trkpt lat="-28.52567663966923" lon="114.7825718983796"><ele>160.0</ele><time>2026-04-13T07:43:37Z</time></trkpt><trkpt lat="-28.525397128097328" lon="114.78256347050973"><ele>160.5</ele><time>2026-04-13T07:43:38Z</time></trkpt><trkpt lat="-28.525120482114584" lon="114.78254678673557"><ele>161.0</ele><time>2026-04-13T07:43:39Z</time></trkpt><trkpt lat="-28.52484402779335" lon="114.78252066075588"><ele>161.0</ele><time>2026-04-13T07:43:40Z</time></trkpt><trkpt lat="-28.52456614676903" lon="114.78248459856773"><ele>161.0</ele><time>2026-04-13T07:43:41Z</time></trkpt><trkpt lat="-28.524290743580952" lon="114.78244317911202"><ele>160.5</ele><time>2026-04-13T07:43:42Z</time></trkpt><trkpt lat="-28.524015606315793" lon="114.78240080924022"><ele>160.0</ele><time>2026-04-13T07:43:43Z</time></trkpt><trkpt lat="-28.52374425829928" lon="114.78234939246977"><ele>160.0</ele><time>2026-04-13T07:43:44Z</time></trkpt><trkpt lat="-28.523474930329016" lon="114.78228298433244"><ele>160.0</ele><time>2026-04-13T07:43:45Z</time></trkpt><trkpt lat="-28.52320195417884" lon="114.78220354173752"><ele>160.0</ele><time>2026-04-13T07:43:46Z</time></trkpt><trkpt lat="-28.522931620131978" lon="114.78211842755475"><ele>160.0</ele><time>2026-04-13T07:43:47Z</time></trkpt><trkpt lat="-28.522663187814143" lon="114.78203219161723"><ele>159.0</ele><time>2026-04-13T07:43:48Z</time></trkpt><trkpt lat="-28.522393427545772" lon="114.7819477365986"><ele>158.0</ele><time>2026-04-13T07:43:49Z</time></trkpt><trkpt lat="-28.52213031495759" lon="114.78186570982439"><ele>157.5</ele><time>2026-04-13T07:43:50Z</time></trkpt><trkpt lat="-28.521871714031725" lon="114.78177935504209"><ele>157.0</ele><time>2026-04-13T07:43:51Z</time></trkpt><trkpt lat="-28.521630133159146" lon="114.78170018897936"><ele>157.0</ele><time>2026-04-13T07:43:52Z</time></trkpt><trkpt lat="-28.521393253991405" lon="114.78162385908236"><ele>157.0</ele><time>2026-04-13T07:43:53Z</time></trkpt><trkpt lat="-28.521170996732163" lon="114.78155095001698"><ele>156.66666666666669</ele><time>2026-04-13T07:43:54Z</time></trkpt><trkpt lat="-28.52095935381731" lon="114.78147610099059"><ele>156.33333333333334</ele><time>2026-04-13T07:43:55Z</time></trkpt><trkpt lat="-28.520760196046425" lon="114.78140040028143"><ele>156.0</ele><time>2026-04-13T07:43:56Z</time></trkpt><trkpt lat="-28.520571145664817" lon="114.78130277202295"><ele>156.0</ele><time>2026-04-13T07:43:57Z</time></trkpt><trkpt lat="-28.520366041880266" lon="114.78122117503096"><ele>156.0</ele><time>2026-04-13T07:43:58Z</time></trkpt><trkpt lat="-28.520157749016693" lon="114.78114396791945"><ele>156.0</ele><time>2026-04-13T07:43:59Z</time></trkpt><trkpt lat="-28.51995566128632" lon="114.7811026187179"><ele>156.0</ele><time>2026-04-13T07:44:00Z</time></trkpt><trkpt lat="-28.519754086495723" lon="114.78104250913285"><ele>156.0</ele><time>2026-04-13T07:44:01Z</time></trkpt><trkpt lat="-28.519544218058353" lon="114.78099542981863"><ele>156.0</ele><time>2026-04-13T07:44:02Z</time></trkpt><trkpt lat="-28.519339517754783" lon="114.7809693242714"><ele>155.33333333333334</ele><time>2026-04-13T07:44:03Z</time></trkpt><trkpt lat="-28.519141537303273" lon="114.78096568701932"><ele>154.66666666666669</ele><time>2026-04-13T07:44:04Z</time></trkpt><trkpt lat="-28.518940836254373" lon="114.78098963152445"><ele>154.0</ele><time>2026-04-13T07:44:05Z</time></trkpt><trkpt lat="-28.5187214999188" lon="114.78102886507236"><ele>156.0</ele><time>2026-04-13T07:44:06Z</time></trkpt><trkpt lat="-28.518489225352432" lon="114.78107258601786"><ele>158.0</ele><time>2026-04-13T07:44:07Z</time></trkpt><trkpt lat="-28.51826708099644" lon="114.7811131092638"><ele>158.0</ele><time>2026-04-13T07:44:08Z</time></trkpt><trkpt lat="-28.518064429169147" lon="114.78114876438036"><ele>158.0</ele><time>2026-04-13T07:44:09Z</time></trkpt><trkpt lat="-28.517876466825395" lon="114.78119209059689"><ele>158.0</ele><time>2026-04-13T07:44:10Z</time></trkpt><trkpt lat="-28.5176956684664" lon="114.78124910628975"><ele>158.33333333333331</ele><time>2026-04-13T07:44:11Z</time></trkpt><trkpt lat="-28.517515583866196" lon="114.7813216421956"><ele>158.66666666666666</ele><time>2026-04-13T07:44:12Z</time></trkpt><trkpt lat="-28.517344608099478" lon="114.78139592711821"><ele>159.0</ele><time>2026-04-13T07:44:13Z</time></trkpt><trkpt lat="-28.5171788395747" lon="114.78147594190146"><ele>157.66666666666666</ele><time>2026-04-13T07:44:14Z</time></trkpt><trkpt lat="-28.51701245738554" lon="114.78154519183558"><ele>156.33333333333331</ele><time>2026-04-13T07:44:15Z</time></trkpt><trkpt lat="-28.516841121615563" lon="114.78162097942541"><ele>155.0</ele><time>2026-04-13T07:44:16Z</time></trkpt><trkpt lat="-28.516719786161058" lon="114.7818154577671"><ele>156.66666666666666</ele><time>2026-04-13T07:44:17Z</time></trkpt><trkpt lat="-28.516607976002867" lon="114.78196520346516"><ele>158.33333333333334</ele><time>2026-04-13T07:44:18Z</time></trkpt><trkpt lat="-28.51651662957966" lon="114.78212016921879"><ele>160.0</ele><time>2026-04-13T07:44:19Z</time></trkpt><trkpt lat="-28.516439618253735" lon="114.78227074128122"><ele>160.0</ele><time>2026-04-13T07:44:20Z</time></trkpt><trkpt lat="-28.51635147120755" lon="114.78240499099924"><ele>160.0</ele><time>2026-04-13T07:44:21Z</time></trkpt><trkpt lat="-28.516240826673243" lon="114.78250314684004"><ele>160.0</ele><time>2026-04-13T07:44:22Z</time></trkpt><trkpt lat="-28.51611393256209" lon="114.78256349447399"><ele>160.0</ele><time>2026-04-13T07:44:23Z</time></trkpt><trkpt lat="-28.515984090743796" lon="114.78258738888493"><ele>159.5</ele><time>2026-04-13T07:44:24Z</time></trkpt><trkpt lat="-28.515852359353158" lon="114.78257606153909"><ele>159.0</ele><time>2026-04-13T07:44:25Z</time></trkpt><trkpt lat="-28.515729719009247" lon="114.78252786463824"><ele>158.5</ele><time>2026-04-13T07:44:26Z</time></trkpt><trkpt lat="-28.51562161295975" lon="114.78245818607144"><ele>158.0</ele><time>2026-04-13T07:44:27Z</time></trkpt><trkpt lat="-28.51554171901058" lon="114.78238213045685"><ele>158.0</ele><time>2026-04-13T07:44:28Z</time></trkpt><trkpt lat="-28.515491866858767" lon="114.78230764272237"><ele>158.0</ele><time>2026-04-13T07:44:29Z</time></trkpt><trkpt lat="-28.515452386825483" lon="114.78224362920865"><ele>158.0</ele><time>2026-04-13T07:44:30Z</time></trkpt><trkpt lat="-28.515391007261496" lon="114.78220211182786"><ele>158.0</ele><time>2026-04-13T07:44:31Z</time></trkpt><trkpt lat="-28.51530705732064" lon="114.78220086784934"><ele>158.0</ele><time>2026-04-13T07:44:32Z</time></trkpt><trkpt lat="-28.51522077678714" lon="114.78224705391584"><ele>158.0</ele><time>2026-04-13T07:44:33Z</time></trkpt><trkpt lat="-28.515129333691497" lon="114.78231476807495"><ele>155.0</ele><time>2026-04-13T07:44:34Z</time></trkpt><trkpt lat="-28.515012314463508" lon="114.78237860826182"><ele>152.0</ele><time>2026-04-13T07:44:35Z</time></trkpt><trkpt lat="-28.514863523405687" lon="114.78243965463595"><ele>149.0</ele><time>2026-04-13T07:44:36Z</time></trkpt><trkpt lat="-28.514691787959283" lon="114.7825109378151"><ele>150.0</ele><time>2026-04-13T07:44:37Z</time></trkpt><trkpt lat="-28.514509585251727" lon="114.78258811841779"><ele>151.0</ele><time>2026-04-13T07:44:38Z</time></trkpt><trkpt lat="-28.51433133910986" lon="114.78266404231034"><ele>152.0</ele><time>2026-04-13T07:44:39Z</time></trkpt><trkpt lat="-28.514141219131865" lon="114.78274396353987"><ele>152.0</ele><time>2026-04-13T07:44:40Z</time></trkpt><trkpt lat="-28.513928531916754" lon="114.78283061920423"><ele>152.0</ele><time>2026-04-13T07:44:41Z</time></trkpt><trkpt lat="-28.51370208505509" lon="114.7829236200547"><ele>151.0</ele><time>2026-04-13T07:44:42Z</time></trkpt><trkpt lat="-28.513468634757274" lon="114.78301800850417"><ele>150.0</ele><time>2026-04-13T07:44:43Z</time></trkpt><trkpt lat="-28.51325038006575" lon="114.78311129412566"><ele>150.0</ele><time>2026-04-13T07:44:44Z</time></trkpt><trkpt lat="-28.513033589117605" lon="114.78321144893398"><ele>150.0</ele><time>2026-04-13T07:44:45Z</time></trkpt><trkpt lat="-28.51281613065501" lon="114.78331661173478"><ele>150.33333333333334</ele><time>2026-04-13T07:44:46Z</time></trkpt><trkpt lat="-28.512610127836773" lon="114.7834162823097"><ele>150.66666666666669</ele><time>2026-04-13T07:44:47Z</time></trkpt><trkpt lat="-28.512406913857856" lon="114.78351916070324"><ele>151.0</ele><time>2026-04-13T07:44:48Z</time></trkpt><trkpt lat="-28.512216898319473" lon="114.78362890763553"><ele>150.33333333333334</ele><time>2026-04-13T07:44:49Z</time></trkpt><trkpt lat="-28.512033653345156" lon="114.78374566476303"><ele>149.66666666666666</ele><time>2026-04-13T07:44:50Z</time></trkpt><trkpt lat="-28.51184787686934" lon="114.78386871205964"><ele>149.0</ele><time>2026-04-13T07:44:51Z</time></trkpt><trkpt lat="-28.511656416666565" lon="114.7840043317072"><ele>149.0</ele><time>2026-04-13T07:44:52Z</time></trkpt><trkpt lat="-28.5114649112125" lon="114.78415051979239"><ele>149.0</ele><time>2026-04-13T07:44:53.001Z</time></trkpt><trkpt lat="-28.511278684590927" lon="114.78430739647264"><ele>149.5</ele><time>2026-04-13T07:44:54.001Z</time></trkpt><trkpt lat="-28.511090403193982" lon="114.7844695130947"><ele>150.0</ele><time>2026-04-13T07:44:55.001Z</time></trkpt><trkpt lat="-28.510905013188413" lon="114.78463003290432"><ele>150.0</ele><time>2026-04-13T07:44:56.001Z</time></trkpt><trkpt lat="-28.51070868827955" lon="114.78479816503685"><ele>150.0</ele><time>2026-04-13T07:44:57.001Z</time></trkpt><trkpt lat="-28.510501503092136" lon="114.78497619434852"><ele>150.5</ele><time>2026-04-13T07:44:58.001Z</time></trkpt><trkpt lat="-28.5102828440008" lon="114.78516432606166"><ele>151.0</ele><time>2026-04-13T07:44:59.001Z</time></trkpt><trkpt lat="-28.51006154308903" lon="114.7853587474589"><ele>152.5</ele><time>2026-04-13T07:45:00.001Z</time></trkpt><trkpt lat="-28.509836697639937" lon="114.78556119760233"><ele>154.0</ele><time>2026-04-13T07:45:01.001Z</time></trkpt><trkpt lat="-28.50960439825068" lon="114.78576623642309"><ele>153.0</ele><time>2026-04-13T07:45:02.001Z</time></trkpt><trkpt lat="-28.50935917262053" lon="114.78597610683539"><ele>152.0</ele><time>2026-04-13T07:45:03.001Z</time></trkpt><trkpt lat="-28.509120922899996" lon="114.78617459606004"><ele>152.0</ele><time>2026-04-13T07:45:04.001Z</time></trkpt><trkpt lat="-28.50889968713367" lon="114.7863488587582"><ele>152.0</ele><time>2026-04-13T07:45:05.001Z</time></trkpt><trkpt lat="-28.5086842517896" lon="114.7865014696049"><ele>151.0</ele><time>2026-04-13T07:45:06Z</time></trkpt><trkpt lat="-28.508469886436167" lon="114.78662738033603"><ele>150.0</ele><time>2026-04-13T07:45:07Z</time></trkpt><trkpt lat="-28.508253696939953" lon="114.7867335279239"><ele>150.0</ele><time>2026-04-13T07:45:08Z</time></trkpt><trkpt lat="-28.508022147783883" lon="114.78682709612512"><ele>150.0</ele><time>2026-04-13T07:45:09Z</time></trkpt><trkpt lat="-28.507777238703934" lon="114.78691093241389"><ele>149.0</ele><time>2026-04-13T07:45:10Z</time></trkpt><trkpt lat="-28.507535062082205" lon="114.78698345407109"><ele>148.0</ele><time>2026-04-13T07:45:11Z</time></trkpt><trkpt lat="-28.50730345766176" lon="114.78704845910542"><ele>148.0</ele><time>2026-04-13T07:45:12Z</time></trkpt><trkpt lat="-28.507081823328807" lon="114.7871108072303"><ele>148.0</ele><time>2026-04-13T07:45:13Z</time></trkpt><trkpt lat="-28.506859677955628" lon="114.78717387784077"><ele>148.0</ele><time>2026-04-13T07:45:14Z</time></trkpt><trkpt lat="-28.506639469655326" lon="114.78724765292216"><ele>148.0</ele><time>2026-04-13T07:45:15Z</time></trkpt><trkpt lat="-28.506424220045353" lon="114.78732747155846"><ele>148.0</ele><time>2026-04-13T07:45:16Z</time></trkpt><trkpt lat="-28.50623666183685" lon="114.78740300504333"><ele>148.0</ele><time>2026-04-13T07:45:17Z</time></trkpt><trkpt lat="-28.506085457719763" lon="114.78746787299768"><ele>148.0</ele><time>2026-04-13T07:45:18Z</time></trkpt><trkpt lat="-28.505972297382" lon="114.78751844313783"><ele>148.0</ele><time>2026-04-13T07:45:19Z</time></trkpt><trkpt lat="-28.50589265541862" lon="114.7875474598766"><ele>148.0</ele><time>2026-04-13T07:45:20Z</time></trkpt><trkpt lat="-28.505805552400513" lon="114.78757591641438"><ele>148.0</ele><time>2026-04-13T07:45:22Z</time></trkpt><trkpt lat="-28.505762188146623" lon="114.78740211418516"><ele>148.0</ele><time>2026-04-13T07:46:17Z</time></trkpt><trkpt lat="-28.50569711606764" lon="114.78726489669464"><ele>148.0</ele><time>2026-04-13T07:46:19Z</time></trkpt><trkpt lat="-28.505660710679773" lon="114.78716237468016"><ele>148.0</ele><time>2026-04-13T07:46:20Z</time></trkpt><trkpt lat="-28.505625893562716" lon="114.78705011617373"><ele>148.0</ele><time>2026-04-13T07:46:21Z</time></trkpt><trkpt lat="-28.50559997007814" lon="114.7869431837031"><ele>148.0</ele><time>2026-04-13T07:46:22Z</time></trkpt><trkpt lat="-28.50557644575758" lon="114.78683928451295"><ele>148.0</ele><time>2026-04-13T07:46:23Z</time></trkpt><trkpt lat="-28.505555211509055" lon="114.78672242911581"><ele>148.25</ele><time>2026-04-13T07:46:24Z</time></trkpt><trkpt lat="-28.505524427230075" lon="114.7866044365438"><ele>148.5</ele><time>2026-04-13T07:46:25Z</time></trkpt><trkpt lat="-28.505491751362452" lon="114.78651006187191"><ele>148.75</ele><time>2026-04-13T07:46:26Z</time></trkpt><trkpt lat="-28.505389481291896" lon="114.78640951194112"><ele>149.0</ele><time>2026-04-13T07:46:27Z</time></trkpt><trkpt lat="-28.505255184547917" lon="114.7863544918269"><ele>149.0</ele><time>2026-04-13T07:46:28Z</time></trkpt><trkpt lat="-28.505113219867383" lon="114.78629624998096"><ele>149.0</ele><time>2026-04-13T07:46:29Z</time></trkpt><trkpt lat="-28.50496333902319" lon="114.78624222415539"><ele>149.0</ele><time>2026-04-13T07:46:30Z</time></trkpt><trkpt lat="-28.504818337124306" lon="114.78616163092099"><ele>149.0</ele><time>2026-04-13T07:46:31Z</time></trkpt><trkpt lat="-28.504671929583083" lon="114.78605989394859"><ele>149.0</ele><time>2026-04-13T07:46:32Z</time></trkpt><trkpt lat="-28.504524160248838" lon="114.78593505785571"><ele>149.0</ele><time>2026-04-13T07:46:33Z</time></trkpt><trkpt lat="-28.50437335930028" lon="114.78579372551643"><ele>149.33333333333331</ele><time>2026-04-13T07:46:34Z</time></trkpt><trkpt lat="-28.5042126749102" lon="114.78563159664021"><ele>149.66666666666666</ele><time>2026-04-13T07:46:35Z</time></trkpt><trkpt lat="-28.504046456082765" lon="114.78545863553563"><ele>150.0</ele><time>2026-04-13T07:46:36Z</time></trkpt><trkpt lat="-28.503868878335204" lon="114.78527217109792"><ele>150.5</ele><time>2026-04-13T07:46:37Z</time></trkpt><trkpt lat="-28.50367564462494" lon="114.7850833348633"><ele>151.0</ele><time>2026-04-13T07:46:38Z</time></trkpt><trkpt lat="-28.50348783259919" lon="114.78490319596058"><ele>151.0</ele><time>2026-04-13T07:46:39Z</time></trkpt><trkpt lat="-28.50330444024512" lon="114.78471565411256"><ele>151.0</ele><time>2026-04-13T07:46:40Z</time></trkpt><trkpt lat="-28.503140173069436" lon="114.78454061385432"><ele>151.0</ele><time>2026-04-13T07:46:41Z</time></trkpt><trkpt lat="-28.502977538547825" lon="114.78437187732449"><ele>151.0</ele><time>2026-04-13T07:46:42Z</time></trkpt><trkpt lat="-28.502815113270028" lon="114.78420838134612"><ele>151.0</ele><time>2026-04-13T07:46:43Z</time></trkpt><trkpt lat="-28.50264532089352" lon="114.78406324617207"><ele>152.0</ele><time>2026-04-13T07:46:44Z</time></trkpt><trkpt lat="-28.502460711020053" lon="114.7839266119059"><ele>153.0</ele><time>2026-04-13T07:46:45Z</time></trkpt><trkpt lat="-28.5022425735171" lon="114.78380719057039"><ele>154.5</ele><time>2026-04-13T07:46:46Z</time></trkpt><trkpt lat="-28.50199382095069" lon="114.7837390354193"><ele>156.0</ele><time>2026-04-13T07:46:47Z</time></trkpt><trkpt lat="-28.50173748169482" lon="114.78369202608732"><ele>156.0</ele><time>2026-04-13T07:46:48Z</time></trkpt><trkpt lat="-28.501478211045708" lon="114.78363873607502"><ele>156.0</ele><time>2026-04-13T07:46:49Z</time></trkpt><trkpt lat="-28.50122059069253" lon="114.78356637839576"><ele>158.0</ele><time>2026-04-13T07:46:50Z</time></trkpt><trkpt lat="-28.50095270788728" lon="114.78351470808187"><ele>160.0</ele><time>2026-04-13T07:46:51Z</time></trkpt><trkpt lat="-28.50068844958568" lon="114.78346583919408"><ele>160.0</ele><time>2026-04-13T07:46:52Z</time></trkpt><trkpt lat="-28.500426097779343" lon="114.78341647358924"><ele>160.0</ele><time>2026-04-13T07:46:53Z</time></trkpt><trkpt lat="-28.500161529605137" lon="114.78336574977511"><ele>159.5</ele><time>2026-04-13T07:46:54Z</time></trkpt><trkpt lat="-28.499901608410603" lon="114.7833177124642"><ele>159.0</ele><time>2026-04-13T07:46:55Z</time></trkpt><trkpt lat="-28.49964198203797" lon="114.78326725366365"><ele>160.0</ele><time>2026-04-13T07:46:56Z</time></trkpt><trkpt lat="-28.49938492601272" lon="114.78321632084915"><ele>161.0</ele><time>2026-04-13T07:46:57Z</time></trkpt><trkpt lat="-28.499127460687518" lon="114.78316530691903"><ele>161.0</ele><time>2026-04-13T07:46:58Z</time></trkpt><trkpt lat="-28.49887407919373" lon="114.78311681790444"><ele>161.0</ele><time>2026-04-13T07:46:59Z</time></trkpt><trkpt lat="-28.498624147957557" lon="114.78306623834507"><ele>164.0</ele><time>2026-04-13T07:47:00Z</time></trkpt><trkpt lat="-28.498372434452087" lon="114.78301435131769"><ele>167.0</ele><time>2026-04-13T07:47:01Z</time></trkpt><trkpt lat="-28.498118540390877" lon="114.78295957395714"><ele>168.0</ele><time>2026-04-13T07:47:02Z</time></trkpt><trkpt lat="-28.497868915794726" lon="114.78290506390647"><ele>169.0</ele><time>2026-04-13T07:47:03Z</time></trkpt><trkpt lat="-28.497626498868396" lon="114.7828487303351"><ele>169.0</ele><time>2026-04-13T07:47:04Z</time></trkpt><trkpt lat="-28.497377532908118" lon="114.78279015176491"><ele>169.0</ele><time>2026-04-13T07:47:05Z</time></trkpt><trkpt lat="-28.497126181642344" lon="114.78274585980135"><ele>172.0</ele><time>2026-04-13T07:47:06Z</time></trkpt><trkpt lat="-28.496885257728913" lon="114.7826826735775"><ele>175.0</ele><time>2026-04-13T07:47:07Z</time></trkpt><trkpt lat="-28.496643241038818" lon="114.78262400439263"><ele>175.0</ele><time>2026-04-13T07:47:08Z</time></trkpt><trkpt lat="-28.496414203928477" lon="114.78257172594016"><ele>175.0</ele><time>2026-04-13T07:47:09Z</time></trkpt><trkpt lat="-28.496196429742277" lon="114.78252069827846"><ele>176.33333333333334</ele><time>2026-04-13T07:47:10Z</time></trkpt><trkpt lat="-28.495994933333936" lon="114.78247986490973"><ele>177.66666666666666</ele><time>2026-04-13T07:47:11Z</time></trkpt><trkpt lat="-28.49579030037305" lon="114.78245032970928"><ele>179.0</ele><time>2026-04-13T07:47:12Z</time></trkpt><trkpt lat="-28.495568530915296" lon="114.78243811612262"><ele>177.5</ele><time>2026-04-13T07:47:13Z</time></trkpt><trkpt lat="-28.495324842582722" lon="114.78243582416896"><ele>176.0</ele><time>2026-04-13T07:47:14Z</time></trkpt><trkpt lat="-28.495072269522332" lon="114.78243857058177"><ele>176.0</ele><time>2026-04-13T07:47:15Z</time></trkpt><trkpt lat="-28.494814374997095" lon="114.78243930810103"><ele>176.0</ele><time>2026-04-13T07:47:16Z</time></trkpt><trkpt lat="-28.49455340814414" lon="114.78243581894496"><ele>175.0</ele><time>2026-04-13T07:47:17Z</time></trkpt><trkpt lat="-28.494292597297957" lon="114.7824286193925"><ele>174.0</ele><time>2026-04-13T07:47:18Z</time></trkpt><trkpt lat="-28.494030557795078" lon="114.78241885014924"><ele>174.0</ele><time>2026-04-13T07:47:19Z</time></trkpt><trkpt lat="-28.493771060904052" lon="114.78241329587755"><ele>174.0</ele><time>2026-04-13T07:47:20Z</time></trkpt><trkpt lat="-28.493513145782686" lon="114.78241116188477"><ele>172.5</ele><time>2026-04-13T07:47:21Z</time></trkpt><trkpt lat="-28.493259952388662" lon="114.78240823866543"><ele>171.0</ele><time>2026-04-13T07:47:22Z</time></trkpt><trkpt lat="-28.49300965173239" lon="114.7824054677437"><ele>169.5</ele><time>2026-04-13T07:47:23Z</time></trkpt><trkpt lat="-28.492765167075742" lon="114.78240219498932"><ele>168.0</ele><time>2026-04-13T07:47:24Z</time></trkpt><trkpt lat="-28.492528891845314" lon="114.78240001716519"><ele>168.0</ele><time>2026-04-13T07:47:25Z</time></trkpt><trkpt lat="-28.492293762907117" lon="114.78239582356704"><ele>168.0</ele><time>2026-04-13T07:47:26Z</time></trkpt><trkpt lat="-28.492067472856156" lon="114.78239226081024"><ele>167.0</ele><time>2026-04-13T07:47:27Z</time></trkpt><trkpt lat="-28.491844626747515" lon="114.7823875031404"><ele>166.0</ele><time>2026-04-13T07:47:28Z</time></trkpt><trkpt lat="-28.491624410271918" lon="114.78238356728569"><ele>165.0</ele><time>2026-04-13T07:47:29Z</time></trkpt><trkpt lat="-28.491406382778777" lon="114.78238438697318"><ele>164.0</ele><time>2026-04-13T07:47:30Z</time></trkpt><trkpt lat="-28.491197493756786" lon="114.78238498847713"><ele>163.0</ele><time>2026-04-13T07:47:31Z</time></trkpt><trkpt lat="-28.490997091077258" lon="114.7823830922999"><ele>162.0</ele><time>2026-04-13T07:47:32Z</time></trkpt><trkpt lat="-28.49080282955205" lon="114.78238073350222"><ele>162.0</ele><time>2026-04-13T07:47:33Z</time></trkpt><trkpt lat="-28.490615808762538" lon="114.78237621063779"><ele>162.0</ele><time>2026-04-13T07:47:34Z</time></trkpt><trkpt lat="-28.490440619052563" lon="114.78236815936462"><ele>162.0</ele><time>2026-04-13T07:47:35Z</time></trkpt><trkpt lat="-28.490279502221508" lon="114.78236310323156"><ele>162.0</ele><time>2026-04-13T07:47:36Z</time></trkpt><trkpt lat="-28.490134611507766" lon="114.78236486586891"><ele>162.0</ele><time>2026-04-13T07:47:37Z</time></trkpt><trkpt lat="-28.490006259596946" lon="114.78237403457055"><ele>162.0</ele><time>2026-04-13T07:47:38Z</time></trkpt><trkpt lat="-28.48989231674983" lon="114.78239706317156"><ele>162.0</ele><time>2026-04-13T07:47:39Z</time></trkpt><trkpt lat="-28.48979492073581" lon="114.78244122994886"><ele>162.0</ele><time>2026-04-13T07:47:40Z</time></trkpt><trkpt lat="-28.48971894137787" lon="114.78250522474664"><ele>162.0</ele><time>2026-04-13T07:47:41Z</time></trkpt><trkpt lat="-28.48965236786959" lon="114.78256712355807"><ele>162.0</ele><time>2026-04-13T07:47:42Z</time></trkpt><trkpt lat="-28.489573858813202" lon="114.78259036005815"><ele>162.0</ele><time>2026-04-13T07:47:43Z</time></trkpt><trkpt lat="-28.489484823190327" lon="114.78258606964705"><ele>162.0</ele><time>2026-04-13T07:47:44Z</time></trkpt><trkpt lat="-28.48938749423635" lon="114.78256048227067"><ele>162.0</ele><time>2026-04-13T07:47:45Z</time></trkpt><trkpt lat="-28.48927758856544" lon="114.78251901145262"><ele>162.0</ele><time>2026-04-13T07:47:46Z</time></trkpt><trkpt lat="-28.489157568196116" lon="114.78246608601387"><ele>162.0</ele><time>2026-04-13T07:47:47Z</time></trkpt><trkpt lat="-28.48901604268681" lon="114.78240980352953"><ele>162.0</ele><time>2026-04-13T07:47:48Z</time></trkpt><trkpt lat="-28.488848449607733" lon="114.78236325105527"><ele>162.33333333333334</ele><time>2026-04-13T07:47:49Z</time></trkpt><trkpt lat="-28.48867153119779" lon="114.78232781113323"><ele>162.66666666666669</ele><time>2026-04-13T07:47:50Z</time></trkpt><trkpt lat="-28.488473817230236" lon="114.78230711947415"><ele>163.0</ele><time>2026-04-13T07:47:51Z</time></trkpt><trkpt lat="-28.488254171969114" lon="114.78230102404893"><ele>163.0</ele><time>2026-04-13T07:47:52Z</time></trkpt><trkpt lat="-28.488014124441982" lon="114.78230040681434"><ele>163.0</ele><time>2026-04-13T07:47:53Z</time></trkpt><trkpt lat="-28.487755466248085" lon="114.78229993863752"><ele>161.5</ele><time>2026-04-13T07:47:54Z</time></trkpt><trkpt lat="-28.487484048983458" lon="114.78229592171849"><ele>160.0</ele><time>2026-04-13T07:47:55Z</time></trkpt><trkpt lat="-28.487210548627363" lon="114.78229498898126"><ele>161.0</ele><time>2026-04-13T07:47:56Z</time></trkpt><trkpt lat="-28.48692349550323" lon="114.78229231188921"><ele>162.0</ele><time>2026-04-13T07:47:57Z</time></trkpt><trkpt lat="-28.486621321188654" lon="114.78228807358933"><ele>162.0</ele><time>2026-04-13T07:47:58Z</time></trkpt><trkpt lat="-28.48630934451453" lon="114.78228340167665"><ele>162.0</ele><time>2026-04-13T07:47:59Z</time></trkpt><trkpt lat="-28.486001265322944" lon="114.78227633503334"><ele>163.0</ele><time>2026-04-13T07:48:00Z</time></trkpt><trkpt lat="-28.485686127480733" lon="114.78226961660272"><ele>164.0</ele><time>2026-04-13T07:48:01Z</time></trkpt><trkpt lat="-28.485364331116557" lon="114.78226315883296"><ele>162.0</ele><time>2026-04-13T07:48:02Z</time></trkpt><trkpt lat="-28.485043040829712" lon="114.78225734616488"><ele>160.0</ele><time>2026-04-13T07:48:03Z</time></trkpt><trkpt lat="-28.48473295561585" lon="114.78225385052481"><ele>159.5</ele><time>2026-04-13T07:48:04Z</time></trkpt><trkpt lat="-28.48443043122301" lon="114.78224843866448"><ele>159.0</ele><time>2026-04-13T07:48:05Z</time></trkpt><trkpt lat="-28.48412761668201" lon="114.7822400413506"><ele>159.0</ele><time>2026-04-13T07:48:06Z</time></trkpt><trkpt lat="-28.483827365361233" lon="114.78223284491912"><ele>159.0</ele><time>2026-04-13T07:48:07Z</time></trkpt><trkpt lat="-28.48352733166917" lon="114.78222807714106"><ele>158.5</ele><time>2026-04-13T07:48:08Z</time></trkpt><trkpt lat="-28.483230076440364" lon="114.7822257117316"><ele>158.0</ele><time>2026-04-13T07:48:09Z</time></trkpt><trkpt lat="-28.482930004368992" lon="114.78222357048777"><ele>159.0</ele><time>2026-04-13T07:48:10Z</time></trkpt><trkpt lat="-28.48262950714299" lon="114.78222291780166"><ele>160.0</ele><time>2026-04-13T07:48:11Z</time></trkpt><trkpt lat="-28.48232801989484" lon="114.78220102673468"><ele>161.0</ele><time>2026-04-13T07:48:12Z</time></trkpt><trkpt lat="-28.482034035967448" lon="114.78221468656159"><ele>162.0</ele><time>2026-04-13T07:48:13Z</time></trkpt><trkpt lat="-28.481742380764576" lon="114.78220409743075"><ele>162.0</ele><time>2026-04-13T07:48:14Z</time></trkpt><trkpt lat="-28.481454270482615" lon="114.7821985553697"><ele>162.0</ele><time>2026-04-13T07:48:15Z</time></trkpt><trkpt lat="-28.481169788410444" lon="114.7821949353685"><ele>163.5</ele><time>2026-04-13T07:48:16Z</time></trkpt><trkpt lat="-28.48088780878406" lon="114.78218999766882"><ele>165.0</ele><time>2026-04-13T07:48:17Z</time></trkpt><trkpt lat="-28.48060595765587" lon="114.78218634506587"><ele>167.0</ele><time>2026-04-13T07:48:18Z</time></trkpt><trkpt lat="-28.480320044296" lon="114.78218469955976"><ele>169.0</ele><time>2026-04-13T07:48:19Z</time></trkpt><trkpt lat="-28.480034790552388" lon="114.7821816704119"><ele>169.0</ele><time>2026-04-13T07:48:20Z</time></trkpt><trkpt lat="-28.479752542590198" lon="114.78217779661202"><ele>169.0</ele><time>2026-04-13T07:48:21Z</time></trkpt><trkpt lat="-28.47946965666162" lon="114.78217145618555"><ele>171.0</ele><time>2026-04-13T07:48:22Z</time></trkpt><trkpt lat="-28.47918803136892" lon="114.78216615098515"><ele>173.0</ele><time>2026-04-13T07:48:23Z</time></trkpt><trkpt lat="-28.478906392818953" lon="114.78216113610624"><ele>172.5</ele><time>2026-04-13T07:48:24Z</time></trkpt><trkpt lat="-28.478625023968046" lon="114.78215675646649"><ele>172.0</ele><time>2026-04-13T07:48:25Z</time></trkpt><trkpt lat="-28.478338614830403" lon="114.7821539559906"><ele>172.0</ele><time>2026-04-13T07:48:26Z</time></trkpt><trkpt lat="-28.478046920676494" lon="114.78214979748071"><ele>172.0</ele><time>2026-04-13T07:48:27Z</time></trkpt><trkpt lat="-28.47775204524228" lon="114.78214542093163"><ele>171.5</ele><time>2026-04-13T07:48:28Z</time></trkpt><trkpt lat="-28.477453304258155" lon="114.782140708733"><ele>171.0</ele><time>2026-04-13T07:48:29Z</time></trkpt><trkpt lat="-28.47715244527314" lon="114.78213589418209"><ele>171.5</ele><time>2026-04-13T07:48:30Z</time></trkpt><trkpt lat="-28.47684349456224" lon="114.78213041742804"><ele>172.0</ele><time>2026-04-13T07:48:31Z</time></trkpt><trkpt lat="-28.476535493446992" lon="114.7821241676057"><ele>171.5</ele><time>2026-04-13T07:48:32Z</time></trkpt><trkpt lat="-28.476224663868617" lon="114.78211769969494"><ele>171.0</ele><time>2026-04-13T07:48:33Z</time></trkpt><trkpt lat="-28.47592046483208" lon="114.7821122638027"><ele>171.0</ele><time>2026-04-13T07:48:34Z</time></trkpt><trkpt lat="-28.47561816201566" lon="114.78210702976166"><ele>171.0</ele><time>2026-04-13T07:48:35Z</time></trkpt><trkpt lat="-28.475316105387453" lon="114.78209764528815"><ele>171.5</ele><time>2026-04-13T07:48:36Z</time></trkpt><trkpt lat="-28.47501785209772" lon="114.78208030708606"><ele>172.0</ele><time>2026-04-13T07:48:37Z</time></trkpt><trkpt lat="-28.47472642000549" lon="114.78203063829396"><ele>170.5</ele><time>2026-04-13T07:48:38Z</time></trkpt><trkpt lat="-28.474437319301924" lon="114.78197335246294"><ele>169.0</ele><time>2026-04-13T07:48:39Z</time></trkpt><trkpt lat="-28.474148651913648" lon="114.7818895566259"><ele>171.0</ele><time>2026-04-13T07:48:40Z</time></trkpt><trkpt lat="-28.4738542654506" lon="114.78178692753262"><ele>173.0</ele><time>2026-04-13T07:48:41Z</time></trkpt><trkpt lat="-28.473563746033772" lon="114.7816649370602"><ele>174.0</ele><time>2026-04-13T07:48:42Z</time></trkpt><trkpt lat="-28.473274243004994" lon="114.7815401557198"><ele>175.0</ele><time>2026-04-13T07:48:43Z</time></trkpt><trkpt lat="-28.472988302395265" lon="114.78141740246265"><ele>175.0</ele><time>2026-04-13T07:48:44Z</time></trkpt><trkpt lat="-28.472701515251973" lon="114.78129402187754"><ele>175.0</ele><time>2026-04-13T07:48:45Z</time></trkpt><trkpt lat="-28.472415909582505" lon="114.78117078843107"><ele>175.0</ele><time>2026-04-13T07:48:46Z</time></trkpt><trkpt lat="-28.472129827433225" lon="114.78104734939024"><ele>175.0</ele><time>2026-04-13T07:48:47Z</time></trkpt><trkpt lat="-28.47184764054574" lon="114.78092565886423"><ele>175.5</ele><time>2026-04-13T07:48:48Z</time></trkpt><trkpt lat="-28.471557394639902" lon="114.78081786588963"><ele>176.0</ele><time>2026-04-13T07:48:49Z</time></trkpt><trkpt lat="-28.47127325597574" lon="114.78070010632706"><ele>176.0</ele><time>2026-04-13T07:48:50Z</time></trkpt><trkpt lat="-28.47099388514116" lon="114.78056080737173"><ele>176.0</ele><time>2026-04-13T07:48:51Z</time></trkpt><trkpt lat="-28.470709114879813" lon="114.78043905872393"><ele>175.5</ele><time>2026-04-13T07:48:52Z</time></trkpt><trkpt lat="-28.470425651069064" lon="114.78031787140854"><ele>175.0</ele><time>2026-04-13T07:48:53Z</time></trkpt><trkpt lat="-28.470142727729556" lon="114.7801971267425"><ele>175.0</ele><time>2026-04-13T07:48:54Z</time></trkpt><trkpt lat="-28.469859919505634" lon="114.78007556709265"><ele>175.0</ele><time>2026-04-13T07:48:55Z</time></trkpt><trkpt lat="-28.46957281800351" lon="114.7799721536984"><ele>175.0</ele><time>2026-04-13T07:48:56Z</time></trkpt><trkpt lat="-28.46929502286499" lon="114.77985000756969"><ele>175.0</ele><time>2026-04-13T07:48:57Z</time></trkpt><trkpt lat="-28.469018693461987" lon="114.7797331929773"><ele>177.0</ele><time>2026-04-13T07:48:58Z</time></trkpt><trkpt lat="-28.46874668891512" lon="114.77959751798865"><ele>179.0</ele><time>2026-04-13T07:48:59Z</time></trkpt><trkpt lat="-28.468469527955182" lon="114.77947884720753"><ele>179.0</ele><time>2026-04-13T07:49:00Z</time></trkpt><trkpt lat="-28.468195992105056" lon="114.77936172841082"><ele>179.0</ele><time>2026-04-13T07:49:01Z</time></trkpt><trkpt lat="-28.4679195786288" lon="114.77924484719563"><ele>177.5</ele><time>2026-04-13T07:49:02Z</time></trkpt><trkpt lat="-28.467638801082423" lon="114.77915287855161"><ele>176.0</ele><time>2026-04-13T07:49:03Z</time></trkpt><trkpt lat="-28.467366482381852" lon="114.77903334885627"><ele>175.5</ele><time>2026-04-13T07:49:04Z</time></trkpt><trkpt lat="-28.46709354911061" lon="114.77891513194677"><ele>175.0</ele><time>2026-04-13T07:49:05Z</time></trkpt><trkpt lat="-28.466817283802285" lon="114.77879713070539"><ele>175.0</ele><time>2026-04-13T07:49:06Z</time></trkpt><trkpt lat="-28.466537660938776" lon="114.77867607513106"><ele>175.0</ele><time>2026-04-13T07:49:07Z</time></trkpt><trkpt lat="-28.46626075255998" lon="114.77855611060318"><ele>177.0</ele><time>2026-04-13T07:49:08Z</time></trkpt><trkpt lat="-28.465982536451616" lon="114.77843696157613"><ele>179.0</ele><time>2026-04-13T07:49:09Z</time></trkpt><trkpt lat="-28.4657049335813" lon="114.77831598755476"><ele>181.0</ele><time>2026-04-13T07:49:10Z</time></trkpt><trkpt lat="-28.46542467784176" lon="114.7781923880669"><ele>183.0</ele><time>2026-04-13T07:49:11Z</time></trkpt><trkpt lat="-28.46514643399777" lon="114.77807379299954"><ele>183.0</ele><time>2026-04-13T07:49:12Z</time></trkpt><trkpt lat="-28.4648668362886" lon="114.77795609163836"><ele>183.0</ele><time>2026-04-13T07:49:13Z</time></trkpt><trkpt lat="-28.464589762965723" lon="114.77783928204552"><ele>183.0</ele><time>2026-04-13T07:49:14Z</time></trkpt><trkpt lat="-28.464314913551195" lon="114.7777232811912"><ele>183.0</ele><time>2026-04-13T07:49:15Z</time></trkpt><trkpt lat="-28.46404194102307" lon="114.77760689854581"><ele>186.0</ele><time>2026-04-13T07:49:16Z</time></trkpt><trkpt lat="-28.463772227659906" lon="114.77749047573217"><ele>189.0</ele><time>2026-04-13T07:49:17Z</time></trkpt><trkpt lat="-28.463504234530227" lon="114.77737502739446"><ele>189.0</ele><time>2026-04-13T07:49:18Z</time></trkpt><trkpt lat="-28.463234545954897" lon="114.7772590624633"><ele>189.0</ele><time>2026-04-13T07:49:19Z</time></trkpt><trkpt lat="-28.46296223409601" lon="114.7771415063734"><ele>190.5</ele><time>2026-04-13T07:49:20Z</time></trkpt><trkpt lat="-28.462696631349715" lon="114.77702653803729"><ele>192.0</ele><time>2026-04-13T07:49:21Z</time></trkpt><trkpt lat="-28.46244500822894" lon="114.77690546351165"><ele>193.5</ele><time>2026-04-13T07:49:22Z</time></trkpt><trkpt lat="-28.462201778053632" lon="114.77676932972776"><ele>195.0</ele><time>2026-04-13T07:49:23Z</time></trkpt><trkpt lat="-28.46196867542927" lon="114.77662173636854"><ele>195.5</ele><time>2026-04-13T07:49:24Z</time></trkpt><trkpt lat="-28.46174943602029" lon="114.77646218262251"><ele>196.0</ele><time>2026-04-13T07:49:25Z</time></trkpt><trkpt lat="-28.461534901335312" lon="114.77628048115905"><ele>196.0</ele><time>2026-04-13T07:49:26Z</time></trkpt><trkpt lat="-28.461317620401353" lon="114.77608262759738"><ele>196.0</ele><time>2026-04-13T07:49:27Z</time></trkpt><trkpt lat="-28.46109971068342" lon="114.77588255537147"><ele>193.5</ele><time>2026-04-13T07:49:28Z</time></trkpt><trkpt lat="-28.460879684322794" lon="114.77568614000072"><ele>191.0</ele><time>2026-04-13T07:49:29Z</time></trkpt><trkpt lat="-28.460660542500214" lon="114.77548777505056"><ele>191.0</ele><time>2026-04-13T07:49:30Z</time></trkpt><trkpt lat="-28.460444652329883" lon="114.7752920218027"><ele>191.0</ele><time>2026-04-13T07:49:31Z</time></trkpt><trkpt lat="-28.46022599362694" lon="114.77509760377089"><ele>190.5</ele><time>2026-04-13T07:49:32Z</time></trkpt><trkpt lat="-28.460007819657324" lon="114.77490551876808"><ele>190.0</ele><time>2026-04-13T07:49:33Z</time></trkpt><trkpt lat="-28.459791719446688" lon="114.77471275183963"><ele>188.5</ele><time>2026-04-13T07:49:34Z</time></trkpt><trkpt lat="-28.45957489969492" lon="114.77451740269599"><ele>187.0</ele><time>2026-04-13T07:49:35Z</time></trkpt><trkpt lat="-28.459363026328077" lon="114.77432442131206"><ele>187.0</ele><time>2026-04-13T07:49:36Z</time></trkpt><trkpt lat="-28.45914906231876" lon="114.77413103043115"><ele>187.0</ele><time>2026-04-13T07:49:37Z</time></trkpt><trkpt lat="-28.458936183210923" lon="114.77394174685942"><ele>186.5</ele><time>2026-04-13T07:49:38Z</time></trkpt><trkpt lat="-28.45872123446507" lon="114.77374982082159"><ele>186.0</ele><time>2026-04-13T07:49:39Z</time></trkpt><trkpt lat="-28.45850802609833" lon="114.77355898475612"><ele>185.0</ele><time>2026-04-13T07:49:40Z</time></trkpt><trkpt lat="-28.45829697031514" lon="114.77336578275839"><ele>184.0</ele><time>2026-04-13T07:49:41Z</time></trkpt><trkpt lat="-28.45808399907198" lon="114.77316949522056"><ele>182.0</ele><time>2026-04-13T07:49:42Z</time></trkpt><trkpt lat="-28.457868419057228" lon="114.77297139509416"><ele>180.0</ele><time>2026-04-13T07:49:43Z</time></trkpt><trkpt lat="-28.45765451222345" lon="114.772770373817"><ele>181.5</ele><time>2026-04-13T07:49:44Z</time></trkpt><trkpt lat="-28.45744619940075" lon="114.77256515728318"><ele>183.0</ele><time>2026-04-13T07:49:45Z</time></trkpt><trkpt lat="-28.45724756376617" lon="114.7723494764709"><ele>183.0</ele><time>2026-04-13T07:49:46Z</time></trkpt><trkpt lat="-28.457059454901195" lon="114.7721226016847"><ele>183.0</ele><time>2026-04-13T07:49:47Z</time></trkpt><trkpt lat="-28.456880256512008" lon="114.77188396900341"><ele>183.0</ele><time>2026-04-13T07:49:48Z</time></trkpt><trkpt lat="-28.456700993508242" lon="114.77163270575687"><ele>183.0</ele><time>2026-04-13T07:49:49Z</time></trkpt><trkpt lat="-28.456524981750892" lon="114.77138220913962"><ele>183.0</ele><time>2026-04-13T07:49:50Z</time></trkpt><trkpt lat="-28.456347634106127" lon="114.77113461310935"><ele>183.0</ele><time>2026-04-13T07:49:51Z</time></trkpt><trkpt lat="-28.45617466737753" lon="114.77088904409497"><ele>184.0</ele><time>2026-04-13T07:49:52Z</time></trkpt><trkpt lat="-28.456000769274457" lon="114.77063982387416"><ele>185.0</ele><time>2026-04-13T07:49:53Z</time></trkpt><trkpt lat="-28.455824844996968" lon="114.7703933801223"><ele>186.5</ele><time>2026-04-13T07:49:54Z</time></trkpt><trkpt lat="-28.45564621937122" lon="114.77014408184775"><ele>188.0</ele><time>2026-04-13T07:49:55Z</time></trkpt><trkpt lat="-28.45546761209179" lon="114.76989920845459"><ele>187.0</ele><time>2026-04-13T07:49:56Z</time></trkpt><trkpt lat="-28.455286622311917" lon="114.7696523783265"><ele>186.0</ele><time>2026-04-13T07:49:57Z</time></trkpt><trkpt lat="-28.45510841938075" lon="114.76940455620483"><ele>187.5</ele><time>2026-04-13T07:49:58Z</time></trkpt><trkpt lat="-28.45493224422764" lon="114.76915566354566"><ele>189.0</ele><time>2026-04-13T07:49:59Z</time></trkpt><trkpt lat="-28.454757175357013" lon="114.76890578445041"><ele>189.5</ele><time>2026-04-13T07:50:00Z</time></trkpt><trkpt lat="-28.45458116148585" lon="114.768656928078"><ele>190.0</ele><time>2026-04-13T07:50:01Z</time></trkpt><trkpt lat="-28.4544010505784" lon="114.7684047363345"><ele>190.0</ele><time>2026-04-13T07:50:02Z</time></trkpt><trkpt lat="-28.454219337213953" lon="114.7681469395446"><ele>190.0</ele><time>2026-04-13T07:50:03Z</time></trkpt><trkpt lat="-28.454035843632614" lon="114.76789200529643"><ele>192.5</ele><time>2026-04-13T07:50:04Z</time></trkpt><trkpt lat="-28.45385525261666" lon="114.76763923135618"><ele>195.0</ele><time>2026-04-13T07:50:05Z</time></trkpt><trkpt lat="-28.453675315177705" lon="114.76738854903657"><ele>195.0</ele><time>2026-04-13T07:50:06Z</time></trkpt><trkpt lat="-28.453495897474387" lon="114.76714613422452"><ele>195.0</ele><time>2026-04-13T07:50:07Z</time></trkpt><trkpt lat="-28.453321722929353" lon="114.7668986157535"><ele>196.0</ele><time>2026-04-13T07:50:08Z</time></trkpt><trkpt lat="-28.453109693760698" lon="114.76669504459252"><ele>197.0</ele><time>2026-04-13T07:50:09Z</time></trkpt><trkpt lat="-28.452899906601353" lon="114.76647970986559"><ele>197.0</ele><time>2026-04-13T07:50:10Z</time></trkpt><trkpt lat="-28.452680636250925" lon="114.76627995087189"><ele>197.0</ele><time>2026-04-13T07:50:11Z</time></trkpt><trkpt lat="-28.452453003695013" lon="114.76609297355606"><ele>197.0</ele><time>2026-04-13T07:50:12Z</time></trkpt><trkpt lat="-28.452220375085748" lon="114.76590939644656"><ele>197.0</ele><time>2026-04-13T07:50:13Z</time></trkpt><trkpt lat="-28.452006444681874" lon="114.76570769701253"><ele>198.0</ele><time>2026-04-13T07:50:14Z</time></trkpt><trkpt lat="-28.451781996423293" lon="114.76551810970777"><ele>199.0</ele><time>2026-04-13T07:50:15Z</time></trkpt><trkpt lat="-28.451560000833762" lon="114.7653313049427"><ele>201.5</ele><time>2026-04-13T07:50:16Z</time></trkpt><trkpt lat="-28.4513411993868" lon="114.76514055572956"><ele>204.0</ele><time>2026-04-13T07:50:17Z</time></trkpt><trkpt lat="-28.451123618565173" lon="114.7649397297738"><ele>205.5</ele><time>2026-04-13T07:50:18Z</time></trkpt><trkpt lat="-28.450915785503895" lon="114.76472944776499"><ele>207.0</ele><time>2026-04-13T07:50:19Z</time></trkpt><trkpt lat="-28.450697293534777" lon="114.7645230965876"><ele>204.0</ele><time>2026-04-13T07:50:20Z</time></trkpt><trkpt lat="-28.45050390735572" lon="114.76427329268522"><ele>201.0</ele><time>2026-04-13T07:50:21Z</time></trkpt><trkpt lat="-28.4502955263741" lon="114.76402919553358"><ele>200.5</ele><time>2026-04-13T07:50:22Z</time></trkpt><trkpt lat="-28.45008442600717" lon="114.76377920036897"><ele>200.0</ele><time>2026-04-13T07:50:23Z</time></trkpt><trkpt lat="-28.449872950233075" lon="114.7635286473008"><ele>198.5</ele><time>2026-04-13T07:50:24Z</time></trkpt><trkpt lat="-28.449659047271005" lon="114.76327435418318"><ele>197.0</ele><time>2026-04-13T07:50:25Z</time></trkpt><trkpt lat="-28.449441023175428" lon="114.76301670018435"><ele>196.5</ele><time>2026-04-13T07:50:26Z</time></trkpt><trkpt lat="-28.449221015338686" lon="114.76275559915518"><ele>196.0</ele><time>2026-04-13T07:50:27Z</time></trkpt><trkpt lat="-28.44900146055281" lon="114.76249659934707"><ele>195.0</ele><time>2026-04-13T07:50:28Z</time></trkpt><trkpt lat="-28.448781195919867" lon="114.76223777472713"><ele>194.0</ele><time>2026-04-13T07:50:29Z</time></trkpt><trkpt lat="-28.448561462690527" lon="114.76197947497553"><ele>193.5</ele><time>2026-04-13T07:50:30Z</time></trkpt><trkpt lat="-28.448344582770535" lon="114.76172617189907"><ele>193.0</ele><time>2026-04-13T07:50:31Z</time></trkpt><trkpt lat="-28.448126500603184" lon="114.76147060584456"><ele>193.0</ele><time>2026-04-13T07:50:32Z</time></trkpt><trkpt lat="-28.447913582361235" lon="114.76121984534122"><ele>193.0</ele><time>2026-04-13T07:50:33Z</time></trkpt><trkpt lat="-28.44770622175215" lon="114.76097262948504"><ele>194.0</ele><time>2026-04-13T07:50:34Z</time></trkpt><trkpt lat="-28.447499357947112" lon="114.760715508924"><ele>195.0</ele><time>2026-04-13T07:50:35Z</time></trkpt><trkpt lat="-28.447305091640548" lon="114.7604485685021"><ele>195.0</ele><time>2026-04-13T07:50:36Z</time></trkpt><trkpt lat="-28.447123269730078" lon="114.76017205592882"><ele>195.0</ele><time>2026-04-13T07:50:37Z</time></trkpt><trkpt lat="-28.446957560768496" lon="114.75988779384112"><ele>195.0</ele><time>2026-04-13T07:50:38Z</time></trkpt><trkpt lat="-28.446807722906552" lon="114.75959831611699"><ele>195.0</ele><time>2026-04-13T07:50:39Z</time></trkpt><trkpt lat="-28.446659432780873" lon="114.75929589221113"><ele>196.0</ele><time>2026-04-13T07:50:40Z</time></trkpt><trkpt lat="-28.446504848960746" lon="114.75898694956267"><ele>197.0</ele><time>2026-04-13T07:50:41Z</time></trkpt><trkpt lat="-28.446325156509573" lon="114.75869188044291"><ele>196.5</ele><time>2026-04-13T07:50:42Z</time></trkpt><trkpt lat="-28.44614861330199" lon="114.75839986485519"><ele>196.0</ele><time>2026-04-13T07:50:43Z</time></trkpt><trkpt lat="-28.44595749152825" lon="114.75812378088965"><ele>196.0</ele><time>2026-04-13T07:50:44Z</time></trkpt><trkpt lat="-28.44574791802934" lon="114.75786764475583"><ele>196.0</ele><time>2026-04-13T07:50:45Z</time></trkpt><trkpt lat="-28.445526453852366" lon="114.7576294331489"><ele>194.5</ele><time>2026-04-13T07:50:46Z</time></trkpt><trkpt lat="-28.445297236499034" lon="114.75740167959464"><ele>193.0</ele><time>2026-04-13T07:50:47Z</time></trkpt><trkpt lat="-28.445060594040893" lon="114.75717885770369"><ele>193.0</ele><time>2026-04-13T07:50:48Z</time></trkpt><trkpt lat="-28.444816438319695" lon="114.75696666584757"><ele>193.0</ele><time>2026-04-13T07:50:49Z</time></trkpt><trkpt lat="-28.444579098032847" lon="114.75672988743592"><ele>191.5</ele><time>2026-04-13T07:50:50Z</time></trkpt><trkpt lat="-28.444334288014154" lon="114.7565067413329"><ele>190.0</ele><time>2026-04-13T07:50:51Z</time></trkpt><trkpt lat="-28.444088137308693" lon="114.75628121933211"><ele>190.0</ele><time>2026-04-13T07:50:52Z</time></trkpt><trkpt lat="-28.443843516365366" lon="114.7560594772879"><ele>190.0</ele><time>2026-04-13T07:50:53Z</time></trkpt><trkpt lat="-28.443594989527362" lon="114.75583510419501"><ele>190.5</ele><time>2026-04-13T07:50:54Z</time></trkpt><trkpt lat="-28.443343893534827" lon="114.75560607820674"><ele>191.0</ele><time>2026-04-13T07:50:55Z</time></trkpt><trkpt lat="-28.4430927897906" lon="114.75537492423555"><ele>192.0</ele><time>2026-04-13T07:50:56Z</time></trkpt><trkpt lat="-28.442843364641682" lon="114.75514677826308"><ele>193.0</ele><time>2026-04-13T07:50:57Z</time></trkpt><trkpt lat="-28.44259840595667" lon="114.75492379210475"><ele>193.0</ele><time>2026-04-13T07:50:58Z</time></trkpt><trkpt lat="-28.442356619109475" lon="114.75470488768849"><ele>193.0</ele><time>2026-04-13T07:50:59Z</time></trkpt><trkpt lat="-28.442116883635777" lon="114.7544877380738"><ele>190.5</ele><time>2026-04-13T07:51:00Z</time></trkpt><trkpt lat="-28.441870375403372" lon="114.75428684461797"><ele>188.0</ele><time>2026-04-13T07:51:01Z</time></trkpt><trkpt lat="-28.44164141640535" lon="114.7540720019121"><ele>188.0</ele><time>2026-04-13T07:51:02Z</time></trkpt><trkpt lat="-28.441412021599053" lon="114.7538618371961"><ele>188.0</ele><time>2026-04-13T07:51:03Z</time></trkpt><trkpt lat="-28.44117869373161" lon="114.75365446358153"><ele>188.5</ele><time>2026-04-13T07:51:04Z</time></trkpt><trkpt lat="-28.440956627227703" lon="114.75341741321766"><ele>189.0</ele><time>2026-04-13T07:51:05Z</time></trkpt><trkpt lat="-28.440733683422735" lon="114.75318477226071"><ele>189.0</ele><time>2026-04-13T07:51:06Z</time></trkpt><trkpt lat="-28.440522761299306" lon="114.75293935587295"><ele>189.0</ele><time>2026-04-13T07:51:07Z</time></trkpt><trkpt lat="-28.440316186372204" lon="114.75268789074099"><ele>190.0</ele><time>2026-04-13T07:51:08Z</time></trkpt><trkpt lat="-28.440106244032545" lon="114.7524321736499"><ele>191.0</ele><time>2026-04-13T07:51:09Z</time></trkpt><trkpt lat="-28.43988442239598" lon="114.75218293853722"><ele>191.0</ele><time>2026-04-13T07:51:10Z</time></trkpt><trkpt lat="-28.439680406968925" lon="114.75191416726598"><ele>191.0</ele><time>2026-04-13T07:51:11Z</time></trkpt><trkpt lat="-28.43947384965863" lon="114.75164965018357"><ele>191.5</ele><time>2026-04-13T07:51:12Z</time></trkpt><trkpt lat="-28.439267136650948" lon="114.75138615290447"><ele>192.0</ele><time>2026-04-13T07:51:13Z</time></trkpt><trkpt lat="-28.439059207072358" lon="114.7511251542346"><ele>191.0</ele><time>2026-04-13T07:51:14Z</time></trkpt><trkpt lat="-28.438853481169012" lon="114.75086219152172"><ele>190.0</ele><time>2026-04-13T07:51:15Z</time></trkpt><trkpt lat="-28.43864784490969" lon="114.75059880085368"><ele>190.0</ele><time>2026-04-13T07:51:16Z</time></trkpt><trkpt lat="-28.43844265600514" lon="114.75033427155581"><ele>190.0</ele><time>2026-04-13T07:51:17Z</time></trkpt><trkpt lat="-28.438240920525626" lon="114.75007267074058"><ele>190.0</ele><time>2026-04-13T07:51:18Z</time></trkpt><trkpt lat="-28.438039542791728" lon="114.7498130238575"><ele>190.0</ele><time>2026-04-13T07:51:19Z</time></trkpt><trkpt lat="-28.437837869286852" lon="114.74955908914555"><ele>192.5</ele><time>2026-04-13T07:51:20Z</time></trkpt><trkpt lat="-28.43763378226943" lon="114.74930625230051"><ele>195.0</ele><time>2026-04-13T07:51:21Z</time></trkpt><trkpt lat="-28.437429622546553" lon="114.74905162993124"><ele>195.0</ele><time>2026-04-13T07:51:22Z</time></trkpt><trkpt lat="-28.437223843224366" lon="114.74879179618956"><ele>195.0</ele><time>2026-04-13T07:51:23Z</time></trkpt><trkpt lat="-28.43701887486507" lon="114.74852958948085"><ele>195.5</ele><time>2026-04-13T07:51:24Z</time></trkpt><trkpt lat="-28.43681295829234" lon="114.74826770638799"><ele>196.0</ele><time>2026-04-13T07:51:25Z</time></trkpt><trkpt lat="-28.43660872660526" lon="114.74801053246796"><ele>196.0</ele><time>2026-04-13T07:51:26Z</time></trkpt><trkpt lat="-28.436418513261863" lon="114.74776803120626"><ele>196.0</ele><time>2026-04-13T07:51:27Z</time></trkpt><trkpt lat="-28.436243179043764" lon="114.74754368462143"><ele>196.0</ele><time>2026-04-13T07:51:28Z</time></trkpt><trkpt lat="-28.436078875382393" lon="114.74733397566878"><ele>196.0</ele><time>2026-04-13T07:51:29Z</time></trkpt><trkpt lat="-28.435930804969903" lon="114.74713856316527"><ele>196.0</ele><time>2026-04-13T07:51:30Z</time></trkpt><trkpt lat="-28.435803959561106" lon="114.74695460444524"><ele>196.0</ele><time>2026-04-13T07:51:31Z</time></trkpt><trkpt lat="-28.435693246693663" lon="114.74675714416254"><ele>196.0</ele><time>2026-04-13T07:51:32Z</time></trkpt><trkpt lat="-28.43559557080938" lon="114.7465282787158"><ele>195.5</ele><time>2026-04-13T07:51:33Z</time></trkpt><trkpt lat="-28.435503521934557" lon="114.74627424911401"><ele>195.0</ele><time>2026-04-13T07:51:34Z</time></trkpt><trkpt lat="-28.435415098253284" lon="114.74601118255538"><ele>195.0</ele><time>2026-04-13T07:51:35Z</time></trkpt><trkpt lat="-28.435330674748695" lon="114.74574782616878"><ele>195.0</ele><time>2026-04-13T07:51:36Z</time></trkpt><trkpt lat="-28.43524424195309" lon="114.74547850005352"><ele>196.0</ele><time>2026-04-13T07:51:37Z</time></trkpt><trkpt lat="-28.435159431940214" lon="114.74520873134371"><ele>197.0</ele><time>2026-04-13T07:51:38Z</time></trkpt><trkpt lat="-28.435074905315073" lon="114.74493442356577"><ele>197.0</ele><time>2026-04-13T07:51:39Z</time></trkpt><trkpt lat="-28.434991086722345" lon="114.74465846080113"><ele>197.0</ele><time>2026-04-13T07:51:40Z</time></trkpt><trkpt lat="-28.434905413717324" lon="114.74437712597026"><ele>197.5</ele><time>2026-04-13T07:51:41Z</time></trkpt><trkpt lat="-28.434817778474024" lon="114.74409507510961"><ele>198.0</ele><time>2026-04-13T07:51:42Z</time></trkpt><trkpt lat="-28.43472921233254" lon="114.74381156943342"><ele>199.0</ele><time>2026-04-13T07:51:43Z</time></trkpt><trkpt lat="-28.434642574221836" lon="114.74352905118326"><ele>200.0</ele><time>2026-04-13T07:51:44Z</time></trkpt><trkpt lat="-28.434555453330155" lon="114.74324274636899"><ele>200.0</ele><time>2026-04-13T07:51:45Z</time></trkpt><trkpt lat="-28.434466226235642" lon="114.742955459288"><ele>200.0</ele><time>2026-04-13T07:51:46Z</time></trkpt><trkpt lat="-28.43437306426482" lon="114.74266089801483"><ele>200.0</ele><time>2026-04-13T07:51:47Z</time></trkpt><trkpt lat="-28.434281213954684" lon="114.74236159447301"><ele>200.0</ele><time>2026-04-13T07:51:48Z</time></trkpt><trkpt lat="-28.434188966216595" lon="114.74205461586585"><ele>201.0</ele><time>2026-04-13T07:51:49Z</time></trkpt><trkpt lat="-28.434093631782705" lon="114.74174733484534"><ele>202.0</ele><time>2026-04-13T07:51:50Z</time></trkpt><trkpt lat="-28.433997879937525" lon="114.74143930085323"><ele>202.0</ele><time>2026-04-13T07:51:51Z</time></trkpt><trkpt lat="-28.433903078781174" lon="114.74113107864889"><ele>202.0</ele><time>2026-04-13T07:51:52Z</time></trkpt><trkpt lat="-28.433807357653002" lon="114.74082274128428"><ele>202.5</ele><time>2026-04-13T07:51:53Z</time></trkpt><trkpt lat="-28.433711360903285" lon="114.74051452785851"><ele>203.0</ele><time>2026-04-13T07:51:54Z</time></trkpt><trkpt lat="-28.433618032704228" lon="114.74020950014892"><ele>203.5</ele><time>2026-04-13T07:51:55Z</time></trkpt><trkpt lat="-28.43352585134748" lon="114.73990313623362"><ele>204.0</ele><time>2026-04-13T07:51:56Z</time></trkpt><trkpt lat="-28.433433937361837" lon="114.73959445254984"><ele>206.0</ele><time>2026-04-13T07:51:57Z</time></trkpt><trkpt lat="-28.433339889275647" lon="114.73928373595739"><ele>208.0</ele><time>2026-04-13T07:51:58Z</time></trkpt><trkpt lat="-28.433244619629832" lon="114.73897663675272"><ele>208.0</ele><time>2026-04-13T07:51:59Z</time></trkpt><trkpt lat="-28.433150835138726" lon="114.73866434006078"><ele>208.0</ele><time>2026-04-13T07:52:00Z</time></trkpt><trkpt lat="-28.433057625558924" lon="114.7383521081218"><ele>209.0</ele><time>2026-04-13T07:52:01Z</time></trkpt><trkpt lat="-28.43296429216014" lon="114.73803983331463"><ele>210.0</ele><time>2026-04-13T07:52:02Z</time></trkpt><trkpt lat="-28.43286932410959" lon="114.73773101876252"><ele>210.5</ele><time>2026-04-13T07:52:03Z</time></trkpt><trkpt lat="-28.432777653726546" lon="114.73742384709553"><ele>211.0</ele><time>2026-04-13T07:52:04Z</time></trkpt><trkpt lat="-28.432685698794494" lon="114.73711576771767"><ele>213.5</ele><time>2026-04-13T07:52:05Z</time></trkpt><trkpt lat="-28.43259243758533" lon="114.73680502890942"><ele>216.0</ele><time>2026-04-13T07:52:06Z</time></trkpt><trkpt lat="-28.432497120495697" lon="114.7365002321132"><ele>216.0</ele><time>2026-04-13T07:52:07Z</time></trkpt><trkpt lat="-28.43240054516091" lon="114.73619392950077"><ele>216.0</ele><time>2026-04-13T07:52:08Z</time></trkpt><trkpt lat="-28.432305148266654" lon="114.73588925481242"><ele>217.0</ele><time>2026-04-13T07:52:09Z</time></trkpt><trkpt lat="-28.432214820935798" lon="114.73558271050423"><ele>218.0</ele><time>2026-04-13T07:52:10Z</time></trkpt><trkpt lat="-28.43212770772916" lon="114.73527468607381"><ele>223.5</ele><time>2026-04-13T07:52:11Z</time></trkpt><trkpt lat="-28.43203925141666" lon="114.73496587769607"><ele>229.0</ele><time>2026-04-13T07:52:12Z</time></trkpt><trkpt lat="-28.43194465694683" lon="114.73465800600482"><ele>228.5</ele><time>2026-04-13T07:52:13Z</time></trkpt><trkpt lat="-28.43184591123722" lon="114.73434899906034"><ele>228.0</ele><time>2026-04-13T07:52:14Z</time></trkpt><trkpt lat="-28.431745824025462" lon="114.73403515205293"><ele>228.0</ele><time>2026-04-13T07:52:15Z</time></trkpt><trkpt lat="-28.43168659804542" lon="114.73371060788239"><ele>228.0</ele><time>2026-04-13T07:52:16Z</time></trkpt><trkpt lat="-28.43159056032005" lon="114.73339158238137"><ele>228.0</ele><time>2026-04-13T07:52:17Z</time></trkpt><trkpt lat="-28.431495901813502" lon="114.73307694379861"><ele>228.0</ele><time>2026-04-13T07:52:18Z</time></trkpt><trkpt lat="-28.431400143934578" lon="114.73275910347775"><ele>230.5</ele><time>2026-04-13T07:52:19Z</time></trkpt><trkpt lat="-28.43130260161842" lon="114.73244033675374"><ele>233.0</ele><time>2026-04-13T07:52:20Z</time></trkpt><trkpt lat="-28.43120597926304" lon="114.73212255727542"><ele>233.5</ele><time>2026-04-13T07:52:21Z</time></trkpt><trkpt lat="-28.431110743117703" lon="114.73180813493732"><ele>234.0</ele><time>2026-04-13T07:52:22Z</time></trkpt><trkpt lat="-28.43101712213068" lon="114.73150067919929"><ele>234.0</ele><time>2026-04-13T07:52:23Z</time></trkpt><trkpt lat="-28.43092181262131" lon="114.73119121011031"><ele>234.0</ele><time>2026-04-13T07:52:24Z</time></trkpt><trkpt lat="-28.430828169428263" lon="114.73088770683171"><ele>236.0</ele><time>2026-04-13T07:52:25Z</time></trkpt><trkpt lat="-28.430731455452" lon="114.73058104469082"><ele>238.0</ele><time>2026-04-13T07:52:26Z</time></trkpt><trkpt lat="-28.430634299819708" lon="114.73027276519097"><ele>238.5</ele><time>2026-04-13T07:52:27Z</time></trkpt><trkpt lat="-28.430536691283823" lon="114.7299643885618"><ele>239.0</ele><time>2026-04-13T07:52:28Z</time></trkpt><trkpt lat="-28.430441205752782" lon="114.72965935877008"><ele>242.0</ele><time>2026-04-13T07:52:29Z</time></trkpt><trkpt lat="-28.43034720178472" lon="114.72935572929646"><ele>245.0</ele><time>2026-04-13T07:52:30Z</time></trkpt><trkpt lat="-28.43025359347907" lon="114.72905256878683"><ele>245.0</ele><time>2026-04-13T07:52:31Z</time></trkpt><trkpt lat="-28.430161527875338" lon="114.7287544985358"><ele>245.0</ele><time>2026-04-13T07:52:32Z</time></trkpt><trkpt lat="-28.430070881946957" lon="114.72845530299286"><ele>246.5</ele><time>2026-04-13T07:52:33Z</time></trkpt><trkpt lat="-28.429979758812227" lon="114.72814893776007"><ele>248.0</ele><time>2026-04-13T07:52:34Z</time></trkpt><trkpt lat="-28.42988965377319" lon="114.7278460990484"><ele>248.5</ele><time>2026-04-13T07:52:35Z</time></trkpt><trkpt lat="-28.42979934086185" lon="114.72754597124826"><ele>249.0</ele><time>2026-04-13T07:52:36Z</time></trkpt><trkpt lat="-28.429708802244267" lon="114.72725048994913"><ele>249.0</ele><time>2026-04-13T07:52:37Z</time></trkpt><trkpt lat="-28.42961887965258" lon="114.72695216705394"><ele>249.0</ele><time>2026-04-13T07:52:38Z</time></trkpt><trkpt lat="-28.429528829495535" lon="114.72664457100542"><ele>248.0</ele><time>2026-04-13T07:52:39Z</time></trkpt><trkpt lat="-28.42943976408553" lon="114.72633152613687"><ele>247.0</ele><time>2026-04-13T07:52:40Z</time></trkpt><trkpt lat="-28.429354440964516" lon="114.72601435196418"><ele>245.0</ele><time>2026-04-13T07:52:41Z</time></trkpt><trkpt lat="-28.42927306104382" lon="114.72569304143533"><ele>243.0</ele><time>2026-04-13T07:52:42Z</time></trkpt><trkpt lat="-28.429193772132567" lon="114.72536931758403"><ele>243.5</ele><time>2026-04-13T07:52:43Z</time></trkpt><trkpt lat="-28.42911787594214" lon="114.72504236114331"><ele>244.0</ele><time>2026-04-13T07:52:44Z</time></trkpt><trkpt lat="-28.42904136669787" lon="114.72471255287654"><ele>242.5</ele><time>2026-04-13T07:52:45Z</time></trkpt><trkpt lat="-28.428966116581353" lon="114.72438500308765"><ele>241.0</ele><time>2026-04-13T07:52:46Z</time></trkpt><trkpt lat="-28.428893023330026" lon="114.72407080889417"><ele>241.0</ele><time>2026-04-13T07:52:47Z</time></trkpt><trkpt lat="-28.428825174714994" lon="114.72376983560001"><ele>241.0</ele><time>2026-04-13T07:52:48Z</time></trkpt><trkpt lat="-28.428763605557958" lon="114.7234644839609"><ele>239.5</ele><time>2026-04-13T07:52:49Z</time></trkpt><trkpt lat="-28.428707930303208" lon="114.72315833962303"><ele>238.0</ele><time>2026-04-13T07:52:50Z</time></trkpt><trkpt lat="-28.428650178459396" lon="114.72286066282129"><ele>237.5</ele><time>2026-04-13T07:52:51Z</time></trkpt><trkpt lat="-28.428586151941488" lon="114.72256798352593"><ele>237.0</ele><time>2026-04-13T07:52:52Z</time></trkpt><trkpt lat="-28.4285186722128" lon="114.72227774909828"><ele>237.0</ele><time>2026-04-13T07:52:53Z</time></trkpt><trkpt lat="-28.42845293954085" lon="114.72199415555154"><ele>237.0</ele><time>2026-04-13T07:52:54Z</time></trkpt><trkpt lat="-28.428392059955367" lon="114.72172631963512"><ele>235.0</ele><time>2026-04-13T07:52:55Z</time></trkpt><trkpt lat="-28.42833231638339" lon="114.72146208569728"><ele>233.0</ele><time>2026-04-13T07:52:56Z</time></trkpt><trkpt lat="-28.428275063728357" lon="114.72121103428198"><ele>234.0</ele><time>2026-04-13T07:52:57Z</time></trkpt><trkpt lat="-28.42821880974803" lon="114.72095682346483"><ele>235.0</ele><time>2026-04-13T07:52:58Z</time></trkpt><trkpt lat="-28.428161904197367" lon="114.72069386871188"><ele>235.0</ele><time>2026-04-13T07:52:59Z</time></trkpt><trkpt lat="-28.428106767334878" lon="114.72043459660198"><ele>235.0</ele><time>2026-04-13T07:53:00Z</time></trkpt><trkpt lat="-28.42805242436454" lon="114.72016961666901"><ele>233.5</ele><time>2026-04-13T07:53:01Z</time></trkpt><trkpt lat="-28.42799972351313" lon="114.71990863973053"><ele>232.0</ele><time>2026-04-13T07:53:02Z</time></trkpt><trkpt lat="-28.427949696044514" lon="114.71965668478104"><ele>230.66666666666666</ele><time>2026-04-13T07:53:03Z</time></trkpt><trkpt lat="-28.427899396615054" lon="114.71941816096933"><ele>229.33333333333331</ele><time>2026-04-13T07:53:04Z</time></trkpt><trkpt lat="-28.427834023931283" lon="114.71919776521125"><ele>228.0</ele><time>2026-04-13T07:53:05Z</time></trkpt><trkpt lat="-28.427762311328426" lon="114.71897883183297"><ele>226.5</ele><time>2026-04-13T07:53:06Z</time></trkpt><trkpt lat="-28.427685266204637" lon="114.71874361863225"><ele>225.0</ele><time>2026-04-13T07:53:07Z</time></trkpt><trkpt lat="-28.427596836057752" lon="114.71849113160866"><ele>224.5</ele><time>2026-04-13T07:53:08Z</time></trkpt><trkpt lat="-28.427378152405478" lon="114.7182934367383"><ele>224.0</ele><time>2026-04-13T07:53:09Z</time></trkpt><trkpt lat="-28.427260082832948" lon="114.7180561931398"><ele>223.5</ele><time>2026-04-13T07:53:10Z</time></trkpt><trkpt lat="-28.427142564090456" lon="114.71781047196826"><ele>223.0</ele><time>2026-04-13T07:53:11Z</time></trkpt><trkpt lat="-28.427028069533783" lon="114.71756208603784"><ele>222.0</ele><time>2026-04-13T07:53:12Z</time></trkpt><trkpt lat="-28.426920834658016" lon="114.71732060252252"><ele>221.0</ele><time>2026-04-13T07:53:13Z</time></trkpt><trkpt lat="-28.426821066157533" lon="114.71708606220976"><ele>220.5</ele><time>2026-04-13T07:53:14Z</time></trkpt><trkpt lat="-28.426717910110796" lon="114.71684283815951"><ele>220.0</ele><time>2026-04-13T07:53:15Z</time></trkpt><trkpt lat="-28.426605314854474" lon="114.71659726377356"><ele>220.0</ele><time>2026-04-13T07:53:16Z</time></trkpt><trkpt lat="-28.426483807542933" lon="114.71635233028755"><ele>220.0</ele><time>2026-04-13T07:53:17Z</time></trkpt><trkpt lat="-28.426353275207248" lon="114.71612057232889"><ele>218.0</ele><time>2026-04-13T07:53:18Z</time></trkpt><trkpt lat="-28.426208565779007" lon="114.71589284161823"><ele>216.0</ele><time>2026-04-13T07:53:19Z</time></trkpt><trkpt lat="-28.42605163339582" lon="114.71568043136693"><ele>216.0</ele><time>2026-04-13T07:53:20Z</time></trkpt><trkpt lat="-28.42588432005741" lon="114.71547632808604"><ele>216.0</ele><time>2026-04-13T07:53:21Z</time></trkpt><trkpt lat="-28.425701474029687" lon="114.7152740257514"><ele>216.0</ele><time>2026-04-13T07:53:22Z</time></trkpt><trkpt lat="-28.42550265653213" lon="114.71507585772932"><ele>216.0</ele><time>2026-04-13T07:53:23Z</time></trkpt><trkpt lat="-28.425291753653173" lon="114.71488194713965"><ele>216.0</ele><time>2026-04-13T07:53:24Z</time></trkpt><trkpt lat="-28.4250736087572" lon="114.71468968480369"><ele>216.0</ele><time>2026-04-13T07:53:25Z</time></trkpt><trkpt lat="-28.42485159879479" lon="114.71449946947838"><ele>214.5</ele><time>2026-04-13T07:53:26Z</time></trkpt><trkpt lat="-28.424623989136354" lon="114.71430889289822"><ele>213.0</ele><time>2026-04-13T07:53:27Z</time></trkpt><trkpt lat="-28.42440087736438" lon="114.71412577283935"><ele>213.0</ele><time>2026-04-13T07:53:28Z</time></trkpt><trkpt lat="-28.42418702214174" lon="114.7139487841095"><ele>213.0</ele><time>2026-04-13T07:53:29Z</time></trkpt><trkpt lat="-28.42398949586481" lon="114.71378245908083"><ele>211.0</ele><time>2026-04-13T07:53:30Z</time></trkpt><trkpt lat="-28.423798302211026" lon="114.71362006235496"><ele>209.0</ele><time>2026-04-13T07:53:31Z</time></trkpt><trkpt lat="-28.423611681890524" lon="114.71346207536277"><ele>208.5</ele><time>2026-04-13T07:53:32Z</time></trkpt><trkpt lat="-28.423419348676624" lon="114.71330385900573"><ele>208.0</ele><time>2026-04-13T07:53:33Z</time></trkpt><trkpt lat="-28.423223038875744" lon="114.71314623981974"><ele>208.0</ele><time>2026-04-13T07:53:34Z</time></trkpt><trkpt lat="-28.423025228235435" lon="114.71299603975203"><ele>208.0</ele><time>2026-04-13T07:53:35Z</time></trkpt><trkpt lat="-28.42283492170579" lon="114.71285963590132"><ele>208.0</ele><time>2026-04-13T07:53:36Z</time></trkpt><trkpt lat="-28.42265328301285" lon="114.71273011384622"><ele>208.0</ele><time>2026-04-13T07:53:37Z</time></trkpt><trkpt lat="-28.422471406556195" lon="114.712584324062"><ele>208.0</ele><time>2026-04-13T07:53:38Z</time></trkpt><trkpt lat="-28.42229001499152" lon="114.71241546533636"><ele>207.0</ele><time>2026-04-13T07:53:39Z</time></trkpt><trkpt lat="-28.422115230992713" lon="114.71222878880076"><ele>206.0</ele><time>2026-04-13T07:53:40Z</time></trkpt><trkpt lat="-28.421947462210465" lon="114.71201836703713"><ele>205.0</ele><time>2026-04-13T07:53:41Z</time></trkpt><trkpt lat="-28.421786424967042" lon="114.71178970888003"><ele>204.0</ele><time>2026-04-13T07:53:42Z</time></trkpt><trkpt lat="-28.421629919364786" lon="114.71154572145132"><ele>204.0</ele><time>2026-04-13T07:53:43Z</time></trkpt><trkpt lat="-28.42148480181828" lon="114.71129258768713"><ele>204.0</ele><time>2026-04-13T07:53:44Z</time></trkpt><trkpt lat="-28.42134638251705" lon="114.7110310299894"><ele>201.0</ele><time>2026-04-13T07:53:45Z</time></trkpt><trkpt lat="-28.42121738728644" lon="114.71076847795632"><ele>198.0</ele><time>2026-04-13T07:53:46Z</time></trkpt><trkpt lat="-28.42109869525005" lon="114.71049875764749"><ele>198.5</ele><time>2026-04-13T07:53:47Z</time></trkpt><trkpt lat="-28.42098821894791" lon="114.71022151222327"><ele>199.0</ele><time>2026-04-13T07:53:48Z</time></trkpt><trkpt lat="-28.42087724681312" lon="114.70994249075845"><ele>199.0</ele><time>2026-04-13T07:53:49Z</time></trkpt><trkpt lat="-28.420764822885424" lon="114.70965706698998"><ele>199.0</ele><time>2026-04-13T07:53:50Z</time></trkpt><trkpt lat="-28.420655069582295" lon="114.7093670536994"><ele>198.5</ele><time>2026-04-13T07:53:51Z</time></trkpt><trkpt lat="-28.42054732905483" lon="114.70907664502926"><ele>198.0</ele><time>2026-04-13T07:53:52Z</time></trkpt><trkpt lat="-28.42044107883821" lon="114.70878946377361"><ele>198.0</ele><time>2026-04-13T07:53:53Z</time></trkpt><trkpt lat="-28.420339470235962" lon="114.70852775940813"><ele>198.0</ele><time>2026-04-13T07:53:54Z</time></trkpt><trkpt lat="-28.420249856004876" lon="114.70830087250081"><ele>198.0</ele><time>2026-04-13T07:53:55Z</time></trkpt><trkpt lat="-28.420175414888856" lon="114.70810072561603"><ele>198.0</ele><time>2026-04-13T07:53:56Z</time></trkpt><trkpt lat="-28.42012066793578" lon="114.70791738489042"><ele>198.0</ele><time>2026-04-13T07:53:57Z</time></trkpt><trkpt lat="-28.420082477581253" lon="114.70771906381155"><ele>196.33333333333331</ele><time>2026-04-13T07:53:58Z</time></trkpt><trkpt lat="-28.42007170260116" lon="114.70748930100707"><ele>194.66666666666666</ele><time>2026-04-13T07:53:59Z</time></trkpt><trkpt lat="-28.420079150301646" lon="114.7072345661682"><ele>193.0</ele><time>2026-04-13T07:54:00Z</time></trkpt><trkpt lat="-28.42009847264887" lon="114.70698205932717"><ele>192.0</ele><time>2026-04-13T07:54:01Z</time></trkpt><trkpt lat="-28.420125902285204" lon="114.70673000370832"><ele>191.0</ele><time>2026-04-13T07:54:02Z</time></trkpt><trkpt lat="-28.420158684517517" lon="114.70646132596912"><ele>191.0</ele><time>2026-04-13T07:54:03Z</time></trkpt><trkpt lat="-28.42018639222312" lon="114.70620885151442"><ele>191.0</ele><time>2026-04-13T07:54:04Z</time></trkpt><trkpt lat="-28.420208815788985" lon="114.70596802778662"><ele>191.0</ele><time>2026-04-13T07:54:05Z</time></trkpt><trkpt lat="-28.420240985777586" lon="114.70574094993498"><ele>190.33333333333331</ele><time>2026-04-13T07:54:06Z</time></trkpt><trkpt lat="-28.42029408704293" lon="114.70552160091886"><ele>189.66666666666666</ele><time>2026-04-13T07:54:07Z</time></trkpt><trkpt lat="-28.42037481329743" lon="114.70529638184894"><ele>189.0</ele><time>2026-04-13T07:54:08Z</time></trkpt><trkpt lat="-28.420475683611876" lon="114.7050723221471"><ele>187.0</ele><time>2026-04-13T07:54:09Z</time></trkpt><trkpt lat="-28.42059934031454" lon="114.70485047173428"><ele>185.0</ele><time>2026-04-13T07:54:10Z</time></trkpt><trkpt lat="-28.420742171226674" lon="114.70462763075325"><ele>184.5</ele><time>2026-04-13T07:54:11Z</time></trkpt><trkpt lat="-28.420886421335478" lon="114.70440838001205"><ele>184.0</ele><time>2026-04-13T07:54:12Z</time></trkpt><trkpt lat="-28.421018832663695" lon="114.70418725262684"><ele>184.0</ele><time>2026-04-13T07:54:13Z</time></trkpt><trkpt lat="-28.421146188162208" lon="114.70396303614572"><ele>184.0</ele><time>2026-04-13T07:54:14Z</time></trkpt><trkpt lat="-28.421272147343753" lon="114.7037421888647"><ele>183.5</ele><time>2026-04-13T07:54:15Z</time></trkpt><trkpt lat="-28.42140129564575" lon="114.70352226293984"><ele>183.0</ele><time>2026-04-13T07:54:16Z</time></trkpt><trkpt lat="-28.421528065442303" lon="114.70331908711692"><ele>183.0</ele><time>2026-04-13T07:54:17Z</time></trkpt><trkpt lat="-28.421662878374406" lon="114.703156979766"><ele>183.0</ele><time>2026-04-13T07:54:18Z</time></trkpt><trkpt lat="-28.421783672521563" lon="114.7029776204615"><ele>183.0</ele><time>2026-04-13T07:54:19Z</time></trkpt><trkpt lat="-28.42190878157939" lon="114.70285516608551"><ele>183.0</ele><time>2026-04-13T07:54:20Z</time></trkpt><trkpt lat="-28.42205522195029" lon="114.70274272916792"><ele>183.0</ele><time>2026-04-13T07:54:21Z</time></trkpt><trkpt lat="-28.42221745756773" lon="114.7026397478959"><ele>183.0</ele><time>2026-04-13T07:54:22Z</time></trkpt><trkpt lat="-28.422370708944815" lon="114.70255177231341"><ele>183.0</ele><time>2026-04-13T07:54:23Z</time></trkpt><trkpt lat="-28.42251180459613" lon="114.70246802957631"><ele>183.0</ele><time>2026-04-13T07:54:24Z</time></trkpt><trkpt lat="-28.422640380044186" lon="114.70237424536467"><ele>183.0</ele><time>2026-04-13T07:54:25Z</time></trkpt><trkpt lat="-28.422776426452128" lon="114.70227537556198"><ele>183.0</ele><time>2026-04-13T07:54:26Z</time></trkpt><trkpt lat="-28.422900155470785" lon="114.70213430707723"><ele>183.0</ele><time>2026-04-13T07:54:27Z</time></trkpt><trkpt lat="-28.42300435216313" lon="114.70195216170795"><ele>183.0</ele><time>2026-04-13T07:54:28Z</time></trkpt><trkpt lat="-28.42307572139486" lon="114.70175717988725"><ele>182.66666666666666</ele><time>2026-04-13T07:54:29Z</time></trkpt><trkpt lat="-28.42311286837326" lon="114.70154219030185"><ele>182.33333333333331</ele><time>2026-04-13T07:54:30Z</time></trkpt><trkpt lat="-28.423119307076945" lon="114.7013353912582"><ele>182.0</ele><time>2026-04-13T07:54:31Z</time></trkpt><trkpt lat="-28.423100154388603" lon="114.70112725958501"><ele>181.66666666666666</ele><time>2026-04-13T07:54:32Z</time></trkpt><trkpt lat="-28.423051567365206" lon="114.70092481259043"><ele>181.33333333333334</ele><time>2026-04-13T07:54:33Z</time></trkpt><trkpt lat="-28.422971566774976" lon="114.70073132773909"><ele>181.0</ele><time>2026-04-13T07:54:34Z</time></trkpt><trkpt lat="-28.42286002837888" lon="114.70055038088455"><ele>181.0</ele><time>2026-04-13T07:54:35Z</time></trkpt><trkpt lat="-28.422737738087132" lon="114.7003605353616"><ele>181.0</ele><time>2026-04-13T07:54:36Z</time></trkpt><trkpt lat="-28.422604565550834" lon="114.70015687947335"><ele>181.0</ele><time>2026-04-13T07:54:37Z</time></trkpt><trkpt lat="-28.4224611268748" lon="114.69994024009291"><ele>181.5</ele><time>2026-04-13T07:54:38Z</time></trkpt><trkpt lat="-28.422315001941676" lon="114.69972456613266"><ele>182.0</ele><time>2026-04-13T07:54:39Z</time></trkpt><trkpt lat="-28.422169930311643" lon="114.69951110665212"><ele>179.5</ele><time>2026-04-13T07:54:40Z</time></trkpt><trkpt lat="-28.422013613960658" lon="114.69928209446743"><ele>177.0</ele><time>2026-04-13T07:54:41Z</time></trkpt><trkpt lat="-28.42185251527338" lon="114.69904148716681"><ele>177.0</ele><time>2026-04-13T07:54:42Z</time></trkpt><trkpt lat="-28.421693911558236" lon="114.69880680498025"><ele>177.0</ele><time>2026-04-13T07:54:43Z</time></trkpt><trkpt lat="-28.42153259205583" lon="114.69858047811242"><ele>177.0</ele><time>2026-04-13T07:54:44Z</time></trkpt><trkpt lat="-28.421364805752166" lon="114.69836128848803"><ele>177.0</ele><time>2026-04-13T07:54:45Z</time></trkpt><trkpt lat="-28.42118590993795" lon="114.69815951192986"><ele>177.0</ele><time>2026-04-13T07:54:46Z</time></trkpt><trkpt lat="-28.421015301529785" lon="114.69796372250956"><ele>177.0</ele><time>2026-04-13T07:54:47Z</time></trkpt><trkpt lat="-28.420853588649436" lon="114.69776117231488"><ele>177.0</ele><time>2026-04-13T07:54:48Z</time></trkpt><trkpt lat="-28.42066753071851" lon="114.69757736677978"><ele>177.0</ele><time>2026-04-13T07:54:49Z</time></trkpt><trkpt lat="-28.420469406084496" lon="114.69739757176824"><ele>179.0</ele><time>2026-04-13T07:54:50Z</time></trkpt><trkpt lat="-28.42026190975426" lon="114.69721228037241"><ele>181.0</ele><time>2026-04-13T07:54:51Z</time></trkpt><trkpt lat="-28.4200548558301" lon="114.69702745519118"><ele>180.5</ele><time>2026-04-13T07:54:52Z</time></trkpt><trkpt lat="-28.419847025888735" lon="114.69684226566258"><ele>180.0</ele><time>2026-04-13T07:54:53Z</time></trkpt><trkpt lat="-28.41964002972301" lon="114.69665773961685"><ele>180.0</ele><time>2026-04-13T07:54:54Z</time></trkpt><trkpt lat="-28.419434320385278" lon="114.69647434103844"><ele>180.0</ele><time>2026-04-13T07:54:55Z</time></trkpt><trkpt lat="-28.419229292782376" lon="114.69629082192473"><ele>180.0</ele><time>2026-04-13T07:54:56Z</time></trkpt><trkpt lat="-28.419027651810598" lon="114.69610823662302"><ele>180.0</ele><time>2026-04-13T07:54:57Z</time></trkpt><trkpt lat="-28.41882410056468" lon="114.69592222578271"><ele>180.5</ele><time>2026-04-13T07:54:58Z</time></trkpt><trkpt lat="-28.41862566713412" lon="114.6957396410242"><ele>181.0</ele><time>2026-04-13T07:54:59Z</time></trkpt><trkpt lat="-28.418429113032648" lon="114.69555702611098"><ele>181.0</ele><time>2026-04-13T07:55:00Z</time></trkpt><trkpt lat="-28.418237688187915" lon="114.6953774707065"><ele>181.0</ele><time>2026-04-13T07:55:01Z</time></trkpt><trkpt lat="-28.418050133741914" lon="114.69520127182747"><ele>182.66666666666669</ele><time>2026-04-13T07:55:02Z</time></trkpt><trkpt lat="-28.41787758346573" lon="114.69504069474746"><ele>184.33333333333334</ele><time>2026-04-13T07:55:03Z</time></trkpt><trkpt lat="-28.417719005227397" lon="114.69489174165632"><ele>186.0</ele><time>2026-04-13T07:55:04Z</time></trkpt><trkpt lat="-28.417566899935597" lon="114.69475644357411"><ele>186.0</ele><time>2026-04-13T07:55:05Z</time></trkpt><trkpt lat="-28.417400185262476" lon="114.69463677298361"><ele>186.0</ele><time>2026-04-13T07:55:06Z</time></trkpt><trkpt lat="-28.41722452103794" lon="114.69454869100935"><ele>186.0</ele><time>2026-04-13T07:55:07Z</time></trkpt><trkpt lat="-28.41704356403015" lon="114.69450485556693"><ele>186.33333333333334</ele><time>2026-04-13T07:55:08Z</time></trkpt><trkpt lat="-28.416851073390067" lon="114.69445118429668"><ele>186.66666666666669</ele><time>2026-04-13T07:55:09Z</time></trkpt><trkpt lat="-28.416639520948586" lon="114.69438189975111"><ele>187.0</ele><time>2026-04-13T07:55:10Z</time></trkpt><trkpt lat="-28.416409346753355" lon="114.69433357179098"><ele>185.5</ele><time>2026-04-13T07:55:11Z</time></trkpt><trkpt lat="-28.416169108415005" lon="114.69428550868338"><ele>184.0</ele><time>2026-04-13T07:55:12Z</time></trkpt><trkpt lat="-28.41592323990355" lon="114.69426164263517"><ele>184.0</ele><time>2026-04-13T07:55:13Z</time></trkpt><trkpt lat="-28.415672338775636" lon="114.69421719317198"><ele>184.0</ele><time>2026-04-13T07:55:14Z</time></trkpt><trkpt lat="-28.41541432891666" lon="114.69417875544318"><ele>186.5</ele><time>2026-04-13T07:55:15Z</time></trkpt><trkpt lat="-28.41515558709523" lon="114.69414543927871"><ele>189.0</ele><time>2026-04-13T07:55:16Z</time></trkpt><trkpt lat="-28.41489443002296" lon="114.69411402677194"><ele>192.0</ele><time>2026-04-13T07:55:17Z</time></trkpt><trkpt lat="-28.414635893583103" lon="114.69405890569976"><ele>195.0</ele><time>2026-04-13T07:55:18Z</time></trkpt><trkpt lat="-28.41438463299099" lon="114.69401986595669"><ele>195.0</ele><time>2026-04-13T07:55:19Z</time></trkpt><trkpt lat="-28.414135027478455" lon="114.69398815858139"><ele>195.0</ele><time>2026-04-13T07:55:20Z</time></trkpt><trkpt lat="-28.41390865599372" lon="114.69396965807981"><ele>194.66666666666669</ele><time>2026-04-13T07:55:21Z</time></trkpt><trkpt lat="-28.41369835678712" lon="114.69397148461503"><ele>194.33333333333334</ele><time>2026-04-13T07:55:22Z</time></trkpt><trkpt lat="-28.413489129904324" lon="114.693970629276"><ele>194.0</ele><time>2026-04-13T07:55:23Z</time></trkpt><trkpt lat="-28.413257331549623" lon="114.69395531947305"><ele>194.0</ele><time>2026-04-13T07:55:24Z</time></trkpt><trkpt lat="-28.413014284413812" lon="114.69395641144536"><ele>194.0</ele><time>2026-04-13T07:55:25Z</time></trkpt><trkpt lat="-28.412763394950034" lon="114.69396049212283"><ele>191.5</ele><time>2026-04-13T07:55:26Z</time></trkpt><trkpt lat="-28.41250684190338" lon="114.69398364251857"><ele>189.0</ele><time>2026-04-13T07:55:27Z</time></trkpt><trkpt lat="-28.412243417392478" lon="114.69398440999306"><ele>190.0</ele><time>2026-04-13T07:55:28Z</time></trkpt><trkpt lat="-28.411979141066674" lon="114.69398540681243"><ele>191.0</ele><time>2026-04-13T07:55:29Z</time></trkpt><trkpt lat="-28.411712800112486" lon="114.6939929886658"><ele>191.0</ele><time>2026-04-13T07:55:30Z</time></trkpt><trkpt lat="-28.411440428834464" lon="114.69400309538526"><ele>191.0</ele><time>2026-04-13T07:55:31Z</time></trkpt><trkpt lat="-28.4111571407853" lon="114.69401153101612"><ele>190.5</ele><time>2026-04-13T07:55:32Z</time></trkpt><trkpt lat="-28.41087533792925" lon="114.69402096163392"><ele>190.0</ele><time>2026-04-13T07:55:33Z</time></trkpt><trkpt lat="-28.410611850904914" lon="114.69403039098839"><ele>189.0</ele><time>2026-04-13T07:55:34Z</time></trkpt><trkpt lat="-28.41035825729117" lon="114.69403760205587"><ele>188.0</ele><time>2026-04-13T07:55:35Z</time></trkpt><trkpt lat="-28.41009682818801" lon="114.69403524719338"><ele>188.0</ele><time>2026-04-13T07:55:36Z</time></trkpt><trkpt lat="-28.40984599416121" lon="114.69401678506783"><ele>188.0</ele><time>2026-04-13T07:55:37Z</time></trkpt><trkpt lat="-28.409609971303666" lon="114.69398333392314"><ele>188.5</ele><time>2026-04-13T07:55:38Z</time></trkpt><trkpt lat="-28.409377921855327" lon="114.69392153888133"><ele>189.0</ele><time>2026-04-13T07:55:39Z</time></trkpt><trkpt lat="-28.40914094942572" lon="114.69384303851241"><ele>189.0</ele><time>2026-04-13T07:55:40Z</time></trkpt><trkpt lat="-28.40890236204477" lon="114.6937514761129"><ele>189.0</ele><time>2026-04-13T07:55:41Z</time></trkpt><trkpt lat="-28.408660953078428" lon="114.69364617294147"><ele>187.5</ele><time>2026-04-13T07:55:42Z</time></trkpt><trkpt lat="-28.408417418353608" lon="114.69353273114434"><ele>186.0</ele><time>2026-04-13T07:55:43Z</time></trkpt><trkpt lat="-28.408169136985702" lon="114.69341908574401"><ele>186.0</ele><time>2026-04-13T07:55:44Z</time></trkpt><trkpt lat="-28.407917178314968" lon="114.69331247812251"><ele>186.0</ele><time>2026-04-13T07:55:45Z</time></trkpt><trkpt lat="-28.40766361669094" lon="114.69321089057583"><ele>186.0</ele><time>2026-04-13T07:55:46Z</time></trkpt><trkpt lat="-28.407410040677664" lon="114.69311408237279"><ele>186.0</ele><time>2026-04-13T07:55:47Z</time></trkpt><trkpt lat="-28.40715135122086" lon="114.69301827142071"><ele>185.0</ele><time>2026-04-13T07:55:48Z</time></trkpt><trkpt lat="-28.4068895101886" lon="114.69291477703874"><ele>184.0</ele><time>2026-04-13T07:55:49Z</time></trkpt><trkpt lat="-28.406629306560887" lon="114.69280168641176"><ele>185.0</ele><time>2026-04-13T07:55:50Z</time></trkpt><trkpt lat="-28.406373689960006" lon="114.69267920235247"><ele>186.0</ele><time>2026-04-13T07:55:51Z</time></trkpt><trkpt lat="-28.406121492532254" lon="114.69255097599095"><ele>182.5</ele><time>2026-04-13T07:55:52Z</time></trkpt><trkpt lat="-28.405878083401813" lon="114.69241912957683"><ele>179.0</ele><time>2026-04-13T07:55:53Z</time></trkpt><trkpt lat="-28.405632165488928" lon="114.69227204852083"><ele>178.5</ele><time>2026-04-13T07:55:54Z</time></trkpt><trkpt lat="-28.405401566847438" lon="114.69212456086748"><ele>178.0</ele><time>2026-04-13T07:55:55Z</time></trkpt><trkpt lat="-28.405176575376338" lon="114.69196957076225"><ele>179.5</ele><time>2026-04-13T07:55:56Z</time></trkpt><trkpt lat="-28.404965271002208" lon="114.69181799107714"><ele>181.0</ele><time>2026-04-13T07:55:57Z</time></trkpt><trkpt lat="-28.404765630104233" lon="114.69166073067734"><ele>180.0</ele><time>2026-04-13T07:55:58Z</time></trkpt><trkpt lat="-28.40458953804332" lon="114.69149604765792"><ele>179.0</ele><time>2026-04-13T07:55:59Z</time></trkpt><trkpt lat="-28.40442981854277" lon="114.69131732269156"><ele>179.0</ele><time>2026-04-13T07:56:00Z</time></trkpt><trkpt lat="-28.404290615058" lon="114.69112346072083"><ele>179.0</ele><time>2026-04-13T07:56:01Z</time></trkpt><trkpt lat="-28.404168616263664" lon="114.69091743971335"><ele>179.0</ele><time>2026-04-13T07:56:02Z</time></trkpt><trkpt lat="-28.404044380124244" lon="114.69072085993577"><ele>177.66666666666666</ele><time>2026-04-13T07:56:03Z</time></trkpt><trkpt lat="-28.403900114591803" lon="114.69054104198018"><ele>176.33333333333334</ele><time>2026-04-13T07:56:04Z</time></trkpt><trkpt lat="-28.40373506831096" lon="114.69037865633732"><ele>175.0</ele><time>2026-04-13T07:56:05Z</time></trkpt><trkpt lat="-28.403545856913368" lon="114.69022820329816"><ele>173.0</ele><time>2026-04-13T07:56:06Z</time></trkpt><trkpt lat="-28.4033421998102" lon="114.69009520888848"><ele>171.0</ele><time>2026-04-13T07:56:07Z</time></trkpt><trkpt lat="-28.403125189310263" lon="114.68996685180478"><ele>175.0</ele><time>2026-04-13T07:56:08Z</time></trkpt><trkpt lat="-28.402908524815754" lon="114.68983388263322"><ele>179.0</ele><time>2026-04-13T07:56:09Z</time></trkpt><trkpt lat="-28.40268594014497" lon="114.68969306337102"><ele>179.0</ele><time>2026-04-13T07:56:10Z</time></trkpt><trkpt lat="-28.402454001305788" lon="114.68955066569467"><ele>179.0</ele><time>2026-04-13T07:56:11Z</time></trkpt><trkpt lat="-28.4022190899819" lon="114.68941179004187"><ele>177.5</ele><time>2026-04-13T07:56:12Z</time></trkpt><trkpt lat="-28.401976447872148" lon="114.68927251712347"><ele>176.0</ele><time>2026-04-13T07:56:13Z</time></trkpt><trkpt lat="-28.40173595154886" lon="114.68913084178774"><ele>176.0</ele><time>2026-04-13T07:56:14Z</time></trkpt><trkpt lat="-28.401495050416873" lon="114.68898603403326"><ele>176.0</ele><time>2026-04-13T07:56:15Z</time></trkpt><trkpt lat="-28.401252184948213" lon="114.68884250113702"><ele>176.0</ele><time>2026-04-13T07:56:16Z</time></trkpt><trkpt lat="-28.401006666454883" lon="114.68870394193544"><ele>176.0</ele><time>2026-04-13T07:56:17Z</time></trkpt><trkpt lat="-28.40075938745938" lon="114.6885629294927"><ele>173.5</ele><time>2026-04-13T07:56:18Z</time></trkpt><trkpt lat="-28.400510780304707" lon="114.68841909032281"><ele>171.0</ele><time>2026-04-13T07:56:19Z</time></trkpt><trkpt lat="-28.40026486962893" lon="114.68827165116028"><ele>169.0</ele><time>2026-04-13T07:56:20Z</time></trkpt><trkpt lat="-28.400021687552567" lon="114.6881210891419"><ele>167.0</ele><time>2026-04-13T07:56:21Z</time></trkpt><trkpt lat="-28.399782344781777" lon="114.68797283824115"><ele>167.0</ele><time>2026-04-13T07:56:22Z</time></trkpt><trkpt lat="-28.39955035768632" lon="114.68782372105466"><ele>167.0</ele><time>2026-04-13T07:56:23Z</time></trkpt><trkpt lat="-28.399333708096666" lon="114.6876746366155"><ele>169.0</ele><time>2026-04-13T07:56:24Z</time></trkpt><trkpt lat="-28.399120926958748" lon="114.68751664362429"><ele>171.0</ele><time>2026-04-13T07:56:25Z</time></trkpt><trkpt lat="-28.39891346893538" lon="114.68735699771567"><ele>170.5</ele><time>2026-04-13T07:56:26Z</time></trkpt><trkpt lat="-28.398704841015643" lon="114.68719553538503"><ele>170.0</ele><time>2026-04-13T07:56:27Z</time></trkpt><trkpt lat="-28.39849679517627" lon="114.68703401384627"><ele>168.5</ele><time>2026-04-13T07:56:28Z</time></trkpt><trkpt lat="-28.39828674600056" lon="114.68686811901493"><ele>167.0</ele><time>2026-04-13T07:56:29Z</time></trkpt><trkpt lat="-28.398081296186778" lon="114.68670026296357"><ele>168.5</ele><time>2026-04-13T07:56:30Z</time></trkpt><trkpt lat="-28.39789268970983" lon="114.68654642233473"><ele>170.0</ele><time>2026-04-13T07:56:31Z</time></trkpt><trkpt lat="-28.39770395885919" lon="114.68640230510775"><ele>170.0</ele><time>2026-04-13T07:56:32Z</time></trkpt><trkpt lat="-28.39750411270338" lon="114.6862549628183"><ele>170.0</ele><time>2026-04-13T07:56:33Z</time></trkpt><trkpt lat="-28.39729145235567" lon="114.6861023601538"><ele>168.0</ele><time>2026-04-13T07:56:34Z</time></trkpt><trkpt lat="-28.39706770630001" lon="114.68594377459122"><ele>166.0</ele><time>2026-04-13T07:56:35Z</time></trkpt><trkpt lat="-28.39683600991512" lon="114.68577886366363"><ele>166.0</ele><time>2026-04-13T07:56:36Z</time></trkpt><trkpt lat="-28.396596705532858" lon="114.6856127504431"><ele>166.0</ele><time>2026-04-13T07:56:37Z</time></trkpt><trkpt lat="-28.39634937623484" lon="114.68544800103359"><ele>164.5</ele><time>2026-04-13T07:56:38Z</time></trkpt><trkpt lat="-28.39609803525846" lon="114.68529371792681"><ele>163.0</ele><time>2026-04-13T07:56:39Z</time></trkpt><trkpt lat="-28.39584485207597" lon="114.68514679892255"><ele>163.0</ele><time>2026-04-13T07:56:40Z</time></trkpt><trkpt lat="-28.395608172085073" lon="114.68496999820145"><ele>163.0</ele><time>2026-04-13T07:56:41Z</time></trkpt><trkpt lat="-28.39534782818372" lon="114.6848295654977"><ele>165.5</ele><time>2026-04-13T07:56:42Z</time></trkpt><trkpt lat="-28.39508314287586" lon="114.68469307618194"><ele>168.0</ele><time>2026-04-13T07:56:43Z</time></trkpt><trkpt lat="-28.394808521183744" lon="114.68457247025478"><ele>168.0</ele><time>2026-04-13T07:56:44Z</time></trkpt><trkpt lat="-28.394532222056366" lon="114.68444130214058"><ele>168.0</ele><time>2026-04-13T07:56:45Z</time></trkpt><trkpt lat="-28.394256201307346" lon="114.68431785179442"><ele>168.0</ele><time>2026-04-13T07:56:46Z</time></trkpt><trkpt lat="-28.39399356486894" lon="114.68417882563341"><ele>168.0</ele><time>2026-04-13T07:56:47Z</time></trkpt><trkpt lat="-28.393747084618163" lon="114.68406944884379"><ele>168.0</ele><time>2026-04-13T07:56:48Z</time></trkpt><trkpt lat="-28.393498157752923" lon="114.6839639538471"><ele>168.0</ele><time>2026-04-13T07:56:49Z</time></trkpt><trkpt lat="-28.3932437606491" lon="114.68385784603741"><ele>167.5</ele><time>2026-04-13T07:56:50Z</time></trkpt><trkpt lat="-28.39299414997567" lon="114.68375450261964"><ele>167.0</ele><time>2026-04-13T07:56:51Z</time></trkpt><trkpt lat="-28.39275715815055" lon="114.68365909254726"><ele>166.0</ele><time>2026-04-13T07:56:52Z</time></trkpt><trkpt lat="-28.39253176266274" lon="114.68356832341978"><ele>165.0</ele><time>2026-04-13T07:56:53Z</time></trkpt><trkpt lat="-28.392308790953777" lon="114.68347593688182"><ele>164.5</ele><time>2026-04-13T07:56:54Z</time></trkpt><trkpt lat="-28.392086170576082" lon="114.68338061880837"><ele>164.0</ele><time>2026-04-13T07:56:55Z</time></trkpt><trkpt lat="-28.39186556597632" lon="114.68328073238108"><ele>164.0</ele><time>2026-04-13T07:56:56Z</time></trkpt><trkpt lat="-28.391643073967472" lon="114.68317609663775"><ele>164.0</ele><time>2026-04-13T07:56:57Z</time></trkpt><trkpt lat="-28.39142118408611" lon="114.68306985306236"><ele>163.5</ele><time>2026-04-13T07:56:58Z</time></trkpt><trkpt lat="-28.39119729440125" lon="114.68295913705464"><ele>163.0</ele><time>2026-04-13T07:56:59Z</time></trkpt><trkpt lat="-28.390982723668998" lon="114.68285228244793"><ele>163.0</ele><time>2026-04-13T07:57:00Z</time></trkpt><trkpt lat="-28.39078442846279" lon="114.68275048448452"><ele>163.0</ele><time>2026-04-13T07:57:01Z</time></trkpt><trkpt lat="-28.39059774912153" lon="114.68265377802435"><ele>163.0</ele><time>2026-04-13T07:57:02Z</time></trkpt><trkpt lat="-28.3904195566513" lon="114.68256047506927"><ele>162.33333333333334</ele><time>2026-04-13T07:57:03Z</time></trkpt><trkpt lat="-28.390251231894148" lon="114.68246933471353"><ele>161.66666666666666</ele><time>2026-04-13T07:57:04Z</time></trkpt><trkpt lat="-28.39009339654255" lon="114.68237956100629"><ele>161.0</ele><time>2026-04-13T07:57:05Z</time></trkpt><trkpt lat="-28.389946887211156" lon="114.6823006163182"><ele>161.0</ele><time>2026-04-13T07:57:06Z</time></trkpt><trkpt lat="-28.38980078017598" lon="114.68225568021379"><ele>161.0</ele><time>2026-04-13T07:57:07Z</time></trkpt><trkpt lat="-28.389675045042853" lon="114.68219140872057"><ele>161.0</ele><time>2026-04-13T07:57:08Z</time></trkpt><trkpt lat="-28.38954434501757" lon="114.68215082832202"><ele>161.0</ele><time>2026-04-13T07:57:09Z</time></trkpt><trkpt lat="-28.38941095852415" lon="114.68214097015532"><ele>160.5</ele><time>2026-04-13T07:57:10Z</time></trkpt><trkpt lat="-28.389272895141584" lon="114.682157263607"><ele>160.0</ele><time>2026-04-13T07:57:11Z</time></trkpt><trkpt lat="-28.38914501264387" lon="114.682199147622"><ele>159.5</ele><time>2026-04-13T07:57:12Z</time></trkpt><trkpt lat="-28.389032734690492" lon="114.6822566420531"><ele>159.0</ele><time>2026-04-13T07:57:13Z</time></trkpt><trkpt lat="-28.3889327239329" lon="114.68231647113966"><ele>158.8</ele><time>2026-04-13T07:57:14Z</time></trkpt><trkpt lat="-28.38884086991752" lon="114.6823686806694"><ele>158.60000000000002</ele><time>2026-04-13T07:57:15Z</time></trkpt><trkpt lat="-28.388760595019928" lon="114.68240681551711"><ele>158.4</ele><time>2026-04-13T07:57:16Z</time></trkpt><trkpt lat="-28.38869649251707" lon="114.68242923301939"><ele>158.20000000000002</ele><time>2026-04-13T07:57:17Z</time></trkpt><trkpt lat="-28.388590892108724" lon="114.68246164456417"><ele>158.0</ele><time>2026-04-13T07:57:19Z</time></trkpt><trkpt lat="-28.388522158719933" lon="114.68232770146228"><ele>158.0</ele><time>2026-04-13T07:57:20Z</time></trkpt><trkpt lat="-28.388468446206492" lon="114.68222040300567"><ele>158.0</ele><time>2026-04-13T07:57:21Z</time></trkpt><trkpt lat="-28.388399179264855" lon="114.68210103877273"><ele>158.0</ele><time>2026-04-13T07:57:22Z</time></trkpt><trkpt lat="-28.388315269341238" lon="114.68197436876702"><ele>158.0</ele><time>2026-04-13T07:57:23Z</time></trkpt><trkpt lat="-28.38822544591921" lon="114.68184825455712"><ele>158.0</ele><time>2026-04-13T07:57:24Z</time></trkpt><trkpt lat="-28.388121101539486" lon="114.6817140728333"><ele>158.0</ele><time>2026-04-13T07:57:25Z</time></trkpt><trkpt lat="-28.387999278769296" lon="114.6815693030167"><ele>158.0</ele><time>2026-04-13T07:57:26Z</time></trkpt><trkpt lat="-28.387863266801936" lon="114.6814174057374"><ele>157.0</ele><time>2026-04-13T07:57:27Z</time></trkpt><trkpt lat="-28.387714263753466" lon="114.68126014401696"><ele>156.0</ele><time>2026-04-13T07:57:28Z</time></trkpt><trkpt lat="-28.38757099527682" lon="114.68111071615203"><ele>155.0</ele><time>2026-04-13T07:57:29Z</time></trkpt><trkpt lat="-28.38742374611356" lon="114.68095899595482"><ele>155.0</ele><time>2026-04-13T07:57:30Z</time></trkpt><trkpt lat="-28.38727750344977" lon="114.68080909079895"><ele>155.0</ele><time>2026-04-13T07:57:31Z</time></trkpt><trkpt lat="-28.387126519389906" lon="114.6806560808166"><ele>155.0</ele><time>2026-04-13T07:57:32Z</time></trkpt><trkpt lat="-28.386966574111007" lon="114.68049433688246"><ele>155.0</ele><time>2026-04-13T07:57:33Z</time></trkpt><trkpt lat="-28.386797637828202" lon="114.68032408987956"><ele>155.0</ele><time>2026-04-13T07:57:34Z</time></trkpt><trkpt lat="-28.38662564764712" lon="114.68014984321455"><ele>155.0</ele><time>2026-04-13T07:57:35Z</time></trkpt><trkpt lat="-28.38644674818124" lon="114.6799674988064"><ele>155.0</ele><time>2026-04-13T07:57:36Z</time></trkpt><trkpt lat="-28.386261645856177" lon="114.67977674703577"><ele>153.5</ele><time>2026-04-13T07:57:37Z</time></trkpt><trkpt lat="-28.38608520725718" lon="114.67959489508038"><ele>152.0</ele><time>2026-04-13T07:57:38Z</time></trkpt><trkpt lat="-28.38590897781189" lon="114.67941377823416"><ele>152.0</ele><time>2026-04-13T07:57:39Z</time></trkpt><trkpt lat="-28.385729099547152" lon="114.67922926501696"><ele>152.0</ele><time>2026-04-13T07:57:40Z</time></trkpt><trkpt lat="-28.385551528362996" lon="114.6790472754527"><ele>153.0</ele><time>2026-04-13T07:57:41Z</time></trkpt><trkpt lat="-28.38537934441903" lon="114.67887393374635"><ele>154.0</ele><time>2026-04-13T07:57:42Z</time></trkpt><trkpt lat="-28.38520396512492" lon="114.67870400749354"><ele>152.5</ele><time>2026-04-13T07:57:43Z</time></trkpt><trkpt lat="-28.38502168238507" lon="114.67854003375471"><ele>151.0</ele><time>2026-04-13T07:57:44Z</time></trkpt><trkpt lat="-28.38482747515289" lon="114.67839041553192"><ele>151.0</ele><time>2026-04-13T07:57:45Z</time></trkpt><trkpt lat="-28.384648780104303" lon="114.6782097480294"><ele>151.0</ele><time>2026-04-13T07:57:46Z</time></trkpt><trkpt lat="-28.384461573926238" lon="114.67804202521339"><ele>151.0</ele><time>2026-04-13T07:57:47Z</time></trkpt><trkpt lat="-28.384278793071203" lon="114.67786485747337"><ele>151.0</ele><time>2026-04-13T07:57:48Z</time></trkpt><trkpt lat="-28.384105815185773" lon="114.67767762556417"><ele>149.5</ele><time>2026-04-13T07:57:49Z</time></trkpt><trkpt lat="-28.38395221715128" lon="114.67748008505572"><ele>148.0</ele><time>2026-04-13T07:57:50Z</time></trkpt><trkpt lat="-28.383810274540114" lon="114.6772650861013"><ele>148.0</ele><time>2026-04-13T07:57:51Z</time></trkpt><trkpt lat="-28.383692680782723" lon="114.67704139986344"><ele>148.0</ele><time>2026-04-13T07:57:52Z</time></trkpt><trkpt lat="-28.383595752828143" lon="114.67679715390366"><ele>148.0</ele><time>2026-04-13T07:57:53Z</time></trkpt><trkpt lat="-28.383517347976767" lon="114.6765450887566"><ele>148.0</ele><time>2026-04-13T07:57:54Z</time></trkpt><trkpt lat="-28.383449937291658" lon="114.67628904022966"><ele>147.5</ele><time>2026-04-13T07:57:55Z</time></trkpt><trkpt lat="-28.38338654302427" lon="114.67603252624428"><ele>147.0</ele><time>2026-04-13T07:57:56Z</time></trkpt><trkpt lat="-28.38332729840114" lon="114.67578530311461"><ele>147.0</ele><time>2026-04-13T07:57:57Z</time></trkpt><trkpt lat="-28.383267916588153" lon="114.67553421311267"><ele>147.0</ele><time>2026-04-13T07:57:58Z</time></trkpt><trkpt lat="-28.383209581948154" lon="114.6752828468229"><ele>146.0</ele><time>2026-04-13T07:57:59Z</time></trkpt><trkpt lat="-28.383148590403906" lon="114.67502554021695"><ele>145.0</ele><time>2026-04-13T07:58:00Z</time></trkpt><trkpt lat="-28.3830887521592" lon="114.67477081955876"><ele>145.0</ele><time>2026-04-13T07:58:01Z</time></trkpt><trkpt lat="-28.383030186328956" lon="114.67452536557408"><ele>145.0</ele><time>2026-04-13T07:58:02Z</time></trkpt><trkpt lat="-28.38297144875333" lon="114.6742945581591"><ele>145.0</ele><time>2026-04-13T07:58:03Z</time></trkpt><trkpt lat="-28.3829046113211" lon="114.67405317121734"><ele>144.5</ele><time>2026-04-13T07:58:04Z</time></trkpt><trkpt lat="-28.382826384651718" lon="114.67381420258876"><ele>144.0</ele><time>2026-04-13T07:58:05Z</time></trkpt><trkpt lat="-28.382719484559686" lon="114.67357686030955"><ele>143.0</ele><time>2026-04-13T07:58:06Z</time></trkpt><trkpt lat="-28.382601852460244" lon="114.67335543480017"><ele>142.0</ele><time>2026-04-13T07:58:07Z</time></trkpt><trkpt lat="-28.38246481208097" lon="114.67314052514458"><ele>142.0</ele><time>2026-04-13T07:58:08Z</time></trkpt><trkpt lat="-28.38231552783117" lon="114.67293457179854"><ele>142.0</ele><time>2026-04-13T07:58:09Z</time></trkpt><trkpt lat="-28.382159548292265" lon="114.67273145221932"><ele>145.5</ele><time>2026-04-13T07:58:10Z</time></trkpt><trkpt lat="-28.382002150184128" lon="114.67252852933866"><ele>149.0</ele><time>2026-04-13T07:58:11Z</time></trkpt><trkpt lat="-28.381848593210382" lon="114.67233118656743"><ele>149.0</ele><time>2026-04-13T07:58:12Z</time></trkpt><trkpt lat="-28.381695150273032" lon="114.672134343522"><ele>149.0</ele><time>2026-04-13T07:58:13Z</time></trkpt><trkpt lat="-28.381540112767446" lon="114.67193632361551"><ele>149.0</ele><time>2026-04-13T07:58:14Z</time></trkpt><trkpt lat="-28.38140103226782" lon="114.67173276330368"><ele>149.0</ele><time>2026-04-13T07:58:15Z</time></trkpt><trkpt lat="-28.381278322706734" lon="114.67151427176103"><ele>149.5</ele><time>2026-04-13T07:58:16Z</time></trkpt><trkpt lat="-28.381162809561385" lon="114.6712963462328"><ele>150.0</ele><time>2026-04-13T07:58:17Z</time></trkpt><trkpt lat="-28.381048468928103" lon="114.67107405333167"><ele>150.0</ele><time>2026-04-13T07:58:18Z</time></trkpt><trkpt lat="-28.380927737603262" lon="114.67085497653908"><ele>150.0</ele><time>2026-04-13T07:58:19Z</time></trkpt><trkpt lat="-28.38079926161968" lon="114.67065493565377"><ele>150.0</ele><time>2026-04-13T07:58:20Z</time></trkpt><trkpt lat="-28.38066465449912" lon="114.67047213501685"><ele>150.0</ele><time>2026-04-13T07:58:21Z</time></trkpt><trkpt lat="-28.38051085522094" lon="114.67029334495852"><ele>150.0</ele><time>2026-04-13T07:58:22Z</time></trkpt><trkpt lat="-28.380327258005654" lon="114.67013399523607"><ele>152.5</ele><time>2026-04-13T07:58:23Z</time></trkpt><trkpt lat="-28.380152935655136" lon="114.66995205976518"><ele>155.0</ele><time>2026-04-13T07:58:24Z</time></trkpt><trkpt lat="-28.379960711633153" lon="114.66978615109183"><ele>155.0</ele><time>2026-04-13T07:58:25Z</time></trkpt><trkpt lat="-28.379766919107645" lon="114.66962052213815"><ele>155.0</ele><time>2026-04-13T07:58:26Z</time></trkpt><trkpt lat="-28.37956709975881" lon="114.66945256661127"><ele>155.5</ele><time>2026-04-13T07:58:27Z</time></trkpt><trkpt lat="-28.37936594778872" lon="114.66928263246577"><ele>156.0</ele><time>2026-04-13T07:58:28Z</time></trkpt><trkpt lat="-28.379158060925544" lon="114.66910954145517"><ele>156.0</ele><time>2026-04-13T07:58:29Z</time></trkpt><trkpt lat="-28.378946471411513" lon="114.6689333558614"><ele>156.0</ele><time>2026-04-13T07:58:30Z</time></trkpt><trkpt lat="-28.3787221676192" lon="114.66876366231828"><ele>155.0</ele><time>2026-04-13T07:58:31Z</time></trkpt><trkpt lat="-28.378512703805075" lon="114.66857879893782"><ele>154.0</ele><time>2026-04-13T07:58:32Z</time></trkpt><trkpt lat="-28.378333984030707" lon="114.66838145411943"><ele>154.0</ele><time>2026-04-13T07:58:33Z</time></trkpt><trkpt lat="-28.378165314013945" lon="114.6682039935651"><ele>154.0</ele><time>2026-04-13T07:58:34Z</time></trkpt><trkpt lat="-28.378013611727738" lon="114.66801122216123"><ele>154.0</ele><time>2026-04-13T07:58:35Z</time></trkpt><trkpt lat="-28.37787624927906" lon="114.6677871554301"><ele>154.0</ele><time>2026-04-13T07:58:36Z</time></trkpt><trkpt lat="-28.37774736635888" lon="114.66754378544522"><ele>155.0</ele><time>2026-04-13T07:58:37Z</time></trkpt><trkpt lat="-28.377629432757267" lon="114.6672860246151"><ele>156.0</ele><time>2026-04-13T07:58:38Z</time></trkpt><trkpt lat="-28.37751512086806" lon="114.6670254426029"><ele>157.5</ele><time>2026-04-13T07:58:39Z</time></trkpt><trkpt lat="-28.377403876482223" lon="114.66675921777453"><ele>159.0</ele><time>2026-04-13T07:58:40Z</time></trkpt><trkpt lat="-28.377293028211614" lon="114.66648746727087"><ele>158.5</ele><time>2026-04-13T07:58:41Z</time></trkpt><trkpt lat="-28.377183947912627" lon="114.66621590354765"><ele>158.0</ele><time>2026-04-13T07:58:42Z</time></trkpt><trkpt lat="-28.377073354424244" lon="114.66593895566501"><ele>158.0</ele><time>2026-04-13T07:58:43Z</time></trkpt><trkpt lat="-28.376963363335406" lon="114.6656621933188"><ele>158.0</ele><time>2026-04-13T07:58:44Z</time></trkpt><trkpt lat="-28.37685370751233" lon="114.66538673771417"><ele>160.0</ele><time>2026-04-13T07:58:45Z</time></trkpt><trkpt lat="-28.37674339405729" lon="114.66510768938134"><ele>162.0</ele><time>2026-04-13T07:58:46Z</time></trkpt><trkpt lat="-28.37663560343959" lon="114.66483747309076"><ele>162.0</ele><time>2026-04-13T07:58:47Z</time></trkpt><trkpt lat="-28.376528003734215" lon="114.66456810831721"><ele>162.0</ele><time>2026-04-13T07:58:48Z</time></trkpt><trkpt lat="-28.376424020505244" lon="114.6643173109905"><ele>163.0</ele><time>2026-04-13T07:58:49Z</time></trkpt><trkpt lat="-28.376319404761137" lon="114.66406640413523"><ele>164.0</ele><time>2026-04-13T07:58:50Z</time></trkpt><trkpt lat="-28.376213148734088" lon="114.66381158698258"><ele>164.5</ele><time>2026-04-13T07:58:51Z</time></trkpt><trkpt lat="-28.37601760239527" lon="114.66359307437953"><ele>165.0</ele><time>2026-04-13T07:58:52Z</time></trkpt><trkpt lat="-28.375853521606857" lon="114.66334735886028"><ele>165.0</ele><time>2026-04-13T07:58:53Z</time></trkpt><trkpt lat="-28.375674248056413" lon="114.66310533488623"><ele>165.0</ele><time>2026-04-13T07:58:54Z</time></trkpt><trkpt lat="-28.375480513161122" lon="114.66287654207014"><ele>168.0</ele><time>2026-04-13T07:58:55Z</time></trkpt><trkpt lat="-28.375274747597146" lon="114.66265955934946"><ele>171.0</ele><time>2026-04-13T07:58:56Z</time></trkpt><trkpt lat="-28.375061653856314" lon="114.66244866724207"><ele>171.0</ele><time>2026-04-13T07:58:57Z</time></trkpt><trkpt lat="-28.374849608810866" lon="114.66223780887142"><ele>171.0</ele><time>2026-04-13T07:58:58Z</time></trkpt><trkpt lat="-28.374640471792276" lon="114.6620218842544"><ele>173.0</ele><time>2026-04-13T07:58:59Z</time></trkpt><trkpt lat="-28.37443229079026" lon="114.66180481748518"><ele>175.0</ele><time>2026-04-13T07:59:00Z</time></trkpt><trkpt lat="-28.374219986545747" lon="114.66158330551552"><ele>175.0</ele><time>2026-04-13T07:59:01Z</time></trkpt><trkpt lat="-28.374007573843212" lon="114.6613581335394"><ele>175.0</ele><time>2026-04-13T07:59:02Z</time></trkpt><trkpt lat="-28.373796151274707" lon="114.6611325482213"><ele>175.5</ele><time>2026-04-13T07:59:03Z</time></trkpt><trkpt lat="-28.37358752532604" lon="114.66091177218546"><ele>176.0</ele><time>2026-04-13T07:59:04Z</time></trkpt><trkpt lat="-28.373377994688482" lon="114.6606898999311"><ele>176.0</ele><time>2026-04-13T07:59:05Z</time></trkpt><trkpt lat="-28.37316745316519" lon="114.66046964844885"><ele>176.0</ele><time>2026-04-13T07:59:06Z</time></trkpt><trkpt lat="-28.372959442321097" lon="114.66024945599217"><ele>177.0</ele><time>2026-04-13T07:59:07Z</time></trkpt><trkpt lat="-28.372749794059434" lon="114.6600286177713"><ele>178.0</ele><time>2026-04-13T07:59:08Z</time></trkpt><trkpt lat="-28.3725367336694" lon="114.65981018906584"><ele>178.0</ele><time>2026-04-13T07:59:09Z</time></trkpt><trkpt lat="-28.372323648429166" lon="114.65959224154646"><ele>178.0</ele><time>2026-04-13T07:59:10Z</time></trkpt><trkpt lat="-28.372110683311195" lon="114.65937685623065"><ele>179.0</ele><time>2026-04-13T07:59:11Z</time></trkpt><trkpt lat="-28.371905357395736" lon="114.65916592817351"><ele>180.0</ele><time>2026-04-13T07:59:12Z</time></trkpt><trkpt lat="-28.371705243722154" lon="114.65895711949999"><ele>180.0</ele><time>2026-04-13T07:59:13Z</time></trkpt><trkpt lat="-28.371508752696986" lon="114.65874152949326"><ele>180.0</ele><time>2026-04-13T07:59:14Z</time></trkpt><trkpt lat="-28.371320129526662" lon="114.65852426542651"><ele>181.5</ele><time>2026-04-13T07:59:15Z</time></trkpt><trkpt lat="-28.37113561916879" lon="114.65829283494556"><ele>183.0</ele><time>2026-04-13T07:59:16Z</time></trkpt><trkpt lat="-28.37095988671436" lon="114.65804813811063"><ele>183.0</ele><time>2026-04-13T07:59:17Z</time></trkpt><trkpt lat="-28.370794738642573" lon="114.6577917450481"><ele>183.0</ele><time>2026-04-13T07:59:18Z</time></trkpt><trkpt lat="-28.370636721830554" lon="114.65752547316687"><ele>184.0</ele><time>2026-04-13T07:59:19Z</time></trkpt><trkpt lat="-28.370489505553028" lon="114.65725139525487"><ele>185.0</ele><time>2026-04-13T07:59:20Z</time></trkpt><trkpt lat="-28.37035605390153" lon="114.6569736206237"><ele>186.0</ele><time>2026-04-13T07:59:21Z</time></trkpt><trkpt lat="-28.37022641848326" lon="114.65669044830257"><ele>187.0</ele><time>2026-04-13T07:59:22Z</time></trkpt><trkpt lat="-28.370094537750507" lon="114.65641106104998"><ele>187.0</ele><time>2026-04-13T07:59:23Z</time></trkpt><trkpt lat="-28.36995811555882" lon="114.65613159102715"><ele>187.0</ele><time>2026-04-13T07:59:24Z</time></trkpt><trkpt lat="-28.36981892624722" lon="114.65585211282692"><ele>189.0</ele><time>2026-04-13T07:59:25Z</time></trkpt><trkpt lat="-28.36968009250646" lon="114.65557388794967"><ele>191.0</ele><time>2026-04-13T07:59:26Z</time></trkpt><trkpt lat="-28.369539687438202" lon="114.65529838004072"><ele>191.5</ele><time>2026-04-13T07:59:27Z</time></trkpt><trkpt lat="-28.36939020284718" lon="114.65503242071541"><ele>192.0</ele><time>2026-04-13T07:59:28Z</time></trkpt><trkpt lat="-28.369225950344187" lon="114.65478491478386"><ele>192.0</ele><time>2026-04-13T07:59:29Z</time></trkpt><trkpt lat="-28.369041561489947" lon="114.65454063541667"><ele>192.0</ele><time>2026-04-13T07:59:30Z</time></trkpt><trkpt lat="-28.368843589434615" lon="114.65429905993193"><ele>194.5</ele><time>2026-04-13T07:59:31Z</time></trkpt><trkpt lat="-28.368642024516916" lon="114.6540610371231"><ele>197.0</ele><time>2026-04-13T07:59:32Z</time></trkpt><trkpt lat="-28.368440000264258" lon="114.6538290895765"><ele>200.0</ele><time>2026-04-13T07:59:33Z</time></trkpt><trkpt lat="-28.368238385488" lon="114.65359937820612"><ele>203.0</ele><time>2026-04-13T07:59:34Z</time></trkpt><trkpt lat="-28.368040468786482" lon="114.65336805399775"><ele>202.0</ele><time>2026-04-13T07:59:35Z</time></trkpt><trkpt lat="-28.367849118744665" lon="114.65313656382202"><ele>201.0</ele><time>2026-04-13T07:59:36Z</time></trkpt><trkpt lat="-28.367659040562515" lon="114.6529044234557"><ele>204.0</ele><time>2026-04-13T07:59:37Z</time></trkpt><trkpt lat="-28.367477803493255" lon="114.65268250250475"><ele>207.0</ele><time>2026-04-13T07:59:38Z</time></trkpt><trkpt lat="-28.367311862880605" lon="114.65247137414612"><ele>205.5</ele><time>2026-04-13T07:59:39Z</time></trkpt><trkpt lat="-28.36716159046631" lon="114.65227221850107"><ele>204.0</ele><time>2026-04-13T07:59:40Z</time></trkpt><trkpt lat="-28.367019747030312" lon="114.652065382344"><ele>204.0</ele><time>2026-04-13T07:59:41Z</time></trkpt><trkpt lat="-28.366888373594993" lon="114.65183194604317"><ele>204.0</ele><time>2026-04-13T07:59:42Z</time></trkpt><trkpt lat="-28.366768238991956" lon="114.65157072500189"><ele>204.0</ele><time>2026-04-13T07:59:43Z</time></trkpt><trkpt lat="-28.366666793172158" lon="114.65129162918143"><ele>204.0</ele><time>2026-04-13T07:59:44Z</time></trkpt><trkpt lat="-28.36658882450859" lon="114.65100903107437"><ele>204.0</ele><time>2026-04-13T07:59:45Z</time></trkpt><trkpt lat="-28.366535284779804" lon="114.65072644662352"><ele>204.0</ele><time>2026-04-13T07:59:46Z</time></trkpt><trkpt lat="-28.3665108528945" lon="114.65044785360388"><ele>203.0</ele><time>2026-04-13T07:59:47Z</time></trkpt><trkpt lat="-28.36651058780055" lon="114.65016815606971"><ele>202.0</ele><time>2026-04-13T07:59:48Z</time></trkpt><trkpt lat="-28.366529494839863" lon="114.6498821182327"><ele>202.0</ele><time>2026-04-13T07:59:49Z</time></trkpt><trkpt lat="-28.366565218060614" lon="114.64959058873914"><ele>202.0</ele><time>2026-04-13T07:59:50Z</time></trkpt><trkpt lat="-28.3666121676579" lon="114.64929613188352"><ele>201.0</ele><time>2026-04-13T07:59:51Z</time></trkpt><trkpt lat="-28.366661310742618" lon="114.64899905707694"><ele>200.0</ele><time>2026-04-13T07:59:52Z</time></trkpt><trkpt lat="-28.36670402973459" lon="114.64870222708362"><ele>199.0</ele><time>2026-04-13T07:59:53Z</time></trkpt><trkpt lat="-28.366742399372253" lon="114.64840116675143"><ele>198.0</ele><time>2026-04-13T07:59:54Z</time></trkpt><trkpt lat="-28.366782214413387" lon="114.64810184959245"><ele>198.0</ele><time>2026-04-13T07:59:55Z</time></trkpt><trkpt lat="-28.36684288449326" lon="114.6478027905346"><ele>198.0</ele><time>2026-04-13T07:59:56Z</time></trkpt><trkpt lat="-28.366885250947853" lon="114.64750474107579"><ele>198.0</ele><time>2026-04-13T07:59:57Z</time></trkpt><trkpt lat="-28.366926100307005" lon="114.6472056417493"><ele>198.0</ele><time>2026-04-13T07:59:58Z</time></trkpt><trkpt lat="-28.366952446574096" lon="114.64690268926638"><ele>196.5</ele><time>2026-04-13T07:59:59Z</time></trkpt><trkpt lat="-28.366993229352982" lon="114.64660388047979"><ele>195.0</ele><time>2026-04-13T08:00:00Z</time></trkpt><trkpt lat="-28.367033765535215" lon="114.64630246988057"><ele>194.5</ele><time>2026-04-13T08:00:01Z</time></trkpt><trkpt lat="-28.367073266026587" lon="114.64600665570929"><ele>194.0</ele><time>2026-04-13T08:00:02Z</time></trkpt><trkpt lat="-28.36711078522092" lon="114.64572902070215"><ele>194.0</ele><time>2026-04-13T08:00:03Z</time></trkpt><trkpt lat="-28.367146249317646" lon="114.64547222855441"><ele>194.0</ele><time>2026-04-13T08:00:04Z</time></trkpt><trkpt lat="-28.36718046303123" lon="114.64524212780755"><ele>194.0</ele><time>2026-04-13T08:00:05Z</time></trkpt><trkpt lat="-28.36721254960156" lon="114.64502494474365"><ele>194.66666666666669</ele><time>2026-04-13T08:00:06Z</time></trkpt><trkpt lat="-28.36724144866782" lon="114.64482915371774"><ele>195.33333333333331</ele><time>2026-04-13T08:00:07Z</time></trkpt><trkpt lat="-28.367266655831596" lon="114.64465071034888"><ele>196.0</ele><time>2026-04-13T08:00:08Z</time></trkpt><trkpt lat="-28.367289907586624" lon="114.64448628620315"><ele>197.0</ele><time>2026-04-13T08:00:09Z</time></trkpt><trkpt lat="-28.367310463822697" lon="114.64433273042145"><ele>198.0</ele><time>2026-04-13T08:00:10Z</time></trkpt><trkpt lat="-28.367329256077387" lon="114.64418806653819"><ele>199.0</ele><time>2026-04-13T08:00:11Z</time></trkpt><trkpt lat="-28.36734850961991" lon="114.64405700191551"><ele>200.0</ele><time>2026-04-13T08:00:12Z</time></trkpt><trkpt lat="-28.367365872362047" lon="114.64393803339009"><ele>200.0</ele><time>2026-04-13T08:00:13Z</time></trkpt><trkpt lat="-28.36738248159597" lon="114.64384032069063"><ele>200.0</ele><time>2026-04-13T08:00:14Z</time></trkpt><trkpt lat="-28.36740564738282" lon="114.64377301636344"><ele>200.0</ele><time>2026-04-13T08:00:15Z</time></trkpt><trkpt lat="-28.367410663255725" lon="114.64368977701339"><ele>200.0</ele><time>2026-04-13T08:00:17Z</time></trkpt><trkpt lat="-28.367250292958314" lon="114.64363903972531"><ele>200.0</ele><time>2026-04-13T08:00:18Z</time></trkpt><trkpt lat="-28.367144976293936" lon="114.64358788793345"><ele>199.6</ele><time>2026-04-13T08:00:20Z</time></trkpt><trkpt lat="-28.367016686271935" lon="114.6435816465152"><ele>199.2</ele><time>2026-04-13T08:00:22Z</time></trkpt><trkpt lat="-28.366936783805112" lon="114.64356435439917"><ele>198.8</ele><time>2026-04-13T08:00:23Z</time></trkpt><trkpt lat="-28.36683904353218" lon="114.64353800558253"><ele>198.4</ele><time>2026-04-13T08:00:24Z</time></trkpt><trkpt lat="-28.366735234718096" lon="114.64348854394274"><ele>198.0</ele><time>2026-04-13T08:00:25Z</time></trkpt><trkpt lat="-28.36661558186605" lon="114.64344671639708"><ele>198.0</ele><time>2026-04-13T08:00:26Z</time></trkpt><trkpt lat="-28.366482675485887" lon="114.64339823131876"><ele>198.0</ele><time>2026-04-13T08:00:27Z</time></trkpt><trkpt lat="-28.366344601737616" lon="114.64334776453966"><ele>198.0</ele><time>2026-04-13T08:00:28Z</time></trkpt><trkpt lat="-28.366195277071824" lon="114.64331123895289"><ele>198.0</ele><time>2026-04-13T08:00:29Z</time></trkpt><trkpt lat="-28.366039037783853" lon="114.6432457804538"><ele>197.33333333333331</ele><time>2026-04-13T08:00:30Z</time></trkpt><trkpt lat="-28.36586604952455" lon="114.64318897681704"><ele>196.66666666666666</ele><time>2026-04-13T08:00:31Z</time></trkpt><trkpt lat="-28.36568307045436" lon="114.64311673053763"><ele>196.0</ele><time>2026-04-13T08:00:32Z</time></trkpt><trkpt lat="-28.365491726479668" lon="114.6430546290048"><ele>194.66666666666666</ele><time>2026-04-13T08:00:33Z</time></trkpt><trkpt lat="-28.36530203851687" lon="114.64298364737641"><ele>193.33333333333331</ele><time>2026-04-13T08:00:34Z</time></trkpt><trkpt lat="-28.3651233566078" lon="114.64291258507222"><ele>192.0</ele><time>2026-04-13T08:00:35Z</time></trkpt><trkpt lat="-28.364949241859414" lon="114.64284746211086"><ele>191.33333333333334</ele><time>2026-04-13T08:00:36Z</time></trkpt><trkpt lat="-28.36477310681332" lon="114.64278449292074"><ele>190.66666666666669</ele><time>2026-04-13T08:00:37Z</time></trkpt><trkpt lat="-28.364596966160892" lon="114.64272298185962"><ele>190.0</ele><time>2026-04-13T08:00:38Z</time></trkpt><trkpt lat="-28.36442489709336" lon="114.64266190522737"><ele>189.66666666666669</ele><time>2026-04-13T08:00:39Z</time></trkpt><trkpt lat="-28.364251115883153" lon="114.64259929497443"><ele>189.33333333333334</ele><time>2026-04-13T08:00:40Z</time></trkpt><trkpt lat="-28.36408773902082" lon="114.64254101486893"><ele>189.0</ele><time>2026-04-13T08:00:41Z</time></trkpt><trkpt lat="-28.36393597537661" lon="114.64246796204192"><ele>189.0</ele><time>2026-04-13T08:00:42Z</time></trkpt><trkpt lat="-28.363778278788928" lon="114.64241703888962"><ele>189.0</ele><time>2026-04-13T08:00:43Z</time></trkpt><trkpt lat="-28.363608489629605" lon="114.64237962504092"><ele>189.0</ele><time>2026-04-13T08:00:44Z</time></trkpt><trkpt lat="-28.363417463495924" lon="114.64238040356858"><ele>189.0</ele><time>2026-04-13T08:00:45Z</time></trkpt><trkpt lat="-28.36321350874866" lon="114.64241398722345"><ele>189.0</ele><time>2026-04-13T08:00:46Z</time></trkpt><trkpt lat="-28.362994014685448" lon="114.64244289058455"><ele>189.0</ele><time>2026-04-13T08:00:47Z</time></trkpt><trkpt lat="-28.362770381012837" lon="114.64248280154438"><ele>188.0</ele><time>2026-04-13T08:00:48Z</time></trkpt><trkpt lat="-28.362550003093663" lon="114.64252305963629"><ele>187.0</ele><time>2026-04-13T08:00:49Z</time></trkpt><trkpt lat="-28.362335773835294" lon="114.6425622308483"><ele>186.0</ele><time>2026-04-13T08:00:50Z</time></trkpt><trkpt lat="-28.362140592643016" lon="114.6426047928156"><ele>184.33333333333334</ele><time>2026-04-13T08:00:51Z</time></trkpt><trkpt lat="-28.361942425475085" lon="114.64264638025413"><ele>182.66666666666669</ele><time>2026-04-13T08:00:52Z</time></trkpt><trkpt lat="-28.36173613813105" lon="114.64265605434"><ele>181.0</ele><time>2026-04-13T08:00:53Z</time></trkpt><trkpt lat="-28.36154158621873" lon="114.64266264005101"><ele>180.33333333333334</ele><time>2026-04-13T08:00:54Z</time></trkpt><trkpt lat="-28.361335103897197" lon="114.64266405863138"><ele>179.66666666666666</ele><time>2026-04-13T08:00:55Z</time></trkpt><trkpt lat="-28.361118962027543" lon="114.64268258934433"><ele>179.0</ele><time>2026-04-13T08:00:56Z</time></trkpt><trkpt lat="-28.36089813338341" lon="114.64268303064428"><ele>179.0</ele><time>2026-04-13T08:00:57Z</time></trkpt><trkpt lat="-28.360667136425246" lon="114.64268563112871"><ele>179.0</ele><time>2026-04-13T08:00:58Z</time></trkpt><trkpt lat="-28.36043821869676" lon="114.64268734468433"><ele>179.0</ele><time>2026-04-13T08:00:59Z</time></trkpt><trkpt lat="-28.36021257515069" lon="114.64269082153363"><ele>179.0</ele><time>2026-04-13T08:01:00Z</time></trkpt><trkpt lat="-28.359990654439983" lon="114.64269352279437"><ele>179.0</ele><time>2026-04-13T08:01:01Z</time></trkpt><trkpt lat="-28.359777357746754" lon="114.64269804680252"><ele>177.66666666666666</ele><time>2026-04-13T08:01:02Z</time></trkpt><trkpt lat="-28.35957566808008" lon="114.6427004193978"><ele>176.33333333333334</ele><time>2026-04-13T08:01:03Z</time></trkpt><trkpt lat="-28.359386948545964" lon="114.64268377204759"><ele>175.0</ele><time>2026-04-13T08:01:04Z</time></trkpt><trkpt lat="-28.35920593679506" lon="114.64268500435087"><ele>175.0</ele><time>2026-04-13T08:01:05Z</time></trkpt><trkpt lat="-28.35903540418395" lon="114.64268726840456"><ele>175.0</ele><time>2026-04-13T08:01:06Z</time></trkpt><trkpt lat="-28.358870351473506" lon="114.64268909068046"><ele>175.0</ele><time>2026-04-13T08:01:07Z</time></trkpt><trkpt lat="-28.35871700497532" lon="114.64269062899622"><ele>175.8</ele><time>2026-04-13T08:01:08Z</time></trkpt><trkpt lat="-28.358577094584668" lon="114.6426906289957"><ele>176.6</ele><time>2026-04-13T08:01:09Z</time></trkpt><trkpt lat="-28.35845780993705" lon="114.64269289208134"><ele>177.39999999999998</ele><time>2026-04-13T08:01:10Z</time></trkpt><trkpt lat="-28.358364205152863" lon="114.64269527487818"><ele>178.2</ele><time>2026-04-13T08:01:11Z</time></trkpt><trkpt lat="-28.358291184545315" lon="114.64269732899503"><ele>179.0</ele><time>2026-04-13T08:01:12Z</time></trkpt><trkpt lat="-28.35818903829617" lon="114.64267845799138"><ele>179.0</ele><time>2026-04-13T08:01:14Z</time></trkpt><trkpt lat="-28.358228268692045" lon="114.64253334348261"><ele>179.0</ele><time>2026-04-13T08:01:15Z</time></trkpt><trkpt lat="-28.358225730517116" lon="114.64242947686758"><ele>179.0</ele><time>2026-04-13T08:01:16Z</time></trkpt><trkpt lat="-28.35822346946465" lon="114.6423076729208"><ele>179.0</ele><time>2026-04-13T08:01:17Z</time></trkpt><trkpt lat="-28.35822221992603" lon="114.6421606557454"><ele>179.0</ele><time>2026-04-13T08:01:18Z</time></trkpt><trkpt lat="-28.35820416280576" lon="114.64199623482473"><ele>179.0</ele><time>2026-04-13T08:01:19Z</time></trkpt><trkpt lat="-28.358219693340928" lon="114.64181949609413"><ele>179.0</ele><time>2026-04-13T08:01:20Z</time></trkpt><trkpt lat="-28.358218604246915" lon="114.64163032893026"><ele>179.33333333333331</ele><time>2026-04-13T08:01:21Z</time></trkpt><trkpt lat="-28.358217016951013" lon="114.64144642285609"><ele>179.66666666666666</ele><time>2026-04-13T08:01:22Z</time></trkpt><trkpt lat="-28.358215364641758" lon="114.64125498430187"><ele>180.0</ele><time>2026-04-13T08:01:23Z</time></trkpt><trkpt lat="-28.358213064768467" lon="114.64105550977389"><ele>178.66666666666666</ele><time>2026-04-13T08:01:24Z</time></trkpt><trkpt lat="-28.358210769055542" lon="114.64085562693259"><ele>177.33333333333331</ele><time>2026-04-13T08:01:25Z</time></trkpt><trkpt lat="-28.35820925423484" lon="114.64067688185766"><ele>176.0</ele><time>2026-04-13T08:01:26Z</time></trkpt><trkpt lat="-28.358208658938267" lon="114.64050776392082"><ele>176.0</ele><time>2026-04-13T08:01:27Z</time></trkpt><trkpt lat="-28.358208392468615" lon="114.64036486610621"><ele>176.0</ele><time>2026-04-13T08:01:28Z</time></trkpt><trkpt lat="-28.35820833061105" lon="114.64024058217082"><ele>176.0</ele><time>2026-04-13T08:01:29Z</time></trkpt><trkpt lat="-28.358207875063123" lon="114.64014434761225"><ele>176.0</ele><time>2026-04-13T08:01:30Z</time></trkpt><trkpt lat="-28.358207528178678" lon="114.6400710682125"><ele>176.0</ele><time>2026-04-13T08:01:31Z</time></trkpt><trkpt lat="-28.358199440191875" lon="114.6399700108684"><ele>175.8</ele><time>2026-04-13T08:01:33Z</time></trkpt><trkpt lat="-28.358341575356416" lon="114.63991352748477"><ele>175.60000000000002</ele><time>2026-04-13T08:01:36Z</time></trkpt><trkpt lat="-28.35842958220284" lon="114.63992033145092"><ele>175.4</ele><time>2026-04-13T08:01:37Z</time></trkpt><trkpt lat="-28.358527151125728" lon="114.63992623630666"><ele>175.2</ele><time>2026-04-13T08:01:38Z</time></trkpt><trkpt lat="-28.35863930362178" lon="114.6399314887181"><ele>175.0</ele><time>2026-04-13T08:01:39Z</time></trkpt><trkpt lat="-28.35875979476909" lon="114.63993129205787"><ele>175.5</ele><time>2026-04-13T08:01:40Z</time></trkpt><trkpt lat="-28.35887407897879" lon="114.63992853183983"><ele>176.0</ele><time>2026-04-13T08:01:41Z</time></trkpt><trkpt lat="-28.358970292603075" lon="114.63992579429569"><ele>176.5</ele><time>2026-04-13T08:01:42Z</time></trkpt><trkpt lat="-28.35905207272087" lon="114.63992332485913"><ele>177.0</ele><time>2026-04-13T08:01:43Z</time></trkpt><trkpt lat="-28.359127566689654" lon="114.63991185664744"><ele>177.5</ele><time>2026-04-13T08:01:44Z</time></trkpt><trkpt lat="-28.359199509321705" lon="114.63989815039956"><ele>178.0</ele><time>2026-04-13T08:01:45Z</time></trkpt><trkpt lat="-28.359291444734442" lon="114.63967733454598"><ele>178.0</ele><time>2026-04-13T08:01:47Z</time></trkpt><trkpt lat="-28.359278816122117" lon="114.63954158427434"><ele>178.0</ele><time>2026-04-13T08:01:48Z</time></trkpt><trkpt lat="-28.359271984234773" lon="114.63938682442927"><ele>178.0</ele><time>2026-04-13T08:01:49Z</time></trkpt><trkpt lat="-28.359286934131248" lon="114.63921830392282"><ele>178.0</ele><time>2026-04-13T08:01:50Z</time></trkpt><trkpt lat="-28.359285194351383" lon="114.63906353347552"><ele>178.4</ele><time>2026-04-13T08:01:51Z</time></trkpt><trkpt lat="-28.35928358726862" lon="114.63892793589199"><ele>178.8</ele><time>2026-04-13T08:01:52Z</time></trkpt><trkpt lat="-28.359282206968338" lon="114.63881147317898"><ele>179.2</ele><time>2026-04-13T08:01:53Z</time></trkpt><trkpt lat="-28.359266964969287" lon="114.63872661925117"><ele>179.6</ele><time>2026-04-13T08:01:54Z</time></trkpt><trkpt lat="-28.35926766399274" lon="114.6386209412084"><ele>180.0</ele><time>2026-04-13T08:01:56Z</time></trkpt><trkpt lat="-28.35918654965295" lon="114.6387940392437"><ele>180.0</ele><time>2026-04-13T08:03:50Z</time></trkpt><trkpt lat="-28.359240645870994" lon="114.63893658096893"><ele>180.0</ele><time>2026-04-13T08:03:52Z</time></trkpt><trkpt lat="-28.359265334363805" lon="114.63902131330289"><ele>180.0</ele><time>2026-04-13T08:03:53Z</time></trkpt><trkpt lat="-28.359266381629613" lon="114.63909849004392"><ele>180.0</ele><time>2026-04-13T08:03:54Z</time></trkpt><trkpt lat="-28.359259146195296" lon="114.63919150713502"><ele>180.0</ele><time>2026-04-13T08:03:55Z</time></trkpt><trkpt lat="-28.359249408182567" lon="114.63928864723181"><ele>180.0</ele><time>2026-04-13T08:03:56Z</time></trkpt><trkpt lat="-28.359241462503256" lon="114.63939291658576"><ele>180.0</ele><time>2026-04-13T08:03:57Z</time></trkpt><trkpt lat="-28.359237623406653" lon="114.6394879130212"><ele>180.0</ele><time>2026-04-13T08:03:58Z</time></trkpt><trkpt lat="-28.35923440776604" lon="114.63957138820459"><ele>180.0</ele><time>2026-04-13T08:03:59Z</time></trkpt><trkpt lat="-28.359227814720054" lon="114.63971061205442"><ele>180.0</ele><time>2026-04-13T08:04:01Z</time></trkpt><trkpt lat="-28.35919046432713" lon="114.63983597352845"><ele>179.5</ele><time>2026-04-13T08:04:03Z</time></trkpt><trkpt lat="-28.359068014741116" lon="114.6398958403659"><ele>179.0</ele><time>2026-04-13T08:04:05Z</time></trkpt><trkpt lat="-28.35897538564158" lon="114.63989832329257"><ele>178.5</ele><time>2026-04-13T08:04:06Z</time></trkpt><trkpt lat="-28.35885767877369" lon="114.63989129123667"><ele>178.0</ele><time>2026-04-13T08:04:07Z</time></trkpt><trkpt lat="-28.358716351517852" lon="114.6398859785778"><ele>177.0</ele><time>2026-04-13T08:04:08Z</time></trkpt><trkpt lat="-28.3585546394664" lon="114.63988259707747"><ele>176.0</ele><time>2026-04-13T08:04:09Z</time></trkpt><trkpt lat="-28.35839039416883" lon="114.63988029284413"><ele>175.0</ele><time>2026-04-13T08:04:10Z</time></trkpt><trkpt lat="-28.358202633115113" lon="114.63988272366561"><ele>174.66666666666669</ele><time>2026-04-13T08:04:11Z</time></trkpt><trkpt lat="-28.35799110801506" lon="114.63988291764652"><ele>174.33333333333334</ele><time>2026-04-13T08:04:12Z</time></trkpt><trkpt lat="-28.357771341711565" lon="114.63988561759349"><ele>174.0</ele><time>2026-04-13T08:04:13Z</time></trkpt><trkpt lat="-28.357557154779695" lon="114.63989184945582"><ele>174.0</ele><time>2026-04-13T08:04:14Z</time></trkpt><trkpt lat="-28.357337023404337" lon="114.63989430525662"><ele>174.0</ele><time>2026-04-13T08:04:15Z</time></trkpt><trkpt lat="-28.357118018425282" lon="114.63989376320626"><ele>174.0</ele><time>2026-04-13T08:04:16Z</time></trkpt><trkpt lat="-28.35689503660406" lon="114.63989288673989"><ele>175.0</ele><time>2026-04-13T08:04:17Z</time></trkpt><trkpt lat="-28.356666478435216" lon="114.63989048516274"><ele>176.0</ele><time>2026-04-13T08:04:18Z</time></trkpt><trkpt lat="-28.356440902681083" lon="114.6398907002393"><ele>176.0</ele><time>2026-04-13T08:04:19Z</time></trkpt><trkpt lat="-28.356223480835496" lon="114.639893537767"><ele>176.0</ele><time>2026-04-13T08:04:20Z</time></trkpt><trkpt lat="-28.35602018091341" lon="114.63989774153609"><ele>176.0</ele><time>2026-04-13T08:04:21Z</time></trkpt><trkpt lat="-28.355821671598324" lon="114.63990273048884"><ele>176.0</ele><time>2026-04-13T08:04:22Z</time></trkpt><trkpt lat="-28.35561351313604" lon="114.63990844634606"><ele>176.0</ele><time>2026-04-13T08:04:23Z</time></trkpt><trkpt lat="-28.35539589043743" lon="114.63991096996119"><ele>176.0</ele><time>2026-04-13T08:04:24Z</time></trkpt><trkpt lat="-28.355174246998516" lon="114.63991279081249"><ele>175.0</ele><time>2026-04-13T08:04:25Z</time></trkpt><trkpt lat="-28.354945027042817" lon="114.63991522097888"><ele>174.0</ele><time>2026-04-13T08:04:26Z</time></trkpt><trkpt lat="-28.354709051835545" lon="114.63991798833487"><ele>170.5</ele><time>2026-04-13T08:04:27Z</time></trkpt><trkpt lat="-28.354466043121025" lon="114.63992164279324"><ele>167.0</ele><time>2026-04-13T08:04:28Z</time></trkpt><trkpt lat="-28.354228375124066" lon="114.63992253930441"><ele>167.0</ele><time>2026-04-13T08:04:29Z</time></trkpt><trkpt lat="-28.353992572834052" lon="114.63992498480553"><ele>167.0</ele><time>2026-04-13T08:04:30Z</time></trkpt><trkpt lat="-28.353765181059515" lon="114.63992981422123"><ele>166.66666666666666</ele><time>2026-04-13T08:04:31Z</time></trkpt><trkpt lat="-28.35354950505846" lon="114.63993466684495"><ele>166.33333333333334</ele><time>2026-04-13T08:04:32Z</time></trkpt><trkpt lat="-28.353352986850187" lon="114.63993529718384"><ele>166.0</ele><time>2026-04-13T08:04:33Z</time></trkpt><trkpt lat="-28.35316621770027" lon="114.63993621516286"><ele>167.0</ele><time>2026-04-13T08:04:34Z</time></trkpt><trkpt lat="-28.352994404249554" lon="114.63993361027174"><ele>168.0</ele><time>2026-04-13T08:04:35Z</time></trkpt><trkpt lat="-28.35283184851879" lon="114.63993058414533"><ele>169.0</ele><time>2026-04-13T08:04:36Z</time></trkpt><trkpt lat="-28.352679734384836" lon="114.63993352071141"><ele>169.0</ele><time>2026-04-13T08:04:37Z</time></trkpt><trkpt lat="-28.35253668968104" lon="114.63994075874429"><ele>169.0</ele><time>2026-04-13T08:04:38Z</time></trkpt><trkpt lat="-28.352404471328512" lon="114.63994759321369"><ele>169.0</ele><time>2026-04-13T08:04:39Z</time></trkpt><trkpt lat="-28.352289624682843" lon="114.63995014037114"><ele>169.0</ele><time>2026-04-13T08:04:40Z</time></trkpt><trkpt lat="-28.352194332848114" lon="114.63994921106077"><ele>169.6</ele><time>2026-04-13T08:04:41Z</time></trkpt><trkpt lat="-28.35212523979627" lon="114.63994536541819"><ele>170.2</ele><time>2026-04-13T08:04:42Z</time></trkpt><trkpt lat="-28.352048981985412" lon="114.63991546134966"><ele>170.79999999999998</ele><time>2026-04-13T08:04:44Z</time></trkpt><trkpt lat="-28.352064268265497" lon="114.6397442349715"><ele>171.39999999999998</ele><time>2026-04-13T08:04:46Z</time></trkpt><trkpt lat="-28.352063475725544" lon="114.63963562338536"><ele>172.0</ele><time>2026-04-13T08:04:47Z</time></trkpt><trkpt lat="-28.3520634925027" lon="114.63950760087157"><ele>172.25</ele><time>2026-04-13T08:04:48Z</time></trkpt><trkpt lat="-28.35206296627384" lon="114.63936600023715"><ele>172.5</ele><time>2026-04-13T08:04:49Z</time></trkpt><trkpt lat="-28.352062292501035" lon="114.63921306558511"><ele>172.75</ele><time>2026-04-13T08:04:50Z</time></trkpt><trkpt lat="-28.352062170310653" lon="114.63904258088894"><ele>173.0</ele><time>2026-04-13T08:04:51Z</time></trkpt><trkpt lat="-28.352061606159374" lon="114.63886350978142"><ele>173.0</ele><time>2026-04-13T08:04:52Z</time></trkpt><trkpt lat="-28.35206109250393" lon="114.63867153293576"><ele>173.0</ele><time>2026-04-13T08:04:53Z</time></trkpt><trkpt lat="-28.35206034891216" lon="114.63846088907536"><ele>173.0</ele><time>2026-04-13T08:04:54Z</time></trkpt><trkpt lat="-28.35205913603577" lon="114.63823211952267"><ele>171.33333333333331</ele><time>2026-04-13T08:04:55Z</time></trkpt><trkpt lat="-28.352057934112317" lon="114.63800541573269"><ele>169.66666666666666</ele><time>2026-04-13T08:04:56Z</time></trkpt><trkpt lat="-28.352056667837388" lon="114.63776657433624"><ele>168.0</ele><time>2026-04-13T08:04:57Z</time></trkpt><trkpt lat="-28.35205550440724" lon="114.63752008155139"><ele>167.66666666666666</ele><time>2026-04-13T08:04:58Z</time></trkpt><trkpt lat="-28.352054363586262" lon="114.63727014615905"><ele>167.33333333333331</ele><time>2026-04-13T08:04:59Z</time></trkpt><trkpt lat="-28.352053992519046" lon="114.63702439734426"><ele>167.0</ele><time>2026-04-13T08:05:00Z</time></trkpt><trkpt lat="-28.35205209559447" lon="114.63676998764237"><ele>167.0</ele><time>2026-04-13T08:05:01Z</time></trkpt><trkpt lat="-28.352051692518955" lon="114.63650558681887"><ele>167.0</ele><time>2026-04-13T08:05:02Z</time></trkpt><trkpt lat="-28.352051692516813" lon="114.63623513020649"><ele>167.33333333333331</ele><time>2026-04-13T08:05:03Z</time></trkpt><trkpt lat="-28.352032831339177" lon="114.63597330736043"><ele>167.66666666666666</ele><time>2026-04-13T08:05:04Z</time></trkpt><trkpt lat="-28.35203253762719" lon="114.63572584066725"><ele>168.0</ele><time>2026-04-13T08:05:05Z</time></trkpt><trkpt lat="-28.352032296254585" lon="114.63548144297363"><ele>168.66666666666666</ele><time>2026-04-13T08:05:06Z</time></trkpt><trkpt lat="-28.35203106742579" lon="114.63523857407289"><ele>169.33333333333331</ele><time>2026-04-13T08:05:07Z</time></trkpt><trkpt lat="-28.352031372476937" lon="114.63499482703996"><ele>170.0</ele><time>2026-04-13T08:05:08Z</time></trkpt><trkpt lat="-28.35202863569085" lon="114.6347524538061"><ele>170.0</ele><time>2026-04-13T08:05:09Z</time></trkpt><trkpt lat="-28.35202601686217" lon="114.63451134375131"><ele>170.0</ele><time>2026-04-13T08:05:10Z</time></trkpt><trkpt lat="-28.35202276585965" lon="114.63426645566229"><ele>170.0</ele><time>2026-04-13T08:05:11Z</time></trkpt><trkpt lat="-28.352019636578337" lon="114.6340222048055"><ele>169.33333333333331</ele><time>2026-04-13T08:05:12Z</time></trkpt><trkpt lat="-28.35202357092214" lon="114.63377440185073"><ele>168.66666666666666</ele><time>2026-04-13T08:05:13Z</time></trkpt><trkpt lat="-28.352020091630187" lon="114.63352625936469"><ele>168.0</ele><time>2026-04-13T08:05:14Z</time></trkpt><trkpt lat="-28.35201995455154" lon="114.6332817412318"><ele>166.33333333333334</ele><time>2026-04-13T08:05:15Z</time></trkpt><trkpt lat="-28.352018862420767" lon="114.63303974120936"><ele>164.66666666666669</ele><time>2026-04-13T08:05:16Z</time></trkpt><trkpt lat="-28.352016844594985" lon="114.63281332717294"><ele>163.0</ele><time>2026-04-13T08:05:17Z</time></trkpt><trkpt lat="-28.352012972253288" lon="114.6325917115679"><ele>162.0</ele><time>2026-04-13T08:05:18Z</time></trkpt><trkpt lat="-28.352008624547004" lon="114.63236952196584"><ele>161.0</ele><time>2026-04-13T08:05:19Z</time></trkpt><trkpt lat="-28.352007536726315" lon="114.63215314021097"><ele>160.0</ele><time>2026-04-13T08:05:20Z</time></trkpt><trkpt lat="-28.35201043633963" lon="114.63194320624838"><ele>160.0</ele><time>2026-04-13T08:05:21Z</time></trkpt><trkpt lat="-28.352027415739137" lon="114.63171749631911"><ele>160.0</ele><time>2026-04-13T08:05:22Z</time></trkpt><trkpt lat="-28.352028092541328" lon="114.63147774890578"><ele>160.0</ele><time>2026-04-13T08:05:23Z</time></trkpt><trkpt lat="-28.352028092541264" lon="114.6312526397602"><ele>160.66666666666669</ele><time>2026-04-13T08:05:24Z</time></trkpt><trkpt lat="-28.352028092540785" lon="114.63104979716346"><ele>161.33333333333334</ele><time>2026-04-13T08:05:25Z</time></trkpt><trkpt lat="-28.352017162837406" lon="114.6308610547167"><ele>162.0</ele><time>2026-04-13T08:05:26Z</time></trkpt><trkpt lat="-28.352028514048932" lon="114.63069728582325"><ele>162.0</ele><time>2026-04-13T08:05:27Z</time></trkpt><trkpt lat="-28.352034395575746" lon="114.63056966169879"><ele>162.0</ele><time>2026-04-13T08:05:28Z</time></trkpt><trkpt lat="-28.352038523527945" lon="114.63047091798319"><ele>162.0</ele><time>2026-04-13T08:05:29Z</time></trkpt><trkpt lat="-28.352039751835314" lon="114.63039730563956"><ele>162.0</ele><time>2026-04-13T08:05:30Z</time></trkpt><trkpt lat="-28.35201934876791" lon="114.63030937731705"><ele>162.0</ele><time>2026-04-13T08:05:32Z</time></trkpt><trkpt lat="-28.352132693170375" lon="114.63022136064717"><ele>161.2</ele><time>2026-04-13T08:05:34Z</time></trkpt><trkpt lat="-28.352200017449302" lon="114.63016941552186"><ele>160.39999999999998</ele><time>2026-04-13T08:05:35Z</time></trkpt><trkpt lat="-28.352256049919593" lon="114.63011380513652"><ele>159.60000000000002</ele><time>2026-04-13T08:05:36Z</time></trkpt><trkpt lat="-28.35233794183261" lon="114.63004197343507"><ele>158.8</ele><time>2026-04-13T08:05:38Z</time></trkpt><trkpt lat="-28.352264539553065" lon="114.62985738812506"><ele>158.0</ele><time>2026-04-13T08:05:39Z</time></trkpt><trkpt lat="-28.35221288913852" lon="114.62977330143367"><ele>158.8</ele><time>2026-04-13T08:05:40Z</time></trkpt><trkpt lat="-28.352146265036595" lon="114.62970490754138"><ele>159.60000000000002</ele><time>2026-04-13T08:05:41Z</time></trkpt><trkpt lat="-28.352101637710206" lon="114.62961308247945"><ele>160.39999999999998</ele><time>2026-04-13T08:05:42Z</time></trkpt><trkpt lat="-28.352061842389922" lon="114.62949952594941"><ele>161.2</ele><time>2026-04-13T08:05:43Z</time></trkpt><trkpt lat="-28.3520106102048" lon="114.6293689574107"><ele>162.0</ele><time>2026-04-13T08:05:44Z</time></trkpt><trkpt lat="-28.351988830974935" lon="114.62920764048656"><ele>162.0</ele><time>2026-04-13T08:05:45Z</time></trkpt><trkpt lat="-28.351975030425216" lon="114.62903448528994"><ele>162.0</ele><time>2026-04-13T08:05:46Z</time></trkpt><trkpt lat="-28.35196881147679" lon="114.62885122715842"><ele>162.0</ele><time>2026-04-13T08:05:47Z</time></trkpt><trkpt lat="-28.351965092103576" lon="114.62865067046589"><ele>160.66666666666666</ele><time>2026-04-13T08:05:48Z</time></trkpt><trkpt lat="-28.351960823059272" lon="114.62842166699706"><ele>159.33333333333331</ele><time>2026-04-13T08:05:49Z</time></trkpt><trkpt lat="-28.351977687971534" lon="114.62817373751339"><ele>158.0</ele><time>2026-04-13T08:05:50Z</time></trkpt><trkpt lat="-28.351979547883214" lon="114.62791400469725"><ele>156.66666666666666</ele><time>2026-04-13T08:05:51Z</time></trkpt><trkpt lat="-28.351980729647217" lon="114.62766509430425"><ele>155.33333333333334</ele><time>2026-04-13T08:05:52Z</time></trkpt><trkpt lat="-28.351981883854812" lon="114.62740595055143"><ele>154.0</ele><time>2026-04-13T08:05:53Z</time></trkpt><trkpt lat="-28.351981992548538" lon="114.62715329492485"><ele>152.33333333333334</ele><time>2026-04-13T08:05:54Z</time></trkpt><trkpt lat="-28.35198199255492" lon="114.62690901401649"><ele>150.66666666666666</ele><time>2026-04-13T08:05:55Z</time></trkpt><trkpt lat="-28.351981992561377" lon="114.62666930723447"><ele>149.0</ele><time>2026-04-13T08:05:56Z</time></trkpt><trkpt lat="-28.351983604443745" lon="114.6264339288486"><ele>149.0</ele><time>2026-04-13T08:05:57Z</time></trkpt><trkpt lat="-28.351972355184632" lon="114.62620670395248"><ele>149.0</ele><time>2026-04-13T08:05:58Z</time></trkpt><trkpt lat="-28.352008509948345" lon="114.62598321068903"><ele>149.0</ele><time>2026-04-13T08:05:59Z</time></trkpt><trkpt lat="-28.352048136304607" lon="114.62575964356094"><ele>148.66666666666666</ele><time>2026-04-13T08:06:00Z</time></trkpt><trkpt lat="-28.35209452869983" lon="114.62553469879437"><ele>148.33333333333334</ele><time>2026-04-13T08:06:01Z</time></trkpt><trkpt lat="-28.352151171800095" lon="114.62530540995243"><ele>148.0</ele><time>2026-04-13T08:06:02Z</time></trkpt><trkpt lat="-28.35220766887525" lon="114.62507710544565"><ele>145.33333333333334</ele><time>2026-04-13T08:06:03Z</time></trkpt><trkpt lat="-28.352266403116758" lon="114.62484405645134"><ele>142.66666666666666</ele><time>2026-04-13T08:06:04Z</time></trkpt><trkpt lat="-28.352327352163872" lon="114.62460575484681"><ele>140.0</ele><time>2026-04-13T08:06:05Z</time></trkpt><trkpt lat="-28.35239005692488" lon="114.62437021590013"><ele>139.66666666666666</ele><time>2026-04-13T08:06:06Z</time></trkpt><trkpt lat="-28.352441667189662" lon="114.62412708425954"><ele>139.33333333333334</ele><time>2026-04-13T08:06:07Z</time></trkpt><trkpt lat="-28.35251103058827" lon="114.62389657359368"><ele>139.0</ele><time>2026-04-13T08:06:08Z</time></trkpt><trkpt lat="-28.35258399910025" lon="114.62366948442092"><ele>139.33333333333334</ele><time>2026-04-13T08:06:09Z</time></trkpt><trkpt lat="-28.352659888853157" lon="114.62345551045526"><ele>139.66666666666666</ele><time>2026-04-13T08:06:10Z</time></trkpt><trkpt lat="-28.352741384209757" lon="114.62324328711642"><ele>140.0</ele><time>2026-04-13T08:06:11Z</time></trkpt><trkpt lat="-28.352827211019196" lon="114.62303261846412"><ele>140.0</ele><time>2026-04-13T08:06:12Z</time></trkpt><trkpt lat="-28.352909924948523" lon="114.62283464888094"><ele>140.0</ele><time>2026-04-13T08:06:13Z</time></trkpt><trkpt lat="-28.35298706218037" lon="114.62264455453021"><ele>140.0</ele><time>2026-04-13T08:06:14Z</time></trkpt><trkpt lat="-28.35306774102384" lon="114.62244712025019"><ele>140.0</ele><time>2026-04-13T08:06:15Z</time></trkpt><trkpt lat="-28.35315389856254" lon="114.62224621795862"><ele>140.0</ele><time>2026-04-13T08:06:16Z</time></trkpt><trkpt lat="-28.353248895155552" lon="114.62205099866173"><ele>140.0</ele><time>2026-04-13T08:06:17Z</time></trkpt><trkpt lat="-28.353357524254523" lon="114.62186341709052"><ele>140.0</ele><time>2026-04-13T08:06:18Z</time></trkpt><trkpt lat="-28.353471635433202" lon="114.621686498607"><ele>140.0</ele><time>2026-04-13T08:06:19Z</time></trkpt><trkpt lat="-28.353593297466457" lon="114.62152014059004"><ele>140.0</ele><time>2026-04-13T08:06:20Z</time></trkpt><trkpt lat="-28.353717084409375" lon="114.62135314874197"><ele>140.0</ele><time>2026-04-13T08:06:21Z</time></trkpt><trkpt lat="-28.353831586187397" lon="114.62117720220468"><ele>140.0</ele><time>2026-04-13T08:06:22Z</time></trkpt><trkpt lat="-28.35394129495193" lon="114.6209834621719"><ele>140.0</ele><time>2026-04-13T08:06:23Z</time></trkpt><trkpt lat="-28.35406453486793" lon="114.62078538112515"><ele>139.0</ele><time>2026-04-13T08:06:24Z</time></trkpt><trkpt lat="-28.354174720205613" lon="114.62056922345717"><ele>138.0</ele><time>2026-04-13T08:06:25Z</time></trkpt><trkpt lat="-28.354271800227657" lon="114.62036617996831"><ele>137.0</ele><time>2026-04-13T08:06:26Z</time></trkpt><trkpt lat="-28.35435489034082" lon="114.62016312830043"><ele>136.33333333333331</ele><time>2026-04-13T08:06:27Z</time></trkpt><trkpt lat="-28.354426748386345" lon="114.61995733338497"><ele>135.66666666666666</ele><time>2026-04-13T08:06:28Z</time></trkpt><trkpt lat="-28.354480217355253" lon="114.61973882041327"><ele>135.0</ele><time>2026-04-13T08:06:29Z</time></trkpt><trkpt lat="-28.354551009218184" lon="114.61952542603488"><ele>134.33333333333334</ele><time>2026-04-13T08:06:30Z</time></trkpt><trkpt lat="-28.354606043957375" lon="114.61930212931085"><ele>133.66666666666669</ele><time>2026-04-13T08:06:31Z</time></trkpt><trkpt lat="-28.354650433584425" lon="114.61907476924064"><ele>133.0</ele><time>2026-04-13T08:06:32Z</time></trkpt><trkpt lat="-28.354683688059314" lon="114.61885575158762"><ele>131.33333333333334</ele><time>2026-04-13T08:06:33Z</time></trkpt><trkpt lat="-28.35470952630823" lon="114.61863661078593"><ele>129.66666666666666</ele><time>2026-04-13T08:06:34Z</time></trkpt><trkpt lat="-28.354729442402512" lon="114.61841787917541"><ele>128.0</ele><time>2026-04-13T08:06:35Z</time></trkpt><trkpt lat="-28.35473802792189" lon="114.61817180113641"><ele>128.0</ele><time>2026-04-13T08:06:36Z</time></trkpt><trkpt lat="-28.354736780841673" lon="114.61789609542366"><ele>128.0</ele><time>2026-04-13T08:06:37Z</time></trkpt><trkpt lat="-28.35472189428152" lon="114.61760124859565"><ele>126.0</ele><time>2026-04-13T08:06:38Z</time></trkpt><trkpt lat="-28.354689876530433" lon="114.61730235670397"><ele>124.0</ele><time>2026-04-13T08:06:39Z</time></trkpt><trkpt lat="-28.354648867715298" lon="114.61701481626865"><ele>123.0</ele><time>2026-04-13T08:06:40Z</time></trkpt><trkpt lat="-28.35460690138873" lon="114.61673488579787"><ele>122.0</ele><time>2026-04-13T08:06:41Z</time></trkpt><trkpt lat="-28.354564706846105" lon="114.61645582626858"><ele>122.0</ele><time>2026-04-13T08:06:42Z</time></trkpt><trkpt lat="-28.354528602812795" lon="114.61617572606059"><ele>122.0</ele><time>2026-04-13T08:06:43Z</time></trkpt><trkpt lat="-28.35450376658917" lon="114.61588764920344"><ele>120.0</ele><time>2026-04-13T08:06:44Z</time></trkpt><trkpt lat="-28.354506533939254" lon="114.61560275863181"><ele>118.0</ele><time>2026-04-13T08:06:45Z</time></trkpt><trkpt lat="-28.354512484861857" lon="114.61531310381024"><ele>117.5</ele><time>2026-04-13T08:06:46Z</time></trkpt><trkpt lat="-28.354557563317783" lon="114.61502437334741"><ele>117.0</ele><time>2026-04-13T08:06:47Z</time></trkpt><trkpt lat="-28.354617878131876" lon="114.61474955656541"><ele>116.5</ele><time>2026-04-13T08:06:48Z</time></trkpt><trkpt lat="-28.35469684957546" lon="114.61448290438518"><ele>116.0</ele><time>2026-04-13T08:06:49Z</time></trkpt><trkpt lat="-28.3547936041643" lon="114.61421863253908"><ele>115.5</ele><time>2026-04-13T08:06:50Z</time></trkpt><trkpt lat="-28.354905639946445" lon="114.61395901656628"><ele>115.0</ele><time>2026-04-13T08:06:51Z</time></trkpt><trkpt lat="-28.3550321961871" lon="114.61372147453716"><ele>114.5</ele><time>2026-04-13T08:06:52Z</time></trkpt><trkpt lat="-28.35518061683626" lon="114.6134921471655"><ele>114.0</ele><time>2026-04-13T08:06:53Z</time></trkpt><trkpt lat="-28.355345681296672" lon="114.61326644908576"><ele>114.0</ele><time>2026-04-13T08:06:54Z</time></trkpt><trkpt lat="-28.355515661309706" lon="114.61304893257136"><ele>114.0</ele><time>2026-04-13T08:06:55Z</time></trkpt><trkpt lat="-28.355851339723806" lon="114.61261498031148"><ele>113.5</ele><time>2026-04-13T08:06:57Z</time></trkpt><trkpt lat="-28.356010976171433" lon="114.61240012130531"><ele>113.0</ele><time>2026-04-13T08:06:58Z</time></trkpt><trkpt lat="-28.356168863400853" lon="114.61218356522592"><ele>113.5</ele><time>2026-04-13T08:06:59Z</time></trkpt><trkpt lat="-28.356323768066815" lon="114.61197100579892"><ele>114.0</ele><time>2026-04-13T08:07:00Z</time></trkpt><trkpt lat="-28.356488456734446" lon="114.61177648150056"><ele>114.0</ele><time>2026-04-13T08:07:01Z</time></trkpt><trkpt lat="-28.356625953445473" lon="114.61156899112976"><ele>114.0</ele><time>2026-04-13T08:07:02Z</time></trkpt><trkpt lat="-28.356765614454556" lon="114.6113963150409"><ele>114.0</ele><time>2026-04-13T08:07:03Z</time></trkpt><trkpt lat="-28.35690907666407" lon="114.6112298636637"><ele>114.66666666666666</ele><time>2026-04-13T08:07:04Z</time></trkpt><trkpt lat="-28.357063454342345" lon="114.61106823946255"><ele>115.33333333333333</ele><time>2026-04-13T08:07:05Z</time></trkpt><trkpt lat="-28.357234560712623" lon="114.61091360421429"><ele>116.0</ele><time>2026-04-13T08:07:06Z</time></trkpt><trkpt lat="-28.357422812084646" lon="114.61076401568977"><ele>114.0</ele><time>2026-04-13T08:07:07Z</time></trkpt><trkpt lat="-28.357623172075634" lon="114.61062811033548"><ele>112.0</ele><time>2026-04-13T08:07:08Z</time></trkpt><trkpt lat="-28.357829379439995" lon="114.61050572270676"><ele>110.5</ele><time>2026-04-13T08:07:09Z</time></trkpt><trkpt lat="-28.358043439123858" lon="114.61038960841262"><ele>109.0</ele><time>2026-04-13T08:07:10Z</time></trkpt><trkpt lat="-28.358260533215557" lon="114.6102723686677"><ele>108.5</ele><time>2026-04-13T08:07:11Z</time></trkpt><trkpt lat="-28.358477565131583" lon="114.61015596506071"><ele>108.0</ele><time>2026-04-13T08:07:12Z</time></trkpt><trkpt lat="-28.358696935745392" lon="114.61003859725601"><ele>106.0</ele><time>2026-04-13T08:07:13Z</time></trkpt><trkpt lat="-28.358915268613796" lon="114.60992007566092"><ele>104.0</ele><time>2026-04-13T08:07:14Z</time></trkpt><trkpt lat="-28.359135424588448" lon="114.60980460772322"><ele>104.0</ele><time>2026-04-13T08:07:15Z</time></trkpt><trkpt lat="-28.359355075591605" lon="114.60968885111599"><ele>104.0</ele><time>2026-04-13T08:07:16Z</time></trkpt><trkpt lat="-28.35957021857092" lon="114.60957323440292"><ele>104.5</ele><time>2026-04-13T08:07:17Z</time></trkpt><trkpt lat="-28.359775593865454" lon="114.60945089009243"><ele>105.0</ele><time>2026-04-13T08:07:18Z</time></trkpt><trkpt lat="-28.35996981974328" lon="114.60931759632508"><ele>105.0</ele><time>2026-04-13T08:07:19Z</time></trkpt><trkpt lat="-28.36016314457277" lon="114.60916502246876"><ele>105.0</ele><time>2026-04-13T08:07:20Z</time></trkpt><trkpt lat="-28.360349540264444" lon="114.60900257364518"><ele>105.0</ele><time>2026-04-13T08:07:21Z</time></trkpt><trkpt lat="-28.36052799029092" lon="114.6088261572068"><ele>105.0</ele><time>2026-04-13T08:07:22Z</time></trkpt><trkpt lat="-28.36070592677914" lon="114.60863447476872"><ele>103.0</ele><time>2026-04-13T08:07:23Z</time></trkpt><trkpt lat="-28.36087780889311" lon="114.60843149399773"><ele>101.0</ele><time>2026-04-13T08:07:24Z</time></trkpt><trkpt lat="-28.361034165982765" lon="114.6082095235858"><ele>101.0</ele><time>2026-04-13T08:07:25Z</time></trkpt><trkpt lat="-28.361179720789266" lon="114.6079665525873"><ele>101.0</ele><time>2026-04-13T08:07:26Z</time></trkpt><trkpt lat="-28.36131929558219" lon="114.6077178539991"><ele>100.0</ele><time>2026-04-13T08:07:27Z</time></trkpt><trkpt lat="-28.361448024943247" lon="114.60745867510519"><ele>99.0</ele><time>2026-04-13T08:07:28Z</time></trkpt><trkpt lat="-28.36156202897375" lon="114.60718006247433"><ele>97.0</ele><time>2026-04-13T08:07:29Z</time></trkpt><trkpt lat="-28.361664724487788" lon="114.60687981163272"><ele>95.0</ele><time>2026-04-13T08:07:30Z</time></trkpt><trkpt lat="-28.361749802127925" lon="114.60657184050534"><ele>95.0</ele><time>2026-04-13T08:07:31Z</time></trkpt><trkpt lat="-28.361813187240422" lon="114.60626066513463"><ele>95.0</ele><time>2026-04-13T08:07:32Z</time></trkpt><trkpt lat="-28.361854085641582" lon="114.60594450612936"><ele>93.0</ele><time>2026-04-13T08:07:33Z</time></trkpt><trkpt lat="-28.361873373789397" lon="114.60563197901918"><ele>91.0</ele><time>2026-04-13T08:07:34Z</time></trkpt><trkpt lat="-28.361880532231734" lon="114.60532209932926"><ele>90.5</ele><time>2026-04-13T08:07:35Z</time></trkpt><trkpt lat="-28.361880355721794" lon="114.60501641038495"><ele>90.0</ele><time>2026-04-13T08:07:36Z</time></trkpt><trkpt lat="-28.361877644552358" lon="114.60471557606462"><ele>90.5</ele><time>2026-04-13T08:07:37Z</time></trkpt><trkpt lat="-28.361873903492732" lon="114.60441471180394"><ele>91.0</ele><time>2026-04-13T08:07:38Z</time></trkpt><trkpt lat="-28.361872332514785" lon="114.60411775730569"><ele>91.0</ele><time>2026-04-13T08:07:39Z</time></trkpt><trkpt lat="-28.361872484792908" lon="114.60382323049747"><ele>91.0</ele><time>2026-04-13T08:07:40Z</time></trkpt><trkpt lat="-28.361874471995765" lon="114.603530611433"><ele>92.0</ele><time>2026-04-13T08:07:41Z</time></trkpt><trkpt lat="-28.361875343791567" lon="114.60323784315672"><ele>93.0</ele><time>2026-04-13T08:07:42Z</time></trkpt><trkpt lat="-28.361876151930623" lon="114.60295082392446"><ele>90.5</ele><time>2026-04-13T08:07:43Z</time></trkpt><trkpt lat="-28.361882198447717" lon="114.60266329649407"><ele>88.0</ele><time>2026-04-13T08:07:44Z</time></trkpt><trkpt lat="-28.36188524071549" lon="114.60237148100654"><ele>88.0</ele><time>2026-04-13T08:07:45Z</time></trkpt><trkpt lat="-28.3618828251917" lon="114.60207932140787"><ele>88.0</ele><time>2026-04-13T08:07:46Z</time></trkpt><trkpt lat="-28.361881288585348" lon="114.60179083797853"><ele>87.0</ele><time>2026-04-13T08:07:47Z</time></trkpt><trkpt lat="-28.361880909050814" lon="114.60149887293537"><ele>86.0</ele><time>2026-04-13T08:07:48Z</time></trkpt><trkpt lat="-28.361881357599323" lon="114.60120677240796"><ele>83.5</ele><time>2026-04-13T08:07:49Z</time></trkpt><trkpt lat="-28.361881924440333" lon="114.60091008320795"><ele>81.0</ele><time>2026-04-13T08:07:50Z</time></trkpt><trkpt lat="-28.3618796803959" lon="114.60060805516413"><ele>81.5</ele><time>2026-04-13T08:07:51Z</time></trkpt><trkpt lat="-28.361878323180832" lon="114.60030567160571"><ele>82.0</ele><time>2026-04-13T08:07:52Z</time></trkpt><trkpt lat="-28.36187237112336" lon="114.60000281105992"><ele>82.0</ele><time>2026-04-13T08:07:53Z</time></trkpt><trkpt lat="-28.361867226231574" lon="114.59970443239091"><ele>82.0</ele><time>2026-04-13T08:07:54Z</time></trkpt><trkpt lat="-28.361857649160097" lon="114.59940501044001"><ele>81.5</ele><time>2026-04-13T08:07:55Z</time></trkpt><trkpt lat="-28.36183588121712" lon="114.59910091278792"><ele>81.0</ele><time>2026-04-13T08:07:56Z</time></trkpt><trkpt lat="-28.361796959910475" lon="114.5987950367073"><ele>82.0</ele><time>2026-04-13T08:07:57Z</time></trkpt><trkpt lat="-28.361746370959178" lon="114.59848516369873"><ele>83.0</ele><time>2026-04-13T08:07:58Z</time></trkpt><trkpt lat="-28.361686228544507" lon="114.59817058198534"><ele>83.0</ele><time>2026-04-13T08:07:59Z</time></trkpt><trkpt lat="-28.361614173772814" lon="114.59785941419592"><ele>83.0</ele><time>2026-04-13T08:08:00Z</time></trkpt><trkpt lat="-28.36153112170814" lon="114.59756144830943"><ele>83.5</ele><time>2026-04-13T08:08:01Z</time></trkpt><trkpt lat="-28.36143921735165" lon="114.59727399697077"><ele>84.0</ele><time>2026-04-13T08:08:02Z</time></trkpt><trkpt lat="-28.3613415417253" lon="114.59699846314628"><ele>84.5</ele><time>2026-04-13T08:08:03Z</time></trkpt><trkpt lat="-28.361234886362272" lon="114.5967385291199"><ele>85.0</ele><time>2026-04-13T08:08:04Z</time></trkpt><trkpt lat="-28.361120110067617" lon="114.59648154716767"><ele>85.0</ele><time>2026-04-13T08:08:05Z</time></trkpt><trkpt lat="-28.360998705193996" lon="114.59622371379278"><ele>85.0</ele><time>2026-04-13T08:08:06Z</time></trkpt><trkpt lat="-28.360875601894676" lon="114.59596253725903"><ele>84.0</ele><time>2026-04-13T08:08:07Z</time></trkpt><trkpt lat="-28.3607551924503" lon="114.59569499162485"><ele>83.0</ele><time>2026-04-13T08:08:08Z</time></trkpt><trkpt lat="-28.360636737620705" lon="114.595427583356"><ele>80.0</ele><time>2026-04-13T08:08:09Z</time></trkpt><trkpt lat="-28.36051895404431" lon="114.59516235011317"><ele>77.0</ele><time>2026-04-13T08:08:10Z</time></trkpt><trkpt lat="-28.36040441510948" lon="114.59490475046674"><ele>77.0</ele><time>2026-04-13T08:08:11Z</time></trkpt><trkpt lat="-28.360284961300113" lon="114.59466649701787"><ele>77.0</ele><time>2026-04-13T08:08:12Z</time></trkpt><trkpt lat="-28.360142701215164" lon="114.59443408960182"><ele>77.0</ele><time>2026-04-13T08:08:13Z</time></trkpt><trkpt lat="-28.359979138629498" lon="114.59421078429092"><ele>77.0</ele><time>2026-04-13T08:08:14Z</time></trkpt><trkpt lat="-28.35980156914533" lon="114.5939933841357"><ele>76.5</ele><time>2026-04-13T08:08:15Z</time></trkpt><trkpt lat="-28.359616779310514" lon="114.5937917915763"><ele>76.0</ele><time>2026-04-13T08:08:16Z</time></trkpt><trkpt lat="-28.359447831369742" lon="114.59357211877663"><ele>76.0</ele><time>2026-04-13T08:08:17Z</time></trkpt><trkpt lat="-28.35927119771162" lon="114.59336125658064"><ele>76.0</ele><time>2026-04-13T08:08:18Z</time></trkpt><trkpt lat="-28.359096120894243" lon="114.5931519583874"><ele>76.0</ele><time>2026-04-13T08:08:19Z</time></trkpt><trkpt lat="-28.358915247397004" lon="114.59294521167558"><ele>76.0</ele><time>2026-04-13T08:08:20Z</time></trkpt><trkpt lat="-28.358735754061602" lon="114.59274696245409"><ele>74.5</ele><time>2026-04-13T08:08:21Z</time></trkpt><trkpt lat="-28.358546158375514" lon="114.59256478546101"><ele>73.0</ele><time>2026-04-13T08:08:22Z</time></trkpt><trkpt lat="-28.35836236670591" lon="114.59237585468077"><ele>73.0</ele><time>2026-04-13T08:08:23Z</time></trkpt><trkpt lat="-28.358176189642876" lon="114.59217995837075"><ele>73.0</ele><time>2026-04-13T08:08:24Z</time></trkpt><trkpt lat="-28.35797116549043" lon="114.59200476201312"><ele>75.5</ele><time>2026-04-13T08:08:25Z</time></trkpt><trkpt lat="-28.357758886206984" lon="114.59182900188051"><ele>78.0</ele><time>2026-04-13T08:08:26Z</time></trkpt><trkpt lat="-28.35754197805146" lon="114.59165526603394"><ele>78.0</ele><time>2026-04-13T08:08:27Z</time></trkpt><trkpt lat="-28.357324870219767" lon="114.59148156636304"><ele>78.0</ele><time>2026-04-13T08:08:28Z</time></trkpt><trkpt lat="-28.357107478782876" lon="114.59130800101742"><ele>81.5</ele><time>2026-04-13T08:08:29Z</time></trkpt><trkpt lat="-28.35688939599045" lon="114.59113385198388"><ele>85.0</ele><time>2026-04-13T08:08:30Z</time></trkpt><trkpt lat="-28.356667234409194" lon="114.5909556698396"><ele>85.0</ele><time>2026-04-13T08:08:31Z</time></trkpt><trkpt lat="-28.356462320778014" lon="114.59079126667238"><ele>85.0</ele><time>2026-04-13T08:08:32Z</time></trkpt><trkpt lat="-28.356273730042854" lon="114.59064006091997"><ele>87.0</ele><time>2026-04-13T08:08:33Z</time></trkpt><trkpt lat="-28.356079999764532" lon="114.59048442061331"><ele>89.0</ele><time>2026-04-13T08:08:34Z</time></trkpt><trkpt lat="-28.355888386305427" lon="114.59033296357553"><ele>91.0</ele><time>2026-04-13T08:08:35Z</time></trkpt><trkpt lat="-28.355701640941373" lon="114.59018468305517"><ele>93.0</ele><time>2026-04-13T08:08:36Z</time></trkpt><trkpt lat="-28.35551439455139" lon="114.59003517673531"><ele>93.0</ele><time>2026-04-13T08:08:37Z</time></trkpt><trkpt lat="-28.355320481640216" lon="114.58987932846664"><ele>93.0</ele><time>2026-04-13T08:08:38Z</time></trkpt><trkpt lat="-28.355124144070967" lon="114.58972089506337"><ele>93.0</ele><time>2026-04-13T08:08:39Z</time></trkpt><trkpt lat="-28.354921284904755" lon="114.58955706518405"><ele>93.0</ele><time>2026-04-13T08:08:40Z</time></trkpt><trkpt lat="-28.35469990157447" lon="114.5893780720911"><ele>90.5</ele><time>2026-04-13T08:08:41Z</time></trkpt><trkpt lat="-28.35446133075808" lon="114.5891858285588"><ele>88.0</ele><time>2026-04-13T08:08:42Z</time></trkpt><trkpt lat="-28.35421440255578" lon="114.58898731748756"><ele>88.0</ele><time>2026-04-13T08:08:43Z</time></trkpt><trkpt lat="-28.353957204065342" lon="114.5887822554879"><ele>88.0</ele><time>2026-04-13T08:08:44Z</time></trkpt><trkpt lat="-28.353697861675688" lon="114.58857903767165"><ele>86.5</ele><time>2026-04-13T08:08:45Z</time></trkpt><trkpt lat="-28.353439586945374" lon="114.58837895156915"><ele>85.0</ele><time>2026-04-13T08:08:46Z</time></trkpt><trkpt lat="-28.35318020615581" lon="114.58818657960389"><ele>85.0</ele><time>2026-04-13T08:08:47Z</time></trkpt><trkpt lat="-28.3529124679803" lon="114.58800752132741"><ele>85.0</ele><time>2026-04-13T08:08:48Z</time></trkpt><trkpt lat="-28.352637517592026" lon="114.58783763701696"><ele>83.0</ele><time>2026-04-13T08:08:49Z</time></trkpt><trkpt lat="-28.35236727146347" lon="114.58767185915178"><ele>81.0</ele><time>2026-04-13T08:08:50Z</time></trkpt><trkpt lat="-28.352100391379956" lon="114.58751009210961"><ele>81.0</ele><time>2026-04-13T08:08:51Z</time></trkpt><trkpt lat="-28.351847709851818" lon="114.58735640498037"><ele>81.0</ele><time>2026-04-13T08:08:52Z</time></trkpt><trkpt lat="-28.35159852644459" lon="114.58719779394048"><ele>81.5</ele><time>2026-04-13T08:08:53Z</time></trkpt><trkpt lat="-28.35136038541493" lon="114.58702427283876"><ele>82.0</ele><time>2026-04-13T08:08:54Z</time></trkpt><trkpt lat="-28.35113069310211" lon="114.58683844082618"><ele>82.0</ele><time>2026-04-13T08:08:55Z</time></trkpt><trkpt lat="-28.350913120006318" lon="114.58663735808489"><ele>82.0</ele><time>2026-04-13T08:08:56Z</time></trkpt><trkpt lat="-28.35070384601217" lon="114.58642595015588"><ele>81.5</ele><time>2026-04-13T08:08:57Z</time></trkpt><trkpt lat="-28.350497416875793" lon="114.5862128845941"><ele>81.0</ele><time>2026-04-13T08:08:58Z</time></trkpt><trkpt lat="-28.350286620970273" lon="114.58599838454577"><ele>81.0</ele><time>2026-04-13T08:08:59Z</time></trkpt><trkpt lat="-28.35007488854352" lon="114.58578079897183"><ele>81.0</ele><time>2026-04-13T08:09:00Z</time></trkpt><trkpt lat="-28.349859797964623" lon="114.5855600954235"><ele>81.0</ele><time>2026-04-13T08:09:01Z</time></trkpt><trkpt lat="-28.349646637973038" lon="114.58534136367317"><ele>81.0</ele><time>2026-04-13T08:09:02Z</time></trkpt><trkpt lat="-28.34943577528449" lon="114.58512519733281"><ele>81.0</ele><time>2026-04-13T08:09:03Z</time></trkpt><trkpt lat="-28.349230541979043" lon="114.58491377835999"><ele>81.0</ele><time>2026-04-13T08:09:04Z</time></trkpt><trkpt lat="-28.34903450920719" lon="114.5847112297262"><ele>80.5</ele><time>2026-04-13T08:09:05Z</time></trkpt><trkpt lat="-28.34884624270217" lon="114.58451765713563"><ele>80.0</ele><time>2026-04-13T08:09:06Z</time></trkpt><trkpt lat="-28.348667390962465" lon="114.58432935282958"><ele>80.0</ele><time>2026-04-13T08:09:07Z</time></trkpt><trkpt lat="-28.34850429983331" lon="114.58413424573378"><ele>80.0</ele><time>2026-04-13T08:09:08Z</time></trkpt><trkpt lat="-28.348354641392945" lon="114.58392274700773"><ele>80.0</ele><time>2026-04-13T08:09:09Z</time></trkpt><trkpt lat="-28.348219002035854" lon="114.58369555457524"><ele>80.0</ele><time>2026-04-13T08:09:10Z</time></trkpt><trkpt lat="-28.348089965613656" lon="114.58345436416899"><ele>81.0</ele><time>2026-04-13T08:09:11Z</time></trkpt><trkpt lat="-28.347982362537493" lon="114.58320105086071"><ele>82.0</ele><time>2026-04-13T08:09:12Z</time></trkpt><trkpt lat="-28.347888509120462" lon="114.58293677785679"><ele>79.5</ele><time>2026-04-13T08:09:13Z</time></trkpt><trkpt lat="-28.347812253849952" lon="114.5826656556039"><ele>77.0</ele><time>2026-04-13T08:09:14Z</time></trkpt><trkpt lat="-28.347755222728583" lon="114.5823933595428"><ele>77.0</ele><time>2026-04-13T08:09:15Z</time></trkpt><trkpt lat="-28.347717900995914" lon="114.58211590658254"><ele>77.0</ele><time>2026-04-13T08:09:16Z</time></trkpt><trkpt lat="-28.347700472338442" lon="114.581831149294"><ele>72.0</ele><time>2026-04-13T08:09:17Z</time></trkpt><trkpt lat="-28.34769486011621" lon="114.58154296544201"><ele>67.0</ele><time>2026-04-13T08:09:18Z</time></trkpt><trkpt lat="-28.347690785674406" lon="114.58124791602252"><ele>66.0</ele><time>2026-04-13T08:09:19Z</time></trkpt><trkpt lat="-28.34767166310945" lon="114.58095360457602"><ele>65.0</ele><time>2026-04-13T08:09:20Z</time></trkpt><trkpt lat="-28.347681603828" lon="114.58035958841353"><ele>65.0</ele><time>2026-04-13T08:09:22Z</time></trkpt><trkpt lat="-28.34767891855866" lon="114.58006092244665"><ele>65.0</ele><time>2026-04-13T08:09:23Z</time></trkpt><trkpt lat="-28.347675959500496" lon="114.5797707674675"><ele>64.5</ele><time>2026-04-13T08:09:24Z</time></trkpt><trkpt lat="-28.34765920296789" lon="114.57947306274691"><ele>64.0</ele><time>2026-04-13T08:09:25Z</time></trkpt><trkpt lat="-28.347660645923348" lon="114.57917544987251"><ele>64.0</ele><time>2026-04-13T08:09:26Z</time></trkpt><trkpt lat="-28.34765685398738" lon="114.57888279942432"><ele>64.0</ele><time>2026-04-13T08:09:27Z</time></trkpt><trkpt lat="-28.347653985833652" lon="114.57859259956554"><ele>64.5</ele><time>2026-04-13T08:09:28Z</time></trkpt><trkpt lat="-28.347648384099667" lon="114.57830153690179"><ele>65.0</ele><time>2026-04-13T08:09:29Z</time></trkpt><trkpt lat="-28.34764373016896" lon="114.578008600159"><ele>64.5</ele><time>2026-04-13T08:09:30Z</time></trkpt><trkpt lat="-28.347640331501836" lon="114.57771633555136"><ele>64.0</ele><time>2026-04-13T08:09:31Z</time></trkpt><trkpt lat="-28.347634848071177" lon="114.57742541378855"><ele>64.0</ele><time>2026-04-13T08:09:32Z</time></trkpt><trkpt lat="-28.347647966341107" lon="114.57713968738055"><ele>64.0</ele><time>2026-04-13T08:09:33Z</time></trkpt><trkpt lat="-28.347645073641196" lon="114.57686288353653"><ele>62.5</ele><time>2026-04-13T08:09:34Z</time></trkpt><trkpt lat="-28.34764328186153" lon="114.57658548804048"><ele>61.0</ele><time>2026-04-13T08:09:35Z</time></trkpt><trkpt lat="-28.347641494856436" lon="114.57630883763115"><ele>62.5</ele><time>2026-04-13T08:09:36Z</time></trkpt><trkpt lat="-28.34762390042418" lon="114.57602344140007"><ele>64.0</ele><time>2026-04-13T08:09:37Z</time></trkpt><trkpt lat="-28.34762128345439" lon="114.57574031897093"><ele>64.0</ele><time>2026-04-13T08:09:38Z</time></trkpt><trkpt lat="-28.347615020897916" lon="114.57545413113387"><ele>64.0</ele><time>2026-04-13T08:09:39Z</time></trkpt><trkpt lat="-28.34760512050946" lon="114.57517033369547"><ele>64.0</ele><time>2026-04-13T08:09:40Z</time></trkpt><trkpt lat="-28.34759475868694" lon="114.57488863406205"><ele>64.0</ele><time>2026-04-13T08:09:41Z</time></trkpt><trkpt lat="-28.347594245675413" lon="114.57460689120067"><ele>65.0</ele><time>2026-04-13T08:09:42Z</time></trkpt><trkpt lat="-28.347596105884595" lon="114.5743295505287"><ele>66.0</ele><time>2026-04-13T08:09:43Z</time></trkpt><trkpt lat="-28.34759567635431" lon="114.5740528902833"><ele>66.0</ele><time>2026-04-13T08:09:44Z</time></trkpt><trkpt lat="-28.347592055955772" lon="114.57378590016755"><ele>66.0</ele><time>2026-04-13T08:09:45Z</time></trkpt><trkpt lat="-28.34757850327679" lon="114.57352089201085"><ele>68.0</ele><time>2026-04-13T08:09:46Z</time></trkpt><trkpt lat="-28.34755269367178" lon="114.57325503152337"><ele>70.0</ele><time>2026-04-13T08:09:47Z</time></trkpt><trkpt lat="-28.34750718066156" lon="114.57299005751425"><ele>71.5</ele><time>2026-04-13T08:09:48Z</time></trkpt><trkpt lat="-28.347443221186506" lon="114.57272753418872"><ele>73.0</ele><time>2026-04-13T08:09:49Z</time></trkpt><trkpt lat="-28.34736494057503" lon="114.57247491650193"><ele>73.0</ele><time>2026-04-13T08:09:50Z</time></trkpt><trkpt lat="-28.347265449669663" lon="114.57222524412809"><ele>73.0</ele><time>2026-04-13T08:09:51Z</time></trkpt><trkpt lat="-28.347145487055275" lon="114.57197636620758"><ele>74.5</ele><time>2026-04-13T08:09:52Z</time></trkpt><trkpt lat="-28.347007214544483" lon="114.57173098366111"><ele>76.0</ele><time>2026-04-13T08:09:53Z</time></trkpt><trkpt lat="-28.346854789696515" lon="114.57149105481841"><ele>76.0</ele><time>2026-04-13T08:09:54Z</time></trkpt><trkpt lat="-28.346687881917525" lon="114.57126151938749"><ele>76.0</ele><time>2026-04-13T08:09:55Z</time></trkpt><trkpt lat="-28.34650313429059" lon="114.5710444757585"><ele>78.5</ele><time>2026-04-13T08:09:56Z</time></trkpt><trkpt lat="-28.346301465400803" lon="114.57084114206297"><ele>81.0</ele><time>2026-04-13T08:09:57Z</time></trkpt><trkpt lat="-28.346082748693412" lon="114.57065672930368"><ele>81.0</ele><time>2026-04-13T08:09:58Z</time></trkpt><trkpt lat="-28.345858809911867" lon="114.57047333380659"><ele>81.0</ele><time>2026-04-13T08:09:59Z</time></trkpt><trkpt lat="-28.34563897710841" lon="114.57028405370488"><ele>82.0</ele><time>2026-04-13T08:10:00Z</time></trkpt><trkpt lat="-28.345416180472473" lon="114.57008183171651"><ele>83.0</ele><time>2026-04-13T08:10:01Z</time></trkpt><trkpt lat="-28.34519448230023" lon="114.56987856870478"><ele>83.0</ele><time>2026-04-13T08:10:02Z</time></trkpt><trkpt lat="-28.344973620069684" lon="114.56967597000033"><ele>83.0</ele><time>2026-04-13T08:10:03Z</time></trkpt><trkpt lat="-28.344754784110904" lon="114.56947668239131"><ele>84.5</ele><time>2026-04-13T08:10:04Z</time></trkpt><trkpt lat="-28.344538473959044" lon="114.56928294731418"><ele>86.0</ele><time>2026-04-13T08:10:05Z</time></trkpt><trkpt lat="-28.344322010897024" lon="114.56908716152651"><ele>86.0</ele><time>2026-04-13T08:10:06Z</time></trkpt><trkpt lat="-28.34410134694269" lon="114.56888529548857"><ele>86.0</ele><time>2026-04-13T08:10:07Z</time></trkpt><trkpt lat="-28.343876271483886" lon="114.56868307654467"><ele>87.5</ele><time>2026-04-13T08:10:08Z</time></trkpt><trkpt lat="-28.343649165124035" lon="114.5684779724315"><ele>89.0</ele><time>2026-04-13T08:10:09Z</time></trkpt><trkpt lat="-28.343420826688355" lon="114.56827233802687"><ele>89.0</ele><time>2026-04-13T08:10:10Z</time></trkpt><trkpt lat="-28.34319247367612" lon="114.56806787206537"><ele>89.0</ele><time>2026-04-13T08:10:11Z</time></trkpt><trkpt lat="-28.342965103870032" lon="114.56786246165302"><ele>89.0</ele><time>2026-04-13T08:10:12Z</time></trkpt><trkpt lat="-28.342735942643994" lon="114.56765705295362"><ele>89.0</ele><time>2026-04-13T08:10:13Z</time></trkpt><trkpt lat="-28.342505989232826" lon="114.56745229059173"><ele>89.0</ele><time>2026-04-13T08:10:14Z</time></trkpt><trkpt lat="-28.342276625766196" lon="114.56724854563078"><ele>89.0</ele><time>2026-04-13T08:10:15Z</time></trkpt><trkpt lat="-28.342049872378485" lon="114.56704451621532"><ele>90.0</ele><time>2026-04-13T08:10:16Z</time></trkpt><trkpt lat="-28.341822534980118" lon="114.56683440532629"><ele>91.0</ele><time>2026-04-13T08:10:17Z</time></trkpt><trkpt lat="-28.341596050162625" lon="114.5666283419076"><ele>90.0</ele><time>2026-04-13T08:10:18Z</time></trkpt><trkpt lat="-28.341368586445" lon="114.5664220254735"><ele>89.0</ele><time>2026-04-13T08:10:19Z</time></trkpt><trkpt lat="-28.341140974160563" lon="114.56621947033408"><ele>88.0</ele><time>2026-04-13T08:10:20Z</time></trkpt><trkpt lat="-28.340914530174082" lon="114.56601728216683"><ele>87.0</ele><time>2026-04-13T08:10:21Z</time></trkpt><trkpt lat="-28.34068888492117" lon="114.5658115039036"><ele>92.5</ele><time>2026-04-13T08:10:22Z</time></trkpt><trkpt lat="-28.34046381576359" lon="114.5656076393542"><ele>98.0</ele><time>2026-04-13T08:10:23Z</time></trkpt><trkpt lat="-28.34023815335658" lon="114.56540365503207"><ele>96.5</ele><time>2026-04-13T08:10:24Z</time></trkpt><trkpt lat="-28.340007452264036" lon="114.56519261096835"><ele>95.0</ele><time>2026-04-13T08:10:25Z</time></trkpt><trkpt lat="-28.339773765431957" lon="114.56497872666256"><ele>94.5</ele><time>2026-04-13T08:10:26Z</time></trkpt><trkpt lat="-28.339536503319476" lon="114.56476507535672"><ele>94.0</ele><time>2026-04-13T08:10:27Z</time></trkpt><trkpt lat="-28.339297018645336" lon="114.56455119587605"><ele>95.0</ele><time>2026-04-13T08:10:28Z</time></trkpt><trkpt lat="-28.33905673309055" lon="114.56433883984556"><ele>96.0</ele><time>2026-04-13T08:10:29Z</time></trkpt><trkpt lat="-28.33881916905668" lon="114.56412677561757"><ele>96.5</ele><time>2026-04-13T08:10:30Z</time></trkpt><trkpt lat="-28.338588101135723" lon="114.56392126061851"><ele>97.0</ele><time>2026-04-13T08:10:31Z</time></trkpt><trkpt lat="-28.338356438642567" lon="114.56372081218908"><ele>98.5</ele><time>2026-04-13T08:10:32Z</time></trkpt><trkpt lat="-28.33812377663691" lon="114.56352953701635"><ele>100.0</ele><time>2026-04-13T08:10:33Z</time></trkpt><trkpt lat="-28.337885765022776" lon="114.56335091101926"><ele>100.0</ele><time>2026-04-13T08:10:34Z</time></trkpt><trkpt lat="-28.33764328947272" lon="114.56318984294045"><ele>100.0</ele><time>2026-04-13T08:10:35Z</time></trkpt><trkpt lat="-28.337400913166373" lon="114.56303600601275"><ele>102.0</ele><time>2026-04-13T08:10:36Z</time></trkpt><trkpt lat="-28.337160733323064" lon="114.56288145307646"><ele>104.0</ele><time>2026-04-13T08:10:37Z</time></trkpt><trkpt lat="-28.336924018183616" lon="114.56272385613296"><ele>107.0</ele><time>2026-04-13T08:10:38Z</time></trkpt><trkpt lat="-28.336698008887417" lon="114.56256422200794"><ele>110.0</ele><time>2026-04-13T08:10:39Z</time></trkpt><trkpt lat="-28.33647294985119" lon="114.56241025877203"><ele>110.0</ele><time>2026-04-13T08:10:40Z</time></trkpt><trkpt lat="-28.336254536533115" lon="114.56226377282862"><ele>110.0</ele><time>2026-04-13T08:10:41Z</time></trkpt><trkpt lat="-28.336040093238868" lon="114.562116872695"><ele>113.0</ele><time>2026-04-13T08:10:42Z</time></trkpt><trkpt lat="-28.33582816528198" lon="114.56197132576439"><ele>116.0</ele><time>2026-04-13T08:10:43Z</time></trkpt><trkpt lat="-28.335616225759257" lon="114.56182576555605"><ele>115.0</ele><time>2026-04-13T08:10:44Z</time></trkpt><trkpt lat="-28.335411158958525" lon="114.56165594160738"><ele>114.0</ele><time>2026-04-13T08:10:45Z</time></trkpt><trkpt lat="-28.335187612514165" lon="114.5615044105686"><ele>114.0</ele><time>2026-04-13T08:10:46Z</time></trkpt><trkpt lat="-28.334961009815665" lon="114.56135228137471"><ele>114.0</ele><time>2026-04-13T08:10:47Z</time></trkpt><trkpt lat="-28.33473285151295" lon="114.56119922042684"><ele>119.0</ele><time>2026-04-13T08:10:48Z</time></trkpt><trkpt lat="-28.334505530904504" lon="114.5610461121321"><ele>124.0</ele><time>2026-04-13T08:10:49Z</time></trkpt><trkpt lat="-28.334279665562033" lon="114.5608932141491"><ele>124.0</ele><time>2026-04-13T08:10:50Z</time></trkpt><trkpt lat="-28.334052541367676" lon="114.56073504978872"><ele>124.0</ele><time>2026-04-13T08:10:51Z</time></trkpt><trkpt lat="-28.333829427448613" lon="114.56057427391191"><ele>124.0</ele><time>2026-04-13T08:10:52Z</time></trkpt><trkpt lat="-28.333616799373072" lon="114.56040652199148"><ele>124.0</ele><time>2026-04-13T08:10:53Z</time></trkpt><trkpt lat="-28.333407298647668" lon="114.56022699154504"><ele>124.5</ele><time>2026-04-13T08:10:54Z</time></trkpt><trkpt lat="-28.333201213544747" lon="114.56004254040059"><ele>125.0</ele><time>2026-04-13T08:10:55Z</time></trkpt><trkpt lat="-28.33299269309931" lon="114.55985351791635"><ele>123.0</ele><time>2026-04-13T08:10:56Z</time></trkpt><trkpt lat="-28.33278599502242" lon="114.55966662484146"><ele>121.0</ele><time>2026-04-13T08:10:57Z</time></trkpt><trkpt lat="-28.332575896339623" lon="114.55947979284977"><ele>121.0</ele><time>2026-04-13T08:10:58Z</time></trkpt><trkpt lat="-28.332363546953108" lon="114.55930392688312"><ele>121.0</ele><time>2026-04-13T08:10:59Z</time></trkpt><trkpt lat="-28.332139340910558" lon="114.55914627634036"><ele>120.5</ele><time>2026-04-13T08:11:00Z</time></trkpt><trkpt lat="-28.33190364485062" lon="114.55900200750102"><ele>120.0</ele><time>2026-04-13T08:11:01Z</time></trkpt><trkpt lat="-28.331653470386062" lon="114.55887251111203"><ele>121.0</ele><time>2026-04-13T08:11:02Z</time></trkpt><trkpt lat="-28.331388067004287" lon="114.55876740830017"><ele>122.0</ele><time>2026-04-13T08:11:03Z</time></trkpt><trkpt lat="-28.331132476214684" lon="114.55862938991666"><ele>119.0</ele><time>2026-04-13T08:11:04Z</time></trkpt><trkpt lat="-28.330870670736605" lon="114.55850625826496"><ele>116.0</ele><time>2026-04-13T08:11:05Z</time></trkpt><trkpt lat="-28.330608135051698" lon="114.55838124509806"><ele>116.0</ele><time>2026-04-13T08:11:06Z</time></trkpt><trkpt lat="-28.330355707049367" lon="114.55825157295197"><ele>116.0</ele><time>2026-04-13T08:11:07Z</time></trkpt><trkpt lat="-28.33011162898785" lon="114.55810816196359"><ele>116.0</ele><time>2026-04-13T08:11:08Z</time></trkpt><trkpt lat="-28.32987372815524" lon="114.55795358074151"><ele>116.0</ele><time>2026-04-13T08:11:09Z</time></trkpt><trkpt lat="-28.32963316027634" lon="114.55779399537326"><ele>113.0</ele><time>2026-04-13T08:11:10Z</time></trkpt><trkpt lat="-28.3293894703172" lon="114.55763235468622"><ele>110.0</ele><time>2026-04-13T08:11:11Z</time></trkpt><trkpt lat="-28.32914107287397" lon="114.55748720778371"><ele>110.0</ele><time>2026-04-13T08:11:12Z</time></trkpt><trkpt lat="-28.328900189594545" lon="114.55732838880967"><ele>110.0</ele><time>2026-04-13T08:11:13Z</time></trkpt><trkpt lat="-28.328670520534754" lon="114.55715360590536"><ele>108.0</ele><time>2026-04-13T08:11:14Z</time></trkpt><trkpt lat="-28.32843919636722" lon="114.55699524608957"><ele>106.0</ele><time>2026-04-13T08:11:15Z</time></trkpt><trkpt lat="-28.328214551769484" lon="114.5568298160263"><ele>105.0</ele><time>2026-04-13T08:11:16Z</time></trkpt><trkpt lat="-28.327997458201857" lon="114.55665651520196"><ele>104.0</ele><time>2026-04-13T08:11:17Z</time></trkpt><trkpt lat="-28.327581517315796" lon="114.55630292551352"><ele>103.0</ele><time>2026-04-13T08:11:19Z</time></trkpt><trkpt lat="-28.327376739262068" lon="114.5561263118249"><ele>102.0</ele><time>2026-04-13T08:11:20Z</time></trkpt><trkpt lat="-28.32715883832464" lon="114.5559623601125"><ele>102.0</ele><time>2026-04-13T08:11:21Z</time></trkpt><trkpt lat="-28.326949935715362" lon="114.55577762052114"><ele>102.0</ele><time>2026-04-13T08:11:22Z</time></trkpt><trkpt lat="-28.32673929403594" lon="114.55559617572706"><ele>102.0</ele><time>2026-04-13T08:11:23Z</time></trkpt><trkpt lat="-28.32652749077453" lon="114.55541746352735"><ele>102.0</ele><time>2026-04-13T08:11:24Z</time></trkpt><trkpt lat="-28.32632656865496" lon="114.5552238191764"><ele>102.5</ele><time>2026-04-13T08:11:25Z</time></trkpt><trkpt lat="-28.3261189222642" lon="114.555041231773"><ele>103.0</ele><time>2026-04-13T08:11:26Z</time></trkpt><trkpt lat="-28.325910231552243" lon="114.55486017103354"><ele>103.0</ele><time>2026-04-13T08:11:27Z</time></trkpt><trkpt lat="-28.32570063331795" lon="114.55468165696271"><ele>103.0</ele><time>2026-04-13T08:11:28Z</time></trkpt><trkpt lat="-28.32549150546921" lon="114.55450849097663"><ele>101.0</ele><time>2026-04-13T08:11:29Z</time></trkpt><trkpt lat="-28.32526923379706" lon="114.55434855333164"><ele>99.0</ele><time>2026-04-13T08:11:30Z</time></trkpt><trkpt lat="-28.325046342239773" lon="114.55419052526373"><ele>99.0</ele><time>2026-04-13T08:11:31Z</time></trkpt><trkpt lat="-28.324826073748337" lon="114.55403956028128"><ele>99.0</ele><time>2026-04-13T08:11:32Z</time></trkpt><trkpt lat="-28.324541038289" lon="114.55400444027747"><ele>101.5</ele><time>2026-04-13T08:11:33Z</time></trkpt><trkpt lat="-28.324295060606623" lon="114.55390188712963"><ele>104.0</ele><time>2026-04-13T08:11:34Z</time></trkpt><trkpt lat="-28.32404618392462" lon="114.55379253385554"><ele>100.0</ele><time>2026-04-13T08:11:35Z</time></trkpt><trkpt lat="-28.323801530723347" lon="114.55367824234573"><ele>96.0</ele><time>2026-04-13T08:11:36Z</time></trkpt><trkpt lat="-28.323555188178137" lon="114.55356339126173"><ele>96.0</ele><time>2026-04-13T08:11:37Z</time></trkpt><trkpt lat="-28.323307525852083" lon="114.55345081012793"><ele>96.0</ele><time>2026-04-13T08:11:38Z</time></trkpt><trkpt lat="-28.323059248155282" lon="114.55334032592702"><ele>94.5</ele><time>2026-04-13T08:11:39Z</time></trkpt><trkpt lat="-28.322815408126562" lon="114.55323042447169"><ele>93.0</ele><time>2026-04-13T08:11:40Z</time></trkpt><trkpt lat="-28.322567104742156" lon="114.55312174505046"><ele>93.0</ele><time>2026-04-13T08:11:41Z</time></trkpt><trkpt lat="-28.322323411246416" lon="114.55301208439842"><ele>93.0</ele><time>2026-04-13T08:11:42Z</time></trkpt><trkpt lat="-28.322083747220972" lon="114.55290128609667"><ele>94.5</ele><time>2026-04-13T08:11:43Z</time></trkpt><trkpt lat="-28.321844970909478" lon="114.55279180617188"><ele>96.0</ele><time>2026-04-13T08:11:44Z</time></trkpt><trkpt lat="-28.32161605410527" lon="114.55268030264227"><ele>93.5</ele><time>2026-04-13T08:11:45Z</time></trkpt><trkpt lat="-28.321394036638555" lon="114.55256190951498"><ele>91.0</ele><time>2026-04-13T08:11:46Z</time></trkpt><trkpt lat="-28.3211762864437" lon="114.55242820819491"><ele>91.0</ele><time>2026-04-13T08:11:47Z</time></trkpt><trkpt lat="-28.320963492568566" lon="114.5522770946686"><ele>91.0</ele><time>2026-04-13T08:11:48Z</time></trkpt><trkpt lat="-28.320754026055745" lon="114.55211076199554"><ele>87.0</ele><time>2026-04-13T08:11:49Z</time></trkpt><trkpt lat="-28.320548526656065" lon="114.55193924204086"><ele>83.0</ele><time>2026-04-13T08:11:50Z</time></trkpt><trkpt lat="-28.320346124241773" lon="114.55176549710316"><ele>83.0</ele><time>2026-04-13T08:11:51Z</time></trkpt><trkpt lat="-28.320149240138274" lon="114.5515932426348"><ele>83.0</ele><time>2026-04-13T08:11:52Z</time></trkpt><trkpt lat="-28.319955866131057" lon="114.55142619064581"><ele>83.0</ele><time>2026-04-13T08:11:53Z</time></trkpt><trkpt lat="-28.319770452564903" lon="114.55125642514578"><ele>83.0</ele><time>2026-04-13T08:11:54Z</time></trkpt><trkpt lat="-28.319595682335308" lon="114.55107054668947"><ele>83.0</ele><time>2026-04-13T08:11:55Z</time></trkpt><trkpt lat="-28.319428118519678" lon="114.55086287036833"><ele>83.0</ele><time>2026-04-13T08:11:56Z</time></trkpt><trkpt lat="-28.31927455519618" lon="114.55063850760058"><ele>83.0</ele><time>2026-04-13T08:11:57Z</time></trkpt><trkpt lat="-28.319139157319817" lon="114.55040314767703"><ele>83.0</ele><time>2026-04-13T08:11:58Z</time></trkpt><trkpt lat="-28.319015557693767" lon="114.55015544021713"><ele>79.5</ele><time>2026-04-13T08:11:59Z</time></trkpt><trkpt lat="-28.31889981392172" lon="114.54990125281017"><ele>76.0</ele><time>2026-04-13T08:12:00Z</time></trkpt><trkpt lat="-28.318790433456225" lon="114.5496382270815"><ele>76.0</ele><time>2026-04-13T08:12:01Z</time></trkpt><trkpt lat="-28.31868509108203" lon="114.54937476376887"><ele>76.0</ele><time>2026-04-13T08:12:02Z</time></trkpt><trkpt lat="-28.318469300639812" lon="114.54885472501968"><ele>76.5</ele><time>2026-04-13T08:12:04Z</time></trkpt><trkpt lat="-28.31835889935809" lon="114.54859701296327"><ele>77.0</ele><time>2026-04-13T08:12:05Z</time></trkpt><trkpt lat="-28.318249810174645" lon="114.54834067644701"><ele>77.0</ele><time>2026-04-13T08:12:06Z</time></trkpt><trkpt lat="-28.31814030480417" lon="114.54808078607562"><ele>77.0</ele><time>2026-04-13T08:12:07Z</time></trkpt><trkpt lat="-28.318029942273828" lon="114.54782110188799"><ele>74.5</ele><time>2026-04-13T08:12:08Z</time></trkpt><trkpt lat="-28.317918485720128" lon="114.54755949244685"><ele>72.0</ele><time>2026-04-13T08:12:09Z</time></trkpt><trkpt lat="-28.31780776394252" lon="114.54729883463138"><ele>72.0</ele><time>2026-04-13T08:12:10Z</time></trkpt><trkpt lat="-28.317697944198944" lon="114.54703900344872"><ele>72.0</ele><time>2026-04-13T08:12:11Z</time></trkpt><trkpt lat="-28.317589563446376" lon="114.54677489288383"><ele>72.0</ele><time>2026-04-13T08:12:12Z</time></trkpt><trkpt lat="-28.317484499800834" lon="114.54650699341003"><ele>72.0</ele><time>2026-04-13T08:12:13Z</time></trkpt><trkpt lat="-28.3173838311988" lon="114.54623450434474"><ele>70.0</ele><time>2026-04-13T08:12:14Z</time></trkpt><trkpt lat="-28.317296483467384" lon="114.5459565439746"><ele>68.0</ele><time>2026-04-13T08:12:15Z</time></trkpt><trkpt lat="-28.31721243632953" lon="114.54567242652965"><ele>68.0</ele><time>2026-04-13T08:12:16Z</time></trkpt><trkpt lat="-28.31713247149707" lon="114.54538661944312"><ele>68.0</ele><time>2026-04-13T08:12:17Z</time></trkpt><trkpt lat="-28.31705537848205" lon="114.54509999758557"><ele>65.5</ele><time>2026-04-13T08:12:18Z</time></trkpt><trkpt lat="-28.31698234184722" lon="114.54481965158064"><ele>63.0</ele><time>2026-04-13T08:12:19Z</time></trkpt><trkpt lat="-28.316907337194383" lon="114.54454340457666"><ele>61.5</ele><time>2026-04-13T08:12:20Z</time></trkpt><trkpt lat="-28.31683245937167" lon="114.54426699444566"><ele>60.0</ele><time>2026-04-13T08:12:21Z</time></trkpt><trkpt lat="-28.316752721903228" lon="114.54398999091829"><ele>60.0</ele><time>2026-04-13T08:12:22Z</time></trkpt><trkpt lat="-28.31667512756563" lon="114.54371809016254"><ele>60.0</ele><time>2026-04-13T08:12:23Z</time></trkpt><trkpt lat="-28.31660142043942" lon="114.54344506392842"><ele>62.0</ele><time>2026-04-13T08:12:24Z</time></trkpt><trkpt lat="-28.31652806282747" lon="114.54317554143057"><ele>64.0</ele><time>2026-04-13T08:12:25Z</time></trkpt><trkpt lat="-28.31645349518097" lon="114.5429101724959"><ele>67.0</ele><time>2026-04-13T08:12:26Z</time></trkpt><trkpt lat="-28.316380402134488" lon="114.54264539018573"><ele>70.0</ele><time>2026-04-13T08:12:27Z</time></trkpt><trkpt lat="-28.316314280138595" lon="114.54237437277975"><ele>70.0</ele><time>2026-04-13T08:12:28Z</time></trkpt><trkpt lat="-28.316258675487727" lon="114.54209442298482"><ele>70.0</ele><time>2026-04-13T08:12:29Z</time></trkpt><trkpt lat="-28.316207983518463" lon="114.54181126962725"><ele>68.0</ele><time>2026-04-13T08:12:30Z</time></trkpt><trkpt lat="-28.316162064673616" lon="114.54152761722015"><ele>66.0</ele><time>2026-04-13T08:12:31Z</time></trkpt><trkpt lat="-28.31612375614829" lon="114.54124514966378"><ele>66.5</ele><time>2026-04-13T08:12:32Z</time></trkpt><trkpt lat="-28.316092026471022" lon="114.54096131491201"><ele>67.0</ele><time>2026-04-13T08:12:33Z</time></trkpt><trkpt lat="-28.31606433301546" lon="114.54067702894457"><ele>67.0</ele><time>2026-04-13T08:12:34Z</time></trkpt><trkpt lat="-28.31603426942811" lon="114.54039612419717"><ele>67.0</ele><time>2026-04-13T08:12:35Z</time></trkpt><trkpt lat="-28.315993951175127" lon="114.54011290985095"><ele>66.0</ele><time>2026-04-13T08:12:36Z</time></trkpt><trkpt lat="-28.31594311450861" lon="114.53983114955248"><ele>65.0</ele><time>2026-04-13T08:12:37Z</time></trkpt><trkpt lat="-28.315881416746336" lon="114.53954373049218"><ele>64.0</ele><time>2026-04-13T08:12:38Z</time></trkpt><trkpt lat="-28.31580978214117" lon="114.53926370412056"><ele>63.0</ele><time>2026-04-13T08:12:39Z</time></trkpt><trkpt lat="-28.315736086155972" lon="114.53898906443368"><ele>64.0</ele><time>2026-04-13T08:12:40Z</time></trkpt><trkpt lat="-28.315658070435333" lon="114.53871363152108"><ele>65.0</ele><time>2026-04-13T08:12:41Z</time></trkpt><trkpt lat="-28.31557354951543" lon="114.53844042085805"><ele>66.5</ele><time>2026-04-13T08:12:42Z</time></trkpt><trkpt lat="-28.31551160259942" lon="114.53815976415908"><ele>68.0</ele><time>2026-04-13T08:12:43Z</time></trkpt><trkpt lat="-28.31539881348088" lon="114.53790392152207"><ele>67.0</ele><time>2026-04-13T08:12:44Z</time></trkpt><trkpt lat="-28.31527029693277" lon="114.53765494076063"><ele>66.0</ele><time>2026-04-13T08:12:45Z</time></trkpt><trkpt lat="-28.3151302689341" lon="114.53741032924665"><ele>66.0</ele><time>2026-04-13T08:12:46Z</time></trkpt><trkpt lat="-28.314980500170595" lon="114.53717036291329"><ele>66.0</ele><time>2026-04-13T08:12:47Z</time></trkpt><trkpt lat="-28.314826986652786" lon="114.53692770002873"><ele>67.0</ele><time>2026-04-13T08:12:48Z</time></trkpt><trkpt lat="-28.31467262676622" lon="114.53668507057469"><ele>68.0</ele><time>2026-04-13T08:12:49Z</time></trkpt><trkpt lat="-28.31451661167141" lon="114.53643983939813"><ele>69.5</ele><time>2026-04-13T08:12:50Z</time></trkpt><trkpt lat="-28.314361093014757" lon="114.5361962767726"><ele>71.0</ele><time>2026-04-13T08:12:51Z</time></trkpt><trkpt lat="-28.31420659098275" lon="114.53595636044798"><ele>72.0</ele><time>2026-04-13T08:12:52Z</time></trkpt><trkpt lat="-28.313904079257888" lon="114.5354826302125"><ele>71.5</ele><time>2026-04-13T08:12:54Z</time></trkpt><trkpt lat="-28.31375456412105" lon="114.53524850038788"><ele>71.0</ele><time>2026-04-13T08:12:55Z</time></trkpt><trkpt lat="-28.31360626512673" lon="114.53501702728363"><ele>71.0</ele><time>2026-04-13T08:12:56Z</time></trkpt><trkpt lat="-28.313461633894523" lon="114.5347910179674"><ele>71.0</ele><time>2026-04-13T08:12:57Z</time></trkpt><trkpt lat="-28.313315272327245" lon="114.53456204969488"><ele>71.0</ele><time>2026-04-13T08:12:58Z</time></trkpt><trkpt lat="-28.31317339496722" lon="114.53434009652057"><ele>71.0</ele><time>2026-04-13T08:12:59Z</time></trkpt><trkpt lat="-28.313032886923622" lon="114.53412028551483"><ele>71.5</ele><time>2026-04-13T08:13:00Z</time></trkpt><trkpt lat="-28.312891715569314" lon="114.53389951466585"><ele>72.0</ele><time>2026-04-13T08:13:01Z</time></trkpt><trkpt lat="-28.312753355838865" lon="114.53368327196048"><ele>72.0</ele><time>2026-04-13T08:13:02Z</time></trkpt><trkpt lat="-28.312615007976337" lon="114.53346853220476"><ele>72.0</ele><time>2026-04-13T08:13:03Z</time></trkpt><trkpt lat="-28.31247769859333" lon="114.53325811003641"><ele>72.0</ele><time>2026-04-13T08:13:04Z</time></trkpt><trkpt lat="-28.312338519112416" lon="114.53304769250983"><ele>72.0</ele><time>2026-04-13T08:13:05Z</time></trkpt><trkpt lat="-28.312195933150242" lon="114.53283349862498"><ele>74.0</ele><time>2026-04-13T08:13:06Z</time></trkpt><trkpt lat="-28.312052384628203" lon="114.53261767759862"><ele>76.0</ele><time>2026-04-13T08:13:07Z</time></trkpt><trkpt lat="-28.31190923787248" lon="114.5324021549525"><ele>76.0</ele><time>2026-04-13T08:13:08Z</time></trkpt><trkpt lat="-28.31176620580551" lon="114.53218455640945"><ele>76.0</ele><time>2026-04-13T08:13:09Z</time></trkpt><trkpt lat="-28.311619250354752" lon="114.5319609298966"><ele>76.0</ele><time>2026-04-13T08:13:10Z</time></trkpt><trkpt lat="-28.31147002851758" lon="114.53173440801062"><ele>76.0</ele><time>2026-04-13T08:13:11Z</time></trkpt><trkpt lat="-28.31131855386195" lon="114.53150447028969"><ele>78.5</ele><time>2026-04-13T08:13:12Z</time></trkpt><trkpt lat="-28.31116539264397" lon="114.53127464840072"><ele>81.0</ele><time>2026-04-13T08:13:13Z</time></trkpt><trkpt lat="-28.311008409129396" lon="114.5310390910696"><ele>82.0</ele><time>2026-04-13T08:13:14Z</time></trkpt><trkpt lat="-28.31085072412782" lon="114.53080074016567"><ele>83.0</ele><time>2026-04-13T08:13:15Z</time></trkpt><trkpt lat="-28.31068794279007" lon="114.53055577014305"><ele>84.5</ele><time>2026-04-13T08:13:16Z</time></trkpt><trkpt lat="-28.310524418925194" lon="114.53031006889668"><ele>86.0</ele><time>2026-04-13T08:13:17Z</time></trkpt><trkpt lat="-28.310362817016237" lon="114.53006706554734"><ele>86.0</ele><time>2026-04-13T08:13:18Z</time></trkpt><trkpt lat="-28.310203830164802" lon="114.52982524423783"><ele>86.0</ele><time>2026-04-13T08:13:19Z</time></trkpt><trkpt lat="-28.3100459022735" lon="114.52958468058523"><ele>85.0</ele><time>2026-04-13T08:13:20Z</time></trkpt><trkpt lat="-28.309888978740556" lon="114.52934426431081"><ele>84.0</ele><time>2026-04-13T08:13:21Z</time></trkpt><trkpt lat="-28.30973689317353" lon="114.52910572484417"><ele>86.5</ele><time>2026-04-13T08:13:22Z</time></trkpt><trkpt lat="-28.309590242960674" lon="114.52886117275847"><ele>89.0</ele><time>2026-04-13T08:13:23Z</time></trkpt><trkpt lat="-28.30945327697952" lon="114.52861000210852"><ele>91.0</ele><time>2026-04-13T08:13:24Z</time></trkpt><trkpt lat="-28.30931280832404" lon="114.5283503492738"><ele>93.0</ele><time>2026-04-13T08:13:25Z</time></trkpt><trkpt lat="-28.30916935970112" lon="114.5280873528243"><ele>92.5</ele><time>2026-04-13T08:13:26Z</time></trkpt><trkpt lat="-28.309026638391934" lon="114.52782832130342"><ele>92.0</ele><time>2026-04-13T08:13:27Z</time></trkpt><trkpt lat="-28.308884240166794" lon="114.52756851864729"><ele>94.0</ele><time>2026-04-13T08:13:28Z</time></trkpt><trkpt lat="-28.308742933101346" lon="114.52731233798548"><ele>96.0</ele><time>2026-04-13T08:13:29Z</time></trkpt><trkpt lat="-28.3086019799751" lon="114.52705872464952"><ele>96.0</ele><time>2026-04-13T08:13:30Z</time></trkpt><trkpt lat="-28.308461738933143" lon="114.52680326732835"><ele>96.0</ele><time>2026-04-13T08:13:31Z</time></trkpt><trkpt lat="-28.308322835454177" lon="114.52654688618368"><ele>96.0</ele><time>2026-04-13T08:13:32Z</time></trkpt><trkpt lat="-28.308173110920837" lon="114.5262988062041"><ele>96.0</ele><time>2026-04-13T08:13:33Z</time></trkpt><trkpt lat="-28.30805603546264" lon="114.52603292646388"><ele>98.0</ele><time>2026-04-13T08:13:34Z</time></trkpt><trkpt lat="-28.30792899906527" lon="114.52577629170493"><ele>100.0</ele><time>2026-04-13T08:13:35Z</time></trkpt><trkpt lat="-28.307806202289775" lon="114.5255209369243"><ele>101.5</ele><time>2026-04-13T08:13:36Z</time></trkpt><trkpt lat="-28.30768563548281" lon="114.5252669446964"><ele>103.0</ele><time>2026-04-13T08:13:37Z</time></trkpt><trkpt lat="-28.30756319765052" lon="114.52501018158955"><ele>103.0</ele><time>2026-04-13T08:13:38Z</time></trkpt><trkpt lat="-28.30744113669714" lon="114.52475450556102"><ele>103.0</ele><time>2026-04-13T08:13:39Z</time></trkpt><trkpt lat="-28.307319534873198" lon="114.52449974348437"><ele>105.5</ele><time>2026-04-13T08:13:40Z</time></trkpt><trkpt lat="-28.30720089052535" lon="114.52425010286512"><ele>108.0</ele><time>2026-04-13T08:13:41Z</time></trkpt><trkpt lat="-28.3070832988855" lon="114.52400162534303"><ele>108.0</ele><time>2026-04-13T08:13:42Z</time></trkpt><trkpt lat="-28.306965210984774" lon="114.52375210199729"><ele>108.0</ele><time>2026-04-13T08:13:43Z</time></trkpt><trkpt lat="-28.306847653382466" lon="114.52350369996765"><ele>108.5</ele><time>2026-04-13T08:13:44Z</time></trkpt><trkpt lat="-28.30672555224325" lon="114.52325231751604"><ele>109.0</ele><time>2026-04-13T08:13:45Z</time></trkpt><trkpt lat="-28.306544202571306" lon="114.52303436926063"><ele>110.0</ele><time>2026-04-13T08:13:46Z</time></trkpt><trkpt lat="-28.306400983457255" lon="114.52279043104704"><ele>111.0</ele><time>2026-04-13T08:13:47Z</time></trkpt><trkpt lat="-28.306246816585293" lon="114.5225447421694"><ele>111.0</ele><time>2026-04-13T08:13:48Z</time></trkpt><trkpt lat="-28.306088093611166" lon="114.52229409372619"><ele>111.0</ele><time>2026-04-13T08:13:49Z</time></trkpt><trkpt lat="-28.305929215367893" lon="114.5220316697646"><ele>113.5</ele><time>2026-04-13T08:13:50Z</time></trkpt><trkpt lat="-28.305767676420682" lon="114.52175934866507"><ele>116.0</ele><time>2026-04-13T08:13:51Z</time></trkpt><trkpt lat="-28.305607696126827" lon="114.52148748180691"><ele>118.0</ele><time>2026-04-13T08:13:52Z</time></trkpt><trkpt lat="-28.305449151135896" lon="114.52121799893949"><ele>120.0</ele><time>2026-04-13T08:13:53Z</time></trkpt><trkpt lat="-28.305286695064265" lon="114.52094572838342"><ele>120.0</ele><time>2026-04-13T08:13:54Z</time></trkpt><trkpt lat="-28.30512506632508" lon="114.5206733147644"><ele>120.0</ele><time>2026-04-13T08:13:55Z</time></trkpt><trkpt lat="-28.304960981172048" lon="114.52039829718117"><ele>122.0</ele><time>2026-04-13T08:13:56Z</time></trkpt><trkpt lat="-28.304792354397076" lon="114.52011905410937"><ele>124.0</ele><time>2026-04-13T08:13:57Z</time></trkpt><trkpt lat="-28.30462837845006" lon="114.51984227181987"><ele>127.0</ele><time>2026-04-13T08:13:58Z</time></trkpt><trkpt lat="-28.30446488530134" lon="114.51956583013605"><ele>130.0</ele><time>2026-04-13T08:13:59Z</time></trkpt><trkpt lat="-28.304301978059947" lon="114.51929075438417"><ele>130.0</ele><time>2026-04-13T08:14:00Z</time></trkpt><trkpt lat="-28.304133761331556" lon="114.51901358606908"><ele>130.0</ele><time>2026-04-13T08:14:01Z</time></trkpt><trkpt lat="-28.303965046888898" lon="114.51873654684161"><ele>131.0</ele><time>2026-04-13T08:14:02Z</time></trkpt><trkpt lat="-28.3037975176419" lon="114.51845642479665"><ele>132.0</ele><time>2026-04-13T08:14:03Z</time></trkpt><trkpt lat="-28.303632581451843" lon="114.5181765038887"><ele>134.0</ele><time>2026-04-13T08:14:04Z</time></trkpt><trkpt lat="-28.303465755781506" lon="114.51789728020262"><ele>136.0</ele><time>2026-04-13T08:14:05Z</time></trkpt><trkpt lat="-28.30329985784792" lon="114.51761561388746"><ele>136.0</ele><time>2026-04-13T08:14:06Z</time></trkpt><trkpt lat="-28.303132509260074" lon="114.51733288792859"><ele>136.0</ele><time>2026-04-13T08:14:07Z</time></trkpt><trkpt lat="-28.30296664350477" lon="114.51705274305044"><ele>138.0</ele><time>2026-04-13T08:14:08Z</time></trkpt><trkpt lat="-28.302797135007204" lon="114.51677346433654"><ele>140.0</ele><time>2026-04-13T08:14:09Z</time></trkpt><trkpt lat="-28.302629071780988" lon="114.51649580686676"><ele>141.5</ele><time>2026-04-13T08:14:10Z</time></trkpt><trkpt lat="-28.3024620804772" lon="114.51621511697216"><ele>143.0</ele><time>2026-04-13T08:14:11Z</time></trkpt><trkpt lat="-28.30229616387261" lon="114.51593212150615"><ele>144.5</ele><time>2026-04-13T08:14:12Z</time></trkpt><trkpt lat="-28.302132223687938" lon="114.5156529286289"><ele>146.0</ele><time>2026-04-13T08:14:13Z</time></trkpt><trkpt lat="-28.301966411127268" lon="114.51537537108166"><ele>147.0</ele><time>2026-04-13T08:14:14Z</time></trkpt><trkpt lat="-28.301799477896033" lon="114.51510083116288"><ele>148.0</ele><time>2026-04-13T08:14:15Z</time></trkpt><trkpt lat="-28.30163422654715" lon="114.51483308746207"><ele>148.5</ele><time>2026-04-13T08:14:16Z</time></trkpt><trkpt lat="-28.301468564824727" lon="114.514556889979"><ele>149.0</ele><time>2026-04-13T08:14:17Z</time></trkpt><trkpt lat="-28.301302905692342" lon="114.51427680541947"><ele>149.5</ele><time>2026-04-13T08:14:18Z</time></trkpt><trkpt lat="-28.30113726491693" lon="114.51399449904166"><ele>150.0</ele><time>2026-04-13T08:14:19Z</time></trkpt><trkpt lat="-28.300973645337336" lon="114.51371372850635"><ele>151.0</ele><time>2026-04-13T08:14:20Z</time></trkpt><trkpt lat="-28.30081241565042" lon="114.51344187456036"><ele>152.0</ele><time>2026-04-13T08:14:21Z</time></trkpt><trkpt lat="-28.30065453560108" lon="114.5131763931942"><ele>154.0</ele><time>2026-04-13T08:14:22Z</time></trkpt><trkpt lat="-28.300500833341818" lon="114.51291593725601"><ele>156.0</ele><time>2026-04-13T08:14:23Z</time></trkpt><trkpt lat="-28.300353892493654" lon="114.51266658107565"><ele>156.5</ele><time>2026-04-13T08:14:24Z</time></trkpt><trkpt lat="-28.300217798542395" lon="114.51243940290692"><ele>157.0</ele><time>2026-04-13T08:14:25Z</time></trkpt><trkpt lat="-28.300087812032114" lon="114.51222470069474"><ele>158.0</ele><time>2026-04-13T08:14:26Z</time></trkpt><trkpt lat="-28.299968525839322" lon="114.51201397294949"><ele>159.0</ele><time>2026-04-13T08:14:27Z</time></trkpt><trkpt lat="-28.299857142175544" lon="114.51179636474112"><ele>160.0</ele><time>2026-04-13T08:14:28Z</time></trkpt><trkpt lat="-28.299755205699704" lon="114.51156673357391"><ele>161.5</ele><time>2026-04-13T08:14:29Z</time></trkpt><trkpt lat="-28.299664354243795" lon="114.5113256226692"><ele>163.0</ele><time>2026-04-13T08:14:30Z</time></trkpt><trkpt lat="-28.299583075896873" lon="114.51107764209796"><ele>163.5</ele><time>2026-04-13T08:14:31Z</time></trkpt><trkpt lat="-28.29951337124821" lon="114.51082073326698"><ele>164.0</ele><time>2026-04-13T08:14:32Z</time></trkpt><trkpt lat="-28.299460119211126" lon="114.51055855610662"><ele>163.66666666666666</ele><time>2026-04-13T08:14:33Z</time></trkpt><trkpt lat="-28.29942355697608" lon="114.5103100786765"><ele>163.33333333333334</ele><time>2026-04-13T08:14:34Z</time></trkpt><trkpt lat="-28.29939875482394" lon="114.51006925525661"><ele>163.0</ele><time>2026-04-13T08:14:35Z</time></trkpt><trkpt lat="-28.29938012195303" lon="114.50982548691007"><ele>163.0</ele><time>2026-04-13T08:14:36Z</time></trkpt><trkpt lat="-28.299367987428223" lon="114.50957971759536"><ele>163.0</ele><time>2026-04-13T08:14:37Z</time></trkpt><trkpt lat="-28.29936219388317" lon="114.50932889249368"><ele>163.0</ele><time>2026-04-13T08:14:38Z</time></trkpt><trkpt lat="-28.299362626595943" lon="114.50908195125025"><ele>163.0</ele><time>2026-04-13T08:14:39Z</time></trkpt><trkpt lat="-28.299365658845208" lon="114.50884679435617"><ele>163.0</ele><time>2026-04-13T08:14:40Z</time></trkpt><trkpt lat="-28.299366819613294" lon="114.5086268270548"><ele>163.0</ele><time>2026-04-13T08:14:41Z</time></trkpt><trkpt lat="-28.299365835862314" lon="114.50842159144639"><ele>163.0</ele><time>2026-04-13T08:14:42Z</time></trkpt><trkpt lat="-28.29936376043789" lon="114.50820141409069"><ele>163.0</ele><time>2026-04-13T08:14:43Z</time></trkpt><trkpt lat="-28.299360143095775" lon="114.5079653119161"><ele>163.0</ele><time>2026-04-13T08:14:44Z</time></trkpt><trkpt lat="-28.299353339905576" lon="114.5077165798663"><ele>163.5</ele><time>2026-04-13T08:14:45Z</time></trkpt><trkpt lat="-28.29934497030453" lon="114.50746379150516"><ele>164.0</ele><time>2026-04-13T08:14:46Z</time></trkpt><trkpt lat="-28.29933956185919" lon="114.50720167955947"><ele>164.0</ele><time>2026-04-13T08:14:47Z</time></trkpt><trkpt lat="-28.299336527365558" lon="114.50693951957065"><ele>164.0</ele><time>2026-04-13T08:14:48Z</time></trkpt><trkpt lat="-28.299335591364507" lon="114.50667848441971"><ele>164.0</ele><time>2026-04-13T08:14:49Z</time></trkpt><trkpt lat="-28.299333832478606" lon="114.50641886480264"><ele>164.0</ele><time>2026-04-13T08:14:50Z</time></trkpt><trkpt lat="-28.29935437021811" lon="114.50616518924674"><ele>164.33333333333331</ele><time>2026-04-13T08:14:51Z</time></trkpt><trkpt lat="-28.299351850657402" lon="114.50592511958511"><ele>164.66666666666666</ele><time>2026-04-13T08:14:52Z</time></trkpt><trkpt lat="-28.299337567765" lon="114.50570563163058"><ele>165.0</ele><time>2026-04-13T08:14:53Z</time></trkpt><trkpt lat="-28.299337423305758" lon="114.50551463441663"><ele>165.4</ele><time>2026-04-13T08:14:54Z</time></trkpt><trkpt lat="-28.299336669459297" lon="114.50535336544509"><ele>165.8</ele><time>2026-04-13T08:14:55Z</time></trkpt><trkpt lat="-28.299332316640164" lon="114.50522559903813"><ele>166.2</ele><time>2026-04-13T08:14:56Z</time></trkpt><trkpt lat="-28.29934589553714" lon="114.50512411390908"><ele>166.6</ele><time>2026-04-13T08:14:57Z</time></trkpt><trkpt lat="-28.299345270347196" lon="114.50504050354375"><ele>167.0</ele><time>2026-04-13T08:14:58Z</time></trkpt><trkpt lat="-28.29934447407394" lon="114.50495117619862"><ele>167.0</ele><time>2026-04-13T08:15:00Z</time></trkpt><trkpt lat="-28.299182564076958" lon="114.50489162048258"><ele>167.0</ele><time>2026-04-13T08:15:02Z</time></trkpt><trkpt lat="-28.299095827332895" lon="114.50488612082118"><ele>167.0</ele><time>2026-04-13T08:15:18Z</time></trkpt><trkpt lat="-28.299018614420763" lon="114.50488132915429"><ele>167.0</ele><time>2026-04-13T08:15:19Z</time></trkpt><trkpt lat="-28.29892209817912" lon="114.50487521143715"><ele>167.0</ele><time>2026-04-13T08:15:20Z</time></trkpt><trkpt lat="-28.298828581461553" lon="114.5048681498359"><ele>168.0</ele><time>2026-04-13T08:15:21Z</time></trkpt><trkpt lat="-28.298721547798905" lon="114.50485917998152"><ele>169.0</ele><time>2026-04-13T08:15:22Z</time></trkpt><trkpt lat="-28.298608199719347" lon="114.5048491355844"><ele>170.0</ele><time>2026-04-13T08:15:23Z</time></trkpt><trkpt lat="-28.29847943641541" lon="114.5048487497388"><ele>171.0</ele><time>2026-04-13T08:15:24Z</time></trkpt><trkpt lat="-28.298341086000487" lon="114.5048215775939"><ele>171.0</ele><time>2026-04-13T08:15:25Z</time></trkpt><trkpt lat="-28.298199338881737" lon="114.50480662613315"><ele>171.0</ele><time>2026-04-13T08:15:26Z</time></trkpt><trkpt lat="-28.29804950304735" lon="114.50479000072457"><ele>171.0</ele><time>2026-04-13T08:15:27Z</time></trkpt><trkpt lat="-28.2978935451075" lon="114.50477244355714"><ele>168.66666666666666</ele><time>2026-04-13T08:15:28Z</time></trkpt><trkpt lat="-28.29773950335105" lon="114.50475465970841"><ele>166.33333333333331</ele><time>2026-04-13T08:15:29Z</time></trkpt><trkpt lat="-28.29758607209274" lon="114.50473713779404"><ele>164.0</ele><time>2026-04-13T08:15:30Z</time></trkpt><trkpt lat="-28.29743822732317" lon="114.5047206571824"><ele>164.0</ele><time>2026-04-13T08:15:31Z</time></trkpt><trkpt lat="-28.297291410910976" lon="114.50470521294085"><ele>164.0</ele><time>2026-04-13T08:15:32Z</time></trkpt><trkpt lat="-28.29714173253842" lon="114.50468705546214"><ele>164.0</ele><time>2026-04-13T08:15:33Z</time></trkpt><trkpt lat="-28.29699559443697" lon="114.50466435234691"><ele>164.0</ele><time>2026-04-13T08:15:34Z</time></trkpt><trkpt lat="-28.296852453661195" lon="114.50463152484816"><ele>165.0</ele><time>2026-04-13T08:15:35Z</time></trkpt><trkpt lat="-28.296719031700828" lon="114.50457892021049"><ele>166.0</ele><time>2026-04-13T08:15:36Z</time></trkpt><trkpt lat="-28.296586239677964" lon="114.50451126814598"><ele>167.0</ele><time>2026-04-13T08:15:37Z</time></trkpt><trkpt lat="-28.296448834088004" lon="114.50445030800672"><ele>168.0</ele><time>2026-04-13T08:15:38Z</time></trkpt><trkpt lat="-28.296310221896732" lon="114.50439104778539"><ele>168.25</ele><time>2026-04-13T08:15:39Z</time></trkpt><trkpt lat="-28.296173667276555" lon="114.50433266255075"><ele>168.5</ele><time>2026-04-13T08:15:40Z</time></trkpt><trkpt lat="-28.29603569347224" lon="114.50427383274095"><ele>168.75</ele><time>2026-04-13T08:15:41Z</time></trkpt><trkpt lat="-28.295897113489115" lon="114.50421577052758"><ele>169.0</ele><time>2026-04-13T08:15:42Z</time></trkpt><trkpt lat="-28.2957510763155" lon="114.50417010691932"><ele>169.0</ele><time>2026-04-13T08:15:43Z</time></trkpt><trkpt lat="-28.295610451327136" lon="114.50410407410952"><ele>169.0</ele><time>2026-04-13T08:15:44Z</time></trkpt><trkpt lat="-28.295469559015057" lon="114.50404144668148"><ele>169.0</ele><time>2026-04-13T08:15:45Z</time></trkpt><trkpt lat="-28.295336041359725" lon="114.50396402163707"><ele>168.25</ele><time>2026-04-13T08:15:46Z</time></trkpt><trkpt lat="-28.29518634329782" lon="114.50390243466151"><ele>167.5</ele><time>2026-04-13T08:15:47Z</time></trkpt><trkpt lat="-28.295036167093826" lon="114.50389522759252"><ele>166.75</ele><time>2026-04-13T08:15:48Z</time></trkpt><trkpt lat="-28.294897268308826" lon="114.50388145601201"><ele>166.0</ele><time>2026-04-13T08:15:49Z</time></trkpt><trkpt lat="-28.29476241939094" lon="114.5038780775087"><ele>164.75</ele><time>2026-04-13T08:15:50Z</time></trkpt><trkpt lat="-28.294635350616996" lon="114.50387744127747"><ele>163.5</ele><time>2026-04-13T08:15:51Z</time></trkpt><trkpt lat="-28.294516868419755" lon="114.5038587426491"><ele>162.25</ele><time>2026-04-13T08:15:52Z</time></trkpt><trkpt lat="-28.294404214804338" lon="114.5038553536261"><ele>161.0</ele><time>2026-04-13T08:15:53Z</time></trkpt><trkpt lat="-28.294298678874245" lon="114.50386971941128"><ele>161.0</ele><time>2026-04-13T08:15:54Z</time></trkpt><trkpt lat="-28.294193382678927" lon="114.50385905957879"><ele>161.0</ele><time>2026-04-13T08:15:55Z</time></trkpt><trkpt lat="-28.294098764092336" lon="114.50387769813462"><ele>161.0</ele><time>2026-04-13T08:15:56Z</time></trkpt><trkpt lat="-28.2940166936448" lon="114.5038776421461"><ele>161.0</ele><time>2026-04-13T08:15:57Z</time></trkpt><trkpt lat="-28.29395304309922" lon="114.5038789154545"><ele>161.0</ele><time>2026-04-13T08:15:58Z</time></trkpt><trkpt lat="-28.293871425695876" lon="114.50383477765126"><ele>161.0</ele><time>2026-04-13T08:16:00Z</time></trkpt><trkpt lat="-28.2938164320492" lon="114.5037849042688"><ele>160.83333333333331</ele><time>2026-04-13T08:16:02Z</time></trkpt><trkpt lat="-28.293751638144577" lon="114.50376121104416"><ele>160.66666666666666</ele><time>2026-04-13T08:16:05Z</time></trkpt><trkpt lat="-28.293772157307643" lon="114.50367821986023"><ele>160.5</ele><time>2026-04-13T08:16:19Z</time></trkpt><trkpt lat="-28.293757934204894" lon="114.5035805369964"><ele>160.33333333333334</ele><time>2026-04-13T08:16:21Z</time></trkpt><trkpt lat="-28.293759978747683" lon="114.50349013389582"><ele>160.16666666666669</ele><time>2026-04-13T08:16:22.999Z</time></trkpt><trkpt lat="-28.293750376713035" lon="114.50341266261688"><ele>160.0</ele><time>2026-04-13T08:16:24.999Z</time></trkpt><trkpt lat="-28.293571783647007" lon="114.50337239111727"><ele>160.0</ele><time>2026-04-13T08:16:25.999Z</time></trkpt><trkpt lat="-28.29347438982111" lon="114.50330129896695"><ele>160.0</ele><time>2026-04-13T08:16:27.999Z</time></trkpt><trkpt lat="-28.293467892482965" lon="114.50318150303342"><ele>160.0</ele><time>2026-04-13T08:16:29.999Z</time></trkpt><trkpt lat="-28.293498498723476" lon="114.50305167422479"><ele>160.0</ele><time>2026-04-13T08:16:31.999Z</time></trkpt><trkpt lat="-28.293523528850407" lon="114.50296978151773"><ele>160.0</ele><time>2026-04-13T08:16:33Z</time></trkpt><trkpt lat="-28.29355555410656" lon="114.50287328839114"><ele>160.5</ele><time>2026-04-13T08:16:34Z</time></trkpt><trkpt lat="-28.29355692873248" lon="114.50275227621574"><ele>161.0</ele><time>2026-04-13T08:16:35Z</time></trkpt><trkpt lat="-28.293567524209568" lon="114.50263861563432"><ele>161.5</ele><time>2026-04-13T08:16:36Z</time></trkpt><trkpt lat="-28.293570972066348" lon="114.50250962485657"><ele>162.0</ele><time>2026-04-13T08:16:37Z</time></trkpt><trkpt lat="-28.29353318625243" lon="114.50235509126698"><ele>162.0</ele><time>2026-04-13T08:16:38Z</time></trkpt><trkpt lat="-28.29347738365476" lon="114.50219626760682"><ele>162.0</ele><time>2026-04-13T08:16:39Z</time></trkpt><trkpt lat="-28.293452170449406" lon="114.5020094551564"><ele>162.0</ele><time>2026-04-13T08:16:40Z</time></trkpt><trkpt lat="-28.293412087726598" lon="114.50182732592728"><ele>162.0</ele><time>2026-04-13T08:16:41Z</time></trkpt><trkpt lat="-28.2933691344025" lon="114.50163123067367"><ele>162.0</ele><time>2026-04-13T08:16:42Z</time></trkpt><trkpt lat="-28.293322400797003" lon="114.5014187454972"><ele>162.0</ele><time>2026-04-13T08:16:43Z</time></trkpt><trkpt lat="-28.293273450638566" lon="114.50119674571258"><ele>161.33333333333334</ele><time>2026-04-13T08:16:44Z</time></trkpt><trkpt lat="-28.293224224152837" lon="114.50097349271765"><ele>160.66666666666669</ele><time>2026-04-13T08:16:45Z</time></trkpt><trkpt lat="-28.293174925333773" lon="114.50075438213374"><ele>160.0</ele><time>2026-04-13T08:16:46Z</time></trkpt><trkpt lat="-28.293109522125135" lon="114.50053819906142"><ele>158.66666666666669</ele><time>2026-04-13T08:16:47Z</time></trkpt><trkpt lat="-28.2930604266713" lon="114.50031747801042"><ele>157.33333333333334</ele><time>2026-04-13T08:16:48Z</time></trkpt><trkpt lat="-28.293016254621985" lon="114.50010398080099"><ele>156.0</ele><time>2026-04-13T08:16:49Z</time></trkpt><trkpt lat="-28.292974200777735" lon="114.49990575263203"><ele>156.0</ele><time>2026-04-13T08:16:50Z</time></trkpt><trkpt lat="-28.292933503094005" lon="114.49972083401858"><ele>156.0</ele><time>2026-04-13T08:16:51Z</time></trkpt><trkpt lat="-28.292896287579854" lon="114.49955441679273"><ele>156.0</ele><time>2026-04-13T08:16:52Z</time></trkpt><trkpt lat="-28.29286795979657" lon="114.49941505315361"><ele>156.0</ele><time>2026-04-13T08:16:53Z</time></trkpt><trkpt lat="-28.292847029670767" lon="114.4992936418398"><ele>155.5</ele><time>2026-04-13T08:16:54Z</time></trkpt><trkpt lat="-28.29282804057801" lon="114.49919606787077"><ele>155.0</ele><time>2026-04-13T08:16:55Z</time></trkpt><trkpt lat="-28.29280810397337" lon="114.4991224572508"><ele>154.5</ele><time>2026-04-13T08:16:56Z</time></trkpt><trkpt lat="-28.29273095189769" lon="114.49900305929552"><ele>154.0</ele><time>2026-04-13T08:16:58Z</time></trkpt><trkpt lat="-28.292666314422203" lon="114.49895859257377"><ele>153.5</ele><time>2026-04-13T08:16:59Z</time></trkpt><trkpt lat="-28.29258295314317" lon="114.49892869740268"><ele>153.0</ele><time>2026-04-13T08:17:00Z</time></trkpt><trkpt lat="-28.292484839104397" lon="114.49892261585053"><ele>153.0</ele><time>2026-04-13T08:17:01Z</time></trkpt><trkpt lat="-28.29236953671618" lon="114.49892942507563"><ele>153.0</ele><time>2026-04-13T08:17:02Z</time></trkpt><trkpt lat="-28.29223298499149" lon="114.49893982431405"><ele>153.0</ele><time>2026-04-13T08:17:03Z</time></trkpt><trkpt lat="-28.292068589369563" lon="114.4989455115381"><ele>153.0</ele><time>2026-04-13T08:17:04Z</time></trkpt><trkpt lat="-28.29188218900692" lon="114.49894337780792"><ele>153.0</ele><time>2026-04-13T08:17:05Z</time></trkpt><trkpt lat="-28.291677786657406" lon="114.49893501051216"><ele>153.0</ele><time>2026-04-13T08:17:06Z</time></trkpt><trkpt lat="-28.291468148870617" lon="114.49893060698058"><ele>153.0</ele><time>2026-04-13T08:17:07Z</time></trkpt><trkpt lat="-28.291255017183587" lon="114.49893109349065"><ele>153.33333333333334</ele><time>2026-04-13T08:17:08Z</time></trkpt><trkpt lat="-28.291033783552265" lon="114.49893932404754"><ele>153.66666666666669</ele><time>2026-04-13T08:17:09Z</time></trkpt><trkpt lat="-28.290811448385686" lon="114.49894786308366"><ele>154.0</ele><time>2026-04-13T08:17:10Z</time></trkpt><trkpt lat="-28.290585895668293" lon="114.49895565611473"><ele>154.5</ele><time>2026-04-13T08:17:11Z</time></trkpt><trkpt lat="-28.29035878519108" lon="114.49896186827849"><ele>155.0</ele><time>2026-04-13T08:17:12Z</time></trkpt><trkpt lat="-28.29012899105423" lon="114.49896359626148"><ele>155.0</ele><time>2026-04-13T08:17:13Z</time></trkpt><trkpt lat="-28.289897885150626" lon="114.49896326511787"><ele>155.0</ele><time>2026-04-13T08:17:14Z</time></trkpt><trkpt lat="-28.289664473788577" lon="114.49896388039394"><ele>155.0</ele><time>2026-04-13T08:17:15Z</time></trkpt><trkpt lat="-28.289434651020443" lon="114.49896730152072"><ele>155.0</ele><time>2026-04-13T08:17:16Z</time></trkpt><trkpt lat="-28.289203670232695" lon="114.49897382812169"><ele>155.0</ele><time>2026-04-13T08:17:17Z</time></trkpt><trkpt lat="-28.28897489428029" lon="114.49897780184976"><ele>155.0</ele><time>2026-04-13T08:17:18Z</time></trkpt><trkpt lat="-28.288741915087" lon="114.49898024148878"><ele>155.5</ele><time>2026-04-13T08:17:19Z</time></trkpt><trkpt lat="-28.28850332521369" lon="114.49898185786287"><ele>156.0</ele><time>2026-04-13T08:17:20Z</time></trkpt><trkpt lat="-28.28825379692746" lon="114.49898287608747"><ele>157.5</ele><time>2026-04-13T08:17:21Z</time></trkpt><trkpt lat="-28.287998914943437" lon="114.49898578855013"><ele>159.0</ele><time>2026-04-13T08:17:22Z</time></trkpt><trkpt lat="-28.2877483595793" lon="114.4989895693758"><ele>159.0</ele><time>2026-04-13T08:17:23Z</time></trkpt><trkpt lat="-28.287504601621926" lon="114.49899529177209"><ele>159.0</ele><time>2026-04-13T08:17:24Z</time></trkpt><trkpt lat="-28.287255215634527" lon="114.49899898337112"><ele>159.5</ele><time>2026-04-13T08:17:25Z</time></trkpt><trkpt lat="-28.287008733985502" lon="114.49900228024214"><ele>160.0</ele><time>2026-04-13T08:17:26Z</time></trkpt><trkpt lat="-28.28677237096243" lon="114.49898669124143"><ele>160.0</ele><time>2026-04-13T08:17:27Z</time></trkpt><trkpt lat="-28.28653056988018" lon="114.49900775037972"><ele>160.0</ele><time>2026-04-13T08:17:28Z</time></trkpt><trkpt lat="-28.286301638081667" lon="114.49900981155521"><ele>160.0</ele><time>2026-04-13T08:17:29Z</time></trkpt><trkpt lat="-28.286068836055964" lon="114.49901260596862"><ele>160.0</ele><time>2026-04-13T08:17:30Z</time></trkpt><trkpt lat="-28.285832657623747" lon="114.4990128256968"><ele>160.0</ele><time>2026-04-13T08:17:31Z</time></trkpt><trkpt lat="-28.2855883643622" lon="114.4990149341383"><ele>160.0</ele><time>2026-04-13T08:17:32Z</time></trkpt><trkpt lat="-28.28534228057019" lon="114.4990170601783"><ele>160.0</ele><time>2026-04-13T08:17:33Z</time></trkpt><trkpt lat="-28.285100836993195" lon="114.49902067142582"><ele>160.0</ele><time>2026-04-13T08:17:34Z</time></trkpt><trkpt lat="-28.284862074247968" lon="114.49902624816048"><ele>162.0</ele><time>2026-04-13T08:17:35Z</time></trkpt><trkpt lat="-28.28462455024243" lon="114.49902883340154"><ele>164.0</ele><time>2026-04-13T08:17:36Z</time></trkpt><trkpt lat="-28.28438659010719" lon="114.4990322451674"><ele>164.0</ele><time>2026-04-13T08:17:37Z</time></trkpt><trkpt lat="-28.284157496269355" lon="114.49901538852279"><ele>164.0</ele><time>2026-04-13T08:17:38Z</time></trkpt><trkpt lat="-28.283926478195387" lon="114.49901615498656"><ele>162.5</ele><time>2026-04-13T08:17:39Z</time></trkpt><trkpt lat="-28.28369922689433" lon="114.4990167425725"><ele>161.0</ele><time>2026-04-13T08:17:40Z</time></trkpt><trkpt lat="-28.28346843898139" lon="114.49901771128567"><ele>161.0</ele><time>2026-04-13T08:17:41Z</time></trkpt><trkpt lat="-28.283243316961837" lon="114.49901885232131"><ele>161.0</ele><time>2026-04-13T08:17:42Z</time></trkpt><trkpt lat="-28.28302771772379" lon="114.49901944257302"><ele>161.0</ele><time>2026-04-13T08:17:43Z</time></trkpt><trkpt lat="-28.28282690764002" lon="114.49902056216644"><ele>160.66666666666666</ele><time>2026-04-13T08:17:44Z</time></trkpt><trkpt lat="-28.28264071963235" lon="114.49902179677275"><ele>160.33333333333334</ele><time>2026-04-13T08:17:45Z</time></trkpt><trkpt lat="-28.282466815280557" lon="114.4990235523435"><ele>160.0</ele><time>2026-04-13T08:17:46Z</time></trkpt><trkpt lat="-28.28229924415291" lon="114.49904107862878"><ele>159.66666666666669</ele><time>2026-04-13T08:17:47Z</time></trkpt><trkpt lat="-28.28212832705688" lon="114.49904015795492"><ele>159.33333333333334</ele><time>2026-04-13T08:17:48Z</time></trkpt><trkpt lat="-28.2819514188239" lon="114.49904299885468"><ele>159.0</ele><time>2026-04-13T08:17:49Z</time></trkpt><trkpt lat="-28.281777989117877" lon="114.49904861988232"><ele>161.0</ele><time>2026-04-13T08:17:50Z</time></trkpt><trkpt lat="-28.281428710162565" lon="114.49905007702604"><ele>163.0</ele><time>2026-04-13T08:17:51.999Z</time></trkpt><trkpt lat="-28.281264542687857" lon="114.49903658912707"><ele>163.0</ele><time>2026-04-13T08:17:52.999Z</time></trkpt><trkpt lat="-28.28109490405757" lon="114.49903814650345"><ele>163.0</ele><time>2026-04-13T08:17:53.999Z</time></trkpt><trkpt lat="-28.280929008459037" lon="114.49905766466563"><ele>163.0</ele><time>2026-04-13T08:17:54.999Z</time></trkpt><trkpt lat="-28.280759360741616" lon="114.49906105937094"><ele>165.33333333333334</ele><time>2026-04-13T08:17:55.999Z</time></trkpt><trkpt lat="-28.28059174362596" lon="114.49904494508675"><ele>167.66666666666666</ele><time>2026-04-13T08:17:56.999Z</time></trkpt><trkpt lat="-28.28042219920319" lon="114.49904673321647"><ele>170.0</ele><time>2026-04-13T08:17:57.999Z</time></trkpt><trkpt lat="-28.280255423167382" lon="114.49904866780881"><ele>170.0</ele><time>2026-04-13T08:17:58.999Z</time></trkpt><trkpt lat="-28.280085002947676" lon="114.49905064380646"><ele>170.0</ele><time>2026-04-13T08:17:59.999Z</time></trkpt><trkpt lat="-28.27991464423416" lon="114.49905221268396"><ele>170.0</ele><time>2026-04-13T08:18:00.999Z</time></trkpt><trkpt lat="-28.279735068726797" lon="114.49905350770052"><ele>170.0</ele><time>2026-04-13T08:18:01.999Z</time></trkpt><trkpt lat="-28.27954882226785" lon="114.49905496163076"><ele>170.0</ele><time>2026-04-13T08:18:02.999Z</time></trkpt><trkpt lat="-28.279354704658417" lon="114.49905661708881"><ele>170.0</ele><time>2026-04-13T08:18:03.999Z</time></trkpt><trkpt lat="-28.279161940599895" lon="114.49905820944174"><ele>170.0</ele><time>2026-04-13T08:18:04.999Z</time></trkpt><trkpt lat="-28.27896096157063" lon="114.49905988153836"><ele>170.0</ele><time>2026-04-13T08:18:05.999Z</time></trkpt><trkpt lat="-28.278763308299297" lon="114.49907500944326"><ele>170.0</ele><time>2026-04-13T08:18:06.999Z</time></trkpt><trkpt lat="-28.27856541889786" lon="114.49907320318775"><ele>169.66666666666666</ele><time>2026-04-13T08:18:07.999Z</time></trkpt><trkpt lat="-28.278357646526675" lon="114.49907961509733"><ele>169.33333333333334</ele><time>2026-04-13T08:18:08.999Z</time></trkpt><trkpt lat="-28.27815048644865" lon="114.49908020711779"><ele>169.0</ele><time>2026-04-13T08:18:09.999Z</time></trkpt><trkpt lat="-28.277930608068058" lon="114.49908347310063"><ele>171.0</ele><time>2026-04-13T08:18:10.999Z</time></trkpt><trkpt lat="-28.27769818384362" lon="114.49908383268432"><ele>173.0</ele><time>2026-04-13T08:18:11.999Z</time></trkpt><trkpt lat="-28.277452556802885" lon="114.49908370086952"><ele>174.0</ele><time>2026-04-13T08:18:12.999Z</time></trkpt><trkpt lat="-28.277196183512867" lon="114.49908459783491"><ele>175.0</ele><time>2026-04-13T08:18:13.999Z</time></trkpt><trkpt lat="-28.27693027541704" lon="114.49908840671606"><ele>175.0</ele><time>2026-04-13T08:18:14.999Z</time></trkpt><trkpt lat="-28.27665913052292" lon="114.49909117646973"><ele>175.0</ele><time>2026-04-13T08:18:15.999Z</time></trkpt><trkpt lat="-28.276385625543252" lon="114.4990941855076"><ele>170.0</ele><time>2026-04-13T08:18:16.999Z</time></trkpt><trkpt lat="-28.276110549494238" lon="114.49909717164539"><ele>165.0</ele><time>2026-04-13T08:18:17.999Z</time></trkpt><trkpt lat="-28.275835281189725" lon="114.4990999293153"><ele>165.0</ele><time>2026-04-13T08:18:18.999Z</time></trkpt><trkpt lat="-28.275559310157814" lon="114.49910201088292"><ele>165.0</ele><time>2026-04-13T08:18:19.999Z</time></trkpt><trkpt lat="-28.275283415335245" lon="114.49910286594339"><ele>165.0</ele><time>2026-04-13T08:18:20.999Z</time></trkpt><trkpt lat="-28.275009061662345" lon="114.49910412121663"><ele>165.0</ele><time>2026-04-13T08:18:21.999Z</time></trkpt><trkpt lat="-28.27474188064602" lon="114.49910714899201"><ele>165.0</ele><time>2026-04-13T08:18:22.999Z</time></trkpt><trkpt lat="-28.274469235509955" lon="114.49909078215404"><ele>165.0</ele><time>2026-04-13T08:18:23.999Z</time></trkpt><trkpt lat="-28.27419242858527" lon="114.49909225499907"><ele>168.0</ele><time>2026-04-13T08:18:24.999Z</time></trkpt><trkpt lat="-28.273911208936624" lon="114.49911207343288"><ele>171.0</ele><time>2026-04-13T08:18:25.999Z</time></trkpt><trkpt lat="-28.273625194577942" lon="114.4990952731599"><ele>171.0</ele><time>2026-04-13T08:18:27Z</time></trkpt><trkpt lat="-28.273338450123525" lon="114.49909659788435"><ele>171.0</ele><time>2026-04-13T08:18:28Z</time></trkpt><trkpt lat="-28.273056545199395" lon="114.49909806972826"><ele>170.5</ele><time>2026-04-13T08:18:29Z</time></trkpt><trkpt lat="-28.272778320266788" lon="114.49909976583913"><ele>170.0</ele><time>2026-04-13T08:18:30Z</time></trkpt><trkpt lat="-28.272500509763134" lon="114.49910244859373"><ele>170.5</ele><time>2026-04-13T08:18:31Z</time></trkpt><trkpt lat="-28.27222491339301" lon="114.49910515789875"><ele>171.0</ele><time>2026-04-13T08:18:32Z</time></trkpt><trkpt lat="-28.271950078656634" lon="114.49910817074598"><ele>171.0</ele><time>2026-04-13T08:18:33Z</time></trkpt><trkpt lat="-28.271677689838953" lon="114.49911116705859"><ele>171.0</ele><time>2026-04-13T08:18:34Z</time></trkpt><trkpt lat="-28.27140427932663" lon="114.4991141746091"><ele>169.0</ele><time>2026-04-13T08:18:35Z</time></trkpt><trkpt lat="-28.271129724508164" lon="114.49911719474726"><ele>167.0</ele><time>2026-04-13T08:18:36Z</time></trkpt><trkpt lat="-28.270852015943074" lon="114.49912024957844"><ele>169.0</ele><time>2026-04-13T08:18:37Z</time></trkpt><trkpt lat="-28.27057212602205" lon="114.49912317521036"><ele>171.0</ele><time>2026-04-13T08:18:38Z</time></trkpt><trkpt lat="-28.270293954112624" lon="114.49912554520425"><ele>171.0</ele><time>2026-04-13T08:18:39Z</time></trkpt><trkpt lat="-28.270016474828324" lon="114.49912790930071"><ele>171.0</ele><time>2026-04-13T08:18:40Z</time></trkpt><trkpt lat="-28.269743428754857" lon="114.49913023562434"><ele>170.5</ele><time>2026-04-13T08:18:41Z</time></trkpt><trkpt lat="-28.269483233602664" lon="114.49913249471619"><ele>170.0</ele><time>2026-04-13T08:18:42Z</time></trkpt><trkpt lat="-28.269230235439306" lon="114.49913487419644"><ele>170.0</ele><time>2026-04-13T08:18:43Z</time></trkpt><trkpt lat="-28.268972388316534" lon="114.49913701597168"><ele>170.0</ele><time>2026-04-13T08:18:44Z</time></trkpt><trkpt lat="-28.268712302411878" lon="114.49913890929201"><ele>171.5</ele><time>2026-04-13T08:18:45Z</time></trkpt><trkpt lat="-28.268449703186135" lon="114.49914082090817"><ele>173.0</ele><time>2026-04-13T08:18:46Z</time></trkpt><trkpt lat="-28.26818069529698" lon="114.49914279873795"><ele>174.5</ele><time>2026-04-13T08:18:47Z</time></trkpt><trkpt lat="-28.267919108260788" lon="114.49915876592621"><ele>176.0</ele><time>2026-04-13T08:18:48Z</time></trkpt><trkpt lat="-28.267664705716356" lon="114.49918633378284"><ele>176.0</ele><time>2026-04-13T08:18:49Z</time></trkpt><trkpt lat="-28.26742313898162" lon="114.4991884432045"><ele>176.0</ele><time>2026-04-13T08:18:50Z</time></trkpt><trkpt lat="-28.2672007290767" lon="114.49919023449559"><ele>176.33333333333331</ele><time>2026-04-13T08:18:51Z</time></trkpt><trkpt lat="-28.267002930525155" lon="114.499158514861"><ele>176.66666666666666</ele><time>2026-04-13T08:18:52Z</time></trkpt><trkpt lat="-28.266816756880644" lon="114.49913346986463"><ele>177.0</ele><time>2026-04-13T08:18:53Z</time></trkpt><trkpt lat="-28.266617441467456" lon="114.49909564790985"><ele>176.0</ele><time>2026-04-13T08:18:54Z</time></trkpt><trkpt lat="-28.266420888535976" lon="114.49903786845185"><ele>175.0</ele><time>2026-04-13T08:18:55Z</time></trkpt><trkpt lat="-28.26623792510563" lon="114.49896527838392"><ele>174.0</ele><time>2026-04-13T08:18:56Z</time></trkpt><trkpt lat="-28.266063821030976" lon="114.49888077676275"><ele>174.0</ele><time>2026-04-13T08:18:57Z</time></trkpt><trkpt lat="-28.265896007528156" lon="114.49878269146559"><ele>174.0</ele><time>2026-04-13T08:18:58Z</time></trkpt><trkpt lat="-28.26574133891307" lon="114.49865853639868"><ele>174.0</ele><time>2026-04-13T08:18:59Z</time></trkpt><trkpt lat="-28.265583386603428" lon="114.49851930419277"><ele>174.33333333333334</ele><time>2026-04-13T08:19:00Z</time></trkpt><trkpt lat="-28.26542515959909" lon="114.49835862484757"><ele>174.66666666666669</ele><time>2026-04-13T08:19:01Z</time></trkpt><trkpt lat="-28.26525167192547" lon="114.49820298543858"><ele>175.0</ele><time>2026-04-13T08:19:02Z</time></trkpt><trkpt lat="-28.265147882167216" lon="114.49793321285856"><ele>174.5</ele><time>2026-04-13T08:19:03Z</time></trkpt><trkpt lat="-28.265031132412823" lon="114.49769764015878"><ele>174.0</ele><time>2026-04-13T08:19:04Z</time></trkpt><trkpt lat="-28.264930399506852" lon="114.4974591646089"><ele>174.0</ele><time>2026-04-13T08:19:05Z</time></trkpt><trkpt lat="-28.26484432404599" lon="114.4972120749843"><ele>174.0</ele><time>2026-04-13T08:19:06Z</time></trkpt><trkpt lat="-28.26476923982632" lon="114.49695121864144"><ele>171.5</ele><time>2026-04-13T08:19:07Z</time></trkpt><trkpt lat="-28.264693666737465" lon="114.49667061413774"><ele>169.0</ele><time>2026-04-13T08:19:08Z</time></trkpt><trkpt lat="-28.264622623467012" lon="114.49637927798948"><ele>169.0</ele><time>2026-04-13T08:19:09Z</time></trkpt><trkpt lat="-28.264562708664567" lon="114.49609109662113"><ele>169.0</ele><time>2026-04-13T08:19:10Z</time></trkpt><trkpt lat="-28.264511838258095" lon="114.49579406403257"><ele>169.0</ele><time>2026-04-13T08:19:11Z</time></trkpt><trkpt lat="-28.2644645502309" lon="114.49549230057627"><ele>169.0</ele><time>2026-04-13T08:19:12Z</time></trkpt><trkpt lat="-28.264418788808847" lon="114.49518238110858"><ele>169.0</ele><time>2026-04-13T08:19:13Z</time></trkpt><trkpt lat="-28.264372167050837" lon="114.49487372138917"><ele>169.0</ele><time>2026-04-13T08:19:14Z</time></trkpt><trkpt lat="-28.264323315026566" lon="114.49456431692361"><ele>169.0</ele><time>2026-04-13T08:19:15Z</time></trkpt><trkpt lat="-28.264273655578968" lon="114.49426030871163"><ele>169.0</ele><time>2026-04-13T08:19:16Z</time></trkpt><trkpt lat="-28.26422501579248" lon="114.49395777460047"><ele>168.5</ele><time>2026-04-13T08:19:17Z</time></trkpt><trkpt lat="-28.264177687001318" lon="114.49365396163905"><ele>168.0</ele><time>2026-04-13T08:19:18Z</time></trkpt><trkpt lat="-28.264129607756548" lon="114.49335816593252"><ele>168.0</ele><time>2026-04-13T08:19:19Z</time></trkpt><trkpt lat="-28.264085869188342" lon="114.49306584721313"><ele>168.0</ele><time>2026-04-13T08:19:20Z</time></trkpt><trkpt lat="-28.264041700417977" lon="114.49276966223206"><ele>167.0</ele><time>2026-04-13T08:19:21Z</time></trkpt><trkpt lat="-28.26399526175426" lon="114.49247528554864"><ele>166.0</ele><time>2026-04-13T08:19:22Z</time></trkpt><trkpt lat="-28.2639490511005" lon="114.49218156096634"><ele>166.0</ele><time>2026-04-13T08:19:23Z</time></trkpt><trkpt lat="-28.263903000457777" lon="114.49189732692649"><ele>166.0</ele><time>2026-04-13T08:19:24Z</time></trkpt><trkpt lat="-28.263857698074236" lon="114.4916328010485"><ele>166.0</ele><time>2026-04-13T08:19:25Z</time></trkpt><trkpt lat="-28.26380831040038" lon="114.49137965349048"><ele>166.0</ele><time>2026-04-13T08:19:26Z</time></trkpt><trkpt lat="-28.263748531564058" lon="114.49113056087613"><ele>164.0</ele><time>2026-04-13T08:19:27Z</time></trkpt><trkpt lat="-28.263673087584703" lon="114.49088652151812"><ele>162.0</ele><time>2026-04-13T08:19:28Z</time></trkpt><trkpt lat="-28.263577796116863" lon="114.49065171650945"><ele>162.0</ele><time>2026-04-13T08:19:29Z</time></trkpt><trkpt lat="-28.263461186161717" lon="114.49042700416359"><ele>162.0</ele><time>2026-04-13T08:19:30Z</time></trkpt><trkpt lat="-28.263317846716976" lon="114.4902046673612"><ele>162.5</ele><time>2026-04-13T08:19:31Z</time></trkpt><trkpt lat="-28.263150320214127" lon="114.4899826459416"><ele>163.0</ele><time>2026-04-13T08:19:32Z</time></trkpt><trkpt lat="-28.262967318477624" lon="114.48975807375747"><ele>161.0</ele><time>2026-04-13T08:19:33Z</time></trkpt><trkpt lat="-28.262777999122832" lon="114.48952809300518"><ele>159.0</ele><time>2026-04-13T08:19:34Z</time></trkpt><trkpt lat="-28.26259155160071" lon="114.48929921293092"><ele>159.0</ele><time>2026-04-13T08:19:35Z</time></trkpt><trkpt lat="-28.262410793026465" lon="114.48907371119616"><ele>159.0</ele><time>2026-04-13T08:19:36Z</time></trkpt><trkpt lat="-28.262236950359586" lon="114.48886591625379"><ele>159.5</ele><time>2026-04-13T08:19:37Z</time></trkpt><trkpt lat="-28.26205205545523" lon="114.48866727721003"><ele>160.0</ele><time>2026-04-13T08:19:38Z</time></trkpt><trkpt lat="-28.26185343286521" lon="114.48847910571402"><ele>160.0</ele><time>2026-04-13T08:19:39Z</time></trkpt><trkpt lat="-28.261637613052372" lon="114.48830148458153"><ele>160.0</ele><time>2026-04-13T08:19:40Z</time></trkpt><trkpt lat="-28.26140428522017" lon="114.48813009871873"><ele>160.5</ele><time>2026-04-13T08:19:41Z</time></trkpt><trkpt lat="-28.26116524067546" lon="114.48795967729764"><ele>161.0</ele><time>2026-04-13T08:19:42Z</time></trkpt><trkpt lat="-28.26092515593233" lon="114.48778355424314"><ele>160.5</ele><time>2026-04-13T08:19:43Z</time></trkpt><trkpt lat="-28.260692534169117" lon="114.4876105964639"><ele>160.0</ele><time>2026-04-13T08:19:44Z</time></trkpt><trkpt lat="-28.260480026112493" lon="114.48745503498792"><ele>160.0</ele><time>2026-04-13T08:19:45Z</time></trkpt><trkpt lat="-28.260296322052124" lon="114.48730870079184"><ele>160.0</ele><time>2026-04-13T08:19:46Z</time></trkpt><trkpt lat="-28.26012860712309" lon="114.48715026123"><ele>160.0</ele><time>2026-04-13T08:19:47Z</time></trkpt><trkpt lat="-28.259968215136826" lon="114.48697036924177"><ele>160.5</ele><time>2026-04-13T08:19:48Z</time></trkpt><trkpt lat="-28.25981923519224" lon="114.48677228405319"><ele>161.0</ele><time>2026-04-13T08:19:49Z</time></trkpt><trkpt lat="-28.25967840875964" lon="114.48655129014709"><ele>161.5</ele><time>2026-04-13T08:19:50Z</time></trkpt><trkpt lat="-28.259543394518435" lon="114.48630824495713"><ele>162.0</ele><time>2026-04-13T08:19:51Z</time></trkpt><trkpt lat="-28.259416024060915" lon="114.48605325969277"><ele>159.5</ele><time>2026-04-13T08:19:52Z</time></trkpt><trkpt lat="-28.259290591382182" lon="114.48579190130211"><ele>157.0</ele><time>2026-04-13T08:19:53Z</time></trkpt><trkpt lat="-28.259172605601716" lon="114.48552715509797"><ele>154.5</ele><time>2026-04-13T08:19:54Z</time></trkpt><trkpt lat="-28.259070770052297" lon="114.4852630025529"><ele>152.0</ele><time>2026-04-13T08:19:55Z</time></trkpt><trkpt lat="-28.258994933563656" lon="114.48499159162544"><ele>153.5</ele><time>2026-04-13T08:19:56Z</time></trkpt><trkpt lat="-28.258939085627357" lon="114.48470229628863"><ele>155.0</ele><time>2026-04-13T08:19:57Z</time></trkpt><trkpt lat="-28.25889141295287" lon="114.48439317125548"><ele>155.0</ele><time>2026-04-13T08:19:58Z</time></trkpt><trkpt lat="-28.25884468878322" lon="114.48407550188853"><ele>155.0</ele><time>2026-04-13T08:19:59Z</time></trkpt><trkpt lat="-28.25879258685948" lon="114.48376378695119"><ele>155.0</ele><time>2026-04-13T08:20:00Z</time></trkpt><trkpt lat="-28.25873615230028" lon="114.48345041301668"><ele>155.0</ele><time>2026-04-13T08:20:01Z</time></trkpt><trkpt lat="-28.258681841145233" lon="114.48313794638813"><ele>153.5</ele><time>2026-04-13T08:20:02Z</time></trkpt><trkpt lat="-28.25862919650789" lon="114.48282246740683"><ele>152.0</ele><time>2026-04-13T08:20:03Z</time></trkpt><trkpt lat="-28.258578066066352" lon="114.48251021639038"><ele>152.0</ele><time>2026-04-13T08:20:04Z</time></trkpt><trkpt lat="-28.25852884894624" lon="114.48220383376523"><ele>152.0</ele><time>2026-04-13T08:20:05Z</time></trkpt><trkpt lat="-28.258481774670475" lon="114.4819123186811"><ele>152.0</ele><time>2026-04-13T08:20:06Z</time></trkpt><trkpt lat="-28.258433572934102" lon="114.48162243573549"><ele>152.0</ele><time>2026-04-13T08:20:07Z</time></trkpt><trkpt lat="-28.258376490663892" lon="114.4813358571753"><ele>151.0</ele><time>2026-04-13T08:20:08Z</time></trkpt><trkpt lat="-28.258309726292637" lon="114.48104617784195"><ele>150.0</ele><time>2026-04-13T08:20:09Z</time></trkpt><trkpt lat="-28.258231766344917" lon="114.48076157362483"><ele>150.0</ele><time>2026-04-13T08:20:10Z</time></trkpt><trkpt lat="-28.258136851858087" lon="114.48047827787295"><ele>150.0</ele><time>2026-04-13T08:20:11Z</time></trkpt><trkpt lat="-28.25802527865188" lon="114.48019463133346"><ele>150.0</ele><time>2026-04-13T08:20:12Z</time></trkpt><trkpt lat="-28.257897077455112" lon="114.47991458949282"><ele>150.0</ele><time>2026-04-13T08:20:13Z</time></trkpt><trkpt lat="-28.257758744131266" lon="114.47963438483316"><ele>148.5</ele><time>2026-04-13T08:20:14Z</time></trkpt><trkpt lat="-28.25760979574273" lon="114.47934944219733"><ele>147.0</ele><time>2026-04-13T08:20:15Z</time></trkpt><trkpt lat="-28.257454662145435" lon="114.4790704521226"><ele>147.0</ele><time>2026-04-13T08:20:16Z</time></trkpt><trkpt lat="-28.25729656154164" lon="114.47878706951714"><ele>147.0</ele><time>2026-04-13T08:20:17Z</time></trkpt><trkpt lat="-28.25713965356898" lon="114.47850675546518"><ele>147.0</ele><time>2026-04-13T08:20:18Z</time></trkpt><trkpt lat="-28.256984677813044" lon="114.47823062531047"><ele>147.0</ele><time>2026-04-13T08:20:19Z</time></trkpt><trkpt lat="-28.2568292568194" lon="114.47795442587496"><ele>147.0</ele><time>2026-04-13T08:20:20Z</time></trkpt><trkpt lat="-28.256672845114096" lon="114.4776812875383"><ele>147.0</ele><time>2026-04-13T08:20:21Z</time></trkpt><trkpt lat="-28.256516008330824" lon="114.47740081109657"><ele>149.0</ele><time>2026-04-13T08:20:22Z</time></trkpt><trkpt lat="-28.25635873306602" lon="114.47712322268532"><ele>151.0</ele><time>2026-04-13T08:20:23Z</time></trkpt><trkpt lat="-28.256200491499353" lon="114.47684415892375"><ele>151.0</ele><time>2026-04-13T08:20:24Z</time></trkpt><trkpt lat="-28.256044945394027" lon="114.47656337622551"><ele>151.0</ele><time>2026-04-13T08:20:25Z</time></trkpt><trkpt lat="-28.255892580175505" lon="114.47628486562972"><ele>151.0</ele><time>2026-04-13T08:20:26Z</time></trkpt><trkpt lat="-28.2557428105256" lon="114.47601050184002"><ele>151.0</ele><time>2026-04-13T08:20:27Z</time></trkpt><trkpt lat="-28.255593403946808" lon="114.47573616812944"><ele>151.0</ele><time>2026-04-13T08:20:28Z</time></trkpt><trkpt lat="-28.255439400266273" lon="114.47545385577826"><ele>151.0</ele><time>2026-04-13T08:20:29Z</time></trkpt><trkpt lat="-28.255286008763512" lon="114.47517777076966"><ele>151.5</ele><time>2026-04-13T08:20:30Z</time></trkpt><trkpt lat="-28.255127978052816" lon="114.47490453893008"><ele>152.0</ele><time>2026-04-13T08:20:31Z</time></trkpt><trkpt lat="-28.254974555312135" lon="114.47463216012282"><ele>151.5</ele><time>2026-04-13T08:20:32Z</time></trkpt><trkpt lat="-28.254823442722806" lon="114.47436011210505"><ele>151.0</ele><time>2026-04-13T08:20:33Z</time></trkpt><trkpt lat="-28.254672250118453" lon="114.47408605754717"><ele>149.0</ele><time>2026-04-13T08:20:34Z</time></trkpt><trkpt lat="-28.254521591968484" lon="114.47380957507579"><ele>147.0</ele><time>2026-04-13T08:20:35Z</time></trkpt><trkpt lat="-28.2543722830369" lon="114.4735366239958"><ele>145.5</ele><time>2026-04-13T08:20:36Z</time></trkpt><trkpt lat="-28.254217174143424" lon="114.4732625868875"><ele>144.0</ele><time>2026-04-13T08:20:37Z</time></trkpt><trkpt lat="-28.25406254438688" lon="114.47298634755914"><ele>143.0</ele><time>2026-04-13T08:20:38Z</time></trkpt><trkpt lat="-28.253906562822483" lon="114.47270531736892"><ele>142.0</ele><time>2026-04-13T08:20:39Z</time></trkpt><trkpt lat="-28.253752722724922" lon="114.47242785897038"><ele>142.0</ele><time>2026-04-13T08:20:40Z</time></trkpt><trkpt lat="-28.25360084928748" lon="114.47215173760569"><ele>142.0</ele><time>2026-04-13T08:20:41Z</time></trkpt><trkpt lat="-28.25345015270799" lon="114.47187736299426"><ele>141.5</ele><time>2026-04-13T08:20:42Z</time></trkpt><trkpt lat="-28.25329990967226" lon="114.47160376282758"><ele>141.0</ele><time>2026-04-13T08:20:43Z</time></trkpt><trkpt lat="-28.25314872813019" lon="114.47133297747264"><ele>141.0</ele><time>2026-04-13T08:20:44Z</time></trkpt><trkpt lat="-28.25299529793557" lon="114.47106027955454"><ele>141.0</ele><time>2026-04-13T08:20:45Z</time></trkpt><trkpt lat="-28.25284340348646" lon="114.47078547133671"><ele>141.0</ele><time>2026-04-13T08:20:46Z</time></trkpt><trkpt lat="-28.252694430189823" lon="114.47050979182862"><ele>141.0</ele><time>2026-04-13T08:20:47Z</time></trkpt><trkpt lat="-28.252543627523107" lon="114.47023503338049"><ele>139.5</ele><time>2026-04-13T08:20:48Z</time></trkpt><trkpt lat="-28.252392564016453" lon="114.46996151000498"><ele>138.0</ele><time>2026-04-13T08:20:49Z</time></trkpt><trkpt lat="-28.252242529063672" lon="114.46968631128149"><ele>136.0</ele><time>2026-04-13T08:20:50Z</time></trkpt><trkpt lat="-28.25209173463318" lon="114.46941127260044"><ele>134.0</ele><time>2026-04-13T08:20:51Z</time></trkpt><trkpt lat="-28.251942710302878" lon="114.46914055933875"><ele>134.0</ele><time>2026-04-13T08:20:52Z</time></trkpt><trkpt lat="-28.25179864811583" lon="114.46887954841343"><ele>134.0</ele><time>2026-04-13T08:20:53Z</time></trkpt><trkpt lat="-28.251657046531935" lon="114.46861934042036"><ele>133.5</ele><time>2026-04-13T08:20:54Z</time></trkpt><trkpt lat="-28.251514361501236" lon="114.46836191381342"><ele>133.0</ele><time>2026-04-13T08:20:55Z</time></trkpt><trkpt lat="-28.251370889810275" lon="114.46810525074987"><ele>135.5</ele><time>2026-04-13T08:20:56Z</time></trkpt><trkpt lat="-28.25122419068959" lon="114.46784545557247"><ele>138.0</ele><time>2026-04-13T08:20:57Z</time></trkpt><trkpt lat="-28.251076462373106" lon="114.46758533368559"><ele>138.0</ele><time>2026-04-13T08:20:58Z</time></trkpt><trkpt lat="-28.250932669466703" lon="114.46732389466538"><ele>138.0</ele><time>2026-04-13T08:20:59Z</time></trkpt><trkpt lat="-28.250791792801593" lon="114.46706490017685"><ele>138.0</ele><time>2026-04-13T08:21:00Z</time></trkpt><trkpt lat="-28.250651248783743" lon="114.46680711866966"><ele>138.0</ele><time>2026-04-13T08:21:01Z</time></trkpt><trkpt lat="-28.250512677773866" lon="114.46655765889298"><ele>138.0</ele><time>2026-04-13T08:21:02Z</time></trkpt><trkpt lat="-28.250372144805418" lon="114.46630214228779"><ele>138.0</ele><time>2026-04-13T08:21:03Z</time></trkpt><trkpt lat="-28.250226012754414" lon="114.46604100949722"><ele>137.0</ele><time>2026-04-13T08:21:04Z</time></trkpt><trkpt lat="-28.250078386391195" lon="114.46577239676148"><ele>136.0</ele><time>2026-04-13T08:21:05Z</time></trkpt><trkpt lat="-28.249930406879578" lon="114.46550505436927"><ele>135.5</ele><time>2026-04-13T08:21:06Z</time></trkpt><trkpt lat="-28.249779081266766" lon="114.46523203534291"><ele>135.0</ele><time>2026-04-13T08:21:07Z</time></trkpt><trkpt lat="-28.249625278487652" lon="114.46496087572945"><ele>135.0</ele><time>2026-04-13T08:21:08Z</time></trkpt><trkpt lat="-28.249497362014342" lon="114.46466528882176"><ele>135.0</ele><time>2026-04-13T08:21:09Z</time></trkpt><trkpt lat="-28.249341322525574" lon="114.46438402207086"><ele>133.5</ele><time>2026-04-13T08:21:10Z</time></trkpt><trkpt lat="-28.249185467905594" lon="114.46410332574565"><ele>132.0</ele><time>2026-04-13T08:21:11Z</time></trkpt><trkpt lat="-28.24902670701941" lon="114.46381965705794"><ele>133.5</ele><time>2026-04-13T08:21:12Z</time></trkpt><trkpt lat="-28.24886826463643" lon="114.46353489588405"><ele>135.0</ele><time>2026-04-13T08:21:13Z</time></trkpt><trkpt lat="-28.248710456074267" lon="114.4632550616824"><ele>135.0</ele><time>2026-04-13T08:21:14Z</time></trkpt><trkpt lat="-28.248558094277108" lon="114.46298739559879"><ele>135.0</ele><time>2026-04-13T08:21:15Z</time></trkpt><trkpt lat="-28.248413207639516" lon="114.46273429159868"><ele>134.0</ele><time>2026-04-13T08:21:16Z</time></trkpt><trkpt lat="-28.24828223780045" lon="114.46250333748917"><ele>133.0</ele><time>2026-04-13T08:21:17Z</time></trkpt><trkpt lat="-28.24815665602316" lon="114.46228828820887"><ele>133.0</ele><time>2026-04-13T08:21:18Z</time></trkpt><trkpt lat="-28.24802622608984" lon="114.46208714592328"><ele>133.0</ele><time>2026-04-13T08:21:19Z</time></trkpt><trkpt lat="-28.247880643620697" lon="114.46189564006593"><ele>133.0</ele><time>2026-04-13T08:21:20Z</time></trkpt><trkpt lat="-28.24771838491757" lon="114.46170504382725"><ele>133.0</ele><time>2026-04-13T08:21:21Z</time></trkpt><trkpt lat="-28.247538594083576" lon="114.4615198144785"><ele>133.0</ele><time>2026-04-13T08:21:22Z</time></trkpt><trkpt lat="-28.247336766545466" lon="114.46135627727273"><ele>134.0</ele><time>2026-04-13T08:21:23Z</time></trkpt><trkpt lat="-28.24714574645179" lon="114.46116670609435"><ele>135.0</ele><time>2026-04-13T08:21:24Z</time></trkpt><trkpt lat="-28.246934499751177" lon="114.46099423262092"><ele>135.0</ele><time>2026-04-13T08:21:25Z</time></trkpt><trkpt lat="-28.246714138881416" lon="114.46082179402379"><ele>135.0</ele><time>2026-04-13T08:21:26Z</time></trkpt><trkpt lat="-28.246488393099057" lon="114.46064964811636"><ele>135.5</ele><time>2026-04-13T08:21:27Z</time></trkpt><trkpt lat="-28.2462606886579" lon="114.46047515859365"><ele>136.0</ele><time>2026-04-13T08:21:28Z</time></trkpt><trkpt lat="-28.24602789482491" lon="114.46029304078868"><ele>135.5</ele><time>2026-04-13T08:21:29Z</time></trkpt><trkpt lat="-28.24579528459899" lon="114.46010832430906"><ele>135.0</ele><time>2026-04-13T08:21:30Z</time></trkpt><trkpt lat="-28.245566347028653" lon="114.45992709510581"><ele>135.0</ele><time>2026-04-13T08:21:31Z</time></trkpt><trkpt lat="-28.2453420680213" lon="114.4597536157396"><ele>135.0</ele><time>2026-04-13T08:21:32Z</time></trkpt><trkpt lat="-28.24513090548569" lon="114.45959887610314"><ele>134.66666666666666</ele><time>2026-04-13T08:21:33Z</time></trkpt><trkpt lat="-28.2449437209956" lon="114.45946559631473"><ele>134.33333333333331</ele><time>2026-04-13T08:21:34Z</time></trkpt><trkpt lat="-28.24476434735395" lon="114.45936822590163"><ele>134.0</ele><time>2026-04-13T08:21:35Z</time></trkpt><trkpt lat="-28.244605327151742" lon="114.4592776087911"><ele>134.0</ele><time>2026-04-13T08:21:36Z</time></trkpt><trkpt lat="-28.244429431748017" lon="114.45920528261958"><ele>134.0</ele><time>2026-04-13T08:21:37Z</time></trkpt><trkpt lat="-28.24422711305971" lon="114.45914840234566"><ele>134.0</ele><time>2026-04-13T08:21:38Z</time></trkpt><trkpt lat="-28.24400994979013" lon="114.45910927553984"><ele>135.0</ele><time>2026-04-13T08:21:39Z</time></trkpt><trkpt lat="-28.243779919693498" lon="114.45907843264504"><ele>136.0</ele><time>2026-04-13T08:21:40Z</time></trkpt><trkpt lat="-28.243539636315685" lon="114.45903510768184"><ele>136.0</ele><time>2026-04-13T08:21:41Z</time></trkpt><trkpt lat="-28.243292539017332" lon="114.45900212393016"><ele>136.0</ele><time>2026-04-13T08:21:42Z</time></trkpt><trkpt lat="-28.2430409652841" lon="114.45897013357153"><ele>137.0</ele><time>2026-04-13T08:21:43Z</time></trkpt><trkpt lat="-28.242786959319382" lon="114.45893925197709"><ele>138.0</ele><time>2026-04-13T08:21:44Z</time></trkpt><trkpt lat="-28.242533556423872" lon="114.45890743378833"><ele>139.0</ele><time>2026-04-13T08:21:45Z</time></trkpt><trkpt lat="-28.242285041790083" lon="114.45887743684065"><ele>140.0</ele><time>2026-04-13T08:21:46Z</time></trkpt><trkpt lat="-28.242039929209955" lon="114.45884784206825"><ele>140.0</ele><time>2026-04-13T08:21:47Z</time></trkpt><trkpt lat="-28.241799664020135" lon="114.45881956267354"><ele>140.0</ele><time>2026-04-13T08:21:48Z</time></trkpt><trkpt lat="-28.24156276093266" lon="114.45880523311278"><ele>137.5</ele><time>2026-04-13T08:21:49Z</time></trkpt><trkpt lat="-28.241320055201754" lon="114.45877344167847"><ele>135.0</ele><time>2026-04-13T08:21:50Z</time></trkpt><trkpt lat="-28.24107033421391" lon="114.4587421207162"><ele>137.0</ele><time>2026-04-13T08:21:51Z</time></trkpt><trkpt lat="-28.240556611111277" lon="114.45867665224374"><ele>137.0</ele><time>2026-04-13T08:21:53Z</time></trkpt><trkpt lat="-28.240299468234856" lon="114.4586423911072"><ele>137.0</ele><time>2026-04-13T08:21:54Z</time></trkpt><trkpt lat="-28.240054767613863" lon="114.45861039316054"><ele>138.0</ele><time>2026-04-13T08:21:55Z</time></trkpt><trkpt lat="-28.239799435944548" lon="114.45857671301619"><ele>139.0</ele><time>2026-04-13T08:21:56Z</time></trkpt><trkpt lat="-28.239528285894412" lon="114.45854281397116"><ele>139.0</ele><time>2026-04-13T08:21:57Z</time></trkpt><trkpt lat="-28.239248835979225" lon="114.45850784043073"><ele>139.0</ele><time>2026-04-13T08:21:58Z</time></trkpt><trkpt lat="-28.238963730487164" lon="114.4584719153543"><ele>140.5</ele><time>2026-04-13T08:21:59Z</time></trkpt><trkpt lat="-28.238683823474968" lon="114.45843320681395"><ele>142.0</ele><time>2026-04-13T08:22:00Z</time></trkpt><trkpt lat="-28.238403380759248" lon="114.45839205688726"><ele>143.0</ele><time>2026-04-13T08:22:01Z</time></trkpt><trkpt lat="-28.238124326913745" lon="114.45834662066787"><ele>144.0</ele><time>2026-04-13T08:22:02Z</time></trkpt><trkpt lat="-28.237853634026486" lon="114.45827741085247"><ele>144.0</ele><time>2026-04-13T08:22:03Z</time></trkpt><trkpt lat="-28.23758438020476" lon="114.45822676304853"><ele>144.0</ele><time>2026-04-13T08:22:04Z</time></trkpt><trkpt lat="-28.237311165311606" lon="114.45817525749463"><ele>143.5</ele><time>2026-04-13T08:22:05Z</time></trkpt><trkpt lat="-28.237032415068494" lon="114.45812225776902"><ele>143.0</ele><time>2026-04-13T08:22:06Z</time></trkpt><trkpt lat="-28.23674738922795" lon="114.45806652899276"><ele>142.5</ele><time>2026-04-13T08:22:07Z</time></trkpt><trkpt lat="-28.236462141086957" lon="114.45801075583101"><ele>142.0</ele><time>2026-04-13T08:22:08Z</time></trkpt><trkpt lat="-28.236178985922294" lon="114.45795539152203"><ele>141.0</ele><time>2026-04-13T08:22:09Z</time></trkpt><trkpt lat="-28.23590296134886" lon="114.45790275859846"><ele>140.0</ele><time>2026-04-13T08:22:10Z</time></trkpt><trkpt lat="-28.235646475629725" lon="114.45788084455651"><ele>140.0</ele><time>2026-04-13T08:22:11Z</time></trkpt><trkpt lat="-28.235419133763248" lon="114.45783900225291"><ele>140.0</ele><time>2026-04-13T08:22:12Z</time></trkpt><trkpt lat="-28.235221792540994" lon="114.45779915517733"><ele>140.0</ele><time>2026-04-13T08:22:13Z</time></trkpt><trkpt lat="-28.235049244218956" lon="114.45776549084084"><ele>140.0</ele><time>2026-04-13T08:22:14Z</time></trkpt><trkpt lat="-28.234910420054334" lon="114.45773657738324"><ele>140.0</ele><time>2026-04-13T08:22:15Z</time></trkpt><trkpt lat="-28.23480542818328" lon="114.45771406568734"><ele>140.0</ele><time>2026-04-13T08:22:16Z</time></trkpt><trkpt lat="-28.23472577833445" lon="114.4576905057108"><ele>140.0</ele><time>2026-04-13T08:22:17Z</time></trkpt><trkpt lat="-28.23465450356768" lon="114.45764781024884"><ele>140.0</ele><time>2026-04-13T08:22:18Z</time></trkpt><trkpt lat="-28.234597397315333" lon="114.45758077515546"><ele>139.25</ele><time>2026-04-13T08:22:19Z</time></trkpt><trkpt lat="-28.234563425379207" lon="114.45748406860893"><ele>138.5</ele><time>2026-04-13T08:22:20Z</time></trkpt><trkpt lat="-28.2345525865542" lon="114.45736824851194"><ele>137.75</ele><time>2026-04-13T08:22:21Z</time></trkpt><trkpt lat="-28.234554285265215" lon="114.45722997588523"><ele>137.0</ele><time>2026-04-13T08:22:22Z</time></trkpt><trkpt lat="-28.23455685033882" lon="114.45706739793897"><ele>135.33333333333331</ele><time>2026-04-13T08:22:23Z</time></trkpt><trkpt lat="-28.234567278248548" lon="114.45687389583493"><ele>133.66666666666666</ele><time>2026-04-13T08:22:24Z</time></trkpt><trkpt lat="-28.234578398202434" lon="114.45664698669634"><ele>132.0</ele><time>2026-04-13T08:22:25Z</time></trkpt><trkpt lat="-28.234586102337904" lon="114.45640651972022"><ele>133.0</ele><time>2026-04-13T08:22:26Z</time></trkpt><trkpt lat="-28.23459107089676" lon="114.45615202600224"><ele>134.0</ele><time>2026-04-13T08:22:27Z</time></trkpt><trkpt lat="-28.234591587219946" lon="114.4558824982912"><ele>134.0</ele><time>2026-04-13T08:22:28Z</time></trkpt><trkpt lat="-28.23459214363765" lon="114.45561138489619"><ele>134.0</ele><time>2026-04-13T08:22:29Z</time></trkpt><trkpt lat="-28.234596220772175" lon="114.45533772407866"><ele>136.5</ele><time>2026-04-13T08:22:30Z</time></trkpt><trkpt lat="-28.234600432062056" lon="114.45505093335044"><ele>139.0</ele><time>2026-04-13T08:22:31Z</time></trkpt><trkpt lat="-28.23459987111972" lon="114.45475608819973"><ele>138.5</ele><time>2026-04-13T08:22:32Z</time></trkpt><trkpt lat="-28.23459780975982" lon="114.45447501691051"><ele>138.0</ele><time>2026-04-13T08:22:33Z</time></trkpt><trkpt lat="-28.23459709305895" lon="114.45419446895716"><ele>138.0</ele><time>2026-04-13T08:22:34Z</time></trkpt><trkpt lat="-28.234597343375896" lon="114.453910507759"><ele>138.0</ele><time>2026-04-13T08:22:35Z</time></trkpt><trkpt lat="-28.234598532758568" lon="114.45362669079937"><ele>134.0</ele><time>2026-04-13T08:22:36Z</time></trkpt><trkpt lat="-28.234598868589156" lon="114.4533443388988"><ele>130.0</ele><time>2026-04-13T08:22:37Z</time></trkpt><trkpt lat="-28.234597904952423" lon="114.45306111646343"><ele>130.5</ele><time>2026-04-13T08:22:38Z</time></trkpt><trkpt lat="-28.234598017625334" lon="114.45277734056894"><ele>131.0</ele><time>2026-04-13T08:22:39Z</time></trkpt><trkpt lat="-28.234599258794933" lon="114.45248940011743"><ele>131.0</ele><time>2026-04-13T08:22:40Z</time></trkpt><trkpt lat="-28.23460059840522" lon="114.45221185010384"><ele>131.0</ele><time>2026-04-13T08:22:41Z</time></trkpt><trkpt lat="-28.234601417329976" lon="114.45193163264626"><ele>131.0</ele><time>2026-04-13T08:22:42Z</time></trkpt><trkpt lat="-28.234603476865818" lon="114.4516571174544"><ele>131.0</ele><time>2026-04-13T08:22:43Z</time></trkpt><trkpt lat="-28.234606492730176" lon="114.45138200370903"><ele>130.0</ele><time>2026-04-13T08:22:44Z</time></trkpt><trkpt lat="-28.234608475439924" lon="114.45110735869397"><ele>129.0</ele><time>2026-04-13T08:22:45Z</time></trkpt><trkpt lat="-28.23460600346951" lon="114.45084017631856"><ele>129.0</ele><time>2026-04-13T08:22:46Z</time></trkpt><trkpt lat="-28.234600146804176" lon="114.45056860993127"><ele>129.0</ele><time>2026-04-13T08:22:47Z</time></trkpt><trkpt lat="-28.23459304115287" lon="114.45030051315197"><ele>131.0</ele><time>2026-04-13T08:22:48Z</time></trkpt><trkpt lat="-28.234588502139985" lon="114.45002968069652"><ele>133.0</ele><time>2026-04-13T08:22:49Z</time></trkpt><trkpt lat="-28.23458494187781" lon="114.44976059890392"><ele>131.0</ele><time>2026-04-13T08:22:50Z</time></trkpt><trkpt lat="-28.234582129189814" lon="114.44949513587868"><ele>129.0</ele><time>2026-04-13T08:22:51Z</time></trkpt><trkpt lat="-28.23458830756604" lon="114.4492324012215"><ele>129.0</ele><time>2026-04-13T08:22:52Z</time></trkpt><trkpt lat="-28.23459335785808" lon="114.44896403059123"><ele>129.0</ele><time>2026-04-13T08:22:53Z</time></trkpt><trkpt lat="-28.23459529200147" lon="114.44868760258018"><ele>128.5</ele><time>2026-04-13T08:22:54Z</time></trkpt><trkpt lat="-28.23459472037472" lon="114.44841361473193"><ele>128.0</ele><time>2026-04-13T08:22:55Z</time></trkpt><trkpt lat="-28.23459363852872" lon="114.44813296850805"><ele>126.5</ele><time>2026-04-13T08:22:56Z</time></trkpt><trkpt lat="-28.234593020771865" lon="114.44785245057167"><ele>125.0</ele><time>2026-04-13T08:22:57Z</time></trkpt><trkpt lat="-28.234593217664223" lon="114.44756828595547"><ele>125.0</ele><time>2026-04-13T08:22:58Z</time></trkpt><trkpt lat="-28.23459028999794" lon="114.44727864530255"><ele>125.0</ele><time>2026-04-13T08:22:59Z</time></trkpt><trkpt lat="-28.234590382837695" lon="114.44699277281504"><ele>125.5</ele><time>2026-04-13T08:23:00Z</time></trkpt><trkpt lat="-28.234590866406954" lon="114.44669911307116"><ele>126.0</ele><time>2026-04-13T08:23:01Z</time></trkpt><trkpt lat="-28.23459052080782" lon="114.44640494175206"><ele>126.0</ele><time>2026-04-13T08:23:02Z</time></trkpt><trkpt lat="-28.23459442229807" lon="114.44610376184458"><ele>126.0</ele><time>2026-04-13T08:23:03Z</time></trkpt><trkpt lat="-28.234596875897523" lon="114.44580321768885"><ele>126.0</ele><time>2026-04-13T08:23:04Z</time></trkpt><trkpt lat="-28.234595944643683" lon="114.4455023442585"><ele>126.0</ele><time>2026-04-13T08:23:05Z</time></trkpt><trkpt lat="-28.234596081706528" lon="114.44520213718502"><ele>125.5</ele><time>2026-04-13T08:23:06Z</time></trkpt><trkpt lat="-28.234599027630093" lon="114.44490444831298"><ele>125.0</ele><time>2026-04-13T08:23:07Z</time></trkpt><trkpt lat="-28.2346005318186" lon="114.44460863387793"><ele>125.0</ele><time>2026-04-13T08:23:08Z</time></trkpt><trkpt lat="-28.234601614899066" lon="114.44431130554412"><ele>125.0</ele><time>2026-04-13T08:23:09Z</time></trkpt><trkpt lat="-28.234600953637326" lon="114.44401688572552"><ele>125.5</ele><time>2026-04-13T08:23:10Z</time></trkpt><trkpt lat="-28.234600045179523" lon="114.4437176864594"><ele>126.0</ele><time>2026-04-13T08:23:11Z</time></trkpt><trkpt lat="-28.23459814675083" lon="114.44341798415887"><ele>126.0</ele><time>2026-04-13T08:23:12Z</time></trkpt><trkpt lat="-28.23459583787039" lon="114.44311514367034"><ele>126.0</ele><time>2026-04-13T08:23:13Z</time></trkpt><trkpt lat="-28.234595952960884" lon="114.44281724116159"><ele>124.0</ele><time>2026-04-13T08:23:14Z</time></trkpt><trkpt lat="-28.234600093705374" lon="114.44251410356534"><ele>122.0</ele><time>2026-04-13T08:23:15Z</time></trkpt><trkpt lat="-28.23464529411443" lon="114.4422086331292"><ele>122.0</ele><time>2026-04-13T08:23:16Z</time></trkpt><trkpt lat="-28.234645492917732" lon="114.44190417630857"><ele>122.0</ele><time>2026-04-13T08:23:17Z</time></trkpt><trkpt lat="-28.234645761157473" lon="114.44159369006701"><ele>122.0</ele><time>2026-04-13T08:23:18Z</time></trkpt><trkpt lat="-28.234646415693735" lon="114.4412842037924"><ele>122.0</ele><time>2026-04-13T08:23:19Z</time></trkpt><trkpt lat="-28.23464686580019" lon="114.44097716908375"><ele>122.0</ele><time>2026-04-13T08:23:20Z</time></trkpt><trkpt lat="-28.234647833359812" lon="114.4406678727695"><ele>122.0</ele><time>2026-04-13T08:23:21Z</time></trkpt><trkpt lat="-28.23464789292123" lon="114.44035782837871"><ele>121.5</ele><time>2026-04-13T08:23:22Z</time></trkpt><trkpt lat="-28.234648242892515" lon="114.44003983275122"><ele>121.0</ele><time>2026-04-13T08:23:23Z</time></trkpt><trkpt lat="-28.234648980400728" lon="114.43971468918673"><ele>121.0</ele><time>2026-04-13T08:23:24Z</time></trkpt><trkpt lat="-28.234649725754362" lon="114.43938608700269"><ele>121.0</ele><time>2026-04-13T08:23:25Z</time></trkpt><trkpt lat="-28.234650192928832" lon="114.43905944070221"><ele>118.0</ele><time>2026-04-13T08:23:26Z</time></trkpt><trkpt lat="-28.234651392929866" lon="114.43873428381492"><ele>115.0</ele><time>2026-04-13T08:23:27Z</time></trkpt><trkpt lat="-28.234651392930974" lon="114.43840870090442"><ele>115.0</ele><time>2026-04-13T08:23:28Z</time></trkpt><trkpt lat="-28.234651983951945" lon="114.43808791433143"><ele>115.0</ele><time>2026-04-13T08:23:29Z</time></trkpt><trkpt lat="-28.234652592934484" lon="114.43776009332328"><ele>115.0</ele><time>2026-04-13T08:23:30Z</time></trkpt><trkpt lat="-28.234653792936513" lon="114.43744540383877"><ele>115.0</ele><time>2026-04-13T08:23:31Z</time></trkpt><trkpt lat="-28.23465423420753" lon="114.43712646891748"><ele>113.5</ele><time>2026-04-13T08:23:32Z</time></trkpt><trkpt lat="-28.234654801042645" lon="114.43680924801362"><ele>112.0</ele><time>2026-04-13T08:23:33Z</time></trkpt><trkpt lat="-28.234655527057384" lon="114.43649503289868"><ele>110.0</ele><time>2026-04-13T08:23:34Z</time></trkpt><trkpt lat="-28.234656461137412" lon="114.43618465874046"><ele>108.0</ele><time>2026-04-13T08:23:35Z</time></trkpt><trkpt lat="-28.23465725579085" lon="114.43587113533313"><ele>108.0</ele><time>2026-04-13T08:23:36Z</time></trkpt><trkpt lat="-28.23465804616444" lon="114.43555930043446"><ele>108.0</ele><time>2026-04-13T08:23:37Z</time></trkpt><trkpt lat="-28.23465849294599" lon="114.4352440279495"><ele>109.5</ele><time>2026-04-13T08:23:38Z</time></trkpt><trkpt lat="-28.2346591921021" lon="114.43493446394837"><ele>111.0</ele><time>2026-04-13T08:23:39Z</time></trkpt><trkpt lat="-28.23465998217771" lon="114.43462758578258"><ele>111.0</ele><time>2026-04-13T08:23:40Z</time></trkpt><trkpt lat="-28.234660780466776" lon="114.43431751700362"><ele>111.0</ele><time>2026-04-13T08:23:41Z</time></trkpt><trkpt lat="-28.23466144343028" lon="114.43401269437827"><ele>111.0</ele><time>2026-04-13T08:23:42Z</time></trkpt><trkpt lat="-28.23466199295077" lon="114.43370802237709"><ele>111.0</ele><time>2026-04-13T08:23:43Z</time></trkpt><trkpt lat="-28.234662928699994" lon="114.43339820168173"><ele>111.0</ele><time>2026-04-13T08:23:44Z</time></trkpt><trkpt lat="-28.234663272510602" lon="114.43308754509192"><ele>111.0</ele><time>2026-04-13T08:23:45Z</time></trkpt><trkpt lat="-28.234664267252317" lon="114.43277884382883"><ele>109.0</ele><time>2026-04-13T08:23:46Z</time></trkpt><trkpt lat="-28.234665280785634" lon="114.4324643108947"><ele>107.0</ele><time>2026-04-13T08:23:47Z</time></trkpt><trkpt lat="-28.23466629842726" lon="114.43214850314641"><ele>108.0</ele><time>2026-04-13T08:23:48Z</time></trkpt><trkpt lat="-28.234667335466465" lon="114.4318384169998"><ele>109.0</ele><time>2026-04-13T08:23:49Z</time></trkpt><trkpt lat="-28.234668409243586" lon="114.43152842248168"><ele>108.0</ele><time>2026-04-13T08:23:50Z</time></trkpt><trkpt lat="-28.23466943203806" lon="114.43122245729027"><ele>107.0</ele><time>2026-04-13T08:23:51Z</time></trkpt><trkpt lat="-28.23467041051583" lon="114.4309091411471"><ele>107.0</ele><time>2026-04-13T08:23:52Z</time></trkpt><trkpt lat="-28.23467137741037" lon="114.43059953400423"><ele>107.0</ele><time>2026-04-13T08:23:53Z</time></trkpt><trkpt lat="-28.234671901845676" lon="114.4302863364505"><ele>107.5</ele><time>2026-04-13T08:23:54Z</time></trkpt><trkpt lat="-28.23467288605547" lon="114.42997615442955"><ele>108.0</ele><time>2026-04-13T08:23:55Z</time></trkpt><trkpt lat="-28.234674102862346" lon="114.4296729975486"><ele>107.0</ele><time>2026-04-13T08:23:56Z</time></trkpt><trkpt lat="-28.234674943015506" lon="114.42936683240693"><ele>106.0</ele><time>2026-04-13T08:23:57Z</time></trkpt><trkpt lat="-28.234676336235065" lon="114.42906135270918"><ele>104.5</ele><time>2026-04-13T08:23:58Z</time></trkpt><trkpt lat="-28.23467713645383" lon="114.42875987123121"><ele>103.0</ele><time>2026-04-13T08:23:59Z</time></trkpt><trkpt lat="-28.234678474489975" lon="114.42846020180754"><ele>103.0</ele><time>2026-04-13T08:24:00Z</time></trkpt><trkpt lat="-28.234680095192566" lon="114.42816377057247"><ele>103.0</ele><time>2026-04-13T08:24:01Z</time></trkpt><trkpt lat="-28.234681317414495" lon="114.42786586181873"><ele>102.5</ele><time>2026-04-13T08:24:02Z</time></trkpt><trkpt lat="-28.234682244595128" lon="114.42757518203979"><ele>102.0</ele><time>2026-04-13T08:24:03Z</time></trkpt><trkpt lat="-28.234683578340046" lon="114.42729012585046"><ele>102.5</ele><time>2026-04-13T08:24:04Z</time></trkpt><trkpt lat="-28.234685061566868" lon="114.42700566227236"><ele>103.0</ele><time>2026-04-13T08:24:05Z</time></trkpt><trkpt lat="-28.23468653376934" lon="114.42672331267951"><ele>103.0</ele><time>2026-04-13T08:24:06Z</time></trkpt><trkpt lat="-28.23468800968765" lon="114.42644136421455"><ele>103.0</ele><time>2026-04-13T08:24:07Z</time></trkpt><trkpt lat="-28.234690316430715" lon="114.42614879241638"><ele>102.0</ele><time>2026-04-13T08:24:08Z</time></trkpt><trkpt lat="-28.23469128603409" lon="114.4258535524889"><ele>101.0</ele><time>2026-04-13T08:24:09Z</time></trkpt><trkpt lat="-28.2346927526248" lon="114.42554807533372"><ele>102.5</ele><time>2026-04-13T08:24:10Z</time></trkpt><trkpt lat="-28.234693461970963" lon="114.42523883186455"><ele>104.0</ele><time>2026-04-13T08:24:11Z</time></trkpt><trkpt lat="-28.2346943951604" lon="114.42492770843748"><ele>106.5</ele><time>2026-04-13T08:24:12Z</time></trkpt><trkpt lat="-28.234694041639198" lon="114.42461509144637"><ele>109.0</ele><time>2026-04-13T08:24:13Z</time></trkpt><trkpt lat="-28.234690551878263" lon="114.42430472655286"><ele>109.0</ele><time>2026-04-13T08:24:14Z</time></trkpt><trkpt lat="-28.234681481326067" lon="114.42399562396545"><ele>109.0</ele><time>2026-04-13T08:24:15Z</time></trkpt><trkpt lat="-28.23465792729823" lon="114.42368660426963"><ele>107.5</ele><time>2026-04-13T08:24:16Z</time></trkpt><trkpt lat="-28.234656216700493" lon="114.42337807165661"><ele>106.0</ele><time>2026-04-13T08:24:17Z</time></trkpt><trkpt lat="-28.23464917724564" lon="114.42307036912436"><ele>105.0</ele><time>2026-04-13T08:24:18Z</time></trkpt><trkpt lat="-28.234642327748073" lon="114.42275730276164"><ele>104.0</ele><time>2026-04-13T08:24:19Z</time></trkpt><trkpt lat="-28.23463310039209" lon="114.42244954403152"><ele>104.0</ele><time>2026-04-13T08:24:20Z</time></trkpt><trkpt lat="-28.234629210611125" lon="114.42216661236098"><ele>104.0</ele><time>2026-04-13T08:24:21Z</time></trkpt><trkpt lat="-28.2346369114357" lon="114.42190174116742"><ele>103.66666666666666</ele><time>2026-04-13T08:24:22Z</time></trkpt><trkpt lat="-28.234657284271613" lon="114.42165030455752"><ele>103.33333333333334</ele><time>2026-04-13T08:24:23Z</time></trkpt><trkpt lat="-28.234685473777347" lon="114.42140445593257"><ele>103.0</ele><time>2026-04-13T08:24:24Z</time></trkpt><trkpt lat="-28.23472637643252" lon="114.42115677870032"><ele>101.0</ele><time>2026-04-13T08:24:25Z</time></trkpt><trkpt lat="-28.234780024419162" lon="114.4208949079746"><ele>99.0</ele><time>2026-04-13T08:24:26Z</time></trkpt><trkpt lat="-28.234839509324953" lon="114.42062546648471"><ele>98.0</ele><time>2026-04-13T08:24:27Z</time></trkpt><trkpt lat="-28.23490374645595" lon="114.4203491044221"><ele>97.0</ele><time>2026-04-13T08:24:28Z</time></trkpt><trkpt lat="-28.234973817331902" lon="114.4200697268959"><ele>97.0</ele><time>2026-04-13T08:24:29Z</time></trkpt><trkpt lat="-28.23504921297042" lon="114.41978947006443"><ele>97.0</ele><time>2026-04-13T08:24:30Z</time></trkpt><trkpt lat="-28.23513028928489" lon="114.41950836157102"><ele>96.5</ele><time>2026-04-13T08:24:31Z</time></trkpt><trkpt lat="-28.235212094514644" lon="114.41922909271109"><ele>96.0</ele><time>2026-04-13T08:24:32Z</time></trkpt><trkpt lat="-28.235291340673257" lon="114.41894839680778"><ele>94.0</ele><time>2026-04-13T08:24:33Z</time></trkpt><trkpt lat="-28.235373441273794" lon="114.4186759027043"><ele>92.0</ele><time>2026-04-13T08:24:34Z</time></trkpt><trkpt lat="-28.235453643567567" lon="114.41840793046204"><ele>92.0</ele><time>2026-04-13T08:24:35Z</time></trkpt><trkpt lat="-28.23552911593812" lon="114.41814551351862"><ele>92.0</ele><time>2026-04-13T08:24:36Z</time></trkpt><trkpt lat="-28.235604583344294" lon="114.41788421258309"><ele>88.5</ele><time>2026-04-13T08:24:37Z</time></trkpt><trkpt lat="-28.23567863816526" lon="114.41762780384394"><ele>85.0</ele><time>2026-04-13T08:24:38Z</time></trkpt><trkpt lat="-28.235749905659606" lon="114.41737889351258"><ele>84.33333333333333</ele><time>2026-04-13T08:24:39Z</time></trkpt><trkpt lat="-28.23582103600758" lon="114.41713504257083"><ele>83.66666666666667</ele><time>2026-04-13T08:24:40Z</time></trkpt><trkpt lat="-28.23589149818465" lon="114.41690082774147"><ele>83.0</ele><time>2026-04-13T08:24:41Z</time></trkpt><trkpt lat="-28.235960446378996" lon="114.41667506008075"><ele>83.0</ele><time>2026-04-13T08:24:42Z</time></trkpt><trkpt lat="-28.236030231057807" lon="114.4164485072694"><ele>83.0</ele><time>2026-04-13T08:24:43Z</time></trkpt><trkpt lat="-28.23609488934455" lon="114.41622157934658"><ele>83.0</ele><time>2026-04-13T08:24:44Z</time></trkpt><trkpt lat="-28.236154628383222" lon="114.41600349790068"><ele>83.33333333333334</ele><time>2026-04-13T08:24:45Z</time></trkpt><trkpt lat="-28.23621900501553" lon="114.41578108060283"><ele>83.66666666666667</ele><time>2026-04-13T08:24:46Z</time></trkpt><trkpt lat="-28.236284543716256" lon="114.4155570248806"><ele>84.0</ele><time>2026-04-13T08:24:47Z</time></trkpt><trkpt lat="-28.236353019396628" lon="114.41532225974657"><ele>84.0</ele><time>2026-04-13T08:24:48Z</time></trkpt><trkpt lat="-28.2364207133874" lon="114.4150921981991"><ele>84.0</ele><time>2026-04-13T08:24:49Z</time></trkpt><trkpt lat="-28.23648760079597" lon="114.41486316312744"><ele>84.0</ele><time>2026-04-13T08:24:50Z</time></trkpt><trkpt lat="-28.23655359453338" lon="114.41462711332935"><ele>84.0</ele><time>2026-04-13T08:24:51Z</time></trkpt><trkpt lat="-28.236623773016014" lon="114.4143748547644"><ele>84.0</ele><time>2026-04-13T08:24:52Z</time></trkpt><trkpt lat="-28.236693089838262" lon="114.41411949410144"><ele>84.0</ele><time>2026-04-13T08:24:53Z</time></trkpt><trkpt lat="-28.236766387068613" lon="114.41386507133002"><ele>84.0</ele><time>2026-04-13T08:24:54Z</time></trkpt><trkpt lat="-28.236843244180395" lon="114.41361036554872"><ele>84.5</ele><time>2026-04-13T08:24:55Z</time></trkpt><trkpt lat="-28.236921898437107" lon="114.41335005018233"><ele>85.0</ele><time>2026-04-13T08:24:56Z</time></trkpt><trkpt lat="-28.236996100225937" lon="114.41308905804678"><ele>86.0</ele><time>2026-04-13T08:24:57Z</time></trkpt><trkpt lat="-28.23706963860812" lon="114.41282552197694"><ele>87.0</ele><time>2026-04-13T08:24:58Z</time></trkpt><trkpt lat="-28.23714583144935" lon="114.41256439352908"><ele>87.0</ele><time>2026-04-13T08:24:59Z</time></trkpt><trkpt lat="-28.237224386508235" lon="114.41229899929027"><ele>87.0</ele><time>2026-04-13T08:25:00Z</time></trkpt><trkpt lat="-28.23730047759693" lon="114.41204066842984"><ele>87.5</ele><time>2026-04-13T08:25:01Z</time></trkpt><trkpt lat="-28.237376087056024" lon="114.41178088001783"><ele>88.0</ele><time>2026-04-13T08:25:02Z</time></trkpt><trkpt lat="-28.237449786029252" lon="114.41152843026946"><ele>88.0</ele><time>2026-04-13T08:25:03Z</time></trkpt><trkpt lat="-28.23752117007507" lon="114.41127468290475"><ele>88.0</ele><time>2026-04-13T08:25:04Z</time></trkpt><trkpt lat="-28.237590323510545" lon="114.41102551757437"><ele>88.0</ele><time>2026-04-13T08:25:05Z</time></trkpt><trkpt lat="-28.237660744508506" lon="114.41078282695864"><ele>88.0</ele><time>2026-04-13T08:25:06Z</time></trkpt><trkpt lat="-28.23773738283779" lon="114.41053155024348"><ele>89.0</ele><time>2026-04-13T08:25:07Z</time></trkpt><trkpt lat="-28.23781486546435" lon="114.4102822909486"><ele>90.0</ele><time>2026-04-13T08:25:08.001Z</time></trkpt><trkpt lat="-28.2378924501543" lon="114.41003072143023"><ele>90.0</ele><time>2026-04-13T08:25:09.001Z</time></trkpt><trkpt lat="-28.237965228866816" lon="114.4097718434226"><ele>90.0</ele><time>2026-04-13T08:25:10.001Z</time></trkpt><trkpt lat="-28.23803840822099" lon="114.40950741387904"><ele>90.0</ele><time>2026-04-13T08:25:11Z</time></trkpt><trkpt lat="-28.238118032571396" lon="114.40923978305983"><ele>90.0</ele><time>2026-04-13T08:25:12Z</time></trkpt><trkpt lat="-28.23820114532998" lon="114.40897148289112"><ele>90.5</ele><time>2026-04-13T08:25:13Z</time></trkpt><trkpt lat="-28.23828038143552" lon="114.40871198343238"><ele>91.0</ele><time>2026-04-13T08:25:14Z</time></trkpt><trkpt lat="-28.238358810786668" lon="114.40844018361207"><ele>91.0</ele><time>2026-04-13T08:25:15Z</time></trkpt><trkpt lat="-28.238439402529462" lon="114.40816544695761"><ele>91.0</ele><time>2026-04-13T08:25:16Z</time></trkpt><trkpt lat="-28.238515088187963" lon="114.40789592210305"><ele>90.5</ele><time>2026-04-13T08:25:17Z</time></trkpt><trkpt lat="-28.23859104319098" lon="114.40762456515307"><ele>90.0</ele><time>2026-04-13T08:25:18Z</time></trkpt><trkpt lat="-28.23866944272824" lon="114.40734902653908"><ele>90.0</ele><time>2026-04-13T08:25:19Z</time></trkpt><trkpt lat="-28.238749203517596" lon="114.40706956100007"><ele>90.0</ele><time>2026-04-13T08:25:20Z</time></trkpt><trkpt lat="-28.238830870531917" lon="114.40678358727229"><ele>90.0</ele><time>2026-04-13T08:25:21Z</time></trkpt><trkpt lat="-28.23891632061632" lon="114.40649708001135"><ele>90.0</ele><time>2026-04-13T08:25:22Z</time></trkpt><trkpt lat="-28.238999775499174" lon="114.40621098306536"><ele>91.5</ele><time>2026-04-13T08:25:23Z</time></trkpt><trkpt lat="-28.23908469151218" lon="114.40592555969033"><ele>93.0</ele><time>2026-04-13T08:25:24Z</time></trkpt><trkpt lat="-28.23916631280107" lon="114.40564095334565"><ele>91.0</ele><time>2026-04-13T08:25:25Z</time></trkpt><trkpt lat="-28.23924947354938" lon="114.405355687104"><ele>89.0</ele><time>2026-04-13T08:25:26Z</time></trkpt><trkpt lat="-28.239352279878553" lon="114.4050740326139"><ele>89.0</ele><time>2026-04-13T08:25:27Z</time></trkpt><trkpt lat="-28.23943505006142" lon="114.40478688347689"><ele>89.0</ele><time>2026-04-13T08:25:28Z</time></trkpt><trkpt lat="-28.239517831939185" lon="114.40449961063929"><ele>90.0</ele><time>2026-04-13T08:25:29Z</time></trkpt><trkpt lat="-28.23960063007819" lon="114.40421344979656"><ele>91.0</ele><time>2026-04-13T08:25:30Z</time></trkpt><trkpt lat="-28.239682900700366" lon="114.40392919105882"><ele>91.0</ele><time>2026-04-13T08:25:31Z</time></trkpt><trkpt lat="-28.23976591183457" lon="114.40364291445701"><ele>91.0</ele><time>2026-04-13T08:25:32Z</time></trkpt><trkpt lat="-28.23984844332088" lon="114.40335855756028"><ele>90.0</ele><time>2026-04-13T08:25:33Z</time></trkpt><trkpt lat="-28.239932226617835" lon="114.40306988792152"><ele>89.0</ele><time>2026-04-13T08:25:34Z</time></trkpt><trkpt lat="-28.240015421107728" lon="114.40278321546596"><ele>89.0</ele><time>2026-04-13T08:25:35Z</time></trkpt><trkpt lat="-28.240099090204104" lon="114.40249486340717"><ele>89.0</ele><time>2026-04-13T08:25:36Z</time></trkpt><trkpt lat="-28.240183639312487" lon="114.40220288793367"><ele>90.0</ele><time>2026-04-13T08:25:37Z</time></trkpt><trkpt lat="-28.240267820277985" lon="114.4019124864826"><ele>91.0</ele><time>2026-04-13T08:25:38Z</time></trkpt><trkpt lat="-28.24035261236192" lon="114.40162003386466"><ele>88.5</ele><time>2026-04-13T08:25:39Z</time></trkpt><trkpt lat="-28.2404384909864" lon="114.40132516148908"><ele>86.0</ele><time>2026-04-13T08:25:40Z</time></trkpt><trkpt lat="-28.24052603630884" lon="114.40102502810323"><ele>86.0</ele><time>2026-04-13T08:25:41Z</time></trkpt><trkpt lat="-28.240612551625414" lon="114.40072492354116"><ele>86.0</ele><time>2026-04-13T08:25:42Z</time></trkpt><trkpt lat="-28.240699894828886" lon="114.40042658827156"><ele>83.0</ele><time>2026-04-13T08:25:43Z</time></trkpt><trkpt lat="-28.240785883696844" lon="114.40013147493342"><ele>80.0</ele><time>2026-04-13T08:25:44Z</time></trkpt><trkpt lat="-28.240872337087374" lon="114.3998346418299"><ele>80.5</ele><time>2026-04-13T08:25:45Z</time></trkpt><trkpt lat="-28.240959244204156" lon="114.39953609137136"><ele>81.0</ele><time>2026-04-13T08:25:46Z</time></trkpt><trkpt lat="-28.241044024143896" lon="114.39924459201575"><ele>81.0</ele><time>2026-04-13T08:25:47Z</time></trkpt><trkpt lat="-28.241129253856464" lon="114.39895195877381"><ele>81.0</ele><time>2026-04-13T08:25:48Z</time></trkpt><trkpt lat="-28.241213817788438" lon="114.39866215893696"><ele>83.0</ele><time>2026-04-13T08:25:49Z</time></trkpt><trkpt lat="-28.24129703189808" lon="114.39837687638828"><ele>85.0</ele><time>2026-04-13T08:25:50Z</time></trkpt><trkpt lat="-28.24138034740234" lon="114.39809096867195"><ele>85.0</ele><time>2026-04-13T08:25:51Z</time></trkpt><trkpt lat="-28.24146185645477" lon="114.39781352334049"><ele>85.0</ele><time>2026-04-13T08:25:52Z</time></trkpt><trkpt lat="-28.24154298934881" lon="114.39753463112679"><ele>85.0</ele><time>2026-04-13T08:25:53Z</time></trkpt><trkpt lat="-28.24162519131383" lon="114.39725297551979"><ele>85.0</ele><time>2026-04-13T08:25:54Z</time></trkpt><trkpt lat="-28.241707838353882" lon="114.39696963467065"><ele>83.5</ele><time>2026-04-13T08:25:55Z</time></trkpt><trkpt lat="-28.241793222166407" lon="114.39667703842345"><ele>82.0</ele><time>2026-04-13T08:25:56Z</time></trkpt><trkpt lat="-28.24187912814009" lon="114.39638388642646"><ele>82.0</ele><time>2026-04-13T08:25:57Z</time></trkpt><trkpt lat="-28.241963894246588" lon="114.39609396809861"><ele>82.0</ele><time>2026-04-13T08:25:58Z</time></trkpt><trkpt lat="-28.242048639148123" lon="114.39580530995104"><ele>82.0</ele><time>2026-04-13T08:25:59Z</time></trkpt><trkpt lat="-28.242133321259026" lon="114.39551608807788"><ele>82.0</ele><time>2026-04-13T08:26:00Z</time></trkpt><trkpt lat="-28.24221890665003" lon="114.3952226365143"><ele>80.0</ele><time>2026-04-13T08:26:01Z</time></trkpt><trkpt lat="-28.242304721696566" lon="114.39492839758427"><ele>78.0</ele><time>2026-04-13T08:26:02Z</time></trkpt><trkpt lat="-28.242390696197578" lon="114.39463196206572"><ele>73.5</ele><time>2026-04-13T08:26:03Z</time></trkpt><trkpt lat="-28.24247618149428" lon="114.39433794026864"><ele>69.0</ele><time>2026-04-13T08:26:04Z</time></trkpt><trkpt lat="-28.24256292850353" lon="114.39403843434273"><ele>69.0</ele><time>2026-04-13T08:26:05Z</time></trkpt><trkpt lat="-28.242650314037192" lon="114.3937396025511"><ele>69.0</ele><time>2026-04-13T08:26:06Z</time></trkpt><trkpt lat="-28.242736506573458" lon="114.39344261478821"><ele>69.0</ele><time>2026-04-13T08:26:07Z</time></trkpt><trkpt lat="-28.242822064784104" lon="114.39314624497374"><ele>69.0</ele><time>2026-04-13T08:26:08Z</time></trkpt><trkpt lat="-28.242906465324896" lon="114.39285733525045"><ele>70.0</ele><time>2026-04-13T08:26:09Z</time></trkpt><trkpt lat="-28.242992413865217" lon="114.39256270653367"><ele>71.0</ele><time>2026-04-13T08:26:10Z</time></trkpt><trkpt lat="-28.24307773528637" lon="114.3922697945858"><ele>70.0</ele><time>2026-04-13T08:26:11Z</time></trkpt><trkpt lat="-28.243163941244575" lon="114.39197385245534"><ele>69.0</ele><time>2026-04-13T08:26:12Z</time></trkpt><trkpt lat="-28.243247573364386" lon="114.39167919258138"><ele>69.0</ele><time>2026-04-13T08:26:13Z</time></trkpt><trkpt lat="-28.24329692796512" lon="114.39137379839448"><ele>69.0</ele><time>2026-04-13T08:26:14Z</time></trkpt><trkpt lat="-28.243381769526767" lon="114.39107950412063"><ele>71.5</ele><time>2026-04-13T08:26:15Z</time></trkpt><trkpt lat="-28.243467470812867" lon="114.39078684828642"><ele>74.0</ele><time>2026-04-13T08:26:16Z</time></trkpt><trkpt lat="-28.24355219613203" lon="114.39049304518514"><ele>75.5</ele><time>2026-04-13T08:26:17Z</time></trkpt><trkpt lat="-28.243635871828687" lon="114.39019999460439"><ele>77.0</ele><time>2026-04-13T08:26:18Z</time></trkpt><trkpt lat="-28.24371789404456" lon="114.38990800794826"><ele>78.0</ele><time>2026-04-13T08:26:19Z</time></trkpt><trkpt lat="-28.243802626481152" lon="114.38962170090251"><ele>79.0</ele><time>2026-04-13T08:26:20Z</time></trkpt><trkpt lat="-28.243886122025156" lon="114.38933660448394"><ele>78.5</ele><time>2026-04-13T08:26:21Z</time></trkpt><trkpt lat="-28.243972421664996" lon="114.38904834257251"><ele>78.0</ele><time>2026-04-13T08:26:22Z</time></trkpt><trkpt lat="-28.244056490065883" lon="114.38876304381013"><ele>78.0</ele><time>2026-04-13T08:26:23Z</time></trkpt><trkpt lat="-28.244138295389444" lon="114.38847402922637"><ele>78.0</ele><time>2026-04-13T08:26:24Z</time></trkpt><trkpt lat="-28.244217694246878" lon="114.38819143069524"><ele>81.0</ele><time>2026-04-13T08:26:25Z</time></trkpt><trkpt lat="-28.2443013999763" lon="114.3879049236455"><ele>84.0</ele><time>2026-04-13T08:26:26Z</time></trkpt><trkpt lat="-28.244384792433728" lon="114.38761602899667"><ele>84.0</ele><time>2026-04-13T08:26:27Z</time></trkpt><trkpt lat="-28.244466871397126" lon="114.38732428916649"><ele>84.0</ele><time>2026-04-13T08:26:28Z</time></trkpt><trkpt lat="-28.24455047724325" lon="114.38703690506668"><ele>84.0</ele><time>2026-04-13T08:26:29Z</time></trkpt><trkpt lat="-28.244632369464295" lon="114.38675496759419"><ele>84.0</ele><time>2026-04-13T08:26:30Z</time></trkpt><trkpt lat="-28.244714639474484" lon="114.38648486378602"><ele>85.5</ele><time>2026-04-13T08:26:31Z</time></trkpt><trkpt lat="-28.24479280103355" lon="114.38622726843816"><ele>87.0</ele><time>2026-04-13T08:26:32Z</time></trkpt><trkpt lat="-28.244866568829227" lon="114.38597606299419"><ele>87.0</ele><time>2026-04-13T08:26:33Z</time></trkpt><trkpt lat="-28.244928560945816" lon="114.38574105914797"><ele>87.0</ele><time>2026-04-13T08:26:34Z</time></trkpt><trkpt lat="-28.244971392193353" lon="114.38550927340535"><ele>87.0</ele><time>2026-04-13T08:26:35Z</time></trkpt><trkpt lat="-28.244999441213647" lon="114.38526290016628"><ele>87.0</ele><time>2026-04-13T08:26:36Z</time></trkpt><trkpt lat="-28.24501779958449" lon="114.3850104752959"><ele>87.0</ele><time>2026-04-13T08:26:37Z</time></trkpt><trkpt lat="-28.245026853973894" lon="114.38474260105788"><ele>89.0</ele><time>2026-04-13T08:26:38Z</time></trkpt><trkpt lat="-28.245029518234865" lon="114.38447207704753"><ele>91.0</ele><time>2026-04-13T08:26:39Z</time></trkpt><trkpt lat="-28.245025448348674" lon="114.38421610736603"><ele>91.0</ele><time>2026-04-13T08:26:40Z</time></trkpt><trkpt lat="-28.24501569465043" lon="114.38396997644448"><ele>91.0</ele><time>2026-04-13T08:26:41Z</time></trkpt><trkpt lat="-28.244995983130394" lon="114.38372652261356"><ele>91.0</ele><time>2026-04-13T08:26:42Z</time></trkpt><trkpt lat="-28.24495585483144" lon="114.38349104057124"><ele>90.0</ele><time>2026-04-13T08:26:43Z</time></trkpt><trkpt lat="-28.24490066796579" lon="114.38325034529676"><ele>89.0</ele><time>2026-04-13T08:26:44Z</time></trkpt><trkpt lat="-28.244830997847192" lon="114.38302599656683"><ele>88.0</ele><time>2026-04-13T08:26:45Z</time></trkpt><trkpt lat="-28.244743855805964" lon="114.38279437302273"><ele>88.0</ele><time>2026-04-13T08:26:46Z</time></trkpt><trkpt lat="-28.244654154650558" lon="114.3825528250534"><ele>88.0</ele><time>2026-04-13T08:26:47Z</time></trkpt><trkpt lat="-28.244564761958394" lon="114.38230928293473"><ele>86.5</ele><time>2026-04-13T08:26:48Z</time></trkpt><trkpt lat="-28.244471457294154" lon="114.38206147835194"><ele>85.0</ele><time>2026-04-13T08:26:49Z</time></trkpt><trkpt lat="-28.244377962033536" lon="114.38181334911273"><ele>85.0</ele><time>2026-04-13T08:26:50Z</time></trkpt><trkpt lat="-28.24428560547238" lon="114.381565462626"><ele>85.0</ele><time>2026-04-13T08:26:51Z</time></trkpt><trkpt lat="-28.244196612750724" lon="114.38131477327742"><ele>84.0</ele><time>2026-04-13T08:26:52Z</time></trkpt><trkpt lat="-28.244111298429964" lon="114.38106321930348"><ele>83.0</ele><time>2026-04-13T08:26:53Z</time></trkpt><trkpt lat="-28.244028850413372" lon="114.38081337970362"><ele>83.0</ele><time>2026-04-13T08:26:54Z</time></trkpt><trkpt lat="-28.243944457888684" lon="114.38055154369073"><ele>83.0</ele><time>2026-04-13T08:26:55Z</time></trkpt><trkpt lat="-28.24385777569442" lon="114.38028776739422"><ele>83.0</ele><time>2026-04-13T08:26:56Z</time></trkpt><trkpt lat="-28.24376704217175" lon="114.38001249205325"><ele>83.0</ele><time>2026-04-13T08:26:57Z</time></trkpt><trkpt lat="-28.243681462366222" lon="114.37974136965484"><ele>82.5</ele><time>2026-04-13T08:26:58Z</time></trkpt><trkpt lat="-28.243599073542494" lon="114.37946539686268"><ele>82.0</ele><time>2026-04-13T08:26:59Z</time></trkpt><trkpt lat="-28.243517933154163" lon="114.37917975323133"><ele>82.0</ele><time>2026-04-13T08:27:00Z</time></trkpt><trkpt lat="-28.243434600427328" lon="114.37888375462497"><ele>82.0</ele><time>2026-04-13T08:27:01.001Z</time></trkpt><trkpt lat="-28.24335132957996" lon="114.37859443549988"><ele>80.5</ele><time>2026-04-13T08:27:02.001Z</time></trkpt><trkpt lat="-28.243266802226174" lon="114.37830219979097"><ele>79.0</ele><time>2026-04-13T08:27:03.001Z</time></trkpt><trkpt lat="-28.24318663188926" lon="114.37801436200338"><ele>77.0</ele><time>2026-04-13T08:27:04.001Z</time></trkpt><trkpt lat="-28.243112116758738" lon="114.3777436836753"><ele>75.0</ele><time>2026-04-13T08:27:05.001Z</time></trkpt><trkpt lat="-28.24304289508541" lon="114.37749181369692"><ele>75.0</ele><time>2026-04-13T08:27:06.001Z</time></trkpt><trkpt lat="-28.242980216087595" lon="114.37725082361528"><ele>75.0</ele><time>2026-04-13T08:27:07.001Z</time></trkpt><trkpt lat="-28.24292361936776" lon="114.37700598585496"><ele>75.0</ele><time>2026-04-13T08:27:08.001Z</time></trkpt><trkpt lat="-28.242876011632724" lon="114.3767583377048"><ele>74.0</ele><time>2026-04-13T08:27:09.001Z</time></trkpt><trkpt lat="-28.242840666855187" lon="114.37652297089244"><ele>73.0</ele><time>2026-04-13T08:27:10.001Z</time></trkpt><trkpt lat="-28.242828024255097" lon="114.37629623187644"><ele>72.0</ele><time>2026-04-13T08:27:11.001Z</time></trkpt><trkpt lat="-28.242842318927174" lon="114.37608364414466"><ele>71.66666666666667</ele><time>2026-04-13T08:27:12.001Z</time></trkpt><trkpt lat="-28.24287881558034" lon="114.37586677335086"><ele>71.33333333333334</ele><time>2026-04-13T08:27:13.001Z</time></trkpt><trkpt lat="-28.242942670899417" lon="114.37564546881643"><ele>71.0</ele><time>2026-04-13T08:27:14.001Z</time></trkpt><trkpt lat="-28.243028019564463" lon="114.37541530337606"><ele>70.0</ele><time>2026-04-13T08:27:15.001Z</time></trkpt><trkpt lat="-28.243122019743957" lon="114.37518181553648"><ele>69.0</ele><time>2026-04-13T08:27:16.001Z</time></trkpt><trkpt lat="-28.243218574346145" lon="114.37494855387864"><ele>67.5</ele><time>2026-04-13T08:27:17.001Z</time></trkpt><trkpt lat="-28.243318492207877" lon="114.37470793939441"><ele>66.0</ele><time>2026-04-13T08:27:18.001Z</time></trkpt><trkpt lat="-28.24349379244534" lon="114.37424705136436"><ele>64.33333333333333</ele><time>2026-04-13T08:27:20.001Z</time></trkpt><trkpt lat="-28.243591297608717" lon="114.37404659980082"><ele>62.666666666666664</ele><time>2026-04-13T08:27:21.001Z</time></trkpt><trkpt lat="-28.24366821667956" lon="114.37385075220095"><ele>61.0</ele><time>2026-04-13T08:27:22.001Z</time></trkpt><trkpt lat="-28.243743387969086" lon="114.37366244946081"><ele>59.666666666666664</ele><time>2026-04-13T08:27:23.001Z</time></trkpt><trkpt lat="-28.243806953443837" lon="114.37348889037764"><ele>58.33333333333333</ele><time>2026-04-13T08:27:24.001Z</time></trkpt><trkpt lat="-28.24386400162202" lon="114.37331695898949"><ele>57.0</ele><time>2026-04-13T08:27:25.001Z</time></trkpt><trkpt lat="-28.243913876143804" lon="114.3731490821615"><ele>57.0</ele><time>2026-04-13T08:27:26.001Z</time></trkpt><trkpt lat="-28.24394988413546" lon="114.37299341585499"><ele>57.0</ele><time>2026-04-13T08:27:27.001Z</time></trkpt><trkpt lat="-28.24397643513419" lon="114.37282663080782"><ele>57.0</ele><time>2026-04-13T08:27:28.001Z</time></trkpt><trkpt lat="-28.243991410862385" lon="114.37264474162902"><ele>57.0</ele><time>2026-04-13T08:27:29.001Z</time></trkpt><trkpt lat="-28.244000037152574" lon="114.372458379078"><ele>57.0</ele><time>2026-04-13T08:27:30.001Z</time></trkpt><trkpt lat="-28.244001593077655" lon="114.37226495516377"><ele>57.0</ele><time>2026-04-13T08:27:31.001Z</time></trkpt><trkpt lat="-28.24399531602263" lon="114.37206397223021"><ele>56.66666666666667</ele><time>2026-04-13T08:27:32.001Z</time></trkpt><trkpt lat="-28.243985206715706" lon="114.37184932428484"><ele>56.333333333333336</ele><time>2026-04-13T08:27:33.001Z</time></trkpt><trkpt lat="-28.24397145942386" lon="114.37163537058568"><ele>56.0</ele><time>2026-04-13T08:27:34.001Z</time></trkpt><trkpt lat="-28.243957935538496" lon="114.37142769098601"><ele>54.0</ele><time>2026-04-13T08:27:35.001Z</time></trkpt><trkpt lat="-28.24394502047364" lon="114.37122056702839"><ele>52.0</ele><time>2026-04-13T08:27:36.001Z</time></trkpt><trkpt lat="-28.24393321508371" lon="114.3710136840983"><ele>50.0</ele><time>2026-04-13T08:27:37.001Z</time></trkpt><trkpt lat="-28.243921032282245" lon="114.37080306633794"><ele>50.0</ele><time>2026-04-13T08:27:38.001Z</time></trkpt><trkpt lat="-28.243908086479657" lon="114.37058620589907"><ele>50.0</ele><time>2026-04-13T08:27:39.001Z</time></trkpt><trkpt lat="-28.243895024382805" lon="114.37035990627605"><ele>50.0</ele><time>2026-04-13T08:27:40.001Z</time></trkpt><trkpt lat="-28.243881971881464" lon="114.3701331326559"><ele>47.333333333333336</ele><time>2026-04-13T08:27:41.001Z</time></trkpt><trkpt lat="-28.243869594713846" lon="114.36991809194183"><ele>44.66666666666667</ele><time>2026-04-13T08:27:42.001Z</time></trkpt><trkpt lat="-28.243857333432658" lon="114.36970762670747"><ele>42.0</ele><time>2026-04-13T08:27:43.001Z</time></trkpt><trkpt lat="-28.24384417540597" lon="114.36948988384383"><ele>40.333333333333336</ele><time>2026-04-13T08:27:44.001Z</time></trkpt><trkpt lat="-28.24383134866495" lon="114.3692697276205"><ele>38.66666666666667</ele><time>2026-04-13T08:27:45.001Z</time></trkpt><trkpt lat="-28.243818778143122" lon="114.36905396910683"><ele>37.0</ele><time>2026-04-13T08:27:46.001Z</time></trkpt><trkpt lat="-28.243805887082083" lon="114.36884313755353"><ele>36.0</ele><time>2026-04-13T08:27:47.001Z</time></trkpt><trkpt lat="-28.243792063028025" lon="114.36862850669277"><ele>35.0</ele><time>2026-04-13T08:27:48.001Z</time></trkpt><trkpt lat="-28.243776876296163" lon="114.36840179627926"><ele>34.0</ele><time>2026-04-13T08:27:49.001Z</time></trkpt><trkpt lat="-28.243762772691703" lon="114.3681896305876"><ele>35.333333333333336</ele><time>2026-04-13T08:27:50.001Z</time></trkpt><trkpt lat="-28.243748972509962" lon="114.36799443707962"><ele>36.666666666666664</ele><time>2026-04-13T08:27:51.001Z</time></trkpt><trkpt lat="-28.24373755713597" lon="114.36782422883788"><ele>38.0</ele><time>2026-04-13T08:27:52.001Z</time></trkpt><trkpt lat="-28.24372715683717" lon="114.36766867142282"><ele>38.0</ele><time>2026-04-13T08:27:53.001Z</time></trkpt><trkpt lat="-28.243719421593926" lon="114.36753023035442"><ele>38.0</ele><time>2026-04-13T08:27:54.001Z</time></trkpt><trkpt lat="-28.2437124375363" lon="114.36740578686657"><ele>38.0</ele><time>2026-04-13T08:27:55.001Z</time></trkpt><trkpt lat="-28.243707314827574" lon="114.36728948942219"><ele>38.0</ele><time>2026-04-13T08:27:56.001Z</time></trkpt><trkpt lat="-28.243705093118308" lon="114.36717126038774"><ele>38.0</ele><time>2026-04-13T08:27:57.001Z</time></trkpt><trkpt lat="-28.243708102267234" lon="114.36706782393263"><ele>39.0</ele><time>2026-04-13T08:27:58.001Z</time></trkpt><trkpt lat="-28.243715187148652" lon="114.36699229207485"><ele>40.0</ele><time>2026-04-13T08:27:59.001Z</time></trkpt><trkpt lat="-28.24372829609538" lon="114.36690659853792"><ele>41.0</ele><time>2026-04-13T08:28:01.001Z</time></trkpt><trkpt lat="-28.243557110604616" lon="114.36676567003737"><ele>42.0</ele><time>2026-04-13T08:28:05.001Z</time></trkpt><trkpt lat="-28.2435020804136" lon="114.36671001213753"><ele>43.0</ele><time>2026-04-13T08:28:06.001Z</time></trkpt><trkpt lat="-28.243442286126523" lon="114.3666829536356"><ele>43.0</ele><time>2026-04-13T08:28:07.001Z</time></trkpt><trkpt lat="-28.2433645341671" lon="114.36666059224244"><ele>43.0</ele><time>2026-04-13T08:28:08.001Z</time></trkpt><trkpt lat="-28.243270282999358" lon="114.36663814995418"><ele>43.0</ele><time>2026-04-13T08:28:09.001Z</time></trkpt><trkpt lat="-28.243165478702927" lon="114.36660916925244"><ele>43.0</ele><time>2026-04-13T08:28:10.001Z</time></trkpt><trkpt lat="-28.243049941090202" lon="114.36654690432765"><ele>43.0</ele><time>2026-04-13T08:28:11.001Z</time></trkpt><trkpt lat="-28.242912578026406" lon="114.36648928759026"><ele>43.333333333333336</ele><time>2026-04-13T08:28:12.001Z</time></trkpt><trkpt lat="-28.242762770830442" lon="114.36644661579076"><ele>43.666666666666664</ele><time>2026-04-13T08:28:13Z</time></trkpt><trkpt lat="-28.24260518922154" lon="114.366377287191"><ele>44.0</ele><time>2026-04-13T08:28:14Z</time></trkpt><trkpt lat="-28.242421031071267" lon="114.36630236246738"><ele>41.33333333333333</ele><time>2026-04-13T08:28:15Z</time></trkpt><trkpt lat="-28.24222508429588" lon="114.3662226463121"><ele>38.666666666666664</ele><time>2026-04-13T08:28:16Z</time></trkpt><trkpt lat="-28.24202921271002" lon="114.3661418649808"><ele>36.0</ele><time>2026-04-13T08:28:17Z</time></trkpt><trkpt lat="-28.241829292846283" lon="114.36605787860104"><ele>36.0</ele><time>2026-04-13T08:28:18Z</time></trkpt><trkpt lat="-28.241624609353885" lon="114.36597317965267"><ele>36.0</ele><time>2026-04-13T08:28:19Z</time></trkpt><trkpt lat="-28.2414128682708" lon="114.36589013552066"><ele>36.0</ele><time>2026-04-13T08:28:20Z</time></trkpt><trkpt lat="-28.241186776246163" lon="114.36580072650776"><ele>34.0</ele><time>2026-04-13T08:28:21Z</time></trkpt><trkpt lat="-28.240959571493054" lon="114.36570853604084"><ele>32.0</ele><time>2026-04-13T08:28:22Z</time></trkpt><trkpt lat="-28.240733405507346" lon="114.365614133274"><ele>31.0</ele><time>2026-04-13T08:28:23Z</time></trkpt><trkpt lat="-28.240503638632436" lon="114.36551877770223"><ele>30.0</ele><time>2026-04-13T08:28:24Z</time></trkpt><trkpt lat="-28.240272639390433" lon="114.3654263617905"><ele>30.0</ele><time>2026-04-13T08:28:25Z</time></trkpt><trkpt lat="-28.24003362467593" lon="114.36533233648835"><ele>30.0</ele><time>2026-04-13T08:28:26Z</time></trkpt><trkpt lat="-28.239802535988122" lon="114.36524296791431"><ele>28.5</ele><time>2026-04-13T08:28:27Z</time></trkpt><trkpt lat="-28.239582919296588" lon="114.36513557057327"><ele>27.0</ele><time>2026-04-13T08:28:28Z</time></trkpt><trkpt lat="-28.239355123997157" lon="114.36504331071511"><ele>27.0</ele><time>2026-04-13T08:28:29Z</time></trkpt><trkpt lat="-28.239125483101525" lon="114.36494923600432"><ele>27.0</ele><time>2026-04-13T08:28:30Z</time></trkpt><trkpt lat="-28.238901337775438" lon="114.36485720840086"><ele>27.0</ele><time>2026-04-13T08:28:31Z</time></trkpt><trkpt lat="-28.238669915834087" lon="114.36478081758082"><ele>27.0</ele><time>2026-04-13T08:28:32Z</time></trkpt><trkpt lat="-28.23844780745582" lon="114.36469044034642"><ele>27.0</ele><time>2026-04-13T08:28:33Z</time></trkpt><trkpt lat="-28.238233579857237" lon="114.3646083023454"><ele>27.0</ele><time>2026-04-13T08:28:34Z</time></trkpt><trkpt lat="-28.23802417438096" lon="114.36450565845443"><ele>29.0</ele><time>2026-04-13T08:28:35Z</time></trkpt><trkpt lat="-28.237794871345834" lon="114.36443248213403"><ele>31.0</ele><time>2026-04-13T08:28:36Z</time></trkpt><trkpt lat="-28.237566696508914" lon="114.36433985951341"><ele>31.0</ele><time>2026-04-13T08:28:37Z</time></trkpt><trkpt lat="-28.2373334176488" lon="114.36424710458631"><ele>31.0</ele><time>2026-04-13T08:28:38Z</time></trkpt><trkpt lat="-28.237091282168" lon="114.3641486939118"><ele>31.5</ele><time>2026-04-13T08:28:39Z</time></trkpt><trkpt lat="-28.236846771312514" lon="114.3640484384902"><ele>32.0</ele><time>2026-04-13T08:28:40Z</time></trkpt><trkpt lat="-28.23659672163526" lon="114.36394639493827"><ele>32.5</ele><time>2026-04-13T08:28:41Z</time></trkpt><trkpt lat="-28.236342864755866" lon="114.36384573321486"><ele>33.0</ele><time>2026-04-13T08:28:42Z</time></trkpt><trkpt lat="-28.236090612540885" lon="114.36374466079313"><ele>33.0</ele><time>2026-04-13T08:28:43Z</time></trkpt><trkpt lat="-28.235842093216387" lon="114.36364310757737"><ele>33.0</ele><time>2026-04-13T08:28:44Z</time></trkpt><trkpt lat="-28.235590010102904" lon="114.36354353805856"><ele>32.5</ele><time>2026-04-13T08:28:45Z</time></trkpt><trkpt lat="-28.23533900306146" lon="114.36344318206557"><ele>32.0</ele><time>2026-04-13T08:28:46Z</time></trkpt><trkpt lat="-28.235087369493037" lon="114.3633405703638"><ele>32.0</ele><time>2026-04-13T08:28:47Z</time></trkpt><trkpt lat="-28.234836257166094" lon="114.36323373370114"><ele>32.0</ele><time>2026-04-13T08:28:48Z</time></trkpt><trkpt lat="-28.234586802064715" lon="114.3631182073535"><ele>33.0</ele><time>2026-04-13T08:28:49Z</time></trkpt><trkpt lat="-28.23433657334435" lon="114.36299276278139"><ele>34.0</ele><time>2026-04-13T08:28:50Z</time></trkpt><trkpt lat="-28.234084529449124" lon="114.36286376174688"><ele>33.5</ele><time>2026-04-13T08:28:51Z</time></trkpt><trkpt lat="-28.233834331855007" lon="114.36273024146158"><ele>33.0</ele><time>2026-04-13T08:28:52Z</time></trkpt><trkpt lat="-28.23359634297684" lon="114.3625662969628"><ele>33.0</ele><time>2026-04-13T08:28:53Z</time></trkpt><trkpt lat="-28.233359072966454" lon="114.36240730608374"><ele>33.0</ele><time>2026-04-13T08:28:54Z</time></trkpt><trkpt lat="-28.233110841460444" lon="114.36225242905732"><ele>34.0</ele><time>2026-04-13T08:28:55Z</time></trkpt><trkpt lat="-28.232873853709123" lon="114.362075747318"><ele>35.0</ele><time>2026-04-13T08:28:56Z</time></trkpt><trkpt lat="-28.23263727391765" lon="114.3618903899293"><ele>35.0</ele><time>2026-04-13T08:28:57Z</time></trkpt><trkpt lat="-28.232403719089106" lon="114.36170031858276"><ele>35.0</ele><time>2026-04-13T08:28:58Z</time></trkpt><trkpt lat="-28.23218234423476" lon="114.36148642989983"><ele>33.5</ele><time>2026-04-13T08:28:59Z</time></trkpt><trkpt lat="-28.23194571034722" lon="114.36129054814582"><ele>32.0</ele><time>2026-04-13T08:29:00Z</time></trkpt><trkpt lat="-28.231721318324208" lon="114.36107268798358"><ele>32.0</ele><time>2026-04-13T08:29:01Z</time></trkpt><trkpt lat="-28.23151540346942" lon="114.36083520312343"><ele>32.0</ele><time>2026-04-13T08:29:02Z</time></trkpt><trkpt lat="-28.23130842147871" lon="114.36060905893005"><ele>31.5</ele><time>2026-04-13T08:29:03Z</time></trkpt><trkpt lat="-28.23110715867621" lon="114.36037894335108"><ele>31.0</ele><time>2026-04-13T08:29:04Z</time></trkpt><trkpt lat="-28.230908645460925" lon="114.36014271516738"><ele>31.0</ele><time>2026-04-13T08:29:05Z</time></trkpt><trkpt lat="-28.230714037438997" lon="114.35990109464409"><ele>31.0</ele><time>2026-04-13T08:29:06Z</time></trkpt><trkpt lat="-28.23051880630224" lon="114.35965950835178"><ele>31.5</ele><time>2026-04-13T08:29:07.001Z</time></trkpt><trkpt lat="-28.23032190317674" lon="114.35941523921724"><ele>32.0</ele><time>2026-04-13T08:29:08.001Z</time></trkpt><trkpt lat="-28.230126285302713" lon="114.35917059525899"><ele>32.0</ele><time>2026-04-13T08:29:09.001Z</time></trkpt><trkpt lat="-28.229930968436737" lon="114.3589281658642"><ele>32.0</ele><time>2026-04-13T08:29:10.001Z</time></trkpt><trkpt lat="-28.22973475922781" lon="114.35868615180773"><ele>36.5</ele><time>2026-04-13T08:29:11.001Z</time></trkpt><trkpt lat="-28.229540892582726" lon="114.35844702720914"><ele>41.0</ele><time>2026-04-13T08:29:12.001Z</time></trkpt><trkpt lat="-28.229337888529408" lon="114.35821944156928"><ele>41.0</ele><time>2026-04-13T08:29:13.001Z</time></trkpt><trkpt lat="-28.22914528129345" lon="114.3579787463602"><ele>41.0</ele><time>2026-04-13T08:29:14.001Z</time></trkpt><trkpt lat="-28.228949121701927" lon="114.35773122576991"><ele>41.0</ele><time>2026-04-13T08:29:15.001Z</time></trkpt><trkpt lat="-28.228751664469353" lon="114.35748473980044"><ele>41.0</ele><time>2026-04-13T08:29:16.001Z</time></trkpt><trkpt lat="-28.228553191793598" lon="114.35723758229787"><ele>39.5</ele><time>2026-04-13T08:29:17.001Z</time></trkpt><trkpt lat="-28.228369453667884" lon="114.35698222296158"><ele>38.0</ele><time>2026-04-13T08:29:18.001Z</time></trkpt><trkpt lat="-28.22816177750411" lon="114.35674799483755"><ele>37.5</ele><time>2026-04-13T08:29:19.001Z</time></trkpt><trkpt lat="-28.227964520601013" lon="114.35649922859251"><ele>37.0</ele><time>2026-04-13T08:29:20.001Z</time></trkpt><trkpt lat="-28.22776601859197" lon="114.35624776937462"><ele>35.5</ele><time>2026-04-13T08:29:21.001Z</time></trkpt><trkpt lat="-28.22756585291758" lon="114.35599839814971"><ele>34.0</ele><time>2026-04-13T08:29:22.001Z</time></trkpt><trkpt lat="-28.227364148065117" lon="114.35574602458385"><ele>35.0</ele><time>2026-04-13T08:29:23.001Z</time></trkpt><trkpt lat="-28.22716333013636" lon="114.35549393762388"><ele>36.0</ele><time>2026-04-13T08:29:24.001Z</time></trkpt><trkpt lat="-28.226963628354483" lon="114.35524018110898"><ele>36.0</ele><time>2026-04-13T08:29:25.001Z</time></trkpt><trkpt lat="-28.226761125869793" lon="114.35498499798162"><ele>36.0</ele><time>2026-04-13T08:29:26.001Z</time></trkpt><trkpt lat="-28.226551537378466" lon="114.35472563994958"><ele>36.0</ele><time>2026-04-13T08:29:27.001Z</time></trkpt><trkpt lat="-28.226334856607593" lon="114.35445887385754"><ele>36.0</ele><time>2026-04-13T08:29:28.001Z</time></trkpt><trkpt lat="-28.226121162398208" lon="114.35418992121225"><ele>36.0</ele><time>2026-04-13T08:29:29.001Z</time></trkpt><trkpt lat="-28.225911862403105" lon="114.35392569725869"><ele>36.0</ele><time>2026-04-13T08:29:30.001Z</time></trkpt><trkpt lat="-28.22570529048047" lon="114.35366685327344"><ele>36.5</ele><time>2026-04-13T08:29:31.001Z</time></trkpt><trkpt lat="-28.225499064385165" lon="114.35341004443144"><ele>37.0</ele><time>2026-04-13T08:29:32.001Z</time></trkpt><trkpt lat="-28.225292134361155" lon="114.35315209725835"><ele>38.0</ele><time>2026-04-13T08:29:33.001Z</time></trkpt><trkpt lat="-28.225086404886905" lon="114.35289272415085"><ele>39.0</ele><time>2026-04-13T08:29:34.001Z</time></trkpt><trkpt lat="-28.2248844881142" lon="114.35263533872738"><ele>40.5</ele><time>2026-04-13T08:29:35.001Z</time></trkpt><trkpt lat="-28.22468165953077" lon="114.3523779413278"><ele>42.0</ele><time>2026-04-13T08:29:36.001Z</time></trkpt><trkpt lat="-28.224477375402056" lon="114.35212063567427"><ele>43.0</ele><time>2026-04-13T08:29:37.001Z</time></trkpt><trkpt lat="-28.224272532987165" lon="114.35186410493549"><ele>44.0</ele><time>2026-04-13T08:29:38Z</time></trkpt><trkpt lat="-28.22406394554727" lon="114.35160650301825"><ele>46.5</ele><time>2026-04-13T08:29:39Z</time></trkpt><trkpt lat="-28.22385217623747" lon="114.35134713735629"><ele>49.0</ele><time>2026-04-13T08:29:40Z</time></trkpt><trkpt lat="-28.223642030864728" lon="114.35108535749387"><ele>49.0</ele><time>2026-04-13T08:29:41Z</time></trkpt><trkpt lat="-28.223430962977332" lon="114.35082042783858"><ele>49.0</ele><time>2026-04-13T08:29:42Z</time></trkpt><trkpt lat="-28.223220671798114" lon="114.35055538737811"><ele>50.0</ele><time>2026-04-13T08:29:43Z</time></trkpt><trkpt lat="-28.223013349774746" lon="114.35029015702655"><ele>51.0</ele><time>2026-04-13T08:29:44Z</time></trkpt><trkpt lat="-28.222806892773505" lon="114.3500272407036"><ele>51.0</ele><time>2026-04-13T08:29:45Z</time></trkpt><trkpt lat="-28.22259834276074" lon="114.34976472177995"><ele>51.0</ele><time>2026-04-13T08:29:46Z</time></trkpt><trkpt lat="-28.222385322675645" lon="114.3494998416358"><ele>52.5</ele><time>2026-04-13T08:29:47Z</time></trkpt><trkpt lat="-28.22217192953623" lon="114.34923557215305"><ele>54.0</ele><time>2026-04-13T08:29:48Z</time></trkpt><trkpt lat="-28.221958065361985" lon="114.34897212216202"><ele>51.5</ele><time>2026-04-13T08:29:49Z</time></trkpt><trkpt lat="-28.22174710598733" lon="114.34870931392008"><ele>49.0</ele><time>2026-04-13T08:29:50Z</time></trkpt><trkpt lat="-28.221539975699383" lon="114.3484509919561"><ele>49.0</ele><time>2026-04-13T08:29:51Z</time></trkpt><trkpt lat="-28.22133390149438" lon="114.34819527124121"><ele>49.0</ele><time>2026-04-13T08:29:52Z</time></trkpt><trkpt lat="-28.221128951283116" lon="114.3479422245391"><ele>47.5</ele><time>2026-04-13T08:29:53Z</time></trkpt><trkpt lat="-28.220922513728045" lon="114.34768639563433"><ele>46.0</ele><time>2026-04-13T08:29:54Z</time></trkpt><trkpt lat="-28.220715906202333" lon="114.34742854372165"><ele>44.5</ele><time>2026-04-13T08:29:55Z</time></trkpt><trkpt lat="-28.220507328292836" lon="114.34716885456511"><ele>43.0</ele><time>2026-04-13T08:29:56Z</time></trkpt><trkpt lat="-28.2202976522629" lon="114.34690741542832"><ele>43.0</ele><time>2026-04-13T08:29:57Z</time></trkpt><trkpt lat="-28.220088419058857" lon="114.34664751173847"><ele>43.0</ele><time>2026-04-13T08:29:58Z</time></trkpt><trkpt lat="-28.219879819537578" lon="114.34638646784315"><ele>40.5</ele><time>2026-04-13T08:29:59Z</time></trkpt><trkpt lat="-28.21967105318022" lon="114.34612312643739"><ele>38.0</ele><time>2026-04-13T08:30:00Z</time></trkpt><trkpt lat="-28.219463336793947" lon="114.34585882988277"><ele>38.0</ele><time>2026-04-13T08:30:01Z</time></trkpt><trkpt lat="-28.219254079747227" lon="114.34559224803549"><ele>38.0</ele><time>2026-04-13T08:30:02Z</time></trkpt><trkpt lat="-28.219044984415724" lon="114.34532762142892"><ele>39.0</ele><time>2026-04-13T08:30:03Z</time></trkpt><trkpt lat="-28.218840808994994" lon="114.34507257894128"><ele>40.0</ele><time>2026-04-13T08:30:04Z</time></trkpt><trkpt lat="-28.218641042125917" lon="114.34482167986067"><ele>42.0</ele><time>2026-04-13T08:30:05Z</time></trkpt><trkpt lat="-28.21844126876453" lon="114.3445665758517"><ele>44.0</ele><time>2026-04-13T08:30:06Z</time></trkpt><trkpt lat="-28.218238475491198" lon="114.34431012753181"><ele>45.5</ele><time>2026-04-13T08:30:07Z</time></trkpt><trkpt lat="-28.218035775085518" lon="114.3440551736572"><ele>47.0</ele><time>2026-04-13T08:30:08Z</time></trkpt><trkpt lat="-28.217833120204464" lon="114.34380334475894"><ele>48.0</ele><time>2026-04-13T08:30:09Z</time></trkpt><trkpt lat="-28.217631552893913" lon="114.34355558650869"><ele>49.0</ele><time>2026-04-13T08:30:10Z</time></trkpt><trkpt lat="-28.217433446861172" lon="114.34331318036912"><ele>49.0</ele><time>2026-04-13T08:30:11Z</time></trkpt><trkpt lat="-28.217239343009282" lon="114.3430743540229"><ele>49.0</ele><time>2026-04-13T08:30:12Z</time></trkpt><trkpt lat="-28.217049071460448" lon="114.342837363308"><ele>49.0</ele><time>2026-04-13T08:30:13Z</time></trkpt><trkpt lat="-28.216858635898888" lon="114.34260312562728"><ele>49.0</ele><time>2026-04-13T08:30:14Z</time></trkpt><trkpt lat="-28.216665012294918" lon="114.34236438064141"><ele>48.5</ele><time>2026-04-13T08:30:15Z</time></trkpt><trkpt lat="-28.21646801437147" lon="114.34212023994918"><ele>48.0</ele><time>2026-04-13T08:30:16Z</time></trkpt><trkpt lat="-28.216263987549212" lon="114.34186782711075"><ele>48.0</ele><time>2026-04-13T08:30:17Z</time></trkpt><trkpt lat="-28.21606579320879" lon="114.34161715835084"><ele>48.0</ele><time>2026-04-13T08:30:18Z</time></trkpt><trkpt lat="-28.215872379258347" lon="114.34137336446408"><ele>48.5</ele><time>2026-04-13T08:30:19Z</time></trkpt><trkpt lat="-28.21568218390025" lon="114.34113426012765"><ele>49.0</ele><time>2026-04-13T08:30:20Z</time></trkpt><trkpt lat="-28.21549453411104" lon="114.34089448360183"><ele>49.0</ele><time>2026-04-13T08:30:21Z</time></trkpt><trkpt lat="-28.215310546344433" lon="114.34065861661048"><ele>49.0</ele><time>2026-04-13T08:30:22Z</time></trkpt><trkpt lat="-28.215127042781113" lon="114.34042939538398"><ele>47.5</ele><time>2026-04-13T08:30:23Z</time></trkpt><trkpt lat="-28.214941459140856" lon="114.34019885265792"><ele>46.0</ele><time>2026-04-13T08:30:24Z</time></trkpt><trkpt lat="-28.21475713731597" lon="114.33996700884984"><ele>46.0</ele><time>2026-04-13T08:30:25Z</time></trkpt><trkpt lat="-28.214575857988816" lon="114.3397402636362"><ele>46.0</ele><time>2026-04-13T08:30:26Z</time></trkpt><trkpt lat="-28.214394516683296" lon="114.3395095626243"><ele>46.5</ele><time>2026-04-13T08:30:27Z</time></trkpt><trkpt lat="-28.214230846072837" lon="114.33926508558147"><ele>47.0</ele><time>2026-04-13T08:30:28Z</time></trkpt><trkpt lat="-28.214047783844435" lon="114.33903173996553"><ele>45.0</ele><time>2026-04-13T08:30:29Z</time></trkpt><trkpt lat="-28.213862285922815" lon="114.3387875631884"><ele>43.0</ele><time>2026-04-13T08:30:30Z</time></trkpt><trkpt lat="-28.213676329090873" lon="114.33852402819745"><ele>43.0</ele><time>2026-04-13T08:30:31Z</time></trkpt><trkpt lat="-28.213492740559943" lon="114.33824431699368"><ele>43.0</ele><time>2026-04-13T08:30:32Z</time></trkpt><trkpt lat="-28.21330539834438" lon="114.33795202616298"><ele>40.5</ele><time>2026-04-13T08:30:33Z</time></trkpt><trkpt lat="-28.21311132021887" lon="114.33765289024039"><ele>38.0</ele><time>2026-04-13T08:30:34Z</time></trkpt><trkpt lat="-28.21291942971189" lon="114.33735648309022"><ele>36.5</ele><time>2026-04-13T08:30:35Z</time></trkpt><trkpt lat="-28.212727921871547" lon="114.33706229539425"><ele>35.0</ele><time>2026-04-13T08:30:36Z</time></trkpt><trkpt lat="-28.212535268282245" lon="114.33676693655961"><ele>35.0</ele><time>2026-04-13T08:30:37Z</time></trkpt><trkpt lat="-28.21234419843585" lon="114.33647183408424"><ele>35.0</ele><time>2026-04-13T08:30:38Z</time></trkpt><trkpt lat="-28.212152162985376" lon="114.33617578510935"><ele>33.5</ele><time>2026-04-13T08:30:39Z</time></trkpt><trkpt lat="-28.21195879826625" lon="114.33587401256852"><ele>32.0</ele><time>2026-04-13T08:30:40Z</time></trkpt><trkpt lat="-28.211763673008775" lon="114.33556828896408"><ele>31.0</ele><time>2026-04-13T08:30:41Z</time></trkpt><trkpt lat="-28.211570037783474" lon="114.33526573949648"><ele>30.0</ele><time>2026-04-13T08:30:42Z</time></trkpt><trkpt lat="-28.211377183388514" lon="114.33496433889928"><ele>30.0</ele><time>2026-04-13T08:30:43Z</time></trkpt><trkpt lat="-28.211189375952323" lon="114.33467095162946"><ele>30.0</ele><time>2026-04-13T08:30:44Z</time></trkpt><trkpt lat="-28.21100245824495" lon="114.334379760728"><ele>30.0</ele><time>2026-04-13T08:30:45Z</time></trkpt><trkpt lat="-28.21080212747016" lon="114.33410156842162"><ele>30.0</ele><time>2026-04-13T08:30:46Z</time></trkpt><trkpt lat="-28.210617815703998" lon="114.33381441554022"><ele>30.5</ele><time>2026-04-13T08:30:47Z</time></trkpt><trkpt lat="-28.2104474425077" lon="114.33352217493899"><ele>31.0</ele><time>2026-04-13T08:30:48Z</time></trkpt><trkpt lat="-28.210266519159553" lon="114.33324201160782"><ele>33.0</ele><time>2026-04-13T08:30:49Z</time></trkpt><trkpt lat="-28.210088104195428" lon="114.33296251607995"><ele>35.0</ele><time>2026-04-13T08:30:50Z</time></trkpt><trkpt lat="-28.20990927314547" lon="114.33268236873053"><ele>35.0</ele><time>2026-04-13T08:30:51Z</time></trkpt><trkpt lat="-28.20970981220461" lon="114.33241849301795"><ele>35.0</ele><time>2026-04-13T08:30:52Z</time></trkpt><trkpt lat="-28.20952311981338" lon="114.33213566973964"><ele>35.5</ele><time>2026-04-13T08:30:53Z</time></trkpt><trkpt lat="-28.209336505042067" lon="114.33184513661189"><ele>36.0</ele><time>2026-04-13T08:30:54Z</time></trkpt><trkpt lat="-28.209151367746074" lon="114.33155537145184"><ele>38.5</ele><time>2026-04-13T08:30:55Z</time></trkpt><trkpt lat="-28.20896183807445" lon="114.33126758208867"><ele>41.0</ele><time>2026-04-13T08:30:56Z</time></trkpt><trkpt lat="-28.208772088518824" lon="114.33098232282788"><ele>41.0</ele><time>2026-04-13T08:30:57Z</time></trkpt><trkpt lat="-28.20858569162599" lon="114.3307005996189"><ele>41.0</ele><time>2026-04-13T08:30:58Z</time></trkpt><trkpt lat="-28.208401812897318" lon="114.33042163692686"><ele>42.0</ele><time>2026-04-13T08:30:59Z</time></trkpt><trkpt lat="-28.208219517877012" lon="114.33014314759204"><ele>43.0</ele><time>2026-04-13T08:31:00Z</time></trkpt><trkpt lat="-28.20803764786626" lon="114.32986453735337"><ele>48.0</ele><time>2026-04-13T08:31:01Z</time></trkpt><trkpt lat="-28.207860292420293" lon="114.32959484316261"><ele>53.0</ele><time>2026-04-13T08:31:02Z</time></trkpt><trkpt lat="-28.207691265156967" lon="114.32933209875895"><ele>53.0</ele><time>2026-04-13T08:31:03Z</time></trkpt><trkpt lat="-28.207537206314203" lon="114.3290744549383"><ele>53.0</ele><time>2026-04-13T08:31:04Z</time></trkpt><trkpt lat="-28.20742991813606" lon="114.32880099745532"><ele>55.5</ele><time>2026-04-13T08:31:05Z</time></trkpt><trkpt lat="-28.207324746099545" lon="114.32853107810377"><ele>58.0</ele><time>2026-04-13T08:31:06Z</time></trkpt><trkpt lat="-28.207236166643483" lon="114.3282455990811"><ele>59.0</ele><time>2026-04-13T08:31:07Z</time></trkpt><trkpt lat="-28.207167354786463" lon="114.32795180837303"><ele>60.0</ele><time>2026-04-13T08:31:08Z</time></trkpt><trkpt lat="-28.207102851594424" lon="114.32765375805367"><ele>60.0</ele><time>2026-04-13T08:31:09Z</time></trkpt><trkpt lat="-28.20707570666497" lon="114.32734963225508"><ele>60.0</ele><time>2026-04-13T08:31:10Z</time></trkpt><trkpt lat="-28.207073595259942" lon="114.32703099580824"><ele>59.5</ele><time>2026-04-13T08:31:11Z</time></trkpt><trkpt lat="-28.207086759767645" lon="114.32670886120938"><ele>59.0</ele><time>2026-04-13T08:31:12Z</time></trkpt><trkpt lat="-28.207137816852708" lon="114.32639705247526"><ele>58.0</ele><time>2026-04-13T08:31:13.001Z</time></trkpt><trkpt lat="-28.207207483216724" lon="114.32609157070917"><ele>57.0</ele><time>2026-04-13T08:31:14.001Z</time></trkpt><trkpt lat="-28.20728093535182" lon="114.32577560632512"><ele>54.0</ele><time>2026-04-13T08:31:15.001Z</time></trkpt><trkpt lat="-28.207396869734403" lon="114.3254768169878"><ele>51.0</ele><time>2026-04-13T08:31:16.001Z</time></trkpt><trkpt lat="-28.20752284346693" lon="114.32517933368113"><ele>51.0</ele><time>2026-04-13T08:31:17.001Z</time></trkpt><trkpt lat="-28.207650448669764" lon="114.32488268850186"><ele>51.0</ele><time>2026-04-13T08:31:18.001Z</time></trkpt><trkpt lat="-28.20777529551232" lon="114.3245864288206"><ele>48.0</ele><time>2026-04-13T08:31:19.001Z</time></trkpt><trkpt lat="-28.207892590065565" lon="114.32429956287413"><ele>45.0</ele><time>2026-04-13T08:31:20.001Z</time></trkpt><trkpt lat="-28.208007275960856" lon="114.32401702037134"><ele>43.5</ele><time>2026-04-13T08:31:21.001Z</time></trkpt><trkpt lat="-28.20811870906029" lon="114.32373226452579"><ele>42.0</ele><time>2026-04-13T08:31:22.001Z</time></trkpt><trkpt lat="-28.20823193060799" lon="114.32344781545885"><ele>40.5</ele><time>2026-04-13T08:31:23.001Z</time></trkpt><trkpt lat="-28.208365360614263" lon="114.32316749671648"><ele>39.0</ele><time>2026-04-13T08:31:24.001Z</time></trkpt><trkpt lat="-28.208489594044398" lon="114.32288166656964"><ele>36.5</ele><time>2026-04-13T08:31:25Z</time></trkpt><trkpt lat="-28.20858162969443" lon="114.32258678973204"><ele>34.0</ele><time>2026-04-13T08:31:26Z</time></trkpt><trkpt lat="-28.20868469789429" lon="114.32231561991904"><ele>33.0</ele><time>2026-04-13T08:31:27Z</time></trkpt><trkpt lat="-28.2087734282722" lon="114.32204459143274"><ele>32.0</ele><time>2026-04-13T08:31:28Z</time></trkpt><trkpt lat="-28.20884053748468" lon="114.32176371439837"><ele>32.0</ele><time>2026-04-13T08:31:29Z</time></trkpt><trkpt lat="-28.208894233970952" lon="114.3214705415711"><ele>32.0</ele><time>2026-04-13T08:31:30Z</time></trkpt><trkpt lat="-28.208924304349157" lon="114.32117522755401"><ele>28.5</ele><time>2026-04-13T08:31:31Z</time></trkpt><trkpt lat="-28.20893115890783" lon="114.32088342813107"><ele>25.0</ele><time>2026-04-13T08:31:32Z</time></trkpt><trkpt lat="-28.208917189909652" lon="114.32059405022362"><ele>22.0</ele><time>2026-04-13T08:31:33Z</time></trkpt><trkpt lat="-28.208879390256183" lon="114.32029910648409"><ele>19.0</ele><time>2026-04-13T08:31:34Z</time></trkpt><trkpt lat="-28.208819447809205" lon="114.32000273855972"><ele>17.0</ele><time>2026-04-13T08:31:35Z</time></trkpt><trkpt lat="-28.208736753918867" lon="114.31970373942616"><ele>15.0</ele><time>2026-04-13T08:31:36Z</time></trkpt><trkpt lat="-28.20863492952087" lon="114.31940956933019"><ele>15.0</ele><time>2026-04-13T08:31:37Z</time></trkpt><trkpt lat="-28.208525277519694" lon="114.31911971287177"><ele>15.0</ele><time>2026-04-13T08:31:38Z</time></trkpt><trkpt lat="-28.20843930340458" lon="114.31882385504503"><ele>13.0</ele><time>2026-04-13T08:31:39Z</time></trkpt><trkpt lat="-28.20834678812758" lon="114.31854756573766"><ele>11.0</ele><time>2026-04-13T08:31:40Z</time></trkpt><trkpt lat="-28.20826319462753" lon="114.31828008692239"><ele>12.0</ele><time>2026-04-13T08:31:41Z</time></trkpt><trkpt lat="-28.208190815052" lon="114.31801081255065"><ele>13.0</ele><time>2026-04-13T08:31:42Z</time></trkpt><trkpt lat="-28.20814130868758" lon="114.31773253675382"><ele>13.5</ele><time>2026-04-13T08:31:43Z</time></trkpt><trkpt lat="-28.208109205971255" lon="114.31744959013568"><ele>14.0</ele><time>2026-04-13T08:31:44Z</time></trkpt><trkpt lat="-28.208097868458687" lon="114.31715648850485"><ele>16.0</ele><time>2026-04-13T08:31:45Z</time></trkpt><trkpt lat="-28.208105111707415" lon="114.31686278519932"><ele>18.0</ele><time>2026-04-13T08:31:46Z</time></trkpt><trkpt lat="-28.20813628848427" lon="114.31657244496624"><ele>14.5</ele><time>2026-04-13T08:31:47Z</time></trkpt><trkpt lat="-28.20818843386301" lon="114.3162972903152"><ele>11.0</ele><time>2026-04-13T08:31:48Z</time></trkpt><trkpt lat="-28.20825822944941" lon="114.31602152370832"><ele>11.0</ele><time>2026-04-13T08:31:49Z</time></trkpt><trkpt lat="-28.20833993002314" lon="114.3157383651362"><ele>11.0</ele><time>2026-04-13T08:31:50Z</time></trkpt><trkpt lat="-28.20845349593936" lon="114.3154606367067"><ele>13.0</ele><time>2026-04-13T08:31:51Z</time></trkpt><trkpt lat="-28.208575384560955" lon="114.3151893296032"><ele>15.0</ele><time>2026-04-13T08:31:52Z</time></trkpt><trkpt lat="-28.20870833440965" lon="114.31491525815053"><ele>16.5</ele><time>2026-04-13T08:31:53Z</time></trkpt><trkpt lat="-28.208843614807876" lon="114.31463659296388"><ele>18.0</ele><time>2026-04-13T08:31:54Z</time></trkpt><trkpt lat="-28.208977428183662" lon="114.31435663178843"><ele>17.0</ele><time>2026-04-13T08:31:55Z</time></trkpt><trkpt lat="-28.209113018872433" lon="114.31407473576273"><ele>16.0</ele><time>2026-04-13T08:31:56Z</time></trkpt><trkpt lat="-28.209252028114534" lon="114.31379783703046"><ele>16.0</ele><time>2026-04-13T08:31:57Z</time></trkpt><trkpt lat="-28.209395825793283" lon="114.31352512088763"><ele>16.0</ele><time>2026-04-13T08:31:58Z</time></trkpt><trkpt lat="-28.209542731405254" lon="114.31325557379138"><ele>14.5</ele><time>2026-04-13T08:31:59Z</time></trkpt><trkpt lat="-28.209693024992387" lon="114.31299797223511"><ele>13.0</ele><time>2026-04-13T08:32:00Z</time></trkpt><trkpt lat="-28.20983337402272" lon="114.31275898310432"><ele>13.0</ele><time>2026-04-13T08:32:01Z</time></trkpt><trkpt lat="-28.20995900948259" lon="114.31254609422083"><ele>13.0</ele><time>2026-04-13T08:32:02Z</time></trkpt><trkpt lat="-28.210086640229413" lon="114.31235385118983"><ele>13.0</ele><time>2026-04-13T08:32:03Z</time></trkpt><trkpt lat="-28.210170613092394" lon="114.31213398609393"><ele>14.666666666666666</ele><time>2026-04-13T08:32:04Z</time></trkpt><trkpt lat="-28.210257789989242" lon="114.31191575981573"><ele>16.333333333333332</ele><time>2026-04-13T08:32:05Z</time></trkpt><trkpt lat="-28.21034326262838" lon="114.31168710302927"><ele>18.0</ele><time>2026-04-13T08:32:06Z</time></trkpt><trkpt lat="-28.210428048280654" lon="114.31146369442695"><ele>18.0</ele><time>2026-04-13T08:32:07Z</time></trkpt><trkpt lat="-28.210516921661362" lon="114.31124523129837"><ele>18.0</ele><time>2026-04-13T08:32:08Z</time></trkpt><trkpt lat="-28.210599024289774" lon="114.31105148291886"><ele>18.0</ele><time>2026-04-13T08:32:09Z</time></trkpt><trkpt lat="-28.21069249028419" lon="114.31084391551933"><ele>17.0</ele><time>2026-04-13T08:32:10Z</time></trkpt><trkpt lat="-28.210783976306008" lon="114.31062450272155"><ele>16.0</ele><time>2026-04-13T08:32:11Z</time></trkpt><trkpt lat="-28.21087884260613" lon="114.310393555993"><ele>15.0</ele><time>2026-04-13T08:32:12Z</time></trkpt><trkpt lat="-28.210976621702326" lon="114.31015752154666"><ele>20.0</ele><time>2026-04-13T08:32:13Z</time></trkpt><trkpt lat="-28.21107112557416" lon="114.30991440482585"><ele>25.0</ele><time>2026-04-13T08:32:14Z</time></trkpt><trkpt lat="-28.211151276363143" lon="114.30967875584336"><ele>28.0</ele><time>2026-04-13T08:32:15Z</time></trkpt><trkpt lat="-28.21121895614978" lon="114.30946261651664"><ele>31.0</ele><time>2026-04-13T08:32:16Z</time></trkpt><trkpt lat="-28.2112802391035" lon="114.30923844086605"><ele>34.0</ele><time>2026-04-13T08:32:17Z</time></trkpt><trkpt lat="-28.21133414827718" lon="114.30900529009273"><ele>33.333333333333336</ele><time>2026-04-13T08:32:18Z</time></trkpt><trkpt lat="-28.211384982792122" lon="114.30877745414075"><ele>32.666666666666664</ele><time>2026-04-13T08:32:19Z</time></trkpt><trkpt lat="-28.211425194605603" lon="114.30856233002322"><ele>32.0</ele><time>2026-04-13T08:32:20Z</time></trkpt><trkpt lat="-28.211454018002662" lon="114.30835604864713"><ele>32.0</ele><time>2026-04-13T08:32:21Z</time></trkpt><trkpt lat="-28.211474903143916" lon="114.30815264126271"><ele>32.0</ele><time>2026-04-13T08:32:22Z</time></trkpt><trkpt lat="-28.211482904542613" lon="114.30797745203218"><ele>32.0</ele><time>2026-04-13T08:32:23Z</time></trkpt><trkpt lat="-28.21148711944632" lon="114.30780309569712"><ele>30.75</ele><time>2026-04-13T08:32:24Z</time></trkpt><trkpt lat="-28.21148324788709" lon="114.30763411415411"><ele>29.5</ele><time>2026-04-13T08:32:25Z</time></trkpt><trkpt lat="-28.21146710200635" lon="114.30746694205035"><ele>28.25</ele><time>2026-04-13T08:32:26Z</time></trkpt><trkpt lat="-28.211437488648894" lon="114.30730043235829"><ele>27.0</ele><time>2026-04-13T08:32:27Z</time></trkpt><trkpt lat="-28.21140774085282" lon="114.30712698914834"><ele>24.333333333333332</ele><time>2026-04-13T08:32:28Z</time></trkpt><trkpt lat="-28.211386795704385" lon="114.30695218326306"><ele>21.666666666666664</ele><time>2026-04-13T08:32:29Z</time></trkpt><trkpt lat="-28.21137296603192" lon="114.30676297188923"><ele>19.0</ele><time>2026-04-13T08:32:30Z</time></trkpt><trkpt lat="-28.211365136227666" lon="114.306579222652"><ele>18.0</ele><time>2026-04-13T08:32:31Z</time></trkpt><trkpt lat="-28.211362206612307" lon="114.30640746104837"><ele>17.0</ele><time>2026-04-13T08:32:32Z</time></trkpt><trkpt lat="-28.211361463608835" lon="114.30625036544087"><ele>16.0</ele><time>2026-04-13T08:32:33Z</time></trkpt><trkpt lat="-28.211355084769014" lon="114.30608492732033"><ele>15.0</ele><time>2026-04-13T08:32:34Z</time></trkpt><trkpt lat="-28.211337996927565" lon="114.30591427627772"><ele>15.0</ele><time>2026-04-13T08:32:35Z</time></trkpt><trkpt lat="-28.211313306478058" lon="114.30575428193252"><ele>15.0</ele><time>2026-04-13T08:32:36Z</time></trkpt><trkpt lat="-28.211290133802727" lon="114.30560383883399"><ele>15.0</ele><time>2026-04-13T08:32:37Z</time></trkpt><trkpt lat="-28.211269283785764" lon="114.30547475774914"><ele>15.0</ele><time>2026-04-13T08:32:38Z</time></trkpt><trkpt lat="-28.21125160303894" lon="114.30537139284085"><ele>14.833333333333334</ele><time>2026-04-13T08:32:39Z</time></trkpt><trkpt lat="-28.21123608383849" lon="114.30529164514921"><ele>14.666666666666668</ele><time>2026-04-13T08:32:40Z</time></trkpt><trkpt lat="-28.211212725212352" lon="114.30521688975533"><ele>14.5</ele><time>2026-04-13T08:32:42Z</time></trkpt><trkpt lat="-28.211226253056882" lon="114.30513724837043"><ele>14.333333333333334</ele><time>2026-04-13T08:32:46Z</time></trkpt><trkpt lat="-28.21130398813684" lon="114.30519137321312"><ele>14.166666666666668</ele><time>2026-04-13T08:32:49Z</time></trkpt><trkpt lat="-28.21130977059113" lon="114.30527305678577"><ele>14.0</ele><time>2026-04-13T08:32:50Z</time></trkpt><trkpt lat="-28.21129859647642" lon="114.30537194799382"><ele>14.000000000000002</ele><time>2026-04-13T08:32:51Z</time></trkpt><trkpt lat="-28.211292592109785" lon="114.30546743384399"><ele>14.0</ele><time>2026-04-13T08:32:52Z</time></trkpt><trkpt lat="-28.211292569492752" lon="114.30556946764602"><ele>14.0</ele><time>2026-04-13T08:32:53Z</time></trkpt><trkpt lat="-28.21129874388041" lon="114.30567185050366"><ele>14.0</ele><time>2026-04-13T08:32:54Z</time></trkpt><trkpt lat="-28.211311183099166" lon="114.30577121041638"><ele>14.000000000000002</ele><time>2026-04-13T08:32:55Z</time></trkpt><trkpt lat="-28.211324506521365" lon="114.30587224489751"><ele>14.0</ele><time>2026-04-13T08:32:56Z</time></trkpt><trkpt lat="-28.21134123713781" lon="114.30598228518872"><ele>14.2</ele><time>2026-04-13T08:32:57Z</time></trkpt><trkpt lat="-28.21135802222919" lon="114.3060932834422"><ele>14.399999999999999</ele><time>2026-04-13T08:32:58Z</time></trkpt><trkpt lat="-28.211365657700757" lon="114.30620905795338"><ele>14.6</ele><time>2026-04-13T08:32:59Z</time></trkpt><trkpt lat="-28.211365708843562" lon="114.30633477147587"><ele>14.8</ele><time>2026-04-13T08:33:00Z</time></trkpt><trkpt lat="-28.211362341700436" lon="114.3064713955211"><ele>15.0</ele><time>2026-04-13T08:33:01Z</time></trkpt><trkpt lat="-28.211366077232878" lon="114.3066049260805"><ele>16.0</ele><time>2026-04-13T08:33:02Z</time></trkpt><trkpt lat="-28.21137732869716" lon="114.30674717127481"><ele>17.0</ele><time>2026-04-13T08:33:03Z</time></trkpt><trkpt lat="-28.211392259201258" lon="114.30689287501441"><ele>18.0</ele><time>2026-04-13T08:33:04Z</time></trkpt><trkpt lat="-28.211409490112587" lon="114.30703874775855"><ele>19.0</ele><time>2026-04-13T08:33:05Z</time></trkpt><trkpt lat="-28.21142834472616" lon="114.30719802192115"><ele>21.0</ele><time>2026-04-13T08:33:06Z</time></trkpt><trkpt lat="-28.21144569872293" lon="114.30737060281234"><ele>23.0</ele><time>2026-04-13T08:33:07Z</time></trkpt><trkpt lat="-28.21146172705511" lon="114.30753130831883"><ele>25.0</ele><time>2026-04-13T08:33:08Z</time></trkpt><trkpt lat="-28.211477397915115" lon="114.30768010350312"><ele>27.0</ele><time>2026-04-13T08:33:09Z</time></trkpt><trkpt lat="-28.21148585087851" lon="114.30783018195672"><ele>27.0</ele><time>2026-04-13T08:33:10Z</time></trkpt><trkpt lat="-28.211486298965358" lon="114.30798776179603"><ele>27.0</ele><time>2026-04-13T08:33:11Z</time></trkpt><trkpt lat="-28.211471984597864" lon="114.30814396082054"><ele>27.0</ele><time>2026-04-13T08:33:12Z</time></trkpt><trkpt lat="-28.211447449510306" lon="114.3083116205786"><ele>27.0</ele><time>2026-04-13T08:33:13Z</time></trkpt><trkpt lat="-28.21142154734166" lon="114.30848675202633"><ele>28.666666666666664</ele><time>2026-04-13T08:33:14Z</time></trkpt><trkpt lat="-28.21138936639348" lon="114.30868521778305"><ele>30.333333333333332</ele><time>2026-04-13T08:33:15Z</time></trkpt><trkpt lat="-28.211349198881447" lon="114.3088933274498"><ele>32.0</ele><time>2026-04-13T08:33:16Z</time></trkpt><trkpt lat="-28.211295496556062" lon="114.30911499490827"><ele>32.666666666666664</ele><time>2026-04-13T08:33:17Z</time></trkpt><trkpt lat="-28.21123565545257" lon="114.30933427448379"><ele>33.333333333333336</ele><time>2026-04-13T08:33:18Z</time></trkpt><trkpt lat="-28.211183275892854" lon="114.30953115675294"><ele>34.0</ele><time>2026-04-13T08:33:19Z</time></trkpt><trkpt lat="-28.21112453905209" lon="114.30973913101118"><ele>31.0</ele><time>2026-04-13T08:33:20Z</time></trkpt><trkpt lat="-28.211053726608593" lon="114.30996238041428"><ele>28.0</ele><time>2026-04-13T08:33:21Z</time></trkpt><trkpt lat="-28.21096721577056" lon="114.3101771099816"><ele>25.0</ele><time>2026-04-13T08:33:22Z</time></trkpt><trkpt lat="-28.21088195037131" lon="114.31036816831488"><ele>25.0</ele><time>2026-04-13T08:33:23Z</time></trkpt><trkpt lat="-28.210804561368704" lon="114.31054409551616"><ele>25.0</ele><time>2026-04-13T08:33:24Z</time></trkpt><trkpt lat="-28.210734031230672" lon="114.31071476829027"><ele>25.0</ele><time>2026-04-13T08:33:25Z</time></trkpt><trkpt lat="-28.210668863458196" lon="114.31087190216607"><ele>23.25</ele><time>2026-04-13T08:33:26Z</time></trkpt><trkpt lat="-28.21060823848374" lon="114.31100762530612"><ele>21.5</ele><time>2026-04-13T08:33:27Z</time></trkpt><trkpt lat="-28.210552927799398" lon="114.31113152281156"><ele>19.75</ele><time>2026-04-13T08:33:28Z</time></trkpt><trkpt lat="-28.21049919432894" lon="114.3112526422109"><ele>18.0</ele><time>2026-04-13T08:33:29Z</time></trkpt><trkpt lat="-28.210446163309076" lon="114.31136617728288"><ele>18.0</ele><time>2026-04-13T08:33:30Z</time></trkpt><trkpt lat="-28.210395325914444" lon="114.31147041047996"><ele>18.0</ele><time>2026-04-13T08:33:31Z</time></trkpt><trkpt lat="-28.21035455473153" lon="114.31156414179732"><ele>18.0</ele><time>2026-04-13T08:33:32Z</time></trkpt><trkpt lat="-28.210319666898787" lon="114.3116442875873"><ele>18.0</ele><time>2026-04-13T08:33:33Z</time></trkpt><trkpt lat="-28.210288443612924" lon="114.31171730064862"><ele>18.0</ele><time>2026-04-13T08:33:34Z</time></trkpt><trkpt lat="-28.210269681283286" lon="114.31183003644405"><ele>18.0</ele><time>2026-04-13T08:33:36Z</time></trkpt><trkpt lat="-28.210308577504332" lon="114.31189939475284"><ele>18.0</ele><time>2026-04-13T08:33:38Z</time></trkpt><trkpt lat="-28.21039443916067" lon="114.3119061305065"><ele>18.0</ele><time>2026-04-13T08:33:40Z</time></trkpt><trkpt lat="-28.21046265520593" lon="114.31189030423538"><ele>18.0</ele><time>2026-04-13T08:33:41Z</time></trkpt><trkpt lat="-28.210518461762753" lon="114.31185608011604"><ele>18.0</ele><time>2026-04-13T08:33:42Z</time></trkpt><trkpt lat="-28.210605329159193" lon="114.31175123145098"><ele>18.0</ele><time>2026-04-13T08:33:44Z</time></trkpt><trkpt lat="-28.210652798008812" lon="114.3116916624764"><ele>18.0</ele><time>2026-04-13T08:33:45Z</time></trkpt><trkpt lat="-28.21070791125047" lon="114.3116228275004"><ele>17.25</ele><time>2026-04-13T08:33:46Z</time></trkpt><trkpt lat="-28.210787339471477" lon="114.31153276476016"><ele>16.5</ele><time>2026-04-13T08:33:47Z</time></trkpt><trkpt lat="-28.210874674493247" lon="114.31143346559676"><ele>15.75</ele><time>2026-04-13T08:33:48Z</time></trkpt><trkpt lat="-28.210962060133923" lon="114.31133637727314"><ele>15.0</ele><time>2026-04-13T08:33:49Z</time></trkpt><trkpt lat="-28.211066842005906" lon="114.3112290174286"><ele>15.0</ele><time>2026-04-13T08:33:50Z</time></trkpt><trkpt lat="-28.211200743029895" lon="114.31111426125662"><ele>15.0</ele><time>2026-04-13T08:33:51Z</time></trkpt><trkpt lat="-28.211339166069948" lon="114.31100309550443"><ele>15.0</ele><time>2026-04-13T08:33:52Z</time></trkpt><trkpt lat="-28.21147256488689" lon="114.31090108994522"><ele>13.666666666666666</ele><time>2026-04-13T08:33:53Z</time></trkpt><trkpt lat="-28.211608685080424" lon="114.3108041455718"><ele>12.333333333333332</ele><time>2026-04-13T08:33:54Z</time></trkpt><trkpt lat="-28.211737418193582" lon="114.31071161775547"><ele>11.0</ele><time>2026-04-13T08:33:55Z</time></trkpt><trkpt lat="-28.211858790464394" lon="114.31061717092902"><ele>11.0</ele><time>2026-04-13T08:33:56Z</time></trkpt><trkpt lat="-28.21200454626465" lon="114.31051050210812"><ele>11.0</ele><time>2026-04-13T08:33:57Z</time></trkpt><trkpt lat="-28.212181190102285" lon="114.31039981598603"><ele>11.0</ele><time>2026-04-13T08:33:58Z</time></trkpt><trkpt lat="-28.212371435530425" lon="114.31028865575506"><ele>11.0</ele><time>2026-04-13T08:33:59Z</time></trkpt><trkpt lat="-28.212553508008536" lon="114.3101834038296"><ele>11.0</ele><time>2026-04-13T08:34:00Z</time></trkpt><trkpt lat="-28.21274177200548" lon="114.31007422170522"><ele>11.0</ele><time>2026-04-13T08:34:01Z</time></trkpt><trkpt lat="-28.212928198342397" lon="114.30996431835023"><ele>11.0</ele><time>2026-04-13T08:34:02Z</time></trkpt><trkpt lat="-28.213118207778294" lon="114.30985255863473"><ele>11.0</ele><time>2026-04-13T08:34:03Z</time></trkpt><trkpt lat="-28.21331109185867" lon="114.30974458750384"><ele>11.0</ele><time>2026-04-13T08:34:04Z</time></trkpt><trkpt lat="-28.21350654542881" lon="114.30963598320555"><ele>11.5</ele><time>2026-04-13T08:34:05Z</time></trkpt><trkpt lat="-28.213707196605597" lon="114.30952306460901"><ele>12.0</ele><time>2026-04-13T08:34:06Z</time></trkpt><trkpt lat="-28.213918659946046" lon="114.3094014263126"><ele>11.5</ele><time>2026-04-13T08:34:07Z</time></trkpt><trkpt lat="-28.214136608372442" lon="114.30927367487897"><ele>11.0</ele><time>2026-04-13T08:34:08Z</time></trkpt><trkpt lat="-28.214364898612583" lon="114.30913862153534"><ele>11.0</ele><time>2026-04-13T08:34:09Z</time></trkpt><trkpt lat="-28.214593656058582" lon="114.30900508940627"><ele>11.0</ele><time>2026-04-13T08:34:10Z</time></trkpt><trkpt lat="-28.214817182552103" lon="114.30887145592528"><ele>10.5</ele><time>2026-04-13T08:34:11Z</time></trkpt><trkpt lat="-28.215047468423297" lon="114.30873880090499"><ele>10.0</ele><time>2026-04-13T08:34:12Z</time></trkpt><trkpt lat="-28.215276179064222" lon="114.30860808391607"><ele>10.0</ele><time>2026-04-13T08:34:13Z</time></trkpt><trkpt lat="-28.215501274337214" lon="114.30848148918056"><ele>10.0</ele><time>2026-04-13T08:34:14Z</time></trkpt><trkpt lat="-28.21571992130507" lon="114.30835635565123"><ele>10.0</ele><time>2026-04-13T08:34:15Z</time></trkpt><trkpt lat="-28.21593707461278" lon="114.30823324416413"><ele>10.0</ele><time>2026-04-13T08:34:16Z</time></trkpt><trkpt lat="-28.21614958837039" lon="114.308110504481"><ele>10.5</ele><time>2026-04-13T08:34:17Z</time></trkpt><trkpt lat="-28.216358744959358" lon="114.30799019231833"><ele>11.0</ele><time>2026-04-13T08:34:18Z</time></trkpt><trkpt lat="-28.21656141110454" lon="114.30786976297045"><ele>11.0</ele><time>2026-04-13T08:34:19Z</time></trkpt><trkpt lat="-28.2167609804731" lon="114.30774378780553"><ele>11.0</ele><time>2026-04-13T08:34:20Z</time></trkpt><trkpt lat="-28.216960376924266" lon="114.30760238510783"><ele>11.0</ele><time>2026-04-13T08:34:21Z</time></trkpt><trkpt lat="-28.217149000164834" lon="114.30743677815092"><ele>11.0</ele><time>2026-04-13T08:34:22Z</time></trkpt><trkpt lat="-28.217323366074748" lon="114.3072400476359"><ele>10.0</ele><time>2026-04-13T08:34:23Z</time></trkpt><trkpt lat="-28.21748199165635" lon="114.30701546114254"><ele>9.0</ele><time>2026-04-13T08:34:24Z</time></trkpt><trkpt lat="-28.217626578236462" lon="114.30677678019039"><ele>9.0</ele><time>2026-04-13T08:34:25Z</time></trkpt><trkpt lat="-28.217756594882683" lon="114.30652330161837"><ele>9.0</ele><time>2026-04-13T08:34:26Z</time></trkpt><trkpt lat="-28.21787137109316" lon="114.30625074708037"><ele>9.0</ele><time>2026-04-13T08:34:27Z</time></trkpt><trkpt lat="-28.217962425254953" lon="114.30596918544214"><ele>9.0</ele><time>2026-04-13T08:34:28Z</time></trkpt><trkpt lat="-28.21801322606732" lon="114.30567780701175"><ele>8.5</ele><time>2026-04-13T08:34:29Z</time></trkpt><trkpt lat="-28.21804334657614" lon="114.30537620683921"><ele>8.0</ele><time>2026-04-13T08:34:30Z</time></trkpt><trkpt lat="-28.218054348204564" lon="114.30507200892576"><ele>8.0</ele><time>2026-04-13T08:34:31Z</time></trkpt><trkpt lat="-28.218030231156078" lon="114.3047662138232"><ele>8.0</ele><time>2026-04-13T08:34:32Z</time></trkpt><trkpt lat="-28.217981010169" lon="114.30445204881971"><ele>9.0</ele><time>2026-04-13T08:34:33Z</time></trkpt><trkpt lat="-28.217907396342902" lon="114.30414568299034"><ele>10.0</ele><time>2026-04-13T08:34:34Z</time></trkpt><trkpt lat="-28.217808102867842" lon="114.30384468428014"><ele>10.5</ele><time>2026-04-13T08:34:35Z</time></trkpt><trkpt lat="-28.217680855144245" lon="114.30356085304489"><ele>11.0</ele><time>2026-04-13T08:34:36Z</time></trkpt><trkpt lat="-28.21752612853533" lon="114.30328995348228"><ele>10.5</ele><time>2026-04-13T08:34:37Z</time></trkpt><trkpt lat="-28.217353605736868" lon="114.30302327669517"><ele>10.0</ele><time>2026-04-13T08:34:38Z</time></trkpt><trkpt lat="-28.21718771841722" lon="114.30274481171281"><ele>10.0</ele><time>2026-04-13T08:34:39Z</time></trkpt><trkpt lat="-28.217008196988" lon="114.30247416378207"><ele>10.0</ele><time>2026-04-13T08:34:40Z</time></trkpt><trkpt lat="-28.216831163322443" lon="114.302208081975"><ele>10.0</ele><time>2026-04-13T08:34:41Z</time></trkpt><trkpt lat="-28.216654710031808" lon="114.30194342188071"><ele>10.0</ele><time>2026-04-13T08:34:42Z</time></trkpt><trkpt lat="-28.21647739937755" lon="114.30167624419076"><ele>10.0</ele><time>2026-04-13T08:34:43Z</time></trkpt><trkpt lat="-28.216286709346413" lon="114.30142076864028"><ele>10.0</ele><time>2026-04-13T08:34:44Z</time></trkpt><trkpt lat="-28.216111094000432" lon="114.301150323925"><ele>10.0</ele><time>2026-04-13T08:34:45Z</time></trkpt><trkpt lat="-28.215934241534327" lon="114.30088137399163"><ele>10.0</ele><time>2026-04-13T08:34:46Z</time></trkpt><trkpt lat="-28.21575768420565" lon="114.30061111414824"><ele>8.5</ele><time>2026-04-13T08:34:47Z</time></trkpt><trkpt lat="-28.21558215399941" lon="114.30034236892249"><ele>7.0</ele><time>2026-04-13T08:34:48Z</time></trkpt><trkpt lat="-28.215407490490527" lon="114.30007706583557"><ele>7.0</ele><time>2026-04-13T08:34:49Z</time></trkpt><trkpt lat="-28.215231453257953" lon="114.2998117594344"><ele>7.0</ele><time>2026-04-13T08:34:50Z</time></trkpt><trkpt lat="-28.215055155724365" lon="114.29954914640146"><ele>7.0</ele><time>2026-04-13T08:34:51Z</time></trkpt><trkpt lat="-28.21487938453848" lon="114.29928638795627"><ele>7.0</ele><time>2026-04-13T08:34:52Z</time></trkpt><trkpt lat="-28.214705448080288" lon="114.29902305853864"><ele>8.0</ele><time>2026-04-13T08:34:53Z</time></trkpt><trkpt lat="-28.214533888862157" lon="114.29875954346555"><ele>9.0</ele><time>2026-04-13T08:34:54Z</time></trkpt><trkpt lat="-28.21435764880824" lon="114.29849825333693"><ele>9.0</ele><time>2026-04-13T08:34:55Z</time></trkpt><trkpt lat="-28.214184582480204" lon="114.29823895459279"><ele>9.0</ele><time>2026-04-13T08:34:56Z</time></trkpt><trkpt lat="-28.214012536242215" lon="114.29797927542603"><ele>7.5</ele><time>2026-04-13T08:34:57Z</time></trkpt><trkpt lat="-28.213840462492257" lon="114.29771864042544"><ele>6.0</ele><time>2026-04-13T08:34:58Z</time></trkpt><trkpt lat="-28.21367101113356" lon="114.29746089501465"><ele>6.5</ele><time>2026-04-13T08:34:59Z</time></trkpt><trkpt lat="-28.213501387759848" lon="114.29720293590057"><ele>7.0</ele><time>2026-04-13T08:35:00Z</time></trkpt><trkpt lat="-28.213329695195192" lon="114.29694290012301"><ele>7.5</ele><time>2026-04-13T08:35:01Z</time></trkpt><trkpt lat="-28.213154271583228" lon="114.29668014354905"><ele>8.0</ele><time>2026-04-13T08:35:02Z</time></trkpt><trkpt lat="-28.212979033653788" lon="114.29641809337494"><ele>8.5</ele><time>2026-04-13T08:35:03Z</time></trkpt><trkpt lat="-28.21280564267818" lon="114.29615782071062"><ele>9.0</ele><time>2026-04-13T08:35:04Z</time></trkpt><trkpt lat="-28.212634908545585" lon="114.29589556668726"><ele>9.0</ele><time>2026-04-13T08:35:05Z</time></trkpt><trkpt lat="-28.21246630683162" lon="114.29563391236259"><ele>9.0</ele><time>2026-04-13T08:35:06Z</time></trkpt><trkpt lat="-28.212296027492467" lon="114.29537542320428"><ele>6.5</ele><time>2026-04-13T08:35:07Z</time></trkpt><trkpt lat="-28.21212458243905" lon="114.2951193509969"><ele>4.0</ele><time>2026-04-13T08:35:08Z</time></trkpt><trkpt lat="-28.21195501101301" lon="114.29486473919944"><ele>6.0</ele><time>2026-04-13T08:35:09Z</time></trkpt><trkpt lat="-28.21178752964029" lon="114.29461083315725"><ele>8.0</ele><time>2026-04-13T08:35:10Z</time></trkpt><trkpt lat="-28.21161696524417" lon="114.29435119901954"><ele>6.5</ele><time>2026-04-13T08:35:11Z</time></trkpt><trkpt lat="-28.211442173419847" lon="114.2940867225809"><ele>5.0</ele><time>2026-04-13T08:35:12Z</time></trkpt><trkpt lat="-28.21127047257527" lon="114.29382980978671"><ele>5.0</ele><time>2026-04-13T08:35:13Z</time></trkpt><trkpt lat="-28.211104432408277" lon="114.29358061575"><ele>5.0</ele><time>2026-04-13T08:35:14Z</time></trkpt><trkpt lat="-28.21094912685161" lon="114.29334824014357"><ele>5.0</ele><time>2026-04-13T08:35:15Z</time></trkpt><trkpt lat="-28.210806121569565" lon="114.29312986464218"><ele>5.0</ele><time>2026-04-13T08:35:16Z</time></trkpt><trkpt lat="-28.210672203414134" lon="114.29292609665302"><ele>5.0</ele><time>2026-04-13T08:35:17Z</time></trkpt><trkpt lat="-28.21054289041491" lon="114.29272869609682"><ele>5.0</ele><time>2026-04-13T08:35:18Z</time></trkpt><trkpt lat="-28.21040877843663" lon="114.292517567085"><ele>5.0</ele><time>2026-04-13T08:35:19Z</time></trkpt><trkpt lat="-28.210264288961934" lon="114.29229648585768"><ele>5.0</ele><time>2026-04-13T08:35:20Z</time></trkpt><trkpt lat="-28.21011042157139" lon="114.29207225483916"><ele>5.0</ele><time>2026-04-13T08:35:21Z</time></trkpt><trkpt lat="-28.20995172605344" lon="114.29184222429991"><ele>5.0</ele><time>2026-04-13T08:35:22Z</time></trkpt><trkpt lat="-28.209792533534625" lon="114.29160604284661"><ele>5.0</ele><time>2026-04-13T08:35:23Z</time></trkpt><trkpt lat="-28.20963880598218" lon="114.29135268172404"><ele>5.0</ele><time>2026-04-13T08:35:24Z</time></trkpt><trkpt lat="-28.209473262337823" lon="114.29110280491606"><ele>5.0</ele><time>2026-04-13T08:35:25Z</time></trkpt><trkpt lat="-28.209308884355018" lon="114.29085193219463"><ele>5.0</ele><time>2026-04-13T08:35:26Z</time></trkpt><trkpt lat="-28.20914521589351" lon="114.2906021425249"><ele>5.0</ele><time>2026-04-13T08:35:27Z</time></trkpt><trkpt lat="-28.20897930350495" lon="114.2903511731608"><ele>5.0</ele><time>2026-04-13T08:35:28Z</time></trkpt><trkpt lat="-28.208793991112575" lon="114.29011126158085"><ele>5.0</ele><time>2026-04-13T08:35:29Z</time></trkpt><trkpt lat="-28.20862420638862" lon="114.28985401858102"><ele>4.5</ele><time>2026-04-13T08:35:30Z</time></trkpt><trkpt lat="-28.208455549966992" lon="114.28959855758684"><ele>4.0</ele><time>2026-04-13T08:35:31Z</time></trkpt><trkpt lat="-28.20828376688967" lon="114.28934346427005"><ele>4.5</ele><time>2026-04-13T08:35:32Z</time></trkpt><trkpt lat="-28.208112366059964" lon="114.289088829931"><ele>5.0</ele><time>2026-04-13T08:35:33Z</time></trkpt><trkpt lat="-28.20794005650339" lon="114.28883225197313"><ele>5.0</ele><time>2026-04-13T08:35:34Z</time></trkpt><trkpt lat="-28.207771354054415" lon="114.28857616935925"><ele>5.0</ele><time>2026-04-13T08:35:35Z</time></trkpt><trkpt lat="-28.207603680516748" lon="114.28831817485867"><ele>4.5</ele><time>2026-04-13T08:35:36Z</time></trkpt><trkpt lat="-28.20743511012378" lon="114.28806164408917"><ele>4.0</ele><time>2026-04-13T08:35:37Z</time></trkpt><trkpt lat="-28.207264885042846" lon="114.28779765901365"><ele>3.5</ele><time>2026-04-13T08:35:38Z</time></trkpt><trkpt lat="-28.207091473157043" lon="114.28753167888445"><ele>3.0</ele><time>2026-04-13T08:35:39Z</time></trkpt><trkpt lat="-28.20691447558976" lon="114.2872715180798"><ele>4.0</ele><time>2026-04-13T08:35:40Z</time></trkpt><trkpt lat="-28.206740290480553" lon="114.2870113680211"><ele>5.0</ele><time>2026-04-13T08:35:41Z</time></trkpt><trkpt lat="-28.206567591192943" lon="114.28675246219105"><ele>4.5</ele><time>2026-04-13T08:35:42Z</time></trkpt><trkpt lat="-28.206394991313452" lon="114.2864996475556"><ele>4.0</ele><time>2026-04-13T08:35:43Z</time></trkpt><trkpt lat="-28.206225550511714" lon="114.2862509293732"><ele>5.5</ele><time>2026-04-13T08:35:44Z</time></trkpt><trkpt lat="-28.206055234892105" lon="114.28600611792046"><ele>7.0</ele><time>2026-04-13T08:35:45Z</time></trkpt><trkpt lat="-28.205875072511475" lon="114.2857678294706"><ele>6.5</ele><time>2026-04-13T08:35:46Z</time></trkpt><trkpt lat="-28.205683026632283" lon="114.28553613412372"><ele>6.0</ele><time>2026-04-13T08:35:47Z</time></trkpt><trkpt lat="-28.205476077529518" lon="114.28531883507473"><ele>6.0</ele><time>2026-04-13T08:35:48Z</time></trkpt><trkpt lat="-28.205259705053184" lon="114.28511088938687"><ele>6.0</ele><time>2026-04-13T08:35:49Z</time></trkpt><trkpt lat="-28.205034713856687" lon="114.2849137174582"><ele>6.0</ele><time>2026-04-13T08:35:50Z</time></trkpt><trkpt lat="-28.204797020977313" lon="114.28472919845193"><ele>6.0</ele><time>2026-04-13T08:35:51Z</time></trkpt><trkpt lat="-28.204555044304723" lon="114.28454680762202"><ele>6.0</ele><time>2026-04-13T08:35:52Z</time></trkpt><trkpt lat="-28.204314068070996" lon="114.28437035209116"><ele>6.0</ele><time>2026-04-13T08:35:53Z</time></trkpt><trkpt lat="-28.204080531781603" lon="114.28419720470815"><ele>6.0</ele><time>2026-04-13T08:35:54Z</time></trkpt><trkpt lat="-28.203853390829273" lon="114.2840220462208"><ele>6.0</ele><time>2026-04-13T08:35:55Z</time></trkpt><trkpt lat="-28.203646698580034" lon="114.28384522460725"><ele>7.5</ele><time>2026-04-13T08:35:56Z</time></trkpt><trkpt lat="-28.203465742751987" lon="114.2836694844117"><ele>9.0</ele><time>2026-04-13T08:35:57Z</time></trkpt><trkpt lat="-28.203306861129974" lon="114.28349344585443"><ele>9.0</ele><time>2026-04-13T08:35:58Z</time></trkpt><trkpt lat="-28.203167976549384" lon="114.28331130018123"><ele>9.0</ele><time>2026-04-13T08:35:59Z</time></trkpt><trkpt lat="-28.20303748587272" lon="114.28311129111448"><ele>9.0</ele><time>2026-04-13T08:36:00Z</time></trkpt><trkpt lat="-28.202906913418083" lon="114.28288184866317"><ele>8.0</ele><time>2026-04-13T08:36:01Z</time></trkpt><trkpt lat="-28.202784233732107" lon="114.28263924557841"><ele>7.0</ele><time>2026-04-13T08:36:02Z</time></trkpt><trkpt lat="-28.20267653963693" lon="114.28237634971167"><ele>7.0</ele><time>2026-04-13T08:36:03Z</time></trkpt><trkpt lat="-28.202583947260525" lon="114.28210718511683"><ele>7.0</ele><time>2026-04-13T08:36:04Z</time></trkpt><trkpt lat="-28.202509361236782" lon="114.28182754182887"><ele>7.0</ele><time>2026-04-13T08:36:05Z</time></trkpt><trkpt lat="-28.202440634390214" lon="114.28154445804824"><ele>7.0</ele><time>2026-04-13T08:36:06Z</time></trkpt><trkpt lat="-28.202382297075395" lon="114.2812645209288"><ele>5.0</ele><time>2026-04-13T08:36:07Z</time></trkpt><trkpt lat="-28.202325690273586" lon="114.28098929906247"><ele>3.0</ele><time>2026-04-13T08:36:08Z</time></trkpt><trkpt lat="-28.202258482673123" lon="114.28072404716941"><ele>4.0</ele><time>2026-04-13T08:36:09Z</time></trkpt><trkpt lat="-28.20217077940822" lon="114.28046476218057"><ele>5.0</ele><time>2026-04-13T08:36:10Z</time></trkpt><trkpt lat="-28.20205903671802" lon="114.28021103026644"><ele>5.0</ele><time>2026-04-13T08:36:11Z</time></trkpt><trkpt lat="-28.201928714356455" lon="114.27996098123363"><ele>5.0</ele><time>2026-04-13T08:36:12Z</time></trkpt><trkpt lat="-28.201781071185096" lon="114.27971146348452"><ele>4.5</ele><time>2026-04-13T08:36:13Z</time></trkpt><trkpt lat="-28.20161933443376" lon="114.27946489004532"><ele>4.0</ele><time>2026-04-13T08:36:14Z</time></trkpt><trkpt lat="-28.201446713345547" lon="114.27923728093552"><ele>4.0</ele><time>2026-04-13T08:36:15Z</time></trkpt><trkpt lat="-28.201259196956915" lon="114.27903015196145"><ele>4.0</ele><time>2026-04-13T08:36:16Z</time></trkpt><trkpt lat="-28.20105581147807" lon="114.27883937187447"><ele>4.5</ele><time>2026-04-13T08:36:17Z</time></trkpt><trkpt lat="-28.200839177937375" lon="114.27866390278332"><ele>5.0</ele><time>2026-04-13T08:36:18Z</time></trkpt><trkpt lat="-28.200615774693812" lon="114.2784979202564"><ele>5.0</ele><time>2026-04-13T08:36:19Z</time></trkpt><trkpt lat="-28.200398044277417" lon="114.27833568277434"><ele>5.0</ele><time>2026-04-13T08:36:20Z</time></trkpt><trkpt lat="-28.200200194864873" lon="114.27818048259596"><ele>8.5</ele><time>2026-04-13T08:36:21Z</time></trkpt><trkpt lat="-28.200012846568555" lon="114.27802761332579"><ele>12.0</ele><time>2026-04-13T08:36:22Z</time></trkpt><trkpt lat="-28.19983366367875" lon="114.27787209323013"><ele>10.0</ele><time>2026-04-13T08:36:23Z</time></trkpt><trkpt lat="-28.199664591660937" lon="114.27770754846752"><ele>8.0</ele><time>2026-04-13T08:36:24Z</time></trkpt><trkpt lat="-28.199502483613568" lon="114.2775277706719"><ele>6.0</ele><time>2026-04-13T08:36:25Z</time></trkpt><trkpt lat="-28.199343289405324" lon="114.27732719419929"><ele>6.0</ele><time>2026-04-13T08:36:26Z</time></trkpt><trkpt lat="-28.199189267291572" lon="114.27711095140886"><ele>6.0</ele><time>2026-04-13T08:36:27Z</time></trkpt><trkpt lat="-28.199041429915695" lon="114.27687661011826"><ele>6.0</ele><time>2026-04-13T08:36:28Z</time></trkpt><trkpt lat="-28.198900226968178" lon="114.27663488011314"><ele>6.0</ele><time>2026-04-13T08:36:29Z</time></trkpt><trkpt lat="-28.198763127351686" lon="114.27638711770477"><ele>5.0</ele><time>2026-04-13T08:36:30Z</time></trkpt><trkpt lat="-28.19863366584903" lon="114.27613460340152"><ele>4.0</ele><time>2026-04-13T08:36:31Z</time></trkpt><trkpt lat="-28.19850466719252" lon="114.27588449320425"><ele>4.0</ele><time>2026-04-13T08:36:32Z</time></trkpt><trkpt lat="-28.198371404003353" lon="114.27563624724093"><ele>4.0</ele><time>2026-04-13T08:36:33Z</time></trkpt><trkpt lat="-28.198237354454974" lon="114.2753856890565"><ele>4.0</ele><time>2026-04-13T08:36:34Z</time></trkpt><trkpt lat="-28.198123861298704" lon="114.27512099516865"><ele>4.0</ele><time>2026-04-13T08:36:35Z</time></trkpt><trkpt lat="-28.197818908883303" lon="114.27467805999648"><ele>6.0</ele><time>2026-04-13T08:36:37Z</time></trkpt><trkpt lat="-28.19765837819827" lon="114.27447483685486"><ele>8.0</ele><time>2026-04-13T08:36:38Z</time></trkpt><trkpt lat="-28.197486600392512" lon="114.27428980366383"><ele>7.5</ele><time>2026-04-13T08:36:39Z</time></trkpt><trkpt lat="-28.19731357410568" lon="114.274101216517"><ele>7.0</ele><time>2026-04-13T08:36:40Z</time></trkpt><trkpt lat="-28.197119248463107" lon="114.27392815837074"><ele>7.0</ele><time>2026-04-13T08:36:41Z</time></trkpt><trkpt lat="-28.196913426062952" lon="114.27376921865063"><ele>7.0</ele><time>2026-04-13T08:36:42Z</time></trkpt><trkpt lat="-28.19669266549161" lon="114.27363268735672"><ele>6.5</ele><time>2026-04-13T08:36:43Z</time></trkpt><trkpt lat="-28.196476232760638" lon="114.27349301025144"><ele>6.0</ele><time>2026-04-13T08:36:44Z</time></trkpt><trkpt lat="-28.196264506240112" lon="114.27335946683891"><ele>6.0</ele><time>2026-04-13T08:36:45Z</time></trkpt><trkpt lat="-28.19607317199974" lon="114.27321276818616"><ele>6.0</ele><time>2026-04-13T08:36:46Z</time></trkpt><trkpt lat="-28.195882475734283" lon="114.27308696120159"><ele>6.333333333333334</ele><time>2026-04-13T08:36:47Z</time></trkpt><trkpt lat="-28.195693928724488" lon="114.27298376265155"><ele>6.666666666666667</ele><time>2026-04-13T08:36:48Z</time></trkpt><trkpt lat="-28.19551856203742" lon="114.27286536196627"><ele>7.0</ele><time>2026-04-13T08:36:49Z</time></trkpt><trkpt lat="-28.19534931886937" lon="114.27274526846077"><ele>6.0</ele><time>2026-04-13T08:36:50Z</time></trkpt><trkpt lat="-28.195186834783165" lon="114.27261300038025"><ele>5.0</ele><time>2026-04-13T08:36:51Z</time></trkpt><trkpt lat="-28.195038786615324" lon="114.27244620661845"><ele>4.0</ele><time>2026-04-13T08:36:52Z</time></trkpt><trkpt lat="-28.19486426048984" lon="114.27229530908602"><ele>5.5</ele><time>2026-04-13T08:36:53Z</time></trkpt><trkpt lat="-28.194703526843053" lon="114.27211535002142"><ele>7.0</ele><time>2026-04-13T08:36:54Z</time></trkpt><trkpt lat="-28.19454807186159" lon="114.27192841271896"><ele>7.0</ele><time>2026-04-13T08:36:55Z</time></trkpt><trkpt lat="-28.19442144860332" lon="114.27172056161758"><ele>7.0</ele><time>2026-04-13T08:36:56Z</time></trkpt><trkpt lat="-28.194300230902922" lon="114.27152858445079"><ele>7.0</ele><time>2026-04-13T08:36:57Z</time></trkpt><trkpt lat="-28.19417604920392" lon="114.27133746977378"><ele>6.0</ele><time>2026-04-13T08:36:58Z</time></trkpt><trkpt lat="-28.19409814201537" lon="114.27111795160977"><ele>5.0</ele><time>2026-04-13T08:36:59Z</time></trkpt><trkpt lat="-28.194013303572014" lon="114.2708958402704"><ele>4.0</ele><time>2026-04-13T08:37:00Z</time></trkpt><trkpt lat="-28.193928086734704" lon="114.27066714421316"><ele>4.0</ele><time>2026-04-13T08:37:01Z</time></trkpt><trkpt lat="-28.193882593522797" lon="114.27042382378417"><ele>4.0</ele><time>2026-04-13T08:37:02Z</time></trkpt><trkpt lat="-28.193830228510116" lon="114.27017963314731"><ele>4.0</ele><time>2026-04-13T08:37:03Z</time></trkpt><trkpt lat="-28.193775525350695" lon="114.26992104050859"><ele>4.5</ele><time>2026-04-13T08:37:04Z</time></trkpt><trkpt lat="-28.19370583571663" lon="114.26966123420529"><ele>5.0</ele><time>2026-04-13T08:37:05Z</time></trkpt><trkpt lat="-28.193651176378907" lon="114.26939513852453"><ele>5.0</ele><time>2026-04-13T08:37:06Z</time></trkpt><trkpt lat="-28.193608444581344" lon="114.26912456404573"><ele>5.0</ele><time>2026-04-13T08:37:07Z</time></trkpt><trkpt lat="-28.19355280677721" lon="114.26885838664907"><ele>5.0</ele><time>2026-04-13T08:37:08Z</time></trkpt><trkpt lat="-28.193496628669838" lon="114.26858988749777"><ele>5.0</ele><time>2026-04-13T08:37:09Z</time></trkpt><trkpt lat="-28.193424180185733" lon="114.26832293521176"><ele>5.5</ele><time>2026-04-13T08:37:10Z</time></trkpt><trkpt lat="-28.193367844543385" lon="114.26805169696756"><ele>6.0</ele><time>2026-04-13T08:37:11Z</time></trkpt><trkpt lat="-28.193324569544586" lon="114.26777440139456"><ele>6.0</ele><time>2026-04-13T08:37:12Z</time></trkpt><trkpt lat="-28.193265625933446" lon="114.2674985170585"><ele>6.0</ele><time>2026-04-13T08:37:13Z</time></trkpt><trkpt lat="-28.19320660005162" lon="114.26722248838765"><ele>4.5</ele><time>2026-04-13T08:37:14Z</time></trkpt><trkpt lat="-28.19314696477809" lon="114.26694360999167"><ele>3.0</ele><time>2026-04-13T08:37:15Z</time></trkpt><trkpt lat="-28.193085891820182" lon="114.26665760324724"><ele>3.5</ele><time>2026-04-13T08:37:16Z</time></trkpt><trkpt lat="-28.193026243971634" lon="114.26637089589488"><ele>4.0</ele><time>2026-04-13T08:37:17Z</time></trkpt><trkpt lat="-28.19296640509551" lon="114.2660929807115"><ele>4.0</ele><time>2026-04-13T08:37:18Z</time></trkpt><trkpt lat="-28.19288843224219" lon="114.26582472266736"><ele>4.0</ele><time>2026-04-13T08:37:19Z</time></trkpt><trkpt lat="-28.19282299037763" lon="114.26556424958913"><ele>3.5</ele><time>2026-04-13T08:37:20Z</time></trkpt><trkpt lat="-28.192734562534547" lon="114.2653085036019"><ele>3.0</ele><time>2026-04-13T08:37:21Z</time></trkpt><trkpt lat="-28.192630384507957" lon="114.26505013094388"><ele>3.0</ele><time>2026-04-13T08:37:22Z</time></trkpt><trkpt lat="-28.19251063219626" lon="114.2647913455683"><ele>3.0</ele><time>2026-04-13T08:37:23Z</time></trkpt><trkpt lat="-28.192376116165303" lon="114.26454634277805"><ele>4.0</ele><time>2026-04-13T08:37:24Z</time></trkpt><trkpt lat="-28.19222062506776" lon="114.26430773649686"><ele>5.0</ele><time>2026-04-13T08:37:25Z</time></trkpt><trkpt lat="-28.19204820961964" lon="114.26407185528457"><ele>8.5</ele><time>2026-04-13T08:37:26Z</time></trkpt><trkpt lat="-28.19186580330257" lon="114.26384039487961"><ele>12.0</ele><time>2026-04-13T08:37:27Z</time></trkpt><trkpt lat="-28.191674192646452" lon="114.26362277460237"><ele>8.0</ele><time>2026-04-13T08:37:28Z</time></trkpt><trkpt lat="-28.191475789048926" lon="114.26343446483445"><ele>4.0</ele><time>2026-04-13T08:37:29Z</time></trkpt><trkpt lat="-28.191263677198833" lon="114.26326677788879"><ele>9.5</ele><time>2026-04-13T08:37:30Z</time></trkpt><trkpt lat="-28.19104294493563" lon="114.2631102380929"><ele>15.0</ele><time>2026-04-13T08:37:31Z</time></trkpt><trkpt lat="-28.19082348654659" lon="114.2629583761849"><ele>10.5</ele><time>2026-04-13T08:37:32Z</time></trkpt><trkpt lat="-28.190602438766273" lon="114.2628023663545"><ele>6.0</ele><time>2026-04-13T08:37:33Z</time></trkpt><trkpt lat="-28.190385010097216" lon="114.26264758475928"><ele>6.0</ele><time>2026-04-13T08:37:34Z</time></trkpt><trkpt lat="-28.190168497081576" lon="114.2624927937237"><ele>6.0</ele><time>2026-04-13T08:37:35Z</time></trkpt><trkpt lat="-28.18995263206088" lon="114.26233669689451"><ele>7.0</ele><time>2026-04-13T08:37:36Z</time></trkpt><trkpt lat="-28.189733853072376" lon="114.26218141018701"><ele>8.0</ele><time>2026-04-13T08:37:37Z</time></trkpt><trkpt lat="-28.189515512882025" lon="114.26202881928388"><ele>8.0</ele><time>2026-04-13T08:37:38Z</time></trkpt><trkpt lat="-28.18929707604401" lon="114.26187441374624"><ele>8.0</ele><time>2026-04-13T08:37:39Z</time></trkpt><trkpt lat="-28.189077961015435" lon="114.26171704862267"><ele>10.0</ele><time>2026-04-13T08:37:40Z</time></trkpt><trkpt lat="-28.188856704648593" lon="114.26155590407484"><ele>12.0</ele><time>2026-04-13T08:37:41Z</time></trkpt><trkpt lat="-28.18863200059762" lon="114.26139193510373"><ele>12.0</ele><time>2026-04-13T08:37:42Z</time></trkpt><trkpt lat="-28.18840431127222" lon="114.26122667305849"><ele>12.0</ele><time>2026-04-13T08:37:43Z</time></trkpt><trkpt lat="-28.188174957674935" lon="114.26106040023933"><ele>8.5</ele><time>2026-04-13T08:37:44Z</time></trkpt><trkpt lat="-28.187939130622375" lon="114.26089439543104"><ele>5.0</ele><time>2026-04-13T08:37:45Z</time></trkpt><trkpt lat="-28.18770595809659" lon="114.26073303461393"><ele>5.0</ele><time>2026-04-13T08:37:46Z</time></trkpt><trkpt lat="-28.18748286125942" lon="114.26057734628793"><ele>5.0</ele><time>2026-04-13T08:37:47Z</time></trkpt><trkpt lat="-28.187268733936307" lon="114.26042402980984"><ele>5.0</ele><time>2026-04-13T08:37:48Z</time></trkpt><trkpt lat="-28.18706153480098" lon="114.26027294765926"><ele>5.0</ele><time>2026-04-13T08:37:49Z</time></trkpt><trkpt lat="-28.18686022947301" lon="114.26012585275456"><ele>5.0</ele><time>2026-04-13T08:37:50Z</time></trkpt><trkpt lat="-28.186665882866087" lon="114.25998020822595"><ele>5.0</ele><time>2026-04-13T08:37:51Z</time></trkpt><trkpt lat="-28.186476811606607" lon="114.25983522037836"><ele>5.0</ele><time>2026-04-13T08:37:52Z</time></trkpt><trkpt lat="-28.1862924539564" lon="114.25969028235613"><ele>5.0</ele><time>2026-04-13T08:37:53Z</time></trkpt><trkpt lat="-28.186122753819877" lon="114.2595460894224"><ele>5.0</ele><time>2026-04-13T08:37:54Z</time></trkpt><trkpt lat="-28.18596409633098" lon="114.25939349269798"><ele>5.0</ele><time>2026-04-13T08:37:55Z</time></trkpt><trkpt lat="-28.185820489580248" lon="114.2592334731364"><ele>5.0</ele><time>2026-04-13T08:37:56Z</time></trkpt><trkpt lat="-28.18569081662617" lon="114.25907743133602"><ele>5.0</ele><time>2026-04-13T08:37:57Z</time></trkpt><trkpt lat="-28.185574536989748" lon="114.2589275760348"><ele>5.333333333333334</ele><time>2026-04-13T08:37:58Z</time></trkpt><trkpt lat="-28.185472203063814" lon="114.25878145585736"><ele>5.666666666666667</ele><time>2026-04-13T08:37:59Z</time></trkpt><trkpt lat="-28.18538851602303" lon="114.25863722882501"><ele>6.0</ele><time>2026-04-13T08:38:00Z</time></trkpt><trkpt lat="-28.185313912865844" lon="114.25849548521853"><ele>6.0</ele><time>2026-04-13T08:38:01Z</time></trkpt><trkpt lat="-28.18524702612762" lon="114.25836561188392"><ele>6.0</ele><time>2026-04-13T08:38:02Z</time></trkpt><trkpt lat="-28.185184274743467" lon="114.2582426872587"><ele>6.0</ele><time>2026-04-13T08:38:03Z</time></trkpt><trkpt lat="-28.185129605308706" lon="114.2581335845837"><ele>6.0</ele><time>2026-04-13T08:38:04Z</time></trkpt><trkpt lat="-28.185087931228047" lon="114.25803501266107"><ele>6.0</ele><time>2026-04-13T08:38:05Z</time></trkpt><trkpt lat="-28.185053523638896" lon="114.25796027578109"><ele>6.0</ele><time>2026-04-13T08:38:06Z</time></trkpt><trkpt lat="-28.18498458369493" lon="114.25796448203843"><ele>6.0</ele><time>2026-04-13T08:38:10Z</time></trkpt><trkpt lat="-28.185000831625917" lon="114.25806602880007"><ele>6.0</ele><time>2026-04-13T08:38:13Z</time></trkpt><trkpt lat="-28.185010262370465" lon="114.25813896183332"><ele>6.0</ele><time>2026-04-13T08:38:15Z</time></trkpt><trkpt lat="-28.18498362914582" lon="114.25821620453274"><ele>6.0</ele><time>2026-04-13T08:38:18Z</time></trkpt><trkpt lat="-28.185021010128505" lon="114.25831771840008"><ele>5.999999999999999</ele><time>2026-04-13T08:38:29Z</time></trkpt><trkpt lat="-28.18509124852676" lon="114.25837324186972"><ele>6.0</ele><time>2026-04-13T08:38:32Z</time></trkpt><trkpt lat="-28.185137938779434" lon="114.2584230511543"><ele>6.0</ele><time>2026-04-13T08:38:36Z</time></trkpt><trkpt lat="-28.185087210874197" lon="114.25846768714045"><ele>6.0</ele><time>2026-04-13T08:40:28Z</time></trkpt><trkpt lat="-28.18502544359794" lon="114.25849812909134"><ele>6.0</ele><time>2026-04-13T08:40:36Z</time></trkpt><trkpt lat="-28.184970111744835" lon="114.25853434213353"><ele>5.999999999999999</ele><time>2026-04-13T08:40:43Z</time></trkpt><trkpt lat="-28.184919872511678" lon="114.25858896397749"><ele>6.0</ele><time>2026-04-13T08:40:49Z</time></trkpt><trkpt lat="-28.184881102421485" lon="114.25866272194273"><ele>6.0</ele><time>2026-04-13T08:41:09Z</time></trkpt><trkpt lat="-28.18492133447566" lon="114.25859044038793"><ele>6.0</ele><time>2026-04-13T08:42:46Z</time></trkpt><trkpt lat="-28.18496742501585" lon="114.25852959413056"><ele>6.0</ele><time>2026-04-13T08:42:59Z</time></trkpt><trkpt lat="-28.185032291802653" lon="114.25847542364137"><ele>6.0</ele><time>2026-04-13T08:43:34Z</time></trkpt><trkpt lat="-28.185086862693243" lon="114.25843649930744"><ele>6.0</ele><time>2026-04-13T08:43:50.999Z</time></trkpt><trkpt lat="-28.185156913305242" lon="114.25842675495893"><ele>6.0</ele><time>2026-04-13T08:45:23Z</time></trkpt><trkpt lat="-28.18521334350708" lon="114.25834555214924"><ele>6.0</ele><time>2026-04-13T08:45:29Z</time></trkpt><trkpt lat="-28.185210092882254" lon="114.25827096190339"><ele>6.0</ele><time>2026-04-13T08:45:30Z</time></trkpt><trkpt lat="-28.185140285348194" lon="114.25813503059368"><ele>6.0</ele><time>2026-04-13T08:45:32Z</time></trkpt><trkpt lat="-28.185099548707434" lon="114.25804521821142"><ele>6.0</ele><time>2026-04-13T08:45:33Z</time></trkpt><trkpt lat="-28.185055049045573" lon="114.25793699009704"><ele>6.0</ele><time>2026-04-13T08:45:34Z</time></trkpt><trkpt lat="-28.185018152184504" lon="114.25781617136481"><ele>6.0</ele><time>2026-04-13T08:45:35Z</time></trkpt><trkpt lat="-28.184980006776854" lon="114.25767221824373"><ele>6.0</ele><time>2026-04-13T08:45:36Z</time></trkpt><trkpt lat="-28.184938690142634" lon="114.25751202880895"><ele>6.0</ele><time>2026-04-13T08:45:37Z</time></trkpt><trkpt lat="-28.184900748013654" lon="114.25734695574926"><ele>6.0</ele><time>2026-04-13T08:45:38Z</time></trkpt><trkpt lat="-28.184866540602325" lon="114.25716871890909"><ele>6.666666666666666</ele><time>2026-04-13T08:45:39Z</time></trkpt><trkpt lat="-28.184837821196236" lon="114.25697813486178"><ele>7.333333333333333</ele><time>2026-04-13T08:45:40Z</time></trkpt><trkpt lat="-28.18481413611417" lon="114.25678783774154"><ele>8.0</ele><time>2026-04-13T08:45:41Z</time></trkpt><trkpt lat="-28.184796733696942" lon="114.25658884436938"><ele>7.0</ele><time>2026-04-13T08:45:42Z</time></trkpt><trkpt lat="-28.184791784483473" lon="114.25638865213911"><ele>6.0</ele><time>2026-04-13T08:45:43Z</time></trkpt><trkpt lat="-28.18480196158232" lon="114.25618215597954"><ele>5.0</ele><time>2026-04-13T08:45:44Z</time></trkpt><trkpt lat="-28.184818554091798" lon="114.25597675665908"><ele>5.0</ele><time>2026-04-13T08:45:45Z</time></trkpt><trkpt lat="-28.18484294941816" lon="114.25576815180824"><ele>5.0</ele><time>2026-04-13T08:45:46Z</time></trkpt><trkpt lat="-28.18487251329974" lon="114.25557026249163"><ele>5.0</ele><time>2026-04-13T08:45:46.999Z</time></trkpt><trkpt lat="-28.184911099272092" lon="114.25537952996959"><ele>4.0</ele><time>2026-04-13T08:45:47.999Z</time></trkpt><trkpt lat="-28.184956068497666" lon="114.25519571475652"><ele>3.0</ele><time>2026-04-13T08:45:48.999Z</time></trkpt><trkpt lat="-28.185004513856672" lon="114.25501680336862"><ele>2.0</ele><time>2026-04-13T08:45:49.999Z</time></trkpt><trkpt lat="-28.185059463366137" lon="114.25484481626812"><ele>2.0</ele><time>2026-04-13T08:45:50.999Z</time></trkpt><trkpt lat="-28.185120367741582" lon="114.25468319982001"><ele>2.0</ele><time>2026-04-13T08:45:51.999Z</time></trkpt><trkpt lat="-28.185193913604454" lon="114.25452521270681"><ele>2.0</ele><time>2026-04-13T08:45:52.999Z</time></trkpt><trkpt lat="-28.185275315609708" lon="114.25436993864362"><ele>2.0</ele><time>2026-04-13T08:45:53.999Z</time></trkpt><trkpt lat="-28.18536519723125" lon="114.25421502643783"><ele>2.0</ele><time>2026-04-13T08:45:55Z</time></trkpt><trkpt lat="-28.185466543007458" lon="114.25406005440246"><ele>2.0</ele><time>2026-04-13T08:45:56Z</time></trkpt><trkpt lat="-28.185576520527775" lon="114.25390353127534"><ele>3.666666666666667</ele><time>2026-04-13T08:45:57Z</time></trkpt><trkpt lat="-28.18568514358782" lon="114.25374287785498"><ele>5.333333333333334</ele><time>2026-04-13T08:45:58Z</time></trkpt><trkpt lat="-28.185790138802034" lon="114.25357584516743"><ele>7.0</ele><time>2026-04-13T08:45:59Z</time></trkpt><trkpt lat="-28.18589922452119" lon="114.2534155309306"><ele>7.0</ele><time>2026-04-13T08:46:00Z</time></trkpt><trkpt lat="-28.18601071267466" lon="114.25325877435196"><ele>7.0</ele><time>2026-04-13T08:46:01Z</time></trkpt><trkpt lat="-28.186115053461528" lon="114.25311084658705"><ele>7.0</ele><time>2026-04-13T08:46:02Z</time></trkpt><trkpt lat="-28.186209886985797" lon="114.25297472101585"><ele>7.25</ele><time>2026-04-13T08:46:03Z</time></trkpt><trkpt lat="-28.18629763905664" lon="114.25284520701547"><ele>7.5</ele><time>2026-04-13T08:46:04Z</time></trkpt><trkpt lat="-28.18637507639063" lon="114.25272619741968"><ele>7.75</ele><time>2026-04-13T08:46:05Z</time></trkpt><trkpt lat="-28.18644327479115" lon="114.25261342681927"><ele>8.0</ele><time>2026-04-13T08:46:06Z</time></trkpt><trkpt lat="-28.186500647850394" lon="114.25249648479031"><ele>8.0</ele><time>2026-04-13T08:46:07Z</time></trkpt><trkpt lat="-28.186548588390902" lon="114.2523767861831"><ele>8.0</ele><time>2026-04-13T08:46:08Z</time></trkpt><trkpt lat="-28.186584308036963" lon="114.25225674513786"><ele>8.0</ele><time>2026-04-13T08:46:09Z</time></trkpt><trkpt lat="-28.186609610470775" lon="114.2521258798605"><ele>8.0</ele><time>2026-04-13T08:46:10Z</time></trkpt><trkpt lat="-28.186623816852244" lon="114.25197814586359"><ele>8.0</ele><time>2026-04-13T08:46:11Z</time></trkpt><trkpt lat="-28.18663347595753" lon="114.25182208619623"><ele>8.0</ele><time>2026-04-13T08:46:12Z</time></trkpt><trkpt lat="-28.186635301622314" lon="114.25165616450002"><ele>8.0</ele><time>2026-04-13T08:46:13Z</time></trkpt><trkpt lat="-28.186630288568058" lon="114.25148829762902"><ele>8.0</ele><time>2026-04-13T08:46:14Z</time></trkpt><trkpt lat="-28.18661767830362" lon="114.25133585413948"><ele>7.666666666666666</ele><time>2026-04-13T08:46:15Z</time></trkpt><trkpt lat="-28.186610960528466" lon="114.25119961608597"><ele>7.333333333333333</ele><time>2026-04-13T08:46:16Z</time></trkpt><trkpt lat="-28.186600135034475" lon="114.25108562746999"><ele>7.0</ele><time>2026-04-13T08:46:17Z</time></trkpt><trkpt lat="-28.186606828525118" lon="114.25099371701629"><ele>6.666666666666666</ele><time>2026-04-13T08:46:18Z</time></trkpt><trkpt lat="-28.18663094984445" lon="114.25091760290985"><ele>6.333333333333333</ele><time>2026-04-13T08:46:19Z</time></trkpt><trkpt lat="-28.186684237901037" lon="114.25086400650918"><ele>6.0</ele><time>2026-04-13T08:46:20Z</time></trkpt><trkpt lat="-28.186748764462134" lon="114.25081207624413"><ele>6.0</ele><time>2026-04-13T08:46:21Z</time></trkpt><trkpt lat="-28.1868511677638" lon="114.25081719665492"><ele>6.0</ele><time>2026-04-13T08:46:22Z</time></trkpt><trkpt lat="-28.186956278967017" lon="114.25082020090271"><ele>6.0</ele><time>2026-04-13T08:46:23Z</time></trkpt><trkpt lat="-28.187068921539957" lon="114.25083045506898"><ele>6.0</ele><time>2026-04-13T08:46:24Z</time></trkpt><trkpt lat="-28.18718580376607" lon="114.2508339846634"><ele>6.0</ele><time>2026-04-13T08:46:25Z</time></trkpt><trkpt lat="-28.1873042491188" lon="114.25083100714369"><ele>6.0</ele><time>2026-04-13T08:46:26Z</time></trkpt><trkpt lat="-28.18741815795083" lon="114.25082433129415"><ele>6.0</ele><time>2026-04-13T08:46:27Z</time></trkpt><trkpt lat="-28.187522633447838" lon="114.25081580988372"><ele>6.0</ele><time>2026-04-13T08:46:28Z</time></trkpt><trkpt lat="-28.187615045297377" lon="114.25081074306627"><ele>6.0</ele><time>2026-04-13T08:46:29Z</time></trkpt><trkpt lat="-28.187704426315015" lon="114.25080798598555"><ele>6.0</ele><time>2026-04-13T08:46:30Z</time></trkpt><trkpt lat="-28.187781428648726" lon="114.25080515772936"><ele>6.0</ele><time>2026-04-13T08:46:31Z</time></trkpt><trkpt lat="-28.187882018428876" lon="114.25083874628324"><ele>6.0</ele><time>2026-04-13T08:46:33Z</time></trkpt><trkpt lat="-28.18790343480218" lon="114.2509133186185"><ele>6.0</ele><time>2026-04-13T08:46:35Z</time></trkpt><trkpt lat="-28.187918013467602" lon="114.25098996537425"><ele>6.0</ele><time>2026-04-13T08:46:38Z</time></trkpt><trkpt lat="-28.1880311337398" lon="114.25100555544732"><ele>6.0</ele><time>2026-04-13T08:46:43Z</time></trkpt><trkpt lat="-28.187955964048438" lon="114.2510067880533"><ele>6.0</ele><time>2026-04-13T08:47:40Z</time></trkpt><trkpt lat="-28.187887654824596" lon="114.25106149128291"><ele>6.0</ele><time>2026-04-13T08:47:43Z</time></trkpt><trkpt lat="-28.18788899985061" lon="114.25115150574764"><ele>6.0</ele><time>2026-04-13T08:47:46Z</time></trkpt><trkpt lat="-28.18792228505762" lon="114.25123175208749"><ele>6.0</ele><time>2026-04-13T08:47:49Z</time></trkpt><trkpt lat="-28.18796598733574" lon="114.25132076853782"><ele>6.0</ele><time>2026-04-13T08:47:54Z</time></trkpt><trkpt lat="-28.187920335349613" lon="114.25122585165977"><ele>6.0</ele><time>2026-04-13T08:48:03Z</time></trkpt><trkpt lat="-28.18789239299673" lon="114.25114551378789"><ele>6.0</ele><time>2026-04-13T08:48:05Z</time></trkpt><trkpt lat="-28.187874909401618" lon="114.25106269753486"><ele>6.0</ele><time>2026-04-13T08:48:08Z</time></trkpt><trkpt lat="-28.18800931571036" lon="114.251041195792"><ele>6.0</ele><time>2026-04-13T08:48:12Z</time></trkpt><trkpt lat="-28.187964065883026" lon="114.25109558611456"><ele>6.0</ele><time>2026-04-13T08:50:22Z</time></trkpt><trkpt lat="-28.187978946852475" lon="114.25116809640399"><ele>6.0</ele><time>2026-04-13T08:57:06Z</time></trkpt><trkpt lat="-28.1879909459177" lon="114.2512453242248"><ele>6.0</ele><time>2026-04-13T08:57:12Z</time></trkpt><trkpt lat="-28.187962186552774" lon="114.25131160098795"><ele>6.0</ele><time>2026-04-13T08:57:30Z</time></trkpt><trkpt lat="-28.187953986809962" lon="114.25123002265983"><ele>6.0</ele><time>2026-04-13T08:57:55Z</time></trkpt><trkpt lat="-28.18799403740478" lon="114.25117278928704"><ele>6.0</ele><time>2026-04-13T08:58:13.999Z</time></trkpt><trkpt lat="-28.18798172545432" lon="114.25105857391495"><ele>6.0</ele><time>2026-04-13T09:03:01Z</time></trkpt><trkpt lat="-28.188027109330587" lon="114.25098643829342"><ele>6.0</ele><time>2026-04-13T09:08:14.999Z</time></trkpt><trkpt lat="-28.187987491334425" lon="114.25091126411579"><ele>6.0</ele><time>2026-04-13T09:08:17.999Z</time></trkpt><trkpt lat="-28.187916235248316" lon="114.2508918722704"><ele>6.0</ele><time>2026-04-13T09:08:19.999Z</time></trkpt><trkpt lat="-28.187829028015628" lon="114.25082778843553"><ele>6.0</ele><time>2026-04-13T09:08:21.999Z</time></trkpt><trkpt lat="-28.187698850410193" lon="114.25079681780724"><ele>6.0</ele><time>2026-04-13T09:08:23.999Z</time></trkpt><trkpt lat="-28.18761564768708" lon="114.2507595997687"><ele>6.0</ele><time>2026-04-13T09:08:24.999Z</time></trkpt><trkpt lat="-28.187526267339063" lon="114.25076288071662"><ele>6.0</ele><time>2026-04-13T09:08:25.999Z</time></trkpt><trkpt lat="-28.187433224306375" lon="114.25076645530818"><ele>6.0</ele><time>2026-04-13T09:08:26.999Z</time></trkpt><trkpt lat="-28.187338681831548" lon="114.25077059523623"><ele>6.0</ele><time>2026-04-13T09:08:27.999Z</time></trkpt><trkpt lat="-28.18724538557993" lon="114.25077468059624"><ele>6.0</ele><time>2026-04-13T09:08:28.999Z</time></trkpt><trkpt lat="-28.18716522811025" lon="114.25077819061687"><ele>6.0</ele><time>2026-04-13T09:08:29.999Z</time></trkpt><trkpt lat="-28.187091773184466" lon="114.2507806020134"><ele>6.0</ele><time>2026-04-13T09:08:30.999Z</time></trkpt><trkpt lat="-28.187013185858383" lon="114.25078181450228"><ele>6.0</ele><time>2026-04-13T09:08:31.999Z</time></trkpt><trkpt lat="-28.186935639416113" lon="114.2507835166628"><ele>6.0</ele><time>2026-04-13T09:08:32.999Z</time></trkpt><trkpt lat="-28.186858015937446" lon="114.25078892082982"><ele>6.0</ele><time>2026-04-13T09:08:33.999Z</time></trkpt><trkpt lat="-28.186782114180875" lon="114.25079420512893"><ele>6.0</ele><time>2026-04-13T09:08:34.999Z</time></trkpt><trkpt lat="-28.18670429529438" lon="114.25080458339725"><ele>6.0</ele><time>2026-04-13T09:08:35.999Z</time></trkpt><trkpt lat="-28.186628951623845" lon="114.25083095158853"><ele>6.0</ele><time>2026-04-13T09:08:36.999Z</time></trkpt><trkpt lat="-28.186566344001815" lon="114.25089132149155"><ele>6.0</ele><time>2026-04-13T09:08:37.999Z</time></trkpt><trkpt lat="-28.186557238832677" lon="114.25101298358838"><ele>6.0</ele><time>2026-04-13T09:08:38.999Z</time></trkpt><trkpt lat="-28.186567313856685" lon="114.25111175562294"><ele>6.0</ele><time>2026-04-13T09:08:39.999Z</time></trkpt><trkpt lat="-28.186572681063375" lon="114.25122027418485"><ele>6.0</ele><time>2026-04-13T09:08:40.999Z</time></trkpt><trkpt lat="-28.186580969236772" lon="114.25135199727819"><ele>6.0</ele><time>2026-04-13T09:08:41.999Z</time></trkpt><trkpt lat="-28.186588057797838" lon="114.25149451918405"><ele>6.0</ele><time>2026-04-13T09:08:42.999Z</time></trkpt><trkpt lat="-28.186593831331734" lon="114.2516506760936"><ele>6.5</ele><time>2026-04-13T09:08:43.999Z</time></trkpt><trkpt lat="-28.18660039374977" lon="114.2518048046995"><ele>7.0</ele><time>2026-04-13T09:08:44.999Z</time></trkpt><trkpt lat="-28.186599044779932" lon="114.25195099453097"><ele>7.5</ele><time>2026-04-13T09:08:45.999Z</time></trkpt><trkpt lat="-28.186588591784215" lon="114.25209166162762"><ele>8.0</ele><time>2026-04-13T09:08:46.999Z</time></trkpt><trkpt lat="-28.186568242918266" lon="114.2522212715824"><ele>8.0</ele><time>2026-04-13T09:08:47.999Z</time></trkpt><trkpt lat="-28.18653457578775" lon="114.25234858804296"><ele>8.0</ele><time>2026-04-13T09:08:48.999Z</time></trkpt><trkpt lat="-28.186485073361396" lon="114.2524749335193"><ele>8.0</ele><time>2026-04-13T09:08:49.999Z</time></trkpt><trkpt lat="-28.18641597840179" lon="114.2526116513752"><ele>8.0</ele><time>2026-04-13T09:08:50.999Z</time></trkpt><trkpt lat="-28.186328931488443" lon="114.25275462458795"><ele>8.0</ele><time>2026-04-13T09:08:51.999Z</time></trkpt><trkpt lat="-28.18622458561817" lon="114.25290348151495"><ele>8.0</ele><time>2026-04-13T09:08:52.999Z</time></trkpt><trkpt lat="-28.18611155773215" lon="114.25305832437711"><ele>8.0</ele><time>2026-04-13T09:08:53.999Z</time></trkpt><trkpt lat="-28.18599571124565" lon="114.2532231637684"><ele>7.666666666666666</ele><time>2026-04-13T09:08:54.999Z</time></trkpt><trkpt lat="-28.18588547706468" lon="114.25339132760753"><ele>7.333333333333334</ele><time>2026-04-13T09:08:55.999Z</time></trkpt><trkpt lat="-28.185775145696915" lon="114.25355851579141"><ele>7.0</ele><time>2026-04-13T09:08:56.999Z</time></trkpt><trkpt lat="-28.185664307451592" lon="114.25371892372301"><ele>5.333333333333334</ele><time>2026-04-13T09:08:57.999Z</time></trkpt><trkpt lat="-28.18556008213968" lon="114.25387555050116"><ele>3.666666666666667</ele><time>2026-04-13T09:08:59Z</time></trkpt><trkpt lat="-28.185459911484276" lon="114.25402955814226"><ele>2.0</ele><time>2026-04-13T09:09:00Z</time></trkpt><trkpt lat="-28.185365427914853" lon="114.25417504894422"><ele>2.0</ele><time>2026-04-13T09:09:01Z</time></trkpt><trkpt lat="-28.185276825064246" lon="114.25431914150668"><ele>2.0</ele><time>2026-04-13T09:09:02Z</time></trkpt><trkpt lat="-28.185193211184725" lon="114.25446970925033"><ele>2.0</ele><time>2026-04-13T09:09:03Z</time></trkpt><trkpt lat="-28.18511682289157" lon="114.25462995170794"><ele>2.0</ele><time>2026-04-13T09:09:04Z</time></trkpt><trkpt lat="-28.18505026444696" lon="114.2547959771933"><ele>2.0</ele><time>2026-04-13T09:09:05Z</time></trkpt><trkpt lat="-28.18499259403313" lon="114.25497243153801"><ele>2.0</ele><time>2026-04-13T09:09:06Z</time></trkpt><trkpt lat="-28.184943752452682" lon="114.2551560908175"><ele>2.0</ele><time>2026-04-13T09:09:07Z</time></trkpt><trkpt lat="-28.18489766057028" lon="114.25534526108177"><ele>2.0</ele><time>2026-04-13T09:09:08Z</time></trkpt><trkpt lat="-28.184856913470348" lon="114.25554363569314"><ele>2.0</ele><time>2026-04-13T09:09:09Z</time></trkpt><trkpt lat="-28.184824374750043" lon="114.25575405542273"><ele>3.0</ele><time>2026-04-13T09:09:10Z</time></trkpt><trkpt lat="-28.184796833412122" lon="114.25597194626506"><ele>4.0</ele><time>2026-04-13T09:09:11Z</time></trkpt><trkpt lat="-28.184775005735002" lon="114.25618873355705"><ele>5.0</ele><time>2026-04-13T09:09:12Z</time></trkpt><trkpt lat="-28.184763007976443" lon="114.25640027277042"><ele>6.0</ele><time>2026-04-13T09:09:13Z</time></trkpt><trkpt lat="-28.184766045180098" lon="114.25661009884952"><ele>7.0</ele><time>2026-04-13T09:09:14Z</time></trkpt><trkpt lat="-28.184784083160654" lon="114.25682036689973"><ele>8.0</ele><time>2026-04-13T09:09:15Z</time></trkpt><trkpt lat="-28.184809435430935" lon="114.25703020991293"><ele>8.0</ele><time>2026-04-13T09:09:16Z</time></trkpt><trkpt lat="-28.18484511802639" lon="114.25723661756345"><ele>8.0</ele><time>2026-04-13T09:09:17Z</time></trkpt><trkpt lat="-28.184891307397216" lon="114.25744107261069"><ele>8.0</ele><time>2026-04-13T09:09:18Z</time></trkpt><trkpt lat="-28.18494268967836" lon="114.25764498387551"><ele>7.333333333333333</ele><time>2026-04-13T09:09:19Z</time></trkpt><trkpt lat="-28.18499932050723" lon="114.25784502604398"><ele>6.666666666666666</ele><time>2026-04-13T09:09:20Z</time></trkpt><trkpt lat="-28.185065007047257" lon="114.25804348226653"><ele>6.0</ele><time>2026-04-13T09:09:21Z</time></trkpt><trkpt lat="-28.185140866046613" lon="114.25823124207169"><ele>6.0</ele><time>2026-04-13T09:09:22Z</time></trkpt><trkpt lat="-28.18522860523914" lon="114.25841497965197"><ele>6.0</ele><time>2026-04-13T09:09:23Z</time></trkpt><trkpt lat="-28.185323104518154" lon="114.25860038853963"><ele>6.0</ele><time>2026-04-13T09:09:24Z</time></trkpt><trkpt lat="-28.185425518197516" lon="114.25878235063617"><ele>5.666666666666667</ele><time>2026-04-13T09:09:25Z</time></trkpt><trkpt lat="-28.18554269890516" lon="114.25896216639242"><ele>5.333333333333334</ele><time>2026-04-13T09:09:26Z</time></trkpt><trkpt lat="-28.18567378020034" lon="114.25913922151378"><ele>5.0</ele><time>2026-04-13T09:09:27Z</time></trkpt><trkpt lat="-28.18581827048342" lon="114.25930719697888"><ele>5.0</ele><time>2026-04-13T09:09:28Z</time></trkpt><trkpt lat="-28.18597501974796" lon="114.25946695705761"><ele>5.0</ele><time>2026-04-13T09:09:29Z</time></trkpt><trkpt lat="-28.186137623281173" lon="114.25961895571099"><ele>5.0</ele><time>2026-04-13T09:09:30Z</time></trkpt><trkpt lat="-28.186301344866862" lon="114.25976463369838"><ele>5.0</ele><time>2026-04-13T09:09:31Z</time></trkpt><trkpt lat="-28.18646854725781" lon="114.25990134471978"><ele>5.0</ele><time>2026-04-13T09:09:32Z</time></trkpt><trkpt lat="-28.186645311753086" lon="114.26002973913567"><ele>5.0</ele><time>2026-04-13T09:09:33Z</time></trkpt><trkpt lat="-28.18682786716726" lon="114.2601541107394"><ele>5.0</ele><time>2026-04-13T09:09:34Z</time></trkpt><trkpt lat="-28.187017124597734" lon="114.26028753859144"><ele>5.0</ele><time>2026-04-13T09:09:35Z</time></trkpt><trkpt lat="-28.18721110106203" lon="114.26043045243996"><ele>5.0</ele><time>2026-04-13T09:09:36Z</time></trkpt><trkpt lat="-28.18740544324738" lon="114.26057386570703"><ele>5.0</ele><time>2026-04-13T09:09:37Z</time></trkpt><trkpt lat="-28.187590781764847" lon="114.26070986679449"><ele>5.0</ele><time>2026-04-13T09:09:38Z</time></trkpt><trkpt lat="-28.187774141012728" lon="114.26084274136524"><ele>5.0</ele><time>2026-04-13T09:09:39Z</time></trkpt><trkpt lat="-28.187960776474675" lon="114.26097557371273"><ele>5.0</ele><time>2026-04-13T09:09:40Z</time></trkpt><trkpt lat="-28.1881531847754" lon="114.26110979305497"><ele>8.5</ele><time>2026-04-13T09:09:41Z</time></trkpt><trkpt lat="-28.188345847675453" lon="114.26124843558516"><ele>12.0</ele><time>2026-04-13T09:09:42Z</time></trkpt><trkpt lat="-28.188543332080233" lon="114.26138847767878"><ele>7.5</ele><time>2026-04-13T09:09:43Z</time></trkpt><trkpt lat="-28.18874367068659" lon="114.26153009377076"><ele>3.0</ele><time>2026-04-13T09:09:44Z</time></trkpt><trkpt lat="-28.18894320014347" lon="114.26167111978064"><ele>5.5</ele><time>2026-04-13T09:09:45Z</time></trkpt><trkpt lat="-28.18914465201283" lon="114.26181563381927"><ele>8.0</ele><time>2026-04-13T09:09:46Z</time></trkpt><trkpt lat="-28.189346733264028" lon="114.26195998446066"><ele>8.0</ele><time>2026-04-13T09:09:47Z</time></trkpt><trkpt lat="-28.189548619517566" lon="114.26210527770539"><ele>8.0</ele><time>2026-04-13T09:09:48Z</time></trkpt><trkpt lat="-28.189754500320486" lon="114.26225138949083"><ele>7.0</ele><time>2026-04-13T09:09:49Z</time></trkpt><trkpt lat="-28.18995867228807" lon="114.26239956532682"><ele>6.0</ele><time>2026-04-13T09:09:50Z</time></trkpt><trkpt lat="-28.190165008202662" lon="114.2625481730683"><ele>6.0</ele><time>2026-04-13T09:09:51Z</time></trkpt><trkpt lat="-28.19037684392749" lon="114.26270030462835"><ele>6.0</ele><time>2026-04-13T09:09:52Z</time></trkpt><trkpt lat="-28.1905824936614" lon="114.26284916264947"><ele>5.0</ele><time>2026-04-13T09:09:53Z</time></trkpt><trkpt lat="-28.190786853345173" lon="114.26299467498283"><ele>4.0</ele><time>2026-04-13T09:09:54Z</time></trkpt><trkpt lat="-28.19098069018338" lon="114.26313287029117"><ele>4.0</ele><time>2026-04-13T09:09:55Z</time></trkpt><trkpt lat="-28.19116968984019" lon="114.26327418933082"><ele>4.0</ele><time>2026-04-13T09:09:56Z</time></trkpt><trkpt lat="-28.19135300060367" lon="114.26342050166139"><ele>6.666666666666666</ele><time>2026-04-13T09:09:57Z</time></trkpt><trkpt lat="-28.19153239357627" lon="114.26356940766733"><ele>9.333333333333334</ele><time>2026-04-13T09:09:58Z</time></trkpt><trkpt lat="-28.191706533989215" lon="114.26373173060918"><ele>12.0</ele><time>2026-04-13T09:09:59Z</time></trkpt><trkpt lat="-28.191871534638516" lon="114.26390593151338"><ele>8.5</ele><time>2026-04-13T09:10:00Z</time></trkpt><trkpt lat="-28.19202808880944" lon="114.26410161289003"><ele>5.0</ele><time>2026-04-13T09:10:01Z</time></trkpt><trkpt lat="-28.192176183378457" lon="114.26431081922767"><ele>5.0</ele><time>2026-04-13T09:10:02Z</time></trkpt><trkpt lat="-28.19231988646905" lon="114.26453378289904"><ele>5.0</ele><time>2026-04-13T09:10:03Z</time></trkpt><trkpt lat="-28.192450475338788" lon="114.26476672527829"><ele>4.0</ele><time>2026-04-13T09:10:04Z</time></trkpt><trkpt lat="-28.19257099779214" lon="114.26501412060607"><ele>3.0</ele><time>2026-04-13T09:10:05Z</time></trkpt><trkpt lat="-28.19268362742636" lon="114.26527715320474"><ele>3.0</ele><time>2026-04-13T09:10:06Z</time></trkpt><trkpt lat="-28.192784609224432" lon="114.2655513267241"><ele>3.0</ele><time>2026-04-13T09:10:07Z</time></trkpt><trkpt lat="-28.192872315917867" lon="114.26583606761189"><ele>3.5</ele><time>2026-04-13T09:10:08Z</time></trkpt><trkpt lat="-28.19294016036381" lon="114.2661254950185"><ele>4.0</ele><time>2026-04-13T09:10:09Z</time></trkpt><trkpt lat="-28.1929935822527" lon="114.26641907754558"><ele>3.5</ele><time>2026-04-13T09:10:10Z</time></trkpt><trkpt lat="-28.193043432576108" lon="114.26671396218524"><ele>3.0</ele><time>2026-04-13T09:10:11Z</time></trkpt><trkpt lat="-28.193099998252475" lon="114.26700332258231"><ele>3.0</ele><time>2026-04-13T09:10:12Z</time></trkpt><trkpt lat="-28.193163276239318" lon="114.26728645926288"><ele>3.0</ele><time>2026-04-13T09:10:13Z</time></trkpt><trkpt lat="-28.19322996033827" lon="114.26756769495009"><ele>4.0</ele><time>2026-04-13T09:10:14Z</time></trkpt><trkpt lat="-28.19329247895153" lon="114.26784490835674"><ele>5.0</ele><time>2026-04-13T09:10:15Z</time></trkpt><trkpt lat="-28.193349565613616" lon="114.26811559438401"><ele>5.0</ele><time>2026-04-13T09:10:16Z</time></trkpt><trkpt lat="-28.19340508112745" lon="114.26838401034978"><ele>5.0</ele><time>2026-04-13T09:10:17Z</time></trkpt><trkpt lat="-28.193460995956542" lon="114.26865200786712"><ele>5.0</ele><time>2026-04-13T09:10:18Z</time></trkpt><trkpt lat="-28.19351430599927" lon="114.26891867901054"><ele>5.0</ele><time>2026-04-13T09:10:19Z</time></trkpt><trkpt lat="-28.193571249907897" lon="114.26918262114701"><ele>5.0</ele><time>2026-04-13T09:10:20Z</time></trkpt><trkpt lat="-28.19362749642495" lon="114.26944719640383"><ele>5.0</ele><time>2026-04-13T09:10:21Z</time></trkpt><trkpt lat="-28.193681528474375" lon="114.26970590944651"><ele>4.5</ele><time>2026-04-13T09:10:22Z</time></trkpt><trkpt lat="-28.19373722830456" lon="114.26996555572265"><ele>4.0</ele><time>2026-04-13T09:10:23Z</time></trkpt><trkpt lat="-28.193793281917852" lon="114.27021889332295"><ele>4.0</ele><time>2026-04-13T09:10:24Z</time></trkpt><trkpt lat="-28.19385232922714" lon="114.27047050490678"><ele>4.0</ele><time>2026-04-13T09:10:25Z</time></trkpt><trkpt lat="-28.193919407099916" lon="114.270718261309"><ele>4.0</ele><time>2026-04-13T09:10:26Z</time></trkpt><trkpt lat="-28.193997543500785" lon="114.27096282290884"><ele>4.0</ele><time>2026-04-13T09:10:27Z</time></trkpt><trkpt lat="-28.19408766011822" lon="114.27120141080927"><ele>5.5</ele><time>2026-04-13T09:10:28Z</time></trkpt><trkpt lat="-28.19419057651833" lon="114.27143224440087"><ele>7.0</ele><time>2026-04-13T09:10:29Z</time></trkpt><trkpt lat="-28.194313189309987" lon="114.2716549971781"><ele>7.0</ele><time>2026-04-13T09:10:30Z</time></trkpt><trkpt lat="-28.194457581693634" lon="114.2718665241049"><ele>7.0</ele><time>2026-04-13T09:10:31Z</time></trkpt><trkpt lat="-28.194622531571746" lon="114.27207278429414"><ele>6.0</ele><time>2026-04-13T09:10:32Z</time></trkpt><trkpt lat="-28.1948018496372" lon="114.27227488803966"><ele>5.0</ele><time>2026-04-13T09:10:33Z</time></trkpt><trkpt lat="-28.194986520867765" lon="114.27246907119395"><ele>4.5</ele><time>2026-04-13T09:10:34Z</time></trkpt><trkpt lat="-28.19517338102895" lon="114.27264426088318"><ele>4.0</ele><time>2026-04-13T09:10:35Z</time></trkpt><trkpt lat="-28.195363192756176" lon="114.27280358404195"><ele>4.0</ele><time>2026-04-13T09:10:36Z</time></trkpt><trkpt lat="-28.19555856982259" lon="114.27294917394345"><ele>4.0</ele><time>2026-04-13T09:10:37Z</time></trkpt><trkpt lat="-28.195761875572135" lon="114.27308467448682"><ele>5.0</ele><time>2026-04-13T09:10:38Z</time></trkpt><trkpt lat="-28.19597047349092" lon="114.27321068570173"><ele>6.0</ele><time>2026-04-13T09:10:39Z</time></trkpt><trkpt lat="-28.196178109403586" lon="114.27333982149554"><ele>6.0</ele><time>2026-04-13T09:10:40Z</time></trkpt><trkpt lat="-28.196386286691364" lon="114.27347568885135"><ele>6.0</ele><time>2026-04-13T09:10:41Z</time></trkpt><trkpt lat="-28.196587427112966" lon="114.27360981964685"><ele>6.333333333333334</ele><time>2026-04-13T09:10:42Z</time></trkpt><trkpt lat="-28.196780698866718" lon="114.27374223270593"><ele>6.666666666666667</ele><time>2026-04-13T09:10:43Z</time></trkpt><trkpt lat="-28.196970098809754" lon="114.27387655516675"><ele>7.0</ele><time>2026-04-13T09:10:44Z</time></trkpt><trkpt lat="-28.19715500401823" lon="114.27402156937313"><ele>7.5</ele><time>2026-04-13T09:10:45Z</time></trkpt><trkpt lat="-28.197338424382057" lon="114.27418398608962"><ele>8.0</ele><time>2026-04-13T09:10:46Z</time></trkpt><trkpt lat="-28.19751338364112" lon="114.27436264108141"><ele>8.0</ele><time>2026-04-13T09:10:47Z</time></trkpt><trkpt lat="-28.197679125537984" lon="114.27455661417541"><ele>8.0</ele><time>2026-04-13T09:10:48Z</time></trkpt><trkpt lat="-28.197837869320562" lon="114.27476635113324"><ele>6.0</ele><time>2026-04-13T09:10:49Z</time></trkpt><trkpt lat="-28.197993532030967" lon="114.27499235597813"><ele>4.0</ele><time>2026-04-13T09:10:50Z</time></trkpt><trkpt lat="-28.19814009199982" lon="114.27523234365724"><ele>4.0</ele><time>2026-04-13T09:10:51Z</time></trkpt><trkpt lat="-28.198278556362066" lon="114.27548545013366"><ele>4.0</ele><time>2026-04-13T09:10:52Z</time></trkpt><trkpt lat="-28.198406782291716" lon="114.27574242439535"><ele>4.0</ele><time>2026-04-13T09:10:53Z</time></trkpt><trkpt lat="-28.198529136456536" lon="114.27599768633434"><ele>4.0</ele><time>2026-04-13T09:10:54Z</time></trkpt><trkpt lat="-28.19865093933508" lon="114.27623139392121"><ele>5.0</ele><time>2026-04-13T09:10:55Z</time></trkpt><trkpt lat="-28.198774926829614" lon="114.27645493820339"><ele>6.0</ele><time>2026-04-13T09:10:56Z</time></trkpt><trkpt lat="-28.198895461324142" lon="114.27667318618337"><ele>6.0</ele><time>2026-04-13T09:10:57Z</time></trkpt><trkpt lat="-28.19901795437062" lon="114.27688849540328"><ele>6.0</ele><time>2026-04-13T09:10:58Z</time></trkpt><trkpt lat="-28.199142073724396" lon="114.27709783539768"><ele>6.0</ele><time>2026-04-13T09:10:59Z</time></trkpt><trkpt lat="-28.199277709547587" lon="114.27729984251047"><ele>6.0</ele><time>2026-04-13T09:11:00Z</time></trkpt><trkpt lat="-28.199431315018852" lon="114.27749785812354"><ele>6.0</ele><time>2026-04-13T09:11:01Z</time></trkpt><trkpt lat="-28.199600090249856" lon="114.27769263936166"><ele>6.0</ele><time>2026-04-13T09:11:02Z</time></trkpt><trkpt lat="-28.199781885379846" lon="114.27787473316654"><ele>6.0</ele><time>2026-04-13T09:11:03Z</time></trkpt><trkpt lat="-28.199972894908335" lon="114.27804919097855"><ele>5.5</ele><time>2026-04-13T09:11:04Z</time></trkpt><trkpt lat="-28.200172630246367" lon="114.27821694562729"><ele>5.0</ele><time>2026-04-13T09:11:05Z</time></trkpt><trkpt lat="-28.200378251443453" lon="114.27837595855675"><ele>5.0</ele><time>2026-04-13T09:11:06Z</time></trkpt><trkpt lat="-28.20059088211329" lon="114.27853370802451"><ele>5.0</ele><time>2026-04-13T09:11:07Z</time></trkpt><trkpt lat="-28.200801492566885" lon="114.27869390763105"><ele>4.5</ele><time>2026-04-13T09:11:08Z</time></trkpt><trkpt lat="-28.20100254457173" lon="114.27885731145325"><ele>4.0</ele><time>2026-04-13T09:11:09Z</time></trkpt><trkpt lat="-28.201196223686964" lon="114.2790255350013"><ele>4.0</ele><time>2026-04-13T09:11:10Z</time></trkpt><trkpt lat="-28.201374398712396" lon="114.27920091985672"><ele>4.0</ele><time>2026-04-13T09:11:11Z</time></trkpt><trkpt lat="-28.20153519661242" lon="114.27939603953008"><ele>4.5</ele><time>2026-04-13T09:11:12Z</time></trkpt><trkpt lat="-28.201684170611244" lon="114.27961203922774"><ele>5.0</ele><time>2026-04-13T09:11:13Z</time></trkpt><trkpt lat="-28.201826628946076" lon="114.27984249628949"><ele>5.0</ele><time>2026-04-13T09:11:14Z</time></trkpt><trkpt lat="-28.20195989627897" lon="114.28008412035415"><ele>5.0</ele><time>2026-04-13T09:11:15Z</time></trkpt><trkpt lat="-28.202079367170718" lon="114.28033495921451"><ele>5.0</ele><time>2026-04-13T09:11:16Z</time></trkpt><trkpt lat="-28.20218034630353" lon="114.28059195288674"><ele>5.0</ele><time>2026-04-13T09:11:17Z</time></trkpt><trkpt lat="-28.202268562756103" lon="114.28086688713843"><ele>6.0</ele><time>2026-04-13T09:11:18Z</time></trkpt><trkpt lat="-28.2023439316145" lon="114.28114975720881"><ele>7.0</ele><time>2026-04-13T09:11:19Z</time></trkpt><trkpt lat="-28.20241282788503" lon="114.28143829778973"><ele>7.0</ele><time>2026-04-13T09:11:20Z</time></trkpt><trkpt lat="-28.202473945493264" lon="114.28171819937347"><ele>7.0</ele><time>2026-04-13T09:11:21Z</time></trkpt><trkpt lat="-28.20253369006901" lon="114.28198432118472"><ele>7.0</ele><time>2026-04-13T09:11:22Z</time></trkpt><trkpt lat="-28.20260054224707" lon="114.2822413512233"><ele>7.0</ele><time>2026-04-13T09:11:23Z</time></trkpt><trkpt lat="-28.20268364467397" lon="114.2824932028964"><ele>7.0</ele><time>2026-04-13T09:11:24Z</time></trkpt><trkpt lat="-28.20278743372176" lon="114.28273691770005"><ele>7.0</ele><time>2026-04-13T09:11:25Z</time></trkpt><trkpt lat="-28.202915234769183" lon="114.28297324657491"><ele>6.5</ele><time>2026-04-13T09:11:26Z</time></trkpt><trkpt lat="-28.20306475553353" lon="114.28321014473696"><ele>6.0</ele><time>2026-04-13T09:11:27Z</time></trkpt><trkpt lat="-28.20322701791894" lon="114.2834402307654"><ele>7.5</ele><time>2026-04-13T09:11:28Z</time></trkpt><trkpt lat="-28.203398302134165" lon="114.28364924255192"><ele>9.0</ele><time>2026-04-13T09:11:29Z</time></trkpt><trkpt lat="-28.203585254121656" lon="114.28383910733474"><ele>7.5</ele><time>2026-04-13T09:11:30Z</time></trkpt><trkpt lat="-28.203789399296664" lon="114.28401768580845"><ele>6.0</ele><time>2026-04-13T09:11:31Z</time></trkpt><trkpt lat="-28.20400218138237" lon="114.28418777748556"><ele>6.0</ele><time>2026-04-13T09:11:32Z</time></trkpt><trkpt lat="-28.204221958051846" lon="114.28435238103053"><ele>6.0</ele><time>2026-04-13T09:11:33Z</time></trkpt><trkpt lat="-28.20443778503256" lon="114.28450996202301"><ele>6.0</ele><time>2026-04-13T09:11:34Z</time></trkpt><trkpt lat="-28.204650715611333" lon="114.28467026237352"><ele>6.0</ele><time>2026-04-13T09:11:35Z</time></trkpt><trkpt lat="-28.204857998634544" lon="114.28482989780517"><ele>6.0</ele><time>2026-04-13T09:11:36Z</time></trkpt><trkpt lat="-28.205059113292883" lon="114.28499444546222"><ele>6.0</ele><time>2026-04-13T09:11:37Z</time></trkpt><trkpt lat="-28.205256727128855" lon="114.28516807539104"><ele>6.0</ele><time>2026-04-13T09:11:38Z</time></trkpt><trkpt lat="-28.205445735537275" lon="114.28535363310257"><ele>6.0</ele><time>2026-04-13T09:11:39Z</time></trkpt><trkpt lat="-28.205634162656533" lon="114.28554890149206"><ele>6.5</ele><time>2026-04-13T09:11:40Z</time></trkpt><trkpt lat="-28.205817180985076" lon="114.28575272050037"><ele>7.0</ele><time>2026-04-13T09:11:41Z</time></trkpt><trkpt lat="-28.2059902947216" lon="114.28596618349376"><ele>7.0</ele><time>2026-04-13T09:11:42Z</time></trkpt><trkpt lat="-28.20615148145858" lon="114.28618561327153"><ele>7.0</ele><time>2026-04-13T09:11:43Z</time></trkpt><trkpt lat="-28.2063083073605" lon="114.28640869279995"><ele>6.0</ele><time>2026-04-13T09:11:44Z</time></trkpt><trkpt lat="-28.206460858550116" lon="114.28663469906252"><ele>5.0</ele><time>2026-04-13T09:11:45Z</time></trkpt><trkpt lat="-28.206608762693318" lon="114.28686151340985"><ele>5.0</ele><time>2026-04-13T09:11:46Z</time></trkpt><trkpt lat="-28.20675305668023" lon="114.287085393914"><ele>5.0</ele><time>2026-04-13T09:11:47Z</time></trkpt><trkpt lat="-28.20689689986046" lon="114.28730863623818"><ele>4.0</ele><time>2026-04-13T09:11:48Z</time></trkpt><trkpt lat="-28.207040910866045" lon="114.28753047796431"><ele>3.0</ele><time>2026-04-13T09:11:49Z</time></trkpt><trkpt lat="-28.20718897488843" lon="114.28775577998418"><ele>3.5</ele><time>2026-04-13T09:11:50Z</time></trkpt><trkpt lat="-28.20734121782821" lon="114.28798341672065"><ele>4.0</ele><time>2026-04-13T09:11:51Z</time></trkpt><trkpt lat="-28.207498036127813" lon="114.28822025258609"><ele>4.5</ele><time>2026-04-13T09:11:52Z</time></trkpt><trkpt lat="-28.207657059485786" lon="114.28845836323784"><ele>5.0</ele><time>2026-04-13T09:11:53Z</time></trkpt><trkpt lat="-28.207817559584775" lon="114.28869988105254"><ele>5.0</ele><time>2026-04-13T09:11:54Z</time></trkpt><trkpt lat="-28.20797654480607" lon="114.28894241296018"><ele>5.0</ele><time>2026-04-13T09:11:55Z</time></trkpt><trkpt lat="-28.208131013165115" lon="114.28917902210534"><ele>4.5</ele><time>2026-04-13T09:11:56Z</time></trkpt><trkpt lat="-28.208286592033044" lon="114.28940925755397"><ele>4.0</ele><time>2026-04-13T09:11:57Z</time></trkpt><trkpt lat="-28.20843763003579" lon="114.28963551941851"><ele>4.5</ele><time>2026-04-13T09:11:58Z</time></trkpt><trkpt lat="-28.208584474886713" lon="114.28986104663252"><ele>5.0</ele><time>2026-04-13T09:11:59Z</time></trkpt><trkpt lat="-28.20873226935516" lon="114.29008632351132"><ele>5.0</ele><time>2026-04-13T09:12:00Z</time></trkpt><trkpt lat="-28.20888019268318" lon="114.29031034479254"><ele>5.0</ele><time>2026-04-13T09:12:01Z</time></trkpt><trkpt lat="-28.20902942897151" lon="114.29053120234165"><ele>5.0</ele><time>2026-04-13T09:12:02Z</time></trkpt><trkpt lat="-28.209172645743802" lon="114.29074491261197"><ele>5.0</ele><time>2026-04-13T09:12:03Z</time></trkpt><trkpt lat="-28.20930145616606" lon="114.29094103975372"><ele>5.0</ele><time>2026-04-13T09:12:04Z</time></trkpt><trkpt lat="-28.209417712358736" lon="114.29111882064288"><ele>5.0</ele><time>2026-04-13T09:12:05Z</time></trkpt><trkpt lat="-28.20952836881261" lon="114.29128392116537"><ele>5.0</ele><time>2026-04-13T09:12:06Z</time></trkpt><trkpt lat="-28.209633151707973" lon="114.2914398802837"><ele>5.0</ele><time>2026-04-13T09:12:07Z</time></trkpt><trkpt lat="-28.20972936150722" lon="114.29158266104128"><ele>5.0</ele><time>2026-04-13T09:12:08Z</time></trkpt><trkpt lat="-28.209822011524437" lon="114.29171651357221"><ele>5.0</ele><time>2026-04-13T09:12:09Z</time></trkpt><trkpt lat="-28.209908816159807" lon="114.29184076986589"><ele>5.0</ele><time>2026-04-13T09:12:10Z</time></trkpt><trkpt lat="-28.20998940657993" lon="114.29196151496014"><ele>5.0</ele><time>2026-04-13T09:12:11Z</time></trkpt><trkpt lat="-28.210062882174405" lon="114.29207666575226"><ele>5.0</ele><time>2026-04-13T09:12:12Z</time></trkpt><trkpt lat="-28.210127331201054" lon="114.29217842020162"><ele>5.0</ele><time>2026-04-13T09:12:13Z</time></trkpt><trkpt lat="-28.210183337492396" lon="114.29226974803082"><ele>5.0</ele><time>2026-04-13T09:12:14Z</time></trkpt><trkpt lat="-28.210218030286917" lon="114.29235524924316"><ele>5.0</ele><time>2026-04-13T09:12:15Z</time></trkpt><trkpt lat="-28.21022498269535" lon="114.29244200938456"><ele>5.0</ele><time>2026-04-13T09:12:16Z</time></trkpt><trkpt lat="-28.210193692277258" lon="114.29252542030272"><ele>5.0</ele><time>2026-04-13T09:12:17Z</time></trkpt><trkpt lat="-28.210128625425767" lon="114.29259519279859"><ele>5.0</ele><time>2026-04-13T09:12:18Z</time></trkpt><trkpt lat="-28.210024526335143" lon="114.29266285798751"><ele>5.0</ele><time>2026-04-13T09:12:19Z</time></trkpt><trkpt lat="-28.209916782041102" lon="114.29273496271499"><ele>5.0</ele><time>2026-04-13T09:12:20Z</time></trkpt><trkpt lat="-28.209797488738896" lon="114.29281934389105"><ele>5.0</ele><time>2026-04-13T09:12:21Z</time></trkpt><trkpt lat="-28.209664920311827" lon="114.29291399242841"><ele>5.0</ele><time>2026-04-13T09:12:22Z</time></trkpt><trkpt lat="-28.209532316701768" lon="114.29301475343863"><ele>5.0</ele><time>2026-04-13T09:12:23Z</time></trkpt><trkpt lat="-28.209380177115797" lon="114.29312808728372"><ele>4.666666666666667</ele><time>2026-04-13T09:12:24Z</time></trkpt><trkpt lat="-28.209202199448892" lon="114.29324437092382"><ele>4.333333333333333</ele><time>2026-04-13T09:12:25Z</time></trkpt><trkpt lat="-28.20899878460119" lon="114.29335488389991"><ele>4.0</ele><time>2026-04-13T09:12:26Z</time></trkpt><trkpt lat="-28.20879142898768" lon="114.29344883199836"><ele>4.0</ele><time>2026-04-13T09:12:27Z</time></trkpt><trkpt lat="-28.208566283200323" lon="114.29353404035774"><ele>4.0</ele><time>2026-04-13T09:12:28Z</time></trkpt><trkpt lat="-28.208325106645134" lon="114.29361471035341"><ele>5.0</ele><time>2026-04-13T09:12:29Z</time></trkpt><trkpt lat="-28.208082842418314" lon="114.293683156712"><ele>6.0</ele><time>2026-04-13T09:12:30Z</time></trkpt><trkpt lat="-28.207826853015533" lon="114.2937425223309"><ele>6.0</ele><time>2026-04-13T09:12:31Z</time></trkpt><trkpt lat="-28.20755874915198" lon="114.29378716480848"><ele>6.0</ele><time>2026-04-13T09:12:32Z</time></trkpt><trkpt lat="-28.207281193431736" lon="114.29380997581497"><ele>5.5</ele><time>2026-04-13T09:12:33Z</time></trkpt><trkpt lat="-28.207011443432993" lon="114.2938171842522"><ele>5.0</ele><time>2026-04-13T09:12:34Z</time></trkpt><trkpt lat="-28.206742488041083" lon="114.29381963787459"><ele>5.0</ele><time>2026-04-13T09:12:35Z</time></trkpt><trkpt lat="-28.206471977109086" lon="114.29382420988495"><ele>5.0</ele><time>2026-04-13T09:12:36Z</time></trkpt><trkpt lat="-28.20620290847264" lon="114.29383309316353"><ele>5.0</ele><time>2026-04-13T09:12:37Z</time></trkpt><trkpt lat="-28.20593336401882" lon="114.29384566009657"><ele>5.0</ele><time>2026-04-13T09:12:38Z</time></trkpt><trkpt lat="-28.205664373005344" lon="114.29385486544166"><ele>4.5</ele><time>2026-04-13T09:12:39Z</time></trkpt><trkpt lat="-28.205396530192825" lon="114.29386376427567"><ele>4.0</ele><time>2026-04-13T09:12:40Z</time></trkpt><trkpt lat="-28.205128491916252" lon="114.29387273010057"><ele>4.0</ele><time>2026-04-13T09:12:41Z</time></trkpt><trkpt lat="-28.20485933475396" lon="114.29388456321543"><ele>4.0</ele><time>2026-04-13T09:12:42Z</time></trkpt><trkpt lat="-28.20459013386493" lon="114.2938908893146"><ele>4.5</ele><time>2026-04-13T09:12:43Z</time></trkpt><trkpt lat="-28.204320919968538" lon="114.29389170837916"><ele>5.0</ele><time>2026-04-13T09:12:44Z</time></trkpt><trkpt lat="-28.204050915545256" lon="114.29387909483663"><ele>5.0</ele><time>2026-04-13T09:12:45Z</time></trkpt><trkpt lat="-28.203781017966875" lon="114.29384847231852"><ele>5.0</ele><time>2026-04-13T09:12:46Z</time></trkpt><trkpt lat="-28.20350960720721" lon="114.29380098176885"><ele>5.0</ele><time>2026-04-13T09:12:47Z</time></trkpt><trkpt lat="-28.20324074088538" lon="114.29373367982402"><ele>5.0</ele><time>2026-04-13T09:12:48Z</time></trkpt><trkpt lat="-28.20297127035461" lon="114.29365200105944"><ele>5.0</ele><time>2026-04-13T09:12:49Z</time></trkpt><trkpt lat="-28.202701470272704" lon="114.2935518801542"><ele>5.0</ele><time>2026-04-13T09:12:50Z</time></trkpt><trkpt lat="-28.20243136045646" lon="114.29343390373691"><ele>6.0</ele><time>2026-04-13T09:12:51Z</time></trkpt><trkpt lat="-28.202163075902583" lon="114.2932994856206"><ele>7.0</ele><time>2026-04-13T09:12:52Z</time></trkpt><trkpt lat="-28.201897223644774" lon="114.29314974834749"><ele>5.5</ele><time>2026-04-13T09:12:53Z</time></trkpt><trkpt lat="-28.201636167142354" lon="114.29298288103305"><ele>4.0</ele><time>2026-04-13T09:12:54Z</time></trkpt><trkpt lat="-28.201377547799527" lon="114.29280151674227"><ele>4.0</ele><time>2026-04-13T09:12:55Z</time></trkpt><trkpt lat="-28.201116660934602" lon="114.29261088259116"><ele>4.0</ele><time>2026-04-13T09:12:56Z</time></trkpt><trkpt lat="-28.200851744329945" lon="114.29241805409475"><ele>4.0</ele><time>2026-04-13T09:12:57Z</time></trkpt><trkpt lat="-28.200586541364075" lon="114.29222764928964"><ele>4.0</ele><time>2026-04-13T09:12:58Z</time></trkpt><trkpt lat="-28.200318072622885" lon="114.29203624675728"><ele>4.0</ele><time>2026-04-13T09:12:59Z</time></trkpt><trkpt lat="-28.2000463311083" lon="114.29184736761239"><ele>4.0</ele><time>2026-04-13T09:13:00Z</time></trkpt><trkpt lat="-28.199775620383964" lon="114.29165693868715"><ele>4.5</ele><time>2026-04-13T09:13:01Z</time></trkpt><trkpt lat="-28.199507547782655" lon="114.29146617722535"><ele>5.0</ele><time>2026-04-13T09:13:02Z</time></trkpt><trkpt lat="-28.199240339497745" lon="114.29128066112693"><ele>6.0</ele><time>2026-04-13T09:13:03Z</time></trkpt><trkpt lat="-28.198976961008146" lon="114.29109848002778"><ele>7.0</ele><time>2026-04-13T09:13:04Z</time></trkpt><trkpt lat="-28.198713433834097" lon="114.2909154054824"><ele>7.0</ele><time>2026-04-13T09:13:05Z</time></trkpt><trkpt lat="-28.198453984288836" lon="114.29073320904192"><ele>7.0</ele><time>2026-04-13T09:13:06Z</time></trkpt><trkpt lat="-28.19819635576109" lon="114.29054929193708"><ele>6.5</ele><time>2026-04-13T09:13:07Z</time></trkpt><trkpt lat="-28.197937125424453" lon="114.29036290328618"><ele>6.0</ele><time>2026-04-13T09:13:08Z</time></trkpt><trkpt lat="-28.197673015618896" lon="114.29017649495117"><ele>6.0</ele><time>2026-04-13T09:13:09Z</time></trkpt><trkpt lat="-28.197407612220754" lon="114.28998860112273"><ele>6.0</ele><time>2026-04-13T09:13:10Z</time></trkpt><trkpt lat="-28.197140010723057" lon="114.28979834225312"><ele>6.5</ele><time>2026-04-13T09:13:11Z</time></trkpt><trkpt lat="-28.196872941425106" lon="114.28960903879937"><ele>7.0</ele><time>2026-04-13T09:13:12Z</time></trkpt><trkpt lat="-28.196605186422648" lon="114.28941900360576"><ele>6.5</ele><time>2026-04-13T09:13:13Z</time></trkpt><trkpt lat="-28.196335132468544" lon="114.28922872232067"><ele>6.0</ele><time>2026-04-13T09:13:14Z</time></trkpt><trkpt lat="-28.196066415320807" lon="114.28904003086758"><ele>5.5</ele><time>2026-04-13T09:13:15Z</time></trkpt><trkpt lat="-28.19579834788807" lon="114.28885226653156"><ele>5.0</ele><time>2026-04-13T09:13:16Z</time></trkpt><trkpt lat="-28.195529594788493" lon="114.28866579609715"><ele>5.0</ele><time>2026-04-13T09:13:17Z</time></trkpt><trkpt lat="-28.19525794902368" lon="114.28847969595873"><ele>5.0</ele><time>2026-04-13T09:13:18Z</time></trkpt><trkpt lat="-28.194987746938605" lon="114.288293335743"><ele>5.0</ele><time>2026-04-13T09:13:19Z</time></trkpt><trkpt lat="-28.19472350196768" lon="114.28810737053384"><ele>5.0</ele><time>2026-04-13T09:13:20Z</time></trkpt><trkpt lat="-28.19445899877536" lon="114.28792046820188"><ele>5.0</ele><time>2026-04-13T09:13:21Z</time></trkpt><trkpt lat="-28.194197950143618" lon="114.2877327907433"><ele>5.0</ele><time>2026-04-13T09:13:22Z</time></trkpt><trkpt lat="-28.193938541112267" lon="114.2875479104466"><ele>4.5</ele><time>2026-04-13T09:13:23Z</time></trkpt><trkpt lat="-28.19368405716489" lon="114.28736972653674"><ele>4.0</ele><time>2026-04-13T09:13:24Z</time></trkpt><trkpt lat="-28.193432317858996" lon="114.28719729500777"><ele>4.0</ele><time>2026-04-13T09:13:25Z</time></trkpt><trkpt lat="-28.193174038301592" lon="114.2870288171277"><ele>4.0</ele><time>2026-04-13T09:13:26Z</time></trkpt><trkpt lat="-28.192908141806008" lon="114.28687294924703"><ele>4.5</ele><time>2026-04-13T09:13:27Z</time></trkpt><trkpt lat="-28.192628518647954" lon="114.28673173513549"><ele>5.0</ele><time>2026-04-13T09:13:28Z</time></trkpt><trkpt lat="-28.1923406022791" lon="114.28660917733228"><ele>6.0</ele><time>2026-04-13T09:13:29Z</time></trkpt><trkpt lat="-28.192045679647574" lon="114.28650387067769"><ele>7.0</ele><time>2026-04-13T09:13:30Z</time></trkpt><trkpt lat="-28.191747376436236" lon="114.28641390610795"><ele>6.5</ele><time>2026-04-13T09:13:31Z</time></trkpt><trkpt lat="-28.191445780318354" lon="114.28633777198824"><ele>6.0</ele><time>2026-04-13T09:13:32Z</time></trkpt><trkpt lat="-28.1911440284883" lon="114.28626983017786"><ele>6.0</ele><time>2026-04-13T09:13:33Z</time></trkpt><trkpt lat="-28.19084055439967" lon="114.28619956498525"><ele>6.0</ele><time>2026-04-13T09:13:34Z</time></trkpt><trkpt lat="-28.190539563999845" lon="114.28612616163491"><ele>5.5</ele><time>2026-04-13T09:13:35Z</time></trkpt><trkpt lat="-28.19023563243983" lon="114.28604808257737"><ele>5.0</ele><time>2026-04-13T09:13:36Z</time></trkpt><trkpt lat="-28.189930827494575" lon="114.28596726062094"><ele>6.5</ele><time>2026-04-13T09:13:37Z</time></trkpt><trkpt lat="-28.18962675557646" lon="114.28588716120194"><ele>8.0</ele><time>2026-04-13T09:13:38Z</time></trkpt><trkpt lat="-28.189320506434612" lon="114.28580778228215"><ele>8.0</ele><time>2026-04-13T09:13:39Z</time></trkpt><trkpt lat="-28.1890131269572" lon="114.28573057195698"><ele>8.0</ele><time>2026-04-13T09:13:40Z</time></trkpt><trkpt lat="-28.188707287290406" lon="114.28565429927568"><ele>7.0</ele><time>2026-04-13T09:13:41Z</time></trkpt><trkpt lat="-28.188399893776328" lon="114.28557624821875"><ele>6.0</ele><time>2026-04-13T09:13:42Z</time></trkpt><trkpt lat="-28.188095269658383" lon="114.2854985693535"><ele>6.0</ele><time>2026-04-13T09:13:43Z</time></trkpt><trkpt lat="-28.187794323562223" lon="114.28542289337572"><ele>6.0</ele><time>2026-04-13T09:13:44Z</time></trkpt><trkpt lat="-28.18749449306004" lon="114.28533741814853"><ele>7.0</ele><time>2026-04-13T09:13:45Z</time></trkpt><trkpt lat="-28.18719584702563" lon="114.28523638782998"><ele>8.0</ele><time>2026-04-13T09:13:46Z</time></trkpt><trkpt lat="-28.186900719036167" lon="114.28512108110198"><ele>8.0</ele><time>2026-04-13T09:13:47Z</time></trkpt><trkpt lat="-28.18661970356738" lon="114.28499016421617"><ele>8.0</ele><time>2026-04-13T09:13:48Z</time></trkpt><trkpt lat="-28.186349895044398" lon="114.28484389502599"><ele>7.5</ele><time>2026-04-13T09:13:49Z</time></trkpt><trkpt lat="-28.18608676252229" lon="114.2846864143187"><ele>7.0</ele><time>2026-04-13T09:13:50Z</time></trkpt><trkpt lat="-28.185828841732505" lon="114.28451526638622"><ele>7.5</ele><time>2026-04-13T09:13:51Z</time></trkpt><trkpt lat="-28.18557585431646" lon="114.28432757297941"><ele>8.0</ele><time>2026-04-13T09:13:52Z</time></trkpt><trkpt lat="-28.185329363961213" lon="114.28412567868403"><ele>8.0</ele><time>2026-04-13T09:13:53Z</time></trkpt><trkpt lat="-28.185085917134668" lon="114.28391029345175"><ele>8.0</ele><time>2026-04-13T09:13:54Z</time></trkpt><trkpt lat="-28.184843008784316" lon="114.2836898315777"><ele>8.0</ele><time>2026-04-13T09:13:55Z</time></trkpt><trkpt lat="-28.184597237026953" lon="114.28347246115314"><ele>8.0</ele><time>2026-04-13T09:13:56Z</time></trkpt><trkpt lat="-28.18435272788171" lon="114.28325699361143"><ele>8.0</ele><time>2026-04-13T09:13:57Z</time></trkpt><trkpt lat="-28.184113300889972" lon="114.28304451730146"><ele>8.0</ele><time>2026-04-13T09:13:58Z</time></trkpt><trkpt lat="-28.18387518749231" lon="114.28284140685054"><ele>8.0</ele><time>2026-04-13T09:13:59Z</time></trkpt><trkpt lat="-28.183641828675643" lon="114.28264411227342"><ele>8.0</ele><time>2026-04-13T09:14:00Z</time></trkpt><trkpt lat="-28.183409212884754" lon="114.28244631436945"><ele>8.0</ele><time>2026-04-13T09:14:01Z</time></trkpt><trkpt lat="-28.18317746170592" lon="114.2822473537102"><ele>8.0</ele><time>2026-04-13T09:14:02Z</time></trkpt><trkpt lat="-28.18294964675862" lon="114.28204805650192"><ele>8.0</ele><time>2026-04-13T09:14:03Z</time></trkpt><trkpt lat="-28.182722876231693" lon="114.2818519282784"><ele>8.0</ele><time>2026-04-13T09:14:04Z</time></trkpt><trkpt lat="-28.182495286600645" lon="114.28165483043888"><ele>8.0</ele><time>2026-04-13T09:14:05Z</time></trkpt><trkpt lat="-28.18226326662887" lon="114.28145710770575"><ele>8.0</ele><time>2026-04-13T09:14:06Z</time></trkpt><trkpt lat="-28.182019587987774" lon="114.2812614689288"><ele>8.0</ele><time>2026-04-13T09:14:07Z</time></trkpt><trkpt lat="-28.18176292176184" lon="114.28107371656823"><ele>8.0</ele><time>2026-04-13T09:14:08Z</time></trkpt><trkpt lat="-28.18149789726404" lon="114.2808941896413"><ele>8.0</ele><time>2026-04-13T09:14:09Z</time></trkpt><trkpt lat="-28.181231605074025" lon="114.28072318554248"><ele>8.0</ele><time>2026-04-13T09:14:10Z</time></trkpt><trkpt lat="-28.18096330782517" lon="114.28055832314267"><ele>7.0</ele><time>2026-04-13T09:14:11Z</time></trkpt><trkpt lat="-28.180695482026234" lon="114.2803952575712"><ele>6.0</ele><time>2026-04-13T09:14:12Z</time></trkpt><trkpt lat="-28.180428626197518" lon="114.2802301771893"><ele>6.0</ele><time>2026-04-13T09:14:13Z</time></trkpt><trkpt lat="-28.180162754529054" lon="114.28005985873389"><ele>6.0</ele><time>2026-04-13T09:14:14Z</time></trkpt><trkpt lat="-28.17989605466222" lon="114.27989083196329"><ele>6.5</ele><time>2026-04-13T09:14:15Z</time></trkpt><trkpt lat="-28.179629361323695" lon="114.27972139470884"><ele>7.0</ele><time>2026-04-13T09:14:16Z</time></trkpt><trkpt lat="-28.17936177460507" lon="114.279551496689"><ele>7.0</ele><time>2026-04-13T09:14:17Z</time></trkpt><trkpt lat="-28.179093182125484" lon="114.2793815723482"><ele>7.0</ele><time>2026-04-13T09:14:18Z</time></trkpt><trkpt lat="-28.17882326690507" lon="114.27921940209235"><ele>6.5</ele><time>2026-04-13T09:14:19Z</time></trkpt><trkpt lat="-28.178553895007123" lon="114.2790563345055"><ele>6.0</ele><time>2026-04-13T09:14:20Z</time></trkpt><trkpt lat="-28.178284556746377" lon="114.27888722990701"><ele>5.5</ele><time>2026-04-13T09:14:21Z</time></trkpt><trkpt lat="-28.178016519860535" lon="114.27871558662407"><ele>5.0</ele><time>2026-04-13T09:14:22Z</time></trkpt><trkpt lat="-28.177746525884555" lon="114.27854524734234"><ele>5.0</ele><time>2026-04-13T09:14:23Z</time></trkpt><trkpt lat="-28.177474561663377" lon="114.27837365696972"><ele>5.0</ele><time>2026-04-13T09:14:24Z</time></trkpt><trkpt lat="-28.17720287082302" lon="114.27820318473108"><ele>5.0</ele><time>2026-04-13T09:14:25Z</time></trkpt><trkpt lat="-28.17693113958054" lon="114.2780326788097"><ele>5.0</ele><time>2026-04-13T09:14:26Z</time></trkpt><trkpt lat="-28.176659371895134" lon="114.27786021363603"><ele>6.0</ele><time>2026-04-13T09:14:27Z</time></trkpt><trkpt lat="-28.17638754432582" lon="114.27768965453897"><ele>7.0</ele><time>2026-04-13T09:14:28Z</time></trkpt><trkpt lat="-28.176114249580746" lon="114.27752015542268"><ele>7.0</ele><time>2026-04-13T09:14:29Z</time></trkpt><trkpt lat="-28.175838955256967" lon="114.27735094111416"><ele>7.0</ele><time>2026-04-13T09:14:30Z</time></trkpt><trkpt lat="-28.175566933699372" lon="114.27718097375647"><ele>7.0</ele><time>2026-04-13T09:14:31Z</time></trkpt><trkpt lat="-28.175295862718016" lon="114.27700921239149"><ele>7.0</ele><time>2026-04-13T09:14:32Z</time></trkpt><trkpt lat="-28.17502713655056" lon="114.27683042936195"><ele>8.0</ele><time>2026-04-13T09:14:33Z</time></trkpt><trkpt lat="-28.174765212396558" lon="114.27664526165361"><ele>9.0</ele><time>2026-04-13T09:14:34Z</time></trkpt><trkpt lat="-28.174510123329934" lon="114.27644549613575"><ele>7.0</ele><time>2026-04-13T09:14:35Z</time></trkpt><trkpt lat="-28.174263129350287" lon="114.27623151851328"><ele>5.0</ele><time>2026-04-13T09:14:36Z</time></trkpt><trkpt lat="-28.174024374691815" lon="114.27600788308699"><ele>4.5</ele><time>2026-04-13T09:14:37Z</time></trkpt><trkpt lat="-28.17379023063627" lon="114.27577662020296"><ele>4.0</ele><time>2026-04-13T09:14:38Z</time></trkpt><trkpt lat="-28.17355422206522" lon="114.27554315924067"><ele>4.0</ele><time>2026-04-13T09:14:39Z</time></trkpt><trkpt lat="-28.173315463422817" lon="114.27531312280588"><ele>4.0</ele><time>2026-04-13T09:14:40Z</time></trkpt><trkpt lat="-28.173075688375274" lon="114.27508411626046"><ele>4.5</ele><time>2026-04-13T09:14:41Z</time></trkpt><trkpt lat="-28.172835076087804" lon="114.27485343601147"><ele>5.0</ele><time>2026-04-13T09:14:42Z</time></trkpt><trkpt lat="-28.172594879966532" lon="114.27462386539506"><ele>5.0</ele><time>2026-04-13T09:14:43Z</time></trkpt><trkpt lat="-28.17235681802751" lon="114.27439981398636"><ele>5.0</ele><time>2026-04-13T09:14:44Z</time></trkpt><trkpt lat="-28.172120690276596" lon="114.27418008631727"><ele>5.0</ele><time>2026-04-13T09:14:45Z</time></trkpt><trkpt lat="-28.17188298243816" lon="114.2739569600409"><ele>5.0</ele><time>2026-04-13T09:14:46Z</time></trkpt><trkpt lat="-28.17164924919257" lon="114.27373392263627"><ele>6.0</ele><time>2026-04-13T09:14:47Z</time></trkpt><trkpt lat="-28.17141352891029" lon="114.27351174909401"><ele>7.0</ele><time>2026-04-13T09:14:48Z</time></trkpt><trkpt lat="-28.171178687011956" lon="114.27329020915923"><ele>6.0</ele><time>2026-04-13T09:14:49Z</time></trkpt><trkpt lat="-28.170947042131093" lon="114.27306576896191"><ele>5.0</ele><time>2026-04-13T09:14:50Z</time></trkpt><trkpt lat="-28.170713003011816" lon="114.27284058612912"><ele>6.0</ele><time>2026-04-13T09:14:51Z</time></trkpt><trkpt lat="-28.17047572785841" lon="114.27261714077855"><ele>7.0</ele><time>2026-04-13T09:14:52Z</time></trkpt><trkpt lat="-28.170236526254456" lon="114.27239444382424"><ele>7.0</ele><time>2026-04-13T09:14:53Z</time></trkpt><trkpt lat="-28.16999737440601" lon="114.27217079609925"><ele>7.0</ele><time>2026-04-13T09:14:54Z</time></trkpt><trkpt lat="-28.16975816926937" lon="114.27194508227223"><ele>7.0</ele><time>2026-04-13T09:14:55Z</time></trkpt><trkpt lat="-28.169519988188483" lon="114.27172039867587"><ele>7.0</ele><time>2026-04-13T09:14:56Z</time></trkpt><trkpt lat="-28.169276760147984" lon="114.27149423339297"><ele>7.5</ele><time>2026-04-13T09:14:57Z</time></trkpt><trkpt lat="-28.169034246806696" lon="114.27126674112124"><ele>8.0</ele><time>2026-04-13T09:14:58Z</time></trkpt><trkpt lat="-28.168787692776714" lon="114.271037077452"><ele>8.0</ele><time>2026-04-13T09:14:59Z</time></trkpt><trkpt lat="-28.168539687764348" lon="114.27080525062573"><ele>8.0</ele><time>2026-04-13T09:15:00Z</time></trkpt><trkpt lat="-28.168302059350328" lon="114.27055845172553"><ele>7.5</ele><time>2026-04-13T09:15:01Z</time></trkpt><trkpt lat="-28.168046557930428" lon="114.27033695909353"><ele>7.0</ele><time>2026-04-13T09:15:02Z</time></trkpt><trkpt lat="-28.167801434810265" lon="114.27010006967316"><ele>7.0</ele><time>2026-04-13T09:15:03Z</time></trkpt><trkpt lat="-28.167555432984074" lon="114.26986180634779"><ele>7.0</ele><time>2026-04-13T09:15:04Z</time></trkpt><trkpt lat="-28.167308652603317" lon="114.2696244924495"><ele>7.5</ele><time>2026-04-13T09:15:05Z</time></trkpt><trkpt lat="-28.16706181538139" lon="114.26939130957415"><ele>8.0</ele><time>2026-04-13T09:15:06Z</time></trkpt><trkpt lat="-28.166815672686145" lon="114.269160035264"><ele>7.5</ele><time>2026-04-13T09:15:07Z</time></trkpt><trkpt lat="-28.166563874169466" lon="114.26892310025376"><ele>7.0</ele><time>2026-04-13T09:15:08Z</time></trkpt><trkpt lat="-28.166317293497773" lon="114.26868938968609"><ele>7.0</ele><time>2026-04-13T09:15:09Z</time></trkpt><trkpt lat="-28.1660680367483" lon="114.26845257018289"><ele>7.0</ele><time>2026-04-13T09:15:10Z</time></trkpt><trkpt lat="-28.165818527899457" lon="114.26821734206037"><ele>8.5</ele><time>2026-04-13T09:15:11Z</time></trkpt><trkpt lat="-28.165569480314005" lon="114.26798352279411"><ele>10.0</ele><time>2026-04-13T09:15:12Z</time></trkpt><trkpt lat="-28.16532227104596" lon="114.26775009804321"><ele>10.0</ele><time>2026-04-13T09:15:13Z</time></trkpt><trkpt lat="-28.1650744259202" lon="114.26751390762247"><ele>10.0</ele><time>2026-04-13T09:15:14Z</time></trkpt><trkpt lat="-28.164826548241418" lon="114.26728292260015"><ele>8.0</ele><time>2026-04-13T09:15:15Z</time></trkpt><trkpt lat="-28.164576916911496" lon="114.26704814233285"><ele>6.0</ele><time>2026-04-13T09:15:16Z</time></trkpt><trkpt lat="-28.164325850175526" lon="114.26681861052093"><ele>6.0</ele><time>2026-04-13T09:15:17Z</time></trkpt><trkpt lat="-28.16408859431845" lon="114.2665702316115"><ele>6.0</ele><time>2026-04-13T09:15:18Z</time></trkpt><trkpt lat="-28.163833072345135" lon="114.2663537818139"><ele>6.0</ele><time>2026-04-13T09:15:19Z</time></trkpt><trkpt lat="-28.163592354254398" lon="114.26612435697831"><ele>6.0</ele><time>2026-04-13T09:15:20Z</time></trkpt><trkpt lat="-28.1633543192501" lon="114.26589354085006"><ele>6.0</ele><time>2026-04-13T09:15:21Z</time></trkpt><trkpt lat="-28.163111961687456" lon="114.26566580692999"><ele>6.0</ele><time>2026-04-13T09:15:22Z</time></trkpt><trkpt lat="-28.162870185364945" lon="114.26543866333685"><ele>6.0</ele><time>2026-04-13T09:15:23Z</time></trkpt><trkpt lat="-28.162630532971505" lon="114.26521040319803"><ele>6.0</ele><time>2026-04-13T09:15:24Z</time></trkpt><trkpt lat="-28.162390836057327" lon="114.26498334837483"><ele>6.0</ele><time>2026-04-13T09:15:25Z</time></trkpt><trkpt lat="-28.16214899418414" lon="114.26475566072052"><ele>6.0</ele><time>2026-04-13T09:15:26Z</time></trkpt><trkpt lat="-28.16190702595905" lon="114.26452746641834"><ele>6.0</ele><time>2026-04-13T09:15:27Z</time></trkpt><trkpt lat="-28.161661578854705" lon="114.26429764141406"><ele>6.0</ele><time>2026-04-13T09:15:28Z</time></trkpt><trkpt lat="-28.161417324000773" lon="114.264065273576"><ele>5.5</ele><time>2026-04-13T09:15:29Z</time></trkpt><trkpt lat="-28.161173985894184" lon="114.26383210662415"><ele>5.0</ele><time>2026-04-13T09:15:30Z</time></trkpt><trkpt lat="-28.16093099442794" lon="114.26359903220346"><ele>6.5</ele><time>2026-04-13T09:15:31Z</time></trkpt><trkpt lat="-28.160687930479266" lon="114.26337088067365"><ele>8.0</ele><time>2026-04-13T09:15:32Z</time></trkpt><trkpt lat="-28.16044513062312" lon="114.26314250331458"><ele>6.5</ele><time>2026-04-13T09:15:33Z</time></trkpt><trkpt lat="-28.16020535234712" lon="114.26291268674609"><ele>5.0</ele><time>2026-04-13T09:15:34Z</time></trkpt><trkpt lat="-28.159964212331722" lon="114.2626830923111"><ele>6.0</ele><time>2026-04-13T09:15:35Z</time></trkpt><trkpt lat="-28.15972218286193" lon="114.26245318438157"><ele>7.0</ele><time>2026-04-13T09:15:36Z</time></trkpt><trkpt lat="-28.1594821660665" lon="114.26222415869661"><ele>7.0</ele><time>2026-04-13T09:15:37Z</time></trkpt><trkpt lat="-28.159246277807696" lon="114.2619942960551"><ele>7.0</ele><time>2026-04-13T09:15:38Z</time></trkpt><trkpt lat="-28.159018404128282" lon="114.26175733144231"><ele>7.5</ele><time>2026-04-13T09:15:39Z</time></trkpt><trkpt lat="-28.1588030529132" lon="114.26150922858618"><ele>8.0</ele><time>2026-04-13T09:15:40Z</time></trkpt><trkpt lat="-28.158592501719166" lon="114.26124743103252"><ele>8.0</ele><time>2026-04-13T09:15:41Z</time></trkpt><trkpt lat="-28.15838699927724" lon="114.26097917230145"><ele>8.0</ele><time>2026-04-13T09:15:42Z</time></trkpt><trkpt lat="-28.158181575412296" lon="114.26070938508217"><ele>7.5</ele><time>2026-04-13T09:15:43Z</time></trkpt><trkpt lat="-28.157969301487704" lon="114.26044414667676"><ele>7.0</ele><time>2026-04-13T09:15:44Z</time></trkpt><trkpt lat="-28.157754599372666" lon="114.26018345357782"><ele>7.0</ele><time>2026-04-13T09:15:45Z</time></trkpt><trkpt lat="-28.15754153111723" lon="114.25992528634603"><ele>7.0</ele><time>2026-04-13T09:15:46Z</time></trkpt><trkpt lat="-28.157327916659852" lon="114.25966955165184"><ele>8.5</ele><time>2026-04-13T09:15:47Z</time></trkpt><trkpt lat="-28.157114536826878" lon="114.25941437302527"><ele>10.0</ele><time>2026-04-13T09:15:48Z</time></trkpt><trkpt lat="-28.156905031580052" lon="114.25915928838248"><ele>10.0</ele><time>2026-04-13T09:15:49Z</time></trkpt><trkpt lat="-28.15669265858966" lon="114.25890081400222"><ele>10.0</ele><time>2026-04-13T09:15:50Z</time></trkpt><trkpt lat="-28.15648368049412" lon="114.25864499884146"><ele>10.0</ele><time>2026-04-13T09:15:51Z</time></trkpt><trkpt lat="-28.15627657391072" lon="114.25839146406742"><ele>10.0</ele><time>2026-04-13T09:15:52Z</time></trkpt><trkpt lat="-28.156069034483444" lon="114.2581434826705"><ele>9.5</ele><time>2026-04-13T09:15:53Z</time></trkpt><trkpt lat="-28.155858588396" lon="114.25790807184248"><ele>9.0</ele><time>2026-04-13T09:15:54Z</time></trkpt><trkpt lat="-28.155633649506555" lon="114.25767709027274"><ele>9.0</ele><time>2026-04-13T09:15:55Z</time></trkpt><trkpt lat="-28.155393269509243" lon="114.25745005922356"><ele>9.0</ele><time>2026-04-13T09:15:56Z</time></trkpt><trkpt lat="-28.1551413170846" lon="114.25722617058658"><ele>7.5</ele><time>2026-04-13T09:15:57Z</time></trkpt><trkpt lat="-28.154884636336657" lon="114.25701095222274"><ele>6.0</ele><time>2026-04-13T09:15:58Z</time></trkpt><trkpt lat="-28.15462015476631" lon="114.25681042106739"><ele>6.0</ele><time>2026-04-13T09:15:59Z</time></trkpt><trkpt lat="-28.154350197068634" lon="114.25661892624677"><ele>6.0</ele><time>2026-04-13T09:16:00Z</time></trkpt><trkpt lat="-28.154076844866275" lon="114.25643322052984"><ele>5.5</ele><time>2026-04-13T09:16:01Z</time></trkpt><trkpt lat="-28.15379867311872" lon="114.25625195424308"><ele>5.0</ele><time>2026-04-13T09:16:02Z</time></trkpt><trkpt lat="-28.153524021212466" lon="114.25606687079866"><ele>5.0</ele><time>2026-04-13T09:16:03Z</time></trkpt><trkpt lat="-28.15325174036199" lon="114.2558766399739"><ele>5.0</ele><time>2026-04-13T09:16:04Z</time></trkpt><trkpt lat="-28.15298256880761" lon="114.2556864963861"><ele>5.0</ele><time>2026-04-13T09:16:05Z</time></trkpt><trkpt lat="-28.152718760312336" lon="114.2555007811662"><ele>5.0</ele><time>2026-04-13T09:16:06Z</time></trkpt><trkpt lat="-28.15245985863848" lon="114.25532267544077"><ele>6.0</ele><time>2026-04-13T09:16:07Z</time></trkpt><trkpt lat="-28.152213071350616" lon="114.25515340325508"><ele>7.0</ele><time>2026-04-13T09:16:08Z</time></trkpt><trkpt lat="-28.151978903505267" lon="114.25499387040803"><ele>7.0</ele><time>2026-04-13T09:16:09Z</time></trkpt><trkpt lat="-28.151752750023835" lon="114.25483965023483"><ele>7.0</ele><time>2026-04-13T09:16:10Z</time></trkpt><trkpt lat="-28.151532731753615" lon="114.25468731853954"><ele>7.5</ele><time>2026-04-13T09:16:11Z</time></trkpt><trkpt lat="-28.151308996703015" lon="114.25452886770194"><ele>8.0</ele><time>2026-04-13T09:16:12Z</time></trkpt><trkpt lat="-28.151078620331702" lon="114.2543666069685"><ele>8.0</ele><time>2026-04-13T09:16:13Z</time></trkpt><trkpt lat="-28.15083974412323" lon="114.25419851840394"><ele>8.0</ele><time>2026-04-13T09:16:14Z</time></trkpt><trkpt lat="-28.15059388585864" lon="114.25402837827468"><ele>7.0</ele><time>2026-04-13T09:16:15Z</time></trkpt><trkpt lat="-28.150342524805694" lon="114.25385531849562"><ele>6.0</ele><time>2026-04-13T09:16:16Z</time></trkpt><trkpt lat="-28.15009278858451" lon="114.25368299688057"><ele>7.0</ele><time>2026-04-13T09:16:17Z</time></trkpt><trkpt lat="-28.149834857911195" lon="114.25350462194918"><ele>8.0</ele><time>2026-04-13T09:16:18Z</time></trkpt><trkpt lat="-28.149575365313368" lon="114.2533254818753"><ele>8.0</ele><time>2026-04-13T09:16:19Z</time></trkpt><trkpt lat="-28.14931389821299" lon="114.25314515489289"><ele>8.0</ele><time>2026-04-13T09:16:20Z</time></trkpt><trkpt lat="-28.149060898223976" lon="114.25296991209885"><ele>7.5</ele><time>2026-04-13T09:16:21Z</time></trkpt><trkpt lat="-28.148814833994987" lon="114.25280323226228"><ele>7.0</ele><time>2026-04-13T09:16:22Z</time></trkpt><trkpt lat="-28.14857505440081" lon="114.25264068765848"><ele>7.0</ele><time>2026-04-13T09:16:23Z</time></trkpt><trkpt lat="-28.148340834637175" lon="114.25247923453576"><ele>7.0</ele><time>2026-04-13T09:16:24Z</time></trkpt><trkpt lat="-28.14810131299661" lon="114.25231245247485"><ele>6.5</ele><time>2026-04-13T09:16:25Z</time></trkpt><trkpt lat="-28.147867313209186" lon="114.2521490101666"><ele>6.0</ele><time>2026-04-13T09:16:26Z</time></trkpt><trkpt lat="-28.147640189186202" lon="114.25199087490576"><ele>6.0</ele><time>2026-04-13T09:16:27Z</time></trkpt><trkpt lat="-28.14741485730364" lon="114.25183070329601"><ele>6.0</ele><time>2026-04-13T09:16:28Z</time></trkpt><trkpt lat="-28.147188474958337" lon="114.25166550441084"><ele>5.5</ele><time>2026-04-13T09:16:29Z</time></trkpt><trkpt lat="-28.146964814047582" lon="114.25149097224865"><ele>5.0</ele><time>2026-04-13T09:16:30Z</time></trkpt><trkpt lat="-28.146742319319443" lon="114.25129930591892"><ele>7.5</ele><time>2026-04-13T09:16:31Z</time></trkpt><trkpt lat="-28.146524845849786" lon="114.25109149115336"><ele>10.0</ele><time>2026-04-13T09:16:32Z</time></trkpt><trkpt lat="-28.146314492998375" lon="114.25087134007259"><ele>10.0</ele><time>2026-04-13T09:16:33Z</time></trkpt><trkpt lat="-28.14611377910627" lon="114.25063977623608"><ele>10.0</ele><time>2026-04-13T09:16:34Z</time></trkpt><trkpt lat="-28.145919136051514" lon="114.25039788623083"><ele>11.0</ele><time>2026-04-13T09:16:35Z</time></trkpt><trkpt lat="-28.145734544850097" lon="114.2501519237949"><ele>12.0</ele><time>2026-04-13T09:16:36Z</time></trkpt><trkpt lat="-28.145554199228908" lon="114.24990438845761"><ele>9.5</ele><time>2026-04-13T09:16:37Z</time></trkpt><trkpt lat="-28.145377267762935" lon="114.2496638433034"><ele>7.0</ele><time>2026-04-13T09:16:38Z</time></trkpt><trkpt lat="-28.14518744032988" lon="114.24943324766389"><ele>7.0</ele><time>2026-04-13T09:16:39Z</time></trkpt><trkpt lat="-28.14498589291061" lon="114.24921443474898"><ele>7.0</ele><time>2026-04-13T09:16:40Z</time></trkpt><trkpt lat="-28.14477017874295" lon="114.24900190046408"><ele>6.5</ele><time>2026-04-13T09:16:41Z</time></trkpt><trkpt lat="-28.144543791883585" lon="114.24879853726848"><ele>6.0</ele><time>2026-04-13T09:16:42Z</time></trkpt><trkpt lat="-28.14430569920966" lon="114.24860057641595"><ele>6.0</ele><time>2026-04-13T09:16:43Z</time></trkpt><trkpt lat="-28.144062159354828" lon="114.24841183822676"><ele>6.0</ele><time>2026-04-13T09:16:44Z</time></trkpt><trkpt lat="-28.143809747357345" lon="114.24823212623558"><ele>7.0</ele><time>2026-04-13T09:16:45Z</time></trkpt><trkpt lat="-28.143552019593905" lon="114.24806223282634"><ele>8.0</ele><time>2026-04-13T09:16:46Z</time></trkpt><trkpt lat="-28.143294013643718" lon="114.2479037643676"><ele>8.5</ele><time>2026-04-13T09:16:47Z</time></trkpt><trkpt lat="-28.143049387900216" lon="114.24773157664744"><ele>9.0</ele><time>2026-04-13T09:16:48Z</time></trkpt><trkpt lat="-28.142807984408076" lon="114.247577118373"><ele>9.0</ele><time>2026-04-13T09:16:49Z</time></trkpt><trkpt lat="-28.14256243135017" lon="114.24743877553544"><ele>9.0</ele><time>2026-04-13T09:16:50Z</time></trkpt><trkpt lat="-28.142327924746986" lon="114.24728072221646"><ele>9.0</ele><time>2026-04-13T09:16:51Z</time></trkpt><trkpt lat="-28.142093841617903" lon="114.24711681260264"><ele>9.0</ele><time>2026-04-13T09:16:52Z</time></trkpt><trkpt lat="-28.14186457107245" lon="114.24694351695605"><ele>9.0</ele><time>2026-04-13T09:16:53Z</time></trkpt><trkpt lat="-28.141646926227562" lon="114.24674573420296"><ele>9.0</ele><time>2026-04-13T09:16:54Z</time></trkpt><trkpt lat="-28.141426947386172" lon="114.24655562202203"><ele>8.5</ele><time>2026-04-13T09:16:55Z</time></trkpt><trkpt lat="-28.14120261542357" lon="114.24637606630745"><ele>8.0</ele><time>2026-04-13T09:16:56Z</time></trkpt><trkpt lat="-28.14098922454387" lon="114.2461798736055"><ele>8.0</ele><time>2026-04-13T09:16:57Z</time></trkpt><trkpt lat="-28.140772647462853" lon="114.24598915368055"><ele>8.0</ele><time>2026-04-13T09:16:58Z</time></trkpt><trkpt lat="-28.140554491894896" lon="114.24580228880781"><ele>8.5</ele><time>2026-04-13T09:16:59Z</time></trkpt><trkpt lat="-28.140339803439797" lon="114.24561846857434"><ele>9.0</ele><time>2026-04-13T09:17:00Z</time></trkpt><trkpt lat="-28.140124907680292" lon="114.24543513122931"><ele>9.0</ele><time>2026-04-13T09:17:01Z</time></trkpt><trkpt lat="-28.13992496524313" lon="114.24523593118326"><ele>9.0</ele><time>2026-04-13T09:17:02Z</time></trkpt><trkpt lat="-28.13970525380526" lon="114.24506831238423"><ele>8.5</ele><time>2026-04-13T09:17:03Z</time></trkpt><trkpt lat="-28.139496037694624" lon="114.24488353842874"><ele>8.0</ele><time>2026-04-13T09:17:04Z</time></trkpt><trkpt lat="-28.139285034954483" lon="114.24469775735442"><ele>8.0</ele><time>2026-04-13T09:17:05Z</time></trkpt><trkpt lat="-28.139068019515246" lon="114.2445068074615"><ele>8.0</ele><time>2026-04-13T09:17:06Z</time></trkpt><trkpt lat="-28.138852817386155" lon="114.24429547751772"><ele>7.5</ele><time>2026-04-13T09:17:07Z</time></trkpt><trkpt lat="-28.138628035334392" lon="114.24409822143167"><ele>7.0</ele><time>2026-04-13T09:17:08Z</time></trkpt><trkpt lat="-28.138394855640712" lon="114.24391612274421"><ele>7.5</ele><time>2026-04-13T09:17:09Z</time></trkpt><trkpt lat="-28.138172633553193" lon="114.24371905629314"><ele>8.0</ele><time>2026-04-13T09:17:10Z</time></trkpt><trkpt lat="-28.137963082796905" lon="114.24350396149227"><ele>8.0</ele><time>2026-04-13T09:17:10.999Z</time></trkpt><trkpt lat="-28.137748969363805" lon="114.24330071843201"><ele>8.0</ele><time>2026-04-13T09:17:11.999Z</time></trkpt><trkpt lat="-28.137525278045484" lon="114.2430987407927"><ele>7.0</ele><time>2026-04-13T09:17:12.999Z</time></trkpt><trkpt lat="-28.137311577142828" lon="114.24287761039876"><ele>6.0</ele><time>2026-04-13T09:17:13.999Z</time></trkpt><trkpt lat="-28.13710211816299" lon="114.24265865481073"><ele>6.0</ele><time>2026-04-13T09:17:14.999Z</time></trkpt><trkpt lat="-28.13689326733043" lon="114.24243798914235"><ele>6.0</ele><time>2026-04-13T09:17:15.999Z</time></trkpt><trkpt lat="-28.136692238987578" lon="114.24222140537427"><ele>6.0</ele><time>2026-04-13T09:17:16.999Z</time></trkpt><trkpt lat="-28.136492458311295" lon="114.24200396623884"><ele>6.0</ele><time>2026-04-13T09:17:17.999Z</time></trkpt><trkpt lat="-28.1362930235975" lon="114.24179099994033"><ele>6.0</ele><time>2026-04-13T09:17:18.999Z</time></trkpt><trkpt lat="-28.1360959497245" lon="114.24158226114588"><ele>6.0</ele><time>2026-04-13T09:17:19.999Z</time></trkpt><trkpt lat="-28.135895451620584" lon="114.24137034461208"><ele>7.0</ele><time>2026-04-13T09:17:20.999Z</time></trkpt><trkpt lat="-28.13569937151612" lon="114.2411592008349"><ele>8.0</ele><time>2026-04-13T09:17:21.999Z</time></trkpt><trkpt lat="-28.135501179350392" lon="114.24095059806552"><ele>8.0</ele><time>2026-04-13T09:17:23Z</time></trkpt><trkpt lat="-28.135301347269905" lon="114.24074669169293"><ele>8.0</ele><time>2026-04-13T09:17:24Z</time></trkpt><trkpt lat="-28.135104856154307" lon="114.2405471140839"><ele>9.0</ele><time>2026-04-13T09:17:25Z</time></trkpt><trkpt lat="-28.13490663045572" lon="114.2403507180187"><ele>10.0</ele><time>2026-04-13T09:17:26Z</time></trkpt><trkpt lat="-28.134704019571917" lon="114.24015765713678"><ele>10.0</ele><time>2026-04-13T09:17:27Z</time></trkpt><trkpt lat="-28.13449695963206" lon="114.23996133854747"><ele>10.0</ele><time>2026-04-13T09:17:28Z</time></trkpt><trkpt lat="-28.134290592053134" lon="114.23976349079787"><ele>10.5</ele><time>2026-04-13T09:17:29Z</time></trkpt><trkpt lat="-28.134081166041096" lon="114.23956027017961"><ele>11.0</ele><time>2026-04-13T09:17:30Z</time></trkpt><trkpt lat="-28.133868574961067" lon="114.23935272682424"><ele>11.0</ele><time>2026-04-13T09:17:31Z</time></trkpt><trkpt lat="-28.133654151551394" lon="114.23914618472881"><ele>11.0</ele><time>2026-04-13T09:17:32Z</time></trkpt><trkpt lat="-28.133439216603335" lon="114.2389433919125"><ele>9.5</ele><time>2026-04-13T09:17:33Z</time></trkpt><trkpt lat="-28.133223076894748" lon="114.23873894637832"><ele>8.0</ele><time>2026-04-13T09:17:34Z</time></trkpt><trkpt lat="-28.133008649416418" lon="114.23853519782432"><ele>8.0</ele><time>2026-04-13T09:17:35Z</time></trkpt><trkpt lat="-28.13279553101517" lon="114.23833307814857"><ele>8.0</ele><time>2026-04-13T09:17:36Z</time></trkpt><trkpt lat="-28.132581518798347" lon="114.238127017333"><ele>9.0</ele><time>2026-04-13T09:17:37Z</time></trkpt><trkpt lat="-28.132371213098487" lon="114.23792044740287"><ele>10.0</ele><time>2026-04-13T09:17:38Z</time></trkpt><trkpt lat="-28.132163201782948" lon="114.23771812984158"><ele>10.0</ele><time>2026-04-13T09:17:39Z</time></trkpt><trkpt lat="-28.131959768172123" lon="114.2375230302647"><ele>10.0</ele><time>2026-04-13T09:17:40Z</time></trkpt><trkpt lat="-28.13175441985829" lon="114.23732658969429"><ele>9.0</ele><time>2026-04-13T09:17:41Z</time></trkpt><trkpt lat="-28.131554710754564" lon="114.237131568058"><ele>8.0</ele><time>2026-04-13T09:17:42Z</time></trkpt><trkpt lat="-28.131356426923873" lon="114.23693527637862"><ele>8.0</ele><time>2026-04-13T09:17:43Z</time></trkpt><trkpt lat="-28.131156878002656" lon="114.23673969681111"><ele>8.0</ele><time>2026-04-13T09:17:44Z</time></trkpt><trkpt lat="-28.13095567194507" lon="114.23654298992903"><ele>8.0</ele><time>2026-04-13T09:17:45Z</time></trkpt><trkpt lat="-28.130750396993314" lon="114.23634224076288"><ele>8.0</ele><time>2026-04-13T09:17:46Z</time></trkpt><trkpt lat="-28.13053943860398" lon="114.23614033446624"><ele>8.0</ele><time>2026-04-13T09:17:47Z</time></trkpt><trkpt lat="-28.130324943733275" lon="114.23593658709098"><ele>8.0</ele><time>2026-04-13T09:17:48Z</time></trkpt><trkpt lat="-28.130110909527133" lon="114.23573332696435"><ele>7.5</ele><time>2026-04-13T09:17:49Z</time></trkpt><trkpt lat="-28.129900035483036" lon="114.23553200986099"><ele>7.0</ele><time>2026-04-13T09:17:50Z</time></trkpt><trkpt lat="-28.129690497216757" lon="114.2353301200423"><ele>7.0</ele><time>2026-04-13T09:17:51Z</time></trkpt><trkpt lat="-28.129482621815058" lon="114.23512993742455"><ele>7.0</ele><time>2026-04-13T09:17:52Z</time></trkpt><trkpt lat="-28.12927317536746" lon="114.23492846784032"><ele>8.0</ele><time>2026-04-13T09:17:53Z</time></trkpt><trkpt lat="-28.129065184648194" lon="114.23472724918723"><ele>9.0</ele><time>2026-04-13T09:17:54Z</time></trkpt><trkpt lat="-28.128852093258015" lon="114.23452004727758"><ele>9.0</ele><time>2026-04-13T09:17:55Z</time></trkpt><trkpt lat="-28.128634344198865" lon="114.23431220512363"><ele>9.0</ele><time>2026-04-13T09:17:56Z</time></trkpt><trkpt lat="-28.128408402742206" lon="114.2340967836545"><ele>9.5</ele><time>2026-04-13T09:17:57Z</time></trkpt><trkpt lat="-28.128189223605137" lon="114.23388580600844"><ele>10.0</ele><time>2026-04-13T09:17:58Z</time></trkpt><trkpt lat="-28.1279801695808" lon="114.2336828473616"><ele>10.0</ele><time>2026-04-13T09:17:59Z</time></trkpt><trkpt lat="-28.127773035403443" lon="114.23348135929827"><ele>10.0</ele><time>2026-04-13T09:18:00Z</time></trkpt><trkpt lat="-28.127571524271104" lon="114.2332847117135"><ele>9.0</ele><time>2026-04-13T09:18:01Z</time></trkpt><trkpt lat="-28.127372142475323" lon="114.23309282951743"><ele>8.0</ele><time>2026-04-13T09:18:02Z</time></trkpt><trkpt lat="-28.127174773545466" lon="114.23290439767787"><ele>8.0</ele><time>2026-04-13T09:18:03Z</time></trkpt><trkpt lat="-28.126973463604394" lon="114.23271166378207"><ele>8.0</ele><time>2026-04-13T09:18:04Z</time></trkpt><trkpt lat="-28.126766920728706" lon="114.23251552575404"><ele>9.0</ele><time>2026-04-13T09:18:05Z</time></trkpt><trkpt lat="-28.1265588803514" lon="114.23231605593602"><ele>10.0</ele><time>2026-04-13T09:18:06Z</time></trkpt><trkpt lat="-28.126350844296724" lon="114.23211303937016"><ele>10.0</ele><time>2026-04-13T09:18:07Z</time></trkpt><trkpt lat="-28.126139649581802" lon="114.23190934147829"><ele>10.0</ele><time>2026-04-13T09:18:08Z</time></trkpt><trkpt lat="-28.125926992900723" lon="114.23170588622646"><ele>8.5</ele><time>2026-04-13T09:18:09Z</time></trkpt><trkpt lat="-28.125712256964327" lon="114.23150467782364"><ele>7.0</ele><time>2026-04-13T09:18:10Z</time></trkpt><trkpt lat="-28.12549398091381" lon="114.23130007325263"><ele>7.0</ele><time>2026-04-13T09:18:11Z</time></trkpt><trkpt lat="-28.125270569379225" lon="114.23110504814383"><ele>7.0</ele><time>2026-04-13T09:18:12Z</time></trkpt><trkpt lat="-28.12504132582162" lon="114.2309206535424"><ele>7.0</ele><time>2026-04-13T09:18:13Z</time></trkpt><trkpt lat="-28.124811346900486" lon="114.23074310793336"><ele>7.0</ele><time>2026-04-13T09:18:14Z</time></trkpt><trkpt lat="-28.124586732888083" lon="114.23056808475708"><ele>7.0</ele><time>2026-04-13T09:18:15Z</time></trkpt><trkpt lat="-28.124365568419673" lon="114.23039273600506"><ele>7.0</ele><time>2026-04-13T09:18:16Z</time></trkpt><trkpt lat="-28.124148516479817" lon="114.23021543729429"><ele>8.5</ele><time>2026-04-13T09:18:17Z</time></trkpt><trkpt lat="-28.123934552512843" lon="114.23003435855092"><ele>10.0</ele><time>2026-04-13T09:18:18Z</time></trkpt><trkpt lat="-28.12372098374648" lon="114.22985265307602"><ele>8.5</ele><time>2026-04-13T09:18:19Z</time></trkpt><trkpt lat="-28.12350293755605" lon="114.22966784329124"><ele>7.0</ele><time>2026-04-13T09:18:20Z</time></trkpt><trkpt lat="-28.123283715302478" lon="114.22948326590446"><ele>9.5</ele><time>2026-04-13T09:18:21Z</time></trkpt><trkpt lat="-28.12306054299077" lon="114.22930052531598"><ele>12.0</ele><time>2026-04-13T09:18:22Z</time></trkpt><trkpt lat="-28.122838846229573" lon="114.22911983900582"><ele>10.0</ele><time>2026-04-13T09:18:23Z</time></trkpt><trkpt lat="-28.122615601512678" lon="114.22893604042714"><ele>8.0</ele><time>2026-04-13T09:18:24Z</time></trkpt><trkpt lat="-28.122393183678902" lon="114.22875325282305"><ele>8.0</ele><time>2026-04-13T09:18:25Z</time></trkpt><trkpt lat="-28.122168914566164" lon="114.22856769730879"><ele>8.0</ele><time>2026-04-13T09:18:26Z</time></trkpt><trkpt lat="-28.121944373979034" lon="114.22839003228788"><ele>8.0</ele><time>2026-04-13T09:18:27Z</time></trkpt><trkpt lat="-28.121720047628415" lon="114.22821003011167"><ele>8.0</ele><time>2026-04-13T09:18:28Z</time></trkpt><trkpt lat="-28.121497476118076" lon="114.2280316651303"><ele>7.5</ele><time>2026-04-13T09:18:29Z</time></trkpt><trkpt lat="-28.121278659660234" lon="114.22785397779565"><ele>7.0</ele><time>2026-04-13T09:18:30Z</time></trkpt><trkpt lat="-28.12106029491792" lon="114.22767644373936"><ele>7.0</ele><time>2026-04-13T09:18:31Z</time></trkpt><trkpt lat="-28.120842273704255" lon="114.22749908853879"><ele>7.0</ele><time>2026-04-13T09:18:32Z</time></trkpt><trkpt lat="-28.12062328816196" lon="114.22731851760526"><ele>7.0</ele><time>2026-04-13T09:18:33Z</time></trkpt><trkpt lat="-28.120402172738434" lon="114.22713256398244"><ele>7.0</ele><time>2026-04-13T09:18:34Z</time></trkpt><trkpt lat="-28.120180984164726" lon="114.22694526831918"><ele>7.0</ele><time>2026-04-13T09:18:35Z</time></trkpt><trkpt lat="-28.119962822728525" lon="114.22676089274876"><ele>7.0</ele><time>2026-04-13T09:18:36Z</time></trkpt><trkpt lat="-28.11974421232908" lon="114.2265835678932"><ele>5.5</ele><time>2026-04-13T09:18:37Z</time></trkpt><trkpt lat="-28.119524850311294" lon="114.22640638540337"><ele>4.0</ele><time>2026-04-13T09:18:38Z</time></trkpt><trkpt lat="-28.11930351607489" lon="114.2262269635538"><ele>4.0</ele><time>2026-04-13T09:18:39Z</time></trkpt><trkpt lat="-28.119077692527913" lon="114.2260431429293"><ele>4.0</ele><time>2026-04-13T09:18:40Z</time></trkpt><trkpt lat="-28.118846431390597" lon="114.22585566523402"><ele>4.0</ele><time>2026-04-13T09:18:41Z</time></trkpt><trkpt lat="-28.118617920430793" lon="114.22566779835216"><ele>4.0</ele><time>2026-04-13T09:18:42Z</time></trkpt><trkpt lat="-28.11838536328653" lon="114.22547763934506"><ele>6.5</ele><time>2026-04-13T09:18:43Z</time></trkpt><trkpt lat="-28.118154572563277" lon="114.22528672717017"><ele>9.0</ele><time>2026-04-13T09:18:44Z</time></trkpt><trkpt lat="-28.11792663108091" lon="114.22509881907008"><ele>9.0</ele><time>2026-04-13T09:18:45Z</time></trkpt><trkpt lat="-28.117706335703733" lon="114.22491852394916"><ele>9.0</ele><time>2026-04-13T09:18:45.999Z</time></trkpt><trkpt lat="-28.117490300760483" lon="114.22474540010539"><ele>8.0</ele><time>2026-04-13T09:18:46.999Z</time></trkpt><trkpt lat="-28.117276598842235" lon="114.2245731459964"><ele>7.0</ele><time>2026-04-13T09:18:47.999Z</time></trkpt><trkpt lat="-28.11706218864114" lon="114.2243971892339"><ele>7.0</ele><time>2026-04-13T09:18:48.999Z</time></trkpt><trkpt lat="-28.116850023218177" lon="114.22422229459434"><ele>7.0</ele><time>2026-04-13T09:18:49.999Z</time></trkpt><trkpt lat="-28.11664146752134" lon="114.22404329237789"><ele>6.0</ele><time>2026-04-13T09:18:50.999Z</time></trkpt><trkpt lat="-28.11643782323759" lon="114.22385569066704"><ele>5.0</ele><time>2026-04-13T09:18:51.999Z</time></trkpt><trkpt lat="-28.116237043803633" lon="114.22365375129736"><ele>5.0</ele><time>2026-04-13T09:18:52.999Z</time></trkpt><trkpt lat="-28.116042421395118" lon="114.22344281467294"><ele>5.0</ele><time>2026-04-13T09:18:53.999Z</time></trkpt><trkpt lat="-28.115848667777637" lon="114.22322373589788"><ele>5.5</ele><time>2026-04-13T09:18:54.999Z</time></trkpt><trkpt lat="-28.115651518793786" lon="114.22300102424941"><ele>6.0</ele><time>2026-04-13T09:18:55.999Z</time></trkpt><trkpt lat="-28.115450723486667" lon="114.22277664537745"><ele>6.0</ele><time>2026-04-13T09:18:56.999Z</time></trkpt><trkpt lat="-28.11525229197325" lon="114.22255250441417"><ele>6.0</ele><time>2026-04-13T09:18:57.999Z</time></trkpt><trkpt lat="-28.115055104351626" lon="114.22232590861051"><ele>6.5</ele><time>2026-04-13T09:18:58.999Z</time></trkpt><trkpt lat="-28.11485679200399" lon="114.22210205368096"><ele>7.0</ele><time>2026-04-13T09:18:59.999Z</time></trkpt><trkpt lat="-28.114656548534093" lon="114.22188046747881"><ele>7.0</ele><time>2026-04-13T09:19:00.999Z</time></trkpt><trkpt lat="-28.11445824840691" lon="114.22166174341132"><ele>7.0</ele><time>2026-04-13T09:19:01.999Z</time></trkpt><trkpt lat="-28.114259383999123" lon="114.22144451617221"><ele>9.0</ele><time>2026-04-13T09:19:02.999Z</time></trkpt><trkpt lat="-28.114062937616918" lon="114.22122459267064"><ele>11.0</ele><time>2026-04-13T09:19:03.999Z</time></trkpt><trkpt lat="-28.113869926860634" lon="114.22100367902421"><ele>11.0</ele><time>2026-04-13T09:19:04.999Z</time></trkpt><trkpt lat="-28.113674678394744" lon="114.22078309431998"><ele>11.0</ele><time>2026-04-13T09:19:05.999Z</time></trkpt><trkpt lat="-28.113478060669916" lon="114.22057347804906"><ele>10.0</ele><time>2026-04-13T09:19:06.999Z</time></trkpt><trkpt lat="-28.11327533432601" lon="114.22037146261752"><ele>9.0</ele><time>2026-04-13T09:19:07.999Z</time></trkpt><trkpt lat="-28.113066244140708" lon="114.22018435691503"><ele>9.0</ele><time>2026-04-13T09:19:08.999Z</time></trkpt><trkpt lat="-28.112851240394896" lon="114.22000706230656"><ele>9.0</ele><time>2026-04-13T09:19:09.999Z</time></trkpt><trkpt lat="-28.112625559789418" lon="114.21984110594181"><ele>8.0</ele><time>2026-04-13T09:19:10.999Z</time></trkpt><trkpt lat="-28.112387498644974" lon="114.21968589051998"><ele>7.0</ele><time>2026-04-13T09:19:11.999Z</time></trkpt><trkpt lat="-28.112140444447395" lon="114.2195396280977"><ele>7.0</ele><time>2026-04-13T09:19:12.999Z</time></trkpt><trkpt lat="-28.1118924037359" lon="114.2194111262129"><ele>7.0</ele><time>2026-04-13T09:19:13.999Z</time></trkpt><trkpt lat="-28.11163496312456" lon="114.21929831210316"><ele>8.0</ele><time>2026-04-13T09:19:14.999Z</time></trkpt><trkpt lat="-28.111370528450422" lon="114.21919778424325"><ele>9.0</ele><time>2026-04-13T09:19:15.999Z</time></trkpt><trkpt lat="-28.11109964954901" lon="114.21910429787532"><ele>9.0</ele><time>2026-04-13T09:19:16.999Z</time></trkpt><trkpt lat="-28.110820376888157" lon="114.2190144460551"><ele>9.0</ele><time>2026-04-13T09:19:17.999Z</time></trkpt><trkpt lat="-28.11053852698584" lon="114.21893133186686"><ele>8.0</ele><time>2026-04-13T09:19:18.999Z</time></trkpt><trkpt lat="-28.110267282288913" lon="114.21885316250614"><ele>7.0</ele><time>2026-04-13T09:19:19.999Z</time></trkpt><trkpt lat="-28.110003754006737" lon="114.21877993616836"><ele>7.5</ele><time>2026-04-13T09:19:20.999Z</time></trkpt><trkpt lat="-28.109746157741288" lon="114.21870487147893"><ele>8.0</ele><time>2026-04-13T09:19:21.999Z</time></trkpt><trkpt lat="-28.109493062570092" lon="114.21863041576022"><ele>8.0</ele><time>2026-04-13T09:19:22.999Z</time></trkpt><trkpt lat="-28.10924405117943" lon="114.2185589942958"><ele>8.0</ele><time>2026-04-13T09:19:23.999Z</time></trkpt><trkpt lat="-28.10899106281086" lon="114.21848857156198"><ele>8.0</ele><time>2026-04-13T09:19:24.999Z</time></trkpt><trkpt lat="-28.108739670237856" lon="114.21841886657502"><ele>8.0</ele><time>2026-04-13T09:19:25.999Z</time></trkpt><trkpt lat="-28.108486992583053" lon="114.21834451482174"><ele>9.5</ele><time>2026-04-13T09:19:26.999Z</time></trkpt><trkpt lat="-28.108233127618615" lon="114.21826223325046"><ele>11.0</ele><time>2026-04-13T09:19:27.999Z</time></trkpt><trkpt lat="-28.10797622552492" lon="114.21817260161606"><ele>10.0</ele><time>2026-04-13T09:19:29Z</time></trkpt><trkpt lat="-28.10771959178899" lon="114.21807691991093"><ele>9.0</ele><time>2026-04-13T09:19:30Z</time></trkpt><trkpt lat="-28.10746659174474" lon="114.21797308731965"><ele>9.5</ele><time>2026-04-13T09:19:31Z</time></trkpt><trkpt lat="-28.107215775197936" lon="114.21786040240751"><ele>10.0</ele><time>2026-04-13T09:19:32Z</time></trkpt><trkpt lat="-28.106962571890914" lon="114.2177371894778"><ele>10.0</ele><time>2026-04-13T09:19:33Z</time></trkpt><trkpt lat="-28.106713024830597" lon="114.2176062314606"><ele>10.0</ele><time>2026-04-13T09:19:34Z</time></trkpt><trkpt lat="-28.106469078487297" lon="114.21746606709483"><ele>10.5</ele><time>2026-04-13T09:19:35Z</time></trkpt><trkpt lat="-28.10622683842797" lon="114.2173142402301"><ele>11.0</ele><time>2026-04-13T09:19:36Z</time></trkpt><trkpt lat="-28.105974142754274" lon="114.21715796973973"><ele>11.5</ele><time>2026-04-13T09:19:37Z</time></trkpt><trkpt lat="-28.10571531004399" lon="114.2169985706005"><ele>12.0</ele><time>2026-04-13T09:19:38Z</time></trkpt><trkpt lat="-28.105456124544567" lon="114.21683832999318"><ele>12.0</ele><time>2026-04-13T09:19:39Z</time></trkpt><trkpt lat="-28.105196827378062" lon="114.21667705769637"><ele>12.0</ele><time>2026-04-13T09:19:40Z</time></trkpt><trkpt lat="-28.10493883937334" lon="114.21651761777258"><ele>12.5</ele><time>2026-04-13T09:19:41Z</time></trkpt><trkpt lat="-28.104690008965985" lon="114.216364033545"><ele>13.0</ele><time>2026-04-13T09:19:42Z</time></trkpt><trkpt lat="-28.104447574365587" lon="114.21621626889238"><ele>13.0</ele><time>2026-04-13T09:19:43Z</time></trkpt><trkpt lat="-28.104208708547702" lon="114.21607288637838"><ele>13.0</ele><time>2026-04-13T09:19:44Z</time></trkpt><trkpt lat="-28.103977298530435" lon="114.21593309292588"><ele>12.5</ele><time>2026-04-13T09:19:45Z</time></trkpt><trkpt lat="-28.103748029074247" lon="114.21579366026232"><ele>12.0</ele><time>2026-04-13T09:19:46Z</time></trkpt><trkpt lat="-28.103519702681883" lon="114.21565354125492"><ele>12.0</ele><time>2026-04-13T09:19:47Z</time></trkpt><trkpt lat="-28.103290457192298" lon="114.21550994608509"><ele>12.0</ele><time>2026-04-13T09:19:48Z</time></trkpt><trkpt lat="-28.103055647397262" lon="114.21536393755237"><ele>14.0</ele><time>2026-04-13T09:19:49Z</time></trkpt><trkpt lat="-28.102818698839606" lon="114.21521720453619"><ele>16.0</ele><time>2026-04-13T09:19:50Z</time></trkpt><trkpt lat="-28.102581000629893" lon="114.21507170138297"><ele>15.5</ele><time>2026-04-13T09:19:51Z</time></trkpt><trkpt lat="-28.102344279458595" lon="114.21492669585999"><ele>15.0</ele><time>2026-04-13T09:19:52.001Z</time></trkpt><trkpt lat="-28.102108021634628" lon="114.21477991645942"><ele>14.0</ele><time>2026-04-13T09:19:53.001Z</time></trkpt><trkpt lat="-28.10186401737416" lon="114.21462596837723"><ele>13.0</ele><time>2026-04-13T09:19:54.001Z</time></trkpt><trkpt lat="-28.101615206367594" lon="114.21446515865168"><ele>14.5</ele><time>2026-04-13T09:19:55.001Z</time></trkpt><trkpt lat="-28.101372977879418" lon="114.21429406370981"><ele>16.0</ele><time>2026-04-13T09:19:56.001Z</time></trkpt><trkpt lat="-28.101140403041196" lon="114.21411154634993"><ele>14.5</ele><time>2026-04-13T09:19:57.001Z</time></trkpt><trkpt lat="-28.100919135062863" lon="114.21391987627582"><ele>13.0</ele><time>2026-04-13T09:19:58.001Z</time></trkpt><trkpt lat="-28.100711418151782" lon="114.21371622713454"><ele>16.0</ele><time>2026-04-13T09:19:59.001Z</time></trkpt><trkpt lat="-28.100519943750996" lon="114.21350070173962"><ele>19.0</ele><time>2026-04-13T09:20:00.001Z</time></trkpt><trkpt lat="-28.100343901493375" lon="114.21327449615889"><ele>16.5</ele><time>2026-04-13T09:20:01.001Z</time></trkpt><trkpt lat="-28.10017789455649" lon="114.21304058386816"><ele>14.0</ele><time>2026-04-13T09:20:02.001Z</time></trkpt><trkpt lat="-28.100019598917775" lon="114.21280033010534"><ele>13.5</ele><time>2026-04-13T09:20:03.001Z</time></trkpt><trkpt lat="-28.099869716232934" lon="114.21255973113712"><ele>13.0</ele><time>2026-04-13T09:20:04.001Z</time></trkpt><trkpt lat="-28.09972049783336" lon="114.21231935840775"><ele>13.0</ele><time>2026-04-13T09:20:05.001Z</time></trkpt><trkpt lat="-28.099564771485802" lon="114.21208323215578"><ele>13.0</ele><time>2026-04-13T09:20:06.001Z</time></trkpt><trkpt lat="-28.099395711552432" lon="114.21184838606173"><ele>13.0</ele><time>2026-04-13T09:20:07.001Z</time></trkpt><trkpt lat="-28.09920883875014" lon="114.2116148622355"><ele>13.0</ele><time>2026-04-13T09:20:08.001Z</time></trkpt><trkpt lat="-28.09900674152967" lon="114.21139129190173"><ele>13.5</ele><time>2026-04-13T09:20:09.001Z</time></trkpt><trkpt lat="-28.098793071836774" lon="114.21117737971753"><ele>14.0</ele><time>2026-04-13T09:20:10.001Z</time></trkpt><trkpt lat="-28.098565030596983" lon="114.21097631781171"><ele>14.0</ele><time>2026-04-13T09:20:11.001Z</time></trkpt><trkpt lat="-28.09832710744045" lon="114.21078949955137"><ele>14.0</ele><time>2026-04-13T09:20:12.001Z</time></trkpt><trkpt lat="-28.09808434588903" lon="114.2106180353698"><ele>14.0</ele><time>2026-04-13T09:20:13.001Z</time></trkpt><trkpt lat="-28.09783736917579" lon="114.2104580342145"><ele>14.0</ele><time>2026-04-13T09:20:14.001Z</time></trkpt><trkpt lat="-28.097591065500925" lon="114.21031583357848"><ele>14.0</ele><time>2026-04-13T09:20:15.001Z</time></trkpt><trkpt lat="-28.09734156144789" lon="114.21019121517394"><ele>14.0</ele><time>2026-04-13T09:20:16.001Z</time></trkpt><trkpt lat="-28.09708707604091" lon="114.21008280650896"><ele>14.0</ele><time>2026-04-13T09:20:17.001Z</time></trkpt><trkpt lat="-28.096825170379475" lon="114.20998519972626"><ele>14.0</ele><time>2026-04-13T09:20:18.001Z</time></trkpt><trkpt lat="-28.09656165912698" lon="114.20989295752037"><ele>11.5</ele><time>2026-04-13T09:20:19.001Z</time></trkpt><trkpt lat="-28.096303989738917" lon="114.20980268186868"><ele>9.0</ele><time>2026-04-13T09:20:20.001Z</time></trkpt><trkpt lat="-28.096047978721653" lon="114.20971434081258"><ele>9.0</ele><time>2026-04-13T09:20:21.001Z</time></trkpt><trkpt lat="-28.09579469708264" lon="114.20962095975716"><ele>9.0</ele><time>2026-04-13T09:20:22Z</time></trkpt><trkpt lat="-28.09553972290388" lon="114.20951834282636"><ele>10.0</ele><time>2026-04-13T09:20:23Z</time></trkpt><trkpt lat="-28.09529065819642" lon="114.20940346040638"><ele>11.0</ele><time>2026-04-13T09:20:24Z</time></trkpt><trkpt lat="-28.095044500995797" lon="114.20927224709489"><ele>11.0</ele><time>2026-04-13T09:20:25Z</time></trkpt><trkpt lat="-28.094805373120327" lon="114.20912122303505"><ele>11.0</ele><time>2026-04-13T09:20:26Z</time></trkpt><trkpt lat="-28.09457528273896" lon="114.20895465918947"><ele>10.5</ele><time>2026-04-13T09:20:27Z</time></trkpt><trkpt lat="-28.094353596552114" lon="114.20877375385116"><ele>10.0</ele><time>2026-04-13T09:20:28Z</time></trkpt><trkpt lat="-28.09414087456835" lon="114.20858185031621"><ele>10.5</ele><time>2026-04-13T09:20:29Z</time></trkpt><trkpt lat="-28.09393960699509" lon="114.20838262205488"><ele>11.0</ele><time>2026-04-13T09:20:30Z</time></trkpt><trkpt lat="-28.09375152408242" lon="114.20818096081314"><ele>11.0</ele><time>2026-04-13T09:20:31Z</time></trkpt><trkpt lat="-28.09357037728003" lon="114.20797908297772"><ele>11.0</ele><time>2026-04-13T09:20:32Z</time></trkpt><trkpt lat="-28.093396558991408" lon="114.2077686064862"><ele>11.5</ele><time>2026-04-13T09:20:33Z</time></trkpt><trkpt lat="-28.093217130738804" lon="114.20755541649409"><ele>12.0</ele><time>2026-04-13T09:20:34Z</time></trkpt><trkpt lat="-28.093022523711802" lon="114.20734585961917"><ele>12.5</ele><time>2026-04-13T09:20:35Z</time></trkpt><trkpt lat="-28.092808442632787" lon="114.20714950587924"><ele>13.0</ele><time>2026-04-13T09:20:36Z</time></trkpt><trkpt lat="-28.092575213716614" lon="114.20696056210335"><ele>11.5</ele><time>2026-04-13T09:20:37Z</time></trkpt><trkpt lat="-28.092327540397903" lon="114.20677828278286"><ele>10.0</ele><time>2026-04-13T09:20:38Z</time></trkpt><trkpt lat="-28.09206841065805" lon="114.20660977105356"><ele>10.0</ele><time>2026-04-13T09:20:39Z</time></trkpt><trkpt lat="-28.091796821934985" lon="114.20645278034723"><ele>10.0</ele><time>2026-04-13T09:20:40Z</time></trkpt><trkpt lat="-28.091519850087735" lon="114.20630756689951"><ele>9.5</ele><time>2026-04-13T09:20:41Z</time></trkpt><trkpt lat="-28.09124220596999" lon="114.206183013035"><ele>9.0</ele><time>2026-04-13T09:20:42Z</time></trkpt><trkpt lat="-28.09096121139821" lon="114.20607805703142"><ele>8.0</ele><time>2026-04-13T09:20:43Z</time></trkpt><trkpt lat="-28.090677959988874" lon="114.20599461873971"><ele>7.0</ele><time>2026-04-13T09:20:44Z</time></trkpt><trkpt lat="-28.090396590370265" lon="114.20592451152623"><ele>7.0</ele><time>2026-04-13T09:20:45Z</time></trkpt><trkpt lat="-28.090116771735293" lon="114.20585691572957"><ele>7.0</ele><time>2026-04-13T09:20:46Z</time></trkpt><trkpt lat="-28.08983640354432" lon="114.20579128735898"><ele>8.0</ele><time>2026-04-13T09:20:47Z</time></trkpt><trkpt lat="-28.089560764966485" lon="114.20572746851192"><ele>9.0</ele><time>2026-04-13T09:20:48Z</time></trkpt><trkpt lat="-28.089293638082697" lon="114.20566567908172"><ele>11.5</ele><time>2026-04-13T09:20:49Z</time></trkpt><trkpt lat="-28.089036159308684" lon="114.20560544092368"><ele>14.0</ele><time>2026-04-13T09:20:50Z</time></trkpt><trkpt lat="-28.08877820132322" lon="114.2055435545538"><ele>14.0</ele><time>2026-04-13T09:20:51Z</time></trkpt><trkpt lat="-28.088518458362707" lon="114.20548030407845"><ele>14.0</ele><time>2026-04-13T09:20:52Z</time></trkpt><trkpt lat="-28.08826124517606" lon="114.20542186178378"><ele>14.0</ele><time>2026-04-13T09:20:53Z</time></trkpt><trkpt lat="-28.088009783734094" lon="114.20536196967706"><ele>14.0</ele><time>2026-04-13T09:20:54Z</time></trkpt><trkpt lat="-28.087758155184957" lon="114.2053046730426"><ele>14.0</ele><time>2026-04-13T09:20:55Z</time></trkpt><trkpt lat="-28.08749986520572" lon="114.20524538357505"><ele>14.0</ele><time>2026-04-13T09:20:56Z</time></trkpt><trkpt lat="-28.087237743393413" lon="114.20518257505242"><ele>14.0</ele><time>2026-04-13T09:20:57Z</time></trkpt><trkpt lat="-28.08697650593261" lon="114.20511303841317"><ele>14.0</ele><time>2026-04-13T09:20:58Z</time></trkpt><trkpt lat="-28.086716234067147" lon="114.20503160086834"><ele>16.5</ele><time>2026-04-13T09:20:59Z</time></trkpt><trkpt lat="-28.08645483999821" lon="114.20494249899397"><ele>19.0</ele><time>2026-04-13T09:21:00Z</time></trkpt><trkpt lat="-28.086184579461893" lon="114.20484891424728"><ele>17.0</ele><time>2026-04-13T09:21:01Z</time></trkpt><trkpt lat="-28.08591375447719" lon="114.20475292674747"><ele>15.0</ele><time>2026-04-13T09:21:02Z</time></trkpt><trkpt lat="-28.085643592338798" lon="114.20465236826786"><ele>15.0</ele><time>2026-04-13T09:21:03Z</time></trkpt><trkpt lat="-28.085376086087486" lon="114.20454905346853"><ele>15.0</ele><time>2026-04-13T09:21:04Z</time></trkpt><trkpt lat="-28.085110186036925" lon="114.20444350742066"><ele>16.0</ele><time>2026-04-13T09:21:05Z</time></trkpt><trkpt lat="-28.084846623735125" lon="114.2043324232039"><ele>17.0</ele><time>2026-04-13T09:21:06Z</time></trkpt><trkpt lat="-28.084586753799176" lon="114.20421500941826"><ele>17.0</ele><time>2026-04-13T09:21:07Z</time></trkpt><trkpt lat="-28.084330343488382" lon="114.20408984423241"><ele>17.0</ele><time>2026-04-13T09:21:08Z</time></trkpt><trkpt lat="-28.08407754854031" lon="114.20395696769424"><ele>15.0</ele><time>2026-04-13T09:21:09Z</time></trkpt><trkpt lat="-28.08382730972505" lon="114.20381974363296"><ele>13.0</ele><time>2026-04-13T09:21:10Z</time></trkpt><trkpt lat="-28.083586602971522" lon="114.20368129155233"><ele>13.0</ele><time>2026-04-13T09:21:11Z</time></trkpt><trkpt lat="-28.083350260984794" lon="114.20353788087581"><ele>13.0</ele><time>2026-04-13T09:21:12Z</time></trkpt><trkpt lat="-28.083113465570552" lon="114.20339483289533"><ele>14.0</ele><time>2026-04-13T09:21:13Z</time></trkpt><trkpt lat="-28.08288131042734" lon="114.20325622851286"><ele>15.0</ele><time>2026-04-13T09:21:14Z</time></trkpt><trkpt lat="-28.082653321444898" lon="114.20311442605536"><ele>16.0</ele><time>2026-04-13T09:21:15Z</time></trkpt><trkpt lat="-28.082427537898187" lon="114.2029655400024"><ele>17.0</ele><time>2026-04-13T09:21:16Z</time></trkpt><trkpt lat="-28.08220342164334" lon="114.20280912304906"><ele>17.0</ele><time>2026-04-13T09:21:17Z</time></trkpt><trkpt lat="-28.08198472504063" lon="114.20265188169084"><ele>17.0</ele><time>2026-04-13T09:21:18Z</time></trkpt><trkpt lat="-28.081768218500788" lon="114.2024912320932"><ele>15.0</ele><time>2026-04-13T09:21:19Z</time></trkpt><trkpt lat="-28.081555185755004" lon="114.20232334576072"><ele>13.0</ele><time>2026-04-13T09:21:20Z</time></trkpt><trkpt lat="-28.08134207751264" lon="114.20215011123989"><ele>13.0</ele><time>2026-04-13T09:21:21Z</time></trkpt><trkpt lat="-28.081124900353092" lon="114.20196833277758"><ele>13.0</ele><time>2026-04-13T09:21:22Z</time></trkpt><trkpt lat="-28.080905228387188" lon="114.20178461174757"><ele>13.5</ele><time>2026-04-13T09:21:23Z</time></trkpt><trkpt lat="-28.080673199367606" lon="114.20159507665973"><ele>14.0</ele><time>2026-04-13T09:21:24Z</time></trkpt><trkpt lat="-28.080435803775863" lon="114.20140417678114"><ele>13.0</ele><time>2026-04-13T09:21:25Z</time></trkpt><trkpt lat="-28.080202660888713" lon="114.20121642214635"><ele>12.0</ele><time>2026-04-13T09:21:26Z</time></trkpt><trkpt lat="-28.079975086339783" lon="114.20102962961843"><ele>14.0</ele><time>2026-04-13T09:21:27Z</time></trkpt><trkpt lat="-28.07974928746476" lon="114.20084780750261"><ele>16.0</ele><time>2026-04-13T09:21:28Z</time></trkpt><trkpt lat="-28.07952918257172" lon="114.20067099312321"><ele>15.5</ele><time>2026-04-13T09:21:29Z</time></trkpt><trkpt lat="-28.07930911458009" lon="114.20049419428125"><ele>15.0</ele><time>2026-04-13T09:21:30Z</time></trkpt><trkpt lat="-28.079092240152594" lon="114.20031631619139"><ele>14.5</ele><time>2026-04-13T09:21:31Z</time></trkpt><trkpt lat="-28.078877196256038" lon="114.20013744677273"><ele>14.0</ele><time>2026-04-13T09:21:32Z</time></trkpt><trkpt lat="-28.0786605704181" lon="114.19995775732478"><ele>13.5</ele><time>2026-04-13T09:21:33Z</time></trkpt><trkpt lat="-28.078443474861924" lon="114.19978081458993"><ele>13.0</ele><time>2026-04-13T09:21:34Z</time></trkpt><trkpt lat="-28.078226504978566" lon="114.19960462198881"><ele>14.0</ele><time>2026-04-13T09:21:35.001Z</time></trkpt><trkpt lat="-28.07800819217455" lon="114.1994307039523"><ele>15.0</ele><time>2026-04-13T09:21:36.001Z</time></trkpt><trkpt lat="-28.077783547468776" lon="114.1992571615269"><ele>15.0</ele><time>2026-04-13T09:21:37.001Z</time></trkpt><trkpt lat="-28.077549780477533" lon="114.19909375790681"><ele>15.0</ele><time>2026-04-13T09:21:38.001Z</time></trkpt><trkpt lat="-28.07730394124928" lon="114.19893761646262"><ele>14.5</ele><time>2026-04-13T09:21:39.001Z</time></trkpt><trkpt lat="-28.07704629720451" lon="114.19879928705654"><ele>14.0</ele><time>2026-04-13T09:21:40.001Z</time></trkpt><trkpt lat="-28.07677709560344" lon="114.19867705642129"><ele>15.0</ele><time>2026-04-13T09:21:41.001Z</time></trkpt><trkpt lat="-28.07650007230926" lon="114.19856071906933"><ele>16.0</ele><time>2026-04-13T09:21:42.001Z</time></trkpt><trkpt lat="-28.07622831626444" lon="114.198451166202"><ele>16.0</ele><time>2026-04-13T09:21:43.001Z</time></trkpt><trkpt lat="-28.07595647064094" lon="114.19834057171454"><ele>16.0</ele><time>2026-04-13T09:21:44.001Z</time></trkpt><trkpt lat="-28.075691317031158" lon="114.19822924805254"><ele>15.5</ele><time>2026-04-13T09:21:45.001Z</time></trkpt><trkpt lat="-28.07542995698615" lon="114.19811850091128"><ele>15.0</ele><time>2026-04-13T09:21:46.001Z</time></trkpt><trkpt lat="-28.075173285278122" lon="114.19801137708019"><ele>15.0</ele><time>2026-04-13T09:21:47.001Z</time></trkpt><trkpt lat="-28.074924550048667" lon="114.19790679800613"><ele>15.0</ele><time>2026-04-13T09:21:48.001Z</time></trkpt><trkpt lat="-28.074678954316333" lon="114.19780252643069"><ele>15.0</ele><time>2026-04-13T09:21:49.001Z</time></trkpt><trkpt lat="-28.07443182716437" lon="114.19770164983046"><ele>15.0</ele><time>2026-04-13T09:21:50.001Z</time></trkpt><trkpt lat="-28.07418130063473" lon="114.19759851245529"><ele>17.5</ele><time>2026-04-13T09:21:51.001Z</time></trkpt><trkpt lat="-28.073930343309613" lon="114.1974926767344"><ele>20.0</ele><time>2026-04-13T09:21:52.001Z</time></trkpt><trkpt lat="-28.073675069741824" lon="114.19738575374045"><ele>19.0</ele><time>2026-04-13T09:21:53.001Z</time></trkpt><trkpt lat="-28.073417140424027" lon="114.1972802526072"><ele>18.0</ele><time>2026-04-13T09:21:54.001Z</time></trkpt><trkpt lat="-28.073158629499893" lon="114.19717376074605"><ele>18.0</ele><time>2026-04-13T09:21:55.001Z</time></trkpt><trkpt lat="-28.072903180130307" lon="114.19706747356663"><ele>18.0</ele><time>2026-04-13T09:21:56.001Z</time></trkpt><trkpt lat="-28.072649172711287" lon="114.19696406503647"><ele>20.5</ele><time>2026-04-13T09:21:57.001Z</time></trkpt><trkpt lat="-28.072398158776902" lon="114.19685927858693"><ele>23.0</ele><time>2026-04-13T09:21:58.001Z</time></trkpt><trkpt lat="-28.072140689535175" lon="114.19675083401117"><ele>23.0</ele><time>2026-04-13T09:21:59.001Z</time></trkpt><trkpt lat="-28.071879041928153" lon="114.19663970355565"><ele>23.0</ele><time>2026-04-13T09:22:00.001Z</time></trkpt><trkpt lat="-28.07161977377007" lon="114.1965310820042"><ele>21.0</ele><time>2026-04-13T09:22:01.001Z</time></trkpt><trkpt lat="-28.071363112179395" lon="114.19642502592713"><ele>19.0</ele><time>2026-04-13T09:22:02.001Z</time></trkpt><trkpt lat="-28.071110503674543" lon="114.1963193805646"><ele>19.0</ele><time>2026-04-13T09:22:03.001Z</time></trkpt><trkpt lat="-28.070854693594427" lon="114.19621362094401"><ele>19.0</ele><time>2026-04-13T09:22:04.001Z</time></trkpt><trkpt lat="-28.07059401628364" lon="114.19610754808514"><ele>18.5</ele><time>2026-04-13T09:22:05.001Z</time></trkpt><trkpt lat="-28.070331533398825" lon="114.1960024695548"><ele>18.0</ele><time>2026-04-13T09:22:06.001Z</time></trkpt><trkpt lat="-28.07007310317602" lon="114.19589753654387"><ele>18.0</ele><time>2026-04-13T09:22:07Z</time></trkpt><trkpt lat="-28.069814656026008" lon="114.19579240260127"><ele>18.0</ele><time>2026-04-13T09:22:08Z</time></trkpt><trkpt lat="-28.069551306320783" lon="114.19568208716233"><ele>17.5</ele><time>2026-04-13T09:22:09Z</time></trkpt><trkpt lat="-28.06928725717711" lon="114.1955710845945"><ele>17.0</ele><time>2026-04-13T09:22:10Z</time></trkpt><trkpt lat="-28.069027702280213" lon="114.19546523599718"><ele>16.0</ele><time>2026-04-13T09:22:11Z</time></trkpt><trkpt lat="-28.068773927941372" lon="114.19536026484826"><ele>15.0</ele><time>2026-04-13T09:22:12Z</time></trkpt><trkpt lat="-28.068527803276424" lon="114.19525645232707"><ele>15.0</ele><time>2026-04-13T09:22:13Z</time></trkpt><trkpt lat="-28.068285673189006" lon="114.19515808479642"><ele>15.0</ele><time>2026-04-13T09:22:14Z</time></trkpt><trkpt lat="-28.068045051909003" lon="114.19505976389286"><ele>17.0</ele><time>2026-04-13T09:22:15Z</time></trkpt><trkpt lat="-28.067810584313158" lon="114.19496132681466"><ele>19.0</ele><time>2026-04-13T09:22:16Z</time></trkpt><trkpt lat="-28.067577941289727" lon="114.19486480310417"><ele>19.0</ele><time>2026-04-13T09:22:17Z</time></trkpt><trkpt lat="-28.06734714617602" lon="114.1947707414767"><ele>19.0</ele><time>2026-04-13T09:22:18Z</time></trkpt><trkpt lat="-28.067116873016197" lon="114.19467584471344"><ele>19.0</ele><time>2026-04-13T09:22:19Z</time></trkpt><trkpt lat="-28.066889523000132" lon="114.19458132457936"><ele>19.0</ele><time>2026-04-13T09:22:20Z</time></trkpt><trkpt lat="-28.06666343434908" lon="114.19448429164743"><ele>19.0</ele><time>2026-04-13T09:22:21Z</time></trkpt><trkpt lat="-28.066430551552934" lon="114.19438343247943"><ele>19.0</ele><time>2026-04-13T09:22:22Z</time></trkpt><trkpt lat="-28.06618844781717" lon="114.19428164576541"><ele>19.0</ele><time>2026-04-13T09:22:23Z</time></trkpt><trkpt lat="-28.065945607979746" lon="114.1941824943135"><ele>19.0</ele><time>2026-04-13T09:22:24Z</time></trkpt><trkpt lat="-28.06570020208471" lon="114.19408541954213"><ele>20.5</ele><time>2026-04-13T09:22:25Z</time></trkpt><trkpt lat="-28.065450100846217" lon="114.19398424080507"><ele>22.0</ele><time>2026-04-13T09:22:26Z</time></trkpt><trkpt lat="-28.06519103138226" lon="114.19387923335033"><ele>19.5</ele><time>2026-04-13T09:22:27Z</time></trkpt><trkpt lat="-28.064929404427954" lon="114.19376990107344"><ele>17.0</ele><time>2026-04-13T09:22:28Z</time></trkpt><trkpt lat="-28.06466495436681" lon="114.1936576764238"><ele>17.0</ele><time>2026-04-13T09:22:29Z</time></trkpt><trkpt lat="-28.064392655817517" lon="114.19354292582332"><ele>17.0</ele><time>2026-04-13T09:22:30Z</time></trkpt><trkpt lat="-28.064114875796555" lon="114.19342839966481"><ele>16.0</ele><time>2026-04-13T09:22:31Z</time></trkpt><trkpt lat="-28.063834474865306" lon="114.1933147867337"><ele>15.0</ele><time>2026-04-13T09:22:32Z</time></trkpt><trkpt lat="-28.063558738381513" lon="114.19320283811771"><ele>15.0</ele><time>2026-04-13T09:22:33Z</time></trkpt><trkpt lat="-28.063283359718543" lon="114.19308790163609"><ele>15.0</ele><time>2026-04-13T09:22:34Z</time></trkpt><trkpt lat="-28.06300931582884" lon="114.19296871303119"><ele>12.5</ele><time>2026-04-13T09:22:35Z</time></trkpt><trkpt lat="-28.062735158329385" lon="114.19284921610559"><ele>10.0</ele><time>2026-04-13T09:22:36Z</time></trkpt><trkpt lat="-28.062462585507976" lon="114.19273169940813"><ele>10.5</ele><time>2026-04-13T09:22:37Z</time></trkpt><trkpt lat="-28.062192523992195" lon="114.19261632971192"><ele>11.0</ele><time>2026-04-13T09:22:38Z</time></trkpt><trkpt lat="-28.061924204315833" lon="114.1925061569521"><ele>11.0</ele><time>2026-04-13T09:22:39Z</time></trkpt><trkpt lat="-28.061665871042674" lon="114.19239999869927"><ele>11.0</ele><time>2026-04-13T09:22:40Z</time></trkpt><trkpt lat="-28.061414477292782" lon="114.19229742384476"><ele>11.5</ele><time>2026-04-13T09:22:41Z</time></trkpt><trkpt lat="-28.061162430740225" lon="114.19219527151083"><ele>12.0</ele><time>2026-04-13T09:22:42Z</time></trkpt><trkpt lat="-28.060910041873928" lon="114.19209062875521"><ele>12.5</ele><time>2026-04-13T09:22:43Z</time></trkpt><trkpt lat="-28.06065707666178" lon="114.19198568547526"><ele>13.0</ele><time>2026-04-13T09:22:44Z</time></trkpt><trkpt lat="-28.060397375026163" lon="114.19188498523923"><ele>13.0</ele><time>2026-04-13T09:22:45Z</time></trkpt><trkpt lat="-28.06013312301181" lon="114.19179197996569"><ele>13.0</ele><time>2026-04-13T09:22:46Z</time></trkpt><trkpt lat="-28.059866958620496" lon="114.19170523787061"><ele>11.5</ele><time>2026-04-13T09:22:47Z</time></trkpt><trkpt lat="-28.05959982111646" lon="114.19162022773041"><ele>10.0</ele><time>2026-04-13T09:22:48Z</time></trkpt><trkpt lat="-28.05933412512442" lon="114.19154105602416"><ele>9.5</ele><time>2026-04-13T09:22:49Z</time></trkpt><trkpt lat="-28.05908072826509" lon="114.19147048513959"><ele>9.0</ele><time>2026-04-13T09:22:50Z</time></trkpt><trkpt lat="-28.058838819111283" lon="114.19141196595201"><ele>9.0</ele><time>2026-04-13T09:22:51Z</time></trkpt><trkpt lat="-28.05860702556239" lon="114.19135896574561"><ele>9.0</ele><time>2026-04-13T09:22:52Z</time></trkpt><trkpt lat="-28.058371075788436" lon="114.19130933794709"><ele>9.0</ele><time>2026-04-13T09:22:53Z</time></trkpt><trkpt lat="-28.058134149994764" lon="114.19126444996687"><ele>9.0</ele><time>2026-04-13T09:22:54Z</time></trkpt><trkpt lat="-28.057907138020262" lon="114.19122463582153"><ele>9.0</ele><time>2026-04-13T09:22:55Z</time></trkpt><trkpt lat="-28.05769000899192" lon="114.19118748465377"><ele>9.0</ele><time>2026-04-13T09:22:56Z</time></trkpt><trkpt lat="-28.05748416521439" lon="114.19115496784731"><ele>9.0</ele><time>2026-04-13T09:22:57Z</time></trkpt><trkpt lat="-28.05728663561431" lon="114.1911317196094"><ele>10.0</ele><time>2026-04-13T09:22:58Z</time></trkpt><trkpt lat="-28.05709959755874" lon="114.19111018846036"><ele>11.0</ele><time>2026-04-13T09:22:59Z</time></trkpt><trkpt lat="-28.05692401102329" lon="114.1910927208783"><ele>12.0</ele><time>2026-04-13T09:23:00Z</time></trkpt><trkpt lat="-28.0567539654874" lon="114.19107607745777"><ele>12.0</ele><time>2026-04-13T09:23:01Z</time></trkpt><trkpt lat="-28.056597363117994" lon="114.19106452963484"><ele>12.0</ele><time>2026-04-13T09:23:02Z</time></trkpt><trkpt lat="-28.05646075808333" lon="114.19105901654679"><ele>12.0</ele><time>2026-04-13T09:23:03Z</time></trkpt><trkpt lat="-28.056347744878433" lon="114.19105541901301"><ele>12.0</ele><time>2026-04-13T09:23:04Z</time></trkpt><trkpt lat="-28.05625250129417" lon="114.19105242165926"><ele>12.0</ele><time>2026-04-13T09:23:05Z</time></trkpt><trkpt lat="-28.056172377279008" lon="114.19104700034798"><ele>12.0</ele><time>2026-04-13T09:23:06Z</time></trkpt><trkpt lat="-28.05610280507232" lon="114.19103206635211"><ele>12.0</ele><time>2026-04-13T09:23:07Z</time></trkpt><trkpt lat="-28.05604171450894" lon="114.19099831586729"><ele>12.0</ele><time>2026-04-13T09:23:08Z</time></trkpt><trkpt lat="-28.056001279543256" lon="114.1909422455022"><ele>12.0</ele><time>2026-04-13T09:23:09Z</time></trkpt><trkpt lat="-28.05599356869184" lon="114.19079276587203"><ele>12.0</ele><time>2026-04-13T09:23:11Z</time></trkpt><trkpt lat="-28.05600602789192" lon="114.19069775140731"><ele>11.833333333333334</ele><time>2026-04-13T09:23:12Z</time></trkpt><trkpt lat="-28.056020195393117" lon="114.19060864530596"><ele>11.666666666666666</ele><time>2026-04-13T09:23:13Z</time></trkpt><trkpt lat="-28.056028158366956" lon="114.19052498782007"><ele>11.5</ele><time>2026-04-13T09:23:14Z</time></trkpt><trkpt lat="-28.0560360212083" lon="114.19040147820506"><ele>11.333333333333332</ele><time>2026-04-13T09:23:16Z</time></trkpt><trkpt lat="-28.056039967352476" lon="114.19032118717583"><ele>11.166666666666666</ele><time>2026-04-13T09:23:18Z</time></trkpt><trkpt lat="-28.05605261215895" lon="114.19019591381641"><ele>11.0</ele><time>2026-04-13T09:23:38Z</time></trkpt><trkpt lat="-28.05605452502705" lon="114.19003540852408"><ele>11.0</ele><time>2026-04-13T09:23:40Z</time></trkpt><trkpt lat="-28.056057337977567" lon="114.18993763653094"><ele>11.0</ele><time>2026-04-13T09:23:41.001Z</time></trkpt><trkpt lat="-28.056060057882124" lon="114.18982767688775"><ele>11.0</ele><time>2026-04-13T09:23:42.001Z</time></trkpt><trkpt lat="-28.056065512077186" lon="114.18971807584103"><ele>11.0</ele><time>2026-04-13T09:23:43.001Z</time></trkpt><trkpt lat="-28.05606906815125" lon="114.18961080293273"><ele>11.0</ele><time>2026-04-13T09:23:44.001Z</time></trkpt><trkpt lat="-28.056076971959797" lon="114.18950512442765"><ele>11.75</ele><time>2026-04-13T09:23:45.001Z</time></trkpt><trkpt lat="-28.05608401294505" lon="114.18935446597845"><ele>12.5</ele><time>2026-04-13T09:23:46.001Z</time></trkpt><trkpt lat="-28.056107750674407" lon="114.18914095318462"><ele>13.25</ele><time>2026-04-13T09:23:47.001Z</time></trkpt><trkpt lat="-28.056125346746036" lon="114.18905952371647"><ele>14.0</ele><time>2026-04-13T09:23:48.001Z</time></trkpt><trkpt lat="-28.056143004293684" lon="114.18888062641598"><ele>15.0</ele><time>2026-04-13T09:23:49.001Z</time></trkpt><trkpt lat="-28.056161302790102" lon="114.18870475957597"><ele>16.0</ele><time>2026-04-13T09:23:50.001Z</time></trkpt><trkpt lat="-28.056186315730155" lon="114.18851902206191"><ele>17.0</ele><time>2026-04-13T09:23:51.001Z</time></trkpt><trkpt lat="-28.05621264803373" lon="114.18833073675754"><ele>17.666666666666668</ele><time>2026-04-13T09:23:52.001Z</time></trkpt><trkpt lat="-28.056237929773914" lon="114.18815048790782"><ele>18.333333333333332</ele><time>2026-04-13T09:23:53.001Z</time></trkpt><trkpt lat="-28.05627504574328" lon="114.1879732141915"><ele>19.0</ele><time>2026-04-13T09:23:54.001Z</time></trkpt><trkpt lat="-28.0563220532493" lon="114.18779852793344"><ele>19.0</ele><time>2026-04-13T09:23:55.001Z</time></trkpt><trkpt lat="-28.056362626444656" lon="114.1876185817672"><ele>19.0</ele><time>2026-04-13T09:23:56.001Z</time></trkpt><trkpt lat="-28.056402720004233" lon="114.18745314297352"><ele>19.0</ele><time>2026-04-13T09:23:57.001Z</time></trkpt><trkpt lat="-28.056447337818142" lon="114.18728161159505"><ele>17.666666666666664</ele><time>2026-04-13T09:23:58.001Z</time></trkpt><trkpt lat="-28.056501915120737" lon="114.18710429483005"><ele>16.333333333333332</ele><time>2026-04-13T09:23:59.001Z</time></trkpt><trkpt lat="-28.056569445288496" lon="114.18692064516117"><ele>15.0</ele><time>2026-04-13T09:24:00Z</time></trkpt><trkpt lat="-28.05664201978752" lon="114.18673314009176"><ele>13.666666666666666</ele><time>2026-04-13T09:24:01Z</time></trkpt><trkpt lat="-28.05672116236276" lon="114.18653177702829"><ele>12.333333333333332</ele><time>2026-04-13T09:24:02Z</time></trkpt><trkpt lat="-28.056811697597386" lon="114.1863239882137"><ele>11.0</ele><time>2026-04-13T09:24:03Z</time></trkpt><trkpt lat="-28.05689584054117" lon="114.18611341285997"><ele>10.333333333333332</ele><time>2026-04-13T09:24:04Z</time></trkpt><trkpt lat="-28.05697349705576" lon="114.18591072856796"><ele>9.666666666666666</ele><time>2026-04-13T09:24:05Z</time></trkpt><trkpt lat="-28.057059600655585" lon="114.18570242826151"><ele>9.0</ele><time>2026-04-13T09:24:06Z</time></trkpt><trkpt lat="-28.05714921418725" lon="114.18547753211378"><ele>8.666666666666666</ele><time>2026-04-13T09:24:07Z</time></trkpt><trkpt lat="-28.057237815610822" lon="114.18525628190717"><ele>8.333333333333332</ele><time>2026-04-13T09:24:08Z</time></trkpt><trkpt lat="-28.057318719784917" lon="114.18504559459471"><ele>8.0</ele><time>2026-04-13T09:24:09Z</time></trkpt><trkpt lat="-28.05738901506949" lon="114.18485047095267"><ele>8.333333333333332</ele><time>2026-04-13T09:24:10Z</time></trkpt><trkpt lat="-28.05747462846417" lon="114.18463616317818"><ele>8.666666666666666</ele><time>2026-04-13T09:24:11Z</time></trkpt><trkpt lat="-28.057558354601746" lon="114.18443000904426"><ele>9.0</ele><time>2026-04-13T09:24:12Z</time></trkpt><trkpt lat="-28.057650788676817" lon="114.18422052985176"><ele>8.666666666666666</ele><time>2026-04-13T09:24:13Z</time></trkpt><trkpt lat="-28.057732847204424" lon="114.18401173944191"><ele>8.333333333333332</ele><time>2026-04-13T09:24:14Z</time></trkpt><trkpt lat="-28.057807358056472" lon="114.18380997433835"><ele>8.0</ele><time>2026-04-13T09:24:15Z</time></trkpt><trkpt lat="-28.057886672732398" lon="114.18361527118714"><ele>8.0</ele><time>2026-04-13T09:24:16Z</time></trkpt><trkpt lat="-28.057959224276786" lon="114.18342851336996"><ele>8.0</ele><time>2026-04-13T09:24:17Z</time></trkpt><trkpt lat="-28.058028625527363" lon="114.18325020950171"><ele>8.0</ele><time>2026-04-13T09:24:18Z</time></trkpt><trkpt lat="-28.0580951519503" lon="114.18308519896395"><ele>8.0</ele><time>2026-04-13T09:24:19Z</time></trkpt><trkpt lat="-28.05816200510165" lon="114.18292909208546"><ele>8.0</ele><time>2026-04-13T09:24:20Z</time></trkpt><trkpt lat="-28.05821591803024" lon="114.18278444742738"><ele>8.0</ele><time>2026-04-13T09:24:21Z</time></trkpt><trkpt lat="-28.05827006053293" lon="114.18263523640066"><ele>8.0</ele><time>2026-04-13T09:24:22Z</time></trkpt><trkpt lat="-28.058324605509174" lon="114.18248183740567"><ele>7.75</ele><time>2026-04-13T09:24:23Z</time></trkpt><trkpt lat="-28.05838308398027" lon="114.18233349901071"><ele>7.5</ele><time>2026-04-13T09:24:24Z</time></trkpt><trkpt lat="-28.058437808161088" lon="114.18220378767326"><ele>7.25</ele><time>2026-04-13T09:24:25Z</time></trkpt><trkpt lat="-28.05848968108374" lon="114.18207928390572"><ele>7.0</ele><time>2026-04-13T09:24:26Z</time></trkpt><trkpt lat="-28.058539201058217" lon="114.18195218941933"><ele>7.0</ele><time>2026-04-13T09:24:27Z</time></trkpt><trkpt lat="-28.058600361845993" lon="114.18183852557304"><ele>7.0</ele><time>2026-04-13T09:24:28Z</time></trkpt><trkpt lat="-28.05866937388176" lon="114.18173378042171"><ele>7.0</ele><time>2026-04-13T09:24:29Z</time></trkpt><trkpt lat="-28.058750458276933" lon="114.18164742071606"><ele>7.0</ele><time>2026-04-13T09:24:30Z</time></trkpt><trkpt lat="-28.05884324301365" lon="114.18156004729214"><ele>7.199999999999999</ele><time>2026-04-13T09:24:31Z</time></trkpt><trkpt lat="-28.05894147780027" lon="114.18149582417324"><ele>7.3999999999999995</ele><time>2026-04-13T09:24:32Z</time></trkpt><trkpt lat="-28.059040922351045" lon="114.18146282346235"><ele>7.6000000000000005</ele><time>2026-04-13T09:24:33Z</time></trkpt><trkpt lat="-28.059146949937695" lon="114.18144775138802"><ele>7.800000000000001</ele><time>2026-04-13T09:24:34Z</time></trkpt><trkpt lat="-28.059252039516515" lon="114.18145442456442"><ele>8.0</ele><time>2026-04-13T09:24:35Z</time></trkpt><trkpt lat="-28.059378703698847" lon="114.18148683076504"><ele>7.75</ele><time>2026-04-13T09:24:36Z</time></trkpt><trkpt lat="-28.0595078981902" lon="114.18152710138476"><ele>7.5</ele><time>2026-04-13T09:24:37Z</time></trkpt><trkpt lat="-28.05965192625454" lon="114.18157868233062"><ele>7.25</ele><time>2026-04-13T09:24:38Z</time></trkpt><trkpt lat="-28.059798592796966" lon="114.181640422921"><ele>7.0</ele><time>2026-04-13T09:24:39Z</time></trkpt><trkpt lat="-28.059945605024357" lon="114.18170198277727"><ele>6.666666666666667</ele><time>2026-04-13T09:24:40Z</time></trkpt><trkpt lat="-28.060088675834873" lon="114.18177423638078"><ele>6.333333333333334</ele><time>2026-04-13T09:24:41Z</time></trkpt><trkpt lat="-28.06022768585828" lon="114.18184791024555"><ele>6.0</ele><time>2026-04-13T09:24:42Z</time></trkpt><trkpt lat="-28.060360376172596" lon="114.18191402175584"><ele>6.0</ele><time>2026-04-13T09:24:43Z</time></trkpt><trkpt lat="-28.060523918100987" lon="114.18198433173364"><ele>6.0</ele><time>2026-04-13T09:24:44Z</time></trkpt><trkpt lat="-28.060675379132125" lon="114.18205364549098"><ele>6.0</ele><time>2026-04-13T09:24:45Z</time></trkpt><trkpt lat="-28.060851497792772" lon="114.1821399857303"><ele>7.0</ele><time>2026-04-13T09:24:46Z</time></trkpt><trkpt lat="-28.06103806687999" lon="114.18223658951501"><ele>8.0</ele><time>2026-04-13T09:24:47Z</time></trkpt><trkpt lat="-28.061241520587554" lon="114.18233597430711"><ele>9.0</ele><time>2026-04-13T09:24:48Z</time></trkpt><trkpt lat="-28.061433195255002" lon="114.18243099228893"><ele>8.666666666666666</ele><time>2026-04-13T09:24:49Z</time></trkpt><trkpt lat="-28.06163849044734" lon="114.1825282082922"><ele>8.333333333333332</ele><time>2026-04-13T09:24:50Z</time></trkpt><trkpt lat="-28.061840245335983" lon="114.18262312632025"><ele>8.0</ele><time>2026-04-13T09:24:51Z</time></trkpt><trkpt lat="-28.06203634517168" lon="114.18272271388493"><ele>8.0</ele><time>2026-04-13T09:24:52Z</time></trkpt><trkpt lat="-28.0622318922415" lon="114.18281949059751"><ele>8.0</ele><time>2026-04-13T09:24:53Z</time></trkpt><trkpt lat="-28.062425959572558" lon="114.18291174574618"><ele>8.0</ele><time>2026-04-13T09:24:54Z</time></trkpt><trkpt lat="-28.06261842488896" lon="114.18300730260195"><ele>8.333333333333332</ele><time>2026-04-13T09:24:55Z</time></trkpt><trkpt lat="-28.062802626856055" lon="114.18310115120457"><ele>8.666666666666666</ele><time>2026-04-13T09:24:56Z</time></trkpt><trkpt lat="-28.062985096900576" lon="114.18319361496043"><ele>9.0</ele><time>2026-04-13T09:24:57Z</time></trkpt><trkpt lat="-28.06317416993564" lon="114.18329275999737"><ele>8.333333333333334</ele><time>2026-04-13T09:24:58Z</time></trkpt><trkpt lat="-28.063375898519883" lon="114.18338514260856"><ele>7.666666666666667</ele><time>2026-04-13T09:24:59Z</time></trkpt><trkpt lat="-28.063574149542625" lon="114.18348193909242"><ele>7.0</ele><time>2026-04-13T09:25:00Z</time></trkpt><trkpt lat="-28.063758124313534" lon="114.18357202728374"><ele>7.0</ele><time>2026-04-13T09:25:01Z</time></trkpt><trkpt lat="-28.063922279500783" lon="114.18365532040862"><ele>7.0</ele><time>2026-04-13T09:25:02Z</time></trkpt><trkpt lat="-28.06406845303602" lon="114.18373088946491"><ele>7.0</ele><time>2026-04-13T09:25:03Z</time></trkpt><trkpt lat="-28.064207369168475" lon="114.18381099715575"><ele>7.25</ele><time>2026-04-13T09:25:04Z</time></trkpt><trkpt lat="-28.06434146085999" lon="114.1838912946228"><ele>7.5</ele><time>2026-04-13T09:25:05Z</time></trkpt><trkpt lat="-28.064467430212694" lon="114.18395900104814"><ele>7.75</ele><time>2026-04-13T09:25:06Z</time></trkpt><trkpt lat="-28.06458289579792" lon="114.18401898714075"><ele>8.0</ele><time>2026-04-13T09:25:07Z</time></trkpt><trkpt lat="-28.064685481549613" lon="114.184074708886"><ele>8.0</ele><time>2026-04-13T09:25:08Z</time></trkpt><trkpt lat="-28.06478267654877" lon="114.18412135087851"><ele>8.0</ele><time>2026-04-13T09:25:09Z</time></trkpt><trkpt lat="-28.06488456398241" lon="114.1841609333893"><ele>8.0</ele><time>2026-04-13T09:25:10Z</time></trkpt><trkpt lat="-28.06499304967254" lon="114.18419531194056"><ele>8.0</ele><time>2026-04-13T09:25:11Z</time></trkpt><trkpt lat="-28.065087411060603" lon="114.1842118217247"><ele>8.0</ele><time>2026-04-13T09:25:12Z</time></trkpt><trkpt lat="-28.065175342361293" lon="114.18419860990697"><ele>8.0</ele><time>2026-04-13T09:25:13Z</time></trkpt><trkpt lat="-28.0652550158332" lon="114.18415693091416"><ele>8.0</ele><time>2026-04-13T09:25:14Z</time></trkpt><trkpt lat="-28.065318862729313" lon="114.18408221404925"><ele>8.0</ele><time>2026-04-13T09:25:15Z</time></trkpt><trkpt lat="-28.065361560217905" lon="114.18398260245232"><ele>8.0</ele><time>2026-04-13T09:25:16Z</time></trkpt><trkpt lat="-28.06538888643141" lon="114.18386459420222"><ele>8.0</ele><time>2026-04-13T09:25:17Z</time></trkpt><trkpt lat="-28.065402701256193" lon="114.18372251103"><ele>8.0</ele><time>2026-04-13T09:25:18Z</time></trkpt><trkpt lat="-28.06541100797064" lon="114.18355188889223"><ele>8.0</ele><time>2026-04-13T09:25:19Z</time></trkpt><trkpt lat="-28.06542098002881" lon="114.18335640872476"><ele>8.0</ele><time>2026-04-13T09:25:20Z</time></trkpt><trkpt lat="-28.06542377674244" lon="114.1831714613311"><ele>8.333333333333332</ele><time>2026-04-13T09:25:21Z</time></trkpt><trkpt lat="-28.065430561059408" lon="114.18299143527231"><ele>8.666666666666666</ele><time>2026-04-13T09:25:22Z</time></trkpt><trkpt lat="-28.065446744168323" lon="114.1828058997671"><ele>9.0</ele><time>2026-04-13T09:25:23Z</time></trkpt><trkpt lat="-28.06545014484632" lon="114.18261823003354"><ele>9.0</ele><time>2026-04-13T09:25:24Z</time></trkpt><trkpt lat="-28.06545757436203" lon="114.18243871580975"><ele>9.0</ele><time>2026-04-13T09:25:25Z</time></trkpt><trkpt lat="-28.065461160350612" lon="114.18227687587837"><ele>9.0</ele><time>2026-04-13T09:25:26Z</time></trkpt><trkpt lat="-28.0654711325188" lon="114.18212147329608"><ele>9.0</ele><time>2026-04-13T09:25:27Z</time></trkpt><trkpt lat="-28.065478932218767" lon="114.1819832930557"><ele>8.8</ele><time>2026-04-13T09:25:28Z</time></trkpt><trkpt lat="-28.065477369255103" lon="114.18186661512634"><ele>8.600000000000001</ele><time>2026-04-13T09:25:29Z</time></trkpt><trkpt lat="-28.065470529631458" lon="114.18175523469023"><ele>8.4</ele><time>2026-04-13T09:25:30Z</time></trkpt><trkpt lat="-28.065457422171736" lon="114.18162713095273"><ele>8.200000000000001</ele><time>2026-04-13T09:25:31Z</time></trkpt><trkpt lat="-28.0654346924877" lon="114.18148744055415"><ele>8.0</ele><time>2026-04-13T09:25:32Z</time></trkpt><trkpt lat="-28.06540145321452" lon="114.18134543483826"><ele>8.0</ele><time>2026-04-13T09:25:33Z</time></trkpt><trkpt lat="-28.065355622739343" lon="114.18120040825441"><ele>8.0</ele><time>2026-04-13T09:25:34Z</time></trkpt><trkpt lat="-28.06529749398835" lon="114.18104789580653"><ele>8.0</ele><time>2026-04-13T09:25:35Z</time></trkpt><trkpt lat="-28.065228200853724" lon="114.18090773601484"><ele>8.0</ele><time>2026-04-13T09:25:36Z</time></trkpt><trkpt lat="-28.0651449780168" lon="114.1807708153552"><ele>8.0</ele><time>2026-04-13T09:25:37Z</time></trkpt><trkpt lat="-28.065067150793144" lon="114.180656023923"><ele>8.0</ele><time>2026-04-13T09:25:38Z</time></trkpt><trkpt lat="-28.06498477270625" lon="114.18054031887236"><ele>8.0</ele><time>2026-04-13T09:25:39Z</time></trkpt><trkpt lat="-28.064920263386504" lon="114.18043990804647"><ele>8.0</ele><time>2026-04-13T09:25:40Z</time></trkpt><trkpt lat="-28.0648715510889" lon="114.18035859004507"><ele>7.833333333333333</ele><time>2026-04-13T09:25:41Z</time></trkpt><trkpt lat="-28.064830840746733" lon="114.18029571275405"><ele>7.666666666666666</ele><time>2026-04-13T09:25:42Z</time></trkpt><trkpt lat="-28.06479240783441" lon="114.1802326298952"><ele>7.5</ele><time>2026-04-13T09:25:44Z</time></trkpt><trkpt lat="-28.064759628529938" lon="114.18016070993627"><ele>7.333333333333334</ele><time>2026-04-13T09:26:45Z</time></trkpt><trkpt lat="-28.064680895836904" lon="114.18004219680157"><ele>7.166666666666667</ele><time>2026-04-13T09:26:47Z</time></trkpt><trkpt lat="-28.064627534381394" lon="114.17996773078546"><ele>7.0</ele><time>2026-04-13T09:26:48Z</time></trkpt><trkpt lat="-28.06455141767293" lon="114.17986324664663"><ele>6.75</ele><time>2026-04-13T09:26:49Z</time></trkpt><trkpt lat="-28.064464449713398" lon="114.1797487105384"><ele>6.5</ele><time>2026-04-13T09:26:50Z</time></trkpt><trkpt lat="-28.064367813593528" lon="114.17961790082427"><ele>6.25</ele><time>2026-04-13T09:26:51Z</time></trkpt><trkpt lat="-28.064280289295574" lon="114.1794722814284"><ele>6.0</ele><time>2026-04-13T09:26:52Z</time></trkpt><trkpt lat="-28.0641777753376" lon="114.17933095840641"><ele>6.0</ele><time>2026-04-13T09:26:53Z</time></trkpt><trkpt lat="-28.064084782610248" lon="114.17920250261619"><ele>6.0</ele><time>2026-04-13T09:26:54Z</time></trkpt><trkpt lat="-28.063981564954744" lon="114.17907821190252"><ele>6.0</ele><time>2026-04-13T09:26:55Z</time></trkpt><trkpt lat="-28.063885838691753" lon="114.17894517746537"><ele>6.0</ele><time>2026-04-13T09:26:56Z</time></trkpt><trkpt lat="-28.063788059115783" lon="114.17880722317817"><ele>6.0</ele><time>2026-04-13T09:26:57Z</time></trkpt><trkpt lat="-28.063697452186275" lon="114.17868084127093"><ele>6.0</ele><time>2026-04-13T09:26:58Z</time></trkpt><trkpt lat="-28.063608540200782" lon="114.1785600690224"><ele>6.0</ele><time>2026-04-13T09:26:59Z</time></trkpt><trkpt lat="-28.06352906954471" lon="114.17845547127756"><ele>6.0</ele><time>2026-04-13T09:27:00Z</time></trkpt><trkpt lat="-28.06345307297621" lon="114.17835603485383"><ele>6.0</ele><time>2026-04-13T09:27:01Z</time></trkpt><trkpt lat="-28.063379216122687" lon="114.17824362537975"><ele>6.0</ele><time>2026-04-13T09:27:02Z</time></trkpt><trkpt lat="-28.0633119808223" lon="114.17811433208696"><ele>6.0</ele><time>2026-04-13T09:27:03Z</time></trkpt><trkpt lat="-28.063254279243992" lon="114.17797999738198"><ele>6.0</ele><time>2026-04-13T09:27:04Z</time></trkpt><trkpt lat="-28.06320686791036" lon="114.17782930280697"><ele>6.0</ele><time>2026-04-13T09:27:05Z</time></trkpt><trkpt lat="-28.06316648297081" lon="114.17768759827001"><ele>6.0</ele><time>2026-04-13T09:27:06Z</time></trkpt><trkpt lat="-28.063122727861" lon="114.1775476853396"><ele>6.0</ele><time>2026-04-13T09:27:07Z</time></trkpt><trkpt lat="-28.063072678862607" lon="114.17740837082665"><ele>6.0</ele><time>2026-04-13T09:27:08Z</time></trkpt><trkpt lat="-28.063012060160638" lon="114.17726791585584"><ele>6.0</ele><time>2026-04-13T09:27:09Z</time></trkpt><trkpt lat="-28.062941570861973" lon="114.17712992222003"><ele>6.0</ele><time>2026-04-13T09:27:10Z</time></trkpt><trkpt lat="-28.062869700719418" lon="114.17699541322872"><ele>6.0</ele><time>2026-04-13T09:27:11Z</time></trkpt><trkpt lat="-28.062803305593867" lon="114.17687682263859"><ele>6.0</ele><time>2026-04-13T09:27:12Z</time></trkpt><trkpt lat="-28.06273038915542" lon="114.17675956692067"><ele>6.0</ele><time>2026-04-13T09:27:13Z</time></trkpt><trkpt lat="-28.0626454913663" lon="114.17663059150027"><ele>6.0</ele><time>2026-04-13T09:27:14Z</time></trkpt><trkpt lat="-28.06254856993208" lon="114.17649347351902"><ele>6.0</ele><time>2026-04-13T09:27:15Z</time></trkpt><trkpt lat="-28.06245332834128" lon="114.17638372532409"><ele>6.0</ele><time>2026-04-13T09:27:16Z</time></trkpt><trkpt lat="-28.062342638527504" lon="114.1762861939284"><ele>6.333333333333334</ele><time>2026-04-13T09:27:17Z</time></trkpt><trkpt lat="-28.06221806528265" lon="114.1762108319636"><ele>6.666666666666667</ele><time>2026-04-13T09:27:18Z</time></trkpt><trkpt lat="-28.06207199049477" lon="114.1761509254753"><ele>7.0</ele><time>2026-04-13T09:27:19Z</time></trkpt><trkpt lat="-28.06190622283555" lon="114.17610289656162"><ele>7.0</ele><time>2026-04-13T09:27:20Z</time></trkpt><trkpt lat="-28.06172698659347" lon="114.17606489383735"><ele>7.0</ele><time>2026-04-13T09:27:21Z</time></trkpt><trkpt lat="-28.061547571377304" lon="114.17603788838186"><ele>7.0</ele><time>2026-04-13T09:27:22Z</time></trkpt><trkpt lat="-28.061376677458455" lon="114.17601723864983"><ele>7.0</ele><time>2026-04-13T09:27:23Z</time></trkpt><trkpt lat="-28.061197422332498" lon="114.1760096186258"><ele>7.0</ele><time>2026-04-13T09:27:24Z</time></trkpt><trkpt lat="-28.061015040849636" lon="114.17601032721828"><ele>7.0</ele><time>2026-04-13T09:27:25Z</time></trkpt><trkpt lat="-28.06084192531048" lon="114.1760138188871"><ele>7.333333333333334</ele><time>2026-04-13T09:27:26Z</time></trkpt><trkpt lat="-28.060672655407153" lon="114.17601672566336"><ele>7.666666666666666</ele><time>2026-04-13T09:27:27Z</time></trkpt><trkpt lat="-28.06050178015624" lon="114.1760185132202"><ele>8.0</ele><time>2026-04-13T09:27:28Z</time></trkpt><trkpt lat="-28.060325920637187" lon="114.17601370440921"><ele>8.0</ele><time>2026-04-13T09:27:29Z</time></trkpt><trkpt lat="-28.060136839843207" lon="114.17599789942103"><ele>8.0</ele><time>2026-04-13T09:27:30Z</time></trkpt><trkpt lat="-28.059935915338674" lon="114.1759741156069"><ele>8.0</ele><time>2026-04-13T09:27:31Z</time></trkpt><trkpt lat="-28.059750359313565" lon="114.17594483902019"><ele>7.666666666666666</ele><time>2026-04-13T09:27:32Z</time></trkpt><trkpt lat="-28.05957466777953" lon="114.17591223485992"><ele>7.333333333333334</ele><time>2026-04-13T09:27:33Z</time></trkpt><trkpt lat="-28.059421315441053" lon="114.17587894804208"><ele>7.0</ele><time>2026-04-13T09:27:34Z</time></trkpt><trkpt lat="-28.059293457238976" lon="114.1758377383471"><ele>7.0</ele><time>2026-04-13T09:27:35Z</time></trkpt><trkpt lat="-28.059176550231836" lon="114.1757742248054"><ele>7.0</ele><time>2026-04-13T09:27:36Z</time></trkpt><trkpt lat="-28.05905623237007" lon="114.1756794629938"><ele>7.0</ele><time>2026-04-13T09:27:37Z</time></trkpt><trkpt lat="-28.058943056430248" lon="114.17553526486157"><ele>7.0</ele><time>2026-04-13T09:27:38Z</time></trkpt><trkpt lat="-28.05880766064544" lon="114.17538375494753"><ele>7.333333333333334</ele><time>2026-04-13T09:27:39Z</time></trkpt><trkpt lat="-28.05866417086619" lon="114.17524921233499"><ele>7.666666666666666</ele><time>2026-04-13T09:27:40Z</time></trkpt><trkpt lat="-28.05854760473297" lon="114.17511118757116"><ele>8.0</ele><time>2026-04-13T09:27:41Z</time></trkpt><trkpt lat="-28.05844371403951" lon="114.17497549115409"><ele>8.0</ele><time>2026-04-13T09:27:42Z</time></trkpt><trkpt lat="-28.058345878879074" lon="114.17481838611373"><ele>8.0</ele><time>2026-04-13T09:27:43Z</time></trkpt><trkpt lat="-28.058249658278164" lon="114.17462980731324"><ele>8.0</ele><time>2026-04-13T09:27:44Z</time></trkpt><trkpt lat="-28.058191890382297" lon="114.17440769546673"><ele>8.0</ele><time>2026-04-13T09:27:45Z</time></trkpt><trkpt lat="-28.058115195258765" lon="114.1741927013343"><ele>8.0</ele><time>2026-04-13T09:27:46Z</time></trkpt><trkpt lat="-28.05802688316654" lon="114.1739946375199"><ele>8.0</ele><time>2026-04-13T09:27:47Z</time></trkpt><trkpt lat="-28.057949283665646" lon="114.17377808842053"><ele>7.666666666666666</ele><time>2026-04-13T09:27:48Z</time></trkpt><trkpt lat="-28.057865036810412" lon="114.17356579211634"><ele>7.333333333333334</ele><time>2026-04-13T09:27:49Z</time></trkpt><trkpt lat="-28.057772656806264" lon="114.17335814710945"><ele>7.0</ele><time>2026-04-13T09:27:50Z</time></trkpt><trkpt lat="-28.057670153574314" lon="114.17313546342216"><ele>7.0</ele><time>2026-04-13T09:27:51Z</time></trkpt><trkpt lat="-28.057561062076925" lon="114.17291198987324"><ele>7.0</ele><time>2026-04-13T09:27:52Z</time></trkpt><trkpt lat="-28.05746078427898" lon="114.17270115558324"><ele>7.0</ele><time>2026-04-13T09:27:53Z</time></trkpt><trkpt lat="-28.057368225199273" lon="114.17249102068162"><ele>7.333333333333334</ele><time>2026-04-13T09:27:54Z</time></trkpt><trkpt lat="-28.057278267497534" lon="114.1722833415239"><ele>7.666666666666666</ele><time>2026-04-13T09:27:55Z</time></trkpt><trkpt lat="-28.057188713485957" lon="114.17206982810139"><ele>8.0</ele><time>2026-04-13T09:27:56Z</time></trkpt><trkpt lat="-28.057099718020964" lon="114.17186357685394"><ele>8.0</ele><time>2026-04-13T09:27:57Z</time></trkpt><trkpt lat="-28.05701809495569" lon="114.17166443225508"><ele>8.0</ele><time>2026-04-13T09:27:58Z</time></trkpt><trkpt lat="-28.056941716479518" lon="114.17145962261702"><ele>8.0</ele><time>2026-04-13T09:27:59Z</time></trkpt><trkpt lat="-28.056873148666785" lon="114.17125236941418"><ele>8.333333333333332</ele><time>2026-04-13T09:28:00Z</time></trkpt><trkpt lat="-28.05681321309596" lon="114.17104587084322"><ele>8.666666666666666</ele><time>2026-04-13T09:28:01Z</time></trkpt><trkpt lat="-28.056778092112328" lon="114.17084682342741"><ele>9.0</ele><time>2026-04-13T09:28:02Z</time></trkpt><trkpt lat="-28.056732948302955" lon="114.17066841262806"><ele>8.666666666666666</ele><time>2026-04-13T09:28:03Z</time></trkpt><trkpt lat="-28.056679525252385" lon="114.17047731942097"><ele>8.333333333333332</ele><time>2026-04-13T09:28:04Z</time></trkpt><trkpt lat="-28.056605647896472" lon="114.17029752910831"><ele>8.0</ele><time>2026-04-13T09:28:05Z</time></trkpt><trkpt lat="-28.056513200950015" lon="114.1701363589801"><ele>8.0</ele><time>2026-04-13T09:28:06Z</time></trkpt><trkpt lat="-28.05640258962871" lon="114.16999067107419"><ele>8.0</ele><time>2026-04-13T09:28:07Z</time></trkpt><trkpt lat="-28.056271603339166" lon="114.16984756757876"><ele>8.0</ele><time>2026-04-13T09:28:08Z</time></trkpt><trkpt lat="-28.056104968303117" lon="114.16970280366492"><ele>7.666666666666666</ele><time>2026-04-13T09:28:09Z</time></trkpt><trkpt lat="-28.055954460728163" lon="114.16954656506127"><ele>7.333333333333334</ele><time>2026-04-13T09:28:10Z</time></trkpt><trkpt lat="-28.05579935156407" lon="114.1694007379846"><ele>7.0</ele><time>2026-04-13T09:28:11Z</time></trkpt><trkpt lat="-28.05565292921625" lon="114.16927189254666"><ele>7.666666666666667</ele><time>2026-04-13T09:28:12Z</time></trkpt><trkpt lat="-28.0555058810908" lon="114.16914480335728"><ele>8.333333333333334</ele><time>2026-04-13T09:28:13Z</time></trkpt><trkpt lat="-28.05535489140351" lon="114.16902874774131"><ele>9.0</ele><time>2026-04-13T09:28:14Z</time></trkpt><trkpt lat="-28.055189118528606" lon="114.16891573026288"><ele>9.0</ele><time>2026-04-13T09:28:15Z</time></trkpt><trkpt lat="-28.055027893627397" lon="114.1688207271425"><ele>9.0</ele><time>2026-04-13T09:28:16Z</time></trkpt><trkpt lat="-28.05486907528281" lon="114.1687412778268"><ele>9.0</ele><time>2026-04-13T09:28:17Z</time></trkpt><trkpt lat="-28.054700842239843" lon="114.16867298140279"><ele>9.0</ele><time>2026-04-13T09:28:18Z</time></trkpt><trkpt lat="-28.0545364563387" lon="114.16861675326062"><ele>9.0</ele><time>2026-04-13T09:28:19Z</time></trkpt><trkpt lat="-28.054348900967096" lon="114.16855297668792"><ele>9.0</ele><time>2026-04-13T09:28:20Z</time></trkpt><trkpt lat="-28.05416761043805" lon="114.16847389481192"><ele>8.666666666666666</ele><time>2026-04-13T09:28:21Z</time></trkpt><trkpt lat="-28.05398757781542" lon="114.16841288626051"><ele>8.333333333333332</ele><time>2026-04-13T09:28:22Z</time></trkpt><trkpt lat="-28.053799224979088" lon="114.1683446368496"><ele>8.0</ele><time>2026-04-13T09:28:23Z</time></trkpt><trkpt lat="-28.053610316883166" lon="114.16827624398353"><ele>8.0</ele><time>2026-04-13T09:28:24Z</time></trkpt><trkpt lat="-28.053415847167457" lon="114.16820912858311"><ele>8.0</ele><time>2026-04-13T09:28:25Z</time></trkpt><trkpt lat="-28.05322247103452" lon="114.16814490921878"><ele>8.0</ele><time>2026-04-13T09:28:26Z</time></trkpt><trkpt lat="-28.05304673994032" lon="114.16810738494567"><ele>8.0</ele><time>2026-04-13T09:28:27Z</time></trkpt><trkpt lat="-28.052890575810913" lon="114.16805648514082"><ele>8.0</ele><time>2026-04-13T09:28:28Z</time></trkpt><trkpt lat="-28.05276231572703" lon="114.16799647861569"><ele>8.0</ele><time>2026-04-13T09:28:29Z</time></trkpt><trkpt lat="-28.05265659077386" lon="114.16795696371653"><ele>8.0</ele><time>2026-04-13T09:28:30Z</time></trkpt><trkpt lat="-28.052572086235337" lon="114.16790879038462"><ele>8.0</ele><time>2026-04-13T09:28:31Z</time></trkpt><trkpt lat="-28.052514331146398" lon="114.16785199740366"><ele>8.0</ele><time>2026-04-13T09:28:32Z</time></trkpt><trkpt lat="-28.052464783457374" lon="114.16777773212569"><ele>8.0</ele><time>2026-04-13T09:28:33Z</time></trkpt><trkpt lat="-28.052429747190047" lon="114.16767532442559"><ele>8.0</ele><time>2026-04-13T09:28:34Z</time></trkpt><trkpt lat="-28.05242361330115" lon="114.16755088627255"><ele>8.0</ele><time>2026-04-13T09:28:35Z</time></trkpt><trkpt lat="-28.05240498335105" lon="114.16741814089491"><ele>8.25</ele><time>2026-04-13T09:28:36Z</time></trkpt><trkpt lat="-28.052387416865827" lon="114.16729178916543"><ele>8.5</ele><time>2026-04-13T09:28:37Z</time></trkpt><trkpt lat="-28.052358687814102" lon="114.16716334167758"><ele>8.75</ele><time>2026-04-13T09:28:38Z</time></trkpt><trkpt lat="-28.052318117535577" lon="114.16703553470977"><ele>9.0</ele><time>2026-04-13T09:28:39Z</time></trkpt><trkpt lat="-28.052251806234118" lon="114.16690551101071"><ele>9.0</ele><time>2026-04-13T09:28:40Z</time></trkpt><trkpt lat="-28.052167205298804" lon="114.16681415699668"><ele>9.0</ele><time>2026-04-13T09:28:41Z</time></trkpt><trkpt lat="-28.052090773638223" lon="114.16671788888384"><ele>9.0</ele><time>2026-04-13T09:28:42Z</time></trkpt><trkpt lat="-28.052008308142053" lon="114.16662343768043"><ele>9.0</ele><time>2026-04-13T09:28:43Z</time></trkpt><trkpt lat="-28.051933254483576" lon="114.16651322981986"><ele>9.25</ele><time>2026-04-13T09:28:44Z</time></trkpt><trkpt lat="-28.051843389637813" lon="114.16641709913912"><ele>9.5</ele><time>2026-04-13T09:28:45Z</time></trkpt><trkpt lat="-28.051750000289154" lon="114.16632023233177"><ele>9.75</ele><time>2026-04-13T09:28:46Z</time></trkpt><trkpt lat="-28.051632858532265" lon="114.16622520487536"><ele>10.0</ele><time>2026-04-13T09:28:47Z</time></trkpt><trkpt lat="-28.05152676122946" lon="114.16610549863167"><ele>9.5</ele><time>2026-04-13T09:28:48Z</time></trkpt><trkpt lat="-28.051425137589852" lon="114.16599818231578"><ele>9.0</ele><time>2026-04-13T09:28:49Z</time></trkpt><trkpt lat="-28.051330652960477" lon="114.16590145913443"><ele>8.5</ele><time>2026-04-13T09:28:50Z</time></trkpt><trkpt lat="-28.051263365835513" lon="114.16579734877493"><ele>8.0</ele><time>2026-04-13T09:28:51Z</time></trkpt><trkpt lat="-28.051195399787193" lon="114.1657220543795"><ele>8.0</ele><time>2026-04-13T09:28:52Z</time></trkpt><trkpt lat="-28.051130757120816" lon="114.16566410788433"><ele>7.999999999999999</ele><time>2026-04-13T09:28:53Z</time></trkpt><trkpt lat="-28.05105576259541" lon="114.16564433613293"><ele>8.0</ele><time>2026-04-13T09:28:54Z</time></trkpt><trkpt lat="-28.050985919755565" lon="114.16562586828299"><ele>8.0</ele><time>2026-04-13T09:28:55Z</time></trkpt><trkpt lat="-28.0509150565662" lon="114.16563313730039"><ele>7.999999999999999</ele><time>2026-04-13T09:28:56Z</time></trkpt><trkpt lat="-28.050846936792215" lon="114.16565639305097"><ele>8.0</ele><time>2026-04-13T09:28:57Z</time></trkpt><trkpt lat="-28.05078007236484" lon="114.16568915938514"><ele>8.0</ele><time>2026-04-13T09:28:58Z</time></trkpt><trkpt lat="-28.050714337431142" lon="114.16572376701126"><ele>8.200000000000001</ele><time>2026-04-13T09:28:59Z</time></trkpt><trkpt lat="-28.050654677165323" lon="114.16575498877978"><ele>8.4</ele><time>2026-04-13T09:29:00Z</time></trkpt><trkpt lat="-28.05055736938307" lon="114.16581871932453"><ele>8.600000000000001</ele><time>2026-04-13T09:29:02Z</time></trkpt><trkpt lat="-28.05046525912298" lon="114.16586067301378"><ele>8.8</ele><time>2026-04-13T09:29:04Z</time></trkpt><trkpt lat="-28.05036886232316" lon="114.16588148185141"><ele>9.0</ele><time>2026-04-13T09:29:06Z</time></trkpt><trkpt lat="-28.05028765430856" lon="114.16590267945332"><ele>9.0</ele><time>2026-04-13T09:29:08Z</time></trkpt><trkpt lat="-28.050210067466747" lon="114.16592463369861"><ele>9.0</ele><time>2026-04-13T09:29:11Z</time></trkpt><trkpt lat="-28.050275898204564" lon="114.16590070852357"><ele>9.0</ele><time>2026-04-13T09:30:01Z</time></trkpt><trkpt lat="-28.050192686291634" lon="114.16585031110334"><ele>9.0</ele><time>2026-04-13T09:30:21Z</time></trkpt><trkpt lat="-28.050256799185718" lon="114.16585869320112"><ele>9.0</ele><time>2026-04-13T09:30:32Z</time></trkpt><trkpt lat="-28.05028314017356" lon="114.16578104060957"><ele>9.0</ele><time>2026-04-13T09:31:06Z</time></trkpt><trkpt lat="-28.050283455003004" lon="114.16585994627457"><ele>9.000000000000002</ele><time>2026-04-13T09:32:31Z</time></trkpt><trkpt lat="-28.050208761680114" lon="114.16586947858517"><ele>9.0</ele><time>2026-04-13T09:32:40Z</time></trkpt><trkpt lat="-28.05027407070288" lon="114.16583339822945"><ele>9.0</ele><time>2026-04-13T09:32:55Z</time></trkpt><trkpt lat="-28.050261924435816" lon="114.16575814953136"><ele>9.0</ele><time>2026-04-13T09:33:12Z</time></trkpt><trkpt lat="-28.050263963159843" lon="114.16568211800981"><ele>9.0</ele><time>2026-04-13T09:33:14Z</time></trkpt><trkpt lat="-28.050297800605417" lon="114.16575742914075"><ele>9.000000000000002</ele><time>2026-04-13T09:35:00Z</time></trkpt><trkpt lat="-28.05030524298081" lon="114.16583212709716"><ele>9.0</ele><time>2026-04-13T09:35:10Z</time></trkpt><trkpt lat="-28.05027193737941" lon="114.16576100848341"><ele>9.0</ele><time>2026-04-13T09:35:57Z</time></trkpt><trkpt lat="-28.050247062529937" lon="114.16569498569685"><ele>9.0</ele><time>2026-04-13T09:36:13.999Z</time></trkpt><trkpt lat="-28.050274693731257" lon="114.16576263523403"><ele>9.0</ele><time>2026-04-13T09:37:13Z</time></trkpt><trkpt lat="-28.050280224684702" lon="114.16585736007715"><ele>9.0</ele><time>2026-04-13T09:37:21Z</time></trkpt><trkpt lat="-28.050298749307714" lon="114.16593097390106"><ele>9.0</ele><time>2026-04-13T09:37:23Z</time></trkpt><trkpt lat="-28.05030528178989" lon="114.16600380834196"><ele>9.0</ele><time>2026-04-13T09:37:26Z</time></trkpt><trkpt lat="-28.05030181900676" lon="114.16584710866066"><ele>9.000000000000002</ele><time>2026-04-13T09:37:52Z</time></trkpt><trkpt lat="-28.05025934377086" lon="114.1657832325166"><ele>9.0</ele><time>2026-04-13T09:38:57Z</time></trkpt><trkpt lat="-28.05029040815572" lon="114.16584764489464"><ele>9.0</ele><time>2026-04-13T09:39:41Z</time></trkpt><trkpt lat="-28.050226992276517" lon="114.16585792040934"><ele>9.0</ele><time>2026-04-13T09:39:50Z</time></trkpt><trkpt lat="-28.05016054630615" lon="114.16582093162495"><ele>9.0</ele><time>2026-04-13T09:40:13Z</time></trkpt><trkpt lat="-28.050095655639687" lon="114.16582810962144"><ele>9.000000000000002</ele><time>2026-04-13T09:42:09Z</time></trkpt><trkpt lat="-28.05005364746832" lon="114.16590391406297"><ele>9.0</ele><time>2026-04-13T09:42:11Z</time></trkpt><trkpt lat="-28.050000839854047" lon="114.1659732866979"><ele>9.2</ele><time>2026-04-13T09:42:13Z</time></trkpt><trkpt lat="-28.049923147252308" lon="114.16601881562671"><ele>9.4</ele><time>2026-04-13T09:42:15Z</time></trkpt><trkpt lat="-28.049845330581494" lon="114.16601926651164"><ele>9.6</ele><time>2026-04-13T09:42:18Z</time></trkpt><trkpt lat="-28.049721163947535" lon="114.16602969813962"><ele>9.8</ele><time>2026-04-13T09:42:28.999Z</time></trkpt><trkpt lat="-28.049650895627774" lon="114.16602959178427"><ele>10.0</ele><time>2026-04-13T09:42:29.999Z</time></trkpt><trkpt lat="-28.04955906414754" lon="114.16602471742601"><ele>10.0</ele><time>2026-04-13T09:42:30.999Z</time></trkpt><trkpt lat="-28.04945623373246" lon="114.16601702541392"><ele>10.0</ele><time>2026-04-13T09:42:31.999Z</time></trkpt><trkpt lat="-28.049352061389737" lon="114.16601018622515"><ele>10.0</ele><time>2026-04-13T09:42:33Z</time></trkpt><trkpt lat="-28.049236446840563" lon="114.16600226289084"><ele>10.0</ele><time>2026-04-13T09:42:34Z</time></trkpt><trkpt lat="-28.049117020505776" lon="114.16599419067506"><ele>10.0</ele><time>2026-04-13T09:42:35Z</time></trkpt><trkpt lat="-28.048990117818402" lon="114.16598617735306"><ele>10.0</ele><time>2026-04-13T09:42:36Z</time></trkpt><trkpt lat="-28.048857727291715" lon="114.16598101771301"><ele>10.0</ele><time>2026-04-13T09:42:37Z</time></trkpt><trkpt lat="-28.048726457430732" lon="114.16597692477339"><ele>10.0</ele><time>2026-04-13T09:42:38Z</time></trkpt><trkpt lat="-28.048595527136353" lon="114.16597152661997"><ele>10.0</ele><time>2026-04-13T09:42:39Z</time></trkpt><trkpt lat="-28.048468376624587" lon="114.16595755649453"><ele>10.0</ele><time>2026-04-13T09:42:40Z</time></trkpt><trkpt lat="-28.04835391472926" lon="114.1659137759952"><ele>10.0</ele><time>2026-04-13T09:42:41Z</time></trkpt><trkpt lat="-28.04823227973573" lon="114.16587400807963"><ele>10.0</ele><time>2026-04-13T09:42:42Z</time></trkpt><trkpt lat="-28.048089103351266" lon="114.16584191313228"><ele>10.0</ele><time>2026-04-13T09:42:43Z</time></trkpt><trkpt lat="-28.047955921430905" lon="114.16579178988083"><ele>9.5</ele><time>2026-04-13T09:42:44Z</time></trkpt><trkpt lat="-28.04783948179656" lon="114.16574919984"><ele>9.0</ele><time>2026-04-13T09:42:45Z</time></trkpt><trkpt lat="-28.04772423684002" lon="114.16571086045188"><ele>8.5</ele><time>2026-04-13T09:42:46Z</time></trkpt><trkpt lat="-28.047617407816006" lon="114.16567330281718"><ele>8.0</ele><time>2026-04-13T09:42:47Z</time></trkpt><trkpt lat="-28.04751923458418" lon="114.16562945116378"><ele>8.4</ele><time>2026-04-13T09:42:48Z</time></trkpt><trkpt lat="-28.047423918644093" lon="114.16557337583171"><ele>8.8</ele><time>2026-04-13T09:42:49Z</time></trkpt><trkpt lat="-28.04732598914191" lon="114.1655063764137"><ele>9.2</ele><time>2026-04-13T09:42:50Z</time></trkpt><trkpt lat="-28.04725171643165" lon="114.16541399146631"><ele>9.6</ele><time>2026-04-13T09:42:51Z</time></trkpt><trkpt lat="-28.04716438960454" lon="114.16535200869983"><ele>10.0</ele><time>2026-04-13T09:42:52Z</time></trkpt><trkpt lat="-28.04708623628759" lon="114.16528428032443"><ele>10.0</ele><time>2026-04-13T09:42:53Z</time></trkpt><trkpt lat="-28.04700381041126" lon="114.16522472809284"><ele>10.0</ele><time>2026-04-13T09:42:54Z</time></trkpt><trkpt lat="-28.04691304882673" lon="114.16517570742872"><ele>10.0</ele><time>2026-04-13T09:42:55Z</time></trkpt><trkpt lat="-28.046806457775165" lon="114.1651382174631"><ele>10.0</ele><time>2026-04-13T09:42:56Z</time></trkpt><trkpt lat="-28.04669770502006" lon="114.1650966964124"><ele>10.0</ele><time>2026-04-13T09:42:57Z</time></trkpt><trkpt lat="-28.046588525670792" lon="114.16510641142546"><ele>10.0</ele><time>2026-04-13T09:42:58Z</time></trkpt><trkpt lat="-28.04648256685206" lon="114.16511494784214"><ele>10.0</ele><time>2026-04-13T09:42:59Z</time></trkpt><trkpt lat="-28.046368856097622" lon="114.16514535997777"><ele>10.0</ele><time>2026-04-13T09:43:00Z</time></trkpt><trkpt lat="-28.046253329215812" lon="114.16519138040883"><ele>10.0</ele><time>2026-04-13T09:43:01Z</time></trkpt><trkpt lat="-28.046158560320265" lon="114.16524178420913"><ele>10.0</ele><time>2026-04-13T09:43:02Z</time></trkpt><trkpt lat="-28.046078137866704" lon="114.16527447466471"><ele>10.0</ele><time>2026-04-13T09:43:03Z</time></trkpt><trkpt lat="-28.046006736715327" lon="114.16528671626686"><ele>10.0</ele><time>2026-04-13T09:43:04Z</time></trkpt><trkpt lat="-28.0459293711496" lon="114.16527786988631"><ele>10.0</ele><time>2026-04-13T09:43:05Z</time></trkpt><trkpt lat="-28.045840501280527" lon="114.16524755405197"><ele>10.0</ele><time>2026-04-13T09:43:06Z</time></trkpt><trkpt lat="-28.045737233769927" lon="114.16520427519144"><ele>10.0</ele><time>2026-04-13T09:43:07Z</time></trkpt><trkpt lat="-28.045607424319062" lon="114.16515182247232"><ele>9.666666666666668</ele><time>2026-04-13T09:43:08Z</time></trkpt><trkpt lat="-28.045475861349516" lon="114.1650791980382"><ele>9.333333333333334</ele><time>2026-04-13T09:43:09Z</time></trkpt><trkpt lat="-28.045326618530144" lon="114.16504142431216"><ele>9.0</ele><time>2026-04-13T09:43:10Z</time></trkpt><trkpt lat="-28.045184954005947" lon="114.16497840453566"><ele>9.0</ele><time>2026-04-13T09:43:11Z</time></trkpt><trkpt lat="-28.045042127415943" lon="114.16492796471671"><ele>9.0</ele><time>2026-04-13T09:43:12Z</time></trkpt><trkpt lat="-28.04491064073634" lon="114.16490323178823"><ele>9.0</ele><time>2026-04-13T09:43:13Z</time></trkpt><trkpt lat="-28.044790691503696" lon="114.16485803208126"><ele>9.0</ele><time>2026-04-13T09:43:14Z</time></trkpt><trkpt lat="-28.04465539196895" lon="114.16485186109347"><ele>9.25</ele><time>2026-04-13T09:43:15Z</time></trkpt><trkpt lat="-28.04452104162101" lon="114.16483211843921"><ele>9.5</ele><time>2026-04-13T09:43:16Z</time></trkpt><trkpt lat="-28.04439470191788" lon="114.16480600883429"><ele>9.75</ele><time>2026-04-13T09:43:17Z</time></trkpt><trkpt lat="-28.044283988652047" lon="114.1647386285856"><ele>10.0</ele><time>2026-04-13T09:43:18Z</time></trkpt><trkpt lat="-28.044161750672856" lon="114.16469970186381"><ele>9.75</ele><time>2026-04-13T09:43:19Z</time></trkpt><trkpt lat="-28.044040933964865" lon="114.164672436268"><ele>9.5</ele><time>2026-04-13T09:43:20Z</time></trkpt><trkpt lat="-28.043929548571622" lon="114.16466680057545"><ele>9.25</ele><time>2026-04-13T09:43:21Z</time></trkpt><trkpt lat="-28.043817927285396" lon="114.16463924070734"><ele>9.0</ele><time>2026-04-13T09:43:22Z</time></trkpt><trkpt lat="-28.043714709344616" lon="114.16457995761075"><ele>9.0</ele><time>2026-04-13T09:43:23Z</time></trkpt><trkpt lat="-28.043617195229963" lon="114.16453103914745"><ele>9.0</ele><time>2026-04-13T09:43:24Z</time></trkpt><trkpt lat="-28.043522773508183" lon="114.16447656962792"><ele>9.0</ele><time>2026-04-13T09:43:25Z</time></trkpt><trkpt lat="-28.04342921625804" lon="114.16441910319594"><ele>9.0</ele><time>2026-04-13T09:43:26Z</time></trkpt><trkpt lat="-28.04334799038358" lon="114.16436864128775"><ele>9.0</ele><time>2026-04-13T09:43:27Z</time></trkpt><trkpt lat="-28.043254107754578" lon="114.16430728732672"><ele>9.0</ele><time>2026-04-13T09:43:28Z</time></trkpt><trkpt lat="-28.043137782491524" lon="114.1642312053642"><ele>9.0</ele><time>2026-04-13T09:43:29Z</time></trkpt><trkpt lat="-28.043008190199288" lon="114.16414397980469"><ele>9.0</ele><time>2026-04-13T09:43:30Z</time></trkpt><trkpt lat="-28.042881737740476" lon="114.16405010201981"><ele>9.0</ele><time>2026-04-13T09:43:31Z</time></trkpt><trkpt lat="-28.042757160886147" lon="114.16395222964064"><ele>9.0</ele><time>2026-04-13T09:43:32Z</time></trkpt><trkpt lat="-28.042626578077005" lon="114.16385371815468"><ele>9.0</ele><time>2026-04-13T09:43:33Z</time></trkpt><trkpt lat="-28.042505971087493" lon="114.16377871810951"><ele>9.0</ele><time>2026-04-13T09:43:34Z</time></trkpt><trkpt lat="-28.04239913858338" lon="114.16372191898002"><ele>9.0</ele><time>2026-04-13T09:43:35Z</time></trkpt><trkpt lat="-28.042289983167603" lon="114.16367096779217"><ele>8.75</ele><time>2026-04-13T09:43:36Z</time></trkpt><trkpt lat="-28.04217390622591" lon="114.16361657540679"><ele>8.5</ele><time>2026-04-13T09:43:37Z</time></trkpt><trkpt lat="-28.042042573175777" lon="114.16357051698957"><ele>8.25</ele><time>2026-04-13T09:43:38Z</time></trkpt><trkpt lat="-28.04190402029417" lon="114.16350529762832"><ele>8.0</ele><time>2026-04-13T09:43:39Z</time></trkpt><trkpt lat="-28.04176565307463" lon="114.16344021504186"><ele>8.0</ele><time>2026-04-13T09:43:40Z</time></trkpt><trkpt lat="-28.04165192894579" lon="114.16335934924955"><ele>8.0</ele><time>2026-04-13T09:43:41Z</time></trkpt><trkpt lat="-28.041546364339332" lon="114.16329041734461"><ele>8.0</ele><time>2026-04-13T09:43:42Z</time></trkpt><trkpt lat="-28.041438875997084" lon="114.16322444930056"><ele>8.0</ele><time>2026-04-13T09:43:43Z</time></trkpt><trkpt lat="-28.041334907231136" lon="114.16316457754839"><ele>7.833333333333333</ele><time>2026-04-13T09:43:44Z</time></trkpt><trkpt lat="-28.041250880416197" lon="114.1631221554358"><ele>7.666666666666666</ele><time>2026-04-13T09:43:45Z</time></trkpt><trkpt lat="-28.041175922190686" lon="114.1630908917949"><ele>7.5</ele><time>2026-04-13T09:43:46Z</time></trkpt><trkpt lat="-28.04110821101262" lon="114.16306808949498"><ele>7.333333333333334</ele><time>2026-04-13T09:43:47Z</time></trkpt><trkpt lat="-28.04103907491801" lon="114.16304948874846"><ele>7.166666666666667</ele><time>2026-04-13T09:43:48Z</time></trkpt><trkpt lat="-28.040961902537315" lon="114.16303094004311"><ele>7.0</ele><time>2026-04-13T09:43:49Z</time></trkpt><trkpt lat="-28.040884036834644" lon="114.16301389673812"><ele>7.000000000000001</ele><time>2026-04-13T09:43:50Z</time></trkpt><trkpt lat="-28.040786775008826" lon="114.16299617313314"><ele>7.0</ele><time>2026-04-13T09:43:51Z</time></trkpt><trkpt lat="-28.04069353683154" lon="114.1629831979681"><ele>7.0</ele><time>2026-04-13T09:43:52Z</time></trkpt><trkpt lat="-28.04060272846839" lon="114.16297813770068"><ele>7.0</ele><time>2026-04-13T09:43:53Z</time></trkpt><trkpt lat="-28.040519448258195" lon="114.16296129243271"><ele>7.000000000000001</ele><time>2026-04-13T09:43:54Z</time></trkpt><trkpt lat="-28.040440474539494" lon="114.16296292787516"><ele>7.0</ele><time>2026-04-13T09:43:55Z</time></trkpt><trkpt lat="-28.040360283623503" lon="114.1629496476816"><ele>7.000000000000001</ele><time>2026-04-13T09:43:56Z</time></trkpt><trkpt lat="-28.040274997654596" lon="114.16292733796104"><ele>7.0</ele><time>2026-04-13T09:43:57Z</time></trkpt><trkpt lat="-28.040178638319155" lon="114.1628935787026"><ele>7.0</ele><time>2026-04-13T09:43:58Z</time></trkpt><trkpt lat="-28.040103339767047" lon="114.16286451642702"><ele>7.0</ele><time>2026-04-13T09:43:59Z</time></trkpt><trkpt lat="-28.04002883214376" lon="114.16283047016746"><ele>7.000000000000001</ele><time>2026-04-13T09:44:00Z</time></trkpt><trkpt lat="-28.03995238103913" lon="114.16279373708952"><ele>7.0</ele><time>2026-04-13T09:44:01Z</time></trkpt><trkpt lat="-28.03987061499906" lon="114.1627502181145"><ele>7.25</ele><time>2026-04-13T09:44:02Z</time></trkpt><trkpt lat="-28.039768146348838" lon="114.16269916209889"><ele>7.5</ele><time>2026-04-13T09:44:03Z</time></trkpt><trkpt lat="-28.03966100844974" lon="114.16264833320609"><ele>7.75</ele><time>2026-04-13T09:44:04Z</time></trkpt><trkpt lat="-28.039535144340203" lon="114.16258862016207"><ele>8.0</ele><time>2026-04-13T09:44:05Z</time></trkpt><trkpt lat="-28.03939666180098" lon="114.16251869658923"><ele>8.0</ele><time>2026-04-13T09:44:06Z</time></trkpt><trkpt lat="-28.039232104848487" lon="114.16242992246816"><ele>8.0</ele><time>2026-04-13T09:44:07Z</time></trkpt><trkpt lat="-28.039079280953718" lon="114.16234578882958"><ele>8.0</ele><time>2026-04-13T09:44:08Z</time></trkpt><trkpt lat="-28.038916533334984" lon="114.16225619200202"><ele>8.0</ele><time>2026-04-13T09:44:09Z</time></trkpt><trkpt lat="-28.03877419557958" lon="114.16217885338692"><ele>8.0</ele><time>2026-04-13T09:44:10Z</time></trkpt><trkpt lat="-28.038642674832474" lon="114.1621109817641"><ele>8.0</ele><time>2026-04-13T09:44:11Z</time></trkpt><trkpt lat="-28.03850125769428" lon="114.16206874508498"><ele>8.0</ele><time>2026-04-13T09:44:12Z</time></trkpt><trkpt lat="-28.03838353729202" lon="114.16201040870314"><ele>8.0</ele><time>2026-04-13T09:44:13Z</time></trkpt><trkpt lat="-28.038272592800556" lon="114.1619536039995"><ele>8.0</ele><time>2026-04-13T09:44:14Z</time></trkpt><trkpt lat="-28.038168594610017" lon="114.16189935454936"><ele>8.0</ele><time>2026-04-13T09:44:15Z</time></trkpt><trkpt lat="-28.03809055936554" lon="114.1618208248097"><ele>8.0</ele><time>2026-04-13T09:44:16Z</time></trkpt><trkpt lat="-28.03799803132496" lon="114.16176905617789"><ele>8.0</ele><time>2026-04-13T09:44:17Z</time></trkpt><trkpt lat="-28.03793105355506" lon="114.16170622766433"><ele>8.0</ele><time>2026-04-13T09:44:18Z</time></trkpt><trkpt lat="-28.037867706097828" lon="114.16166763468755"><ele>8.0</ele><time>2026-04-13T09:44:19Z</time></trkpt><trkpt lat="-28.03777203513349" lon="114.16161733740536"><ele>8.0</ele><time>2026-04-13T09:44:21Z</time></trkpt><trkpt lat="-28.037683054997473" lon="114.16159889421138"><ele>8.0</ele><time>2026-04-13T09:44:23Z</time></trkpt><trkpt lat="-28.037562929978062" lon="114.16159844151626"><ele>8.0</ele><time>2026-04-13T09:44:25Z</time></trkpt><trkpt lat="-28.037491015869435" lon="114.16161107511226"><ele>8.0</ele><time>2026-04-13T09:44:26Z</time></trkpt><trkpt lat="-28.037417605588228" lon="114.16161532979712"><ele>8.0</ele><time>2026-04-13T09:44:27Z</time></trkpt><trkpt lat="-28.037327249241372" lon="114.16160554061842"><ele>8.0</ele><time>2026-04-13T09:44:28Z</time></trkpt><trkpt lat="-28.03722888432793" lon="114.1615802337509"><ele>8.0</ele><time>2026-04-13T09:44:29Z</time></trkpt><trkpt lat="-28.037129971116038" lon="114.16158436691234"><ele>8.0</ele><time>2026-04-13T09:44:30Z</time></trkpt><trkpt lat="-28.037024498435994" lon="114.1615724177404"><ele>8.0</ele><time>2026-04-13T09:44:31Z</time></trkpt><trkpt lat="-28.03692041131507" lon="114.16156434872546"><ele>8.0</ele><time>2026-04-13T09:44:32Z</time></trkpt><trkpt lat="-28.036822699845487" lon="114.16155262690671"><ele>8.0</ele><time>2026-04-13T09:44:33Z</time></trkpt><trkpt lat="-28.036719342228203" lon="114.16154260232054"><ele>8.0</ele><time>2026-04-13T09:44:34Z</time></trkpt><trkpt lat="-28.03661033934426" lon="114.1615287671783"><ele>8.0</ele><time>2026-04-13T09:44:35Z</time></trkpt><trkpt lat="-28.036498605749433" lon="114.16151759743113"><ele>8.200000000000001</ele><time>2026-04-13T09:44:36Z</time></trkpt><trkpt lat="-28.03639612584497" lon="114.16150775010003"><ele>8.4</ele><time>2026-04-13T09:44:37Z</time></trkpt><trkpt lat="-28.03629893216963" lon="114.16150292395037"><ele>8.600000000000001</ele><time>2026-04-13T09:44:38Z</time></trkpt><trkpt lat="-28.03619128462278" lon="114.16150104096529"><ele>8.8</ele><time>2026-04-13T09:44:39Z</time></trkpt><trkpt lat="-28.036078953801983" lon="114.16149708247727"><ele>9.0</ele><time>2026-04-13T09:44:40Z</time></trkpt><trkpt lat="-28.035951413841786" lon="114.16149120519624"><ele>9.0</ele><time>2026-04-13T09:44:41Z</time></trkpt><trkpt lat="-28.035820399569165" lon="114.16148468039758"><ele>9.0</ele><time>2026-04-13T09:44:42Z</time></trkpt><trkpt lat="-28.0356928554918" lon="114.1614798997195"><ele>9.0</ele><time>2026-04-13T09:44:43Z</time></trkpt><trkpt lat="-28.035580129889034" lon="114.16147579717753"><ele>9.0</ele><time>2026-04-13T09:44:44Z</time></trkpt><trkpt lat="-28.035467329346325" lon="114.16147138196887"><ele>8.75</ele><time>2026-04-13T09:44:45Z</time></trkpt><trkpt lat="-28.03534524698217" lon="114.16144331380312"><ele>8.5</ele><time>2026-04-13T09:44:46Z</time></trkpt><trkpt lat="-28.035231081527247" lon="114.16143250822473"><ele>8.25</ele><time>2026-04-13T09:44:47Z</time></trkpt><trkpt lat="-28.035119414190167" lon="114.16142012953689"><ele>8.0</ele><time>2026-04-13T09:44:48Z</time></trkpt><trkpt lat="-28.035002371823108" lon="114.16140629040943"><ele>8.25</ele><time>2026-04-13T09:44:49Z</time></trkpt><trkpt lat="-28.034893551847926" lon="114.16140715045277"><ele>8.5</ele><time>2026-04-13T09:44:50Z</time></trkpt><trkpt lat="-28.034785585859286" lon="114.16138065428063"><ele>8.75</ele><time>2026-04-13T09:44:51Z</time></trkpt><trkpt lat="-28.034670013934118" lon="114.161345331563"><ele>9.0</ele><time>2026-04-13T09:44:52Z</time></trkpt><trkpt lat="-28.034545639086417" lon="114.1612996536831"><ele>9.0</ele><time>2026-04-13T09:44:53Z</time></trkpt><trkpt lat="-28.034407781770362" lon="114.16124396166435"><ele>9.0</ele><time>2026-04-13T09:44:54Z</time></trkpt><trkpt lat="-28.03428127911131" lon="114.16117026810247"><ele>9.0</ele><time>2026-04-13T09:44:55Z</time></trkpt><trkpt lat="-28.034151328893795" lon="114.1611036738643"><ele>9.0</ele><time>2026-04-13T09:44:56Z</time></trkpt><trkpt lat="-28.034020040634555" lon="114.16103447148625"><ele>9.25</ele><time>2026-04-13T09:44:57Z</time></trkpt><trkpt lat="-28.033894063382753" lon="114.16096635084031"><ele>9.5</ele><time>2026-04-13T09:44:58Z</time></trkpt><trkpt lat="-28.03377410258925" lon="114.16089934566995"><ele>9.75</ele><time>2026-04-13T09:44:59Z</time></trkpt><trkpt lat="-28.03366185454416" lon="114.16083453925873"><ele>10.0</ele><time>2026-04-13T09:45:00Z</time></trkpt><trkpt lat="-28.033560593554075" lon="114.16077349234594"><ele>10.0</ele><time>2026-04-13T09:45:01Z</time></trkpt><trkpt lat="-28.033467961091688" lon="114.16071421027408"><ele>10.0</ele><time>2026-04-13T09:45:02Z</time></trkpt><trkpt lat="-28.03339082512302" lon="114.16066299233694"><ele>10.0</ele><time>2026-04-13T09:45:03Z</time></trkpt><trkpt lat="-28.033332059746645" lon="114.16062193268968"><ele>10.0</ele><time>2026-04-13T09:45:04Z</time></trkpt><trkpt lat="-28.033274568770054" lon="114.16058063485592"><ele>10.0</ele><time>2026-04-13T09:45:05Z</time></trkpt><trkpt lat="-28.033218886794966" lon="114.16054063645922"><ele>10.0</ele><time>2026-04-13T09:45:06Z</time></trkpt><trkpt lat="-28.033110912737158" lon="114.16049171802716"><ele>10.4</ele><time>2026-04-13T09:45:08Z</time></trkpt><trkpt lat="-28.03302560403852" lon="114.16041965978434"><ele>10.8</ele><time>2026-04-13T09:45:10Z</time></trkpt><trkpt lat="-28.032921480634997" lon="114.16036019153003"><ele>11.2</ele><time>2026-04-13T09:45:12Z</time></trkpt><trkpt lat="-28.03286090969343" lon="114.160328742613"><ele>11.6</ele><time>2026-04-13T09:45:13Z</time></trkpt><trkpt lat="-28.032749758222185" lon="114.16028324365881"><ele>12.0</ele><time>2026-04-13T09:45:15Z</time></trkpt><trkpt lat="-28.03264103738862" lon="114.16025070698616"><ele>11.999999999999998</ele><time>2026-04-13T09:45:17Z</time></trkpt><trkpt lat="-28.032542156719636" lon="114.16022459829806"><ele>12.0</ele><time>2026-04-13T09:45:19Z</time></trkpt><trkpt lat="-28.03247127862766" lon="114.16020588345323"><ele>12.0</ele><time>2026-04-13T09:45:21Z</time></trkpt><trkpt lat="-28.032400517095983" lon="114.16018614231352"><ele>12.0</ele><time>2026-04-13T09:45:24Z</time></trkpt><trkpt lat="-28.03233599041541" lon="114.16018000906371"><ele>12.0</ele><time>2026-04-13T09:45:26Z</time></trkpt><trkpt lat="-28.0322784944627" lon="114.16014392539391"><ele>11.999999999999998</ele><time>2026-04-13T09:45:28Z</time></trkpt><trkpt lat="-28.03221720330126" lon="114.16011489666465"><ele>12.0</ele><time>2026-04-13T09:45:30Z</time></trkpt><trkpt lat="-28.0321268684185" lon="114.16005311071989"><ele>12.0</ele><time>2026-04-13T09:45:32Z</time></trkpt><trkpt lat="-28.032051984985177" lon="114.1600001626798"><ele>12.0</ele><time>2026-04-13T09:45:34Z</time></trkpt><trkpt lat="-28.031981138145387" lon="114.15996077964921"><ele>12.0</ele><time>2026-04-13T09:45:36Z</time></trkpt><trkpt lat="-28.03191224927758" lon="114.15991342985548"><ele>12.0</ele><time>2026-04-13T09:45:38Z</time></trkpt><trkpt lat="-28.03185742609795" lon="114.15987725905599"><ele>12.0</ele><time>2026-04-13T09:45:40Z</time></trkpt><trkpt lat="-28.03180136376835" lon="114.15983280300892"><ele>12.0</ele><time>2026-04-13T09:45:43Z</time></trkpt><trkpt lat="-28.031787378096382" lon="114.15995080225676"><ele>11.4</ele><time>2026-04-13T09:45:50Z</time></trkpt><trkpt lat="-28.031894022803833" lon="114.159945579942"><ele>10.799999999999999</ele><time>2026-04-13T09:45:52Z</time></trkpt><trkpt lat="-28.031994953197295" lon="114.15993470808851"><ele>10.2</ele><time>2026-04-13T09:45:54Z</time></trkpt><trkpt lat="-28.03207956972742" lon="114.15993233939942"><ele>9.6</ele><time>2026-04-13T09:45:56Z</time></trkpt><trkpt lat="-28.03215946151746" lon="114.15994651661023"><ele>9.0</ele><time>2026-04-13T09:45:58Z</time></trkpt><trkpt lat="-28.032241894859517" lon="114.15996074440845"><ele>9.0</ele><time>2026-04-13T09:46:00Z</time></trkpt><trkpt lat="-28.032330252443334" lon="114.15996866706911"><ele>9.0</ele><time>2026-04-13T09:46:03Z</time></trkpt><trkpt lat="-28.032428359161322" lon="114.15997885590801"><ele>9.0</ele><time>2026-04-13T09:46:05Z</time></trkpt><trkpt lat="-28.032494793664444" lon="114.15998955422408"><ele>9.0</ele><time>2026-04-13T09:46:07Z</time></trkpt><trkpt lat="-28.03255454141975" lon="114.16001959061929"><ele>9.0</ele><time>2026-04-13T09:50:31Z</time></trkpt><trkpt lat="-28.032621829914373" lon="114.1600096661343"><ele>9.0</ele><time>2026-04-13T09:50:41.999Z</time></trkpt><trkpt lat="-28.03269873353784" lon="114.15999515526622"><ele>9.5</ele><time>2026-04-13T09:50:45.999Z</time></trkpt><trkpt lat="-28.03277406891651" lon="114.15999129675643"><ele>10.0</ele><time>2026-04-13T09:51:00Z</time></trkpt><trkpt lat="-28.032842307658516" lon="114.16001127393699"><ele>10.5</ele><time>2026-04-13T09:51:07Z</time></trkpt><trkpt lat="-28.032910975812694" lon="114.16003662141918"><ele>11.0</ele><time>2026-04-13T09:51:09Z</time></trkpt><trkpt lat="-28.032994470840926" lon="114.16001853348318"><ele>11.5</ele><time>2026-04-13T09:51:11Z</time></trkpt><trkpt lat="-28.0330810788161" lon="114.16004147949091"><ele>12.0</ele><time>2026-04-13T09:51:13Z</time></trkpt><trkpt lat="-28.03321060293626" lon="114.16003894245011"><ele>12.0</ele><time>2026-04-13T09:51:15Z</time></trkpt><trkpt lat="-28.033285246405224" lon="114.16003982170932"><ele>12.0</ele><time>2026-04-13T09:51:16Z</time></trkpt><trkpt lat="-28.033364561789035" lon="114.16003746149855"><ele>12.0</ele><time>2026-04-13T09:51:17Z</time></trkpt><trkpt lat="-28.033433406297824" lon="114.16003978965436"><ele>12.0</ele><time>2026-04-13T09:51:18Z</time></trkpt><trkpt lat="-28.03355742178366" lon="114.16005371909392"><ele>12.0</ele><time>2026-04-13T09:51:20Z</time></trkpt><trkpt lat="-28.0336266645904" lon="114.16008367734945"><ele>12.0</ele><time>2026-04-13T09:51:21Z</time></trkpt><trkpt lat="-28.0336979793339" lon="114.16012367926366"><ele>11.833333333333334</ele><time>2026-04-13T09:51:22Z</time></trkpt><trkpt lat="-28.03377100090971" lon="114.16016620310819"><ele>11.666666666666666</ele><time>2026-04-13T09:51:23Z</time></trkpt><trkpt lat="-28.033829898645948" lon="114.16019939088078"><ele>11.5</ele><time>2026-04-13T09:51:24Z</time></trkpt><trkpt lat="-28.033918941831313" lon="114.16022076038051"><ele>11.333333333333332</ele><time>2026-04-13T09:51:26Z</time></trkpt><trkpt lat="-28.033988588215056" lon="114.16024124872811"><ele>11.166666666666666</ele><time>2026-04-13T09:51:28Z</time></trkpt><trkpt lat="-28.034079745213205" lon="114.16027389573507"><ele>11.0</ele><time>2026-04-13T09:51:31Z</time></trkpt><trkpt lat="-28.03416369835188" lon="114.1602880832371"><ele>11.0</ele><time>2026-04-13T09:51:33Z</time></trkpt><trkpt lat="-28.03428153111659" lon="114.16027025647678"><ele>11.0</ele><time>2026-04-13T09:51:35Z</time></trkpt><trkpt lat="-28.034359700296374" lon="114.16026580643478"><ele>11.0</ele><time>2026-04-13T09:51:36Z</time></trkpt><trkpt lat="-28.03443897664407" lon="114.16027896549791"><ele>11.0</ele><time>2026-04-13T09:51:37Z</time></trkpt><trkpt lat="-28.034502742281816" lon="114.1602964057002"><ele>11.0</ele><time>2026-04-13T09:51:38Z</time></trkpt><trkpt lat="-28.034588410299808" lon="114.16032842078604"><ele>11.0</ele><time>2026-04-13T09:51:40Z</time></trkpt><trkpt lat="-28.034660290572305" lon="114.1603431593729"><ele>11.0</ele><time>2026-04-13T09:51:42Z</time></trkpt><trkpt lat="-28.03473713269361" lon="114.160339300256"><ele>11.0</ele><time>2026-04-13T09:51:45Z</time></trkpt><trkpt lat="-28.034789277971623" lon="114.16039549880578"><ele>11.0</ele><time>2026-04-13T09:51:48Z</time></trkpt><trkpt lat="-28.03471491750145" lon="114.16040923258906"><ele>11.0</ele><time>2026-04-13T09:51:51Z</time></trkpt><trkpt lat="-28.034703899594536" lon="114.16029717362356"><ele>11.0</ele><time>2026-04-13T09:51:53Z</time></trkpt><trkpt lat="-28.03472826112484" lon="114.1602291778207"><ele>11.0</ele><time>2026-04-13T09:51:54Z</time></trkpt><trkpt lat="-28.03470835204327" lon="114.16010854052269"><ele>11.0</ele><time>2026-04-13T09:51:56Z</time></trkpt><trkpt lat="-28.034656148780186" lon="114.16001970376124"><ele>11.0</ele><time>2026-04-13T09:51:58Z</time></trkpt><trkpt lat="-28.03456024880394" lon="114.15997588887606"><ele>11.0</ele><time>2026-04-13T09:52:00Z</time></trkpt><trkpt lat="-28.034497242378517" lon="114.16000063827816"><ele>11.0</ele><time>2026-04-13T09:52:01Z</time></trkpt><trkpt lat="-28.0344422746505" lon="114.1600365151288"><ele>11.0</ele><time>2026-04-13T09:52:02Z</time></trkpt><trkpt lat="-28.034347317829543" lon="114.16008131012404"><ele>11.0</ele><time>2026-04-13T09:52:04Z</time></trkpt><trkpt lat="-28.034283415459203" lon="114.16007332104022"><ele>11.0</ele><time>2026-04-13T09:54:42.999Z</time></trkpt><trkpt lat="-28.034218957629502" lon="114.16006829896588"><ele>11.0</ele><time>2026-04-13T09:54:47.999Z</time></trkpt><trkpt lat="-28.034168163567784" lon="114.16001808715463"><ele>11.0</ele><time>2026-04-13T09:54:53.999Z</time></trkpt><trkpt lat="-28.03411077541441" lon="114.15997957762892"><ele>11.0</ele><time>2026-04-13T09:55:00.999Z</time></trkpt><trkpt lat="-28.03404632037796" lon="114.15997399315668"><ele>11.0</ele><time>2026-04-13T09:55:06.999Z</time></trkpt><trkpt lat="-28.03397649622824" lon="114.1599435858772"><ele>11.0</ele><time>2026-04-13T09:55:13Z</time></trkpt><trkpt lat="-28.033901984253482" lon="114.15994811676667"><ele>11.0</ele><time>2026-04-13T09:55:19Z</time></trkpt><trkpt lat="-28.03383282437259" lon="114.15996877951929"><ele>10.857142857142858</ele><time>2026-04-13T09:55:25Z</time></trkpt><trkpt lat="-28.033770595994845" lon="114.16000999133401"><ele>10.714285714285714</ele><time>2026-04-13T09:55:30Z</time></trkpt><trkpt lat="-28.033733929126452" lon="114.1600697594756"><ele>10.571428571428571</ele><time>2026-04-13T09:55:35Z</time></trkpt><trkpt lat="-28.033672622712974" lon="114.16008847534341"><ele>10.428571428571429</ele><time>2026-04-13T09:55:39Z</time></trkpt><trkpt lat="-28.033599004825444" lon="114.16009573705124"><ele>10.285714285714286</ele><time>2026-04-13T09:55:45Z</time></trkpt><trkpt lat="-28.03353221703503" lon="114.16006503466443"><ele>10.142857142857142</ele><time>2026-04-13T09:55:50Z</time></trkpt><trkpt lat="-28.033471990541187" lon="114.16002212227713"><ele>10.0</ele><time>2026-04-13T09:55:55Z</time></trkpt><trkpt lat="-28.033464429622313" lon="114.15995075384231"><ele>10.0</ele><time>2026-04-13T09:56:00Z</time></trkpt><trkpt lat="-28.03350035683477" lon="114.16001792293719"><ele>10.0</ele><time>2026-04-13T09:56:14Z</time></trkpt><trkpt lat="-28.033553665678518" lon="114.16005810837414"><ele>10.0</ele><time>2026-04-13T09:56:18.999Z</time></trkpt><trkpt lat="-28.03363725699704" lon="114.16006966277703"><ele>10.0</ele><time>2026-04-13T09:56:23.999Z</time></trkpt><trkpt lat="-28.033705788558567" lon="114.16006384217519"><ele>10.0</ele><time>2026-04-13T09:56:29.999Z</time></trkpt><trkpt lat="-28.033762325413157" lon="114.16001196227664"><ele>10.0</ele><time>2026-04-13T09:56:34.999Z</time></trkpt><trkpt lat="-28.033814032792122" lon="114.15996860437198"><ele>10.0</ele><time>2026-04-13T09:56:39.999Z</time></trkpt><trkpt lat="-28.03387717069537" lon="114.15995810842817"><ele>10.0</ele><time>2026-04-13T09:56:43.999Z</time></trkpt><trkpt lat="-28.03395546538557" lon="114.15995323337138"><ele>10.0</ele><time>2026-04-13T09:56:48.999Z</time></trkpt><trkpt lat="-28.034023620586524" lon="114.1599656086307"><ele>10.0</ele><time>2026-04-13T09:56:53.999Z</time></trkpt><trkpt lat="-28.034091502066527" lon="114.15997405872446"><ele>10.0</ele><time>2026-04-13T09:56:58.999Z</time></trkpt><trkpt lat="-28.034155284408534" lon="114.15999986499784"><ele>10.0</ele><time>2026-04-13T09:57:03.999Z</time></trkpt><trkpt lat="-28.034200737672318" lon="114.16005363969951"><ele>10.0</ele><time>2026-04-13T09:57:08.999Z</time></trkpt><trkpt lat="-28.0342735698331" lon="114.16007436384731"><ele>10.0</ele><time>2026-04-13T09:57:15Z</time></trkpt><trkpt lat="-28.03433911586662" lon="114.16010312287024"><ele>10.142857142857142</ele><time>2026-04-13T09:57:20Z</time></trkpt><trkpt lat="-28.034414337367565" lon="114.16011872206784"><ele>10.285714285714286</ele><time>2026-04-13T09:58:15.999Z</time></trkpt><trkpt lat="-28.03447822274116" lon="114.16008585688152"><ele>10.428571428571429</ele><time>2026-04-13T09:58:21.999Z</time></trkpt><trkpt lat="-28.034530843036013" lon="114.16003410652301"><ele>10.571428571428571</ele><time>2026-04-13T09:58:24.999Z</time></trkpt><trkpt lat="-28.034605095525528" lon="114.16001772843212"><ele>10.714285714285714</ele><time>2026-04-13T09:58:27.999Z</time></trkpt><trkpt lat="-28.034665285648554" lon="114.1600421429946"><ele>10.857142857142858</ele><time>2026-04-13T09:58:38.999Z</time></trkpt><trkpt lat="-28.034703967743507" lon="114.16010836856412"><ele>11.0</ele><time>2026-04-13T09:58:41.999Z</time></trkpt><trkpt lat="-28.03474455059445" lon="114.16019468695352"><ele>11.0</ele><time>2026-04-13T09:58:44.999Z</time></trkpt><trkpt lat="-28.03474921397313" lon="114.16027540809468"><ele>11.0</ele><time>2026-04-13T09:58:46.999Z</time></trkpt><trkpt lat="-28.034705651576186" lon="114.16033120431312"><ele>11.0</ele><time>2026-04-13T09:59:26Z</time></trkpt><trkpt lat="-28.034644294127258" lon="114.16034873459569"><ele>11.0</ele><time>2026-04-13T09:59:28Z</time></trkpt><trkpt lat="-28.034559314762316" lon="114.16032239335273"><ele>11.0</ele><time>2026-04-13T09:59:30Z</time></trkpt><trkpt lat="-28.034456701053884" lon="114.16028940867614"><ele>11.0</ele><time>2026-04-13T09:59:32Z</time></trkpt><trkpt lat="-28.034372868879167" lon="114.16027469167928"><ele>11.0</ele><time>2026-04-13T09:59:34Z</time></trkpt><trkpt lat="-28.034277173810395" lon="114.1602704527794"><ele>11.0</ele><time>2026-04-13T09:59:36Z</time></trkpt><trkpt lat="-28.034156692553232" lon="114.16027560585624"><ele>11.0</ele><time>2026-04-13T09:59:38Z</time></trkpt><trkpt lat="-28.034049363838772" lon="114.16026948191751"><ele>11.0</ele><time>2026-04-13T09:59:40Z</time></trkpt><trkpt lat="-28.033976441085297" lon="114.16023570703149"><ele>11.0</ele><time>2026-04-13T09:59:42Z</time></trkpt><trkpt lat="-28.033885418884605" lon="114.16020644376945"><ele>10.8</ele><time>2026-04-13T09:59:44Z</time></trkpt><trkpt lat="-28.033823166661662" lon="114.16019230342204"><ele>10.600000000000001</ele><time>2026-04-13T09:59:45Z</time></trkpt><trkpt lat="-28.033716128887306" lon="114.16016178683189"><ele>10.4</ele><time>2026-04-13T09:59:47Z</time></trkpt><trkpt lat="-28.03362533587058" lon="114.16010829169436"><ele>10.2</ele><time>2026-04-13T09:59:49Z</time></trkpt><trkpt lat="-28.03352346413068" lon="114.1600494221122"><ele>10.0</ele><time>2026-04-13T09:59:51Z</time></trkpt><trkpt lat="-28.03346531264757" lon="114.15997107778873"><ele>10.0</ele><time>2026-04-13T09:59:53Z</time></trkpt><trkpt lat="-28.03350350590633" lon="114.1599124496831"><ele>10.0</ele><time>2026-04-13T10:00:04Z</time></trkpt><trkpt lat="-28.03343774738522" lon="114.15990152198547"><ele>10.0</ele><time>2026-04-13T10:00:43.999Z</time></trkpt><trkpt lat="-28.0334046767475" lon="114.15983777470704"><ele>10.0</ele><time>2026-04-13T10:00:48.999Z</time></trkpt><trkpt lat="-28.03344814555747" lon="114.15988961636678"><ele>10.0</ele><time>2026-04-13T10:01:03.999Z</time></trkpt><trkpt lat="-28.033441819242242" lon="114.15996431869569"><ele>10.0</ele><time>2026-04-13T10:01:17.999Z</time></trkpt><trkpt lat="-28.033373068742776" lon="114.16000277869566"><ele>10.0</ele><time>2026-04-13T10:01:23.999Z</time></trkpt><trkpt lat="-28.033297435993067" lon="114.16003398277188"><ele>10.285714285714285</ele><time>2026-04-13T10:01:30Z</time></trkpt><trkpt lat="-28.033242196331095" lon="114.16006920085798"><ele>10.571428571428571</ele><time>2026-04-13T10:01:35Z</time></trkpt><trkpt lat="-28.033173214560243" lon="114.16005724154923"><ele>10.857142857142858</ele><time>2026-04-13T10:01:41Z</time></trkpt><trkpt lat="-28.033103705721764" lon="114.16005136986948"><ele>11.142857142857142</ele><time>2026-04-13T10:01:46Z</time></trkpt><trkpt lat="-28.033030956591944" lon="114.1600659117972"><ele>11.428571428571429</ele><time>2026-04-13T10:01:51Z</time></trkpt><trkpt lat="-28.032963286876118" lon="114.16004499950913"><ele>11.714285714285714</ele><time>2026-04-13T10:01:55.999Z</time></trkpt><trkpt lat="-28.032903576239107" lon="114.16001224840417"><ele>12.0</ele><time>2026-04-13T10:02:00.999Z</time></trkpt><trkpt lat="-28.032835737907902" lon="114.15997505152492"><ele>11.999999999999998</ele><time>2026-04-13T10:02:05.999Z</time></trkpt><trkpt lat="-28.032768975892573" lon="114.15996656952514"><ele>12.0</ele><time>2026-04-13T10:02:10.999Z</time></trkpt><trkpt lat="-28.03269975239986" lon="114.15998479819257"><ele>12.0</ele><time>2026-04-13T10:02:15.999Z</time></trkpt><trkpt lat="-28.032745863884287" lon="114.1599179108978"><ele>12.0</ele><time>2026-04-13T10:02:23.999Z</time></trkpt><trkpt lat="-28.032751048000538" lon="114.15984057750028"><ele>12.0</ele><time>2026-04-13T10:02:32.999Z</time></trkpt><trkpt lat="-28.03272663435543" lon="114.1597609456064"><ele>11.999999999999998</ele><time>2026-04-13T10:02:39.999Z</time></trkpt><trkpt lat="-28.032758802002714" lon="114.15969545157024"><ele>12.0</ele><time>2026-04-13T10:02:45.999Z</time></trkpt><trkpt lat="-28.032811513403505" lon="114.15963980527071"><ele>11.999999999999998</ele><time>2026-04-13T10:02:55.999Z</time></trkpt><trkpt lat="-28.032864478580237" lon="114.15959561231777"><ele>12.0</ele><time>2026-04-13T10:03:01.999Z</time></trkpt><trkpt lat="-28.032888110150267" lon="114.15952537016076"><ele>12.0</ele><time>2026-04-13T10:03:05.999Z</time></trkpt><trkpt lat="-28.032948827764603" lon="114.15948977376961"><ele>12.0</ele><time>2026-04-13T10:03:13.999Z</time></trkpt><trkpt lat="-28.03301389030899" lon="114.15947227612412"><ele>12.0</ele><time>2026-04-13T10:03:18.999Z</time></trkpt><trkpt lat="-28.03305146404505" lon="114.1594119020139"><ele>11.999999999999998</ele><time>2026-04-13T10:03:24.999Z</time></trkpt><trkpt lat="-28.033113537365146" lon="114.15937472523434"><ele>12.0</ele><time>2026-04-13T10:03:30.999Z</time></trkpt><trkpt lat="-28.03317266791582" lon="114.15933491628027"><ele>11.999999999999998</ele><time>2026-04-13T10:03:35.999Z</time></trkpt><trkpt lat="-28.03323316491826" lon="114.15928009660662"><ele>12.0</ele><time>2026-04-13T10:03:42.999Z</time></trkpt><trkpt lat="-28.033190737628168" lon="114.15919816407286"><ele>12.0</ele><time>2026-04-13T10:03:49.999Z</time></trkpt><trkpt lat="-28.033122921519322" lon="114.15919451674479"><ele>12.0</ele><time>2026-04-13T10:03:56.999Z</time></trkpt><trkpt lat="-28.033081108168464" lon="114.15912938913914"><ele>12.0</ele><time>2026-04-13T10:04:02.999Z</time></trkpt><trkpt lat="-28.033077656712624" lon="114.15904678788971"><ele>11.999999999999998</ele><time>2026-04-13T10:04:13.999Z</time></trkpt><trkpt lat="-28.033087182943056" lon="114.1589647794808"><ele>12.0</ele><time>2026-04-13T10:04:19.999Z</time></trkpt><trkpt lat="-28.03306886349493" lon="114.15889648108266"><ele>7.0</ele><time>2026-04-13T10:04:23.999Z</time></trkpt><trkpt lat="-28.033085798876108" lon="114.15882604997735"><ele>7.0</ele><time>2026-04-13T10:04:28.999Z</time></trkpt><trkpt lat="-28.03312694075922" lon="114.15876922121593"><ele>7.0</ele><time>2026-04-13T10:04:33.999Z</time></trkpt><trkpt lat="-28.033124408388517" lon="114.15868833548008"><ele>7.0</ele><time>2026-04-13T10:04:38.999Z</time></trkpt><trkpt lat="-28.033133661401756" lon="114.15861603316507"><ele>7.0</ele><time>2026-04-13T10:04:42.999Z</time></trkpt><trkpt lat="-28.033161195776703" lon="114.15855035272575"><ele>7.0</ele><time>2026-04-13T10:04:48.999Z</time></trkpt><trkpt lat="-28.03313267542666" lon="114.15847851738651"><ele>7.0</ele><time>2026-04-13T10:04:55.999Z</time></trkpt></trkseg></trk></gpx>